<?xml version='1.0' encoding='UTF-8'?><gpx version="1.1" creator="JPX - https://github.com/jenetics/jpx" xmlns="http://www.topografix.com/GPX/1/1"><trk><trkseg><trkpt lat="40.882135" lon="16.6394867"><ele>464.00000000000006</ele><time>2026-05-03T10:40:05.561Z</time></trkpt><trkpt lat="40.882225" lon="16.639485"><ele>464.0</ele><time>2026-05-03T10:40:07.561Z</time></trkpt><trkpt lat="40.8823" lon="16.6394883"><ele>464.00000000000006</ele><time>2026-05-03T10:40:08.561Z</time></trkpt><trkpt lat="40.8823667" lon="16.6394917"><ele>464.00000000000006</ele><time>2026-05-03T10:40:09.561Z</time></trkpt><trkpt lat="40.8824367" lon="16.6394917"><ele>464.0</ele><time>2026-05-03T10:40:10.561Z</time></trkpt><trkpt lat="40.8825033" lon="16.6394933"><ele>464.00000000000006</ele><time>2026-05-03T10:40:11.561Z</time></trkpt><trkpt lat="40.8825817" lon="16.6395"><ele>464.00000000000006</ele><time>2026-05-03T10:40:12.562Z</time></trkpt><trkpt lat="40.8826483" lon="16.639485"><ele>463.66666666666663</ele><time>2026-05-03T10:40:13.561Z</time></trkpt><trkpt lat="40.8827583" lon="16.63942"><ele>463.3333333333333</ele><time>2026-05-03T10:40:15.562Z</time></trkpt><trkpt lat="40.882805" lon="16.6393583"><ele>463.0</ele><time>2026-05-03T10:40:16.562Z</time></trkpt><trkpt lat="40.8828483" lon="16.63928"><ele>462.66666666666663</ele><time>2026-05-03T10:40:17.562Z</time></trkpt><trkpt lat="40.8828717" lon="16.6391867"><ele>462.3333333333333</ele><time>2026-05-03T10:40:18.561Z</time></trkpt><trkpt lat="40.882885" lon="16.6391"><ele>462.0</ele><time>2026-05-03T10:40:19.561Z</time></trkpt><trkpt lat="40.8828883" lon="16.6390083"><ele>462.0</ele><time>2026-05-03T10:40:20.561Z</time></trkpt><trkpt lat="40.88288" lon="16.6389083"><ele>462.0</ele><time>2026-05-03T10:40:21.561Z</time></trkpt><trkpt lat="40.8828733" lon="16.638805"><ele>462.0</ele><time>2026-05-03T10:40:22.561Z</time></trkpt><trkpt lat="40.8828983" lon="16.6386683"><ele>462.0</ele><time>2026-05-03T10:40:24.562Z</time></trkpt><trkpt lat="40.8829633" lon="16.6385367"><ele>462.0</ele><time>2026-05-03T10:40:26.561Z</time></trkpt><trkpt lat="40.8830183" lon="16.6384883"><ele>462.0</ele><time>2026-05-03T10:40:27.562Z</time></trkpt><trkpt lat="40.8831467" lon="16.6384333"><ele>462.8</ele><time>2026-05-03T10:40:29.563Z</time></trkpt><trkpt lat="40.8832117" lon="16.638415"><ele>463.6</ele><time>2026-05-03T10:40:30.563Z</time></trkpt><trkpt lat="40.8832683" lon="16.6383783"><ele>464.40000000000003</ele><time>2026-05-03T10:40:31.563Z</time></trkpt><trkpt lat="40.8833517" lon="16.63826"><ele>465.20000000000005</ele><time>2026-05-03T10:40:33.563Z</time></trkpt><trkpt lat="40.8833883" lon="16.6381733"><ele>466.0</ele><time>2026-05-03T10:40:34.562Z</time></trkpt><trkpt lat="40.8834433" lon="16.6380267"><ele>466.00000000000006</ele><time>2026-05-03T10:40:36.562Z</time></trkpt><trkpt lat="40.883495" lon="16.6379633"><ele>466.0</ele><time>2026-05-03T10:40:37.563Z</time></trkpt><trkpt lat="40.8835583" lon="16.6379033"><ele>466.0</ele><time>2026-05-03T10:40:38.562Z</time></trkpt><trkpt lat="40.8836333" lon="16.6378533"><ele>466.0</ele><time>2026-05-03T10:40:39.563Z</time></trkpt><trkpt lat="40.883695" lon="16.6378167"><ele>466.00000000000006</ele><time>2026-05-03T10:40:40.562Z</time></trkpt><trkpt lat="40.883805" lon="16.6377617"><ele>466.0</ele><time>2026-05-03T10:40:42.562Z</time></trkpt><trkpt lat="40.883925" lon="16.63767"><ele>466.20000000000005</ele><time>2026-05-03T10:40:44.562Z</time></trkpt><trkpt lat="40.883995" lon="16.6376167"><ele>466.40000000000003</ele><time>2026-05-03T10:40:45.562Z</time></trkpt><trkpt lat="40.88408" lon="16.6375617"><ele>466.6</ele><time>2026-05-03T10:40:46.563Z</time></trkpt><trkpt lat="40.88417" lon="16.637505"><ele>466.8</ele><time>2026-05-03T10:40:47.562Z</time></trkpt><trkpt lat="40.8842633" lon="16.63744"><ele>467.0</ele><time>2026-05-03T10:40:48.563Z</time></trkpt><trkpt lat="40.8843417" lon="16.637375"><ele>466.99999999999994</ele><time>2026-05-03T10:40:49.562Z</time></trkpt><trkpt lat="40.88442" lon="16.6373017"><ele>467.0</ele><time>2026-05-03T10:40:50.563Z</time></trkpt><trkpt lat="40.8844967" lon="16.63724"><ele>467.0</ele><time>2026-05-03T10:40:51.562Z</time></trkpt><trkpt lat="40.8845717" lon="16.63719"><ele>467.0</ele><time>2026-05-03T10:40:52.563Z</time></trkpt><trkpt lat="40.8846417" lon="16.6371283"><ele>466.99999999999994</ele><time>2026-05-03T10:40:53.563Z</time></trkpt><trkpt lat="40.8847167" lon="16.6370567"><ele>467.0</ele><time>2026-05-03T10:40:54.562Z</time></trkpt><trkpt lat="40.884785" lon="16.6369817"><ele>466.99999999999994</ele><time>2026-05-03T10:40:55.563Z</time></trkpt><trkpt lat="40.8848433" lon="16.6369067"><ele>467.0</ele><time>2026-05-03T10:40:56.563Z</time></trkpt><trkpt lat="40.8848967" lon="16.6368317"><ele>467.0</ele><time>2026-05-03T10:40:57.562Z</time></trkpt><trkpt lat="40.8849433" lon="16.6367483"><ele>467.0</ele><time>2026-05-03T10:40:58.563Z</time></trkpt><trkpt lat="40.8849983" lon="16.6366567"><ele>466.99999999999994</ele><time>2026-05-03T10:40:59.562Z</time></trkpt><trkpt lat="40.885055" lon="16.6365667"><ele>467.0</ele><time>2026-05-03T10:41:00.562Z</time></trkpt><trkpt lat="40.8851183" lon="16.6364767"><ele>466.49999999999994</ele><time>2026-05-03T10:41:01.563Z</time></trkpt><trkpt lat="40.88517" lon="16.6364067"><ele>466.0</ele><time>2026-05-03T10:41:02.562Z</time></trkpt><trkpt lat="40.8852217" lon="16.6363367"><ele>465.5</ele><time>2026-05-03T10:41:03.563Z</time></trkpt><trkpt lat="40.885265" lon="16.63627"><ele>465.0</ele><time>2026-05-03T10:41:04.563Z</time></trkpt><trkpt lat="40.88533" lon="16.636165"><ele>464.49999999999994</ele><time>2026-05-03T10:41:06.563Z</time></trkpt><trkpt lat="40.8853933" lon="16.63603"><ele>464.0</ele><time>2026-05-03T10:41:20.563Z</time></trkpt><trkpt lat="40.8854367" lon="16.6358583"><ele>464.0</ele><time>2026-05-03T10:41:22.562Z</time></trkpt><trkpt lat="40.8854717" lon="16.6357583"><ele>464.0</ele><time>2026-05-03T10:41:23.563Z</time></trkpt><trkpt lat="40.8854967" lon="16.63565"><ele>464.0</ele><time>2026-05-03T10:41:24.562Z</time></trkpt><trkpt lat="40.8855367" lon="16.6355133"><ele>464.0</ele><time>2026-05-03T10:41:25.562Z</time></trkpt><trkpt lat="40.88558" lon="16.6353683"><ele>464.0</ele><time>2026-05-03T10:41:26.563Z</time></trkpt><trkpt lat="40.8856317" lon="16.6352167"><ele>463.5</ele><time>2026-05-03T10:41:27.562Z</time></trkpt><trkpt lat="40.885685" lon="16.63504"><ele>463.0</ele><time>2026-05-03T10:41:28.562Z</time></trkpt><trkpt lat="40.8857383" lon="16.6348667"><ele>462.5</ele><time>2026-05-03T10:41:29.563Z</time></trkpt><trkpt lat="40.885795" lon="16.6346817"><ele>462.0</ele><time>2026-05-03T10:41:30.562Z</time></trkpt><trkpt lat="40.8858567" lon="16.6345"><ele>462.0</ele><time>2026-05-03T10:41:31.562Z</time></trkpt><trkpt lat="40.8859183" lon="16.6343283"><ele>462.0</ele><time>2026-05-03T10:41:32.563Z</time></trkpt><trkpt lat="40.8859783" lon="16.6341583"><ele>462.0</ele><time>2026-05-03T10:41:33.563Z</time></trkpt><trkpt lat="40.8860283" lon="16.6339983"><ele>462.0</ele><time>2026-05-03T10:41:34.562Z</time></trkpt><trkpt lat="40.8860717" lon="16.6338517"><ele>463.5</ele><time>2026-05-03T10:41:35.563Z</time></trkpt><trkpt lat="40.8861167" lon="16.6337067"><ele>465.0</ele><time>2026-05-03T10:41:36.562Z</time></trkpt><trkpt lat="40.8861733" lon="16.6335617"><ele>466.5</ele><time>2026-05-03T10:41:37.562Z</time></trkpt><trkpt lat="40.8862183" lon="16.633425"><ele>468.0</ele><time>2026-05-03T10:41:38.562Z</time></trkpt><trkpt lat="40.8862683" lon="16.6332667"><ele>468.0</ele><time>2026-05-03T10:41:39.562Z</time></trkpt><trkpt lat="40.886315" lon="16.63312"><ele>467.99999999999994</ele><time>2026-05-03T10:41:40.562Z</time></trkpt><trkpt lat="40.8863633" lon="16.6329967"><ele>467.99999999999994</ele><time>2026-05-03T10:41:41.563Z</time></trkpt><trkpt lat="40.8863967" lon="16.632885"><ele>468.0</ele><time>2026-05-03T10:41:42.563Z</time></trkpt><trkpt lat="40.886425" lon="16.6327867"><ele>468.0</ele><time>2026-05-03T10:41:43.563Z</time></trkpt><trkpt lat="40.8864533" lon="16.6327117"><ele>467.59999999999997</ele><time>2026-05-03T10:41:44.562Z</time></trkpt><trkpt lat="40.8865267" lon="16.6326083"><ele>467.19999999999993</ele><time>2026-05-03T10:41:46.562Z</time></trkpt><trkpt lat="40.8866533" lon="16.6325533"><ele>466.8</ele><time>2026-05-03T10:41:48.562Z</time></trkpt><trkpt lat="40.8867433" lon="16.6325183"><ele>466.4</ele><time>2026-05-03T10:41:49.563Z</time></trkpt><trkpt lat="40.8868383" lon="16.6324867"><ele>466.0</ele><time>2026-05-03T10:41:50.562Z</time></trkpt><trkpt lat="40.88694" lon="16.63245"><ele>465.6</ele><time>2026-05-03T10:41:51.562Z</time></trkpt><trkpt lat="40.88704" lon="16.6324017"><ele>465.20000000000005</ele><time>2026-05-03T10:41:52.562Z</time></trkpt><trkpt lat="40.887145" lon="16.63235"><ele>464.79999999999995</ele><time>2026-05-03T10:41:53.562Z</time></trkpt><trkpt lat="40.8872533" lon="16.6323067"><ele>464.4</ele><time>2026-05-03T10:41:54.562Z</time></trkpt><trkpt lat="40.8873567" lon="16.6322583"><ele>464.0</ele><time>2026-05-03T10:41:55.562Z</time></trkpt><trkpt lat="40.8874617" lon="16.63221"><ele>464.0</ele><time>2026-05-03T10:41:56.563Z</time></trkpt><trkpt lat="40.887575" lon="16.6321783"><ele>464.0</ele><time>2026-05-03T10:41:57.562Z</time></trkpt><trkpt lat="40.8876917" lon="16.6321583"><ele>464.0</ele><time>2026-05-03T10:41:58.562Z</time></trkpt><trkpt lat="40.8878017" lon="16.6321317"><ele>464.0</ele><time>2026-05-03T10:41:59.562Z</time></trkpt><trkpt lat="40.8879067" lon="16.6320683"><ele>463.5</ele><time>2026-05-03T10:42:00.563Z</time></trkpt><trkpt lat="40.888015" lon="16.6320067"><ele>463.0</ele><time>2026-05-03T10:42:01.562Z</time></trkpt><trkpt lat="40.8881317" lon="16.6319633"><ele>462.5</ele><time>2026-05-03T10:42:02.562Z</time></trkpt><trkpt lat="40.888245" lon="16.63191"><ele>462.0</ele><time>2026-05-03T10:42:03.563Z</time></trkpt><trkpt lat="40.8883483" lon="16.6318583"><ele>461.3333333333333</ele><time>2026-05-03T10:42:04.562Z</time></trkpt><trkpt lat="40.88844" lon="16.6318167"><ele>460.66666666666663</ele><time>2026-05-03T10:42:05.562Z</time></trkpt><trkpt lat="40.8885267" lon="16.6317833"><ele>460.0</ele><time>2026-05-03T10:42:06.562Z</time></trkpt><trkpt lat="40.8886083" lon="16.631755"><ele>459.3333333333333</ele><time>2026-05-03T10:42:07.562Z</time></trkpt><trkpt lat="40.8886917" lon="16.6317333"><ele>458.66666666666663</ele><time>2026-05-03T10:42:08.562Z</time></trkpt><trkpt lat="40.8887817" lon="16.6317367"><ele>458.0</ele><time>2026-05-03T10:42:09.563Z</time></trkpt><trkpt lat="40.8888683" lon="16.6317567"><ele>457.99999999999994</ele><time>2026-05-03T10:42:10.562Z</time></trkpt><trkpt lat="40.8889517" lon="16.6317967"><ele>458.0</ele><time>2026-05-03T10:42:11.562Z</time></trkpt><trkpt lat="40.88903" lon="16.631845"><ele>458.0</ele><time>2026-05-03T10:42:12.562Z</time></trkpt><trkpt lat="40.8891033" lon="16.631895"><ele>458.0</ele><time>2026-05-03T10:42:13.562Z</time></trkpt><trkpt lat="40.88918" lon="16.6319183"><ele>457.99999999999994</ele><time>2026-05-03T10:42:14.563Z</time></trkpt><trkpt lat="40.8892583" lon="16.6319317"><ele>458.0</ele><time>2026-05-03T10:42:15.562Z</time></trkpt><trkpt lat="40.8893833" lon="16.6319567"><ele>457.49999999999994</ele><time>2026-05-03T10:42:17.562Z</time></trkpt><trkpt lat="40.8894483" lon="16.631975"><ele>457.0</ele><time>2026-05-03T10:42:18.563Z</time></trkpt><trkpt lat="40.889545" lon="16.6320617"><ele>456.5</ele><time>2026-05-03T10:42:20.562Z</time></trkpt><trkpt lat="40.889625" lon="16.6321117"><ele>456.0</ele><time>2026-05-03T10:42:23.563Z</time></trkpt><trkpt lat="40.8897" lon="16.6321117"><ele>455.49999999999994</ele><time>2026-05-03T10:42:26.563Z</time></trkpt><trkpt lat="40.88978" lon="16.63212"><ele>455.0</ele><time>2026-05-03T10:42:29.562Z</time></trkpt><trkpt lat="40.8898617" lon="16.63212"><ele>454.99999999999994</ele><time>2026-05-03T10:42:31.562Z</time></trkpt><trkpt lat="40.8899333" lon="16.6321333"><ele>455.0</ele><time>2026-05-03T10:42:33.562Z</time></trkpt><trkpt lat="40.890015" lon="16.63212"><ele>455.0</ele><time>2026-05-03T10:42:36.562Z</time></trkpt><trkpt lat="40.8900683" lon="16.632035"><ele>455.0</ele><time>2026-05-03T10:42:40.562Z</time></trkpt><trkpt lat="40.8900367" lon="16.6318917"><ele>454.99999999999994</ele><time>2026-05-03T10:42:42.563Z</time></trkpt><trkpt lat="40.89001" lon="16.631785"><ele>455.0</ele><time>2026-05-03T10:42:43.562Z</time></trkpt><trkpt lat="40.8899733" lon="16.631655"><ele>454.75</ele><time>2026-05-03T10:42:44.563Z</time></trkpt><trkpt lat="40.8899367" lon="16.6315117"><ele>454.5</ele><time>2026-05-03T10:42:45.562Z</time></trkpt><trkpt lat="40.8899017" lon="16.6313583"><ele>454.25</ele><time>2026-05-03T10:42:46.563Z</time></trkpt><trkpt lat="40.8898667" lon="16.6311967"><ele>454.0</ele><time>2026-05-03T10:42:47.563Z</time></trkpt><trkpt lat="40.8898333" lon="16.6310217"><ele>454.0</ele><time>2026-05-03T10:42:48.562Z</time></trkpt><trkpt lat="40.8897983" lon="16.63084"><ele>454.0</ele><time>2026-05-03T10:42:49.562Z</time></trkpt><trkpt lat="40.889765" lon="16.6306517"><ele>454.0</ele><time>2026-05-03T10:42:50.562Z</time></trkpt><trkpt lat="40.8897333" lon="16.6304517"><ele>454.0</ele><time>2026-05-03T10:42:51.562Z</time></trkpt><trkpt lat="40.8897033" lon="16.630255"><ele>454.0</ele><time>2026-05-03T10:42:52.563Z</time></trkpt><trkpt lat="40.8896783" lon="16.630055"><ele>454.0</ele><time>2026-05-03T10:42:53.562Z</time></trkpt><trkpt lat="40.8896583" lon="16.629845"><ele>454.0</ele><time>2026-05-03T10:42:54.563Z</time></trkpt><trkpt lat="40.88964" lon="16.6296333"><ele>454.0</ele><time>2026-05-03T10:42:55.562Z</time></trkpt><trkpt lat="40.8896083" lon="16.6294233"><ele>454.0</ele><time>2026-05-03T10:42:56.562Z</time></trkpt><trkpt lat="40.88959" lon="16.6292067"><ele>454.0</ele><time>2026-05-03T10:42:57.563Z</time></trkpt><trkpt lat="40.8895767" lon="16.6289817"><ele>454.0</ele><time>2026-05-03T10:42:58.562Z</time></trkpt><trkpt lat="40.88956" lon="16.628755"><ele>454.0</ele><time>2026-05-03T10:42:59.562Z</time></trkpt><trkpt lat="40.889535" lon="16.628525"><ele>454.0</ele><time>2026-05-03T10:43:00.563Z</time></trkpt><trkpt lat="40.88951" lon="16.628295"><ele>454.33333333333337</ele><time>2026-05-03T10:43:01.563Z</time></trkpt><trkpt lat="40.889475" lon="16.6280667"><ele>454.66666666666663</ele><time>2026-05-03T10:43:02.563Z</time></trkpt><trkpt lat="40.889425" lon="16.6278317"><ele>455.0</ele><time>2026-05-03T10:43:03.562Z</time></trkpt><trkpt lat="40.8893667" lon="16.62759"><ele>455.0</ele><time>2026-05-03T10:43:04.562Z</time></trkpt><trkpt lat="40.8893083" lon="16.6273483"><ele>455.0</ele><time>2026-05-03T10:43:05.562Z</time></trkpt><trkpt lat="40.8892483" lon="16.6271033"><ele>455.0</ele><time>2026-05-03T10:43:06.563Z</time></trkpt><trkpt lat="40.8891917" lon="16.626865"><ele>454.66666666666663</ele><time>2026-05-03T10:43:07.562Z</time></trkpt><trkpt lat="40.8891383" lon="16.6266217"><ele>454.33333333333337</ele><time>2026-05-03T10:43:08.562Z</time></trkpt><trkpt lat="40.8890867" lon="16.6263967"><ele>454.0</ele><time>2026-05-03T10:43:09.563Z</time></trkpt><trkpt lat="40.8890283" lon="16.6261517"><ele>454.0</ele><time>2026-05-03T10:43:10.562Z</time></trkpt><trkpt lat="40.8889467" lon="16.6259267"><ele>454.0</ele><time>2026-05-03T10:43:11.563Z</time></trkpt><trkpt lat="40.8888533" lon="16.6257083"><ele>454.0</ele><time>2026-05-03T10:43:12.562Z</time></trkpt><trkpt lat="40.8887667" lon="16.625495"><ele>454.0</ele><time>2026-05-03T10:43:13.563Z</time></trkpt><trkpt lat="40.8886917" lon="16.6252783"><ele>454.0</ele><time>2026-05-03T10:43:14.562Z</time></trkpt><trkpt lat="40.8886217" lon="16.6250867"><ele>454.0</ele><time>2026-05-03T10:43:15.562Z</time></trkpt><trkpt lat="40.8885533" lon="16.62491"><ele>454.0</ele><time>2026-05-03T10:43:16.562Z</time></trkpt><trkpt lat="40.8884783" lon="16.6247417"><ele>454.0</ele><time>2026-05-03T10:43:17.562Z</time></trkpt><trkpt lat="40.8883983" lon="16.624585"><ele>454.0</ele><time>2026-05-03T10:43:18.563Z</time></trkpt><trkpt lat="40.888305" lon="16.624425"><ele>454.0</ele><time>2026-05-03T10:43:19.562Z</time></trkpt><trkpt lat="40.8882233" lon="16.6242633"><ele>454.0</ele><time>2026-05-03T10:43:20.562Z</time></trkpt><trkpt lat="40.8881517" lon="16.624085"><ele>454.0</ele><time>2026-05-03T10:43:21.562Z</time></trkpt><trkpt lat="40.8880883" lon="16.6238867"><ele>454.0</ele><time>2026-05-03T10:43:22.562Z</time></trkpt><trkpt lat="40.88802" lon="16.62368"><ele>454.0</ele><time>2026-05-03T10:43:23.563Z</time></trkpt><trkpt lat="40.8879467" lon="16.6234767"><ele>454.0</ele><time>2026-05-03T10:43:24.563Z</time></trkpt><trkpt lat="40.8878767" lon="16.623265"><ele>454.0</ele><time>2026-05-03T10:43:25.563Z</time></trkpt><trkpt lat="40.8878083" lon="16.623055"><ele>454.0</ele><time>2026-05-03T10:43:26.562Z</time></trkpt><trkpt lat="40.8877517" lon="16.62285"><ele>454.0</ele><time>2026-05-03T10:43:27.563Z</time></trkpt><trkpt lat="40.8876933" lon="16.62265"><ele>454.0</ele><time>2026-05-03T10:43:28.562Z</time></trkpt><trkpt lat="40.887635" lon="16.6224433"><ele>454.0</ele><time>2026-05-03T10:43:29.562Z</time></trkpt><trkpt lat="40.8875767" lon="16.6222267"><ele>454.0</ele><time>2026-05-03T10:43:30.562Z</time></trkpt><trkpt lat="40.8875217" lon="16.6220083"><ele>454.0</ele><time>2026-05-03T10:43:31.563Z</time></trkpt><trkpt lat="40.88746" lon="16.6217817"><ele>454.0</ele><time>2026-05-03T10:43:32.563Z</time></trkpt><trkpt lat="40.8873967" lon="16.6215617"><ele>454.0</ele><time>2026-05-03T10:43:33.563Z</time></trkpt><trkpt lat="40.88732" lon="16.6213517"><ele>454.0</ele><time>2026-05-03T10:43:34.563Z</time></trkpt><trkpt lat="40.8872383" lon="16.6211567"><ele>454.0</ele><time>2026-05-03T10:43:35.562Z</time></trkpt><trkpt lat="40.88716" lon="16.6209733"><ele>454.0</ele><time>2026-05-03T10:43:36.562Z</time></trkpt><trkpt lat="40.8870783" lon="16.6207867"><ele>454.0</ele><time>2026-05-03T10:43:37.563Z</time></trkpt><trkpt lat="40.886995" lon="16.6206017"><ele>454.0</ele><time>2026-05-03T10:43:38.562Z</time></trkpt><trkpt lat="40.8868983" lon="16.6204167"><ele>454.0</ele><time>2026-05-03T10:43:39.562Z</time></trkpt><trkpt lat="40.8867817" lon="16.6202433"><ele>454.0</ele><time>2026-05-03T10:43:40.562Z</time></trkpt><trkpt lat="40.8866417" lon="16.62009"><ele>453.6666666666667</ele><time>2026-05-03T10:43:41.563Z</time></trkpt><trkpt lat="40.8864933" lon="16.6199567"><ele>453.33333333333337</ele><time>2026-05-03T10:43:42.562Z</time></trkpt><trkpt lat="40.8863333" lon="16.61985"><ele>453.0</ele><time>2026-05-03T10:43:43.562Z</time></trkpt><trkpt lat="40.886175" lon="16.61978"><ele>453.0</ele><time>2026-05-03T10:43:44.562Z</time></trkpt><trkpt lat="40.886025" lon="16.61973"><ele>453.0</ele><time>2026-05-03T10:43:45.563Z</time></trkpt><trkpt lat="40.885875" lon="16.6196983"><ele>453.0</ele><time>2026-05-03T10:43:46.562Z</time></trkpt><trkpt lat="40.8857383" lon="16.61967"><ele>453.0</ele><time>2026-05-03T10:43:47.562Z</time></trkpt><trkpt lat="40.8856167" lon="16.6196417"><ele>453.4</ele><time>2026-05-03T10:43:48.562Z</time></trkpt><trkpt lat="40.8855" lon="16.6196217"><ele>453.79999999999995</ele><time>2026-05-03T10:43:49.562Z</time></trkpt><trkpt lat="40.8854017" lon="16.61958"><ele>454.2</ele><time>2026-05-03T10:43:50.562Z</time></trkpt><trkpt lat="40.8853117" lon="16.6195167"><ele>454.6</ele><time>2026-05-03T10:43:51.562Z</time></trkpt><trkpt lat="40.8852183" lon="16.6194533"><ele>455.0</ele><time>2026-05-03T10:43:52.563Z</time></trkpt><trkpt lat="40.8851133" lon="16.619415"><ele>455.25</ele><time>2026-05-03T10:43:53.562Z</time></trkpt><trkpt lat="40.8849967" lon="16.6193767"><ele>455.5</ele><time>2026-05-03T10:43:54.562Z</time></trkpt><trkpt lat="40.8848617" lon="16.619325"><ele>455.75</ele><time>2026-05-03T10:43:55.562Z</time></trkpt><trkpt lat="40.88474" lon="16.6192383"><ele>456.0</ele><time>2026-05-03T10:43:56.563Z</time></trkpt><trkpt lat="40.8846117" lon="16.619135"><ele>456.0</ele><time>2026-05-03T10:43:57.562Z</time></trkpt><trkpt lat="40.8845033" lon="16.619015"><ele>456.0</ele><time>2026-05-03T10:43:58.563Z</time></trkpt><trkpt lat="40.8844083" lon="16.6189"><ele>456.0</ele><time>2026-05-03T10:43:59.563Z</time></trkpt><trkpt lat="40.8843333" lon="16.6187883"><ele>456.0</ele><time>2026-05-03T10:44:00.562Z</time></trkpt><trkpt lat="40.8842833" lon="16.6186633"><ele>455.8</ele><time>2026-05-03T10:44:01.563Z</time></trkpt><trkpt lat="40.8842617" lon="16.6185367"><ele>455.6</ele><time>2026-05-03T10:44:02.563Z</time></trkpt><trkpt lat="40.8842733" lon="16.6184117"><ele>455.4</ele><time>2026-05-03T10:44:03.562Z</time></trkpt><trkpt lat="40.8843083" lon="16.6182867"><ele>455.2</ele><time>2026-05-03T10:44:04.563Z</time></trkpt><trkpt lat="40.8843717" lon="16.6181633"><ele>455.0</ele><time>2026-05-03T10:44:05.563Z</time></trkpt><trkpt lat="40.8844583" lon="16.6180467"><ele>455.0</ele><time>2026-05-03T10:44:06.562Z</time></trkpt><trkpt lat="40.8845633" lon="16.61792"><ele>455.0</ele><time>2026-05-03T10:44:07.562Z</time></trkpt><trkpt lat="40.8846667" lon="16.6177783"><ele>455.0</ele><time>2026-05-03T10:44:08.562Z</time></trkpt><trkpt lat="40.8847783" lon="16.6176333"><ele>455.0</ele><time>2026-05-03T10:44:09.562Z</time></trkpt><trkpt lat="40.8848917" lon="16.6174783"><ele>455.0</ele><time>2026-05-03T10:44:10.562Z</time></trkpt><trkpt lat="40.8850033" lon="16.6173217"><ele>455.0</ele><time>2026-05-03T10:44:11.562Z</time></trkpt><trkpt lat="40.8851183" lon="16.6171767"><ele>455.0</ele><time>2026-05-03T10:44:12.562Z</time></trkpt><trkpt lat="40.8852267" lon="16.6170233"><ele>455.25</ele><time>2026-05-03T10:44:13.562Z</time></trkpt><trkpt lat="40.8853333" lon="16.61688"><ele>455.5</ele><time>2026-05-03T10:44:14.562Z</time></trkpt><trkpt lat="40.8854283" lon="16.6167483"><ele>455.75</ele><time>2026-05-03T10:44:15.563Z</time></trkpt><trkpt lat="40.88552" lon="16.61662"><ele>456.0</ele><time>2026-05-03T10:44:16.563Z</time></trkpt><trkpt lat="40.885605" lon="16.6165"><ele>456.0</ele><time>2026-05-03T10:44:17.562Z</time></trkpt><trkpt lat="40.885685" lon="16.6163983"><ele>456.0</ele><time>2026-05-03T10:44:18.562Z</time></trkpt><trkpt lat="40.8857683" lon="16.6163133"><ele>456.0</ele><time>2026-05-03T10:44:19.563Z</time></trkpt><trkpt lat="40.885855" lon="16.6162667"><ele>456.0</ele><time>2026-05-03T10:44:20.563Z</time></trkpt><trkpt lat="40.8859233" lon="16.6162233"><ele>456.0</ele><time>2026-05-03T10:44:21.562Z</time></trkpt><trkpt lat="40.8859733" lon="16.6161717"><ele>456.0</ele><time>2026-05-03T10:44:22.562Z</time></trkpt><trkpt lat="40.885995" lon="16.6160233"><ele>456.20000000000005</ele><time>2026-05-03T10:44:24.562Z</time></trkpt><trkpt lat="40.8859267" lon="16.61588"><ele>456.40000000000003</ele><time>2026-05-03T10:44:26.562Z</time></trkpt><trkpt lat="40.8858667" lon="16.6158033"><ele>456.6</ele><time>2026-05-03T10:44:27.562Z</time></trkpt><trkpt lat="40.8858033" lon="16.6157033"><ele>456.8</ele><time>2026-05-03T10:44:28.563Z</time></trkpt><trkpt lat="40.8857467" lon="16.6155683"><ele>457.0</ele><time>2026-05-03T10:44:29.562Z</time></trkpt><trkpt lat="40.8856983" lon="16.6154"><ele>456.33333333333337</ele><time>2026-05-03T10:44:30.563Z</time></trkpt><trkpt lat="40.88565" lon="16.6152267"><ele>455.66666666666663</ele><time>2026-05-03T10:44:31.562Z</time></trkpt><trkpt lat="40.8855883" lon="16.61504"><ele>455.0</ele><time>2026-05-03T10:44:32.563Z</time></trkpt><trkpt lat="40.8855167" lon="16.614835"><ele>455.0</ele><time>2026-05-03T10:44:33.562Z</time></trkpt><trkpt lat="40.88544" lon="16.614625"><ele>455.0</ele><time>2026-05-03T10:44:34.562Z</time></trkpt><trkpt lat="40.88536" lon="16.6144117"><ele>455.0</ele><time>2026-05-03T10:44:35.563Z</time></trkpt><trkpt lat="40.8852967" lon="16.61419"><ele>454.66666666666663</ele><time>2026-05-03T10:44:36.563Z</time></trkpt><trkpt lat="40.8852433" lon="16.6139583"><ele>454.33333333333337</ele><time>2026-05-03T10:44:37.562Z</time></trkpt><trkpt lat="40.885205" lon="16.6137183"><ele>454.0</ele><time>2026-05-03T10:44:38.563Z</time></trkpt><trkpt lat="40.8851633" lon="16.6134767"><ele>454.0</ele><time>2026-05-03T10:44:39.563Z</time></trkpt><trkpt lat="40.8851283" lon="16.6132267"><ele>454.0</ele><time>2026-05-03T10:44:40.563Z</time></trkpt><trkpt lat="40.8850867" lon="16.6129733"><ele>454.0</ele><time>2026-05-03T10:44:41.562Z</time></trkpt><trkpt lat="40.88504" lon="16.612725"><ele>454.0</ele><time>2026-05-03T10:44:42.562Z</time></trkpt><trkpt lat="40.8849983" lon="16.6124767"><ele>454.0</ele><time>2026-05-03T10:44:43.562Z</time></trkpt><trkpt lat="40.884965" lon="16.6122267"><ele>454.0</ele><time>2026-05-03T10:44:44.562Z</time></trkpt><trkpt lat="40.8849267" lon="16.611975"><ele>454.0</ele><time>2026-05-03T10:44:45.562Z</time></trkpt><trkpt lat="40.8848883" lon="16.6117233"><ele>454.0</ele><time>2026-05-03T10:44:46.562Z</time></trkpt><trkpt lat="40.884855" lon="16.6114683"><ele>454.0</ele><time>2026-05-03T10:44:47.563Z</time></trkpt><trkpt lat="40.8848167" lon="16.6112133"><ele>454.0</ele><time>2026-05-03T10:44:48.562Z</time></trkpt><trkpt lat="40.8847817" lon="16.6109633"><ele>454.0</ele><time>2026-05-03T10:44:49.562Z</time></trkpt><trkpt lat="40.8847283" lon="16.6107117"><ele>454.0</ele><time>2026-05-03T10:44:50.562Z</time></trkpt><trkpt lat="40.8846567" lon="16.6104733"><ele>453.6666666666667</ele><time>2026-05-03T10:44:51.562Z</time></trkpt><trkpt lat="40.8845667" lon="16.61024"><ele>453.33333333333337</ele><time>2026-05-03T10:44:52.562Z</time></trkpt><trkpt lat="40.884475" lon="16.6100133"><ele>453.0</ele><time>2026-05-03T10:44:53.562Z</time></trkpt><trkpt lat="40.8843817" lon="16.60979"><ele>453.0</ele><time>2026-05-03T10:44:54.562Z</time></trkpt><trkpt lat="40.884285" lon="16.6095567"><ele>453.0</ele><time>2026-05-03T10:44:55.563Z</time></trkpt><trkpt lat="40.8841867" lon="16.6093233"><ele>453.0</ele><time>2026-05-03T10:44:56.562Z</time></trkpt><trkpt lat="40.8840917" lon="16.6090867"><ele>453.33333333333337</ele><time>2026-05-03T10:44:57.562Z</time></trkpt><trkpt lat="40.8839933" lon="16.6088533"><ele>453.6666666666667</ele><time>2026-05-03T10:44:58.563Z</time></trkpt><trkpt lat="40.883895" lon="16.6086183"><ele>454.0</ele><time>2026-05-03T10:44:59.562Z</time></trkpt><trkpt lat="40.8837983" lon="16.6083817"><ele>454.0</ele><time>2026-05-03T10:45:00.562Z</time></trkpt><trkpt lat="40.883705" lon="16.608145"><ele>454.0</ele><time>2026-05-03T10:45:01.562Z</time></trkpt><trkpt lat="40.8836033" lon="16.6079167"><ele>454.0</ele><time>2026-05-03T10:45:02.562Z</time></trkpt><trkpt lat="40.8834933" lon="16.6076933"><ele>453.33333333333337</ele><time>2026-05-03T10:45:03.563Z</time></trkpt><trkpt lat="40.883385" lon="16.6074767"><ele>452.66666666666663</ele><time>2026-05-03T10:45:04.562Z</time></trkpt><trkpt lat="40.883275" lon="16.6072517"><ele>452.0</ele><time>2026-05-03T10:45:05.563Z</time></trkpt><trkpt lat="40.8831633" lon="16.6070383"><ele>452.0</ele><time>2026-05-03T10:45:06.562Z</time></trkpt><trkpt lat="40.8830533" lon="16.6068217"><ele>452.0</ele><time>2026-05-03T10:45:07.562Z</time></trkpt><trkpt lat="40.8829417" lon="16.6066133"><ele>452.0</ele><time>2026-05-03T10:45:08.562Z</time></trkpt><trkpt lat="40.882825" lon="16.60641"><ele>452.0</ele><time>2026-05-03T10:45:09.562Z</time></trkpt><trkpt lat="40.8827083" lon="16.60621"><ele>452.0</ele><time>2026-05-03T10:45:10.562Z</time></trkpt><trkpt lat="40.8826033" lon="16.6059883"><ele>452.0</ele><time>2026-05-03T10:45:11.562Z</time></trkpt><trkpt lat="40.8825033" lon="16.6057733"><ele>452.3333333333333</ele><time>2026-05-03T10:45:12.562Z</time></trkpt><trkpt lat="40.8824167" lon="16.6055517"><ele>452.66666666666663</ele><time>2026-05-03T10:45:13.562Z</time></trkpt><trkpt lat="40.8823467" lon="16.6053167"><ele>453.0</ele><time>2026-05-03T10:45:14.562Z</time></trkpt><trkpt lat="40.8822767" lon="16.60508"><ele>453.0</ele><time>2026-05-03T10:45:15.562Z</time></trkpt><trkpt lat="40.8822067" lon="16.6048417"><ele>453.0</ele><time>2026-05-03T10:45:16.562Z</time></trkpt><trkpt lat="40.8821417" lon="16.6046117"><ele>453.0</ele><time>2026-05-03T10:45:17.563Z</time></trkpt><trkpt lat="40.8820667" lon="16.6043767"><ele>453.0</ele><time>2026-05-03T10:45:18.562Z</time></trkpt><trkpt lat="40.882" lon="16.6041433"><ele>453.0</ele><time>2026-05-03T10:45:19.562Z</time></trkpt><trkpt lat="40.881935" lon="16.6039267"><ele>453.0</ele><time>2026-05-03T10:45:20.562Z</time></trkpt><trkpt lat="40.8818717" lon="16.6037233"><ele>453.0</ele><time>2026-05-03T10:45:21.562Z</time></trkpt><trkpt lat="40.8818017" lon="16.6035183"><ele>453.0</ele><time>2026-05-03T10:45:22.562Z</time></trkpt><trkpt lat="40.8817117" lon="16.6033067"><ele>453.0</ele><time>2026-05-03T10:45:23.563Z</time></trkpt><trkpt lat="40.8815983" lon="16.603105"><ele>453.0</ele><time>2026-05-03T10:45:24.562Z</time></trkpt><trkpt lat="40.8814817" lon="16.6029217"><ele>453.0</ele><time>2026-05-03T10:45:25.562Z</time></trkpt><trkpt lat="40.881365" lon="16.6027317"><ele>453.0</ele><time>2026-05-03T10:45:26.562Z</time></trkpt><trkpt lat="40.881255" lon="16.6025433"><ele>453.33333333333337</ele><time>2026-05-03T10:45:27.563Z</time></trkpt><trkpt lat="40.8811583" lon="16.6023617"><ele>453.6666666666667</ele><time>2026-05-03T10:45:28.562Z</time></trkpt><trkpt lat="40.8810717" lon="16.6022017"><ele>454.0</ele><time>2026-05-03T10:45:29.562Z</time></trkpt><trkpt lat="40.8809983" lon="16.6020117"><ele>454.0</ele><time>2026-05-03T10:45:30.562Z</time></trkpt><trkpt lat="40.8809517" lon="16.6018067"><ele>454.0</ele><time>2026-05-03T10:45:31.562Z</time></trkpt><trkpt lat="40.8809167" lon="16.6015917"><ele>454.0</ele><time>2026-05-03T10:45:32.562Z</time></trkpt><trkpt lat="40.880905" lon="16.60137"><ele>453.6666666666667</ele><time>2026-05-03T10:45:33.563Z</time></trkpt><trkpt lat="40.8809183" lon="16.6011383"><ele>453.33333333333337</ele><time>2026-05-03T10:45:34.562Z</time></trkpt><trkpt lat="40.8809533" lon="16.6009"><ele>453.0</ele><time>2026-05-03T10:45:35.562Z</time></trkpt><trkpt lat="40.88101" lon="16.60066"><ele>453.66666666666663</ele><time>2026-05-03T10:45:36.562Z</time></trkpt><trkpt lat="40.8810633" lon="16.6004217"><ele>454.3333333333333</ele><time>2026-05-03T10:45:37.562Z</time></trkpt><trkpt lat="40.8811" lon="16.6001783"><ele>455.0</ele><time>2026-05-03T10:45:38.562Z</time></trkpt><trkpt lat="40.8811233" lon="16.59993"><ele>455.0</ele><time>2026-05-03T10:45:39.562Z</time></trkpt><trkpt lat="40.88113" lon="16.5996783"><ele>455.0</ele><time>2026-05-03T10:45:40.563Z</time></trkpt><trkpt lat="40.8811167" lon="16.5994333"><ele>455.0</ele><time>2026-05-03T10:45:41.562Z</time></trkpt><trkpt lat="40.8810833" lon="16.5992133"><ele>454.3333333333333</ele><time>2026-05-03T10:45:42.562Z</time></trkpt><trkpt lat="40.881025" lon="16.5990017"><ele>453.66666666666663</ele><time>2026-05-03T10:45:43.562Z</time></trkpt><trkpt lat="40.880965" lon="16.5988083"><ele>453.0</ele><time>2026-05-03T10:45:44.562Z</time></trkpt><trkpt lat="40.8809017" lon="16.5985883"><ele>452.33333333333337</ele><time>2026-05-03T10:45:45.562Z</time></trkpt><trkpt lat="40.8808783" lon="16.59838"><ele>451.6666666666667</ele><time>2026-05-03T10:45:46.562Z</time></trkpt><trkpt lat="40.880885" lon="16.5981717"><ele>451.0</ele><time>2026-05-03T10:45:47.563Z</time></trkpt><trkpt lat="40.88091" lon="16.5979617"><ele>451.0</ele><time>2026-05-03T10:45:48.563Z</time></trkpt><trkpt lat="40.880925" lon="16.5977483"><ele>451.0</ele><time>2026-05-03T10:45:49.563Z</time></trkpt><trkpt lat="40.8809167" lon="16.597525"><ele>451.0</ele><time>2026-05-03T10:45:50.562Z</time></trkpt><trkpt lat="40.880885" lon="16.5973117"><ele>451.0</ele><time>2026-05-03T10:45:51.562Z</time></trkpt><trkpt lat="40.88083" lon="16.5970933"><ele>451.0</ele><time>2026-05-03T10:45:52.562Z</time></trkpt><trkpt lat="40.8807633" lon="16.59687"><ele>451.0</ele><time>2026-05-03T10:45:53.562Z</time></trkpt><trkpt lat="40.8806983" lon="16.59664"><ele>450.33333333333337</ele><time>2026-05-03T10:45:54.562Z</time></trkpt><trkpt lat="40.88063" lon="16.5964133"><ele>449.66666666666663</ele><time>2026-05-03T10:45:55.562Z</time></trkpt><trkpt lat="40.8805633" lon="16.5961817"><ele>449.0</ele><time>2026-05-03T10:45:56.562Z</time></trkpt><trkpt lat="40.8805117" lon="16.595945"><ele>449.0</ele><time>2026-05-03T10:45:57.562Z</time></trkpt><trkpt lat="40.8804533" lon="16.5957283"><ele>449.0</ele><time>2026-05-03T10:45:58.562Z</time></trkpt><trkpt lat="40.8804067" lon="16.5955233"><ele>449.0</ele><time>2026-05-03T10:45:59.562Z</time></trkpt><trkpt lat="40.8803517" lon="16.59533"><ele>449.25</ele><time>2026-05-03T10:46:00.562Z</time></trkpt><trkpt lat="40.8802883" lon="16.59516"><ele>449.5</ele><time>2026-05-03T10:46:01.562Z</time></trkpt><trkpt lat="40.8802233" lon="16.5950017"><ele>449.75</ele><time>2026-05-03T10:46:02.563Z</time></trkpt><trkpt lat="40.880165" lon="16.59483"><ele>450.0</ele><time>2026-05-03T10:46:03.563Z</time></trkpt><trkpt lat="40.8801167" lon="16.5946483"><ele>449.25</ele><time>2026-05-03T10:46:04.562Z</time></trkpt><trkpt lat="40.88008" lon="16.594465"><ele>448.5</ele><time>2026-05-03T10:46:05.562Z</time></trkpt><trkpt lat="40.8800483" lon="16.5942833"><ele>447.75</ele><time>2026-05-03T10:46:06.563Z</time></trkpt><trkpt lat="40.8800183" lon="16.5941117"><ele>447.0</ele><time>2026-05-03T10:46:07.562Z</time></trkpt><trkpt lat="40.879995" lon="16.59397"><ele>447.0</ele><time>2026-05-03T10:46:08.562Z</time></trkpt><trkpt lat="40.8799783" lon="16.59385"><ele>447.0</ele><time>2026-05-03T10:46:09.562Z</time></trkpt><trkpt lat="40.8799617" lon="16.59376"><ele>447.0</ele><time>2026-05-03T10:46:10.563Z</time></trkpt><trkpt lat="40.8799567" lon="16.5936583"><ele>447.0</ele><time>2026-05-03T10:46:12.562Z</time></trkpt><trkpt lat="40.8800067" lon="16.5935883"><ele>447.0</ele><time>2026-05-03T10:46:15.563Z</time></trkpt><trkpt lat="40.8801233" lon="16.5935817"><ele>447.0</ele><time>2026-05-03T10:46:17.562Z</time></trkpt><trkpt lat="40.88021" lon="16.5935783"><ele>448.0</ele><time>2026-05-03T10:46:18.563Z</time></trkpt><trkpt lat="40.880305" lon="16.59356"><ele>449.0</ele><time>2026-05-03T10:46:19.563Z</time></trkpt><trkpt lat="40.8804183" lon="16.5935367"><ele>450.0</ele><time>2026-05-03T10:46:20.562Z</time></trkpt><trkpt lat="40.88054" lon="16.5935017"><ele>451.0</ele><time>2026-05-03T10:46:21.563Z</time></trkpt><trkpt lat="40.8806617" lon="16.593465"><ele>451.0</ele><time>2026-05-03T10:46:22.562Z</time></trkpt><trkpt lat="40.8807983" lon="16.5934283"><ele>451.0</ele><time>2026-05-03T10:46:23.562Z</time></trkpt><trkpt lat="40.8809417" lon="16.5933933"><ele>451.0</ele><time>2026-05-03T10:46:24.562Z</time></trkpt><trkpt lat="40.8810833" lon="16.5933467"><ele>451.0</ele><time>2026-05-03T10:46:25.562Z</time></trkpt><trkpt lat="40.8812383" lon="16.593305"><ele>451.0</ele><time>2026-05-03T10:46:26.562Z</time></trkpt><trkpt lat="40.88139" lon="16.593255"><ele>451.0</ele><time>2026-05-03T10:46:27.562Z</time></trkpt><trkpt lat="40.8815433" lon="16.5932033"><ele>451.0</ele><time>2026-05-03T10:46:28.562Z</time></trkpt><trkpt lat="40.881695" lon="16.593145"><ele>452.0</ele><time>2026-05-03T10:46:29.563Z</time></trkpt><trkpt lat="40.8818483" lon="16.5930883"><ele>453.0</ele><time>2026-05-03T10:46:30.562Z</time></trkpt><trkpt lat="40.881995" lon="16.5930333"><ele>454.0</ele><time>2026-05-03T10:46:31.563Z</time></trkpt><trkpt lat="40.88213" lon="16.59298"><ele>454.0</ele><time>2026-05-03T10:46:32.562Z</time></trkpt><trkpt lat="40.882255" lon="16.592925"><ele>454.0</ele><time>2026-05-03T10:46:33.562Z</time></trkpt><trkpt lat="40.882385" lon="16.5928783"><ele>454.0</ele><time>2026-05-03T10:46:34.563Z</time></trkpt><trkpt lat="40.882505" lon="16.5928317"><ele>454.0</ele><time>2026-05-03T10:46:35.563Z</time></trkpt><trkpt lat="40.88263" lon="16.5927917"><ele>455.25</ele><time>2026-05-03T10:46:36.562Z</time></trkpt><trkpt lat="40.88275" lon="16.5927367"><ele>456.5</ele><time>2026-05-03T10:46:37.562Z</time></trkpt><trkpt lat="40.88287" lon="16.59268"><ele>457.75</ele><time>2026-05-03T10:46:38.562Z</time></trkpt><trkpt lat="40.8829967" lon="16.5926283"><ele>459.0</ele><time>2026-05-03T10:46:39.562Z</time></trkpt><trkpt lat="40.8831333" lon="16.5925783"><ele>459.0</ele><time>2026-05-03T10:46:40.563Z</time></trkpt><trkpt lat="40.883265" lon="16.59253"><ele>459.0</ele><time>2026-05-03T10:46:41.562Z</time></trkpt><trkpt lat="40.8834017" lon="16.5924833"><ele>459.0</ele><time>2026-05-03T10:46:42.562Z</time></trkpt><trkpt lat="40.8835317" lon="16.59244"><ele>459.0</ele><time>2026-05-03T10:46:43.562Z</time></trkpt><trkpt lat="40.8836667" lon="16.5924117"><ele>460.25</ele><time>2026-05-03T10:46:44.562Z</time></trkpt><trkpt lat="40.8837983" lon="16.5923883"><ele>461.5</ele><time>2026-05-03T10:46:45.563Z</time></trkpt><trkpt lat="40.8839283" lon="16.5923583"><ele>462.75</ele><time>2026-05-03T10:46:46.562Z</time></trkpt><trkpt lat="40.884055" lon="16.5923333"><ele>464.0</ele><time>2026-05-03T10:46:47.562Z</time></trkpt><trkpt lat="40.884185" lon="16.5923033"><ele>466.0</ele><time>2026-05-03T10:46:48.563Z</time></trkpt><trkpt lat="40.8843217" lon="16.592285"><ele>468.0</ele><time>2026-05-03T10:46:49.562Z</time></trkpt><trkpt lat="40.8844567" lon="16.5922717"><ele>470.0</ele><time>2026-05-03T10:46:50.562Z</time></trkpt><trkpt lat="40.8845983" lon="16.592255"><ele>472.0</ele><time>2026-05-03T10:46:51.562Z</time></trkpt><trkpt lat="40.8847417" lon="16.592235"><ele>472.0</ele><time>2026-05-03T10:46:52.563Z</time></trkpt><trkpt lat="40.8848883" lon="16.5922167"><ele>472.0</ele><time>2026-05-03T10:46:53.563Z</time></trkpt><trkpt lat="40.88503" lon="16.5922033"><ele>472.0</ele><time>2026-05-03T10:46:54.563Z</time></trkpt><trkpt lat="40.8851733" lon="16.59219"><ele>472.0</ele><time>2026-05-03T10:46:55.563Z</time></trkpt><trkpt lat="40.885315" lon="16.592175"><ele>473.6666666666667</ele><time>2026-05-03T10:46:56.562Z</time></trkpt><trkpt lat="40.8854617" lon="16.5921567"><ele>475.33333333333337</ele><time>2026-05-03T10:46:57.563Z</time></trkpt><trkpt lat="40.88561" lon="16.5921267"><ele>477.0</ele><time>2026-05-03T10:46:58.562Z</time></trkpt><trkpt lat="40.8857617" lon="16.5921"><ele>477.0</ele><time>2026-05-03T10:46:59.562Z</time></trkpt><trkpt lat="40.8859133" lon="16.5920833"><ele>477.0</ele><time>2026-05-03T10:47:00.563Z</time></trkpt><trkpt lat="40.8860467" lon="16.59206"><ele>477.0</ele><time>2026-05-03T10:47:01.563Z</time></trkpt><trkpt lat="40.8861733" lon="16.5920417"><ele>477.0</ele><time>2026-05-03T10:47:02.562Z</time></trkpt><trkpt lat="40.8862967" lon="16.59203"><ele>477.25</ele><time>2026-05-03T10:47:03.562Z</time></trkpt><trkpt lat="40.8864133" lon="16.5920083"><ele>477.5</ele><time>2026-05-03T10:47:04.563Z</time></trkpt><trkpt lat="40.8865367" lon="16.5919817"><ele>477.75</ele><time>2026-05-03T10:47:05.563Z</time></trkpt><trkpt lat="40.88667" lon="16.59195"><ele>478.0</ele><time>2026-05-03T10:47:06.563Z</time></trkpt><trkpt lat="40.886805" lon="16.5919283"><ele>479.0</ele><time>2026-05-03T10:47:07.562Z</time></trkpt><trkpt lat="40.88694" lon="16.591915"><ele>480.0</ele><time>2026-05-03T10:47:08.563Z</time></trkpt><trkpt lat="40.88707" lon="16.5918983"><ele>481.0</ele><time>2026-05-03T10:47:09.563Z</time></trkpt><trkpt lat="40.8871917" lon="16.591875"><ele>482.0</ele><time>2026-05-03T10:47:10.563Z</time></trkpt><trkpt lat="40.8873017" lon="16.59185"><ele>481.99999999999994</ele><time>2026-05-03T10:47:11.562Z</time></trkpt><trkpt lat="40.8874" lon="16.5918233"><ele>482.0</ele><time>2026-05-03T10:47:12.563Z</time></trkpt><trkpt lat="40.8874783" lon="16.5917717"><ele>482.0</ele><time>2026-05-03T10:47:13.562Z</time></trkpt><trkpt lat="40.8875433" lon="16.5916967"><ele>482.0</ele><time>2026-05-03T10:47:14.563Z</time></trkpt><trkpt lat="40.8875917" lon="16.5916133"><ele>481.99999999999994</ele><time>2026-05-03T10:47:15.563Z</time></trkpt><trkpt lat="40.887625" lon="16.5915283"><ele>482.0</ele><time>2026-05-03T10:47:16.562Z</time></trkpt><trkpt lat="40.8876417" lon="16.5914417"><ele>482.0</ele><time>2026-05-03T10:47:17.562Z</time></trkpt><trkpt lat="40.8876483" lon="16.59134"><ele>482.00000000000006</ele><time>2026-05-03T10:47:18.563Z</time></trkpt><trkpt lat="40.8876333" lon="16.59122"><ele>482.00000000000006</ele><time>2026-05-03T10:47:19.562Z</time></trkpt><trkpt lat="40.88761" lon="16.59109"><ele>482.0</ele><time>2026-05-03T10:47:20.562Z</time></trkpt><trkpt lat="40.8875817" lon="16.5909683"><ele>482.0</ele><time>2026-05-03T10:47:21.562Z</time></trkpt><trkpt lat="40.8875683" lon="16.5908517"><ele>481.8333333333333</ele><time>2026-05-03T10:47:22.562Z</time></trkpt><trkpt lat="40.8875517" lon="16.5907483"><ele>481.66666666666663</ele><time>2026-05-03T10:47:23.563Z</time></trkpt><trkpt lat="40.8875433" lon="16.5906417"><ele>481.5</ele><time>2026-05-03T10:47:24.562Z</time></trkpt><trkpt lat="40.88753" lon="16.59053"><ele>481.33333333333337</ele><time>2026-05-03T10:47:25.562Z</time></trkpt><trkpt lat="40.8875017" lon="16.59042"><ele>481.1666666666667</ele><time>2026-05-03T10:47:26.563Z</time></trkpt><trkpt lat="40.8874517" lon="16.590305"><ele>481.0</ele><time>2026-05-03T10:47:27.562Z</time></trkpt><trkpt lat="40.8873933" lon="16.5901817"><ele>481.0</ele><time>2026-05-03T10:47:28.563Z</time></trkpt><trkpt lat="40.8873267" lon="16.5900517"><ele>481.0</ele><time>2026-05-03T10:47:29.563Z</time></trkpt><trkpt lat="40.887255" lon="16.589915"><ele>481.0</ele><time>2026-05-03T10:47:30.562Z</time></trkpt><trkpt lat="40.887185" lon="16.58977"><ele>481.0</ele><time>2026-05-03T10:47:31.563Z</time></trkpt><trkpt lat="40.88712" lon="16.5896267"><ele>480.8</ele><time>2026-05-03T10:47:32.562Z</time></trkpt><trkpt lat="40.8870567" lon="16.5895017"><ele>480.6</ele><time>2026-05-03T10:47:33.562Z</time></trkpt><trkpt lat="40.8870017" lon="16.5893817"><ele>480.4</ele><time>2026-05-03T10:47:34.563Z</time></trkpt><trkpt lat="40.8869533" lon="16.5892717"><ele>480.2</ele><time>2026-05-03T10:47:35.562Z</time></trkpt><trkpt lat="40.8869033" lon="16.5891683"><ele>480.0</ele><time>2026-05-03T10:47:36.562Z</time></trkpt><trkpt lat="40.88686" lon="16.5890717"><ele>480.0</ele><time>2026-05-03T10:47:37.562Z</time></trkpt><trkpt lat="40.88683" lon="16.5889717"><ele>480.0</ele><time>2026-05-03T10:47:38.562Z</time></trkpt><trkpt lat="40.8868267" lon="16.5888733"><ele>480.0</ele><time>2026-05-03T10:47:39.563Z</time></trkpt><trkpt lat="40.88684" lon="16.5887717"><ele>480.0</ele><time>2026-05-03T10:47:40.562Z</time></trkpt><trkpt lat="40.8868583" lon="16.5886617"><ele>480.0</ele><time>2026-05-03T10:47:41.562Z</time></trkpt><trkpt lat="40.886875" lon="16.58854"><ele>480.0</ele><time>2026-05-03T10:47:42.562Z</time></trkpt><trkpt lat="40.8868883" lon="16.58841"><ele>480.0</ele><time>2026-05-03T10:47:43.562Z</time></trkpt><trkpt lat="40.8869017" lon="16.588285"><ele>480.0</ele><time>2026-05-03T10:47:44.563Z</time></trkpt><trkpt lat="40.886915" lon="16.588155"><ele>480.0</ele><time>2026-05-03T10:47:45.562Z</time></trkpt><trkpt lat="40.886935" lon="16.5880167"><ele>480.0</ele><time>2026-05-03T10:47:46.563Z</time></trkpt><trkpt lat="40.8869567" lon="16.5878717"><ele>480.0</ele><time>2026-05-03T10:47:47.562Z</time></trkpt><trkpt lat="40.8869767" lon="16.587735"><ele>479.8</ele><time>2026-05-03T10:47:48.562Z</time></trkpt><trkpt lat="40.886995" lon="16.5876117"><ele>479.6</ele><time>2026-05-03T10:47:49.562Z</time></trkpt><trkpt lat="40.8870067" lon="16.587495"><ele>479.4</ele><time>2026-05-03T10:47:50.562Z</time></trkpt><trkpt lat="40.8870233" lon="16.5873783"><ele>479.2</ele><time>2026-05-03T10:47:51.563Z</time></trkpt><trkpt lat="40.8870367" lon="16.5872633"><ele>479.0</ele><time>2026-05-03T10:47:52.562Z</time></trkpt><trkpt lat="40.8870533" lon="16.5871483"><ele>479.0</ele><time>2026-05-03T10:47:53.562Z</time></trkpt><trkpt lat="40.8870733" lon="16.5870467"><ele>479.0</ele><time>2026-05-03T10:47:54.563Z</time></trkpt><trkpt lat="40.8870933" lon="16.586965"><ele>479.0</ele><time>2026-05-03T10:47:55.562Z</time></trkpt><trkpt lat="40.8871567" lon="16.5868433"><ele>479.0</ele><time>2026-05-03T10:47:57.562Z</time></trkpt><trkpt lat="40.8872467" lon="16.5867267"><ele>479.0</ele><time>2026-05-03T10:47:59.562Z</time></trkpt><trkpt lat="40.8873067" lon="16.5866567"><ele>479.0</ele><time>2026-05-03T10:48:00.562Z</time></trkpt><trkpt lat="40.8873767" lon="16.58659"><ele>479.0</ele><time>2026-05-03T10:48:01.562Z</time></trkpt><trkpt lat="40.8874383" lon="16.58652"><ele>479.0</ele><time>2026-05-03T10:48:02.562Z</time></trkpt><trkpt lat="40.88749" lon="16.5864567"><ele>479.0</ele><time>2026-05-03T10:48:03.562Z</time></trkpt><trkpt lat="40.88758" lon="16.5863517"><ele>479.0</ele><time>2026-05-03T10:48:05.562Z</time></trkpt><trkpt lat="40.8876767" lon="16.5862517"><ele>479.3333333333333</ele><time>2026-05-03T10:48:07.562Z</time></trkpt><trkpt lat="40.88775" lon="16.5861667"><ele>479.66666666666663</ele><time>2026-05-03T10:48:09.562Z</time></trkpt><trkpt lat="40.887795" lon="16.5860833"><ele>480.0</ele><time>2026-05-03T10:48:11.562Z</time></trkpt><trkpt lat="40.887825" lon="16.585945"><ele>480.33333333333337</ele><time>2026-05-03T10:48:13.562Z</time></trkpt><trkpt lat="40.887835" lon="16.5858467"><ele>480.6666666666667</ele><time>2026-05-03T10:48:14.562Z</time></trkpt><trkpt lat="40.8878517" lon="16.585735"><ele>481.0</ele><time>2026-05-03T10:48:15.563Z</time></trkpt><trkpt lat="40.887875" lon="16.585615"><ele>481.0</ele><time>2026-05-03T10:48:16.563Z</time></trkpt><trkpt lat="40.887895" lon="16.585485"><ele>481.0</ele><time>2026-05-03T10:48:17.563Z</time></trkpt><trkpt lat="40.8879217" lon="16.5853567"><ele>481.0</ele><time>2026-05-03T10:48:18.562Z</time></trkpt><trkpt lat="40.8879467" lon="16.5852233"><ele>481.0</ele><time>2026-05-03T10:48:19.563Z</time></trkpt><trkpt lat="40.8879717" lon="16.5850983"><ele>481.0</ele><time>2026-05-03T10:48:20.562Z</time></trkpt><trkpt lat="40.8879883" lon="16.5849683"><ele>481.20000000000005</ele><time>2026-05-03T10:48:21.563Z</time></trkpt><trkpt lat="40.888005" lon="16.5848233"><ele>481.40000000000003</ele><time>2026-05-03T10:48:22.562Z</time></trkpt><trkpt lat="40.8880233" lon="16.58468"><ele>481.6</ele><time>2026-05-03T10:48:23.563Z</time></trkpt><trkpt lat="40.88804" lon="16.584545"><ele>481.8</ele><time>2026-05-03T10:48:24.562Z</time></trkpt><trkpt lat="40.8880567" lon="16.5844233"><ele>482.0</ele><time>2026-05-03T10:48:25.562Z</time></trkpt><trkpt lat="40.8880783" lon="16.584315"><ele>482.40000000000003</ele><time>2026-05-03T10:48:26.562Z</time></trkpt><trkpt lat="40.8881133" lon="16.5842133"><ele>482.80000000000007</ele><time>2026-05-03T10:48:27.562Z</time></trkpt><trkpt lat="40.8881617" lon="16.5841117"><ele>483.2</ele><time>2026-05-03T10:48:28.562Z</time></trkpt><trkpt lat="40.88822" lon="16.58401"><ele>483.6</ele><time>2026-05-03T10:48:29.563Z</time></trkpt><trkpt lat="40.8882817" lon="16.5839033"><ele>484.0</ele><time>2026-05-03T10:48:30.562Z</time></trkpt><trkpt lat="40.8883383" lon="16.5838117"><ele>484.0</ele><time>2026-05-03T10:48:31.563Z</time></trkpt><trkpt lat="40.8883767" lon="16.583735"><ele>483.99999999999994</ele><time>2026-05-03T10:48:32.563Z</time></trkpt><trkpt lat="40.8884083" lon="16.58365"><ele>484.0</ele><time>2026-05-03T10:48:33.562Z</time></trkpt><trkpt lat="40.8884183" lon="16.5835617"><ele>484.0</ele><time>2026-05-03T10:48:34.563Z</time></trkpt><trkpt lat="40.888405" lon="16.5834733"><ele>483.99999999999994</ele><time>2026-05-03T10:48:35.563Z</time></trkpt><trkpt lat="40.8883767" lon="16.583375"><ele>484.0</ele><time>2026-05-03T10:48:36.563Z</time></trkpt><trkpt lat="40.8883433" lon="16.58328"><ele>484.0</ele><time>2026-05-03T10:48:37.562Z</time></trkpt><trkpt lat="40.888315" lon="16.5831883"><ele>484.00000000000006</ele><time>2026-05-03T10:48:38.562Z</time></trkpt><trkpt lat="40.888335" lon="16.5830283"><ele>484.0</ele><time>2026-05-03T10:48:40.563Z</time></trkpt><trkpt lat="40.888375" lon="16.5829383"><ele>484.0</ele><time>2026-05-03T10:48:41.563Z</time></trkpt><trkpt lat="40.8884167" lon="16.5828467"><ele>484.0</ele><time>2026-05-03T10:48:42.564Z</time></trkpt><trkpt lat="40.8884583" lon="16.582755"><ele>484.00000000000006</ele><time>2026-05-03T10:48:43.563Z</time></trkpt><trkpt lat="40.888495" lon="16.5826667"><ele>484.0</ele><time>2026-05-03T10:48:44.563Z</time></trkpt><trkpt lat="40.88852" lon="16.582585"><ele>484.0</ele><time>2026-05-03T10:48:45.563Z</time></trkpt><trkpt lat="40.8885617" lon="16.5824233"><ele>484.0</ele><time>2026-05-03T10:48:47.564Z</time></trkpt><trkpt lat="40.88859" lon="16.58233"><ele>484.0</ele><time>2026-05-03T10:48:48.563Z</time></trkpt><trkpt lat="40.8886267" lon="16.5822283"><ele>484.0</ele><time>2026-05-03T10:48:49.563Z</time></trkpt><trkpt lat="40.88867" lon="16.582125"><ele>484.0</ele><time>2026-05-03T10:48:50.564Z</time></trkpt><trkpt lat="40.8887283" lon="16.5820283"><ele>483.79999999999995</ele><time>2026-05-03T10:48:51.563Z</time></trkpt><trkpt lat="40.8888" lon="16.5819267"><ele>483.59999999999997</ele><time>2026-05-03T10:48:52.563Z</time></trkpt><trkpt lat="40.88887" lon="16.5818283"><ele>483.4</ele><time>2026-05-03T10:48:53.563Z</time></trkpt><trkpt lat="40.8889467" lon="16.5817167"><ele>483.2</ele><time>2026-05-03T10:48:54.563Z</time></trkpt><trkpt lat="40.8890217" lon="16.5816067"><ele>483.0</ele><time>2026-05-03T10:48:55.563Z</time></trkpt><trkpt lat="40.8891067" lon="16.5814933"><ele>483.0</ele><time>2026-05-03T10:48:56.563Z</time></trkpt><trkpt lat="40.8891883" lon="16.5813733"><ele>483.0</ele><time>2026-05-03T10:48:57.563Z</time></trkpt><trkpt lat="40.8892667" lon="16.58125"><ele>483.0</ele><time>2026-05-03T10:48:58.563Z</time></trkpt><trkpt lat="40.8893367" lon="16.5811217"><ele>483.0</ele><time>2026-05-03T10:48:59.563Z</time></trkpt><trkpt lat="40.8894033" lon="16.581005"><ele>482.79999999999995</ele><time>2026-05-03T10:49:00.563Z</time></trkpt><trkpt lat="40.889465" lon="16.5808983"><ele>482.59999999999997</ele><time>2026-05-03T10:49:01.564Z</time></trkpt><trkpt lat="40.889525" lon="16.5808033"><ele>482.40000000000003</ele><time>2026-05-03T10:49:02.564Z</time></trkpt><trkpt lat="40.8895767" lon="16.5807167"><ele>482.20000000000005</ele><time>2026-05-03T10:49:03.563Z</time></trkpt><trkpt lat="40.88963" lon="16.580625"><ele>482.0</ele><time>2026-05-03T10:49:04.563Z</time></trkpt><trkpt lat="40.889685" lon="16.5805333"><ele>481.99999999999994</ele><time>2026-05-03T10:49:05.563Z</time></trkpt><trkpt lat="40.889735" lon="16.58045"><ele>482.0</ele><time>2026-05-03T10:49:06.564Z</time></trkpt><trkpt lat="40.8897767" lon="16.5803833"><ele>482.0</ele><time>2026-05-03T10:49:07.563Z</time></trkpt><trkpt lat="40.8898333" lon="16.5802933"><ele>482.0</ele><time>2026-05-03T10:49:09.564Z</time></trkpt><trkpt lat="40.8899083" lon="16.5802983"><ele>481.99999999999994</ele><time>2026-05-03T10:49:12.563Z</time></trkpt><trkpt lat="40.8900133" lon="16.580405"><ele>482.0</ele><time>2026-05-03T10:49:14.563Z</time></trkpt><trkpt lat="40.89009" lon="16.5804717"><ele>482.25</ele><time>2026-05-03T10:49:15.563Z</time></trkpt><trkpt lat="40.89018" lon="16.5805417"><ele>482.5</ele><time>2026-05-03T10:49:16.564Z</time></trkpt><trkpt lat="40.89028" lon="16.5806217"><ele>482.75</ele><time>2026-05-03T10:49:17.564Z</time></trkpt><trkpt lat="40.89038" lon="16.5807117"><ele>483.0</ele><time>2026-05-03T10:49:18.563Z</time></trkpt><trkpt lat="40.8904917" lon="16.5808033"><ele>483.0</ele><time>2026-05-03T10:49:19.563Z</time></trkpt><trkpt lat="40.8906133" lon="16.5809"><ele>483.0</ele><time>2026-05-03T10:49:20.563Z</time></trkpt><trkpt lat="40.8907417" lon="16.5809983"><ele>483.0</ele><time>2026-05-03T10:49:21.563Z</time></trkpt><trkpt lat="40.890875" lon="16.581105"><ele>483.0</ele><time>2026-05-03T10:49:22.564Z</time></trkpt><trkpt lat="40.89101" lon="16.58121"><ele>481.66666666666663</ele><time>2026-05-03T10:49:23.563Z</time></trkpt><trkpt lat="40.89115" lon="16.5813167"><ele>480.3333333333333</ele><time>2026-05-03T10:49:24.564Z</time></trkpt><trkpt lat="40.891295" lon="16.5814317"><ele>479.0</ele><time>2026-05-03T10:49:25.564Z</time></trkpt><trkpt lat="40.8914433" lon="16.5815433"><ele>479.0</ele><time>2026-05-03T10:49:26.563Z</time></trkpt><trkpt lat="40.89159" lon="16.5816533"><ele>479.0</ele><time>2026-05-03T10:49:27.563Z</time></trkpt><trkpt lat="40.89174" lon="16.5817617"><ele>479.0</ele><time>2026-05-03T10:49:28.563Z</time></trkpt><trkpt lat="40.8918767" lon="16.5818717"><ele>478.66666666666663</ele><time>2026-05-03T10:49:29.563Z</time></trkpt><trkpt lat="40.8920117" lon="16.5819733"><ele>478.33333333333337</ele><time>2026-05-03T10:49:30.563Z</time></trkpt><trkpt lat="40.8921567" lon="16.5820817"><ele>478.0</ele><time>2026-05-03T10:49:31.564Z</time></trkpt><trkpt lat="40.892305" lon="16.5821883"><ele>477.6666666666667</ele><time>2026-05-03T10:49:32.563Z</time></trkpt><trkpt lat="40.8924483" lon="16.582295"><ele>477.33333333333337</ele><time>2026-05-03T10:49:33.563Z</time></trkpt><trkpt lat="40.8925933" lon="16.5824117"><ele>477.0</ele><time>2026-05-03T10:49:34.563Z</time></trkpt><trkpt lat="40.892735" lon="16.5825433"><ele>475.66666666666663</ele><time>2026-05-03T10:49:35.564Z</time></trkpt><trkpt lat="40.8928733" lon="16.5826833"><ele>474.3333333333333</ele><time>2026-05-03T10:49:36.563Z</time></trkpt><trkpt lat="40.8930183" lon="16.582835"><ele>473.0</ele><time>2026-05-03T10:49:37.563Z</time></trkpt><trkpt lat="40.89316" lon="16.5829833"><ele>473.0</ele><time>2026-05-03T10:49:38.563Z</time></trkpt><trkpt lat="40.8933017" lon="16.583125"><ele>473.0</ele><time>2026-05-03T10:49:39.563Z</time></trkpt><trkpt lat="40.8934317" lon="16.5832517"><ele>473.0</ele><time>2026-05-03T10:49:40.563Z</time></trkpt><trkpt lat="40.8935283" lon="16.5833683"><ele>472.79999999999995</ele><time>2026-05-03T10:49:41.563Z</time></trkpt><trkpt lat="40.8936017" lon="16.5834917"><ele>472.59999999999997</ele><time>2026-05-03T10:49:42.563Z</time></trkpt><trkpt lat="40.89366" lon="16.5836133"><ele>472.40000000000003</ele><time>2026-05-03T10:49:43.564Z</time></trkpt><trkpt lat="40.8937183" lon="16.5837333"><ele>472.20000000000005</ele><time>2026-05-03T10:49:44.563Z</time></trkpt><trkpt lat="40.8937717" lon="16.58384"><ele>472.0</ele><time>2026-05-03T10:49:45.564Z</time></trkpt><trkpt lat="40.8938233" lon="16.583935"><ele>472.40000000000003</ele><time>2026-05-03T10:49:46.563Z</time></trkpt><trkpt lat="40.8938767" lon="16.5840317"><ele>472.80000000000007</ele><time>2026-05-03T10:49:47.563Z</time></trkpt><trkpt lat="40.8939367" lon="16.5841383"><ele>473.2</ele><time>2026-05-03T10:49:48.563Z</time></trkpt><trkpt lat="40.8939983" lon="16.5842517"><ele>473.6</ele><time>2026-05-03T10:49:49.564Z</time></trkpt><trkpt lat="40.89406" lon="16.5843633"><ele>474.0</ele><time>2026-05-03T10:49:50.563Z</time></trkpt><trkpt lat="40.8941267" lon="16.5844817"><ele>474.0</ele><time>2026-05-03T10:49:51.563Z</time></trkpt><trkpt lat="40.8942017" lon="16.5845883"><ele>474.0</ele><time>2026-05-03T10:49:52.563Z</time></trkpt><trkpt lat="40.8942667" lon="16.584685"><ele>474.0</ele><time>2026-05-03T10:49:53.563Z</time></trkpt><trkpt lat="40.8943317" lon="16.5847617"><ele>474.0</ele><time>2026-05-03T10:49:54.563Z</time></trkpt><trkpt lat="40.8944083" lon="16.5848017"><ele>474.0</ele><time>2026-05-03T10:49:55.563Z</time></trkpt><trkpt lat="40.8945017" lon="16.5848233"><ele>474.0</ele><time>2026-05-03T10:49:56.563Z</time></trkpt><trkpt lat="40.8946033" lon="16.58483"><ele>474.0</ele><time>2026-05-03T10:49:57.563Z</time></trkpt><trkpt lat="40.8947167" lon="16.5848483"><ele>474.0</ele><time>2026-05-03T10:49:58.563Z</time></trkpt><trkpt lat="40.894845" lon="16.5848683"><ele>474.0</ele><time>2026-05-03T10:49:59.563Z</time></trkpt><trkpt lat="40.8949817" lon="16.5848917"><ele>474.0</ele><time>2026-05-03T10:50:00.564Z</time></trkpt><trkpt lat="40.8951333" lon="16.5849183"><ele>474.0</ele><time>2026-05-03T10:50:01.564Z</time></trkpt><trkpt lat="40.8952917" lon="16.5849383"><ele>474.0</ele><time>2026-05-03T10:50:02.564Z</time></trkpt><trkpt lat="40.8954517" lon="16.584965"><ele>474.0</ele><time>2026-05-03T10:50:03.563Z</time></trkpt><trkpt lat="40.8956133" lon="16.5849917"><ele>474.0</ele><time>2026-05-03T10:50:04.564Z</time></trkpt><trkpt lat="40.8957817" lon="16.5850233"><ele>474.0</ele><time>2026-05-03T10:50:05.563Z</time></trkpt><trkpt lat="40.8959467" lon="16.58505"><ele>474.33333333333337</ele><time>2026-05-03T10:50:06.563Z</time></trkpt><trkpt lat="40.896115" lon="16.5850817"><ele>474.6666666666667</ele><time>2026-05-03T10:50:07.564Z</time></trkpt><trkpt lat="40.8962633" lon="16.585105"><ele>475.0</ele><time>2026-05-03T10:50:08.564Z</time></trkpt><trkpt lat="40.896405" lon="16.585125"><ele>475.0</ele><time>2026-05-03T10:50:09.563Z</time></trkpt><trkpt lat="40.89655" lon="16.5851317"><ele>475.0</ele><time>2026-05-03T10:50:10.563Z</time></trkpt><trkpt lat="40.896705" lon="16.5851033"><ele>475.0</ele><time>2026-05-03T10:50:11.563Z</time></trkpt><trkpt lat="40.8968633" lon="16.585065"><ele>475.6666666666667</ele><time>2026-05-03T10:50:12.563Z</time></trkpt><trkpt lat="40.8970233" lon="16.5850317"><ele>476.33333333333337</ele><time>2026-05-03T10:50:13.564Z</time></trkpt><trkpt lat="40.8971883" lon="16.584995"><ele>477.0</ele><time>2026-05-03T10:50:14.563Z</time></trkpt><trkpt lat="40.8973533" lon="16.5849583"><ele>477.0</ele><time>2026-05-03T10:50:15.563Z</time></trkpt><trkpt lat="40.8975167" lon="16.5849133"><ele>477.0</ele><time>2026-05-03T10:50:16.564Z</time></trkpt><trkpt lat="40.8976833" lon="16.5848783"><ele>477.0</ele><time>2026-05-03T10:50:17.563Z</time></trkpt><trkpt lat="40.8978467" lon="16.58484"><ele>477.66666666666663</ele><time>2026-05-03T10:50:18.563Z</time></trkpt><trkpt lat="40.8980117" lon="16.5847983"><ele>478.3333333333333</ele><time>2026-05-03T10:50:19.563Z</time></trkpt><trkpt lat="40.8981717" lon="16.5847633"><ele>479.0</ele><time>2026-05-03T10:50:20.564Z</time></trkpt><trkpt lat="40.89834" lon="16.584725"><ele>479.0</ele><time>2026-05-03T10:50:21.563Z</time></trkpt><trkpt lat="40.8985083" lon="16.5846867"><ele>479.0</ele><time>2026-05-03T10:50:22.563Z</time></trkpt><trkpt lat="40.8986767" lon="16.5846467"><ele>479.0</ele><time>2026-05-03T10:50:23.564Z</time></trkpt><trkpt lat="40.8988483" lon="16.5846067"><ele>479.0</ele><time>2026-05-03T10:50:24.563Z</time></trkpt><trkpt lat="40.8990133" lon="16.5845633"><ele>479.0</ele><time>2026-05-03T10:50:25.564Z</time></trkpt><trkpt lat="40.89917" lon="16.584525"><ele>479.0</ele><time>2026-05-03T10:50:26.563Z</time></trkpt><trkpt lat="40.89932" lon="16.58449"><ele>479.75</ele><time>2026-05-03T10:50:27.564Z</time></trkpt><trkpt lat="40.8994617" lon="16.58446"><ele>480.5</ele><time>2026-05-03T10:50:28.563Z</time></trkpt><trkpt lat="40.8996067" lon="16.5844483"><ele>481.25</ele><time>2026-05-03T10:50:29.563Z</time></trkpt><trkpt lat="40.89976" lon="16.58447"><ele>482.0</ele><time>2026-05-03T10:50:30.563Z</time></trkpt><trkpt lat="40.8999183" lon="16.5844967"><ele>482.0</ele><time>2026-05-03T10:50:31.563Z</time></trkpt><trkpt lat="40.9000783" lon="16.5845283"><ele>482.0</ele><time>2026-05-03T10:50:32.563Z</time></trkpt><trkpt lat="40.9002417" lon="16.5845517"><ele>482.0</ele><time>2026-05-03T10:50:33.563Z</time></trkpt><trkpt lat="40.9004" lon="16.584595"><ele>482.3333333333333</ele><time>2026-05-03T10:50:34.563Z</time></trkpt><trkpt lat="40.9005583" lon="16.5846267"><ele>482.66666666666663</ele><time>2026-05-03T10:50:35.564Z</time></trkpt><trkpt lat="40.9007167" lon="16.584645"><ele>483.0</ele><time>2026-05-03T10:50:36.564Z</time></trkpt><trkpt lat="40.9008833" lon="16.5846483"><ele>483.66666666666663</ele><time>2026-05-03T10:50:37.564Z</time></trkpt><trkpt lat="40.9010417" lon="16.5846383"><ele>484.3333333333333</ele><time>2026-05-03T10:50:38.563Z</time></trkpt><trkpt lat="40.901205" lon="16.58461"><ele>485.0</ele><time>2026-05-03T10:50:39.564Z</time></trkpt><trkpt lat="40.9013783" lon="16.5845833"><ele>485.0</ele><time>2026-05-03T10:50:40.564Z</time></trkpt><trkpt lat="40.9015517" lon="16.5845417"><ele>485.0</ele><time>2026-05-03T10:50:41.563Z</time></trkpt><trkpt lat="40.9017183" lon="16.5844883"><ele>485.0</ele><time>2026-05-03T10:50:42.563Z</time></trkpt><trkpt lat="40.9018833" lon="16.5844283"><ele>486.0</ele><time>2026-05-03T10:50:43.563Z</time></trkpt><trkpt lat="40.9020283" lon="16.584375"><ele>487.0</ele><time>2026-05-03T10:50:44.563Z</time></trkpt><trkpt lat="40.9021867" lon="16.5843433"><ele>488.0</ele><time>2026-05-03T10:50:45.563Z</time></trkpt><trkpt lat="40.90234" lon="16.584315"><ele>488.0</ele><time>2026-05-03T10:50:46.564Z</time></trkpt><trkpt lat="40.9024933" lon="16.58429"><ele>488.0</ele><time>2026-05-03T10:50:47.563Z</time></trkpt><trkpt lat="40.9026283" lon="16.5842667"><ele>488.0</ele><time>2026-05-03T10:50:48.564Z</time></trkpt><trkpt lat="40.9027467" lon="16.584265"><ele>488.0</ele><time>2026-05-03T10:50:49.563Z</time></trkpt><trkpt lat="40.9028583" lon="16.5842917"><ele>489.0</ele><time>2026-05-03T10:50:50.563Z</time></trkpt><trkpt lat="40.9029817" lon="16.5843317"><ele>490.0</ele><time>2026-05-03T10:50:51.563Z</time></trkpt><trkpt lat="40.9031083" lon="16.58438"><ele>491.0</ele><time>2026-05-03T10:50:52.563Z</time></trkpt><trkpt lat="40.9032333" lon="16.5844233"><ele>492.0</ele><time>2026-05-03T10:50:53.564Z</time></trkpt><trkpt lat="40.9033567" lon="16.584445"><ele>493.25</ele><time>2026-05-03T10:50:54.563Z</time></trkpt><trkpt lat="40.9034883" lon="16.584435"><ele>494.5</ele><time>2026-05-03T10:50:55.564Z</time></trkpt><trkpt lat="40.9036217" lon="16.5844033"><ele>495.75</ele><time>2026-05-03T10:50:56.564Z</time></trkpt><trkpt lat="40.9037583" lon="16.5843567"><ele>497.0</ele><time>2026-05-03T10:50:57.563Z</time></trkpt><trkpt lat="40.9038867" lon="16.584305"><ele>497.0</ele><time>2026-05-03T10:50:58.563Z</time></trkpt><trkpt lat="40.904025" lon="16.5842617"><ele>497.0</ele><time>2026-05-03T10:50:59.564Z</time></trkpt><trkpt lat="40.9041583" lon="16.58423"><ele>497.0</ele><time>2026-05-03T10:51:00.563Z</time></trkpt><trkpt lat="40.9042967" lon="16.584205"><ele>497.0</ele><time>2026-05-03T10:51:01.564Z</time></trkpt><trkpt lat="40.904435" lon="16.5842017"><ele>498.0</ele><time>2026-05-03T10:51:02.564Z</time></trkpt><trkpt lat="40.9045633" lon="16.5842117"><ele>499.00000000000006</ele><time>2026-05-03T10:51:03.563Z</time></trkpt><trkpt lat="40.9046833" lon="16.5842183"><ele>500.00000000000006</ele><time>2026-05-03T10:51:04.563Z</time></trkpt><trkpt lat="40.90478" lon="16.5842167"><ele>501.0</ele><time>2026-05-03T10:51:05.564Z</time></trkpt><trkpt lat="40.9048683" lon="16.5842"><ele>502.0</ele><time>2026-05-03T10:51:06.564Z</time></trkpt><trkpt lat="40.904955" lon="16.5841617"><ele>502.00000000000006</ele><time>2026-05-03T10:51:07.564Z</time></trkpt><trkpt lat="40.9050417" lon="16.584115"><ele>502.0</ele><time>2026-05-03T10:51:08.563Z</time></trkpt><trkpt lat="40.9051183" lon="16.58408"><ele>502.0</ele><time>2026-05-03T10:51:09.563Z</time></trkpt><trkpt lat="40.9051883" lon="16.5840533"><ele>502.0</ele><time>2026-05-03T10:51:10.564Z</time></trkpt><trkpt lat="40.9052567" lon="16.5840267"><ele>502.00000000000006</ele><time>2026-05-03T10:51:11.563Z</time></trkpt><trkpt lat="40.9053333" lon="16.58401"><ele>502.0</ele><time>2026-05-03T10:51:12.563Z</time></trkpt><trkpt lat="40.9054167" lon="16.5839967"><ele>502.40000000000003</ele><time>2026-05-03T10:51:13.563Z</time></trkpt><trkpt lat="40.9055067" lon="16.5839833"><ele>502.80000000000007</ele><time>2026-05-03T10:51:14.563Z</time></trkpt><trkpt lat="40.9055983" lon="16.58396"><ele>503.2</ele><time>2026-05-03T10:51:15.564Z</time></trkpt><trkpt lat="40.905695" lon="16.5839367"><ele>503.6</ele><time>2026-05-03T10:51:16.563Z</time></trkpt><trkpt lat="40.9057983" lon="16.583915"><ele>504.0</ele><time>2026-05-03T10:51:17.563Z</time></trkpt><trkpt lat="40.905905" lon="16.583895"><ele>504.0</ele><time>2026-05-03T10:51:18.563Z</time></trkpt><trkpt lat="40.9059983" lon="16.5838683"><ele>504.0</ele><time>2026-05-03T10:51:19.564Z</time></trkpt><trkpt lat="40.90607" lon="16.583845"><ele>504.0</ele><time>2026-05-03T10:51:20.563Z</time></trkpt><trkpt lat="40.9061517" lon="16.5838033"><ele>504.0</ele><time>2026-05-03T10:51:22.564Z</time></trkpt><trkpt lat="40.9061667" lon="16.5837167"><ele>504.0</ele><time>2026-05-03T10:51:24.563Z</time></trkpt><trkpt lat="40.9061167" lon="16.583565"><ele>504.0</ele><time>2026-05-03T10:51:26.564Z</time></trkpt><trkpt lat="40.906075" lon="16.58346"><ele>504.0</ele><time>2026-05-03T10:51:27.564Z</time></trkpt><trkpt lat="40.9060233" lon="16.58333"><ele>504.0</ele><time>2026-05-03T10:51:28.564Z</time></trkpt><trkpt lat="40.9059717" lon="16.58318"><ele>504.0</ele><time>2026-05-03T10:51:29.564Z</time></trkpt><trkpt lat="40.905915" lon="16.5830267"><ele>504.0</ele><time>2026-05-03T10:51:30.563Z</time></trkpt><trkpt lat="40.90585" lon="16.58287"><ele>504.5</ele><time>2026-05-03T10:51:31.564Z</time></trkpt><trkpt lat="40.905785" lon="16.5827183"><ele>505.0</ele><time>2026-05-03T10:51:32.564Z</time></trkpt><trkpt lat="40.90572" lon="16.5825517"><ele>505.5</ele><time>2026-05-03T10:51:33.563Z</time></trkpt><trkpt lat="40.9056617" lon="16.5823733"><ele>506.0</ele><time>2026-05-03T10:51:34.563Z</time></trkpt><trkpt lat="40.905605" lon="16.5822083"><ele>506.0</ele><time>2026-05-03T10:51:35.563Z</time></trkpt><trkpt lat="40.90554" lon="16.5820417"><ele>506.0</ele><time>2026-05-03T10:51:36.564Z</time></trkpt><trkpt lat="40.90548" lon="16.58187"><ele>506.0</ele><time>2026-05-03T10:51:37.563Z</time></trkpt><trkpt lat="40.9054167" lon="16.58169"><ele>506.0</ele><time>2026-05-03T10:51:38.563Z</time></trkpt><trkpt lat="40.9053483" lon="16.5815133"><ele>506.0</ele><time>2026-05-03T10:51:39.563Z</time></trkpt><trkpt lat="40.9052833" lon="16.581335"><ele>506.0</ele><time>2026-05-03T10:51:40.563Z</time></trkpt><trkpt lat="40.9052233" lon="16.581165"><ele>506.0</ele><time>2026-05-03T10:51:41.563Z</time></trkpt><trkpt lat="40.9051633" lon="16.580995"><ele>506.0</ele><time>2026-05-03T10:51:42.563Z</time></trkpt><trkpt lat="40.9051033" lon="16.5808233"><ele>505.75</ele><time>2026-05-03T10:51:43.563Z</time></trkpt><trkpt lat="40.905045" lon="16.580665"><ele>505.5</ele><time>2026-05-03T10:51:44.563Z</time></trkpt><trkpt lat="40.9049883" lon="16.5805233"><ele>505.25</ele><time>2026-05-03T10:51:45.563Z</time></trkpt><trkpt lat="40.90494" lon="16.5804017"><ele>505.0</ele><time>2026-05-03T10:51:46.563Z</time></trkpt><trkpt lat="40.9048983" lon="16.5802933"><ele>505.0</ele><time>2026-05-03T10:51:47.563Z</time></trkpt><trkpt lat="40.9048667" lon="16.580185"><ele>505.0</ele><time>2026-05-03T10:51:48.564Z</time></trkpt><trkpt lat="40.9048383" lon="16.580075"><ele>505.0</ele><time>2026-05-03T10:51:49.564Z</time></trkpt><trkpt lat="40.9047983" lon="16.57997"><ele>505.0</ele><time>2026-05-03T10:51:50.563Z</time></trkpt><trkpt lat="40.90476" lon="16.5798383"><ele>505.0</ele><time>2026-05-03T10:51:51.563Z</time></trkpt><trkpt lat="40.9047317" lon="16.5796833"><ele>505.0</ele><time>2026-05-03T10:51:52.563Z</time></trkpt><trkpt lat="40.9047067" lon="16.5795217"><ele>505.0</ele><time>2026-05-03T10:51:53.564Z</time></trkpt><trkpt lat="40.9046833" lon="16.579355"><ele>505.0</ele><time>2026-05-03T10:51:54.563Z</time></trkpt><trkpt lat="40.9046533" lon="16.5792133"><ele>505.0</ele><time>2026-05-03T10:51:55.563Z</time></trkpt><trkpt lat="40.9046117" lon="16.5790733"><ele>505.75</ele><time>2026-05-03T10:51:56.563Z</time></trkpt><trkpt lat="40.90455" lon="16.5789283"><ele>506.5</ele><time>2026-05-03T10:51:57.563Z</time></trkpt><trkpt lat="40.9044833" lon="16.5787967"><ele>507.25</ele><time>2026-05-03T10:51:58.563Z</time></trkpt><trkpt lat="40.9044083" lon="16.5786583"><ele>508.0</ele><time>2026-05-03T10:51:59.563Z</time></trkpt><trkpt lat="40.9043483" lon="16.578535"><ele>507.75</ele><time>2026-05-03T10:52:00.563Z</time></trkpt><trkpt lat="40.9042783" lon="16.5784217"><ele>507.5</ele><time>2026-05-03T10:52:01.563Z</time></trkpt><trkpt lat="40.9042017" lon="16.5783133"><ele>507.25</ele><time>2026-05-03T10:52:02.563Z</time></trkpt><trkpt lat="40.90411" lon="16.578205"><ele>507.0</ele><time>2026-05-03T10:52:03.563Z</time></trkpt><trkpt lat="40.9040117" lon="16.5780867"><ele>507.0</ele><time>2026-05-03T10:52:04.563Z</time></trkpt><trkpt lat="40.903925" lon="16.577975"><ele>507.00000000000006</ele><time>2026-05-03T10:52:05.563Z</time></trkpt><trkpt lat="40.9038533" lon="16.5778717"><ele>507.00000000000006</ele><time>2026-05-03T10:52:06.563Z</time></trkpt><trkpt lat="40.9037883" lon="16.5777767"><ele>507.0</ele><time>2026-05-03T10:52:07.563Z</time></trkpt><trkpt lat="40.90373" lon="16.57769"><ele>507.0</ele><time>2026-05-03T10:52:08.564Z</time></trkpt><trkpt lat="40.903675" lon="16.5776167"><ele>507.20000000000005</ele><time>2026-05-03T10:52:09.563Z</time></trkpt><trkpt lat="40.9036233" lon="16.5775517"><ele>507.40000000000003</ele><time>2026-05-03T10:52:10.563Z</time></trkpt><trkpt lat="40.9035717" lon="16.5774133"><ele>507.59999999999997</ele><time>2026-05-03T10:52:12.563Z</time></trkpt><trkpt lat="40.9036167" lon="16.5772767"><ele>507.79999999999995</ele><time>2026-05-03T10:52:14.563Z</time></trkpt><trkpt lat="40.9036683" lon="16.57721"><ele>508.0</ele><time>2026-05-03T10:52:15.563Z</time></trkpt><trkpt lat="40.903735" lon="16.5771317"><ele>508.00000000000006</ele><time>2026-05-03T10:52:16.564Z</time></trkpt><trkpt lat="40.9038017" lon="16.577045"><ele>508.0</ele><time>2026-05-03T10:52:17.563Z</time></trkpt><trkpt lat="40.9038733" lon="16.576955"><ele>508.0</ele><time>2026-05-03T10:52:18.563Z</time></trkpt><trkpt lat="40.903935" lon="16.5768733"><ele>508.0</ele><time>2026-05-03T10:52:19.563Z</time></trkpt><trkpt lat="40.9039917" lon="16.5767933"><ele>508.00000000000006</ele><time>2026-05-03T10:52:20.564Z</time></trkpt><trkpt lat="40.904045" lon="16.57672"><ele>508.0</ele><time>2026-05-03T10:52:21.564Z</time></trkpt><trkpt lat="40.9041083" lon="16.5766267"><ele>508.25</ele><time>2026-05-03T10:52:22.564Z</time></trkpt><trkpt lat="40.90418" lon="16.5765267"><ele>508.5</ele><time>2026-05-03T10:52:23.563Z</time></trkpt><trkpt lat="40.9042533" lon="16.5764183"><ele>508.75</ele><time>2026-05-03T10:52:24.564Z</time></trkpt><trkpt lat="40.904335" lon="16.576295"><ele>509.0</ele><time>2026-05-03T10:52:25.564Z</time></trkpt><trkpt lat="40.9044217" lon="16.576155"><ele>509.5</ele><time>2026-05-03T10:52:26.563Z</time></trkpt><trkpt lat="40.9045133" lon="16.57602"><ele>510.0</ele><time>2026-05-03T10:52:27.563Z</time></trkpt><trkpt lat="40.9046017" lon="16.5758767"><ele>510.5</ele><time>2026-05-03T10:52:28.564Z</time></trkpt><trkpt lat="40.904675" lon="16.5757483"><ele>511.0</ele><time>2026-05-03T10:52:29.563Z</time></trkpt><trkpt lat="40.9047517" lon="16.57562"><ele>511.0</ele><time>2026-05-03T10:52:30.564Z</time></trkpt><trkpt lat="40.9048217" lon="16.5754933"><ele>511.0</ele><time>2026-05-03T10:52:31.563Z</time></trkpt><trkpt lat="40.9048817" lon="16.575385"><ele>511.0</ele><time>2026-05-03T10:52:32.564Z</time></trkpt><trkpt lat="40.9049383" lon="16.5752917"><ele>511.0</ele><time>2026-05-03T10:52:33.563Z</time></trkpt><trkpt lat="40.905" lon="16.5752117"><ele>511.0</ele><time>2026-05-03T10:52:34.563Z</time></trkpt><trkpt lat="40.905055" lon="16.5751283"><ele>510.6</ele><time>2026-05-03T10:52:35.563Z</time></trkpt><trkpt lat="40.90511" lon="16.57503"><ele>510.20000000000005</ele><time>2026-05-03T10:52:36.563Z</time></trkpt><trkpt lat="40.9051683" lon="16.57493"><ele>509.79999999999995</ele><time>2026-05-03T10:52:37.563Z</time></trkpt><trkpt lat="40.905235" lon="16.5748217"><ele>509.4</ele><time>2026-05-03T10:52:38.564Z</time></trkpt><trkpt lat="40.905295" lon="16.574715"><ele>509.0</ele><time>2026-05-03T10:52:39.563Z</time></trkpt><trkpt lat="40.9053533" lon="16.5746183"><ele>509.0</ele><time>2026-05-03T10:52:40.563Z</time></trkpt><trkpt lat="40.9054133" lon="16.5745317"><ele>509.0</ele><time>2026-05-03T10:52:41.563Z</time></trkpt><trkpt lat="40.905475" lon="16.574435"><ele>509.0</ele><time>2026-05-03T10:52:42.564Z</time></trkpt><trkpt lat="40.9055367" lon="16.5743333"><ele>509.0</ele><time>2026-05-03T10:52:43.563Z</time></trkpt><trkpt lat="40.9055967" lon="16.574235"><ele>509.0</ele><time>2026-05-03T10:52:44.563Z</time></trkpt><trkpt lat="40.9056517" lon="16.574145"><ele>508.66666666666663</ele><time>2026-05-03T10:52:45.563Z</time></trkpt><trkpt lat="40.9056983" lon="16.5740517"><ele>508.3333333333333</ele><time>2026-05-03T10:52:46.563Z</time></trkpt><trkpt lat="40.9057483" lon="16.5739633"><ele>508.0</ele><time>2026-05-03T10:52:47.563Z</time></trkpt><trkpt lat="40.9057967" lon="16.5738817"><ele>507.66666666666663</ele><time>2026-05-03T10:52:48.563Z</time></trkpt><trkpt lat="40.9058467" lon="16.573795"><ele>507.3333333333333</ele><time>2026-05-03T10:52:49.563Z</time></trkpt><trkpt lat="40.905905" lon="16.5737033"><ele>507.0</ele><time>2026-05-03T10:52:50.563Z</time></trkpt><trkpt lat="40.90596" lon="16.5736133"><ele>506.8333333333333</ele><time>2026-05-03T10:52:51.563Z</time></trkpt><trkpt lat="40.9060133" lon="16.573535"><ele>506.66666666666663</ele><time>2026-05-03T10:52:52.563Z</time></trkpt><trkpt lat="40.9060617" lon="16.5734483"><ele>506.5</ele><time>2026-05-03T10:52:53.564Z</time></trkpt><trkpt lat="40.9061133" lon="16.5733667"><ele>506.3333333333333</ele><time>2026-05-03T10:52:54.563Z</time></trkpt><trkpt lat="40.9061633" lon="16.5732867"><ele>506.16666666666663</ele><time>2026-05-03T10:52:55.564Z</time></trkpt><trkpt lat="40.9062117" lon="16.57322"><ele>506.0</ele><time>2026-05-03T10:52:56.563Z</time></trkpt><trkpt lat="40.9062583" lon="16.5731467"><ele>506.00000000000006</ele><time>2026-05-03T10:52:57.563Z</time></trkpt><trkpt lat="40.90631" lon="16.5730717"><ele>506.0</ele><time>2026-05-03T10:52:58.563Z</time></trkpt><trkpt lat="40.9063567" lon="16.5729967"><ele>506.00000000000006</ele><time>2026-05-03T10:52:59.564Z</time></trkpt><trkpt lat="40.9064033" lon="16.5729183"><ele>506.00000000000006</ele><time>2026-05-03T10:53:00.564Z</time></trkpt><trkpt lat="40.9064533" lon="16.572845"><ele>506.0</ele><time>2026-05-03T10:53:01.564Z</time></trkpt><trkpt lat="40.9065" lon="16.5727683"><ele>506.00000000000006</ele><time>2026-05-03T10:53:02.563Z</time></trkpt><trkpt lat="40.9065383" lon="16.5726917"><ele>506.00000000000006</ele><time>2026-05-03T10:53:03.563Z</time></trkpt><trkpt lat="40.9065867" lon="16.572525"><ele>505.99999999999994</ele><time>2026-05-03T10:53:05.563Z</time></trkpt><trkpt lat="40.9065983" lon="16.572425"><ele>506.0</ele><time>2026-05-03T10:53:06.563Z</time></trkpt><trkpt lat="40.9066183" lon="16.572325"><ele>506.0</ele><time>2026-05-03T10:53:07.563Z</time></trkpt><trkpt lat="40.9066317" lon="16.572225"><ele>506.0</ele><time>2026-05-03T10:53:08.564Z</time></trkpt><trkpt lat="40.906645" lon="16.572125"><ele>505.99999999999994</ele><time>2026-05-03T10:53:09.564Z</time></trkpt><trkpt lat="40.906655" lon="16.5720267"><ele>506.0</ele><time>2026-05-03T10:53:10.563Z</time></trkpt><trkpt lat="40.9066683" lon="16.57193"><ele>505.99999999999994</ele><time>2026-05-03T10:53:11.563Z</time></trkpt><trkpt lat="40.9066883" lon="16.571825"><ele>506.0</ele><time>2026-05-03T10:53:12.564Z</time></trkpt><trkpt lat="40.9067067" lon="16.5717167"><ele>506.0</ele><time>2026-05-03T10:53:13.564Z</time></trkpt><trkpt lat="40.9067217" lon="16.5716167"><ele>506.0</ele><time>2026-05-03T10:53:14.563Z</time></trkpt><trkpt lat="40.90673" lon="16.5715217"><ele>505.99999999999994</ele><time>2026-05-03T10:53:15.563Z</time></trkpt><trkpt lat="40.906745" lon="16.5714333"><ele>506.0</ele><time>2026-05-03T10:53:16.564Z</time></trkpt><trkpt lat="40.9067617" lon="16.5713367"><ele>505.6</ele><time>2026-05-03T10:53:17.564Z</time></trkpt><trkpt lat="40.9067817" lon="16.5712283"><ele>505.20000000000005</ele><time>2026-05-03T10:53:18.563Z</time></trkpt><trkpt lat="40.906805" lon="16.5711117"><ele>504.79999999999995</ele><time>2026-05-03T10:53:19.563Z</time></trkpt><trkpt lat="40.906825" lon="16.5709933"><ele>504.4</ele><time>2026-05-03T10:53:20.563Z</time></trkpt><trkpt lat="40.9068417" lon="16.57087"><ele>504.0</ele><time>2026-05-03T10:53:21.564Z</time></trkpt><trkpt lat="40.9068567" lon="16.5707483"><ele>504.0</ele><time>2026-05-03T10:53:22.563Z</time></trkpt><trkpt lat="40.9068733" lon="16.5706383"><ele>504.0</ele><time>2026-05-03T10:53:23.563Z</time></trkpt><trkpt lat="40.906885" lon="16.570535"><ele>504.0</ele><time>2026-05-03T10:53:24.563Z</time></trkpt><trkpt lat="40.9069033" lon="16.570425"><ele>504.0</ele><time>2026-05-03T10:53:25.564Z</time></trkpt><trkpt lat="40.906925" lon="16.570305"><ele>504.0</ele><time>2026-05-03T10:53:26.563Z</time></trkpt><trkpt lat="40.9069467" lon="16.5701783"><ele>504.0</ele><time>2026-05-03T10:53:27.564Z</time></trkpt><trkpt lat="40.9069717" lon="16.5700467"><ele>504.2</ele><time>2026-05-03T10:53:28.564Z</time></trkpt><trkpt lat="40.9069983" lon="16.5699117"><ele>504.4</ele><time>2026-05-03T10:53:29.563Z</time></trkpt><trkpt lat="40.907015" lon="16.5697817"><ele>504.6</ele><time>2026-05-03T10:53:30.563Z</time></trkpt><trkpt lat="40.90703" lon="16.56966"><ele>504.8</ele><time>2026-05-03T10:53:31.563Z</time></trkpt><trkpt lat="40.9070517" lon="16.5695417"><ele>505.0</ele><time>2026-05-03T10:53:32.563Z</time></trkpt><trkpt lat="40.9070683" lon="16.5694283"><ele>505.00000000000006</ele><time>2026-05-03T10:53:33.564Z</time></trkpt><trkpt lat="40.9070883" lon="16.5693167"><ele>505.0</ele><time>2026-05-03T10:53:34.563Z</time></trkpt><trkpt lat="40.9071067" lon="16.5692067"><ele>505.0</ele><time>2026-05-03T10:53:35.563Z</time></trkpt><trkpt lat="40.907125" lon="16.569085"><ele>505.0</ele><time>2026-05-03T10:53:36.563Z</time></trkpt><trkpt lat="40.9071417" lon="16.5689733"><ele>505.00000000000006</ele><time>2026-05-03T10:53:37.563Z</time></trkpt><trkpt lat="40.90716" lon="16.5688817"><ele>505.0</ele><time>2026-05-03T10:53:38.563Z</time></trkpt><trkpt lat="40.9071717" lon="16.5687867"><ele>505.0</ele><time>2026-05-03T10:53:39.563Z</time></trkpt><trkpt lat="40.907185" lon="16.568685"><ele>505.0</ele><time>2026-05-03T10:53:40.564Z</time></trkpt><trkpt lat="40.9072017" lon="16.5685883"><ele>505.0</ele><time>2026-05-03T10:53:41.564Z</time></trkpt><trkpt lat="40.9072317" lon="16.5684267"><ele>505.0</ele><time>2026-05-03T10:53:43.564Z</time></trkpt><trkpt lat="40.9072617" lon="16.5682667"><ele>505.0</ele><time>2026-05-03T10:53:45.563Z</time></trkpt><trkpt lat="40.9072867" lon="16.5681133"><ele>505.0</ele><time>2026-05-03T10:53:47.563Z</time></trkpt><trkpt lat="40.9072983" lon="16.56803"><ele>505.0</ele><time>2026-05-03T10:53:48.563Z</time></trkpt><trkpt lat="40.9073117" lon="16.5679467"><ele>505.0</ele><time>2026-05-03T10:53:49.563Z</time></trkpt><trkpt lat="40.90734" lon="16.5677967"><ele>505.0</ele><time>2026-05-03T10:53:51.563Z</time></trkpt><trkpt lat="40.9073767" lon="16.567655"><ele>505.0</ele><time>2026-05-03T10:53:53.563Z</time></trkpt><trkpt lat="40.9074383" lon="16.5675517"><ele>505.2</ele><time>2026-05-03T10:53:55.563Z</time></trkpt><trkpt lat="40.90752" lon="16.5674483"><ele>505.4</ele><time>2026-05-03T10:53:57.563Z</time></trkpt><trkpt lat="40.90761" lon="16.5673717"><ele>505.6</ele><time>2026-05-03T10:53:59.564Z</time></trkpt><trkpt lat="40.9076833" lon="16.567285"><ele>505.8</ele><time>2026-05-03T10:54:01.563Z</time></trkpt><trkpt lat="40.9077667" lon="16.5671783"><ele>506.0</ele><time>2026-05-03T10:54:03.564Z</time></trkpt><trkpt lat="40.907835" lon="16.567035"><ele>505.6</ele><time>2026-05-03T10:54:05.563Z</time></trkpt><trkpt lat="40.9078583" lon="16.5669333"><ele>505.20000000000005</ele><time>2026-05-03T10:54:06.563Z</time></trkpt><trkpt lat="40.907875" lon="16.5668133"><ele>504.79999999999995</ele><time>2026-05-03T10:54:07.563Z</time></trkpt><trkpt lat="40.907885" lon="16.5666883"><ele>504.4</ele><time>2026-05-03T10:54:08.563Z</time></trkpt><trkpt lat="40.9079017" lon="16.56655"><ele>504.0</ele><time>2026-05-03T10:54:09.563Z</time></trkpt><trkpt lat="40.9079217" lon="16.56643"><ele>504.0</ele><time>2026-05-03T10:54:10.563Z</time></trkpt><trkpt lat="40.90794" lon="16.5663067"><ele>504.0</ele><time>2026-05-03T10:54:11.563Z</time></trkpt><trkpt lat="40.9079633" lon="16.5661717"><ele>504.0</ele><time>2026-05-03T10:54:12.563Z</time></trkpt><trkpt lat="40.9079883" lon="16.5660317"><ele>504.0</ele><time>2026-05-03T10:54:13.564Z</time></trkpt><trkpt lat="40.908015" lon="16.5658783"><ele>504.0</ele><time>2026-05-03T10:54:14.563Z</time></trkpt><trkpt lat="40.90804" lon="16.5657233"><ele>504.2</ele><time>2026-05-03T10:54:15.563Z</time></trkpt><trkpt lat="40.9080633" lon="16.5655783"><ele>504.4</ele><time>2026-05-03T10:54:16.563Z</time></trkpt><trkpt lat="40.9080867" lon="16.5654367"><ele>504.6</ele><time>2026-05-03T10:54:17.563Z</time></trkpt><trkpt lat="40.9081217" lon="16.5653"><ele>504.8</ele><time>2026-05-03T10:54:18.564Z</time></trkpt><trkpt lat="40.9081633" lon="16.565155"><ele>505.0</ele><time>2026-05-03T10:54:19.564Z</time></trkpt><trkpt lat="40.908205" lon="16.5649983"><ele>505.25</ele><time>2026-05-03T10:54:20.563Z</time></trkpt><trkpt lat="40.9082433" lon="16.564845"><ele>505.5</ele><time>2026-05-03T10:54:21.563Z</time></trkpt><trkpt lat="40.908285" lon="16.5646817"><ele>505.75</ele><time>2026-05-03T10:54:22.563Z</time></trkpt><trkpt lat="40.908325" lon="16.5645017"><ele>506.0</ele><time>2026-05-03T10:54:23.563Z</time></trkpt><trkpt lat="40.90837" lon="16.5643233"><ele>506.25</ele><time>2026-05-03T10:54:24.563Z</time></trkpt><trkpt lat="40.9084233" lon="16.564145"><ele>506.5</ele><time>2026-05-03T10:54:25.563Z</time></trkpt><trkpt lat="40.90847" lon="16.5639633"><ele>506.75</ele><time>2026-05-03T10:54:26.563Z</time></trkpt><trkpt lat="40.90853" lon="16.563785"><ele>507.0</ele><time>2026-05-03T10:54:27.564Z</time></trkpt><trkpt lat="40.9085867" lon="16.5635967"><ele>507.66666666666663</ele><time>2026-05-03T10:54:28.563Z</time></trkpt><trkpt lat="40.9086483" lon="16.5634067"><ele>508.3333333333333</ele><time>2026-05-03T10:54:29.563Z</time></trkpt><trkpt lat="40.90871" lon="16.5632183"><ele>509.0</ele><time>2026-05-03T10:54:30.563Z</time></trkpt><trkpt lat="40.9087683" lon="16.5630383"><ele>509.0</ele><time>2026-05-03T10:54:31.564Z</time></trkpt><trkpt lat="40.9088317" lon="16.5628533"><ele>509.0</ele><time>2026-05-03T10:54:32.563Z</time></trkpt><trkpt lat="40.90889" lon="16.5626683"><ele>509.0</ele><time>2026-05-03T10:54:33.564Z</time></trkpt><trkpt lat="40.9089417" lon="16.5624783"><ele>509.0</ele><time>2026-05-03T10:54:34.564Z</time></trkpt><trkpt lat="40.9089933" lon="16.5622867"><ele>509.0</ele><time>2026-05-03T10:54:35.563Z</time></trkpt><trkpt lat="40.90905" lon="16.5620983"><ele>509.0</ele><time>2026-05-03T10:54:36.563Z</time></trkpt><trkpt lat="40.9091033" lon="16.5619167"><ele>509.25</ele><time>2026-05-03T10:54:37.564Z</time></trkpt><trkpt lat="40.9091467" lon="16.56175"><ele>509.5</ele><time>2026-05-03T10:54:38.563Z</time></trkpt><trkpt lat="40.9091917" lon="16.56159"><ele>509.75</ele><time>2026-05-03T10:54:39.563Z</time></trkpt><trkpt lat="40.9092233" lon="16.561425"><ele>510.0</ele><time>2026-05-03T10:54:40.563Z</time></trkpt><trkpt lat="40.9092517" lon="16.5612467"><ele>509.25</ele><time>2026-05-03T10:54:41.563Z</time></trkpt><trkpt lat="40.9092767" lon="16.5610533"><ele>508.5</ele><time>2026-05-03T10:54:42.563Z</time></trkpt><trkpt lat="40.909305" lon="16.5608617"><ele>507.75</ele><time>2026-05-03T10:54:43.563Z</time></trkpt><trkpt lat="40.9093367" lon="16.5606767"><ele>507.0</ele><time>2026-05-03T10:54:44.564Z</time></trkpt><trkpt lat="40.9093667" lon="16.5605017"><ele>507.0</ele><time>2026-05-03T10:54:45.563Z</time></trkpt><trkpt lat="40.909395" lon="16.56032"><ele>507.0</ele><time>2026-05-03T10:54:46.563Z</time></trkpt><trkpt lat="40.9094167" lon="16.5601417"><ele>507.0</ele><time>2026-05-03T10:54:47.563Z</time></trkpt><trkpt lat="40.90944" lon="16.55997"><ele>507.0</ele><time>2026-05-03T10:54:48.564Z</time></trkpt><trkpt lat="40.9094683" lon="16.5597917"><ele>507.0</ele><time>2026-05-03T10:54:49.563Z</time></trkpt><trkpt lat="40.90951" lon="16.5596033"><ele>507.0</ele><time>2026-05-03T10:54:50.563Z</time></trkpt><trkpt lat="40.9095617" lon="16.5594133"><ele>507.0</ele><time>2026-05-03T10:54:51.563Z</time></trkpt><trkpt lat="40.9096233" lon="16.5592267"><ele>507.33333333333337</ele><time>2026-05-03T10:54:52.563Z</time></trkpt><trkpt lat="40.9096883" lon="16.559045"><ele>507.6666666666667</ele><time>2026-05-03T10:54:53.563Z</time></trkpt><trkpt lat="40.9097583" lon="16.5588667"><ele>508.0</ele><time>2026-05-03T10:54:54.564Z</time></trkpt><trkpt lat="40.9098367" lon="16.5587"><ele>508.0</ele><time>2026-05-03T10:54:55.563Z</time></trkpt><trkpt lat="40.9099117" lon="16.55854"><ele>508.0</ele><time>2026-05-03T10:54:56.564Z</time></trkpt><trkpt lat="40.9099867" lon="16.55839"><ele>508.0</ele><time>2026-05-03T10:54:57.563Z</time></trkpt><trkpt lat="40.9100467" lon="16.5582383"><ele>508.0</ele><time>2026-05-03T10:54:58.563Z</time></trkpt><trkpt lat="40.91009" lon="16.558075"><ele>508.5</ele><time>2026-05-03T10:54:59.564Z</time></trkpt><trkpt lat="40.9101267" lon="16.5579167"><ele>509.0</ele><time>2026-05-03T10:55:00.563Z</time></trkpt><trkpt lat="40.91015" lon="16.5577433"><ele>509.5</ele><time>2026-05-03T10:55:01.563Z</time></trkpt><trkpt lat="40.9101633" lon="16.55757"><ele>510.0</ele><time>2026-05-03T10:55:02.564Z</time></trkpt><trkpt lat="40.9101783" lon="16.5574133"><ele>508.5</ele><time>2026-05-03T10:55:03.563Z</time></trkpt><trkpt lat="40.9101933" lon="16.5572533"><ele>507.0</ele><time>2026-05-03T10:55:04.563Z</time></trkpt><trkpt lat="40.91023" lon="16.5571033"><ele>505.5</ele><time>2026-05-03T10:55:05.563Z</time></trkpt><trkpt lat="40.9102817" lon="16.55696"><ele>504.0</ele><time>2026-05-03T10:55:06.564Z</time></trkpt><trkpt lat="40.9103483" lon="16.5568333"><ele>503.4</ele><time>2026-05-03T10:55:07.563Z</time></trkpt><trkpt lat="40.9104217" lon="16.5567267"><ele>502.79999999999995</ele><time>2026-05-03T10:55:08.563Z</time></trkpt><trkpt lat="40.9104967" lon="16.5566217"><ele>502.20000000000005</ele><time>2026-05-03T10:55:09.564Z</time></trkpt><trkpt lat="40.910585" lon="16.5565417"><ele>501.6</ele><time>2026-05-03T10:55:10.563Z</time></trkpt><trkpt lat="40.9106817" lon="16.5564717"><ele>501.0</ele><time>2026-05-03T10:55:11.564Z</time></trkpt><trkpt lat="40.9107717" lon="16.5564"><ele>501.0</ele><time>2026-05-03T10:55:12.563Z</time></trkpt><trkpt lat="40.9108533" lon="16.5563383"><ele>501.0</ele><time>2026-05-03T10:55:13.563Z</time></trkpt><trkpt lat="40.9109283" lon="16.55627"><ele>501.0</ele><time>2026-05-03T10:55:14.564Z</time></trkpt><trkpt lat="40.91099" lon="16.5561817"><ele>501.0</ele><time>2026-05-03T10:55:15.563Z</time></trkpt><trkpt lat="40.91104" lon="16.5560683"><ele>501.0</ele><time>2026-05-03T10:55:16.563Z</time></trkpt><trkpt lat="40.91109" lon="16.5559533"><ele>500.0</ele><time>2026-05-03T10:55:17.564Z</time></trkpt><trkpt lat="40.9111367" lon="16.5558517"><ele>499.0</ele><time>2026-05-03T10:55:18.563Z</time></trkpt><trkpt lat="40.9111733" lon="16.5557667"><ele>498.0</ele><time>2026-05-03T10:55:19.564Z</time></trkpt><trkpt lat="40.9112083" lon="16.555695"><ele>497.0</ele><time>2026-05-03T10:55:20.564Z</time></trkpt><trkpt lat="40.9112617" lon="16.555615"><ele>496.0</ele><time>2026-05-03T10:55:22.564Z</time></trkpt><trkpt lat="40.9113317" lon="16.5555267"><ele>495.0</ele><time>2026-05-03T10:59:35.564Z</time></trkpt><trkpt lat="40.91143" lon="16.555535"><ele>495.0</ele><time>2026-05-03T10:59:37.564Z</time></trkpt><trkpt lat="40.9114983" lon="16.5555817"><ele>495.0</ele><time>2026-05-03T10:59:38.564Z</time></trkpt><trkpt lat="40.9115783" lon="16.55564"><ele>495.0</ele><time>2026-05-03T10:59:39.564Z</time></trkpt><trkpt lat="40.9116667" lon="16.55572"><ele>495.0</ele><time>2026-05-03T10:59:40.565Z</time></trkpt><trkpt lat="40.9117667" lon="16.5558217"><ele>495.0</ele><time>2026-05-03T10:59:41.564Z</time></trkpt><trkpt lat="40.9118783" lon="16.555945"><ele>494.33333333333337</ele><time>2026-05-03T10:59:42.564Z</time></trkpt><trkpt lat="40.9119883" lon="16.5560767"><ele>493.6666666666667</ele><time>2026-05-03T10:59:43.564Z</time></trkpt><trkpt lat="40.9121067" lon="16.5562233"><ele>493.0</ele><time>2026-05-03T10:59:44.564Z</time></trkpt><trkpt lat="40.91223" lon="16.5563717"><ele>493.0</ele><time>2026-05-03T10:59:45.565Z</time></trkpt><trkpt lat="40.9123617" lon="16.556535"><ele>493.0</ele><time>2026-05-03T10:59:46.564Z</time></trkpt><trkpt lat="40.91249" lon="16.5566983"><ele>493.0</ele><time>2026-05-03T10:59:47.564Z</time></trkpt><trkpt lat="40.91262" lon="16.5568633"><ele>493.0</ele><time>2026-05-03T10:59:48.564Z</time></trkpt><trkpt lat="40.91275" lon="16.5570233"><ele>493.0</ele><time>2026-05-03T10:59:49.564Z</time></trkpt><trkpt lat="40.9128817" lon="16.5571783"><ele>493.0</ele><time>2026-05-03T10:59:50.564Z</time></trkpt><trkpt lat="40.9130033" lon="16.5573233"><ele>493.0</ele><time>2026-05-03T10:59:51.565Z</time></trkpt><trkpt lat="40.9131167" lon="16.5574617"><ele>493.0</ele><time>2026-05-03T10:59:52.565Z</time></trkpt><trkpt lat="40.91323" lon="16.5575917"><ele>493.0</ele><time>2026-05-03T10:59:53.564Z</time></trkpt><trkpt lat="40.9133567" lon="16.55772"><ele>492.33333333333337</ele><time>2026-05-03T10:59:54.565Z</time></trkpt><trkpt lat="40.9134817" lon="16.5578383"><ele>491.66666666666663</ele><time>2026-05-03T10:59:55.564Z</time></trkpt><trkpt lat="40.9136167" lon="16.5579533"><ele>491.0</ele><time>2026-05-03T10:59:56.564Z</time></trkpt><trkpt lat="40.9137667" lon="16.5580733"><ele>491.0</ele><time>2026-05-03T10:59:57.564Z</time></trkpt><trkpt lat="40.91392" lon="16.5581917"><ele>491.0</ele><time>2026-05-03T10:59:58.565Z</time></trkpt><trkpt lat="40.914075" lon="16.5583133"><ele>491.0</ele><time>2026-05-03T10:59:59.564Z</time></trkpt><trkpt lat="40.9142333" lon="16.558445"><ele>490.66666666666663</ele><time>2026-05-03T11:00:00.564Z</time></trkpt><trkpt lat="40.9143817" lon="16.558585"><ele>490.33333333333337</ele><time>2026-05-03T11:00:01.564Z</time></trkpt><trkpt lat="40.9145317" lon="16.5587183"><ele>490.0</ele><time>2026-05-03T11:00:02.565Z</time></trkpt><trkpt lat="40.9146733" lon="16.558845"><ele>490.0</ele><time>2026-05-03T11:00:03.564Z</time></trkpt><trkpt lat="40.9148167" lon="16.5589733"><ele>490.0</ele><time>2026-05-03T11:00:04.564Z</time></trkpt><trkpt lat="40.9149483" lon="16.559095"><ele>490.0</ele><time>2026-05-03T11:00:05.565Z</time></trkpt><trkpt lat="40.9150817" lon="16.5592133"><ele>489.6666666666667</ele><time>2026-05-03T11:00:06.564Z</time></trkpt><trkpt lat="40.9152183" lon="16.5593267"><ele>489.33333333333337</ele><time>2026-05-03T11:00:07.564Z</time></trkpt><trkpt lat="40.915355" lon="16.5594533"><ele>489.0</ele><time>2026-05-03T11:00:08.564Z</time></trkpt><trkpt lat="40.9154917" lon="16.5595917"><ele>489.0</ele><time>2026-05-03T11:00:09.564Z</time></trkpt><trkpt lat="40.915635" lon="16.559745"><ele>489.0</ele><time>2026-05-03T11:00:10.564Z</time></trkpt><trkpt lat="40.91578" lon="16.5599033"><ele>489.0</ele><time>2026-05-03T11:00:11.565Z</time></trkpt><trkpt lat="40.9159283" lon="16.5600633"><ele>489.0</ele><time>2026-05-03T11:00:12.564Z</time></trkpt><trkpt lat="40.91607" lon="16.5602233"><ele>489.0</ele><time>2026-05-03T11:00:13.564Z</time></trkpt><trkpt lat="40.916215" lon="16.5603817"><ele>489.0</ele><time>2026-05-03T11:00:14.564Z</time></trkpt><trkpt lat="40.9163583" lon="16.560555"><ele>488.66666666666663</ele><time>2026-05-03T11:00:15.565Z</time></trkpt><trkpt lat="40.916505" lon="16.5607317"><ele>488.3333333333333</ele><time>2026-05-03T11:00:16.564Z</time></trkpt><trkpt lat="40.91665" lon="16.5609"><ele>488.0</ele><time>2026-05-03T11:00:17.564Z</time></trkpt><trkpt lat="40.9167967" lon="16.561065"><ele>487.3333333333333</ele><time>2026-05-03T11:00:18.565Z</time></trkpt><trkpt lat="40.91694" lon="16.56123"><ele>486.66666666666663</ele><time>2026-05-03T11:00:19.564Z</time></trkpt><trkpt lat="40.9170817" lon="16.561395"><ele>486.0</ele><time>2026-05-03T11:00:20.564Z</time></trkpt><trkpt lat="40.9172317" lon="16.561565"><ele>486.0</ele><time>2026-05-03T11:00:21.564Z</time></trkpt><trkpt lat="40.9173733" lon="16.5617283"><ele>486.0</ele><time>2026-05-03T11:00:22.564Z</time></trkpt><trkpt lat="40.9175133" lon="16.5618983"><ele>486.0</ele><time>2026-05-03T11:00:23.564Z</time></trkpt><trkpt lat="40.9176533" lon="16.5620717"><ele>486.33333333333337</ele><time>2026-05-03T11:00:24.564Z</time></trkpt><trkpt lat="40.9177983" lon="16.5622467"><ele>486.6666666666667</ele><time>2026-05-03T11:00:25.565Z</time></trkpt><trkpt lat="40.9179367" lon="16.5624167"><ele>487.0</ele><time>2026-05-03T11:00:26.564Z</time></trkpt><trkpt lat="40.918065" lon="16.5626017"><ele>487.0</ele><time>2026-05-03T11:00:27.564Z</time></trkpt><trkpt lat="40.9181967" lon="16.5627983"><ele>487.0</ele><time>2026-05-03T11:00:28.565Z</time></trkpt><trkpt lat="40.9183117" lon="16.563"><ele>487.0</ele><time>2026-05-03T11:00:29.564Z</time></trkpt><trkpt lat="40.9184133" lon="16.56319"><ele>487.6666666666667</ele><time>2026-05-03T11:00:30.564Z</time></trkpt><trkpt lat="40.918505" lon="16.5633917"><ele>488.33333333333337</ele><time>2026-05-03T11:00:31.565Z</time></trkpt><trkpt lat="40.918605" lon="16.5635783"><ele>489.0</ele><time>2026-05-03T11:00:32.564Z</time></trkpt><trkpt lat="40.9186933" lon="16.563755"><ele>489.0</ele><time>2026-05-03T11:00:33.564Z</time></trkpt><trkpt lat="40.91878" lon="16.5639183"><ele>489.0</ele><time>2026-05-03T11:00:34.565Z</time></trkpt><trkpt lat="40.9188567" lon="16.5640717"><ele>489.0</ele><time>2026-05-03T11:00:35.564Z</time></trkpt><trkpt lat="40.9189083" lon="16.5642367"><ele>489.0</ele><time>2026-05-03T11:00:36.564Z</time></trkpt><trkpt lat="40.918945" lon="16.56441"><ele>489.25</ele><time>2026-05-03T11:00:37.564Z</time></trkpt><trkpt lat="40.9189717" lon="16.5645967"><ele>489.5</ele><time>2026-05-03T11:00:38.564Z</time></trkpt><trkpt lat="40.919015" lon="16.5647733"><ele>489.75</ele><time>2026-05-03T11:00:39.564Z</time></trkpt><trkpt lat="40.9190717" lon="16.5649517"><ele>490.0</ele><time>2026-05-03T11:00:40.564Z</time></trkpt><trkpt lat="40.9191267" lon="16.565125"><ele>490.0</ele><time>2026-05-03T11:00:41.565Z</time></trkpt><trkpt lat="40.9191933" lon="16.5652967"><ele>490.0</ele><time>2026-05-03T11:00:42.565Z</time></trkpt><trkpt lat="40.919265" lon="16.56547"><ele>490.0</ele><time>2026-05-03T11:00:43.564Z</time></trkpt><trkpt lat="40.9193483" lon="16.5656483"><ele>492.0</ele><time>2026-05-03T11:00:44.565Z</time></trkpt><trkpt lat="40.9194233" lon="16.56581"><ele>494.0</ele><time>2026-05-03T11:00:45.565Z</time></trkpt><trkpt lat="40.919485" lon="16.565975"><ele>496.0</ele><time>2026-05-03T11:00:46.565Z</time></trkpt><trkpt lat="40.9195433" lon="16.5661117"><ele>498.0</ele><time>2026-05-03T11:00:47.565Z</time></trkpt><trkpt lat="40.91959" lon="16.5662267"><ele>498.1666666666667</ele><time>2026-05-03T11:00:48.564Z</time></trkpt><trkpt lat="40.9196217" lon="16.5663067"><ele>498.33333333333337</ele><time>2026-05-03T11:00:49.564Z</time></trkpt><trkpt lat="40.91968" lon="16.5664117"><ele>498.5</ele><time>2026-05-03T11:00:51.565Z</time></trkpt><trkpt lat="40.9197683" lon="16.5664633"><ele>498.6666666666667</ele><time>2026-05-03T11:00:53.565Z</time></trkpt><trkpt lat="40.9198333" lon="16.566485"><ele>498.83333333333337</ele><time>2026-05-03T11:00:54.564Z</time></trkpt><trkpt lat="40.9199167" lon="16.5664967"><ele>499.0</ele><time>2026-05-03T11:00:55.564Z</time></trkpt><trkpt lat="40.920015" lon="16.5664983"><ele>499.5</ele><time>2026-05-03T11:00:56.564Z</time></trkpt><trkpt lat="40.9201283" lon="16.566505"><ele>500.0</ele><time>2026-05-03T11:00:57.565Z</time></trkpt><trkpt lat="40.92025" lon="16.5665117"><ele>500.5</ele><time>2026-05-03T11:00:58.564Z</time></trkpt><trkpt lat="40.92038" lon="16.5665267"><ele>501.0</ele><time>2026-05-03T11:00:59.564Z</time></trkpt><trkpt lat="40.9205217" lon="16.5665367"><ele>501.0</ele><time>2026-05-03T11:01:00.564Z</time></trkpt><trkpt lat="40.9206717" lon="16.5665383"><ele>501.0</ele><time>2026-05-03T11:01:01.565Z</time></trkpt><trkpt lat="40.9208267" lon="16.5665317"><ele>501.0</ele><time>2026-05-03T11:01:02.564Z</time></trkpt><trkpt lat="40.92098" lon="16.56652"><ele>500.5</ele><time>2026-05-03T11:01:03.564Z</time></trkpt><trkpt lat="40.9211167" lon="16.5665067"><ele>500.0</ele><time>2026-05-03T11:01:04.564Z</time></trkpt><trkpt lat="40.9212433" lon="16.5664933"><ele>499.5</ele><time>2026-05-03T11:01:05.564Z</time></trkpt><trkpt lat="40.9213583" lon="16.5664833"><ele>499.0</ele><time>2026-05-03T11:01:06.564Z</time></trkpt><trkpt lat="40.921465" lon="16.5664717"><ele>499.0</ele><time>2026-05-03T11:01:07.564Z</time></trkpt><trkpt lat="40.921585" lon="16.56646"><ele>499.0</ele><time>2026-05-03T11:01:08.564Z</time></trkpt><trkpt lat="40.921695" lon="16.5664533"><ele>499.0</ele><time>2026-05-03T11:01:09.564Z</time></trkpt><trkpt lat="40.9217867" lon="16.5664467"><ele>499.0</ele><time>2026-05-03T11:01:10.564Z</time></trkpt><trkpt lat="40.9218517" lon="16.5664417"><ele>499.0</ele><time>2026-05-03T11:01:11.565Z</time></trkpt><trkpt lat="40.9219533" lon="16.56639"><ele>498.6666666666667</ele><time>2026-05-03T11:01:13.564Z</time></trkpt><trkpt lat="40.9219967" lon="16.5663283"><ele>498.33333333333337</ele><time>2026-05-03T11:01:14.564Z</time></trkpt><trkpt lat="40.9220417" lon="16.5662433"><ele>498.0</ele><time>2026-05-03T11:01:15.565Z</time></trkpt><trkpt lat="40.9220717" lon="16.5661317"><ele>497.66666666666663</ele><time>2026-05-03T11:01:16.564Z</time></trkpt><trkpt lat="40.9220967" lon="16.5660133"><ele>497.3333333333333</ele><time>2026-05-03T11:01:17.564Z</time></trkpt><trkpt lat="40.9221217" lon="16.565875"><ele>497.0</ele><time>2026-05-03T11:01:18.564Z</time></trkpt><trkpt lat="40.9221433" lon="16.5657167"><ele>497.0</ele><time>2026-05-03T11:01:19.564Z</time></trkpt><trkpt lat="40.9221717" lon="16.56555"><ele>497.0</ele><time>2026-05-03T11:01:20.565Z</time></trkpt><trkpt lat="40.9222067" lon="16.5653633"><ele>497.0</ele><time>2026-05-03T11:01:21.565Z</time></trkpt><trkpt lat="40.9222367" lon="16.5651667"><ele>497.0</ele><time>2026-05-03T11:01:22.564Z</time></trkpt><trkpt lat="40.9222617" lon="16.5649583"><ele>497.66666666666663</ele><time>2026-05-03T11:01:23.565Z</time></trkpt><trkpt lat="40.9222883" lon="16.5647417"><ele>498.33333333333337</ele><time>2026-05-03T11:01:24.565Z</time></trkpt><trkpt lat="40.9223133" lon="16.5645167"><ele>499.0</ele><time>2026-05-03T11:01:25.564Z</time></trkpt><trkpt lat="40.9223433" lon="16.5642917"><ele>499.0</ele><time>2026-05-03T11:01:26.565Z</time></trkpt><trkpt lat="40.9223667" lon="16.5640667"><ele>499.0</ele><time>2026-05-03T11:01:27.564Z</time></trkpt><trkpt lat="40.9223967" lon="16.5638433"><ele>499.0</ele><time>2026-05-03T11:01:28.565Z</time></trkpt><trkpt lat="40.922425" lon="16.563615"><ele>499.6666666666667</ele><time>2026-05-03T11:01:29.564Z</time></trkpt><trkpt lat="40.922455" lon="16.5633917"><ele>500.33333333333337</ele><time>2026-05-03T11:01:30.564Z</time></trkpt><trkpt lat="40.92248" lon="16.5631667"><ele>501.0</ele><time>2026-05-03T11:01:31.564Z</time></trkpt><trkpt lat="40.9225117" lon="16.562955"><ele>501.33333333333337</ele><time>2026-05-03T11:01:32.564Z</time></trkpt><trkpt lat="40.92254" lon="16.56275"><ele>501.6666666666667</ele><time>2026-05-03T11:01:33.564Z</time></trkpt><trkpt lat="40.9225667" lon="16.5625567"><ele>502.0</ele><time>2026-05-03T11:01:34.564Z</time></trkpt><trkpt lat="40.9225933" lon="16.5623633"><ele>502.0</ele><time>2026-05-03T11:01:35.564Z</time></trkpt><trkpt lat="40.9226167" lon="16.562175"><ele>502.0</ele><time>2026-05-03T11:01:36.564Z</time></trkpt><trkpt lat="40.922635" lon="16.5619917"><ele>502.0</ele><time>2026-05-03T11:01:37.564Z</time></trkpt><trkpt lat="40.92266" lon="16.5617983"><ele>502.0</ele><time>2026-05-03T11:01:38.564Z</time></trkpt><trkpt lat="40.922695" lon="16.5616017"><ele>502.33333333333337</ele><time>2026-05-03T11:01:39.565Z</time></trkpt><trkpt lat="40.92272" lon="16.561405"><ele>502.66666666666663</ele><time>2026-05-03T11:01:40.565Z</time></trkpt><trkpt lat="40.92274" lon="16.5612"><ele>503.0</ele><time>2026-05-03T11:01:41.565Z</time></trkpt><trkpt lat="40.92276" lon="16.5609967"><ele>503.0</ele><time>2026-05-03T11:01:42.564Z</time></trkpt><trkpt lat="40.9227883" lon="16.5608017"><ele>503.0</ele><time>2026-05-03T11:01:43.564Z</time></trkpt><trkpt lat="40.9228083" lon="16.5606267"><ele>503.0</ele><time>2026-05-03T11:01:44.564Z</time></trkpt><trkpt lat="40.9228267" lon="16.5604517"><ele>503.0</ele><time>2026-05-03T11:01:45.564Z</time></trkpt><trkpt lat="40.9228483" lon="16.5602783"><ele>503.25</ele><time>2026-05-03T11:01:46.564Z</time></trkpt><trkpt lat="40.92287" lon="16.5601"><ele>503.5</ele><time>2026-05-03T11:01:47.564Z</time></trkpt><trkpt lat="40.9228917" lon="16.5599317"><ele>503.75</ele><time>2026-05-03T11:01:48.565Z</time></trkpt><trkpt lat="40.9229083" lon="16.5597717"><ele>504.0</ele><time>2026-05-03T11:01:49.565Z</time></trkpt><trkpt lat="40.9229183" lon="16.5596183"><ele>504.2</ele><time>2026-05-03T11:01:50.564Z</time></trkpt><trkpt lat="40.9229267" lon="16.5594783"><ele>504.4</ele><time>2026-05-03T11:01:51.564Z</time></trkpt><trkpt lat="40.9229417" lon="16.5593433"><ele>504.6</ele><time>2026-05-03T11:01:52.564Z</time></trkpt><trkpt lat="40.9229583" lon="16.55922"><ele>504.8</ele><time>2026-05-03T11:01:53.564Z</time></trkpt><trkpt lat="40.9229817" lon="16.55909"><ele>505.0</ele><time>2026-05-03T11:01:54.564Z</time></trkpt><trkpt lat="40.9230067" lon="16.5589483"><ele>505.0</ele><time>2026-05-03T11:01:55.564Z</time></trkpt><trkpt lat="40.9230217" lon="16.5587883"><ele>505.0</ele><time>2026-05-03T11:01:56.564Z</time></trkpt><trkpt lat="40.92304" lon="16.5586167"><ele>505.0</ele><time>2026-05-03T11:01:57.565Z</time></trkpt><trkpt lat="40.9230517" lon="16.558435"><ele>505.0</ele><time>2026-05-03T11:01:58.564Z</time></trkpt><trkpt lat="40.9230633" lon="16.55825"><ele>505.6666666666667</ele><time>2026-05-03T11:01:59.565Z</time></trkpt><trkpt lat="40.9230767" lon="16.5580567"><ele>506.33333333333337</ele><time>2026-05-03T11:02:00.564Z</time></trkpt><trkpt lat="40.9230833" lon="16.55785"><ele>507.0</ele><time>2026-05-03T11:02:01.565Z</time></trkpt><trkpt lat="40.9230967" lon="16.5576433"><ele>507.33333333333337</ele><time>2026-05-03T11:02:02.564Z</time></trkpt><trkpt lat="40.9231133" lon="16.5574367"><ele>507.6666666666667</ele><time>2026-05-03T11:02:03.565Z</time></trkpt><trkpt lat="40.9231233" lon="16.55723"><ele>508.0</ele><time>2026-05-03T11:02:04.564Z</time></trkpt><trkpt lat="40.9231333" lon="16.55703"><ele>508.0</ele><time>2026-05-03T11:02:05.564Z</time></trkpt><trkpt lat="40.9231383" lon="16.556835"><ele>508.0</ele><time>2026-05-03T11:02:06.565Z</time></trkpt><trkpt lat="40.92316" lon="16.55664"><ele>508.0</ele><time>2026-05-03T11:02:07.565Z</time></trkpt><trkpt lat="40.92317" lon="16.5564533"><ele>508.0</ele><time>2026-05-03T11:02:08.564Z</time></trkpt><trkpt lat="40.92318" lon="16.5562617"><ele>508.0</ele><time>2026-05-03T11:02:09.564Z</time></trkpt><trkpt lat="40.92319" lon="16.5560717"><ele>508.0</ele><time>2026-05-03T11:02:10.564Z</time></trkpt><trkpt lat="40.9232017" lon="16.55589"><ele>508.0</ele><time>2026-05-03T11:02:11.565Z</time></trkpt><trkpt lat="40.9232067" lon="16.55573"><ele>508.0</ele><time>2026-05-03T11:02:12.564Z</time></trkpt><trkpt lat="40.9232067" lon="16.5555783"><ele>508.0</ele><time>2026-05-03T11:02:13.564Z</time></trkpt><trkpt lat="40.9232067" lon="16.5554267"><ele>508.0</ele><time>2026-05-03T11:02:14.565Z</time></trkpt><trkpt lat="40.9232167" lon="16.555275"><ele>508.0</ele><time>2026-05-03T11:02:15.564Z</time></trkpt><trkpt lat="40.92323" lon="16.555115"><ele>508.0</ele><time>2026-05-03T11:02:16.564Z</time></trkpt><trkpt lat="40.9232383" lon="16.5549433"><ele>508.0</ele><time>2026-05-03T11:02:17.565Z</time></trkpt><trkpt lat="40.923255" lon="16.5547717"><ele>508.0</ele><time>2026-05-03T11:02:18.565Z</time></trkpt><trkpt lat="40.9232883" lon="16.5545917"><ele>508.0</ele><time>2026-05-03T11:02:19.564Z</time></trkpt><trkpt lat="40.92332" lon="16.5544033"><ele>508.0</ele><time>2026-05-03T11:02:20.564Z</time></trkpt><trkpt lat="40.923355" lon="16.5542117"><ele>507.6666666666667</ele><time>2026-05-03T11:02:21.564Z</time></trkpt><trkpt lat="40.923395" lon="16.55403"><ele>507.33333333333337</ele><time>2026-05-03T11:02:22.564Z</time></trkpt><trkpt lat="40.9234383" lon="16.5538433"><ele>507.0</ele><time>2026-05-03T11:02:23.564Z</time></trkpt><trkpt lat="40.923485" lon="16.5536367"><ele>507.0</ele><time>2026-05-03T11:02:24.565Z</time></trkpt><trkpt lat="40.9235367" lon="16.5534283"><ele>507.0</ele><time>2026-05-03T11:02:25.564Z</time></trkpt><trkpt lat="40.92359" lon="16.5532233"><ele>507.0</ele><time>2026-05-03T11:02:26.564Z</time></trkpt><trkpt lat="40.9236433" lon="16.5530083"><ele>507.0</ele><time>2026-05-03T11:02:27.564Z</time></trkpt><trkpt lat="40.923695" lon="16.55279"><ele>507.0</ele><time>2026-05-03T11:02:28.564Z</time></trkpt><trkpt lat="40.9237417" lon="16.5525783"><ele>507.0</ele><time>2026-05-03T11:02:29.564Z</time></trkpt><trkpt lat="40.9237917" lon="16.5523783"><ele>507.0</ele><time>2026-05-03T11:02:30.564Z</time></trkpt><trkpt lat="40.923835" lon="16.5521783"><ele>507.0</ele><time>2026-05-03T11:02:31.564Z</time></trkpt><trkpt lat="40.92388" lon="16.5519833"><ele>507.0</ele><time>2026-05-03T11:02:32.564Z</time></trkpt><trkpt lat="40.9239217" lon="16.5517883"><ele>506.66666666666663</ele><time>2026-05-03T11:02:33.564Z</time></trkpt><trkpt lat="40.923965" lon="16.551605"><ele>506.3333333333333</ele><time>2026-05-03T11:02:34.564Z</time></trkpt><trkpt lat="40.9239983" lon="16.5514017"><ele>506.0</ele><time>2026-05-03T11:02:35.564Z</time></trkpt><trkpt lat="40.924015" lon="16.551195"><ele>505.3333333333333</ele><time>2026-05-03T11:02:36.565Z</time></trkpt><trkpt lat="40.924025" lon="16.5509783"><ele>504.66666666666663</ele><time>2026-05-03T11:02:37.564Z</time></trkpt><trkpt lat="40.9240433" lon="16.5507533"><ele>504.0</ele><time>2026-05-03T11:02:38.564Z</time></trkpt><trkpt lat="40.9240533" lon="16.550515"><ele>504.0</ele><time>2026-05-03T11:02:39.565Z</time></trkpt><trkpt lat="40.924065" lon="16.55029"><ele>504.0</ele><time>2026-05-03T11:02:40.564Z</time></trkpt><trkpt lat="40.9240683" lon="16.5500717"><ele>504.0</ele><time>2026-05-03T11:02:41.564Z</time></trkpt><trkpt lat="40.9240833" lon="16.5498667"><ele>504.0</ele><time>2026-05-03T11:02:42.565Z</time></trkpt><trkpt lat="40.924095" lon="16.5496767"><ele>504.0</ele><time>2026-05-03T11:02:43.564Z</time></trkpt><trkpt lat="40.9241033" lon="16.549495"><ele>504.0</ele><time>2026-05-03T11:02:44.564Z</time></trkpt><trkpt lat="40.924115" lon="16.54933"><ele>504.0</ele><time>2026-05-03T11:02:45.564Z</time></trkpt><trkpt lat="40.924125" lon="16.5491633"><ele>503.75</ele><time>2026-05-03T11:02:46.565Z</time></trkpt><trkpt lat="40.9241583" lon="16.5490017"><ele>503.5</ele><time>2026-05-03T11:02:47.564Z</time></trkpt><trkpt lat="40.924195" lon="16.54884"><ele>503.25</ele><time>2026-05-03T11:02:48.564Z</time></trkpt><trkpt lat="40.9242433" lon="16.5486767"><ele>503.0</ele><time>2026-05-03T11:02:49.564Z</time></trkpt><trkpt lat="40.92429" lon="16.5485117"><ele>502.25</ele><time>2026-05-03T11:02:50.564Z</time></trkpt><trkpt lat="40.924345" lon="16.5483367"><ele>501.5</ele><time>2026-05-03T11:02:51.564Z</time></trkpt><trkpt lat="40.9244017" lon="16.5481567"><ele>500.75</ele><time>2026-05-03T11:02:52.564Z</time></trkpt><trkpt lat="40.9244567" lon="16.5479783"><ele>500.0</ele><time>2026-05-03T11:02:53.564Z</time></trkpt><trkpt lat="40.92451" lon="16.5478117"><ele>499.25</ele><time>2026-05-03T11:02:54.564Z</time></trkpt><trkpt lat="40.9245633" lon="16.547655"><ele>498.5</ele><time>2026-05-03T11:02:55.565Z</time></trkpt><trkpt lat="40.92461" lon="16.54751"><ele>497.75</ele><time>2026-05-03T11:02:56.565Z</time></trkpt><trkpt lat="40.92466" lon="16.5473633"><ele>497.0</ele><time>2026-05-03T11:02:57.565Z</time></trkpt><trkpt lat="40.9247183" lon="16.5472183"><ele>497.0</ele><time>2026-05-03T11:02:58.564Z</time></trkpt><trkpt lat="40.9247733" lon="16.5470833"><ele>497.00000000000006</ele><time>2026-05-03T11:02:59.564Z</time></trkpt><trkpt lat="40.9248217" lon="16.5469633"><ele>497.00000000000006</ele><time>2026-05-03T11:03:00.564Z</time></trkpt><trkpt lat="40.9248733" lon="16.5468517"><ele>497.0</ele><time>2026-05-03T11:03:01.564Z</time></trkpt><trkpt lat="40.9249217" lon="16.546745"><ele>497.0</ele><time>2026-05-03T11:03:02.564Z</time></trkpt><trkpt lat="40.9249817" lon="16.54665"><ele>497.0</ele><time>2026-05-03T11:03:03.564Z</time></trkpt><trkpt lat="40.925045" lon="16.5465517"><ele>497.00000000000006</ele><time>2026-05-03T11:03:04.564Z</time></trkpt><trkpt lat="40.9251083" lon="16.5464517"><ele>497.00000000000006</ele><time>2026-05-03T11:03:05.564Z</time></trkpt><trkpt lat="40.925165" lon="16.5463483"><ele>497.0</ele><time>2026-05-03T11:03:06.564Z</time></trkpt><trkpt lat="40.92522" lon="16.5462267"><ele>497.0</ele><time>2026-05-03T11:03:07.564Z</time></trkpt><trkpt lat="40.9252717" lon="16.546095"><ele>496.20000000000005</ele><time>2026-05-03T11:03:08.564Z</time></trkpt><trkpt lat="40.92533" lon="16.545965"><ele>495.40000000000003</ele><time>2026-05-03T11:03:09.564Z</time></trkpt><trkpt lat="40.9253817" lon="16.5458383"><ele>494.59999999999997</ele><time>2026-05-03T11:03:10.564Z</time></trkpt><trkpt lat="40.92543" lon="16.545725"><ele>493.79999999999995</ele><time>2026-05-03T11:03:11.565Z</time></trkpt><trkpt lat="40.9254667" lon="16.545615"><ele>493.0</ele><time>2026-05-03T11:03:12.564Z</time></trkpt><trkpt lat="40.92551" lon="16.545515"><ele>493.0</ele><time>2026-05-03T11:03:13.564Z</time></trkpt><trkpt lat="40.9255817" lon="16.5454183"><ele>492.99999999999994</ele><time>2026-05-03T11:03:14.564Z</time></trkpt><trkpt lat="40.9256683" lon="16.54535"><ele>492.99999999999994</ele><time>2026-05-03T11:03:15.564Z</time></trkpt><trkpt lat="40.9257667" lon="16.5452667"><ele>493.0</ele><time>2026-05-03T11:03:16.564Z</time></trkpt><trkpt lat="40.9258633" lon="16.5451883"><ele>493.0</ele><time>2026-05-03T11:03:17.564Z</time></trkpt><trkpt lat="40.92595" lon="16.5451017"><ele>493.25</ele><time>2026-05-03T11:03:18.564Z</time></trkpt><trkpt lat="40.9260367" lon="16.5449967"><ele>493.5</ele><time>2026-05-03T11:03:19.564Z</time></trkpt><trkpt lat="40.9261417" lon="16.544885"><ele>493.75</ele><time>2026-05-03T11:03:20.564Z</time></trkpt><trkpt lat="40.9262583" lon="16.54479"><ele>494.0</ele><time>2026-05-03T11:03:21.564Z</time></trkpt><trkpt lat="40.926365" lon="16.5447117"><ele>494.0</ele><time>2026-05-03T11:03:22.564Z</time></trkpt><trkpt lat="40.9264733" lon="16.5446433"><ele>494.0</ele><time>2026-05-03T11:03:23.565Z</time></trkpt><trkpt lat="40.92656" lon="16.5445833"><ele>494.0</ele><time>2026-05-03T11:03:24.565Z</time></trkpt><trkpt lat="40.9266533" lon="16.54454"><ele>494.0</ele><time>2026-05-03T11:03:25.564Z</time></trkpt><trkpt lat="40.9267533" lon="16.544525"><ele>494.0</ele><time>2026-05-03T11:03:26.564Z</time></trkpt><trkpt lat="40.9268583" lon="16.5445283"><ele>494.5</ele><time>2026-05-03T11:03:27.564Z</time></trkpt><trkpt lat="40.9269667" lon="16.54452"><ele>495.0</ele><time>2026-05-03T11:03:28.564Z</time></trkpt><trkpt lat="40.927085" lon="16.5444817"><ele>495.5</ele><time>2026-05-03T11:03:29.564Z</time></trkpt><trkpt lat="40.9272083" lon="16.5444433"><ele>496.0</ele><time>2026-05-03T11:03:30.564Z</time></trkpt><trkpt lat="40.9273183" lon="16.5444233"><ele>496.0</ele><time>2026-05-03T11:03:31.564Z</time></trkpt><trkpt lat="40.9274233" lon="16.5444017"><ele>496.0</ele><time>2026-05-03T11:03:32.564Z</time></trkpt><trkpt lat="40.9275117" lon="16.54437"><ele>496.0</ele><time>2026-05-03T11:03:33.564Z</time></trkpt><trkpt lat="40.92761" lon="16.5443317"><ele>496.0</ele><time>2026-05-03T11:03:34.564Z</time></trkpt><trkpt lat="40.9277217" lon="16.5443067"><ele>496.0</ele><time>2026-05-03T11:03:35.565Z</time></trkpt><trkpt lat="40.9278533" lon="16.5442983"><ele>496.0</ele><time>2026-05-03T11:03:36.564Z</time></trkpt><trkpt lat="40.92798" lon="16.5442983"><ele>496.0</ele><time>2026-05-03T11:03:37.564Z</time></trkpt><trkpt lat="40.9281" lon="16.5442867"><ele>496.0</ele><time>2026-05-03T11:03:38.564Z</time></trkpt><trkpt lat="40.9282033" lon="16.54428"><ele>496.0</ele><time>2026-05-03T11:03:39.564Z</time></trkpt><trkpt lat="40.928285" lon="16.5442783"><ele>496.0</ele><time>2026-05-03T11:03:40.564Z</time></trkpt><trkpt lat="40.928355" lon="16.5442667"><ele>496.00000000000006</ele><time>2026-05-03T11:03:41.564Z</time></trkpt><trkpt lat="40.9284217" lon="16.544235"><ele>496.0</ele><time>2026-05-03T11:03:42.564Z</time></trkpt><trkpt lat="40.928485" lon="16.54417"><ele>496.0</ele><time>2026-05-03T11:03:43.564Z</time></trkpt><trkpt lat="40.9285433" lon="16.54409"><ele>496.0</ele><time>2026-05-03T11:03:44.564Z</time></trkpt><trkpt lat="40.9286133" lon="16.544015"><ele>496.00000000000006</ele><time>2026-05-03T11:03:45.564Z</time></trkpt><trkpt lat="40.9286917" lon="16.5439633"><ele>496.0</ele><time>2026-05-03T11:03:46.565Z</time></trkpt><trkpt lat="40.9287867" lon="16.54393"><ele>496.0</ele><time>2026-05-03T11:03:47.565Z</time></trkpt><trkpt lat="40.9288783" lon="16.5438883"><ele>496.0</ele><time>2026-05-03T11:03:48.564Z</time></trkpt><trkpt lat="40.9289517" lon="16.5438167"><ele>496.0</ele><time>2026-05-03T11:03:49.564Z</time></trkpt><trkpt lat="40.9290167" lon="16.543725"><ele>496.0</ele><time>2026-05-03T11:03:50.564Z</time></trkpt><trkpt lat="40.9290867" lon="16.5436467"><ele>496.0</ele><time>2026-05-03T11:03:51.564Z</time></trkpt><trkpt lat="40.9291717" lon="16.5435933"><ele>496.0</ele><time>2026-05-03T11:03:52.565Z</time></trkpt><trkpt lat="40.9292633" lon="16.5435367"><ele>496.0</ele><time>2026-05-03T11:03:53.564Z</time></trkpt><trkpt lat="40.9293467" lon="16.543465"><ele>496.0</ele><time>2026-05-03T11:03:54.564Z</time></trkpt><trkpt lat="40.929425" lon="16.54337"><ele>496.0</ele><time>2026-05-03T11:03:55.564Z</time></trkpt><trkpt lat="40.929495" lon="16.5432467"><ele>496.0</ele><time>2026-05-03T11:03:56.564Z</time></trkpt><trkpt lat="40.929555" lon="16.5431283"><ele>496.0</ele><time>2026-05-03T11:03:57.564Z</time></trkpt><trkpt lat="40.929605" lon="16.5430167"><ele>496.0</ele><time>2026-05-03T11:03:58.565Z</time></trkpt><trkpt lat="40.929645" lon="16.5428883"><ele>496.0</ele><time>2026-05-03T11:03:59.564Z</time></trkpt><trkpt lat="40.92967" lon="16.5427583"><ele>496.0</ele><time>2026-05-03T11:04:00.565Z</time></trkpt><trkpt lat="40.9296783" lon="16.542605"><ele>496.0</ele><time>2026-05-03T11:04:01.564Z</time></trkpt><trkpt lat="40.92969" lon="16.5424483"><ele>496.25</ele><time>2026-05-03T11:04:02.565Z</time></trkpt><trkpt lat="40.92971" lon="16.5422933"><ele>496.5</ele><time>2026-05-03T11:04:03.564Z</time></trkpt><trkpt lat="40.9297383" lon="16.5421417"><ele>496.75</ele><time>2026-05-03T11:04:04.564Z</time></trkpt><trkpt lat="40.9297883" lon="16.5419817"><ele>497.0</ele><time>2026-05-03T11:04:05.564Z</time></trkpt><trkpt lat="40.92984" lon="16.5418217"><ele>497.25</ele><time>2026-05-03T11:04:06.564Z</time></trkpt><trkpt lat="40.9298967" lon="16.5416533"><ele>497.5</ele><time>2026-05-03T11:04:07.565Z</time></trkpt><trkpt lat="40.9299517" lon="16.54148"><ele>497.75</ele><time>2026-05-03T11:04:08.565Z</time></trkpt><trkpt lat="40.9300017" lon="16.5413283"><ele>498.0</ele><time>2026-05-03T11:04:09.564Z</time></trkpt><trkpt lat="40.9300433" lon="16.541195"><ele>497.2</ele><time>2026-05-03T11:04:10.564Z</time></trkpt><trkpt lat="40.9300767" lon="16.5410817"><ele>496.4</ele><time>2026-05-03T11:04:11.564Z</time></trkpt><trkpt lat="40.9301033" lon="16.5409667"><ele>495.59999999999997</ele><time>2026-05-03T11:04:12.564Z</time></trkpt><trkpt lat="40.9301283" lon="16.5408467"><ele>494.79999999999995</ele><time>2026-05-03T11:04:13.564Z</time></trkpt><trkpt lat="40.9301567" lon="16.5407283"><ele>494.0</ele><time>2026-05-03T11:04:14.565Z</time></trkpt><trkpt lat="40.930185" lon="16.5406067"><ele>494.0</ele><time>2026-05-03T11:04:15.564Z</time></trkpt><trkpt lat="40.9302317" lon="16.5404867"><ele>494.0</ele><time>2026-05-03T11:04:16.564Z</time></trkpt><trkpt lat="40.9302783" lon="16.5403467"><ele>494.0</ele><time>2026-05-03T11:04:17.564Z</time></trkpt><trkpt lat="40.9303317" lon="16.5402117"><ele>494.0</ele><time>2026-05-03T11:04:18.564Z</time></trkpt><trkpt lat="40.9303767" lon="16.5400617"><ele>494.4</ele><time>2026-05-03T11:04:19.565Z</time></trkpt><trkpt lat="40.9304217" lon="16.539905"><ele>494.79999999999995</ele><time>2026-05-03T11:04:20.565Z</time></trkpt><trkpt lat="40.930455" lon="16.539755"><ele>495.20000000000005</ele><time>2026-05-03T11:04:21.564Z</time></trkpt><trkpt lat="40.9304967" lon="16.5396333"><ele>495.6</ele><time>2026-05-03T11:04:22.565Z</time></trkpt><trkpt lat="40.9305417" lon="16.5395267"><ele>496.0</ele><time>2026-05-03T11:04:23.564Z</time></trkpt><trkpt lat="40.93058" lon="16.5394267"><ele>496.4</ele><time>2026-05-03T11:04:24.564Z</time></trkpt><trkpt lat="40.9306133" lon="16.53931"><ele>496.8</ele><time>2026-05-03T11:04:25.565Z</time></trkpt><trkpt lat="40.9306417" lon="16.5391867"><ele>497.19999999999993</ele><time>2026-05-03T11:04:26.564Z</time></trkpt><trkpt lat="40.9306667" lon="16.5390483"><ele>497.59999999999997</ele><time>2026-05-03T11:04:27.564Z</time></trkpt><trkpt lat="40.9307017" lon="16.538915"><ele>498.0</ele><time>2026-05-03T11:04:28.564Z</time></trkpt><trkpt lat="40.9307383" lon="16.5387683"><ele>498.1666666666667</ele><time>2026-05-03T11:04:29.564Z</time></trkpt><trkpt lat="40.9307683" lon="16.53864"><ele>498.33333333333337</ele><time>2026-05-03T11:04:30.565Z</time></trkpt><trkpt lat="40.9308017" lon="16.53853"><ele>498.5</ele><time>2026-05-03T11:04:31.564Z</time></trkpt><trkpt lat="40.9308333" lon="16.53843"><ele>498.6666666666667</ele><time>2026-05-03T11:04:32.564Z</time></trkpt><trkpt lat="40.9308867" lon="16.538345"><ele>498.83333333333337</ele><time>2026-05-03T11:04:33.564Z</time></trkpt><trkpt lat="40.930955" lon="16.5382783"><ele>499.0</ele><time>2026-05-03T11:04:34.565Z</time></trkpt><trkpt lat="40.9310383" lon="16.5382183"><ele>499.2</ele><time>2026-05-03T11:04:35.565Z</time></trkpt><trkpt lat="40.9311217" lon="16.5381333"><ele>499.4</ele><time>2026-05-03T11:04:36.564Z</time></trkpt><trkpt lat="40.9312083" lon="16.53803"><ele>499.6</ele><time>2026-05-03T11:04:37.565Z</time></trkpt><trkpt lat="40.9312833" lon="16.5379367"><ele>499.8</ele><time>2026-05-03T11:04:38.564Z</time></trkpt><trkpt lat="40.9313833" lon="16.5378433"><ele>500.0</ele><time>2026-05-03T11:04:39.565Z</time></trkpt><trkpt lat="40.9314883" lon="16.53775"><ele>500.0</ele><time>2026-05-03T11:04:40.564Z</time></trkpt><trkpt lat="40.93159" lon="16.5376617"><ele>500.0</ele><time>2026-05-03T11:04:41.564Z</time></trkpt><trkpt lat="40.9316833" lon="16.537585"><ele>500.0</ele><time>2026-05-03T11:04:42.565Z</time></trkpt><trkpt lat="40.931775" lon="16.537515"><ele>500.0</ele><time>2026-05-03T11:04:43.564Z</time></trkpt><trkpt lat="40.9318733" lon="16.53745"><ele>500.0</ele><time>2026-05-03T11:04:44.564Z</time></trkpt><trkpt lat="40.9319667" lon="16.5373833"><ele>499.8333333333333</ele><time>2026-05-03T11:04:45.564Z</time></trkpt><trkpt lat="40.9320467" lon="16.5373183"><ele>499.66666666666663</ele><time>2026-05-03T11:04:46.565Z</time></trkpt><trkpt lat="40.9321133" lon="16.537255"><ele>499.5</ele><time>2026-05-03T11:04:47.564Z</time></trkpt><trkpt lat="40.93217" lon="16.5372067"><ele>499.33333333333337</ele><time>2026-05-03T11:04:48.564Z</time></trkpt><trkpt lat="40.9322367" lon="16.5371517"><ele>499.1666666666667</ele><time>2026-05-03T11:04:50.564Z</time></trkpt><trkpt lat="40.932175" lon="16.537045"><ele>499.0</ele><time>2026-05-03T11:05:05.565Z</time></trkpt><trkpt lat="40.9321267" lon="16.536985"><ele>499.4</ele><time>2026-05-03T11:05:07.564Z</time></trkpt><trkpt lat="40.9320733" lon="16.536915"><ele>499.79999999999995</ele><time>2026-05-03T11:05:21.564Z</time></trkpt><trkpt lat="40.93202" lon="16.5367883"><ele>500.20000000000005</ele><time>2026-05-03T11:05:23.564Z</time></trkpt><trkpt lat="40.93196" lon="16.5366617"><ele>500.6</ele><time>2026-05-03T11:05:25.564Z</time></trkpt><trkpt lat="40.931885" lon="16.53656"><ele>501.0</ele><time>2026-05-03T11:05:27.564Z</time></trkpt><trkpt lat="40.9317967" lon="16.5364817"><ele>501.0</ele><time>2026-05-03T11:05:29.565Z</time></trkpt><trkpt lat="40.931685" lon="16.5363933"><ele>501.0</ele><time>2026-05-03T11:05:31.564Z</time></trkpt><trkpt lat="40.9316167" lon="16.536345"><ele>501.0</ele><time>2026-05-03T11:05:32.564Z</time></trkpt><trkpt lat="40.931545" lon="16.5362967"><ele>501.0</ele><time>2026-05-03T11:05:33.564Z</time></trkpt><trkpt lat="40.9314733" lon="16.53625"><ele>501.0</ele><time>2026-05-03T11:05:34.564Z</time></trkpt><trkpt lat="40.9314167" lon="16.53621"><ele>501.0</ele><time>2026-05-03T11:05:35.565Z</time></trkpt><trkpt lat="40.931365" lon="16.53616"><ele>501.1666666666667</ele><time>2026-05-03T11:05:36.564Z</time></trkpt><trkpt lat="40.93131" lon="16.5361017"><ele>501.33333333333337</ele><time>2026-05-03T11:05:37.564Z</time></trkpt><trkpt lat="40.931245" lon="16.5360467"><ele>501.5</ele><time>2026-05-03T11:05:38.564Z</time></trkpt><trkpt lat="40.9311717" lon="16.53599"><ele>501.6666666666667</ele><time>2026-05-03T11:05:39.564Z</time></trkpt><trkpt lat="40.9311017" lon="16.5359333"><ele>501.83333333333337</ele><time>2026-05-03T11:05:40.564Z</time></trkpt><trkpt lat="40.931035" lon="16.535875"><ele>502.0</ele><time>2026-05-03T11:05:41.564Z</time></trkpt><trkpt lat="40.930975" lon="16.535825"><ele>502.00000000000006</ele><time>2026-05-03T11:05:42.564Z</time></trkpt><trkpt lat="40.9309067" lon="16.535765"><ele>502.0</ele><time>2026-05-03T11:05:43.564Z</time></trkpt><trkpt lat="40.9308383" lon="16.5357083"><ele>502.0</ele><time>2026-05-03T11:05:44.564Z</time></trkpt><trkpt lat="40.9307733" lon="16.5356367"><ele>502.0</ele><time>2026-05-03T11:05:45.564Z</time></trkpt><trkpt lat="40.9307133" lon="16.5355717"><ele>502.00000000000006</ele><time>2026-05-03T11:05:46.564Z</time></trkpt><trkpt lat="40.9306483" lon="16.5355167"><ele>502.0</ele><time>2026-05-03T11:05:47.565Z</time></trkpt><trkpt lat="40.9305867" lon="16.5354717"><ele>502.00000000000006</ele><time>2026-05-03T11:05:48.565Z</time></trkpt><trkpt lat="40.9305233" lon="16.5354083"><ele>502.0</ele><time>2026-05-03T11:05:49.564Z</time></trkpt><trkpt lat="40.9304583" lon="16.5353317"><ele>502.0</ele><time>2026-05-03T11:05:50.564Z</time></trkpt><trkpt lat="40.9303883" lon="16.5352517"><ele>502.0</ele><time>2026-05-03T11:05:51.564Z</time></trkpt><trkpt lat="40.93032" lon="16.5351717"><ele>502.00000000000006</ele><time>2026-05-03T11:05:52.564Z</time></trkpt><trkpt lat="40.9302567" lon="16.5350867"><ele>502.0</ele><time>2026-05-03T11:05:53.565Z</time></trkpt><trkpt lat="40.9301967" lon="16.5349983"><ele>502.1666666666667</ele><time>2026-05-03T11:05:54.564Z</time></trkpt><trkpt lat="40.9301433" lon="16.5349"><ele>502.33333333333337</ele><time>2026-05-03T11:05:55.564Z</time></trkpt><trkpt lat="40.9300917" lon="16.5347933"><ele>502.5</ele><time>2026-05-03T11:05:56.564Z</time></trkpt><trkpt lat="40.9300383" lon="16.5346967"><ele>502.66666666666663</ele><time>2026-05-03T11:05:57.565Z</time></trkpt><trkpt lat="40.929985" lon="16.5346017"><ele>502.8333333333333</ele><time>2026-05-03T11:05:58.565Z</time></trkpt><trkpt lat="40.9299383" lon="16.5345167"><ele>503.0</ele><time>2026-05-03T11:05:59.564Z</time></trkpt><trkpt lat="40.9299117" lon="16.53444"><ele>503.0</ele><time>2026-05-03T11:06:00.564Z</time></trkpt><trkpt lat="40.9298567" lon="16.5342967"><ele>502.99999999999994</ele><time>2026-05-03T11:06:02.565Z</time></trkpt><trkpt lat="40.929805" lon="16.5341417"><ele>502.99999999999994</ele><time>2026-05-03T11:06:04.564Z</time></trkpt><trkpt lat="40.929775" lon="16.5340517"><ele>503.0</ele><time>2026-05-03T11:06:05.564Z</time></trkpt><trkpt lat="40.9297367" lon="16.5339567"><ele>503.0</ele><time>2026-05-03T11:06:06.564Z</time></trkpt><trkpt lat="40.9296917" lon="16.53386"><ele>502.99999999999994</ele><time>2026-05-03T11:06:07.565Z</time></trkpt><trkpt lat="40.92965" lon="16.5337633"><ele>503.0</ele><time>2026-05-03T11:06:08.565Z</time></trkpt><trkpt lat="40.9296117" lon="16.5336633"><ele>503.0</ele><time>2026-05-03T11:06:09.564Z</time></trkpt><trkpt lat="40.929575" lon="16.5335683"><ele>503.0</ele><time>2026-05-03T11:06:10.564Z</time></trkpt><trkpt lat="40.9295383" lon="16.533475"><ele>502.99999999999994</ele><time>2026-05-03T11:06:11.564Z</time></trkpt><trkpt lat="40.9295067" lon="16.5333783"><ele>503.0</ele><time>2026-05-03T11:06:12.565Z</time></trkpt><trkpt lat="40.9294617" lon="16.53329"><ele>502.99999999999994</ele><time>2026-05-03T11:06:13.564Z</time></trkpt><trkpt lat="40.92942" lon="16.5332033"><ele>503.0</ele><time>2026-05-03T11:06:14.564Z</time></trkpt><trkpt lat="40.9293733" lon="16.5331183"><ele>503.0</ele><time>2026-05-03T11:06:15.565Z</time></trkpt><trkpt lat="40.9293383" lon="16.5330383"><ele>503.0</ele><time>2026-05-03T11:06:16.564Z</time></trkpt><trkpt lat="40.92931" lon="16.53296"><ele>502.99999999999994</ele><time>2026-05-03T11:06:17.564Z</time></trkpt><trkpt lat="40.9292733" lon="16.532865"><ele>503.0</ele><time>2026-05-03T11:06:18.565Z</time></trkpt><trkpt lat="40.9292317" lon="16.53277"><ele>502.49999999999994</ele><time>2026-05-03T11:06:19.564Z</time></trkpt><trkpt lat="40.9291917" lon="16.5326817"><ele>502.0</ele><time>2026-05-03T11:06:20.564Z</time></trkpt><trkpt lat="40.9291617" lon="16.5325883"><ele>501.5</ele><time>2026-05-03T11:06:21.565Z</time></trkpt><trkpt lat="40.929125" lon="16.532515"><ele>501.0</ele><time>2026-05-03T11:06:22.565Z</time></trkpt><trkpt lat="40.9290217" lon="16.532405"><ele>500.49999999999994</ele><time>2026-05-03T11:06:24.564Z</time></trkpt><trkpt lat="40.9289483" lon="16.532345"><ele>500.0</ele><time>2026-05-03T11:06:25.565Z</time></trkpt><trkpt lat="40.9288783" lon="16.532295"><ele>499.99999999999994</ele><time>2026-05-03T11:06:26.565Z</time></trkpt><trkpt lat="40.9288217" lon="16.532245"><ele>500.0</ele><time>2026-05-03T11:06:27.564Z</time></trkpt><trkpt lat="40.9287217" lon="16.5321417"><ele>500.0</ele><time>2026-05-03T11:06:29.564Z</time></trkpt><trkpt lat="40.9286633" lon="16.5320783"><ele>500.0</ele><time>2026-05-03T11:06:30.564Z</time></trkpt><trkpt lat="40.928605" lon="16.5320167"><ele>499.99999999999994</ele><time>2026-05-03T11:06:31.564Z</time></trkpt><trkpt lat="40.9285433" lon="16.5319683"><ele>500.0</ele><time>2026-05-03T11:06:32.565Z</time></trkpt><trkpt lat="40.928435" lon="16.531885"><ele>499.2</ele><time>2026-05-03T11:06:34.564Z</time></trkpt><trkpt lat="40.92834" lon="16.531795"><ele>498.4</ele><time>2026-05-03T11:06:36.564Z</time></trkpt><trkpt lat="40.9282617" lon="16.5317167"><ele>497.6</ele><time>2026-05-03T11:06:38.564Z</time></trkpt><trkpt lat="40.9281867" lon="16.531645"><ele>496.8</ele><time>2026-05-03T11:06:40.565Z</time></trkpt><trkpt lat="40.9281" lon="16.5315867"><ele>496.0</ele><time>2026-05-03T11:06:42.565Z</time></trkpt><trkpt lat="40.9280033" lon="16.5314983"><ele>496.0</ele><time>2026-05-03T11:06:44.564Z</time></trkpt><trkpt lat="40.9279017" lon="16.5314083"><ele>496.0</ele><time>2026-05-03T11:06:46.564Z</time></trkpt><trkpt lat="40.92781" lon="16.53132"><ele>496.0</ele><time>2026-05-03T11:06:48.565Z</time></trkpt><trkpt lat="40.9277467" lon="16.53127"><ele>496.0</ele><time>2026-05-03T11:06:49.564Z</time></trkpt><trkpt lat="40.9276467" lon="16.5311783"><ele>496.0</ele><time>2026-05-03T11:06:51.564Z</time></trkpt><trkpt lat="40.927545" lon="16.531095"><ele>495.1666666666667</ele><time>2026-05-03T11:06:53.564Z</time></trkpt><trkpt lat="40.9274317" lon="16.53105"><ele>494.33333333333337</ele><time>2026-05-03T11:06:55.565Z</time></trkpt><trkpt lat="40.927325" lon="16.5309817"><ele>493.5</ele><time>2026-05-03T11:06:57.564Z</time></trkpt><trkpt lat="40.9272633" lon="16.5309483"><ele>492.66666666666663</ele><time>2026-05-03T11:06:58.564Z</time></trkpt><trkpt lat="40.9272017" lon="16.5309067"><ele>491.8333333333333</ele><time>2026-05-03T11:06:59.564Z</time></trkpt><trkpt lat="40.9271433" lon="16.5308717"><ele>491.0</ele><time>2026-05-03T11:07:00.564Z</time></trkpt><trkpt lat="40.92704" lon="16.530805"><ele>491.0</ele><time>2026-05-03T11:07:02.565Z</time></trkpt><trkpt lat="40.9269533" lon="16.5307267"><ele>491.0</ele><time>2026-05-03T11:07:04.564Z</time></trkpt><trkpt lat="40.92685" lon="16.5306517"><ele>491.0</ele><time>2026-05-03T11:07:06.564Z</time></trkpt><trkpt lat="40.9267533" lon="16.5305817"><ele>491.0</ele><time>2026-05-03T11:07:08.564Z</time></trkpt><trkpt lat="40.926645" lon="16.5305167"><ele>490.8333333333333</ele><time>2026-05-03T11:07:10.565Z</time></trkpt><trkpt lat="40.9265233" lon="16.530485"><ele>490.66666666666663</ele><time>2026-05-03T11:07:12.564Z</time></trkpt><trkpt lat="40.9264583" lon="16.53048"><ele>490.5</ele><time>2026-05-03T11:07:13.564Z</time></trkpt><trkpt lat="40.926385" lon="16.5304767"><ele>490.33333333333337</ele><time>2026-05-03T11:07:14.565Z</time></trkpt><trkpt lat="40.9263167" lon="16.53047"><ele>490.1666666666667</ele><time>2026-05-03T11:07:15.565Z</time></trkpt><trkpt lat="40.9262517" lon="16.53047"><ele>490.0</ele><time>2026-05-03T11:07:16.564Z</time></trkpt><trkpt lat="40.9261867" lon="16.5304767"><ele>490.0</ele><time>2026-05-03T11:07:17.564Z</time></trkpt><trkpt lat="40.9261117" lon="16.530475"><ele>490.0</ele><time>2026-05-03T11:07:18.565Z</time></trkpt><trkpt lat="40.9260233" lon="16.53047"><ele>490.0</ele><time>2026-05-03T11:07:19.565Z</time></trkpt><trkpt lat="40.92592" lon="16.5304667"><ele>490.0</ele><time>2026-05-03T11:07:20.564Z</time></trkpt><trkpt lat="40.9258283" lon="16.5304667"><ele>490.0</ele><time>2026-05-03T11:07:21.564Z</time></trkpt><trkpt lat="40.925735" lon="16.5304567"><ele>490.1666666666667</ele><time>2026-05-03T11:07:22.564Z</time></trkpt><trkpt lat="40.9256517" lon="16.5304467"><ele>490.33333333333337</ele><time>2026-05-03T11:07:23.564Z</time></trkpt><trkpt lat="40.9255567" lon="16.530455"><ele>490.5</ele><time>2026-05-03T11:07:24.564Z</time></trkpt><trkpt lat="40.9254717" lon="16.53046"><ele>490.66666666666663</ele><time>2026-05-03T11:07:25.564Z</time></trkpt><trkpt lat="40.9253883" lon="16.530455"><ele>490.8333333333333</ele><time>2026-05-03T11:07:26.564Z</time></trkpt><trkpt lat="40.925295" lon="16.5304433"><ele>491.0</ele><time>2026-05-03T11:07:27.564Z</time></trkpt><trkpt lat="40.9252067" lon="16.530435"><ele>490.99999999999994</ele><time>2026-05-03T11:07:28.564Z</time></trkpt><trkpt lat="40.92512" lon="16.5304317"><ele>491.0</ele><time>2026-05-03T11:07:29.564Z</time></trkpt><trkpt lat="40.92505" lon="16.5304233"><ele>491.0</ele><time>2026-05-03T11:07:30.564Z</time></trkpt><trkpt lat="40.92497" lon="16.530425"><ele>491.0</ele><time>2026-05-03T11:07:31.564Z</time></trkpt><trkpt lat="40.9249033" lon="16.5304217"><ele>490.99999999999994</ele><time>2026-05-03T11:07:32.565Z</time></trkpt><trkpt lat="40.9247833" lon="16.530425"><ele>491.0</ele><time>2026-05-03T11:07:34.564Z</time></trkpt><trkpt lat="40.9247183" lon="16.5304317"><ele>490.16666666666663</ele><time>2026-05-03T11:07:35.565Z</time></trkpt><trkpt lat="40.924655" lon="16.530445"><ele>489.3333333333333</ele><time>2026-05-03T11:07:36.564Z</time></trkpt><trkpt lat="40.924585" lon="16.53046"><ele>488.5</ele><time>2026-05-03T11:07:37.564Z</time></trkpt><trkpt lat="40.92452" lon="16.5304667"><ele>487.66666666666663</ele><time>2026-05-03T11:07:38.564Z</time></trkpt><trkpt lat="40.924455" lon="16.5304783"><ele>486.8333333333333</ele><time>2026-05-03T11:07:39.564Z</time></trkpt><trkpt lat="40.92439" lon="16.5304883"><ele>486.0</ele><time>2026-05-03T11:07:40.564Z</time></trkpt><trkpt lat="40.9242733" lon="16.53052"><ele>485.0</ele><time>2026-05-03T11:07:42.564Z</time></trkpt><trkpt lat="40.9241567" lon="16.530545"><ele>484.0</ele><time>2026-05-03T11:07:44.564Z</time></trkpt><trkpt lat="40.9240933" lon="16.5305583"><ele>483.0</ele><time>2026-05-03T11:07:45.564Z</time></trkpt><trkpt lat="40.92403" lon="16.53057"><ele>482.0</ele><time>2026-05-03T11:07:46.564Z</time></trkpt><trkpt lat="40.9239" lon="16.5305933"><ele>481.0</ele><time>2026-05-03T11:07:48.564Z</time></trkpt><trkpt lat="40.9238283" lon="16.5306117"><ele>480.99999999999994</ele><time>2026-05-03T11:07:49.565Z</time></trkpt><trkpt lat="40.9237583" lon="16.5306317"><ele>481.0</ele><time>2026-05-03T11:07:50.565Z</time></trkpt><trkpt lat="40.92369" lon="16.5306467"><ele>480.99999999999994</ele><time>2026-05-03T11:07:51.564Z</time></trkpt><trkpt lat="40.92362" lon="16.5306567"><ele>480.99999999999994</ele><time>2026-05-03T11:07:52.565Z</time></trkpt><trkpt lat="40.9235533" lon="16.5306667"><ele>481.0</ele><time>2026-05-03T11:07:53.564Z</time></trkpt><trkpt lat="40.9234867" lon="16.5306817"><ele>480.99999999999994</ele><time>2026-05-03T11:07:54.564Z</time></trkpt><trkpt lat="40.9234133" lon="16.5307033"><ele>480.99999999999994</ele><time>2026-05-03T11:07:55.564Z</time></trkpt><trkpt lat="40.9233417" lon="16.5307217"><ele>480.1666666666667</ele><time>2026-05-03T11:07:56.564Z</time></trkpt><trkpt lat="40.9232633" lon="16.53074"><ele>479.33333333333337</ele><time>2026-05-03T11:07:57.564Z</time></trkpt><trkpt lat="40.9231817" lon="16.5307417"><ele>478.5</ele><time>2026-05-03T11:07:58.564Z</time></trkpt><trkpt lat="40.9230983" lon="16.5307433"><ele>477.66666666666663</ele><time>2026-05-03T11:07:59.565Z</time></trkpt><trkpt lat="40.9230133" lon="16.53075"><ele>476.8333333333333</ele><time>2026-05-03T11:08:00.564Z</time></trkpt><trkpt lat="40.922935" lon="16.5307483"><ele>476.0</ele><time>2026-05-03T11:08:01.565Z</time></trkpt><trkpt lat="40.922865" lon="16.530745"><ele>476.0</ele><time>2026-05-03T11:08:02.565Z</time></trkpt><trkpt lat="40.92275" lon="16.5307383"><ele>476.0</ele><time>2026-05-03T11:08:04.564Z</time></trkpt><trkpt lat="40.9226467" lon="16.53073"><ele>476.0</ele><time>2026-05-03T11:08:06.565Z</time></trkpt><trkpt lat="40.9225433" lon="16.5307083"><ele>476.0</ele><time>2026-05-03T11:08:08.565Z</time></trkpt><trkpt lat="40.9224167" lon="16.530705"><ele>475.3333333333333</ele><time>2026-05-03T11:08:10.564Z</time></trkpt><trkpt lat="40.9223483" lon="16.5307117"><ele>474.66666666666663</ele><time>2026-05-03T11:08:11.564Z</time></trkpt><trkpt lat="40.9222383" lon="16.5307067"><ele>474.0</ele><time>2026-05-03T11:08:13.564Z</time></trkpt><trkpt lat="40.9221467" lon="16.5307067"><ele>473.33333333333337</ele><time>2026-05-03T11:08:15.564Z</time></trkpt><trkpt lat="40.9220667" lon="16.5307167"><ele>472.6666666666667</ele><time>2026-05-03T11:08:17.565Z</time></trkpt><trkpt lat="40.921975" lon="16.5307017"><ele>472.0</ele><time>2026-05-03T11:08:19.564Z</time></trkpt><trkpt lat="40.92187" lon="16.530695"><ele>472.0</ele><time>2026-05-03T11:08:21.565Z</time></trkpt><trkpt lat="40.9217467" lon="16.530685"><ele>472.00000000000006</ele><time>2026-05-03T11:08:23.565Z</time></trkpt><trkpt lat="40.9216733" lon="16.5306933"><ele>472.00000000000006</ele><time>2026-05-03T11:08:24.564Z</time></trkpt><trkpt lat="40.9216033" lon="16.5306933"><ele>472.0</ele><time>2026-05-03T11:08:25.564Z</time></trkpt><trkpt lat="40.92154" lon="16.5306917"><ele>472.0</ele><time>2026-05-03T11:08:26.564Z</time></trkpt><trkpt lat="40.921415" lon="16.5306817"><ele>471.0</ele><time>2026-05-03T11:08:28.565Z</time></trkpt><trkpt lat="40.921295" lon="16.5306867"><ele>470.00000000000006</ele><time>2026-05-03T11:08:30.564Z</time></trkpt><trkpt lat="40.9212" lon="16.5306717"><ele>469.00000000000006</ele><time>2026-05-03T11:08:32.564Z</time></trkpt><trkpt lat="40.9211117" lon="16.5306483"><ele>468.0</ele><time>2026-05-03T11:08:34.564Z</time></trkpt><trkpt lat="40.9210383" lon="16.53062"><ele>467.0</ele><time>2026-05-03T11:08:36.564Z</time></trkpt><trkpt lat="40.920945" lon="16.5305733"><ele>466.6</ele><time>2026-05-03T11:08:38.564Z</time></trkpt><trkpt lat="40.9208517" lon="16.5305317"><ele>466.20000000000005</ele><time>2026-05-03T11:08:40.564Z</time></trkpt><trkpt lat="40.9207433" lon="16.5304833"><ele>465.8</ele><time>2026-05-03T11:08:42.565Z</time></trkpt><trkpt lat="40.92065" lon="16.5304417"><ele>465.4</ele><time>2026-05-03T11:08:44.564Z</time></trkpt><trkpt lat="40.9205617" lon="16.5303983"><ele>465.0</ele><time>2026-05-03T11:08:46.564Z</time></trkpt><trkpt lat="40.9204733" lon="16.5303583"><ele>464.6</ele><time>2026-05-03T11:08:48.565Z</time></trkpt><trkpt lat="40.920385" lon="16.530275"><ele>464.2</ele><time>2026-05-03T11:08:50.564Z</time></trkpt><trkpt lat="40.92031" lon="16.53019"><ele>463.79999999999995</ele><time>2026-05-03T11:08:52.565Z</time></trkpt><trkpt lat="40.9202267" lon="16.5301167"><ele>463.4</ele><time>2026-05-03T11:08:54.564Z</time></trkpt><trkpt lat="40.92014" lon="16.5300467"><ele>463.0</ele><time>2026-05-03T11:08:56.564Z</time></trkpt><trkpt lat="40.920045" lon="16.5299667"><ele>462.59999999999997</ele><time>2026-05-03T11:08:58.564Z</time></trkpt><trkpt lat="40.9199533" lon="16.52989"><ele>462.19999999999993</ele><time>2026-05-03T11:09:00.564Z</time></trkpt><trkpt lat="40.919855" lon="16.5298183"><ele>461.8</ele><time>2026-05-03T11:09:02.564Z</time></trkpt><trkpt lat="40.9197533" lon="16.52976"><ele>461.4</ele><time>2026-05-03T11:09:04.564Z</time></trkpt><trkpt lat="40.91966" lon="16.5297033"><ele>461.0</ele><time>2026-05-03T11:09:06.565Z</time></trkpt><trkpt lat="40.919565" lon="16.52963"><ele>461.0</ele><time>2026-05-03T11:09:08.565Z</time></trkpt><trkpt lat="40.919475" lon="16.52956"><ele>461.0</ele><time>2026-05-03T11:09:10.564Z</time></trkpt><trkpt lat="40.919375" lon="16.529495"><ele>461.0</ele><time>2026-05-03T11:09:12.564Z</time></trkpt><trkpt lat="40.9192783" lon="16.52943"><ele>461.0</ele><time>2026-05-03T11:09:14.565Z</time></trkpt><trkpt lat="40.9191733" lon="16.52936"><ele>461.0</ele><time>2026-05-03T11:09:16.564Z</time></trkpt><trkpt lat="40.9190667" lon="16.5293017"><ele>460.20000000000005</ele><time>2026-05-03T11:09:18.564Z</time></trkpt><trkpt lat="40.9189767" lon="16.52923"><ele>459.40000000000003</ele><time>2026-05-03T11:09:20.564Z</time></trkpt><trkpt lat="40.918895" lon="16.529145"><ele>458.6</ele><time>2026-05-03T11:09:22.565Z</time></trkpt><trkpt lat="40.91882" lon="16.5290483"><ele>457.8</ele><time>2026-05-03T11:09:24.564Z</time></trkpt><trkpt lat="40.91874" lon="16.5289483"><ele>457.0</ele><time>2026-05-03T11:09:26.565Z</time></trkpt><trkpt lat="40.9186617" lon="16.52886"><ele>457.0</ele><time>2026-05-03T11:09:28.564Z</time></trkpt><trkpt lat="40.91857" lon="16.5287817"><ele>457.00000000000006</ele><time>2026-05-03T11:09:30.564Z</time></trkpt><trkpt lat="40.9184933" lon="16.5286917"><ele>457.00000000000006</ele><time>2026-05-03T11:09:32.564Z</time></trkpt><trkpt lat="40.918435" lon="16.528625"><ele>457.0</ele><time>2026-05-03T11:09:34.564Z</time></trkpt><trkpt lat="40.918385" lon="16.5285633"><ele>457.0</ele><time>2026-05-03T11:09:36.565Z</time></trkpt><trkpt lat="40.9183017" lon="16.5284733"><ele>457.00000000000006</ele><time>2026-05-03T11:09:39.564Z</time></trkpt><trkpt lat="40.9182183" lon="16.5283517"><ele>457.0</ele><time>2026-05-03T11:09:41.564Z</time></trkpt><trkpt lat="40.9181717" lon="16.5282733"><ele>457.0</ele><time>2026-05-03T11:09:42.565Z</time></trkpt><trkpt lat="40.9181233" lon="16.5281933"><ele>457.0</ele><time>2026-05-03T11:09:43.565Z</time></trkpt><trkpt lat="40.9180717" lon="16.5280983"><ele>457.00000000000006</ele><time>2026-05-03T11:09:44.564Z</time></trkpt><trkpt lat="40.9180267" lon="16.5280067"><ele>457.0</ele><time>2026-05-03T11:09:45.564Z</time></trkpt><trkpt lat="40.9179733" lon="16.52794"><ele>456.40000000000003</ele><time>2026-05-03T11:09:46.565Z</time></trkpt><trkpt lat="40.91788" lon="16.5278567"><ele>455.80000000000007</ele><time>2026-05-03T11:09:48.565Z</time></trkpt><trkpt lat="40.9178167" lon="16.5278333"><ele>455.2</ele><time>2026-05-03T11:09:49.564Z</time></trkpt><trkpt lat="40.9177383" lon="16.5278167"><ele>454.6</ele><time>2026-05-03T11:09:50.564Z</time></trkpt><trkpt lat="40.9176433" lon="16.5277967"><ele>454.0</ele><time>2026-05-03T11:09:51.564Z</time></trkpt><trkpt lat="40.91754" lon="16.5277767"><ele>453.75</ele><time>2026-05-03T11:09:52.564Z</time></trkpt><trkpt lat="40.9174283" lon="16.5277533"><ele>453.5</ele><time>2026-05-03T11:09:53.565Z</time></trkpt><trkpt lat="40.9173133" lon="16.5277383"><ele>453.25</ele><time>2026-05-03T11:09:54.564Z</time></trkpt><trkpt lat="40.9171917" lon="16.5277183"><ele>453.0</ele><time>2026-05-03T11:09:55.564Z</time></trkpt><trkpt lat="40.9170783" lon="16.52769"><ele>453.0</ele><time>2026-05-03T11:09:56.564Z</time></trkpt><trkpt lat="40.9169533" lon="16.5276667"><ele>453.0</ele><time>2026-05-03T11:09:57.565Z</time></trkpt><trkpt lat="40.9168283" lon="16.52765"><ele>453.0</ele><time>2026-05-03T11:09:58.564Z</time></trkpt><trkpt lat="40.9167017" lon="16.5276383"><ele>453.0</ele><time>2026-05-03T11:09:59.565Z</time></trkpt><trkpt lat="40.9165617" lon="16.5276267"><ele>453.0</ele><time>2026-05-03T11:10:00.565Z</time></trkpt><trkpt lat="40.916415" lon="16.5275883"><ele>453.0</ele><time>2026-05-03T11:10:01.564Z</time></trkpt><trkpt lat="40.9162783" lon="16.5275683"><ele>453.0</ele><time>2026-05-03T11:10:02.564Z</time></trkpt><trkpt lat="40.91614" lon="16.527565"><ele>453.0</ele><time>2026-05-03T11:10:03.564Z</time></trkpt><trkpt lat="40.9160067" lon="16.5275717"><ele>452.25</ele><time>2026-05-03T11:10:04.564Z</time></trkpt><trkpt lat="40.915885" lon="16.5275533"><ele>451.5</ele><time>2026-05-03T11:10:05.564Z</time></trkpt><trkpt lat="40.9157733" lon="16.5275417"><ele>450.75</ele><time>2026-05-03T11:10:06.564Z</time></trkpt><trkpt lat="40.9156583" lon="16.5275267"><ele>450.0</ele><time>2026-05-03T11:10:07.564Z</time></trkpt><trkpt lat="40.9155467" lon="16.5274983"><ele>450.0</ele><time>2026-05-03T11:10:08.564Z</time></trkpt><trkpt lat="40.91544" lon="16.527445"><ele>450.0</ele><time>2026-05-03T11:10:09.564Z</time></trkpt><trkpt lat="40.9153317" lon="16.5273833"><ele>450.0</ele><time>2026-05-03T11:10:10.564Z</time></trkpt><trkpt lat="40.9152117" lon="16.5273083"><ele>450.0</ele><time>2026-05-03T11:10:11.564Z</time></trkpt><trkpt lat="40.91509" lon="16.5272183"><ele>450.5</ele><time>2026-05-03T11:10:12.565Z</time></trkpt><trkpt lat="40.9149617" lon="16.5271367"><ele>451.0</ele><time>2026-05-03T11:10:13.564Z</time></trkpt><trkpt lat="40.9148217" lon="16.5270583"><ele>451.5</ele><time>2026-05-03T11:10:14.564Z</time></trkpt><trkpt lat="40.9146767" lon="16.52699"><ele>452.0</ele><time>2026-05-03T11:10:15.565Z</time></trkpt><trkpt lat="40.91453" lon="16.5269333"><ele>450.66666666666663</ele><time>2026-05-03T11:10:16.564Z</time></trkpt><trkpt lat="40.9143717" lon="16.52689"><ele>449.33333333333337</ele><time>2026-05-03T11:10:17.564Z</time></trkpt><trkpt lat="40.91422" lon="16.526815"><ele>448.0</ele><time>2026-05-03T11:10:18.564Z</time></trkpt><trkpt lat="40.914075" lon="16.5267517"><ele>447.33333333333337</ele><time>2026-05-03T11:10:19.564Z</time></trkpt><trkpt lat="40.9139367" lon="16.5266817"><ele>446.66666666666663</ele><time>2026-05-03T11:10:20.564Z</time></trkpt><trkpt lat="40.9138" lon="16.5266167"><ele>446.0</ele><time>2026-05-03T11:10:21.565Z</time></trkpt><trkpt lat="40.9136417" lon="16.5265817"><ele>446.0</ele><time>2026-05-03T11:10:22.564Z</time></trkpt><trkpt lat="40.913485" lon="16.5265483"><ele>446.0</ele><time>2026-05-03T11:10:23.565Z</time></trkpt><trkpt lat="40.9133283" lon="16.5265133"><ele>446.0</ele><time>2026-05-03T11:10:24.564Z</time></trkpt><trkpt lat="40.9131783" lon="16.526475"><ele>445.66666666666663</ele><time>2026-05-03T11:10:25.565Z</time></trkpt><trkpt lat="40.9130333" lon="16.5264483"><ele>445.33333333333337</ele><time>2026-05-03T11:10:26.564Z</time></trkpt><trkpt lat="40.9128667" lon="16.52643"><ele>445.0</ele><time>2026-05-03T11:10:27.564Z</time></trkpt><trkpt lat="40.9127" lon="16.5264183"><ele>444.33333333333337</ele><time>2026-05-03T11:10:28.564Z</time></trkpt><trkpt lat="40.9125383" lon="16.526405"><ele>443.66666666666663</ele><time>2026-05-03T11:10:29.564Z</time></trkpt><trkpt lat="40.9123817" lon="16.526395"><ele>443.0</ele><time>2026-05-03T11:10:30.564Z</time></trkpt><trkpt lat="40.9122383" lon="16.5263833"><ele>443.0</ele><time>2026-05-03T11:10:31.564Z</time></trkpt><trkpt lat="40.9120933" lon="16.5263817"><ele>443.0</ele><time>2026-05-03T11:10:32.564Z</time></trkpt><trkpt lat="40.9119583" lon="16.52639"><ele>443.0</ele><time>2026-05-03T11:10:33.564Z</time></trkpt><trkpt lat="40.91183" lon="16.5263917"><ele>443.0</ele><time>2026-05-03T11:10:34.564Z</time></trkpt><trkpt lat="40.9117" lon="16.5263983"><ele>442.5</ele><time>2026-05-03T11:10:35.564Z</time></trkpt><trkpt lat="40.9115617" lon="16.5264233"><ele>442.0</ele><time>2026-05-03T11:10:36.564Z</time></trkpt><trkpt lat="40.9114233" lon="16.5264383"><ele>441.5</ele><time>2026-05-03T11:10:37.565Z</time></trkpt><trkpt lat="40.9112983" lon="16.5264483"><ele>441.0</ele><time>2026-05-03T11:10:38.564Z</time></trkpt><trkpt lat="40.9111817" lon="16.5264417"><ele>441.0</ele><time>2026-05-03T11:10:39.564Z</time></trkpt><trkpt lat="40.91108" lon="16.5264083"><ele>441.0</ele><time>2026-05-03T11:10:40.564Z</time></trkpt><trkpt lat="40.9109817" lon="16.5263733"><ele>441.0</ele><time>2026-05-03T11:10:41.564Z</time></trkpt><trkpt lat="40.9108983" lon="16.5263017"><ele>441.0</ele><time>2026-05-03T11:10:42.564Z</time></trkpt><trkpt lat="40.9108067" lon="16.5261967"><ele>441.0</ele><time>2026-05-03T11:10:43.564Z</time></trkpt><trkpt lat="40.9107133" lon="16.526065"><ele>440.75</ele><time>2026-05-03T11:10:44.564Z</time></trkpt><trkpt lat="40.9106067" lon="16.5259417"><ele>440.5</ele><time>2026-05-03T11:10:45.565Z</time></trkpt><trkpt lat="40.9104933" lon="16.5258117"><ele>440.25</ele><time>2026-05-03T11:10:46.564Z</time></trkpt><trkpt lat="40.91038" lon="16.5256767"><ele>440.0</ele><time>2026-05-03T11:10:47.565Z</time></trkpt><trkpt lat="40.9102733" lon="16.5255417"><ele>440.0</ele><time>2026-05-03T11:10:48.564Z</time></trkpt><trkpt lat="40.9101633" lon="16.52542"><ele>440.0</ele><time>2026-05-03T11:10:49.564Z</time></trkpt><trkpt lat="40.9100533" lon="16.5253167"><ele>440.0</ele><time>2026-05-03T11:10:50.564Z</time></trkpt><trkpt lat="40.90994" lon="16.5252183"><ele>440.0</ele><time>2026-05-03T11:10:51.564Z</time></trkpt><trkpt lat="40.9098167" lon="16.5251367"><ele>439.66666666666663</ele><time>2026-05-03T11:10:52.565Z</time></trkpt><trkpt lat="40.90967" lon="16.5250683"><ele>439.33333333333337</ele><time>2026-05-03T11:10:53.565Z</time></trkpt><trkpt lat="40.9095283" lon="16.5250017"><ele>439.0</ele><time>2026-05-03T11:10:54.564Z</time></trkpt><trkpt lat="40.9093833" lon="16.5249417"><ele>439.0</ele><time>2026-05-03T11:10:55.564Z</time></trkpt><trkpt lat="40.9092517" lon="16.5248933"><ele>439.0</ele><time>2026-05-03T11:10:56.565Z</time></trkpt><trkpt lat="40.9091183" lon="16.52487"><ele>439.0</ele><time>2026-05-03T11:10:57.565Z</time></trkpt><trkpt lat="40.9089917" lon="16.5248583"><ele>439.0</ele><time>2026-05-03T11:10:58.564Z</time></trkpt><trkpt lat="40.9088683" lon="16.5248333"><ele>438.75</ele><time>2026-05-03T11:10:59.564Z</time></trkpt><trkpt lat="40.9087583" lon="16.5247717"><ele>438.5</ele><time>2026-05-03T11:11:00.565Z</time></trkpt><trkpt lat="40.9086567" lon="16.5246817"><ele>438.25</ele><time>2026-05-03T11:11:01.564Z</time></trkpt><trkpt lat="40.9085483" lon="16.52459"><ele>438.0</ele><time>2026-05-03T11:11:02.564Z</time></trkpt><trkpt lat="40.9084283" lon="16.524485"><ele>438.0</ele><time>2026-05-03T11:11:03.565Z</time></trkpt><trkpt lat="40.9082983" lon="16.5243867"><ele>438.0</ele><time>2026-05-03T11:11:04.565Z</time></trkpt><trkpt lat="40.9081767" lon="16.5242767"><ele>438.0</ele><time>2026-05-03T11:11:05.564Z</time></trkpt><trkpt lat="40.9080467" lon="16.52416"><ele>438.0</ele><time>2026-05-03T11:11:06.564Z</time></trkpt><trkpt lat="40.907915" lon="16.524035"><ele>438.0</ele><time>2026-05-03T11:11:07.564Z</time></trkpt><trkpt lat="40.9077783" lon="16.5239167"><ele>438.0</ele><time>2026-05-03T11:11:08.564Z</time></trkpt><trkpt lat="40.9076483" lon="16.5237917"><ele>437.66666666666663</ele><time>2026-05-03T11:11:09.564Z</time></trkpt><trkpt lat="40.9075083" lon="16.523675"><ele>437.3333333333333</ele><time>2026-05-03T11:11:10.565Z</time></trkpt><trkpt lat="40.907375" lon="16.5235683"><ele>437.0</ele><time>2026-05-03T11:11:11.564Z</time></trkpt><trkpt lat="40.90725" lon="16.5234483"><ele>437.0</ele><time>2026-05-03T11:11:12.564Z</time></trkpt><trkpt lat="40.907125" lon="16.5233267"><ele>437.0</ele><time>2026-05-03T11:11:13.564Z</time></trkpt><trkpt lat="40.9069967" lon="16.523215"><ele>437.0</ele><time>2026-05-03T11:11:14.565Z</time></trkpt><trkpt lat="40.9068667" lon="16.5230983"><ele>436.0</ele><time>2026-05-03T11:11:15.565Z</time></trkpt><trkpt lat="40.9067283" lon="16.5229917"><ele>435.0</ele><time>2026-05-03T11:11:16.564Z</time></trkpt><trkpt lat="40.9065917" lon="16.5228767"><ele>434.0</ele><time>2026-05-03T11:11:17.564Z</time></trkpt><trkpt lat="40.9064583" lon="16.5227633"><ele>433.66666666666663</ele><time>2026-05-03T11:11:18.564Z</time></trkpt><trkpt lat="40.9063217" lon="16.5226417"><ele>433.33333333333337</ele><time>2026-05-03T11:11:19.564Z</time></trkpt><trkpt lat="40.90618" lon="16.52253"><ele>433.0</ele><time>2026-05-03T11:11:20.564Z</time></trkpt><trkpt lat="40.9060333" lon="16.5224283"><ele>433.0</ele><time>2026-05-03T11:11:21.564Z</time></trkpt><trkpt lat="40.9058867" lon="16.5223333"><ele>433.0</ele><time>2026-05-03T11:11:22.565Z</time></trkpt><trkpt lat="40.9057383" lon="16.5222333"><ele>433.0</ele><time>2026-05-03T11:11:23.565Z</time></trkpt><trkpt lat="40.90559" lon="16.5221283"><ele>433.0</ele><time>2026-05-03T11:11:24.565Z</time></trkpt><trkpt lat="40.9054433" lon="16.522035"><ele>433.0</ele><time>2026-05-03T11:11:25.564Z</time></trkpt><trkpt lat="40.9053017" lon="16.52194"><ele>433.0</ele><time>2026-05-03T11:11:26.564Z</time></trkpt><trkpt lat="40.905165" lon="16.52185"><ele>432.75</ele><time>2026-05-03T11:11:27.564Z</time></trkpt><trkpt lat="40.9050383" lon="16.521765"><ele>432.5</ele><time>2026-05-03T11:11:28.565Z</time></trkpt><trkpt lat="40.9049133" lon="16.5216767"><ele>432.25</ele><time>2026-05-03T11:11:29.564Z</time></trkpt><trkpt lat="40.904805" lon="16.5215833"><ele>432.0</ele><time>2026-05-03T11:11:30.565Z</time></trkpt><trkpt lat="40.904695" lon="16.5215017"><ele>432.0</ele><time>2026-05-03T11:11:31.564Z</time></trkpt><trkpt lat="40.9045767" lon="16.5214217"><ele>432.0</ele><time>2026-05-03T11:11:32.564Z</time></trkpt><trkpt lat="40.904465" lon="16.5213433"><ele>432.0</ele><time>2026-05-03T11:11:33.564Z</time></trkpt><trkpt lat="40.90436" lon="16.5212567"><ele>432.0</ele><time>2026-05-03T11:11:34.565Z</time></trkpt><trkpt lat="40.9042533" lon="16.52117"><ele>432.25</ele><time>2026-05-03T11:11:35.564Z</time></trkpt><trkpt lat="40.904135" lon="16.5210867"><ele>432.5</ele><time>2026-05-03T11:11:36.564Z</time></trkpt><trkpt lat="40.9040117" lon="16.52102"><ele>432.75</ele><time>2026-05-03T11:11:37.564Z</time></trkpt><trkpt lat="40.9038917" lon="16.52094"><ele>433.0</ele><time>2026-05-03T11:11:38.564Z</time></trkpt><trkpt lat="40.9037733" lon="16.5208583"><ele>433.0</ele><time>2026-05-03T11:11:39.564Z</time></trkpt><trkpt lat="40.9036567" lon="16.5207733"><ele>433.0</ele><time>2026-05-03T11:11:40.564Z</time></trkpt><trkpt lat="40.9035367" lon="16.5206833"><ele>433.0</ele><time>2026-05-03T11:11:41.564Z</time></trkpt><trkpt lat="40.9034133" lon="16.5205933"><ele>433.0</ele><time>2026-05-03T11:11:42.564Z</time></trkpt><trkpt lat="40.9032883" lon="16.5205133"><ele>433.33333333333337</ele><time>2026-05-03T11:11:43.564Z</time></trkpt><trkpt lat="40.9031533" lon="16.52045"><ele>433.66666666666663</ele><time>2026-05-03T11:11:44.565Z</time></trkpt><trkpt lat="40.9030083" lon="16.5204067"><ele>434.0</ele><time>2026-05-03T11:11:45.564Z</time></trkpt><trkpt lat="40.90285" lon="16.5203783"><ele>434.66666666666663</ele><time>2026-05-03T11:11:46.564Z</time></trkpt><trkpt lat="40.902695" lon="16.5203483"><ele>435.33333333333337</ele><time>2026-05-03T11:11:47.565Z</time></trkpt><trkpt lat="40.9025483" lon="16.5203133"><ele>436.0</ele><time>2026-05-03T11:11:48.565Z</time></trkpt><trkpt lat="40.902405" lon="16.5202867"><ele>435.0</ele><time>2026-05-03T11:11:49.564Z</time></trkpt><trkpt lat="40.90227" lon="16.5202833"><ele>434.0</ele><time>2026-05-03T11:11:50.564Z</time></trkpt><trkpt lat="40.9021383" lon="16.5202967"><ele>433.0</ele><time>2026-05-03T11:11:51.564Z</time></trkpt><trkpt lat="40.9020033" lon="16.5203233"><ele>432.0</ele><time>2026-05-03T11:11:52.564Z</time></trkpt><trkpt lat="40.90188" lon="16.520345"><ele>432.0</ele><time>2026-05-03T11:11:53.565Z</time></trkpt><trkpt lat="40.901755" lon="16.5203683"><ele>432.0</ele><time>2026-05-03T11:11:54.565Z</time></trkpt><trkpt lat="40.901635" lon="16.5203917"><ele>432.0</ele><time>2026-05-03T11:11:55.565Z</time></trkpt><trkpt lat="40.9015133" lon="16.5203933"><ele>432.0</ele><time>2026-05-03T11:11:56.565Z</time></trkpt><trkpt lat="40.90139" lon="16.5203667"><ele>432.0</ele><time>2026-05-03T11:11:57.564Z</time></trkpt><trkpt lat="40.9012567" lon="16.5203283"><ele>432.0</ele><time>2026-05-03T11:11:58.564Z</time></trkpt><trkpt lat="40.9011233" lon="16.5202917"><ele>432.0</ele><time>2026-05-03T11:11:59.565Z</time></trkpt><trkpt lat="40.9009883" lon="16.5202617"><ele>432.0</ele><time>2026-05-03T11:12:00.564Z</time></trkpt><trkpt lat="40.9008583" lon="16.52023"><ele>431.25</ele><time>2026-05-03T11:12:01.564Z</time></trkpt><trkpt lat="40.90072" lon="16.5201917"><ele>430.5</ele><time>2026-05-03T11:12:02.564Z</time></trkpt><trkpt lat="40.900575" lon="16.5201633"><ele>429.75</ele><time>2026-05-03T11:12:03.564Z</time></trkpt><trkpt lat="40.9004167" lon="16.5201633"><ele>429.0</ele><time>2026-05-03T11:12:04.565Z</time></trkpt><trkpt lat="40.9002583" lon="16.5201617"><ele>429.0</ele><time>2026-05-03T11:12:05.564Z</time></trkpt><trkpt lat="40.9001083" lon="16.5201633"><ele>429.0</ele><time>2026-05-03T11:12:06.564Z</time></trkpt><trkpt lat="40.89997" lon="16.5201567"><ele>429.0</ele><time>2026-05-03T11:12:07.564Z</time></trkpt><trkpt lat="40.8998283" lon="16.5201583"><ele>429.0</ele><time>2026-05-03T11:12:08.564Z</time></trkpt><trkpt lat="40.8996933" lon="16.5201383"><ele>429.0</ele><time>2026-05-03T11:12:09.564Z</time></trkpt><trkpt lat="40.8995517" lon="16.520115"><ele>429.0</ele><time>2026-05-03T11:12:10.565Z</time></trkpt><trkpt lat="40.8994133" lon="16.5200833"><ele>429.0</ele><time>2026-05-03T11:12:11.564Z</time></trkpt><trkpt lat="40.899265" lon="16.5200433"><ele>429.0</ele><time>2026-05-03T11:12:12.565Z</time></trkpt><trkpt lat="40.8991067" lon="16.5200083"><ele>428.66666666666663</ele><time>2026-05-03T11:12:13.565Z</time></trkpt><trkpt lat="40.898945" lon="16.5199783"><ele>428.3333333333333</ele><time>2026-05-03T11:12:14.564Z</time></trkpt><trkpt lat="40.8987817" lon="16.5199417"><ele>428.0</ele><time>2026-05-03T11:12:15.564Z</time></trkpt><trkpt lat="40.89863" lon="16.5199083"><ele>428.0</ele><time>2026-05-03T11:12:16.564Z</time></trkpt><trkpt lat="40.8984767" lon="16.519875"><ele>428.0</ele><time>2026-05-03T11:12:17.564Z</time></trkpt><trkpt lat="40.8983383" lon="16.5198417"><ele>428.0</ele><time>2026-05-03T11:12:18.565Z</time></trkpt><trkpt lat="40.898195" lon="16.5198033"><ele>428.0</ele><time>2026-05-03T11:12:19.564Z</time></trkpt><trkpt lat="40.8980483" lon="16.5197583"><ele>428.0</ele><time>2026-05-03T11:12:20.564Z</time></trkpt><trkpt lat="40.8979" lon="16.5197117"><ele>428.0</ele><time>2026-05-03T11:12:21.564Z</time></trkpt><trkpt lat="40.8977483" lon="16.519685"><ele>428.0</ele><time>2026-05-03T11:12:22.565Z</time></trkpt><trkpt lat="40.897595" lon="16.5196783"><ele>427.5</ele><time>2026-05-03T11:12:23.565Z</time></trkpt><trkpt lat="40.8974533" lon="16.51965"><ele>427.0</ele><time>2026-05-03T11:12:24.565Z</time></trkpt><trkpt lat="40.8973117" lon="16.5196233"><ele>426.5</ele><time>2026-05-03T11:12:25.564Z</time></trkpt><trkpt lat="40.8971783" lon="16.5196067"><ele>426.0</ele><time>2026-05-03T11:12:26.564Z</time></trkpt><trkpt lat="40.897045" lon="16.5196"><ele>426.0</ele><time>2026-05-03T11:12:27.564Z</time></trkpt><trkpt lat="40.8969117" lon="16.5195683"><ele>426.0</ele><time>2026-05-03T11:12:28.564Z</time></trkpt><trkpt lat="40.89678" lon="16.5195233"><ele>426.0</ele><time>2026-05-03T11:12:29.565Z</time></trkpt><trkpt lat="40.89664" lon="16.5194867"><ele>426.0</ele><time>2026-05-03T11:12:30.564Z</time></trkpt><trkpt lat="40.8965083" lon="16.5194317"><ele>424.8</ele><time>2026-05-03T11:12:31.565Z</time></trkpt><trkpt lat="40.8963983" lon="16.5193733"><ele>423.6</ele><time>2026-05-03T11:12:32.564Z</time></trkpt><trkpt lat="40.8963" lon="16.5193283"><ele>422.4</ele><time>2026-05-03T11:12:33.564Z</time></trkpt><trkpt lat="40.8962083" lon="16.519295"><ele>421.2</ele><time>2026-05-03T11:12:34.564Z</time></trkpt><trkpt lat="40.8961133" lon="16.5192633"><ele>420.0</ele><time>2026-05-03T11:12:35.564Z</time></trkpt><trkpt lat="40.896015" lon="16.5192083"><ele>420.0</ele><time>2026-05-03T11:12:36.565Z</time></trkpt><trkpt lat="40.8959167" lon="16.51915"><ele>420.0</ele><time>2026-05-03T11:12:37.565Z</time></trkpt><trkpt lat="40.8958217" lon="16.5191067"><ele>420.0</ele><time>2026-05-03T11:12:38.565Z</time></trkpt><trkpt lat="40.895735" lon="16.5190683"><ele>420.0</ele><time>2026-05-03T11:12:39.564Z</time></trkpt><trkpt lat="40.8956417" lon="16.51904"><ele>420.0</ele><time>2026-05-03T11:12:40.564Z</time></trkpt><trkpt lat="40.89554" lon="16.5190133"><ele>420.0</ele><time>2026-05-03T11:12:41.564Z</time></trkpt><trkpt lat="40.89544" lon="16.5189767"><ele>420.0</ele><time>2026-05-03T11:12:42.564Z</time></trkpt><trkpt lat="40.895335" lon="16.51894"><ele>420.0</ele><time>2026-05-03T11:12:43.564Z</time></trkpt><trkpt lat="40.895235" lon="16.518905"><ele>420.0</ele><time>2026-05-03T11:12:44.564Z</time></trkpt><trkpt lat="40.89515" lon="16.5188833"><ele>420.0</ele><time>2026-05-03T11:12:45.565Z</time></trkpt><trkpt lat="40.8950783" lon="16.5188533"><ele>420.0</ele><time>2026-05-03T11:12:46.564Z</time></trkpt><trkpt lat="40.894955" lon="16.5188067"><ele>420.0</ele><time>2026-05-03T11:12:48.564Z</time></trkpt><trkpt lat="40.8948833" lon="16.5187683"><ele>420.0</ele><time>2026-05-03T11:12:49.564Z</time></trkpt><trkpt lat="40.894805" lon="16.51872"><ele>420.0</ele><time>2026-05-03T11:12:50.565Z</time></trkpt><trkpt lat="40.894725" lon="16.51868"><ele>420.0</ele><time>2026-05-03T11:12:51.565Z</time></trkpt><trkpt lat="40.8946483" lon="16.5186433"><ele>420.0</ele><time>2026-05-03T11:12:52.564Z</time></trkpt><trkpt lat="40.8945583" lon="16.5186383"><ele>420.0</ele><time>2026-05-03T11:12:53.564Z</time></trkpt><trkpt lat="40.89447" lon="16.518635"><ele>420.0</ele><time>2026-05-03T11:12:54.565Z</time></trkpt><trkpt lat="40.8943717" lon="16.5186283"><ele>420.0</ele><time>2026-05-03T11:12:55.564Z</time></trkpt><trkpt lat="40.8942617" lon="16.51862"><ele>420.0</ele><time>2026-05-03T11:12:56.564Z</time></trkpt><trkpt lat="40.8941483" lon="16.518615"><ele>419.75</ele><time>2026-05-03T11:12:57.564Z</time></trkpt><trkpt lat="40.89402" lon="16.5185983"><ele>419.5</ele><time>2026-05-03T11:12:58.565Z</time></trkpt><trkpt lat="40.8939" lon="16.518575"><ele>419.25</ele><time>2026-05-03T11:12:59.565Z</time></trkpt><trkpt lat="40.8937783" lon="16.5185517"><ele>419.0</ele><time>2026-05-03T11:13:00.564Z</time></trkpt><trkpt lat="40.8936583" lon="16.5185267"><ele>419.0</ele><time>2026-05-03T11:13:01.564Z</time></trkpt><trkpt lat="40.8935317" lon="16.5184917"><ele>419.0</ele><time>2026-05-03T11:13:02.564Z</time></trkpt><trkpt lat="40.8933983" lon="16.51846"><ele>419.0</ele><time>2026-05-03T11:13:03.564Z</time></trkpt><trkpt lat="40.8932617" lon="16.518435"><ele>419.0</ele><time>2026-05-03T11:13:04.564Z</time></trkpt><trkpt lat="40.8931267" lon="16.518415"><ele>419.3333333333333</ele><time>2026-05-03T11:13:05.564Z</time></trkpt><trkpt lat="40.89298" lon="16.51839"><ele>419.66666666666663</ele><time>2026-05-03T11:13:06.565Z</time></trkpt><trkpt lat="40.892825" lon="16.5183667"><ele>420.0</ele><time>2026-05-03T11:13:07.564Z</time></trkpt><trkpt lat="40.8926683" lon="16.5183583"><ele>420.0</ele><time>2026-05-03T11:13:08.564Z</time></trkpt><trkpt lat="40.89251" lon="16.5183383"><ele>420.0</ele><time>2026-05-03T11:13:09.564Z</time></trkpt><trkpt lat="40.8923517" lon="16.5183333"><ele>420.0</ele><time>2026-05-03T11:13:10.565Z</time></trkpt><trkpt lat="40.8921883" lon="16.5183217"><ele>420.0</ele><time>2026-05-03T11:13:11.564Z</time></trkpt><trkpt lat="40.8920183" lon="16.5183117"><ele>420.0</ele><time>2026-05-03T11:13:12.564Z</time></trkpt><trkpt lat="40.891865" lon="16.5183"><ele>420.0</ele><time>2026-05-03T11:13:13.565Z</time></trkpt><trkpt lat="40.8917117" lon="16.5182933"><ele>419.75</ele><time>2026-05-03T11:13:14.564Z</time></trkpt><trkpt lat="40.8915767" lon="16.5182883"><ele>419.5</ele><time>2026-05-03T11:13:15.564Z</time></trkpt><trkpt lat="40.8914433" lon="16.5183033"><ele>419.25</ele><time>2026-05-03T11:13:16.564Z</time></trkpt><trkpt lat="40.8913033" lon="16.51831"><ele>419.0</ele><time>2026-05-03T11:13:17.565Z</time></trkpt><trkpt lat="40.8911733" lon="16.5183117"><ele>419.0</ele><time>2026-05-03T11:13:18.564Z</time></trkpt><trkpt lat="40.8910267" lon="16.5183033"><ele>419.0</ele><time>2026-05-03T11:13:19.564Z</time></trkpt><trkpt lat="40.890875" lon="16.51828"><ele>419.0</ele><time>2026-05-03T11:13:20.564Z</time></trkpt><trkpt lat="40.8907283" lon="16.5182617"><ele>419.0</ele><time>2026-05-03T11:13:21.565Z</time></trkpt><trkpt lat="40.8905867" lon="16.5182583"><ele>417.75</ele><time>2026-05-03T11:13:22.564Z</time></trkpt><trkpt lat="40.8904617" lon="16.518255"><ele>416.5</ele><time>2026-05-03T11:13:23.565Z</time></trkpt><trkpt lat="40.890335" lon="16.5182367"><ele>415.25</ele><time>2026-05-03T11:13:24.565Z</time></trkpt><trkpt lat="40.8902133" lon="16.5182"><ele>414.0</ele><time>2026-05-03T11:13:25.565Z</time></trkpt><trkpt lat="40.8900867" lon="16.51819"><ele>413.75</ele><time>2026-05-03T11:13:26.564Z</time></trkpt><trkpt lat="40.8899417" lon="16.51819"><ele>413.5</ele><time>2026-05-03T11:13:27.565Z</time></trkpt><trkpt lat="40.8897983" lon="16.5181767"><ele>413.25</ele><time>2026-05-03T11:13:28.564Z</time></trkpt><trkpt lat="40.88965" lon="16.51816"><ele>413.0</ele><time>2026-05-03T11:13:29.565Z</time></trkpt><trkpt lat="40.889505" lon="16.5181533"><ele>413.0</ele><time>2026-05-03T11:13:30.564Z</time></trkpt><trkpt lat="40.8893617" lon="16.5181367"><ele>413.0</ele><time>2026-05-03T11:13:31.564Z</time></trkpt><trkpt lat="40.8892283" lon="16.5181233"><ele>413.0</ele><time>2026-05-03T11:13:32.564Z</time></trkpt><trkpt lat="40.8890933" lon="16.5181217"><ele>413.0</ele><time>2026-05-03T11:13:33.564Z</time></trkpt><trkpt lat="40.8889883" lon="16.5181133"><ele>412.25</ele><time>2026-05-03T11:13:34.564Z</time></trkpt><trkpt lat="40.8888717" lon="16.5181233"><ele>411.5</ele><time>2026-05-03T11:13:35.565Z</time></trkpt><trkpt lat="40.8887533" lon="16.5181417"><ele>410.75</ele><time>2026-05-03T11:13:36.564Z</time></trkpt><trkpt lat="40.8886417" lon="16.5181867"><ele>410.0</ele><time>2026-05-03T11:13:37.564Z</time></trkpt><trkpt lat="40.88853" lon="16.5182417"><ele>409.6</ele><time>2026-05-03T11:13:38.564Z</time></trkpt><trkpt lat="40.8884217" lon="16.5183"><ele>409.2</ele><time>2026-05-03T11:13:39.564Z</time></trkpt><trkpt lat="40.8883233" lon="16.51836"><ele>408.79999999999995</ele><time>2026-05-03T11:13:40.565Z</time></trkpt><trkpt lat="40.888235" lon="16.5184333"><ele>408.4</ele><time>2026-05-03T11:13:41.565Z</time></trkpt><trkpt lat="40.888165" lon="16.5184983"><ele>408.0</ele><time>2026-05-03T11:13:42.564Z</time></trkpt><trkpt lat="40.8881067" lon="16.5185583"><ele>408.0</ele><time>2026-05-03T11:13:43.565Z</time></trkpt><trkpt lat="40.888045" lon="16.518605"><ele>408.0</ele><time>2026-05-03T11:13:44.564Z</time></trkpt><trkpt lat="40.88797" lon="16.518625"><ele>408.0</ele><time>2026-05-03T11:13:45.565Z</time></trkpt><trkpt lat="40.887885" lon="16.5186333"><ele>408.0</ele><time>2026-05-03T11:13:46.564Z</time></trkpt><trkpt lat="40.8877883" lon="16.5186533"><ele>408.0</ele><time>2026-05-03T11:13:47.564Z</time></trkpt><trkpt lat="40.887685" lon="16.518695"><ele>408.0</ele><time>2026-05-03T11:13:48.564Z</time></trkpt><trkpt lat="40.88757" lon="16.51875"><ele>407.5</ele><time>2026-05-03T11:13:49.564Z</time></trkpt><trkpt lat="40.8874567" lon="16.5188017"><ele>407.0</ele><time>2026-05-03T11:13:50.564Z</time></trkpt><trkpt lat="40.8873517" lon="16.5188533"><ele>406.5</ele><time>2026-05-03T11:13:51.564Z</time></trkpt><trkpt lat="40.8872483" lon="16.5189017"><ele>406.0</ele><time>2026-05-03T11:13:52.564Z</time></trkpt><trkpt lat="40.8871367" lon="16.5189517"><ele>406.0</ele><time>2026-05-03T11:13:53.564Z</time></trkpt><trkpt lat="40.8870233" lon="16.5190033"><ele>406.0</ele><time>2026-05-03T11:13:54.564Z</time></trkpt><trkpt lat="40.8869083" lon="16.5190533"><ele>406.0</ele><time>2026-05-03T11:13:55.565Z</time></trkpt><trkpt lat="40.8867933" lon="16.5191083"><ele>406.0</ele><time>2026-05-03T11:13:56.564Z</time></trkpt><trkpt lat="40.88669" lon="16.519155"><ele>405.4</ele><time>2026-05-03T11:13:57.564Z</time></trkpt><trkpt lat="40.8865983" lon="16.5191967"><ele>404.8</ele><time>2026-05-03T11:13:58.565Z</time></trkpt><trkpt lat="40.8865283" lon="16.5192233"><ele>404.2</ele><time>2026-05-03T11:13:59.564Z</time></trkpt><trkpt lat="40.8864317" lon="16.5192683"><ele>403.59999999999997</ele><time>2026-05-03T11:14:01.564Z</time></trkpt><trkpt lat="40.8863467" lon="16.5192983"><ele>403.0</ele><time>2026-05-03T11:14:03.565Z</time></trkpt><trkpt lat="40.88626" lon="16.5193433"><ele>403.00000000000006</ele><time>2026-05-03T11:14:05.564Z</time></trkpt><trkpt lat="40.8861383" lon="16.5194083"><ele>403.0</ele><time>2026-05-03T11:14:07.565Z</time></trkpt><trkpt lat="40.8860717" lon="16.5194517"><ele>403.0</ele><time>2026-05-03T11:14:08.564Z</time></trkpt><trkpt lat="40.8859983" lon="16.51949"><ele>403.0</ele><time>2026-05-03T11:14:09.564Z</time></trkpt><trkpt lat="40.8859267" lon="16.519525"><ele>403.00000000000006</ele><time>2026-05-03T11:14:10.565Z</time></trkpt><trkpt lat="40.8858533" lon="16.5195633"><ele>403.0</ele><time>2026-05-03T11:14:11.564Z</time></trkpt><trkpt lat="40.8857833" lon="16.5195983"><ele>403.00000000000006</ele><time>2026-05-03T11:14:12.565Z</time></trkpt><trkpt lat="40.8857217" lon="16.5196433"><ele>403.0</ele><time>2026-05-03T11:14:13.564Z</time></trkpt><trkpt lat="40.8856117" lon="16.5197067"><ele>403.0</ele><time>2026-05-03T11:14:15.564Z</time></trkpt><trkpt lat="40.8855483" lon="16.5197267"><ele>403.0</ele><time>2026-05-03T11:14:16.565Z</time></trkpt><trkpt lat="40.8854683" lon="16.5197317"><ele>403.00000000000006</ele><time>2026-05-03T11:14:17.565Z</time></trkpt><trkpt lat="40.885385" lon="16.5197317"><ele>403.0</ele><time>2026-05-03T11:14:18.564Z</time></trkpt><trkpt lat="40.8853117" lon="16.519745"><ele>403.00000000000006</ele><time>2026-05-03T11:14:19.564Z</time></trkpt><trkpt lat="40.8852483" lon="16.519765"><ele>403.0</ele><time>2026-05-03T11:14:20.565Z</time></trkpt><trkpt lat="40.8851567" lon="16.5197983"><ele>403.0</ele><time>2026-05-03T11:14:22.565Z</time></trkpt><trkpt lat="40.885235" lon="16.519785"><ele>403.0</ele><time>2026-05-03T11:14:37.564Z</time></trkpt><trkpt lat="40.885305" lon="16.5197533"><ele>403.00000000000006</ele><time>2026-05-03T11:14:38.564Z</time></trkpt><trkpt lat="40.88539" lon="16.519725"><ele>403.0</ele><time>2026-05-03T11:14:39.564Z</time></trkpt><trkpt lat="40.88549" lon="16.5197"><ele>403.0</ele><time>2026-05-03T11:14:40.564Z</time></trkpt><trkpt lat="40.8855933" lon="16.5196783"><ele>403.0</ele><time>2026-05-03T11:14:41.564Z</time></trkpt><trkpt lat="40.8856983" lon="16.519635"><ele>403.0</ele><time>2026-05-03T11:14:42.564Z</time></trkpt><trkpt lat="40.8858067" lon="16.51958"><ele>403.0</ele><time>2026-05-03T11:14:43.564Z</time></trkpt><trkpt lat="40.8859183" lon="16.5195233"><ele>403.0</ele><time>2026-05-03T11:14:44.565Z</time></trkpt><trkpt lat="40.886025" lon="16.519465"><ele>403.0</ele><time>2026-05-03T11:14:45.565Z</time></trkpt><trkpt lat="40.8861317" lon="16.5194167"><ele>403.0</ele><time>2026-05-03T11:14:46.564Z</time></trkpt><trkpt lat="40.8862217" lon="16.5193717"><ele>403.0</ele><time>2026-05-03T11:14:47.564Z</time></trkpt><trkpt lat="40.8863167" lon="16.519335"><ele>403.0</ele><time>2026-05-03T11:14:48.564Z</time></trkpt><trkpt lat="40.8864083" lon="16.519285"><ele>403.0</ele><time>2026-05-03T11:14:49.565Z</time></trkpt><trkpt lat="40.8865083" lon="16.5192317"><ele>403.0</ele><time>2026-05-03T11:14:50.564Z</time></trkpt><trkpt lat="40.8866183" lon="16.5191817"><ele>403.0</ele><time>2026-05-03T11:14:51.564Z</time></trkpt><trkpt lat="40.8867433" lon="16.519125"><ele>403.0</ele><time>2026-05-03T11:14:52.564Z</time></trkpt><trkpt lat="40.8868733" lon="16.5190683"><ele>403.75</ele><time>2026-05-03T11:14:53.564Z</time></trkpt><trkpt lat="40.8870033" lon="16.5190167"><ele>404.5</ele><time>2026-05-03T11:14:54.565Z</time></trkpt><trkpt lat="40.887125" lon="16.518965"><ele>405.25</ele><time>2026-05-03T11:14:55.564Z</time></trkpt><trkpt lat="40.8872483" lon="16.5189133"><ele>406.0</ele><time>2026-05-03T11:14:56.564Z</time></trkpt><trkpt lat="40.8873717" lon="16.51886"><ele>406.0</ele><time>2026-05-03T11:14:57.564Z</time></trkpt><trkpt lat="40.8874933" lon="16.5188067"><ele>406.0</ele><time>2026-05-03T11:14:58.565Z</time></trkpt><trkpt lat="40.8876017" lon="16.5187533"><ele>406.0</ele><time>2026-05-03T11:14:59.564Z</time></trkpt><trkpt lat="40.8877" lon="16.518705"><ele>406.0</ele><time>2026-05-03T11:15:00.565Z</time></trkpt><trkpt lat="40.88779" lon="16.5186633"><ele>406.0</ele><time>2026-05-03T11:15:01.564Z</time></trkpt><trkpt lat="40.8878817" lon="16.518625"><ele>406.2857142857143</ele><time>2026-05-03T11:15:02.564Z</time></trkpt><trkpt lat="40.8879583" lon="16.5186067"><ele>406.57142857142856</ele><time>2026-05-03T11:15:03.565Z</time></trkpt><trkpt lat="40.888025" lon="16.5185933"><ele>406.8571428571429</ele><time>2026-05-03T11:15:04.564Z</time></trkpt><trkpt lat="40.88809" lon="16.5185767"><ele>407.1428571428571</ele><time>2026-05-03T11:15:05.564Z</time></trkpt><trkpt lat="40.8881483" lon="16.5185367"><ele>407.42857142857144</ele><time>2026-05-03T11:15:06.564Z</time></trkpt><trkpt lat="40.888205" lon="16.5184817"><ele>407.7142857142857</ele><time>2026-05-03T11:15:07.564Z</time></trkpt><trkpt lat="40.88826" lon="16.5184283"><ele>408.0</ele><time>2026-05-03T11:15:08.564Z</time></trkpt><trkpt lat="40.8883183" lon="16.5183567"><ele>408.0</ele><time>2026-05-03T11:15:10.564Z</time></trkpt><trkpt lat="40.8882817" lon="16.5182717"><ele>408.0</ele><time>2026-05-03T11:15:12.564Z</time></trkpt><trkpt lat="40.888225" lon="16.5182283"><ele>408.0</ele><time>2026-05-03T11:15:13.564Z</time></trkpt><trkpt lat="40.8881467" lon="16.51818"><ele>408.0</ele><time>2026-05-03T11:15:14.565Z</time></trkpt><trkpt lat="40.8880517" lon="16.5181467"><ele>408.0</ele><time>2026-05-03T11:15:15.564Z</time></trkpt><trkpt lat="40.8879267" lon="16.51813"><ele>408.0</ele><time>2026-05-03T11:15:16.564Z</time></trkpt><trkpt lat="40.887795" lon="16.5181333"><ele>408.0</ele><time>2026-05-03T11:15:17.565Z</time></trkpt><trkpt lat="40.8876617" lon="16.5181383"><ele>408.0</ele><time>2026-05-03T11:15:18.565Z</time></trkpt><trkpt lat="40.8875333" lon="16.5181467"><ele>408.0</ele><time>2026-05-03T11:15:19.564Z</time></trkpt><trkpt lat="40.887405" lon="16.51815"><ele>407.75</ele><time>2026-05-03T11:15:20.564Z</time></trkpt><trkpt lat="40.887275" lon="16.5181567"><ele>407.5</ele><time>2026-05-03T11:15:21.564Z</time></trkpt><trkpt lat="40.8871433" lon="16.5181517"><ele>407.25</ele><time>2026-05-03T11:15:22.564Z</time></trkpt><trkpt lat="40.887005" lon="16.5181333"><ele>407.0</ele><time>2026-05-03T11:15:23.564Z</time></trkpt><trkpt lat="40.8868767" lon="16.5181017"><ele>406.5</ele><time>2026-05-03T11:15:24.564Z</time></trkpt><trkpt lat="40.8867583" lon="16.5180833"><ele>406.0</ele><time>2026-05-03T11:15:25.564Z</time></trkpt><trkpt lat="40.8866433" lon="16.5180567"><ele>405.5</ele><time>2026-05-03T11:15:26.565Z</time></trkpt><trkpt lat="40.886525" lon="16.518025"><ele>405.0</ele><time>2026-05-03T11:15:27.564Z</time></trkpt><trkpt lat="40.8863933" lon="16.5180183"><ele>405.0</ele><time>2026-05-03T11:15:28.565Z</time></trkpt><trkpt lat="40.8862517" lon="16.51802"><ele>405.0</ele><time>2026-05-03T11:15:29.565Z</time></trkpt><trkpt lat="40.88611" lon="16.518015"><ele>405.0</ele><time>2026-05-03T11:15:30.564Z</time></trkpt><trkpt lat="40.8859767" lon="16.5179917"><ele>405.0</ele><time>2026-05-03T11:15:31.565Z</time></trkpt><trkpt lat="40.8858517" lon="16.5179733"><ele>405.0</ele><time>2026-05-03T11:15:32.564Z</time></trkpt><trkpt lat="40.885735" lon="16.5179667"><ele>405.0</ele><time>2026-05-03T11:15:33.565Z</time></trkpt><trkpt lat="40.8856317" lon="16.517945"><ele>405.0</ele><time>2026-05-03T11:15:34.564Z</time></trkpt><trkpt lat="40.8855333" lon="16.5179117"><ele>405.0</ele><time>2026-05-03T11:15:35.564Z</time></trkpt><trkpt lat="40.88543" lon="16.517865"><ele>405.0</ele><time>2026-05-03T11:15:36.564Z</time></trkpt><trkpt lat="40.8853383" lon="16.5178017"><ele>405.0</ele><time>2026-05-03T11:15:37.564Z</time></trkpt><trkpt lat="40.885255" lon="16.51772"><ele>405.0</ele><time>2026-05-03T11:15:38.564Z</time></trkpt><trkpt lat="40.8851717" lon="16.5176183"><ele>405.0</ele><time>2026-05-03T11:15:39.564Z</time></trkpt><trkpt lat="40.8850983" lon="16.5174967"><ele>405.0</ele><time>2026-05-03T11:15:40.564Z</time></trkpt><trkpt lat="40.8850267" lon="16.5173817"><ele>405.0</ele><time>2026-05-03T11:15:41.564Z</time></trkpt><trkpt lat="40.8849583" lon="16.5172817"><ele>404.6</ele><time>2026-05-03T11:15:42.564Z</time></trkpt><trkpt lat="40.884885" lon="16.5172"><ele>404.2</ele><time>2026-05-03T11:15:43.564Z</time></trkpt><trkpt lat="40.884795" lon="16.5171383"><ele>403.79999999999995</ele><time>2026-05-03T11:15:44.564Z</time></trkpt><trkpt lat="40.8847117" lon="16.5170817"><ele>403.4</ele><time>2026-05-03T11:15:45.565Z</time></trkpt><trkpt lat="40.88463" lon="16.5170217"><ele>403.0</ele><time>2026-05-03T11:15:46.565Z</time></trkpt><trkpt lat="40.8845467" lon="16.5169617"><ele>403.0</ele><time>2026-05-03T11:15:47.564Z</time></trkpt><trkpt lat="40.8844733" lon="16.5168817"><ele>403.0</ele><time>2026-05-03T11:15:48.565Z</time></trkpt><trkpt lat="40.8843933" lon="16.516795"><ele>403.0</ele><time>2026-05-03T11:15:49.564Z</time></trkpt><trkpt lat="40.884295" lon="16.5167167"><ele>403.0</ele><time>2026-05-03T11:15:50.564Z</time></trkpt><trkpt lat="40.8841833" lon="16.5166283"><ele>403.0</ele><time>2026-05-03T11:15:51.564Z</time></trkpt><trkpt lat="40.8840733" lon="16.5165233"><ele>403.0</ele><time>2026-05-03T11:15:52.565Z</time></trkpt><trkpt lat="40.88396" lon="16.51642"><ele>403.0</ele><time>2026-05-03T11:15:53.564Z</time></trkpt><trkpt lat="40.8838367" lon="16.5163267"><ele>403.0</ele><time>2026-05-03T11:15:54.564Z</time></trkpt><trkpt lat="40.883705" lon="16.5162333"><ele>403.0</ele><time>2026-05-03T11:15:55.565Z</time></trkpt><trkpt lat="40.8835783" lon="16.516135"><ele>403.0</ele><time>2026-05-03T11:15:56.565Z</time></trkpt><trkpt lat="40.8834517" lon="16.5160317"><ele>403.0</ele><time>2026-05-03T11:15:57.564Z</time></trkpt><trkpt lat="40.8833183" lon="16.5159367"><ele>403.0</ele><time>2026-05-03T11:15:58.565Z</time></trkpt><trkpt lat="40.8832033" lon="16.515835"><ele>403.0</ele><time>2026-05-03T11:15:59.565Z</time></trkpt><trkpt lat="40.8830933" lon="16.515745"><ele>403.0</ele><time>2026-05-03T11:16:00.564Z</time></trkpt><trkpt lat="40.882985" lon="16.5156583"><ele>403.0</ele><time>2026-05-03T11:16:01.564Z</time></trkpt><trkpt lat="40.882875" lon="16.515565"><ele>403.0</ele><time>2026-05-03T11:16:02.564Z</time></trkpt><trkpt lat="40.8827783" lon="16.5154517"><ele>403.0</ele><time>2026-05-03T11:16:03.564Z</time></trkpt><trkpt lat="40.88268" lon="16.5153283"><ele>403.0</ele><time>2026-05-03T11:16:04.564Z</time></trkpt><trkpt lat="40.88258" lon="16.5151967"><ele>403.0</ele><time>2026-05-03T11:16:05.565Z</time></trkpt><trkpt lat="40.8824767" lon="16.5150433"><ele>403.0</ele><time>2026-05-03T11:16:06.564Z</time></trkpt><trkpt lat="40.8823717" lon="16.5148933"><ele>403.0</ele><time>2026-05-03T11:16:07.565Z</time></trkpt><trkpt lat="40.882265" lon="16.514755"><ele>403.0</ele><time>2026-05-03T11:16:08.564Z</time></trkpt><trkpt lat="40.882155" lon="16.51461"><ele>403.0</ele><time>2026-05-03T11:16:09.565Z</time></trkpt><trkpt lat="40.8820467" lon="16.514465"><ele>403.0</ele><time>2026-05-03T11:16:10.564Z</time></trkpt><trkpt lat="40.881935" lon="16.5143217"><ele>403.0</ele><time>2026-05-03T11:16:11.564Z</time></trkpt><trkpt lat="40.8818267" lon="16.5141833"><ele>403.0</ele><time>2026-05-03T11:16:12.565Z</time></trkpt><trkpt lat="40.88173" lon="16.51407"><ele>403.0</ele><time>2026-05-03T11:16:13.565Z</time></trkpt><trkpt lat="40.8816317" lon="16.513965"><ele>403.0</ele><time>2026-05-03T11:16:14.564Z</time></trkpt><trkpt lat="40.88153" lon="16.5138633"><ele>403.0</ele><time>2026-05-03T11:16:15.565Z</time></trkpt><trkpt lat="40.881435" lon="16.5137533"><ele>403.0</ele><time>2026-05-03T11:16:16.564Z</time></trkpt><trkpt lat="40.8813517" lon="16.5136217"><ele>403.0</ele><time>2026-05-03T11:16:17.565Z</time></trkpt><trkpt lat="40.8812717" lon="16.5134967"><ele>403.0</ele><time>2026-05-03T11:16:18.564Z</time></trkpt><trkpt lat="40.8811917" lon="16.51338"><ele>403.0</ele><time>2026-05-03T11:16:19.564Z</time></trkpt><trkpt lat="40.8811067" lon="16.5132717"><ele>403.0</ele><time>2026-05-03T11:16:20.565Z</time></trkpt><trkpt lat="40.8810183" lon="16.5131717"><ele>403.0</ele><time>2026-05-03T11:16:21.564Z</time></trkpt><trkpt lat="40.880915" lon="16.5130833"><ele>403.0</ele><time>2026-05-03T11:16:22.564Z</time></trkpt><trkpt lat="40.8807967" lon="16.51301"><ele>403.0</ele><time>2026-05-03T11:16:23.564Z</time></trkpt><trkpt lat="40.8806733" lon="16.5129417"><ele>403.0</ele><time>2026-05-03T11:16:24.564Z</time></trkpt><trkpt lat="40.8805433" lon="16.51289"><ele>403.0</ele><time>2026-05-03T11:16:25.564Z</time></trkpt><trkpt lat="40.88042" lon="16.512855"><ele>402.59999999999997</ele><time>2026-05-03T11:16:26.565Z</time></trkpt><trkpt lat="40.8803067" lon="16.512815"><ele>402.2</ele><time>2026-05-03T11:16:27.565Z</time></trkpt><trkpt lat="40.8802033" lon="16.5127517"><ele>401.8</ele><time>2026-05-03T11:16:28.564Z</time></trkpt><trkpt lat="40.8801067" lon="16.51268"><ele>401.4</ele><time>2026-05-03T11:16:29.564Z</time></trkpt><trkpt lat="40.880025" lon="16.5126"><ele>401.0</ele><time>2026-05-03T11:16:30.564Z</time></trkpt><trkpt lat="40.8799633" lon="16.5125317"><ele>401.0</ele><time>2026-05-03T11:16:31.564Z</time></trkpt><trkpt lat="40.8798883" lon="16.5124333"><ele>401.0</ele><time>2026-05-03T11:16:33.564Z</time></trkpt><trkpt lat="40.8798917" lon="16.5123333"><ele>401.0</ele><time>2026-05-03T11:16:36.564Z</time></trkpt><trkpt lat="40.87999" lon="16.5122733"><ele>401.0</ele><time>2026-05-03T11:16:38.565Z</time></trkpt><trkpt lat="40.880055" lon="16.5122517"><ele>401.0</ele><time>2026-05-03T11:16:39.564Z</time></trkpt><trkpt lat="40.88015" lon="16.5122367"><ele>400.8</ele><time>2026-05-03T11:16:41.564Z</time></trkpt><trkpt lat="40.8800333" lon="16.5122517"><ele>400.6</ele><time>2026-05-03T11:16:55.564Z</time></trkpt><trkpt lat="40.8799517" lon="16.5122883"><ele>400.4</ele><time>2026-05-03T11:16:56.565Z</time></trkpt><trkpt lat="40.879855" lon="16.5123217"><ele>400.2</ele><time>2026-05-03T11:16:57.565Z</time></trkpt><trkpt lat="40.87977" lon="16.51234"><ele>400.0</ele><time>2026-05-03T11:16:58.565Z</time></trkpt><trkpt lat="40.8796967" lon="16.5123367"><ele>400.0</ele><time>2026-05-03T11:16:59.564Z</time></trkpt><trkpt lat="40.8795967" lon="16.512255"><ele>400.0</ele><time>2026-05-03T11:17:01.565Z</time></trkpt><trkpt lat="40.8795467" lon="16.5121967"><ele>400.0</ele><time>2026-05-03T11:17:02.564Z</time></trkpt><trkpt lat="40.8794883" lon="16.5121367"><ele>400.0</ele><time>2026-05-03T11:17:03.564Z</time></trkpt><trkpt lat="40.879405" lon="16.5120633"><ele>400.0</ele><time>2026-05-03T11:17:04.565Z</time></trkpt><trkpt lat="40.879305" lon="16.511985"><ele>400.0</ele><time>2026-05-03T11:17:05.564Z</time></trkpt><trkpt lat="40.8791983" lon="16.5119"><ele>400.0</ele><time>2026-05-03T11:17:06.564Z</time></trkpt><trkpt lat="40.879095" lon="16.5118033"><ele>400.0</ele><time>2026-05-03T11:17:07.565Z</time></trkpt><trkpt lat="40.878985" lon="16.5117017"><ele>400.0</ele><time>2026-05-03T11:17:08.565Z</time></trkpt><trkpt lat="40.8788833" lon="16.511625"><ele>400.0</ele><time>2026-05-03T11:17:09.564Z</time></trkpt><trkpt lat="40.878785" lon="16.51154"><ele>400.0</ele><time>2026-05-03T11:17:10.565Z</time></trkpt><trkpt lat="40.8786883" lon="16.51146"><ele>400.0</ele><time>2026-05-03T11:17:11.564Z</time></trkpt><trkpt lat="40.8785933" lon="16.511385"><ele>400.0</ele><time>2026-05-03T11:17:12.565Z</time></trkpt><trkpt lat="40.8785083" lon="16.5113167"><ele>400.0</ele><time>2026-05-03T11:17:13.565Z</time></trkpt><trkpt lat="40.8784233" lon="16.5112533"><ele>399.8</ele><time>2026-05-03T11:17:14.564Z</time></trkpt><trkpt lat="40.8783383" lon="16.5111817"><ele>399.6</ele><time>2026-05-03T11:17:15.564Z</time></trkpt><trkpt lat="40.8782533" lon="16.51111"><ele>399.4</ele><time>2026-05-03T11:17:16.565Z</time></trkpt><trkpt lat="40.8781633" lon="16.51103"><ele>399.2</ele><time>2026-05-03T11:17:17.565Z</time></trkpt><trkpt lat="40.878065" lon="16.51096"><ele>399.0</ele><time>2026-05-03T11:17:18.564Z</time></trkpt><trkpt lat="40.87797" lon="16.51088"><ele>399.0</ele><time>2026-05-03T11:17:19.564Z</time></trkpt><trkpt lat="40.8778683" lon="16.510805"><ele>399.0</ele><time>2026-05-03T11:17:20.564Z</time></trkpt><trkpt lat="40.8777667" lon="16.51072"><ele>399.0</ele><time>2026-05-03T11:17:21.565Z</time></trkpt><trkpt lat="40.877655" lon="16.5106317"><ele>399.0</ele><time>2026-05-03T11:17:22.564Z</time></trkpt><trkpt lat="40.8775567" lon="16.510545"><ele>398.79999999999995</ele><time>2026-05-03T11:17:23.565Z</time></trkpt><trkpt lat="40.8774617" lon="16.51047"><ele>398.59999999999997</ele><time>2026-05-03T11:17:24.564Z</time></trkpt><trkpt lat="40.87736" lon="16.5103933"><ele>398.4</ele><time>2026-05-03T11:17:25.564Z</time></trkpt><trkpt lat="40.877275" lon="16.5103083"><ele>398.2</ele><time>2026-05-03T11:17:26.564Z</time></trkpt><trkpt lat="40.8771883" lon="16.510215"><ele>398.0</ele><time>2026-05-03T11:17:27.565Z</time></trkpt><trkpt lat="40.877095" lon="16.510125"><ele>398.0</ele><time>2026-05-03T11:17:28.564Z</time></trkpt><trkpt lat="40.877" lon="16.5100317"><ele>398.0</ele><time>2026-05-03T11:17:29.564Z</time></trkpt><trkpt lat="40.8769067" lon="16.5099367"><ele>398.0</ele><time>2026-05-03T11:17:30.564Z</time></trkpt><trkpt lat="40.87682" lon="16.50985"><ele>398.0</ele><time>2026-05-03T11:17:31.564Z</time></trkpt><trkpt lat="40.8767383" lon="16.5097667"><ele>398.0</ele><time>2026-05-03T11:17:32.564Z</time></trkpt><trkpt lat="40.8766517" lon="16.5096933"><ele>398.16666666666663</ele><time>2026-05-03T11:17:33.564Z</time></trkpt><trkpt lat="40.8765717" lon="16.509625"><ele>398.3333333333333</ele><time>2026-05-03T11:17:34.564Z</time></trkpt><trkpt lat="40.8764917" lon="16.509575"><ele>398.5</ele><time>2026-05-03T11:17:35.564Z</time></trkpt><trkpt lat="40.8764133" lon="16.509555"><ele>398.66666666666663</ele><time>2026-05-03T11:17:36.565Z</time></trkpt><trkpt lat="40.8763417" lon="16.5095583"><ele>398.8333333333333</ele><time>2026-05-03T11:17:37.564Z</time></trkpt><trkpt lat="40.87624" lon="16.5095867"><ele>399.0</ele><time>2026-05-03T11:17:39.564Z</time></trkpt><trkpt lat="40.8761567" lon="16.5095017"><ele>399.2</ele><time>2026-05-03T11:17:42.564Z</time></trkpt><trkpt lat="40.8761383" lon="16.50941"><ele>399.4</ele><time>2026-05-03T11:17:43.564Z</time></trkpt><trkpt lat="40.8761083" lon="16.5092983"><ele>399.6</ele><time>2026-05-03T11:17:44.564Z</time></trkpt><trkpt lat="40.87606" lon="16.509185"><ele>399.8</ele><time>2026-05-03T11:17:45.565Z</time></trkpt><trkpt lat="40.8759983" lon="16.5090633"><ele>400.0</ele><time>2026-05-03T11:17:46.564Z</time></trkpt><trkpt lat="40.8759317" lon="16.5089333"><ele>400.0</ele><time>2026-05-03T11:17:47.564Z</time></trkpt><trkpt lat="40.875865" lon="16.508785"><ele>400.0</ele><time>2026-05-03T11:17:48.564Z</time></trkpt><trkpt lat="40.8757917" lon="16.5086317"><ele>400.0</ele><time>2026-05-03T11:17:49.565Z</time></trkpt><trkpt lat="40.8757133" lon="16.5084733"><ele>400.0</ele><time>2026-05-03T11:17:50.564Z</time></trkpt><trkpt lat="40.8756333" lon="16.508305"><ele>400.6666666666667</ele><time>2026-05-03T11:17:51.565Z</time></trkpt><trkpt lat="40.8755483" lon="16.5081317"><ele>401.33333333333337</ele><time>2026-05-03T11:17:52.564Z</time></trkpt><trkpt lat="40.87546" lon="16.50795"><ele>402.0</ele><time>2026-05-03T11:17:53.564Z</time></trkpt><trkpt lat="40.8753717" lon="16.5077533"><ele>402.0</ele><time>2026-05-03T11:17:54.564Z</time></trkpt><trkpt lat="40.8752733" lon="16.5075517"><ele>402.0</ele><time>2026-05-03T11:17:55.564Z</time></trkpt><trkpt lat="40.8751733" lon="16.5073483"><ele>402.0</ele><time>2026-05-03T11:17:56.564Z</time></trkpt><trkpt lat="40.8750667" lon="16.507135"><ele>401.66666666666663</ele><time>2026-05-03T11:17:57.564Z</time></trkpt><trkpt lat="40.8749667" lon="16.506925"><ele>401.3333333333333</ele><time>2026-05-03T11:17:58.564Z</time></trkpt><trkpt lat="40.8748683" lon="16.50671"><ele>401.0</ele><time>2026-05-03T11:17:59.564Z</time></trkpt><trkpt lat="40.87478" lon="16.5064983"><ele>401.0</ele><time>2026-05-03T11:18:00.564Z</time></trkpt><trkpt lat="40.874685" lon="16.506295"><ele>401.0</ele><time>2026-05-03T11:18:01.564Z</time></trkpt><trkpt lat="40.8745883" lon="16.506095"><ele>401.0</ele><time>2026-05-03T11:18:02.564Z</time></trkpt><trkpt lat="40.874495" lon="16.5058867"><ele>401.3333333333333</ele><time>2026-05-03T11:18:03.564Z</time></trkpt><trkpt lat="40.8744117" lon="16.5056567"><ele>401.66666666666663</ele><time>2026-05-03T11:18:04.564Z</time></trkpt><trkpt lat="40.87433" lon="16.5054217"><ele>402.0</ele><time>2026-05-03T11:18:05.564Z</time></trkpt><trkpt lat="40.8742517" lon="16.50518"><ele>401.33333333333337</ele><time>2026-05-03T11:18:06.564Z</time></trkpt><trkpt lat="40.8741717" lon="16.5049467"><ele>400.6666666666667</ele><time>2026-05-03T11:18:07.564Z</time></trkpt><trkpt lat="40.8740883" lon="16.504705"><ele>400.0</ele><time>2026-05-03T11:18:08.564Z</time></trkpt><trkpt lat="40.8739967" lon="16.50447"><ele>400.0</ele><time>2026-05-03T11:18:09.565Z</time></trkpt><trkpt lat="40.87391" lon="16.5042367"><ele>400.0</ele><time>2026-05-03T11:18:10.564Z</time></trkpt><trkpt lat="40.87382" lon="16.5039983"><ele>400.0</ele><time>2026-05-03T11:18:11.565Z</time></trkpt><trkpt lat="40.8737367" lon="16.503765"><ele>399.6666666666667</ele><time>2026-05-03T11:18:12.564Z</time></trkpt><trkpt lat="40.8736567" lon="16.5035267"><ele>399.33333333333337</ele><time>2026-05-03T11:18:13.565Z</time></trkpt><trkpt lat="40.873575" lon="16.5032883"><ele>399.0</ele><time>2026-05-03T11:18:14.565Z</time></trkpt><trkpt lat="40.8735067" lon="16.50305"><ele>399.0</ele><time>2026-05-03T11:18:15.565Z</time></trkpt><trkpt lat="40.8734417" lon="16.5028083"><ele>399.0</ele><time>2026-05-03T11:18:16.564Z</time></trkpt><trkpt lat="40.8733883" lon="16.502565"><ele>399.0</ele><time>2026-05-03T11:18:17.565Z</time></trkpt><trkpt lat="40.8733283" lon="16.5023167"><ele>398.66666666666663</ele><time>2026-05-03T11:18:18.565Z</time></trkpt><trkpt lat="40.8732683" lon="16.5020717"><ele>398.3333333333333</ele><time>2026-05-03T11:18:19.564Z</time></trkpt><trkpt lat="40.8732083" lon="16.5018267"><ele>398.0</ele><time>2026-05-03T11:18:20.564Z</time></trkpt><trkpt lat="40.8731483" lon="16.5015833"><ele>398.0</ele><time>2026-05-03T11:18:21.564Z</time></trkpt><trkpt lat="40.87308" lon="16.5013417"><ele>398.0</ele><time>2026-05-03T11:18:22.565Z</time></trkpt><trkpt lat="40.8730033" lon="16.5011167"><ele>398.0</ele><time>2026-05-03T11:18:23.564Z</time></trkpt><trkpt lat="40.8729267" lon="16.5009067"><ele>397.66666666666663</ele><time>2026-05-03T11:18:24.564Z</time></trkpt><trkpt lat="40.8728583" lon="16.5007067"><ele>397.33333333333337</ele><time>2026-05-03T11:18:25.564Z</time></trkpt><trkpt lat="40.8727917" lon="16.5005217"><ele>397.0</ele><time>2026-05-03T11:18:26.565Z</time></trkpt><trkpt lat="40.8727283" lon="16.5003467"><ele>396.75</ele><time>2026-05-03T11:18:27.564Z</time></trkpt><trkpt lat="40.8726733" lon="16.5001917"><ele>396.5</ele><time>2026-05-03T11:18:28.564Z</time></trkpt><trkpt lat="40.872615" lon="16.5000367"><ele>396.25</ele><time>2026-05-03T11:18:29.564Z</time></trkpt><trkpt lat="40.8725633" lon="16.4998933"><ele>396.0</ele><time>2026-05-03T11:18:30.564Z</time></trkpt><trkpt lat="40.8725133" lon="16.4997567"><ele>396.0</ele><time>2026-05-03T11:18:31.564Z</time></trkpt><trkpt lat="40.87247" lon="16.4996417"><ele>396.0</ele><time>2026-05-03T11:18:32.564Z</time></trkpt><trkpt lat="40.8724267" lon="16.4995267"><ele>396.0</ele><time>2026-05-03T11:18:33.565Z</time></trkpt><trkpt lat="40.8723917" lon="16.4994267"><ele>396.0</ele><time>2026-05-03T11:18:34.564Z</time></trkpt><trkpt lat="40.8723483" lon="16.4993183"><ele>396.0</ele><time>2026-05-03T11:18:35.564Z</time></trkpt><trkpt lat="40.8723067" lon="16.4992067"><ele>396.0</ele><time>2026-05-03T11:18:36.565Z</time></trkpt><trkpt lat="40.8722717" lon="16.4990933"><ele>396.0</ele><time>2026-05-03T11:18:37.565Z</time></trkpt><trkpt lat="40.8722333" lon="16.4989833"><ele>396.0</ele><time>2026-05-03T11:18:38.565Z</time></trkpt><trkpt lat="40.87219" lon="16.498865"><ele>396.0</ele><time>2026-05-03T11:18:39.565Z</time></trkpt><trkpt lat="40.872145" lon="16.498745"><ele>396.0</ele><time>2026-05-03T11:18:40.564Z</time></trkpt><trkpt lat="40.87209" lon="16.498615"><ele>395.8</ele><time>2026-05-03T11:18:41.565Z</time></trkpt><trkpt lat="40.872035" lon="16.498475"><ele>395.6</ele><time>2026-05-03T11:18:42.565Z</time></trkpt><trkpt lat="40.8719883" lon="16.49834"><ele>395.4</ele><time>2026-05-03T11:18:43.564Z</time></trkpt><trkpt lat="40.87195" lon="16.4982217"><ele>395.2</ele><time>2026-05-03T11:18:44.564Z</time></trkpt><trkpt lat="40.87192" lon="16.4981233"><ele>395.0</ele><time>2026-05-03T11:18:45.564Z</time></trkpt><trkpt lat="40.8718933" lon="16.4979767"><ele>394.8</ele><time>2026-05-03T11:18:47.564Z</time></trkpt><trkpt lat="40.87195" lon="16.497865"><ele>394.6</ele><time>2026-05-03T11:18:49.565Z</time></trkpt><trkpt lat="40.8720233" lon="16.4978333"><ele>394.4</ele><time>2026-05-03T11:18:50.564Z</time></trkpt><trkpt lat="40.872115" lon="16.4978083"><ele>394.2</ele><time>2026-05-03T11:18:51.564Z</time></trkpt><trkpt lat="40.8722117" lon="16.4977767"><ele>394.0</ele><time>2026-05-03T11:18:52.564Z</time></trkpt><trkpt lat="40.87231" lon="16.49773"><ele>394.0</ele><time>2026-05-03T11:18:53.564Z</time></trkpt><trkpt lat="40.8724117" lon="16.49766"><ele>394.0</ele><time>2026-05-03T11:18:54.565Z</time></trkpt><trkpt lat="40.8725033" lon="16.4975533"><ele>394.0</ele><time>2026-05-03T11:18:55.564Z</time></trkpt><trkpt lat="40.872595" lon="16.4974367"><ele>394.0</ele><time>2026-05-03T11:18:56.564Z</time></trkpt><trkpt lat="40.8726867" lon="16.4973267"><ele>394.0</ele><time>2026-05-03T11:18:57.564Z</time></trkpt><trkpt lat="40.8727917" lon="16.4972267"><ele>394.0</ele><time>2026-05-03T11:18:58.565Z</time></trkpt><trkpt lat="40.8729167" lon="16.4971383"><ele>394.0</ele><time>2026-05-03T11:18:59.565Z</time></trkpt><trkpt lat="40.8730533" lon="16.4970567"><ele>394.0</ele><time>2026-05-03T11:19:00.565Z</time></trkpt><trkpt lat="40.8732" lon="16.4969683"><ele>394.0</ele><time>2026-05-03T11:19:01.564Z</time></trkpt><trkpt lat="40.8733517" lon="16.4968783"><ele>394.0</ele><time>2026-05-03T11:19:02.564Z</time></trkpt><trkpt lat="40.87351" lon="16.4967867"><ele>394.0</ele><time>2026-05-03T11:19:03.565Z</time></trkpt><trkpt lat="40.8736683" lon="16.496695"><ele>394.6666666666667</ele><time>2026-05-03T11:19:04.564Z</time></trkpt><trkpt lat="40.8738283" lon="16.496595"><ele>395.33333333333337</ele><time>2026-05-03T11:19:05.564Z</time></trkpt><trkpt lat="40.8739917" lon="16.4964933"><ele>396.0</ele><time>2026-05-03T11:19:06.564Z</time></trkpt><trkpt lat="40.8741583" lon="16.4963883"><ele>396.33333333333337</ele><time>2026-05-03T11:19:07.564Z</time></trkpt><trkpt lat="40.87433" lon="16.49629"><ele>396.6666666666667</ele><time>2026-05-03T11:19:08.564Z</time></trkpt><trkpt lat="40.8744967" lon="16.4961883"><ele>397.0</ele><time>2026-05-03T11:19:09.565Z</time></trkpt><trkpt lat="40.87466" lon="16.496095"><ele>397.0</ele><time>2026-05-03T11:19:10.564Z</time></trkpt><trkpt lat="40.8748133" lon="16.496005"><ele>397.0</ele><time>2026-05-03T11:19:11.565Z</time></trkpt><trkpt lat="40.8749533" lon="16.49592"><ele>397.0</ele><time>2026-05-03T11:19:12.564Z</time></trkpt><trkpt lat="40.8750917" lon="16.49584"><ele>397.5</ele><time>2026-05-03T11:19:13.565Z</time></trkpt><trkpt lat="40.8752267" lon="16.49576"><ele>398.0</ele><time>2026-05-03T11:19:14.565Z</time></trkpt><trkpt lat="40.8753483" lon="16.4956883"><ele>398.5</ele><time>2026-05-03T11:19:15.564Z</time></trkpt><trkpt lat="40.8754667" lon="16.4956183"><ele>399.0</ele><time>2026-05-03T11:19:16.564Z</time></trkpt><trkpt lat="40.8755833" lon="16.4955533"><ele>399.0</ele><time>2026-05-03T11:19:17.565Z</time></trkpt><trkpt lat="40.8757033" lon="16.4954883"><ele>399.0</ele><time>2026-05-03T11:19:18.564Z</time></trkpt><trkpt lat="40.8758117" lon="16.4954233"><ele>399.0</ele><time>2026-05-03T11:19:19.564Z</time></trkpt><trkpt lat="40.8759117" lon="16.4953633"><ele>399.0</ele><time>2026-05-03T11:19:20.564Z</time></trkpt><trkpt lat="40.8759867" lon="16.4953167"><ele>399.0</ele><time>2026-05-03T11:19:21.564Z</time></trkpt><trkpt lat="40.8760567" lon="16.4952883"><ele>399.0</ele><time>2026-05-03T11:19:22.564Z</time></trkpt><trkpt lat="40.8761233" lon="16.495285"><ele>399.0</ele><time>2026-05-03T11:19:23.564Z</time></trkpt><trkpt lat="40.8761883" lon="16.4953083"><ele>399.0</ele><time>2026-05-03T11:19:24.564Z</time></trkpt><trkpt lat="40.8762417" lon="16.4953783"><ele>399.0</ele><time>2026-05-03T11:19:25.564Z</time></trkpt><trkpt lat="40.8762783" lon="16.4954817"><ele>399.0</ele><time>2026-05-03T11:19:26.564Z</time></trkpt><trkpt lat="40.8763117" lon="16.4956033"><ele>399.0</ele><time>2026-05-03T11:19:27.564Z</time></trkpt><trkpt lat="40.8763467" lon="16.4957317"><ele>399.5</ele><time>2026-05-03T11:19:28.565Z</time></trkpt><trkpt lat="40.87638" lon="16.4958483"><ele>400.0</ele><time>2026-05-03T11:19:29.565Z</time></trkpt><trkpt lat="40.8764117" lon="16.4959483"><ele>400.5</ele><time>2026-05-03T11:19:30.565Z</time></trkpt><trkpt lat="40.876445" lon="16.4960217"><ele>401.0</ele><time>2026-05-03T11:19:31.564Z</time></trkpt><trkpt lat="40.876435" lon="16.49593"><ele>401.5</ele><time>2026-05-03T11:19:46.565Z</time></trkpt><trkpt lat="40.8764533" lon="16.4958167"><ele>402.0</ele><time>2026-05-03T11:19:49.565Z</time></trkpt><trkpt lat="40.87656" lon="16.4957583"><ele>402.0</ele><time>2026-05-03T11:19:51.564Z</time></trkpt><trkpt lat="40.8766267" lon="16.4957217"><ele>402.0</ele><time>2026-05-03T11:19:52.565Z</time></trkpt><trkpt lat="40.8767083" lon="16.49568"><ele>402.0</ele><time>2026-05-03T11:19:53.565Z</time></trkpt><trkpt lat="40.87679" lon="16.4956283"><ele>402.0</ele><time>2026-05-03T11:19:54.566Z</time></trkpt><trkpt lat="40.8768767" lon="16.4955683"><ele>402.0</ele><time>2026-05-03T11:19:55.566Z</time></trkpt><trkpt lat="40.876975" lon="16.495515"><ele>402.40000000000003</ele><time>2026-05-03T11:19:56.566Z</time></trkpt><trkpt lat="40.8770783" lon="16.495455"><ele>402.8</ele><time>2026-05-03T11:19:57.565Z</time></trkpt><trkpt lat="40.8771783" lon="16.4953933"><ele>403.2</ele><time>2026-05-03T11:19:58.566Z</time></trkpt><trkpt lat="40.8772833" lon="16.4953283"><ele>403.6</ele><time>2026-05-03T11:19:59.565Z</time></trkpt><trkpt lat="40.8773783" lon="16.4952667"><ele>404.0</ele><time>2026-05-03T11:20:00.565Z</time></trkpt><trkpt lat="40.877475" lon="16.4952133"><ele>404.0</ele><time>2026-05-03T11:20:01.566Z</time></trkpt><trkpt lat="40.8775817" lon="16.4951567"><ele>404.0</ele><time>2026-05-03T11:20:02.565Z</time></trkpt><trkpt lat="40.8776817" lon="16.4951"><ele>404.0</ele><time>2026-05-03T11:20:03.566Z</time></trkpt><trkpt lat="40.8777733" lon="16.4950467"><ele>404.0</ele><time>2026-05-03T11:20:04.565Z</time></trkpt><trkpt lat="40.8778533" lon="16.4949933"><ele>404.0</ele><time>2026-05-03T11:20:05.565Z</time></trkpt><trkpt lat="40.87794" lon="16.4949433"><ele>404.4</ele><time>2026-05-03T11:20:06.566Z</time></trkpt><trkpt lat="40.8780283" lon="16.4948967"><ele>404.79999999999995</ele><time>2026-05-03T11:20:07.565Z</time></trkpt><trkpt lat="40.8781033" lon="16.4948417"><ele>405.20000000000005</ele><time>2026-05-03T11:20:08.566Z</time></trkpt><trkpt lat="40.8781733" lon="16.494785"><ele>405.6</ele><time>2026-05-03T11:20:09.565Z</time></trkpt><trkpt lat="40.878245" lon="16.4947083"><ele>406.0</ele><time>2026-05-03T11:20:10.565Z</time></trkpt><trkpt lat="40.8783267" lon="16.4946133"><ele>405.4</ele><time>2026-05-03T11:20:11.566Z</time></trkpt><trkpt lat="40.878395" lon="16.4945133"><ele>404.8</ele><time>2026-05-03T11:20:12.565Z</time></trkpt><trkpt lat="40.8784767" lon="16.494425"><ele>404.2</ele><time>2026-05-03T11:20:13.566Z</time></trkpt><trkpt lat="40.87856" lon="16.49434"><ele>403.59999999999997</ele><time>2026-05-03T11:20:14.566Z</time></trkpt><trkpt lat="40.8786667" lon="16.494275"><ele>403.0</ele><time>2026-05-03T11:20:15.566Z</time></trkpt><trkpt lat="40.8787917" lon="16.49422"><ele>402.75</ele><time>2026-05-03T11:20:16.566Z</time></trkpt><trkpt lat="40.87892" lon="16.4941467"><ele>402.5</ele><time>2026-05-03T11:20:17.566Z</time></trkpt><trkpt lat="40.8790483" lon="16.494065"><ele>402.25</ele><time>2026-05-03T11:20:18.566Z</time></trkpt><trkpt lat="40.8791717" lon="16.4939833"><ele>402.0</ele><time>2026-05-03T11:20:19.565Z</time></trkpt><trkpt lat="40.8792883" lon="16.49392"><ele>402.0</ele><time>2026-05-03T11:20:20.565Z</time></trkpt><trkpt lat="40.879375" lon="16.4938683"><ele>402.0</ele><time>2026-05-03T11:20:21.566Z</time></trkpt><trkpt lat="40.8794433" lon="16.4938183"><ele>402.0</ele><time>2026-05-03T11:20:22.565Z</time></trkpt><trkpt lat="40.8795033" lon="16.4937883"><ele>402.0</ele><time>2026-05-03T11:20:23.566Z</time></trkpt><trkpt lat="40.879615" lon="16.4937983"><ele>402.0</ele><time>2026-05-03T11:20:25.566Z</time></trkpt><trkpt lat="40.8796667" lon="16.49385"><ele>402.0</ele><time>2026-05-03T11:20:26.565Z</time></trkpt><trkpt lat="40.879705" lon="16.4939367"><ele>402.0</ele><time>2026-05-03T11:20:27.566Z</time></trkpt><trkpt lat="40.8797367" lon="16.494045"><ele>402.0</ele><time>2026-05-03T11:20:28.565Z</time></trkpt><trkpt lat="40.87977" lon="16.49418"><ele>402.0</ele><time>2026-05-03T11:20:29.565Z</time></trkpt><trkpt lat="40.8798017" lon="16.4943317"><ele>402.0</ele><time>2026-05-03T11:20:30.566Z</time></trkpt><trkpt lat="40.879845" lon="16.4944817"><ele>402.0</ele><time>2026-05-03T11:20:31.566Z</time></trkpt><trkpt lat="40.8798917" lon="16.49462"><ele>402.0</ele><time>2026-05-03T11:20:32.565Z</time></trkpt><trkpt lat="40.8799283" lon="16.49475"><ele>402.0</ele><time>2026-05-03T11:20:33.565Z</time></trkpt><trkpt lat="40.8799633" lon="16.4948617"><ele>402.0</ele><time>2026-05-03T11:20:34.566Z</time></trkpt><trkpt lat="40.87999" lon="16.4949483"><ele>402.0</ele><time>2026-05-03T11:20:35.565Z</time></trkpt><trkpt lat="40.8800767" lon="16.4950483"><ele>402.0</ele><time>2026-05-03T11:20:37.565Z</time></trkpt><trkpt lat="40.8801867" lon="16.4950333"><ele>402.0</ele><time>2026-05-03T11:20:39.565Z</time></trkpt><trkpt lat="40.8802517" lon="16.4949733"><ele>402.0</ele><time>2026-05-03T11:20:40.566Z</time></trkpt><trkpt lat="40.8803383" lon="16.4948933"><ele>402.0</ele><time>2026-05-03T11:20:41.565Z</time></trkpt><trkpt lat="40.880445" lon="16.4948133"><ele>402.0</ele><time>2026-05-03T11:20:42.565Z</time></trkpt><trkpt lat="40.88056" lon="16.4947367"><ele>402.0</ele><time>2026-05-03T11:20:43.565Z</time></trkpt><trkpt lat="40.8806817" lon="16.4946533"><ele>402.0</ele><time>2026-05-03T11:20:44.565Z</time></trkpt><trkpt lat="40.8808" lon="16.49458"><ele>402.0</ele><time>2026-05-03T11:20:45.565Z</time></trkpt><trkpt lat="40.88092" lon="16.4944983"><ele>402.0</ele><time>2026-05-03T11:20:46.565Z</time></trkpt><trkpt lat="40.88105" lon="16.4944167"><ele>402.0</ele><time>2026-05-03T11:20:47.566Z</time></trkpt><trkpt lat="40.8811767" lon="16.4943283"><ele>402.25</ele><time>2026-05-03T11:20:48.566Z</time></trkpt><trkpt lat="40.88131" lon="16.4942467"><ele>402.5</ele><time>2026-05-03T11:20:49.565Z</time></trkpt><trkpt lat="40.88144" lon="16.494155"><ele>402.75</ele><time>2026-05-03T11:20:50.566Z</time></trkpt><trkpt lat="40.8815767" lon="16.4940667"><ele>403.0</ele><time>2026-05-03T11:20:51.565Z</time></trkpt><trkpt lat="40.8817083" lon="16.4939817"><ele>403.25</ele><time>2026-05-03T11:20:52.566Z</time></trkpt><trkpt lat="40.8818367" lon="16.4939017"><ele>403.5</ele><time>2026-05-03T11:20:53.566Z</time></trkpt><trkpt lat="40.881965" lon="16.4938167"><ele>403.75</ele><time>2026-05-03T11:20:54.565Z</time></trkpt><trkpt lat="40.8820983" lon="16.493735"><ele>404.0</ele><time>2026-05-03T11:20:55.566Z</time></trkpt><trkpt lat="40.882225" lon="16.4936433"><ele>404.3333333333333</ele><time>2026-05-03T11:20:56.565Z</time></trkpt><trkpt lat="40.8823583" lon="16.4935517"><ele>404.66666666666663</ele><time>2026-05-03T11:20:57.566Z</time></trkpt><trkpt lat="40.8824917" lon="16.4934617"><ele>405.0</ele><time>2026-05-03T11:20:58.565Z</time></trkpt><trkpt lat="40.8826283" lon="16.4933733"><ele>405.25</ele><time>2026-05-03T11:20:59.565Z</time></trkpt><trkpt lat="40.8827567" lon="16.49329"><ele>405.5</ele><time>2026-05-03T11:21:00.565Z</time></trkpt><trkpt lat="40.882875" lon="16.493215"><ele>405.75</ele><time>2026-05-03T11:21:01.565Z</time></trkpt><trkpt lat="40.882975" lon="16.493145"><ele>406.0</ele><time>2026-05-03T11:21:02.565Z</time></trkpt><trkpt lat="40.8830683" lon="16.4930833"><ele>406.00000000000006</ele><time>2026-05-03T11:21:03.565Z</time></trkpt><trkpt lat="40.883155" lon="16.4930283"><ele>406.0</ele><time>2026-05-03T11:21:04.566Z</time></trkpt><trkpt lat="40.883235" lon="16.4929867"><ele>406.0</ele><time>2026-05-03T11:21:05.565Z</time></trkpt><trkpt lat="40.8833067" lon="16.492945"><ele>406.0</ele><time>2026-05-03T11:21:06.565Z</time></trkpt><trkpt lat="40.8833617" lon="16.4929033"><ele>406.00000000000006</ele><time>2026-05-03T11:21:07.566Z</time></trkpt><trkpt lat="40.88342" lon="16.4927883"><ele>406.0</ele><time>2026-05-03T11:21:09.565Z</time></trkpt><trkpt lat="40.8833867" lon="16.492655"><ele>406.20000000000005</ele><time>2026-05-03T11:21:11.566Z</time></trkpt><trkpt lat="40.8833583" lon="16.49254"><ele>406.40000000000003</ele><time>2026-05-03T11:21:13.565Z</time></trkpt><trkpt lat="40.8833" lon="16.4924117"><ele>406.6</ele><time>2026-05-03T11:21:15.566Z</time></trkpt><trkpt lat="40.883265" lon="16.4923267"><ele>406.8</ele><time>2026-05-03T11:21:16.565Z</time></trkpt><trkpt lat="40.88323" lon="16.49222"><ele>407.0</ele><time>2026-05-03T11:21:17.565Z</time></trkpt><trkpt lat="40.8831917" lon="16.4920967"><ele>407.0</ele><time>2026-05-03T11:21:18.565Z</time></trkpt><trkpt lat="40.883145" lon="16.4919533"><ele>407.0</ele><time>2026-05-03T11:21:19.565Z</time></trkpt><trkpt lat="40.8830967" lon="16.4917983"><ele>407.0</ele><time>2026-05-03T11:21:20.566Z</time></trkpt><trkpt lat="40.8830483" lon="16.491635"><ele>407.0</ele><time>2026-05-03T11:21:21.566Z</time></trkpt><trkpt lat="40.8829933" lon="16.4914633"><ele>407.0</ele><time>2026-05-03T11:21:22.565Z</time></trkpt><trkpt lat="40.88294" lon="16.4912867"><ele>407.0</ele><time>2026-05-03T11:21:23.565Z</time></trkpt><trkpt lat="40.8828833" lon="16.4911167"><ele>407.0</ele><time>2026-05-03T11:21:24.565Z</time></trkpt><trkpt lat="40.882825" lon="16.49094"><ele>407.0</ele><time>2026-05-03T11:21:25.565Z</time></trkpt><trkpt lat="40.8827683" lon="16.4907733"><ele>407.5</ele><time>2026-05-03T11:21:26.565Z</time></trkpt><trkpt lat="40.8827183" lon="16.4905967"><ele>408.0</ele><time>2026-05-03T11:21:27.565Z</time></trkpt><trkpt lat="40.8826633" lon="16.490425"><ele>408.5</ele><time>2026-05-03T11:21:28.566Z</time></trkpt><trkpt lat="40.88261" lon="16.4902583"><ele>409.0</ele><time>2026-05-03T11:21:29.565Z</time></trkpt><trkpt lat="40.8825633" lon="16.4900883"><ele>409.0</ele><time>2026-05-03T11:21:30.565Z</time></trkpt><trkpt lat="40.8825067" lon="16.4899217"><ele>409.0</ele><time>2026-05-03T11:21:31.565Z</time></trkpt><trkpt lat="40.8824583" lon="16.489765"><ele>409.0</ele><time>2026-05-03T11:21:32.566Z</time></trkpt><trkpt lat="40.88241" lon="16.4895867"><ele>409.0</ele><time>2026-05-03T11:21:33.565Z</time></trkpt><trkpt lat="40.8823567" lon="16.4894333"><ele>409.25</ele><time>2026-05-03T11:21:34.565Z</time></trkpt><trkpt lat="40.8823117" lon="16.4892767"><ele>409.5</ele><time>2026-05-03T11:21:35.566Z</time></trkpt><trkpt lat="40.8822717" lon="16.4891217"><ele>409.75</ele><time>2026-05-03T11:21:36.565Z</time></trkpt><trkpt lat="40.8822217" lon="16.4889667"><ele>410.0</ele><time>2026-05-03T11:21:37.566Z</time></trkpt><trkpt lat="40.8821733" lon="16.4888"><ele>410.25</ele><time>2026-05-03T11:21:38.566Z</time></trkpt><trkpt lat="40.88212" lon="16.488635"><ele>410.5</ele><time>2026-05-03T11:21:39.565Z</time></trkpt><trkpt lat="40.8820583" lon="16.4884583"><ele>410.75</ele><time>2026-05-03T11:21:40.565Z</time></trkpt><trkpt lat="40.8819917" lon="16.48828"><ele>411.0</ele><time>2026-05-03T11:21:41.565Z</time></trkpt><trkpt lat="40.8819283" lon="16.48811"><ele>411.0</ele><time>2026-05-03T11:21:42.565Z</time></trkpt><trkpt lat="40.8818767" lon="16.4879333"><ele>411.0</ele><time>2026-05-03T11:21:43.566Z</time></trkpt><trkpt lat="40.8818283" lon="16.4877567"><ele>411.0</ele><time>2026-05-03T11:21:44.565Z</time></trkpt><trkpt lat="40.881775" lon="16.4876033"><ele>411.0</ele><time>2026-05-03T11:21:45.566Z</time></trkpt><trkpt lat="40.8817283" lon="16.487475"><ele>411.4</ele><time>2026-05-03T11:21:46.566Z</time></trkpt><trkpt lat="40.8816967" lon="16.487355"><ele>411.8</ele><time>2026-05-03T11:21:47.565Z</time></trkpt><trkpt lat="40.8816683" lon="16.48725"><ele>412.2</ele><time>2026-05-03T11:21:48.565Z</time></trkpt><trkpt lat="40.8816383" lon="16.48717"><ele>412.59999999999997</ele><time>2026-05-03T11:21:49.566Z</time></trkpt><trkpt lat="40.8815617" lon="16.487095"><ele>413.0</ele><time>2026-05-03T11:21:51.565Z</time></trkpt><trkpt lat="40.8814183" lon="16.487125"><ele>413.0</ele><time>2026-05-03T11:21:53.565Z</time></trkpt><trkpt lat="40.8813233" lon="16.4871583"><ele>413.0</ele><time>2026-05-03T11:21:54.565Z</time></trkpt><trkpt lat="40.8812133" lon="16.4871967"><ele>413.0</ele><time>2026-05-03T11:21:55.565Z</time></trkpt><trkpt lat="40.8810783" lon="16.4872267"><ele>413.0</ele><time>2026-05-03T11:21:56.566Z</time></trkpt><trkpt lat="40.88094" lon="16.4872517"><ele>413.5</ele><time>2026-05-03T11:21:57.565Z</time></trkpt><trkpt lat="40.8808017" lon="16.48729"><ele>414.0</ele><time>2026-05-03T11:21:58.565Z</time></trkpt><trkpt lat="40.8806617" lon="16.48732"><ele>414.5</ele><time>2026-05-03T11:21:59.566Z</time></trkpt><trkpt lat="40.8805117" lon="16.4873333"><ele>415.0</ele><time>2026-05-03T11:22:00.565Z</time></trkpt><trkpt lat="40.8803667" lon="16.487355"><ele>415.0</ele><time>2026-05-03T11:22:01.565Z</time></trkpt><trkpt lat="40.8802183" lon="16.487395"><ele>415.0</ele><time>2026-05-03T11:22:02.565Z</time></trkpt><trkpt lat="40.8800783" lon="16.4874417"><ele>415.0</ele><time>2026-05-03T11:22:03.565Z</time></trkpt><trkpt lat="40.879935" lon="16.4874983"><ele>415.0</ele><time>2026-05-03T11:22:04.566Z</time></trkpt><trkpt lat="40.8797867" lon="16.4875683"><ele>415.0</ele><time>2026-05-03T11:22:05.565Z</time></trkpt><trkpt lat="40.8796367" lon="16.4876483"><ele>415.0</ele><time>2026-05-03T11:22:06.565Z</time></trkpt><trkpt lat="40.87949" lon="16.4877217"><ele>415.0</ele><time>2026-05-03T11:22:07.565Z</time></trkpt><trkpt lat="40.8793417" lon="16.4878067"><ele>415.0</ele><time>2026-05-03T11:22:08.565Z</time></trkpt><trkpt lat="40.879195" lon="16.487885"><ele>415.0</ele><time>2026-05-03T11:22:09.566Z</time></trkpt><trkpt lat="40.879055" lon="16.48797"><ele>415.0</ele><time>2026-05-03T11:22:10.566Z</time></trkpt><trkpt lat="40.8789233" lon="16.48807"><ele>415.0</ele><time>2026-05-03T11:22:11.565Z</time></trkpt><trkpt lat="40.87879" lon="16.488185"><ele>415.0</ele><time>2026-05-03T11:22:12.565Z</time></trkpt><trkpt lat="40.8786517" lon="16.4883017"><ele>415.0</ele><time>2026-05-03T11:22:13.566Z</time></trkpt><trkpt lat="40.87851" lon="16.4884183"><ele>415.0</ele><time>2026-05-03T11:22:14.565Z</time></trkpt><trkpt lat="40.8783817" lon="16.4885317"><ele>415.0</ele><time>2026-05-03T11:22:15.566Z</time></trkpt><trkpt lat="40.8782533" lon="16.4886367"><ele>415.0</ele><time>2026-05-03T11:22:16.565Z</time></trkpt><trkpt lat="40.8781367" lon="16.4887417"><ele>415.0</ele><time>2026-05-03T11:22:17.565Z</time></trkpt><trkpt lat="40.8780233" lon="16.4888317"><ele>414.5</ele><time>2026-05-03T11:22:18.565Z</time></trkpt><trkpt lat="40.8779167" lon="16.4889083"><ele>414.0</ele><time>2026-05-03T11:22:19.566Z</time></trkpt><trkpt lat="40.8778233" lon="16.4889717"><ele>413.5</ele><time>2026-05-03T11:22:20.566Z</time></trkpt><trkpt lat="40.8777233" lon="16.4890317"><ele>413.0</ele><time>2026-05-03T11:22:21.565Z</time></trkpt><trkpt lat="40.877615" lon="16.4890783"><ele>412.75</ele><time>2026-05-03T11:22:22.566Z</time></trkpt><trkpt lat="40.8774917" lon="16.4890917"><ele>412.5</ele><time>2026-05-03T11:22:23.565Z</time></trkpt><trkpt lat="40.877365" lon="16.4890783"><ele>412.25</ele><time>2026-05-03T11:22:24.565Z</time></trkpt><trkpt lat="40.87723" lon="16.4890533"><ele>412.0</ele><time>2026-05-03T11:22:25.566Z</time></trkpt><trkpt lat="40.8770867" lon="16.4890267"><ele>412.0</ele><time>2026-05-03T11:22:26.566Z</time></trkpt><trkpt lat="40.8769383" lon="16.4889983"><ele>412.0</ele><time>2026-05-03T11:22:27.566Z</time></trkpt><trkpt lat="40.8768067" lon="16.48897"><ele>412.0</ele><time>2026-05-03T11:22:28.565Z</time></trkpt><trkpt lat="40.8766667" lon="16.4889217"><ele>412.0</ele><time>2026-05-03T11:22:29.565Z</time></trkpt><trkpt lat="40.8765217" lon="16.4888833"><ele>412.0</ele><time>2026-05-03T11:22:30.566Z</time></trkpt><trkpt lat="40.8763933" lon="16.4888467"><ele>412.0</ele><time>2026-05-03T11:22:31.565Z</time></trkpt><trkpt lat="40.876275" lon="16.4888167"><ele>412.0</ele><time>2026-05-03T11:22:32.566Z</time></trkpt><trkpt lat="40.87618" lon="16.4887867"><ele>412.0</ele><time>2026-05-03T11:22:33.566Z</time></trkpt><trkpt lat="40.8761117" lon="16.488775"><ele>412.0</ele><time>2026-05-03T11:22:34.566Z</time></trkpt><trkpt lat="40.8760433" lon="16.488765"><ele>411.8</ele><time>2026-05-03T11:22:35.565Z</time></trkpt><trkpt lat="40.8759433" lon="16.48873"><ele>411.6</ele><time>2026-05-03T11:22:37.566Z</time></trkpt><trkpt lat="40.8758267" lon="16.4886717"><ele>411.40000000000003</ele><time>2026-05-03T11:22:39.566Z</time></trkpt><trkpt lat="40.8757467" lon="16.4886333"><ele>411.20000000000005</ele><time>2026-05-03T11:22:40.565Z</time></trkpt><trkpt lat="40.8756617" lon="16.4885933"><ele>411.0</ele><time>2026-05-03T11:22:41.566Z</time></trkpt><trkpt lat="40.8755717" lon="16.488565"><ele>410.4</ele><time>2026-05-03T11:22:42.565Z</time></trkpt><trkpt lat="40.875475" lon="16.4885283"><ele>409.8</ele><time>2026-05-03T11:22:43.565Z</time></trkpt><trkpt lat="40.8753767" lon="16.4884767"><ele>409.2</ele><time>2026-05-03T11:22:44.566Z</time></trkpt><trkpt lat="40.8752867" lon="16.488405"><ele>408.59999999999997</ele><time>2026-05-03T11:22:45.565Z</time></trkpt><trkpt lat="40.8751867" lon="16.4883467"><ele>408.0</ele><time>2026-05-03T11:22:46.565Z</time></trkpt><trkpt lat="40.875095" lon="16.4882733"><ele>407.5</ele><time>2026-05-03T11:22:47.565Z</time></trkpt><trkpt lat="40.8749867" lon="16.4882067"><ele>407.0</ele><time>2026-05-03T11:22:48.565Z</time></trkpt><trkpt lat="40.8748817" lon="16.4881417"><ele>406.5</ele><time>2026-05-03T11:22:49.566Z</time></trkpt><trkpt lat="40.8747783" lon="16.4880683"><ele>406.0</ele><time>2026-05-03T11:22:50.565Z</time></trkpt><trkpt lat="40.874685" lon="16.4879933"><ele>406.0</ele><time>2026-05-03T11:22:51.565Z</time></trkpt><trkpt lat="40.8745967" lon="16.4879117"><ele>406.0</ele><time>2026-05-03T11:22:52.566Z</time></trkpt><trkpt lat="40.8745133" lon="16.4878233"><ele>406.0</ele><time>2026-05-03T11:22:53.565Z</time></trkpt><trkpt lat="40.8744333" lon="16.4877267"><ele>406.0</ele><time>2026-05-03T11:22:54.565Z</time></trkpt><trkpt lat="40.8743467" lon="16.48765"><ele>406.0</ele><time>2026-05-03T11:22:55.566Z</time></trkpt><trkpt lat="40.8742683" lon="16.48759"><ele>405.50000000000006</ele><time>2026-05-03T11:22:56.565Z</time></trkpt><trkpt lat="40.874205" lon="16.48754"><ele>405.0</ele><time>2026-05-03T11:22:57.565Z</time></trkpt><trkpt lat="40.874155" lon="16.4874883"><ele>404.5</ele><time>2026-05-03T11:22:58.565Z</time></trkpt><trkpt lat="40.8740983" lon="16.4873883"><ele>404.0</ele><time>2026-05-03T11:23:00.566Z</time></trkpt><trkpt lat="40.874105" lon="16.4872983"><ele>403.50000000000006</ele><time>2026-05-03T11:23:01.565Z</time></trkpt><trkpt lat="40.8741217" lon="16.4871917"><ele>403.0</ele><time>2026-05-03T11:23:02.565Z</time></trkpt><trkpt lat="40.8741483" lon="16.4870767"><ele>403.0</ele><time>2026-05-03T11:23:03.566Z</time></trkpt><trkpt lat="40.8741683" lon="16.486955"><ele>403.0</ele><time>2026-05-03T11:23:04.565Z</time></trkpt><trkpt lat="40.87419" lon="16.486825"><ele>403.0</ele><time>2026-05-03T11:23:05.565Z</time></trkpt><trkpt lat="40.8742017" lon="16.4866783"><ele>403.0</ele><time>2026-05-03T11:23:06.565Z</time></trkpt><trkpt lat="40.8742133" lon="16.4865283"><ele>403.0</ele><time>2026-05-03T11:23:07.566Z</time></trkpt><trkpt lat="40.874225" lon="16.4863917"><ele>403.59999999999997</ele><time>2026-05-03T11:23:08.565Z</time></trkpt><trkpt lat="40.87425" lon="16.48626"><ele>404.2</ele><time>2026-05-03T11:23:09.565Z</time></trkpt><trkpt lat="40.8742917" lon="16.4861317"><ele>404.8</ele><time>2026-05-03T11:23:10.566Z</time></trkpt><trkpt lat="40.8743467" lon="16.4860083"><ele>405.4</ele><time>2026-05-03T11:23:11.565Z</time></trkpt><trkpt lat="40.8744033" lon="16.4858767"><ele>406.0</ele><time>2026-05-03T11:23:12.565Z</time></trkpt><trkpt lat="40.8744717" lon="16.48575"><ele>406.20000000000005</ele><time>2026-05-03T11:23:13.565Z</time></trkpt><trkpt lat="40.87453" lon="16.4856133"><ele>406.40000000000003</ele><time>2026-05-03T11:23:14.565Z</time></trkpt><trkpt lat="40.8746017" lon="16.4854917"><ele>406.6</ele><time>2026-05-03T11:23:15.565Z</time></trkpt><trkpt lat="40.8746583" lon="16.4853683"><ele>406.8</ele><time>2026-05-03T11:23:16.565Z</time></trkpt><trkpt lat="40.8747083" lon="16.48526"><ele>407.0</ele><time>2026-05-03T11:23:17.565Z</time></trkpt><trkpt lat="40.87476" lon="16.4851467"><ele>407.20000000000005</ele><time>2026-05-03T11:23:18.565Z</time></trkpt><trkpt lat="40.8748083" lon="16.48503"><ele>407.4</ele><time>2026-05-03T11:23:19.565Z</time></trkpt><trkpt lat="40.8748517" lon="16.4849133"><ele>407.6</ele><time>2026-05-03T11:23:20.566Z</time></trkpt><trkpt lat="40.8749" lon="16.484795"><ele>407.79999999999995</ele><time>2026-05-03T11:23:21.565Z</time></trkpt><trkpt lat="40.8749567" lon="16.484675"><ele>408.0</ele><time>2026-05-03T11:23:22.566Z</time></trkpt><trkpt lat="40.875005" lon="16.4845617"><ele>408.0</ele><time>2026-05-03T11:23:23.566Z</time></trkpt><trkpt lat="40.875055" lon="16.4844633"><ele>408.0</ele><time>2026-05-03T11:23:24.566Z</time></trkpt><trkpt lat="40.87508" lon="16.4843583"><ele>408.0</ele><time>2026-05-03T11:23:25.566Z</time></trkpt><trkpt lat="40.875095" lon="16.48425"><ele>408.0</ele><time>2026-05-03T11:23:26.566Z</time></trkpt><trkpt lat="40.8750967" lon="16.484145"><ele>408.0</ele><time>2026-05-03T11:23:27.566Z</time></trkpt><trkpt lat="40.8750933" lon="16.4840317"><ele>408.0</ele><time>2026-05-03T11:23:28.566Z</time></trkpt><trkpt lat="40.8750733" lon="16.4838917"><ele>407.75</ele><time>2026-05-03T11:23:29.565Z</time></trkpt><trkpt lat="40.8750483" lon="16.483745"><ele>407.5</ele><time>2026-05-03T11:23:30.565Z</time></trkpt><trkpt lat="40.875015" lon="16.48359"><ele>407.25</ele><time>2026-05-03T11:23:31.565Z</time></trkpt><trkpt lat="40.8749933" lon="16.483435"><ele>407.0</ele><time>2026-05-03T11:23:32.566Z</time></trkpt><trkpt lat="40.8749617" lon="16.4832767"><ele>407.0</ele><time>2026-05-03T11:23:33.565Z</time></trkpt><trkpt lat="40.8749233" lon="16.4831217"><ele>407.0</ele><time>2026-05-03T11:23:34.565Z</time></trkpt><trkpt lat="40.874895" lon="16.48297"><ele>407.0</ele><time>2026-05-03T11:23:35.565Z</time></trkpt><trkpt lat="40.8748567" lon="16.482825"><ele>407.0</ele><time>2026-05-03T11:23:36.566Z</time></trkpt><trkpt lat="40.874825" lon="16.4826833"><ele>407.0</ele><time>2026-05-03T11:23:37.566Z</time></trkpt><trkpt lat="40.874795" lon="16.482545"><ele>407.0</ele><time>2026-05-03T11:23:38.565Z</time></trkpt><trkpt lat="40.8747733" lon="16.4823933"><ele>407.0</ele><time>2026-05-03T11:23:39.565Z</time></trkpt><trkpt lat="40.8747617" lon="16.4822317"><ele>407.0</ele><time>2026-05-03T11:23:40.565Z</time></trkpt><trkpt lat="40.8747367" lon="16.48206"><ele>407.0</ele><time>2026-05-03T11:23:41.565Z</time></trkpt><trkpt lat="40.8747217" lon="16.48189"><ele>407.0</ele><time>2026-05-03T11:23:42.566Z</time></trkpt><trkpt lat="40.8746983" lon="16.48171"><ele>407.0</ele><time>2026-05-03T11:23:43.565Z</time></trkpt><trkpt lat="40.874685" lon="16.481545"><ele>407.0</ele><time>2026-05-03T11:23:44.566Z</time></trkpt><trkpt lat="40.8746783" lon="16.481385"><ele>407.20000000000005</ele><time>2026-05-03T11:23:45.565Z</time></trkpt><trkpt lat="40.87466" lon="16.4812433"><ele>407.4</ele><time>2026-05-03T11:23:46.565Z</time></trkpt><trkpt lat="40.8746517" lon="16.4810983"><ele>407.6</ele><time>2026-05-03T11:23:47.565Z</time></trkpt><trkpt lat="40.8746483" lon="16.4809633"><ele>407.79999999999995</ele><time>2026-05-03T11:23:48.565Z</time></trkpt><trkpt lat="40.87464" lon="16.4808383"><ele>408.0</ele><time>2026-05-03T11:23:49.565Z</time></trkpt><trkpt lat="40.8746417" lon="16.4807267"><ele>408.0</ele><time>2026-05-03T11:23:50.565Z</time></trkpt><trkpt lat="40.8746433" lon="16.48061"><ele>408.0</ele><time>2026-05-03T11:23:51.565Z</time></trkpt><trkpt lat="40.8746533" lon="16.4804733"><ele>408.0</ele><time>2026-05-03T11:23:52.565Z</time></trkpt><trkpt lat="40.874675" lon="16.4803367"><ele>408.0</ele><time>2026-05-03T11:23:53.565Z</time></trkpt><trkpt lat="40.8747" lon="16.4801817"><ele>408.0</ele><time>2026-05-03T11:23:54.565Z</time></trkpt><trkpt lat="40.8747333" lon="16.4800233"><ele>408.5</ele><time>2026-05-03T11:23:55.565Z</time></trkpt><trkpt lat="40.8747683" lon="16.4798667"><ele>409.0</ele><time>2026-05-03T11:23:56.566Z</time></trkpt><trkpt lat="40.87481" lon="16.4796983"><ele>409.5</ele><time>2026-05-03T11:23:57.565Z</time></trkpt><trkpt lat="40.8748467" lon="16.479525"><ele>410.0</ele><time>2026-05-03T11:23:58.565Z</time></trkpt><trkpt lat="40.87487" lon="16.47935"><ele>410.5</ele><time>2026-05-03T11:23:59.566Z</time></trkpt><trkpt lat="40.8749033" lon="16.4791983"><ele>411.0</ele><time>2026-05-03T11:24:00.566Z</time></trkpt><trkpt lat="40.874915" lon="16.4790333"><ele>411.5</ele><time>2026-05-03T11:24:01.565Z</time></trkpt><trkpt lat="40.87494" lon="16.4788833"><ele>412.0</ele><time>2026-05-03T11:24:02.566Z</time></trkpt><trkpt lat="40.87496" lon="16.4787317"><ele>412.20000000000005</ele><time>2026-05-03T11:24:03.565Z</time></trkpt><trkpt lat="40.8749867" lon="16.4785967"><ele>412.4</ele><time>2026-05-03T11:24:04.565Z</time></trkpt><trkpt lat="40.8749983" lon="16.478455"><ele>412.6</ele><time>2026-05-03T11:24:05.566Z</time></trkpt><trkpt lat="40.8750267" lon="16.4783083"><ele>412.79999999999995</ele><time>2026-05-03T11:24:06.565Z</time></trkpt><trkpt lat="40.875055" lon="16.4781633"><ele>413.0</ele><time>2026-05-03T11:24:07.565Z</time></trkpt><trkpt lat="40.87508" lon="16.4780117"><ele>413.0</ele><time>2026-05-03T11:24:08.565Z</time></trkpt><trkpt lat="40.8750967" lon="16.4778683"><ele>413.0</ele><time>2026-05-03T11:24:09.566Z</time></trkpt><trkpt lat="40.8751033" lon="16.4777467"><ele>413.0</ele><time>2026-05-03T11:24:10.566Z</time></trkpt><trkpt lat="40.8750967" lon="16.4776117"><ele>413.0</ele><time>2026-05-03T11:24:11.566Z</time></trkpt><trkpt lat="40.8750867" lon="16.4774683"><ele>413.0</ele><time>2026-05-03T11:24:12.565Z</time></trkpt><trkpt lat="40.875075" lon="16.4773133"><ele>413.0</ele><time>2026-05-03T11:24:13.565Z</time></trkpt><trkpt lat="40.8750633" lon="16.47715"><ele>413.0</ele><time>2026-05-03T11:24:14.565Z</time></trkpt><trkpt lat="40.8750383" lon="16.4769767"><ele>413.0</ele><time>2026-05-03T11:24:15.565Z</time></trkpt><trkpt lat="40.8750167" lon="16.4768"><ele>413.0</ele><time>2026-05-03T11:24:16.565Z</time></trkpt><trkpt lat="40.8749933" lon="16.4766183"><ele>412.75</ele><time>2026-05-03T11:24:17.565Z</time></trkpt><trkpt lat="40.8749783" lon="16.4764617"><ele>412.5</ele><time>2026-05-03T11:24:18.565Z</time></trkpt><trkpt lat="40.8749617" lon="16.47631"><ele>412.25</ele><time>2026-05-03T11:24:19.566Z</time></trkpt><trkpt lat="40.874945" lon="16.47616"><ele>412.0</ele><time>2026-05-03T11:24:20.565Z</time></trkpt><trkpt lat="40.8749283" lon="16.476005"><ele>412.40000000000003</ele><time>2026-05-03T11:24:21.566Z</time></trkpt><trkpt lat="40.8749117" lon="16.4758717"><ele>412.8</ele><time>2026-05-03T11:24:22.565Z</time></trkpt><trkpt lat="40.8748967" lon="16.475755"><ele>413.2</ele><time>2026-05-03T11:24:23.565Z</time></trkpt><trkpt lat="40.8748783" lon="16.47567"><ele>413.6</ele><time>2026-05-03T11:24:24.565Z</time></trkpt><trkpt lat="40.8747967" lon="16.4755467"><ele>414.0</ele><time>2026-05-03T11:24:26.565Z</time></trkpt><trkpt lat="40.87473" lon="16.4754883"><ele>414.2</ele><time>2026-05-03T11:24:27.565Z</time></trkpt><trkpt lat="40.8746683" lon="16.4754167"><ele>414.4</ele><time>2026-05-03T11:24:28.565Z</time></trkpt><trkpt lat="40.8746117" lon="16.4753233"><ele>414.6</ele><time>2026-05-03T11:24:29.566Z</time></trkpt><trkpt lat="40.87455" lon="16.47521"><ele>414.8</ele><time>2026-05-03T11:24:30.565Z</time></trkpt><trkpt lat="40.8744867" lon="16.4751083"><ele>415.0</ele><time>2026-05-03T11:24:31.565Z</time></trkpt><trkpt lat="40.874425" lon="16.4750183"><ele>415.00000000000006</ele><time>2026-05-03T11:24:32.566Z</time></trkpt><trkpt lat="40.8743633" lon="16.4749433"><ele>415.0</ele><time>2026-05-03T11:24:33.565Z</time></trkpt><trkpt lat="40.87428" lon="16.47485"><ele>415.0</ele><time>2026-05-03T11:24:35.565Z</time></trkpt><trkpt lat="40.8742283" lon="16.474775"><ele>415.0</ele><time>2026-05-03T11:24:47.565Z</time></trkpt><trkpt lat="40.87424" lon="16.474645"><ele>415.00000000000006</ele><time>2026-05-03T11:24:49.565Z</time></trkpt><trkpt lat="40.8742633" lon="16.4745517"><ele>415.0</ele><time>2026-05-03T11:24:50.566Z</time></trkpt><trkpt lat="40.8742933" lon="16.4744483"><ele>415.0</ele><time>2026-05-03T11:24:51.566Z</time></trkpt><trkpt lat="40.87431" lon="16.4743417"><ele>415.0</ele><time>2026-05-03T11:24:52.565Z</time></trkpt><trkpt lat="40.874305" lon="16.474225"><ele>415.0</ele><time>2026-05-03T11:24:53.565Z</time></trkpt><trkpt lat="40.8742583" lon="16.4741"><ele>415.0</ele><time>2026-05-03T11:24:54.566Z</time></trkpt><trkpt lat="40.8741967" lon="16.473965"><ele>415.0</ele><time>2026-05-03T11:24:55.565Z</time></trkpt><trkpt lat="40.8741383" lon="16.4738283"><ele>414.5</ele><time>2026-05-03T11:24:56.565Z</time></trkpt><trkpt lat="40.8740783" lon="16.473675"><ele>414.0</ele><time>2026-05-03T11:24:57.565Z</time></trkpt><trkpt lat="40.8740117" lon="16.4735117"><ele>413.5</ele><time>2026-05-03T11:24:58.565Z</time></trkpt><trkpt lat="40.8739433" lon="16.4733483"><ele>413.0</ele><time>2026-05-03T11:24:59.565Z</time></trkpt><trkpt lat="40.8738883" lon="16.473185"><ele>413.0</ele><time>2026-05-03T11:25:00.565Z</time></trkpt><trkpt lat="40.8738233" lon="16.473015"><ele>413.0</ele><time>2026-05-03T11:25:01.566Z</time></trkpt><trkpt lat="40.8737533" lon="16.4728483"><ele>413.0</ele><time>2026-05-03T11:25:02.565Z</time></trkpt><trkpt lat="40.8736833" lon="16.4726867"><ele>413.0</ele><time>2026-05-03T11:25:03.565Z</time></trkpt><trkpt lat="40.8736233" lon="16.4725417"><ele>413.59999999999997</ele><time>2026-05-03T11:25:04.565Z</time></trkpt><trkpt lat="40.8735633" lon="16.4724083"><ele>414.2</ele><time>2026-05-03T11:25:05.565Z</time></trkpt><trkpt lat="40.8735083" lon="16.472285"><ele>414.8</ele><time>2026-05-03T11:25:06.565Z</time></trkpt><trkpt lat="40.8734583" lon="16.4721633"><ele>415.4</ele><time>2026-05-03T11:25:07.565Z</time></trkpt><trkpt lat="40.8734133" lon="16.472025"><ele>416.0</ele><time>2026-05-03T11:25:08.566Z</time></trkpt><trkpt lat="40.8733583" lon="16.4718767"><ele>416.25</ele><time>2026-05-03T11:25:09.566Z</time></trkpt><trkpt lat="40.8732883" lon="16.4717317"><ele>416.5</ele><time>2026-05-03T11:25:10.565Z</time></trkpt><trkpt lat="40.8732217" lon="16.4715667"><ele>416.75</ele><time>2026-05-03T11:25:11.565Z</time></trkpt><trkpt lat="40.8731567" lon="16.4714117"><ele>417.0</ele><time>2026-05-03T11:25:12.566Z</time></trkpt><trkpt lat="40.8730817" lon="16.4712467"><ele>417.75</ele><time>2026-05-03T11:25:13.565Z</time></trkpt><trkpt lat="40.873005" lon="16.47108"><ele>418.5</ele><time>2026-05-03T11:25:14.565Z</time></trkpt><trkpt lat="40.8729117" lon="16.47093"><ele>419.25</ele><time>2026-05-03T11:25:15.565Z</time></trkpt><trkpt lat="40.8728267" lon="16.4707867"><ele>420.0</ele><time>2026-05-03T11:25:16.565Z</time></trkpt><trkpt lat="40.87274" lon="16.4706483"><ele>420.0</ele><time>2026-05-03T11:25:17.565Z</time></trkpt><trkpt lat="40.8726717" lon="16.4705117"><ele>420.0</ele><time>2026-05-03T11:25:18.565Z</time></trkpt><trkpt lat="40.872595" lon="16.470375"><ele>420.0</ele><time>2026-05-03T11:25:19.565Z</time></trkpt><trkpt lat="40.8725417" lon="16.47023"><ele>420.0</ele><time>2026-05-03T11:25:20.566Z</time></trkpt><trkpt lat="40.8725067" lon="16.470075"><ele>419.75</ele><time>2026-05-03T11:25:21.565Z</time></trkpt><trkpt lat="40.8724733" lon="16.46993"><ele>419.5</ele><time>2026-05-03T11:25:22.565Z</time></trkpt><trkpt lat="40.8724417" lon="16.46979"><ele>419.25</ele><time>2026-05-03T11:25:23.565Z</time></trkpt><trkpt lat="40.87238" lon="16.46967"><ele>419.0</ele><time>2026-05-03T11:25:24.565Z</time></trkpt><trkpt lat="40.8722917" lon="16.469565"><ele>418.5</ele><time>2026-05-03T11:25:25.566Z</time></trkpt><trkpt lat="40.872185" lon="16.4694683"><ele>418.0</ele><time>2026-05-03T11:25:26.565Z</time></trkpt><trkpt lat="40.87206" lon="16.46938"><ele>417.5</ele><time>2026-05-03T11:25:27.565Z</time></trkpt><trkpt lat="40.87192" lon="16.4693017"><ele>417.0</ele><time>2026-05-03T11:25:28.566Z</time></trkpt><trkpt lat="40.871765" lon="16.4692517"><ele>416.25</ele><time>2026-05-03T11:25:29.565Z</time></trkpt><trkpt lat="40.87162" lon="16.46922"><ele>415.5</ele><time>2026-05-03T11:25:30.565Z</time></trkpt><trkpt lat="40.8714867" lon="16.469195"><ele>414.75</ele><time>2026-05-03T11:25:31.566Z</time></trkpt><trkpt lat="40.8713733" lon="16.4691667"><ele>414.0</ele><time>2026-05-03T11:25:32.565Z</time></trkpt><trkpt lat="40.87127" lon="16.4691333"><ele>414.0</ele><time>2026-05-03T11:25:33.566Z</time></trkpt><trkpt lat="40.8711683" lon="16.4690667"><ele>414.0</ele><time>2026-05-03T11:25:34.566Z</time></trkpt><trkpt lat="40.8710783" lon="16.4689867"><ele>414.0</ele><time>2026-05-03T11:25:35.565Z</time></trkpt><trkpt lat="40.871" lon="16.4688933"><ele>414.0</ele><time>2026-05-03T11:25:36.565Z</time></trkpt><trkpt lat="40.8709417" lon="16.4687667"><ele>414.0</ele><time>2026-05-03T11:25:37.565Z</time></trkpt><trkpt lat="40.8708983" lon="16.4686233"><ele>414.0</ele><time>2026-05-03T11:25:38.565Z</time></trkpt><trkpt lat="40.8708517" lon="16.4684533"><ele>414.0</ele><time>2026-05-03T11:25:39.565Z</time></trkpt><trkpt lat="40.87081" lon="16.468285"><ele>414.0</ele><time>2026-05-03T11:25:40.566Z</time></trkpt><trkpt lat="40.8707583" lon="16.468095"><ele>414.0</ele><time>2026-05-03T11:25:41.565Z</time></trkpt><trkpt lat="40.8707067" lon="16.4679083"><ele>414.0</ele><time>2026-05-03T11:25:42.565Z</time></trkpt><trkpt lat="40.8706517" lon="16.467715"><ele>414.0</ele><time>2026-05-03T11:25:43.565Z</time></trkpt><trkpt lat="40.8706" lon="16.4675183"><ele>414.0</ele><time>2026-05-03T11:25:44.565Z</time></trkpt><trkpt lat="40.87055" lon="16.4673217"><ele>414.0</ele><time>2026-05-03T11:25:45.565Z</time></trkpt><trkpt lat="40.8704917" lon="16.4671283"><ele>414.0</ele><time>2026-05-03T11:25:46.565Z</time></trkpt><trkpt lat="40.870425" lon="16.46693"><ele>414.0</ele><time>2026-05-03T11:25:47.566Z</time></trkpt><trkpt lat="40.870355" lon="16.4667483"><ele>413.5</ele><time>2026-05-03T11:25:48.565Z</time></trkpt><trkpt lat="40.8702983" lon="16.4665817"><ele>413.0</ele><time>2026-05-03T11:25:49.565Z</time></trkpt><trkpt lat="40.870235" lon="16.46643"><ele>412.5</ele><time>2026-05-03T11:25:50.566Z</time></trkpt><trkpt lat="40.8701767" lon="16.4662817"><ele>412.0</ele><time>2026-05-03T11:25:51.565Z</time></trkpt><trkpt lat="40.8701233" lon="16.466135"><ele>412.0</ele><time>2026-05-03T11:25:52.565Z</time></trkpt><trkpt lat="40.87008" lon="16.46599"><ele>412.0</ele><time>2026-05-03T11:25:53.565Z</time></trkpt><trkpt lat="40.8700733" lon="16.4658583"><ele>412.0</ele><time>2026-05-03T11:25:54.565Z</time></trkpt><trkpt lat="40.8700633" lon="16.465705"><ele>412.0</ele><time>2026-05-03T11:25:55.566Z</time></trkpt><trkpt lat="40.8700683" lon="16.4655433"><ele>412.25</ele><time>2026-05-03T11:25:56.565Z</time></trkpt><trkpt lat="40.8700883" lon="16.4653783"><ele>412.5</ele><time>2026-05-03T11:25:57.565Z</time></trkpt><trkpt lat="40.87011" lon="16.4651967"><ele>412.75</ele><time>2026-05-03T11:25:58.566Z</time></trkpt><trkpt lat="40.87014" lon="16.4650183"><ele>413.0</ele><time>2026-05-03T11:25:59.566Z</time></trkpt><trkpt lat="40.8701783" lon="16.4648233"><ele>413.0</ele><time>2026-05-03T11:26:00.565Z</time></trkpt><trkpt lat="40.8702" lon="16.46462"><ele>413.0</ele><time>2026-05-03T11:26:01.565Z</time></trkpt><trkpt lat="40.87023" lon="16.46442"><ele>413.0</ele><time>2026-05-03T11:26:02.565Z</time></trkpt><trkpt lat="40.870255" lon="16.4642117"><ele>413.3333333333333</ele><time>2026-05-03T11:26:03.566Z</time></trkpt><trkpt lat="40.87028" lon="16.4640117"><ele>413.66666666666663</ele><time>2026-05-03T11:26:04.565Z</time></trkpt><trkpt lat="40.870295" lon="16.4638017"><ele>414.0</ele><time>2026-05-03T11:26:05.565Z</time></trkpt><trkpt lat="40.8702917" lon="16.4635933"><ele>414.66666666666663</ele><time>2026-05-03T11:26:06.565Z</time></trkpt><trkpt lat="40.8702917" lon="16.463385"><ele>415.3333333333333</ele><time>2026-05-03T11:26:07.566Z</time></trkpt><trkpt lat="40.8702733" lon="16.4631867"><ele>416.0</ele><time>2026-05-03T11:26:08.565Z</time></trkpt><trkpt lat="40.8702533" lon="16.4629983"><ele>416.75</ele><time>2026-05-03T11:26:09.566Z</time></trkpt><trkpt lat="40.8702383" lon="16.4628267"><ele>417.5</ele><time>2026-05-03T11:26:10.565Z</time></trkpt><trkpt lat="40.87023" lon="16.46266"><ele>418.25</ele><time>2026-05-03T11:26:11.565Z</time></trkpt><trkpt lat="40.8702183" lon="16.4624983"><ele>419.0</ele><time>2026-05-03T11:26:12.565Z</time></trkpt><trkpt lat="40.8701983" lon="16.4623317"><ele>419.0</ele><time>2026-05-03T11:26:13.565Z</time></trkpt><trkpt lat="40.8701917" lon="16.4621567"><ele>419.0</ele><time>2026-05-03T11:26:14.565Z</time></trkpt><trkpt lat="40.8701833" lon="16.461975"><ele>419.0</ele><time>2026-05-03T11:26:15.565Z</time></trkpt><trkpt lat="40.8701783" lon="16.461795"><ele>419.0</ele><time>2026-05-03T11:26:16.565Z</time></trkpt><trkpt lat="40.8701633" lon="16.4616133"><ele>419.66666666666663</ele><time>2026-05-03T11:26:17.566Z</time></trkpt><trkpt lat="40.8701417" lon="16.4614583"><ele>420.3333333333333</ele><time>2026-05-03T11:26:18.565Z</time></trkpt><trkpt lat="40.87012" lon="16.461335"><ele>421.0</ele><time>2026-05-03T11:26:19.565Z</time></trkpt><trkpt lat="40.8700917" lon="16.4612517"><ele>421.66666666666663</ele><time>2026-05-03T11:26:20.565Z</time></trkpt><trkpt lat="40.8700467" lon="16.46117"><ele>422.3333333333333</ele><time>2026-05-03T11:26:21.565Z</time></trkpt><trkpt lat="40.86999" lon="16.4611133"><ele>423.0</ele><time>2026-05-03T11:26:22.565Z</time></trkpt><trkpt lat="40.86991" lon="16.4610617"><ele>423.0</ele><time>2026-05-03T11:26:23.565Z</time></trkpt><trkpt lat="40.8698167" lon="16.4610283"><ele>423.0</ele><time>2026-05-03T11:26:24.565Z</time></trkpt><trkpt lat="40.86972" lon="16.4610033"><ele>423.0</ele><time>2026-05-03T11:26:25.565Z</time></trkpt><trkpt lat="40.8696083" lon="16.4610067"><ele>423.0</ele><time>2026-05-03T11:26:26.565Z</time></trkpt><trkpt lat="40.8694917" lon="16.4610217"><ele>423.0</ele><time>2026-05-03T11:26:27.566Z</time></trkpt><trkpt lat="40.869365" lon="16.46104"><ele>422.25</ele><time>2026-05-03T11:26:28.565Z</time></trkpt><trkpt lat="40.86924" lon="16.46104"><ele>421.5</ele><time>2026-05-03T11:26:29.566Z</time></trkpt><trkpt lat="40.8691167" lon="16.4610617"><ele>420.75</ele><time>2026-05-03T11:26:30.565Z</time></trkpt><trkpt lat="40.8689933" lon="16.4611033"><ele>420.0</ele><time>2026-05-03T11:26:31.565Z</time></trkpt><trkpt lat="40.8688733" lon="16.461155"><ele>420.0</ele><time>2026-05-03T11:26:32.565Z</time></trkpt><trkpt lat="40.868745" lon="16.4612117"><ele>420.0</ele><time>2026-05-03T11:26:33.565Z</time></trkpt><trkpt lat="40.8686067" lon="16.4612733"><ele>420.0</ele><time>2026-05-03T11:26:34.565Z</time></trkpt><trkpt lat="40.86847" lon="16.4613333"><ele>420.0</ele><time>2026-05-03T11:26:35.566Z</time></trkpt><trkpt lat="40.8683183" lon="16.4613983"><ele>418.66666666666663</ele><time>2026-05-03T11:26:36.565Z</time></trkpt><trkpt lat="40.8681617" lon="16.4614667"><ele>417.3333333333333</ele><time>2026-05-03T11:26:37.565Z</time></trkpt><trkpt lat="40.868" lon="16.46154"><ele>416.0</ele><time>2026-05-03T11:26:38.565Z</time></trkpt><trkpt lat="40.8678333" lon="16.4616083"><ele>416.0</ele><time>2026-05-03T11:26:39.565Z</time></trkpt><trkpt lat="40.867665" lon="16.46168"><ele>416.0</ele><time>2026-05-03T11:26:40.565Z</time></trkpt><trkpt lat="40.8674983" lon="16.4617383"><ele>416.0</ele><time>2026-05-03T11:26:41.565Z</time></trkpt><trkpt lat="40.8673367" lon="16.4618"><ele>415.3333333333333</ele><time>2026-05-03T11:26:42.566Z</time></trkpt><trkpt lat="40.86719" lon="16.4618617"><ele>414.66666666666663</ele><time>2026-05-03T11:26:43.565Z</time></trkpt><trkpt lat="40.8670467" lon="16.46193"><ele>414.0</ele><time>2026-05-03T11:26:44.565Z</time></trkpt><trkpt lat="40.8669117" lon="16.4619967"><ele>414.0</ele><time>2026-05-03T11:26:45.566Z</time></trkpt><trkpt lat="40.8667817" lon="16.4620483"><ele>414.0</ele><time>2026-05-03T11:26:46.566Z</time></trkpt><trkpt lat="40.866665" lon="16.46209"><ele>414.0</ele><time>2026-05-03T11:26:47.566Z</time></trkpt><trkpt lat="40.866555" lon="16.4621267"><ele>414.0</ele><time>2026-05-03T11:26:48.565Z</time></trkpt><trkpt lat="40.86645" lon="16.46217"><ele>413.6</ele><time>2026-05-03T11:26:49.565Z</time></trkpt><trkpt lat="40.8663533" lon="16.4622133"><ele>413.2</ele><time>2026-05-03T11:26:50.566Z</time></trkpt><trkpt lat="40.8662683" lon="16.4622283"><ele>412.8</ele><time>2026-05-03T11:26:51.565Z</time></trkpt><trkpt lat="40.8661667" lon="16.4622283"><ele>412.40000000000003</ele><time>2026-05-03T11:26:53.565Z</time></trkpt><trkpt lat="40.8661383" lon="16.4621317"><ele>412.0</ele><time>2026-05-03T11:27:12.565Z</time></trkpt><trkpt lat="40.8661667" lon="16.4620217"><ele>412.0</ele><time>2026-05-03T11:27:14.566Z</time></trkpt><trkpt lat="40.8662033" lon="16.4619383"><ele>412.0</ele><time>2026-05-03T11:27:15.565Z</time></trkpt><trkpt lat="40.8662433" lon="16.4618467"><ele>412.0</ele><time>2026-05-03T11:27:16.565Z</time></trkpt><trkpt lat="40.8662867" lon="16.4617317"><ele>412.0</ele><time>2026-05-03T11:27:17.565Z</time></trkpt><trkpt lat="40.8663267" lon="16.4616067"><ele>412.0</ele><time>2026-05-03T11:27:18.565Z</time></trkpt><trkpt lat="40.8663683" lon="16.4614667"><ele>412.0</ele><time>2026-05-03T11:27:19.566Z</time></trkpt><trkpt lat="40.8664183" lon="16.4613233"><ele>412.0</ele><time>2026-05-03T11:27:20.565Z</time></trkpt><trkpt lat="40.8664667" lon="16.4611733"><ele>412.0</ele><time>2026-05-03T11:27:21.565Z</time></trkpt><trkpt lat="40.86652" lon="16.46101"><ele>412.0</ele><time>2026-05-03T11:27:22.565Z</time></trkpt><trkpt lat="40.8665717" lon="16.4608383"><ele>412.6666666666667</ele><time>2026-05-03T11:27:23.565Z</time></trkpt><trkpt lat="40.8666267" lon="16.460655"><ele>413.33333333333337</ele><time>2026-05-03T11:27:24.566Z</time></trkpt><trkpt lat="40.8666817" lon="16.46046"><ele>414.0</ele><time>2026-05-03T11:27:25.565Z</time></trkpt><trkpt lat="40.8667317" lon="16.4602633"><ele>415.33333333333337</ele><time>2026-05-03T11:27:26.566Z</time></trkpt><trkpt lat="40.8667867" lon="16.4600667"><ele>416.6666666666667</ele><time>2026-05-03T11:27:27.566Z</time></trkpt><trkpt lat="40.8668433" lon="16.4598567"><ele>418.0</ele><time>2026-05-03T11:27:28.565Z</time></trkpt><trkpt lat="40.8669017" lon="16.4596383"><ele>418.33333333333337</ele><time>2026-05-03T11:27:29.565Z</time></trkpt><trkpt lat="40.8669667" lon="16.4594183"><ele>418.66666666666663</ele><time>2026-05-03T11:27:30.565Z</time></trkpt><trkpt lat="40.8670417" lon="16.459195"><ele>419.0</ele><time>2026-05-03T11:27:31.565Z</time></trkpt><trkpt lat="40.8671083" lon="16.45897"><ele>419.66666666666663</ele><time>2026-05-03T11:27:32.566Z</time></trkpt><trkpt lat="40.8671667" lon="16.4587417"><ele>420.33333333333337</ele><time>2026-05-03T11:27:33.566Z</time></trkpt><trkpt lat="40.8672267" lon="16.4585117"><ele>421.0</ele><time>2026-05-03T11:27:34.565Z</time></trkpt><trkpt lat="40.86729" lon="16.4582833"><ele>421.0</ele><time>2026-05-03T11:27:35.566Z</time></trkpt><trkpt lat="40.8673567" lon="16.45806"><ele>421.0</ele><time>2026-05-03T11:27:36.565Z</time></trkpt><trkpt lat="40.867425" lon="16.4578333"><ele>421.0</ele><time>2026-05-03T11:27:37.565Z</time></trkpt><trkpt lat="40.8674983" lon="16.457615"><ele>421.33333333333337</ele><time>2026-05-03T11:27:38.566Z</time></trkpt><trkpt lat="40.867585" lon="16.4573917"><ele>421.66666666666663</ele><time>2026-05-03T11:27:39.565Z</time></trkpt><trkpt lat="40.8676833" lon="16.4571883"><ele>422.0</ele><time>2026-05-03T11:27:40.565Z</time></trkpt><trkpt lat="40.86778" lon="16.4569733"><ele>423.3333333333333</ele><time>2026-05-03T11:27:41.566Z</time></trkpt><trkpt lat="40.86789" lon="16.456775"><ele>424.66666666666663</ele><time>2026-05-03T11:27:42.565Z</time></trkpt><trkpt lat="40.8679983" lon="16.4565617"><ele>426.0</ele><time>2026-05-03T11:27:43.565Z</time></trkpt><trkpt lat="40.86811" lon="16.4563717"><ele>426.66666666666663</ele><time>2026-05-03T11:27:44.565Z</time></trkpt><trkpt lat="40.8682267" lon="16.4561683"><ele>427.3333333333333</ele><time>2026-05-03T11:27:45.565Z</time></trkpt><trkpt lat="40.868355" lon="16.4559767"><ele>428.0</ele><time>2026-05-03T11:27:46.565Z</time></trkpt><trkpt lat="40.8684733" lon="16.4557867"><ele>428.66666666666663</ele><time>2026-05-03T11:27:47.565Z</time></trkpt><trkpt lat="40.8686117" lon="16.4555983"><ele>429.33333333333337</ele><time>2026-05-03T11:27:48.565Z</time></trkpt><trkpt lat="40.8687583" lon="16.4554317"><ele>430.0</ele><time>2026-05-03T11:27:49.565Z</time></trkpt><trkpt lat="40.868885" lon="16.4552567"><ele>430.0</ele><time>2026-05-03T11:27:50.565Z</time></trkpt><trkpt lat="40.8690283" lon="16.4550983"><ele>430.0</ele><time>2026-05-03T11:27:51.566Z</time></trkpt><trkpt lat="40.86918" lon="16.4549483"><ele>430.0</ele><time>2026-05-03T11:27:52.565Z</time></trkpt><trkpt lat="40.8693317" lon="16.4548067"><ele>431.33333333333337</ele><time>2026-05-03T11:27:53.566Z</time></trkpt><trkpt lat="40.86949" lon="16.4546733"><ele>432.66666666666663</ele><time>2026-05-03T11:27:54.565Z</time></trkpt><trkpt lat="40.869645" lon="16.4545367"><ele>434.0</ele><time>2026-05-03T11:27:55.565Z</time></trkpt><trkpt lat="40.869815" lon="16.4544167"><ele>434.0</ele><time>2026-05-03T11:27:56.565Z</time></trkpt><trkpt lat="40.86996" lon="16.4542883"><ele>434.0</ele><time>2026-05-03T11:27:57.566Z</time></trkpt><trkpt lat="40.8701167" lon="16.45417"><ele>434.0</ele><time>2026-05-03T11:27:58.566Z</time></trkpt><trkpt lat="40.8702733" lon="16.454045"><ele>434.66666666666663</ele><time>2026-05-03T11:27:59.565Z</time></trkpt><trkpt lat="40.8704333" lon="16.4539283"><ele>435.33333333333337</ele><time>2026-05-03T11:28:00.565Z</time></trkpt><trkpt lat="40.8706067" lon="16.453815"><ele>436.0</ele><time>2026-05-03T11:28:01.565Z</time></trkpt><trkpt lat="40.87078" lon="16.4537083"><ele>436.33333333333337</ele><time>2026-05-03T11:28:02.566Z</time></trkpt><trkpt lat="40.87094" lon="16.4536017"><ele>436.66666666666663</ele><time>2026-05-03T11:28:03.566Z</time></trkpt><trkpt lat="40.871105" lon="16.4534917"><ele>437.0</ele><time>2026-05-03T11:28:04.566Z</time></trkpt><trkpt lat="40.871265" lon="16.453375"><ele>437.66666666666663</ele><time>2026-05-03T11:28:05.565Z</time></trkpt><trkpt lat="40.8714233" lon="16.4532617"><ele>438.33333333333337</ele><time>2026-05-03T11:28:06.566Z</time></trkpt><trkpt lat="40.8715733" lon="16.4531283"><ele>439.0</ele><time>2026-05-03T11:28:07.565Z</time></trkpt><trkpt lat="40.8717167" lon="16.4529867"><ele>440.33333333333337</ele><time>2026-05-03T11:28:08.565Z</time></trkpt><trkpt lat="40.87185" lon="16.452825"><ele>441.66666666666663</ele><time>2026-05-03T11:28:09.566Z</time></trkpt><trkpt lat="40.8719767" lon="16.45265"><ele>443.0</ele><time>2026-05-03T11:28:10.565Z</time></trkpt><trkpt lat="40.8721033" lon="16.4524717"><ele>443.0</ele><time>2026-05-03T11:28:11.566Z</time></trkpt><trkpt lat="40.8722283" lon="16.4522883"><ele>443.0</ele><time>2026-05-03T11:28:12.565Z</time></trkpt><trkpt lat="40.8723583" lon="16.4521083"><ele>443.0</ele><time>2026-05-03T11:28:13.565Z</time></trkpt><trkpt lat="40.8724983" lon="16.45194"><ele>444.3333333333333</ele><time>2026-05-03T11:28:14.566Z</time></trkpt><trkpt lat="40.872625" lon="16.451765"><ele>445.66666666666663</ele><time>2026-05-03T11:28:15.565Z</time></trkpt><trkpt lat="40.8727617" lon="16.4516"><ele>447.0</ele><time>2026-05-03T11:28:16.566Z</time></trkpt><trkpt lat="40.8729067" lon="16.4514383"><ele>447.0</ele><time>2026-05-03T11:28:17.565Z</time></trkpt><trkpt lat="40.873065" lon="16.4513133"><ele>447.0</ele><time>2026-05-03T11:28:18.565Z</time></trkpt><trkpt lat="40.873225" lon="16.4511867"><ele>447.0</ele><time>2026-05-03T11:28:19.565Z</time></trkpt><trkpt lat="40.8733867" lon="16.451065"><ele>448.33333333333337</ele><time>2026-05-03T11:28:20.566Z</time></trkpt><trkpt lat="40.8735467" lon="16.4509417"><ele>449.6666666666667</ele><time>2026-05-03T11:28:21.565Z</time></trkpt><trkpt lat="40.87371" lon="16.4508217"><ele>451.0</ele><time>2026-05-03T11:28:22.565Z</time></trkpt><trkpt lat="40.87387" lon="16.4507017"><ele>451.0</ele><time>2026-05-03T11:28:23.566Z</time></trkpt><trkpt lat="40.8740367" lon="16.4505783"><ele>451.0</ele><time>2026-05-03T11:28:24.565Z</time></trkpt><trkpt lat="40.8742017" lon="16.450455"><ele>451.0</ele><time>2026-05-03T11:28:25.566Z</time></trkpt><trkpt lat="40.8743667" lon="16.4503367"><ele>453.0</ele><time>2026-05-03T11:28:26.566Z</time></trkpt><trkpt lat="40.8745383" lon="16.4502167"><ele>455.0</ele><time>2026-05-03T11:28:27.566Z</time></trkpt><trkpt lat="40.8747067" lon="16.4500967"><ele>457.0</ele><time>2026-05-03T11:28:28.566Z</time></trkpt><trkpt lat="40.87487" lon="16.4499783"><ele>457.0</ele><time>2026-05-03T11:28:29.566Z</time></trkpt><trkpt lat="40.87503" lon="16.4498633"><ele>457.0</ele><time>2026-05-03T11:28:30.566Z</time></trkpt><trkpt lat="40.87519" lon="16.4497417"><ele>457.0</ele><time>2026-05-03T11:28:31.566Z</time></trkpt><trkpt lat="40.87534" lon="16.44962"><ele>458.33333333333337</ele><time>2026-05-03T11:28:32.566Z</time></trkpt><trkpt lat="40.8754867" lon="16.449495"><ele>459.66666666666663</ele><time>2026-05-03T11:28:33.566Z</time></trkpt><trkpt lat="40.8756283" lon="16.4493483"><ele>461.0</ele><time>2026-05-03T11:28:34.566Z</time></trkpt><trkpt lat="40.87576" lon="16.4492"><ele>461.0</ele><time>2026-05-03T11:28:35.566Z</time></trkpt><trkpt lat="40.8758967" lon="16.4490433"><ele>461.0</ele><time>2026-05-03T11:28:36.565Z</time></trkpt><trkpt lat="40.876035" lon="16.4488983"><ele>461.0</ele><time>2026-05-03T11:28:37.565Z</time></trkpt><trkpt lat="40.8761817" lon="16.4487633"><ele>463.0</ele><time>2026-05-03T11:28:38.565Z</time></trkpt><trkpt lat="40.876335" lon="16.4486333"><ele>465.0</ele><time>2026-05-03T11:28:39.566Z</time></trkpt><trkpt lat="40.8764983" lon="16.4485017"><ele>467.0</ele><time>2026-05-03T11:28:40.565Z</time></trkpt><trkpt lat="40.8766583" lon="16.44837"><ele>467.0</ele><time>2026-05-03T11:28:41.565Z</time></trkpt><trkpt lat="40.8768217" lon="16.4482367"><ele>467.0</ele><time>2026-05-03T11:28:42.566Z</time></trkpt><trkpt lat="40.87699" lon="16.4480983"><ele>467.0</ele><time>2026-05-03T11:28:43.566Z</time></trkpt><trkpt lat="40.8771567" lon="16.4479717"><ele>468.66666666666663</ele><time>2026-05-03T11:28:44.565Z</time></trkpt><trkpt lat="40.8773283" lon="16.4478383"><ele>470.33333333333337</ele><time>2026-05-03T11:28:45.565Z</time></trkpt><trkpt lat="40.8775017" lon="16.4477083"><ele>472.0</ele><time>2026-05-03T11:28:46.565Z</time></trkpt><trkpt lat="40.8776683" lon="16.447575"><ele>472.0</ele><time>2026-05-03T11:28:47.566Z</time></trkpt><trkpt lat="40.8778333" lon="16.4474467"><ele>472.0</ele><time>2026-05-03T11:28:48.565Z</time></trkpt><trkpt lat="40.8779933" lon="16.4473067"><ele>472.0</ele><time>2026-05-03T11:28:49.565Z</time></trkpt><trkpt lat="40.8781383" lon="16.4471517"><ele>473.6666666666667</ele><time>2026-05-03T11:28:50.565Z</time></trkpt><trkpt lat="40.8782833" lon="16.4469667"><ele>475.33333333333337</ele><time>2026-05-03T11:28:51.565Z</time></trkpt><trkpt lat="40.8784183" lon="16.4467683"><ele>477.0</ele><time>2026-05-03T11:28:52.565Z</time></trkpt><trkpt lat="40.8785433" lon="16.44657"><ele>477.0</ele><time>2026-05-03T11:28:53.565Z</time></trkpt><trkpt lat="40.878645" lon="16.4463733"><ele>477.0</ele><time>2026-05-03T11:28:54.566Z</time></trkpt><trkpt lat="40.878735" lon="16.446155"><ele>477.0</ele><time>2026-05-03T11:28:55.565Z</time></trkpt><trkpt lat="40.8788117" lon="16.4459333"><ele>476.66666666666663</ele><time>2026-05-03T11:28:56.566Z</time></trkpt><trkpt lat="40.8788717" lon="16.4457033"><ele>476.3333333333333</ele><time>2026-05-03T11:28:57.565Z</time></trkpt><trkpt lat="40.8789367" lon="16.4454683"><ele>476.0</ele><time>2026-05-03T11:28:58.566Z</time></trkpt><trkpt lat="40.87901" lon="16.445245"><ele>476.66666666666663</ele><time>2026-05-03T11:28:59.565Z</time></trkpt><trkpt lat="40.8790867" lon="16.4450383"><ele>477.33333333333337</ele><time>2026-05-03T11:29:00.565Z</time></trkpt><trkpt lat="40.879155" lon="16.44483"><ele>478.0</ele><time>2026-05-03T11:29:01.565Z</time></trkpt><trkpt lat="40.87923" lon="16.44462"><ele>480.33333333333337</ele><time>2026-05-03T11:29:02.565Z</time></trkpt><trkpt lat="40.879315" lon="16.4444117"><ele>482.66666666666663</ele><time>2026-05-03T11:29:03.565Z</time></trkpt><trkpt lat="40.8794033" lon="16.4442017"><ele>485.0</ele><time>2026-05-03T11:29:04.566Z</time></trkpt><trkpt lat="40.8795017" lon="16.443995"><ele>484.66666666666663</ele><time>2026-05-03T11:29:05.566Z</time></trkpt><trkpt lat="40.8796033" lon="16.4437917"><ele>484.33333333333337</ele><time>2026-05-03T11:29:06.566Z</time></trkpt><trkpt lat="40.87971" lon="16.4435983"><ele>484.0</ele><time>2026-05-03T11:29:07.565Z</time></trkpt><trkpt lat="40.8798217" lon="16.4434083"><ele>484.0</ele><time>2026-05-03T11:29:08.565Z</time></trkpt><trkpt lat="40.8799517" lon="16.4432267"><ele>484.0</ele><time>2026-05-03T11:29:09.565Z</time></trkpt><trkpt lat="40.8800817" lon="16.4430517"><ele>484.0</ele><time>2026-05-03T11:29:10.565Z</time></trkpt><trkpt lat="40.880225" lon="16.4428783"><ele>485.6666666666667</ele><time>2026-05-03T11:29:11.565Z</time></trkpt><trkpt lat="40.8803733" lon="16.4427217"><ele>487.33333333333337</ele><time>2026-05-03T11:29:12.565Z</time></trkpt><trkpt lat="40.88052" lon="16.4425783"><ele>489.0</ele><time>2026-05-03T11:29:13.566Z</time></trkpt><trkpt lat="40.8806633" lon="16.442445"><ele>489.0</ele><time>2026-05-03T11:29:14.565Z</time></trkpt><trkpt lat="40.8808033" lon="16.4423233"><ele>489.0</ele><time>2026-05-03T11:29:15.565Z</time></trkpt><trkpt lat="40.8809283" lon="16.4422183"><ele>489.0</ele><time>2026-05-03T11:29:16.565Z</time></trkpt><trkpt lat="40.8810483" lon="16.4421267"><ele>490.4</ele><time>2026-05-03T11:29:17.565Z</time></trkpt><trkpt lat="40.8811567" lon="16.4420617"><ele>491.79999999999995</ele><time>2026-05-03T11:29:18.566Z</time></trkpt><trkpt lat="40.88126" lon="16.4419983"><ele>493.20000000000005</ele><time>2026-05-03T11:29:19.565Z</time></trkpt><trkpt lat="40.88135" lon="16.44195"><ele>494.6</ele><time>2026-05-03T11:29:20.565Z</time></trkpt><trkpt lat="40.8814267" lon="16.4419017"><ele>496.0</ele><time>2026-05-03T11:29:21.565Z</time></trkpt><trkpt lat="40.8815" lon="16.4418633"><ele>496.0</ele><time>2026-05-03T11:29:22.565Z</time></trkpt><trkpt lat="40.8815583" lon="16.4418283"><ele>496.0</ele><time>2026-05-03T11:29:23.565Z</time></trkpt><trkpt lat="40.8816367" lon="16.4417833"><ele>496.0</ele><time>2026-05-03T11:29:25.566Z</time></trkpt></trkseg><trkseg><trkpt lat="40.881955" lon="16.4412583"><ele>504.6666666666667</ele><time>2026-05-03T11:43:51.662Z</time></trkpt><trkpt lat="40.882075" lon="16.4416417"><ele>501.33333333333337</ele><time>2026-05-03T11:43:52.662Z</time></trkpt><trkpt lat="40.8821383" lon="16.4415683"><ele>498.0</ele><time>2026-05-03T11:44:33.561Z</time></trkpt><trkpt lat="40.8822083" lon="16.4415383"><ele>498.0</ele><time>2026-05-03T11:44:34.56Z</time></trkpt><trkpt lat="40.8822817" lon="16.4415133"><ele>497.99999999999994</ele><time>2026-05-03T11:44:35.561Z</time></trkpt><trkpt lat="40.8823667" lon="16.4414817"><ele>497.99999999999994</ele><time>2026-05-03T11:44:36.561Z</time></trkpt><trkpt lat="40.8824583" lon="16.4414417"><ele>498.0</ele><time>2026-05-03T11:44:37.561Z</time></trkpt><trkpt lat="40.88255" lon="16.4413983"><ele>498.0</ele><time>2026-05-03T11:44:38.561Z</time></trkpt><trkpt lat="40.8826467" lon="16.4413483"><ele>500.5</ele><time>2026-05-03T11:44:39.561Z</time></trkpt><trkpt lat="40.8827583" lon="16.441295"><ele>503.0</ele><time>2026-05-03T11:44:40.561Z</time></trkpt><trkpt lat="40.8828633" lon="16.4412133"><ele>505.5</ele><time>2026-05-03T11:44:41.561Z</time></trkpt><trkpt lat="40.882975" lon="16.441115"><ele>508.0</ele><time>2026-05-03T11:44:42.56Z</time></trkpt><trkpt lat="40.8830833" lon="16.4410017"><ele>508.0</ele><time>2026-05-03T11:44:43.561Z</time></trkpt><trkpt lat="40.88319" lon="16.4408767"><ele>508.0</ele><time>2026-05-03T11:44:44.56Z</time></trkpt><trkpt lat="40.8833017" lon="16.4407433"><ele>508.0</ele><time>2026-05-03T11:44:45.561Z</time></trkpt><trkpt lat="40.8834083" lon="16.440605"><ele>508.0</ele><time>2026-05-03T11:44:46.56Z</time></trkpt><trkpt lat="40.8835217" lon="16.4404467"><ele>511.0</ele><time>2026-05-03T11:44:47.56Z</time></trkpt><trkpt lat="40.8836467" lon="16.4403"><ele>514.0</ele><time>2026-05-03T11:44:48.561Z</time></trkpt><trkpt lat="40.8837717" lon="16.44016"><ele>517.0</ele><time>2026-05-03T11:44:49.561Z</time></trkpt><trkpt lat="40.8839" lon="16.4400167"><ele>517.0</ele><time>2026-05-03T11:44:50.56Z</time></trkpt><trkpt lat="40.88404" lon="16.439885"><ele>517.0</ele><time>2026-05-03T11:44:51.56Z</time></trkpt><trkpt lat="40.8841917" lon="16.4397617"><ele>517.0</ele><time>2026-05-03T11:44:52.56Z</time></trkpt><trkpt lat="40.88435" lon="16.43966"><ele>518.3333333333334</ele><time>2026-05-03T11:44:53.561Z</time></trkpt><trkpt lat="40.88452" lon="16.4395633"><ele>519.6666666666666</ele><time>2026-05-03T11:44:54.56Z</time></trkpt><trkpt lat="40.88469" lon="16.4394667"><ele>521.0</ele><time>2026-05-03T11:44:55.56Z</time></trkpt><trkpt lat="40.8848617" lon="16.4393733"><ele>521.0</ele><time>2026-05-03T11:44:56.56Z</time></trkpt><trkpt lat="40.885035" lon="16.4392933"><ele>521.0</ele><time>2026-05-03T11:44:57.561Z</time></trkpt><trkpt lat="40.885205" lon="16.439225"><ele>521.0</ele><time>2026-05-03T11:44:58.56Z</time></trkpt><trkpt lat="40.88537" lon="16.4391783"><ele>522.6666666666666</ele><time>2026-05-03T11:44:59.56Z</time></trkpt><trkpt lat="40.885545" lon="16.4391417"><ele>524.3333333333334</ele><time>2026-05-03T11:45:00.561Z</time></trkpt><trkpt lat="40.8857217" lon="16.4390933"><ele>526.0</ele><time>2026-05-03T11:45:01.56Z</time></trkpt><trkpt lat="40.8858917" lon="16.439045"><ele>525.6666666666667</ele><time>2026-05-03T11:45:02.561Z</time></trkpt><trkpt lat="40.8860383" lon="16.438995"><ele>525.3333333333334</ele><time>2026-05-03T11:45:03.56Z</time></trkpt><trkpt lat="40.8861833" lon="16.4389717"><ele>525.0</ele><time>2026-05-03T11:45:04.56Z</time></trkpt><trkpt lat="40.886335" lon="16.4389883"><ele>525.0</ele><time>2026-05-03T11:45:05.561Z</time></trkpt><trkpt lat="40.8864783" lon="16.439035"><ele>525.0</ele><time>2026-05-03T11:45:06.56Z</time></trkpt><trkpt lat="40.8866167" lon="16.439115"><ele>525.0</ele><time>2026-05-03T11:45:07.56Z</time></trkpt><trkpt lat="40.8867517" lon="16.4392233"><ele>527.3333333333334</ele><time>2026-05-03T11:45:08.56Z</time></trkpt><trkpt lat="40.8868833" lon="16.4393617"><ele>529.6666666666667</ele><time>2026-05-03T11:45:09.56Z</time></trkpt><trkpt lat="40.88702" lon="16.4395017"><ele>532.0</ele><time>2026-05-03T11:45:10.56Z</time></trkpt><trkpt lat="40.8871633" lon="16.43964"><ele>532.0</ele><time>2026-05-03T11:45:11.56Z</time></trkpt><trkpt lat="40.8873133" lon="16.4397767"><ele>532.0</ele><time>2026-05-03T11:45:12.56Z</time></trkpt><trkpt lat="40.887475" lon="16.4399017"><ele>532.0</ele><time>2026-05-03T11:45:13.56Z</time></trkpt><trkpt lat="40.887625" lon="16.440045"><ele>532.3333333333334</ele><time>2026-05-03T11:45:14.561Z</time></trkpt><trkpt lat="40.88777" lon="16.4402"><ele>532.6666666666666</ele><time>2026-05-03T11:45:15.56Z</time></trkpt><trkpt lat="40.8879" lon="16.440365"><ele>533.0</ele><time>2026-05-03T11:45:16.561Z</time></trkpt><trkpt lat="40.888035" lon="16.4405267"><ele>533.0</ele><time>2026-05-03T11:45:17.561Z</time></trkpt><trkpt lat="40.888185" lon="16.44067"><ele>533.0</ele><time>2026-05-03T11:45:18.561Z</time></trkpt><trkpt lat="40.888345" lon="16.4407983"><ele>533.0</ele><time>2026-05-03T11:45:19.561Z</time></trkpt><trkpt lat="40.888505" lon="16.4409"><ele>534.6666666666666</ele><time>2026-05-03T11:45:20.561Z</time></trkpt><trkpt lat="40.888685" lon="16.4409833"><ele>536.3333333333334</ele><time>2026-05-03T11:45:21.56Z</time></trkpt><trkpt lat="40.88886" lon="16.4410433"><ele>538.0</ele><time>2026-05-03T11:45:22.56Z</time></trkpt><trkpt lat="40.889035" lon="16.4410683"><ele>538.0</ele><time>2026-05-03T11:45:23.56Z</time></trkpt><trkpt lat="40.889225" lon="16.441075"><ele>538.0</ele><time>2026-05-03T11:45:24.561Z</time></trkpt><trkpt lat="40.8894017" lon="16.4410633"><ele>538.0</ele><time>2026-05-03T11:45:25.56Z</time></trkpt><trkpt lat="40.8895667" lon="16.44108"><ele>539.0</ele><time>2026-05-03T11:45:26.56Z</time></trkpt><trkpt lat="40.8897317" lon="16.4411333"><ele>540.0</ele><time>2026-05-03T11:45:27.56Z</time></trkpt><trkpt lat="40.88989" lon="16.4411983"><ele>541.0</ele><time>2026-05-03T11:45:28.56Z</time></trkpt><trkpt lat="40.8900583" lon="16.4412583"><ele>543.0</ele><time>2026-05-03T11:45:29.56Z</time></trkpt><trkpt lat="40.8902233" lon="16.44132"><ele>545.0</ele><time>2026-05-03T11:45:30.56Z</time></trkpt><trkpt lat="40.8903917" lon="16.4413617"><ele>547.0</ele><time>2026-05-03T11:45:31.56Z</time></trkpt><trkpt lat="40.8905617" lon="16.4413933"><ele>547.0</ele><time>2026-05-03T11:45:32.56Z</time></trkpt><trkpt lat="40.8907467" lon="16.441395"><ele>547.0</ele><time>2026-05-03T11:45:33.56Z</time></trkpt><trkpt lat="40.8909367" lon="16.4413633"><ele>547.0</ele><time>2026-05-03T11:45:34.56Z</time></trkpt><trkpt lat="40.891115" lon="16.441295"><ele>547.6666666666667</ele><time>2026-05-03T11:45:35.56Z</time></trkpt><trkpt lat="40.891295" lon="16.4412167"><ele>548.3333333333334</ele><time>2026-05-03T11:45:36.56Z</time></trkpt><trkpt lat="40.8914683" lon="16.4411083"><ele>549.0</ele><time>2026-05-03T11:45:37.56Z</time></trkpt><trkpt lat="40.8916267" lon="16.440985"><ele>549.6666666666666</ele><time>2026-05-03T11:45:38.56Z</time></trkpt><trkpt lat="40.8917933" lon="16.44088"><ele>550.3333333333333</ele><time>2026-05-03T11:45:39.56Z</time></trkpt><trkpt lat="40.8919667" lon="16.4408083"><ele>551.0</ele><time>2026-05-03T11:45:40.56Z</time></trkpt><trkpt lat="40.8921467" lon="16.44077"><ele>551.0</ele><time>2026-05-03T11:45:41.56Z</time></trkpt><trkpt lat="40.892335" lon="16.4407483"><ele>551.0</ele><time>2026-05-03T11:45:42.56Z</time></trkpt><trkpt lat="40.892525" lon="16.4407467"><ele>551.0</ele><time>2026-05-03T11:45:43.561Z</time></trkpt><trkpt lat="40.8927083" lon="16.4407717"><ele>553.0</ele><time>2026-05-03T11:45:44.56Z</time></trkpt><trkpt lat="40.8928667" lon="16.4408317"><ele>555.0</ele><time>2026-05-03T11:45:45.56Z</time></trkpt><trkpt lat="40.8929967" lon="16.4409367"><ele>557.0</ele><time>2026-05-03T11:45:46.56Z</time></trkpt><trkpt lat="40.8931167" lon="16.44106"><ele>557.0</ele><time>2026-05-03T11:45:47.56Z</time></trkpt><trkpt lat="40.8932233" lon="16.4411983"><ele>557.0</ele><time>2026-05-03T11:45:48.56Z</time></trkpt><trkpt lat="40.893335" lon="16.4413467"><ele>557.0</ele><time>2026-05-03T11:45:49.561Z</time></trkpt><trkpt lat="40.8934533" lon="16.4414983"><ele>557.0</ele><time>2026-05-03T11:45:50.56Z</time></trkpt><trkpt lat="40.8935867" lon="16.441645"><ele>557.0</ele><time>2026-05-03T11:45:51.56Z</time></trkpt><trkpt lat="40.8937267" lon="16.4417967"><ele>557.0</ele><time>2026-05-03T11:45:52.561Z</time></trkpt><trkpt lat="40.8938767" lon="16.4419517"><ele>557.0</ele><time>2026-05-03T11:45:53.56Z</time></trkpt><trkpt lat="40.8940267" lon="16.442105"><ele>557.0</ele><time>2026-05-03T11:45:54.56Z</time></trkpt><trkpt lat="40.8941833" lon="16.4422617"><ele>557.0</ele><time>2026-05-03T11:45:55.56Z</time></trkpt><trkpt lat="40.894345" lon="16.44241"><ele>556.6666666666666</ele><time>2026-05-03T11:45:56.561Z</time></trkpt><trkpt lat="40.89452" lon="16.4425317"><ele>556.3333333333334</ele><time>2026-05-03T11:45:57.561Z</time></trkpt><trkpt lat="40.894695" lon="16.4426283"><ele>556.0</ele><time>2026-05-03T11:45:58.56Z</time></trkpt><trkpt lat="40.89488" lon="16.442675"><ele>556.0</ele><time>2026-05-03T11:45:59.561Z</time></trkpt><trkpt lat="40.8950717" lon="16.4427017"><ele>556.0</ele><time>2026-05-03T11:46:00.56Z</time></trkpt><trkpt lat="40.8952567" lon="16.4426917"><ele>556.0</ele><time>2026-05-03T11:46:01.56Z</time></trkpt><trkpt lat="40.8954383" lon="16.44265"><ele>555.0</ele><time>2026-05-03T11:46:02.56Z</time></trkpt><trkpt lat="40.895605" lon="16.4425817"><ele>554.0</ele><time>2026-05-03T11:46:03.56Z</time></trkpt><trkpt lat="40.89576" lon="16.4424733"><ele>553.0</ele><time>2026-05-03T11:46:04.561Z</time></trkpt><trkpt lat="40.8959083" lon="16.4423383"><ele>551.3333333333334</ele><time>2026-05-03T11:46:05.56Z</time></trkpt><trkpt lat="40.896045" lon="16.4421783"><ele>549.6666666666666</ele><time>2026-05-03T11:46:06.56Z</time></trkpt><trkpt lat="40.896175" lon="16.4420033"><ele>548.0</ele><time>2026-05-03T11:46:07.56Z</time></trkpt><trkpt lat="40.8963033" lon="16.4418133"><ele>548.0</ele><time>2026-05-03T11:46:08.56Z</time></trkpt><trkpt lat="40.8964133" lon="16.4416067"><ele>548.0</ele><time>2026-05-03T11:46:09.56Z</time></trkpt><trkpt lat="40.8965233" lon="16.4413817"><ele>548.0</ele><time>2026-05-03T11:46:10.56Z</time></trkpt><trkpt lat="40.896635" lon="16.4411617"><ele>548.3333333333333</ele><time>2026-05-03T11:46:11.56Z</time></trkpt><trkpt lat="40.896745" lon="16.4409433"><ele>548.6666666666666</ele><time>2026-05-03T11:46:12.56Z</time></trkpt><trkpt lat="40.8968583" lon="16.4407183"><ele>549.0</ele><time>2026-05-03T11:46:13.56Z</time></trkpt><trkpt lat="40.8969683" lon="16.4405"><ele>550.0</ele><time>2026-05-03T11:46:14.56Z</time></trkpt><trkpt lat="40.89709" lon="16.4402817"><ele>551.0</ele><time>2026-05-03T11:46:15.56Z</time></trkpt><trkpt lat="40.8971983" lon="16.4400583"><ele>552.0</ele><time>2026-05-03T11:46:16.561Z</time></trkpt><trkpt lat="40.89731" lon="16.43984"><ele>551.6666666666666</ele><time>2026-05-03T11:46:17.56Z</time></trkpt><trkpt lat="40.8974183" lon="16.4396217"><ele>551.3333333333333</ele><time>2026-05-03T11:46:18.56Z</time></trkpt><trkpt lat="40.8975283" lon="16.439405"><ele>551.0</ele><time>2026-05-03T11:46:19.56Z</time></trkpt><trkpt lat="40.897635" lon="16.4391883"><ele>551.0</ele><time>2026-05-03T11:46:20.56Z</time></trkpt><trkpt lat="40.8977383" lon="16.438975"><ele>551.0</ele><time>2026-05-03T11:46:21.561Z</time></trkpt><trkpt lat="40.897845" lon="16.4387517"><ele>551.0</ele><time>2026-05-03T11:46:22.56Z</time></trkpt><trkpt lat="40.8979567" lon="16.4385317"><ele>552.0</ele><time>2026-05-03T11:46:23.56Z</time></trkpt><trkpt lat="40.89806" lon="16.4383167"><ele>553.0</ele><time>2026-05-03T11:46:24.561Z</time></trkpt><trkpt lat="40.8981767" lon="16.4381"><ele>554.0</ele><time>2026-05-03T11:46:25.56Z</time></trkpt><trkpt lat="40.8982933" lon="16.437885"><ele>553.6666666666666</ele><time>2026-05-03T11:46:26.56Z</time></trkpt><trkpt lat="40.8983983" lon="16.4376717"><ele>553.3333333333334</ele><time>2026-05-03T11:46:27.561Z</time></trkpt><trkpt lat="40.8985017" lon="16.4374533"><ele>553.0</ele><time>2026-05-03T11:46:28.56Z</time></trkpt><trkpt lat="40.8986083" lon="16.4372367"><ele>553.3333333333334</ele><time>2026-05-03T11:46:29.561Z</time></trkpt><trkpt lat="40.8987233" lon="16.4370183"><ele>553.6666666666666</ele><time>2026-05-03T11:46:30.56Z</time></trkpt><trkpt lat="40.8988267" lon="16.4367983"><ele>554.0</ele><time>2026-05-03T11:46:31.56Z</time></trkpt><trkpt lat="40.8989383" lon="16.436585"><ele>554.0</ele><time>2026-05-03T11:46:32.561Z</time></trkpt><trkpt lat="40.899045" lon="16.4363683"><ele>554.0</ele><time>2026-05-03T11:46:33.56Z</time></trkpt><trkpt lat="40.8991533" lon="16.43615"><ele>554.0</ele><time>2026-05-03T11:46:34.561Z</time></trkpt><trkpt lat="40.89926" lon="16.43593"><ele>553.0</ele><time>2026-05-03T11:46:35.56Z</time></trkpt><trkpt lat="40.899365" lon="16.435705"><ele>552.0</ele><time>2026-05-03T11:46:36.56Z</time></trkpt><trkpt lat="40.899465" lon="16.4354783"><ele>551.0</ele><time>2026-05-03T11:46:37.561Z</time></trkpt><trkpt lat="40.8995633" lon="16.43525"><ele>551.0</ele><time>2026-05-03T11:46:38.56Z</time></trkpt><trkpt lat="40.8996583" lon="16.4350167"><ele>551.0</ele><time>2026-05-03T11:46:39.561Z</time></trkpt><trkpt lat="40.8997583" lon="16.4347833"><ele>551.0</ele><time>2026-05-03T11:46:40.56Z</time></trkpt><trkpt lat="40.8998583" lon="16.4345483"><ele>550.6666666666666</ele><time>2026-05-03T11:46:41.56Z</time></trkpt><trkpt lat="40.8999583" lon="16.4343117"><ele>550.3333333333334</ele><time>2026-05-03T11:46:42.561Z</time></trkpt><trkpt lat="40.9000567" lon="16.4340667"><ele>550.0</ele><time>2026-05-03T11:46:43.56Z</time></trkpt><trkpt lat="40.9001483" lon="16.4338333"><ele>548.3333333333334</ele><time>2026-05-03T11:46:44.56Z</time></trkpt><trkpt lat="40.90024" lon="16.4335933"><ele>546.6666666666666</ele><time>2026-05-03T11:46:45.56Z</time></trkpt><trkpt lat="40.90034" lon="16.4333533"><ele>545.0</ele><time>2026-05-03T11:46:46.561Z</time></trkpt><trkpt lat="40.9004433" lon="16.4331233"><ele>544.3333333333333</ele><time>2026-05-03T11:46:47.56Z</time></trkpt><trkpt lat="40.90054" lon="16.43289"><ele>543.6666666666666</ele><time>2026-05-03T11:46:48.561Z</time></trkpt><trkpt lat="40.9006333" lon="16.43266"><ele>543.0</ele><time>2026-05-03T11:46:49.561Z</time></trkpt><trkpt lat="40.90073" lon="16.43244"><ele>543.0</ele><time>2026-05-03T11:46:50.56Z</time></trkpt><trkpt lat="40.9008283" lon="16.432215"><ele>543.0</ele><time>2026-05-03T11:46:51.56Z</time></trkpt><trkpt lat="40.900925" lon="16.4319883"><ele>543.0</ele><time>2026-05-03T11:46:52.56Z</time></trkpt><trkpt lat="40.9010217" lon="16.4317733"><ele>541.6666666666666</ele><time>2026-05-03T11:46:53.56Z</time></trkpt><trkpt lat="40.9011267" lon="16.4315467"><ele>540.3333333333333</ele><time>2026-05-03T11:46:54.561Z</time></trkpt><trkpt lat="40.90122" lon="16.4313233"><ele>539.0</ele><time>2026-05-03T11:46:55.56Z</time></trkpt><trkpt lat="40.9013017" lon="16.4311067"><ele>539.0</ele><time>2026-05-03T11:46:56.56Z</time></trkpt><trkpt lat="40.90139" lon="16.4308917"><ele>539.0</ele><time>2026-05-03T11:46:57.56Z</time></trkpt><trkpt lat="40.901485" lon="16.4306783"><ele>539.0</ele><time>2026-05-03T11:46:58.561Z</time></trkpt><trkpt lat="40.90158" lon="16.43046"><ele>539.0</ele><time>2026-05-03T11:46:59.561Z</time></trkpt><trkpt lat="40.9016783" lon="16.4302417"><ele>539.0</ele><time>2026-05-03T11:47:00.56Z</time></trkpt><trkpt lat="40.9017783" lon="16.4300233"><ele>539.0</ele><time>2026-05-03T11:47:01.561Z</time></trkpt><trkpt lat="40.90188" lon="16.4298"><ele>539.6666666666666</ele><time>2026-05-03T11:47:02.56Z</time></trkpt><trkpt lat="40.9019767" lon="16.4295833"><ele>540.3333333333334</ele><time>2026-05-03T11:47:03.56Z</time></trkpt><trkpt lat="40.9020717" lon="16.42937"><ele>541.0</ele><time>2026-05-03T11:47:04.56Z</time></trkpt><trkpt lat="40.9021717" lon="16.4291467"><ele>541.0</ele><time>2026-05-03T11:47:05.56Z</time></trkpt><trkpt lat="40.9022617" lon="16.4289183"><ele>541.0</ele><time>2026-05-03T11:47:06.56Z</time></trkpt><trkpt lat="40.9023517" lon="16.4287067"><ele>541.0</ele><time>2026-05-03T11:47:07.56Z</time></trkpt><trkpt lat="40.9024433" lon="16.4285067"><ele>541.3333333333334</ele><time>2026-05-03T11:47:08.561Z</time></trkpt><trkpt lat="40.902525" lon="16.4283217"><ele>541.6666666666666</ele><time>2026-05-03T11:47:09.56Z</time></trkpt><trkpt lat="40.9026183" lon="16.4281533"><ele>542.0</ele><time>2026-05-03T11:47:10.56Z</time></trkpt><trkpt lat="40.90273" lon="16.4280033"><ele>542.3333333333333</ele><time>2026-05-03T11:47:11.56Z</time></trkpt><trkpt lat="40.9028633" lon="16.4278783"><ele>542.6666666666666</ele><time>2026-05-03T11:47:12.561Z</time></trkpt><trkpt lat="40.9030167" lon="16.4277817"><ele>543.0</ele><time>2026-05-03T11:47:13.56Z</time></trkpt><trkpt lat="40.90318" lon="16.42769"><ele>543.0</ele><time>2026-05-03T11:47:14.561Z</time></trkpt><trkpt lat="40.9033483" lon="16.4275883"><ele>543.0</ele><time>2026-05-03T11:47:15.56Z</time></trkpt><trkpt lat="40.9035133" lon="16.4274883"><ele>543.0</ele><time>2026-05-03T11:47:16.561Z</time></trkpt><trkpt lat="40.9036833" lon="16.4273867"><ele>542.6666666666666</ele><time>2026-05-03T11:47:17.56Z</time></trkpt><trkpt lat="40.9038583" lon="16.4272767"><ele>542.3333333333333</ele><time>2026-05-03T11:47:18.56Z</time></trkpt><trkpt lat="40.9040283" lon="16.4271683"><ele>542.0</ele><time>2026-05-03T11:47:19.56Z</time></trkpt><trkpt lat="40.904195" lon="16.42706"><ele>544.0</ele><time>2026-05-03T11:47:20.56Z</time></trkpt><trkpt lat="40.9043633" lon="16.42696"><ele>546.0</ele><time>2026-05-03T11:47:21.56Z</time></trkpt><trkpt lat="40.9045317" lon="16.4268483"><ele>548.0</ele><time>2026-05-03T11:47:22.561Z</time></trkpt><trkpt lat="40.9046983" lon="16.42675"><ele>548.0</ele><time>2026-05-03T11:47:23.561Z</time></trkpt><trkpt lat="40.90486" lon="16.42665"><ele>548.0</ele><time>2026-05-03T11:47:24.561Z</time></trkpt><trkpt lat="40.9050133" lon="16.4265483"><ele>548.0</ele><time>2026-05-03T11:47:25.56Z</time></trkpt><trkpt lat="40.905155" lon="16.4264333"><ele>547.6666666666666</ele><time>2026-05-03T11:47:26.56Z</time></trkpt><trkpt lat="40.9052783" lon="16.4262917"><ele>547.3333333333334</ele><time>2026-05-03T11:47:27.56Z</time></trkpt><trkpt lat="40.9053833" lon="16.4261167"><ele>547.0</ele><time>2026-05-03T11:47:28.56Z</time></trkpt><trkpt lat="40.905475" lon="16.4259283"><ele>547.0</ele><time>2026-05-03T11:47:29.56Z</time></trkpt><trkpt lat="40.9055667" lon="16.4257283"><ele>547.0</ele><time>2026-05-03T11:47:30.561Z</time></trkpt><trkpt lat="40.9056667" lon="16.4255217"><ele>547.0</ele><time>2026-05-03T11:47:31.561Z</time></trkpt><trkpt lat="40.9057633" lon="16.425315"><ele>548.6666666666667</ele><time>2026-05-03T11:47:32.561Z</time></trkpt><trkpt lat="40.9058617" lon="16.4251033"><ele>550.3333333333334</ele><time>2026-05-03T11:47:33.56Z</time></trkpt><trkpt lat="40.9059617" lon="16.42489"><ele>552.0</ele><time>2026-05-03T11:47:34.561Z</time></trkpt><trkpt lat="40.9060583" lon="16.4246833"><ele>548.3333333333334</ele><time>2026-05-03T11:47:35.561Z</time></trkpt><trkpt lat="40.906145" lon="16.424475"><ele>544.6666666666667</ele><time>2026-05-03T11:47:36.56Z</time></trkpt><trkpt lat="40.9062283" lon="16.42426"><ele>541.0</ele><time>2026-05-03T11:47:37.56Z</time></trkpt><trkpt lat="40.9063" lon="16.4240517"><ele>541.0</ele><time>2026-05-03T11:47:38.56Z</time></trkpt><trkpt lat="40.90636" lon="16.42383"><ele>541.0</ele><time>2026-05-03T11:47:39.561Z</time></trkpt><trkpt lat="40.906425" lon="16.4235967"><ele>541.0</ele><time>2026-05-03T11:47:40.56Z</time></trkpt><trkpt lat="40.9065" lon="16.4233767"><ele>543.3333333333334</ele><time>2026-05-03T11:47:41.561Z</time></trkpt><trkpt lat="40.906585" lon="16.4231583"><ele>545.6666666666666</ele><time>2026-05-03T11:47:42.56Z</time></trkpt><trkpt lat="40.906675" lon="16.42295"><ele>548.0</ele><time>2026-05-03T11:47:43.56Z</time></trkpt><trkpt lat="40.90678" lon="16.4227433"><ele>548.3333333333333</ele><time>2026-05-03T11:47:44.561Z</time></trkpt><trkpt lat="40.9068933" lon="16.4225383"><ele>548.6666666666666</ele><time>2026-05-03T11:47:45.56Z</time></trkpt><trkpt lat="40.9070067" lon="16.4223367"><ele>549.0</ele><time>2026-05-03T11:47:46.561Z</time></trkpt><trkpt lat="40.907115" lon="16.4221367"><ele>550.3333333333334</ele><time>2026-05-03T11:47:47.561Z</time></trkpt><trkpt lat="40.9072233" lon="16.4219333"><ele>551.6666666666667</ele><time>2026-05-03T11:47:48.56Z</time></trkpt><trkpt lat="40.9073267" lon="16.42173"><ele>553.0</ele><time>2026-05-03T11:47:49.561Z</time></trkpt><trkpt lat="40.9074133" lon="16.4215183"><ele>553.0</ele><time>2026-05-03T11:47:50.56Z</time></trkpt><trkpt lat="40.907485" lon="16.421305"><ele>553.0</ele><time>2026-05-03T11:47:51.561Z</time></trkpt><trkpt lat="40.9075267" lon="16.42107"><ele>553.0</ele><time>2026-05-03T11:47:52.561Z</time></trkpt><trkpt lat="40.907545" lon="16.4208217"><ele>553.0</ele><time>2026-05-03T11:47:53.56Z</time></trkpt><trkpt lat="40.9075467" lon="16.42057"><ele>553.0</ele><time>2026-05-03T11:47:54.561Z</time></trkpt><trkpt lat="40.907545" lon="16.42032"><ele>553.0</ele><time>2026-05-03T11:47:55.56Z</time></trkpt><trkpt lat="40.907545" lon="16.42007"><ele>553.0</ele><time>2026-05-03T11:47:56.56Z</time></trkpt><trkpt lat="40.90754" lon="16.4198117"><ele>553.0</ele><time>2026-05-03T11:47:57.56Z</time></trkpt><trkpt lat="40.90754" lon="16.41956"><ele>553.0</ele><time>2026-05-03T11:47:58.56Z</time></trkpt><trkpt lat="40.907535" lon="16.4193033"><ele>553.0</ele><time>2026-05-03T11:47:59.56Z</time></trkpt><trkpt lat="40.9075333" lon="16.419055"><ele>553.0</ele><time>2026-05-03T11:48:00.56Z</time></trkpt><trkpt lat="40.9075317" lon="16.4188083"><ele>553.0</ele><time>2026-05-03T11:48:01.561Z</time></trkpt><trkpt lat="40.9075267" lon="16.41856"><ele>553.0</ele><time>2026-05-03T11:48:02.56Z</time></trkpt><trkpt lat="40.9075233" lon="16.4183133"><ele>553.0</ele><time>2026-05-03T11:48:03.56Z</time></trkpt><trkpt lat="40.907525" lon="16.418065"><ele>553.0</ele><time>2026-05-03T11:48:04.561Z</time></trkpt><trkpt lat="40.9075283" lon="16.4178167"><ele>553.3333333333334</ele><time>2026-05-03T11:48:05.56Z</time></trkpt><trkpt lat="40.9075383" lon="16.4175617"><ele>553.6666666666666</ele><time>2026-05-03T11:48:06.56Z</time></trkpt><trkpt lat="40.90757" lon="16.41732"><ele>554.0</ele><time>2026-05-03T11:48:07.561Z</time></trkpt><trkpt lat="40.9076367" lon="16.4170833"><ele>552.6666666666666</ele><time>2026-05-03T11:48:08.561Z</time></trkpt><trkpt lat="40.9077083" lon="16.4168433"><ele>551.3333333333334</ele><time>2026-05-03T11:48:09.56Z</time></trkpt><trkpt lat="40.9077783" lon="16.4166067"><ele>550.0</ele><time>2026-05-03T11:48:10.56Z</time></trkpt><trkpt lat="40.9078483" lon="16.416365"><ele>550.3333333333334</ele><time>2026-05-03T11:48:11.56Z</time></trkpt><trkpt lat="40.9079217" lon="16.4161267"><ele>550.6666666666666</ele><time>2026-05-03T11:48:12.561Z</time></trkpt><trkpt lat="40.9079933" lon="16.4158883"><ele>551.0</ele><time>2026-05-03T11:48:13.56Z</time></trkpt><trkpt lat="40.9080583" lon="16.4156433"><ele>552.3333333333333</ele><time>2026-05-03T11:48:14.56Z</time></trkpt><trkpt lat="40.9081267" lon="16.4154117"><ele>553.6666666666666</ele><time>2026-05-03T11:48:15.561Z</time></trkpt><trkpt lat="40.9081983" lon="16.4151767"><ele>555.0</ele><time>2026-05-03T11:48:16.56Z</time></trkpt><trkpt lat="40.9082833" lon="16.4149567"><ele>555.0</ele><time>2026-05-03T11:48:17.56Z</time></trkpt><trkpt lat="40.9083733" lon="16.4147367"><ele>555.0</ele><time>2026-05-03T11:48:18.56Z</time></trkpt><trkpt lat="40.9084783" lon="16.4145217"><ele>555.0</ele><time>2026-05-03T11:48:19.56Z</time></trkpt><trkpt lat="40.908605" lon="16.4143333"><ele>554.3333333333334</ele><time>2026-05-03T11:48:20.56Z</time></trkpt><trkpt lat="40.9087517" lon="16.4141617"><ele>553.6666666666667</ele><time>2026-05-03T11:48:21.56Z</time></trkpt><trkpt lat="40.90891" lon="16.4140083"><ele>553.0</ele><time>2026-05-03T11:48:22.56Z</time></trkpt><trkpt lat="40.9090683" lon="16.413855"><ele>553.6666666666667</ele><time>2026-05-03T11:48:23.56Z</time></trkpt><trkpt lat="40.9092267" lon="16.41371"><ele>554.3333333333334</ele><time>2026-05-03T11:48:24.561Z</time></trkpt><trkpt lat="40.909385" lon="16.4135633"><ele>555.0</ele><time>2026-05-03T11:48:25.561Z</time></trkpt><trkpt lat="40.9095383" lon="16.4134067"><ele>555.0</ele><time>2026-05-03T11:48:26.56Z</time></trkpt><trkpt lat="40.9096917" lon="16.4132583"><ele>555.0</ele><time>2026-05-03T11:48:27.56Z</time></trkpt><trkpt lat="40.9098433" lon="16.4131067"><ele>555.0</ele><time>2026-05-03T11:48:28.561Z</time></trkpt><trkpt lat="40.90999" lon="16.4129583"><ele>557.3333333333334</ele><time>2026-05-03T11:48:29.56Z</time></trkpt><trkpt lat="40.910145" lon="16.412815"><ele>559.6666666666667</ele><time>2026-05-03T11:48:30.561Z</time></trkpt><trkpt lat="40.9103067" lon="16.4126883"><ele>562.0</ele><time>2026-05-03T11:48:31.56Z</time></trkpt><trkpt lat="40.9104733" lon="16.4125767"><ele>562.0</ele><time>2026-05-03T11:48:32.56Z</time></trkpt><trkpt lat="40.9106517" lon="16.41249"><ele>562.0</ele><time>2026-05-03T11:48:33.561Z</time></trkpt><trkpt lat="40.9108367" lon="16.4124167"><ele>562.0</ele><time>2026-05-03T11:48:34.56Z</time></trkpt><trkpt lat="40.9110133" lon="16.41234"><ele>562.3333333333334</ele><time>2026-05-03T11:48:35.56Z</time></trkpt><trkpt lat="40.911195" lon="16.4122517"><ele>562.6666666666666</ele><time>2026-05-03T11:48:36.56Z</time></trkpt><trkpt lat="40.9113717" lon="16.4121717"><ele>563.0</ele><time>2026-05-03T11:48:37.56Z</time></trkpt><trkpt lat="40.9115517" lon="16.412085"><ele>563.0</ele><time>2026-05-03T11:48:38.56Z</time></trkpt><trkpt lat="40.911735" lon="16.412"><ele>563.0</ele><time>2026-05-03T11:48:39.56Z</time></trkpt><trkpt lat="40.9119217" lon="16.4119133"><ele>563.0</ele><time>2026-05-03T11:48:40.56Z</time></trkpt><trkpt lat="40.912105" lon="16.4118267"><ele>564.6666666666666</ele><time>2026-05-03T11:48:41.56Z</time></trkpt><trkpt lat="40.9122867" lon="16.41174"><ele>566.3333333333334</ele><time>2026-05-03T11:48:42.56Z</time></trkpt><trkpt lat="40.9124783" lon="16.411655"><ele>568.0</ele><time>2026-05-03T11:48:43.56Z</time></trkpt><trkpt lat="40.9126683" lon="16.4115667"><ele>568.6666666666667</ele><time>2026-05-03T11:48:44.56Z</time></trkpt><trkpt lat="40.912858" lon="16.4114784"><ele>569.3333333333334</ele><time>2026-05-03T11:48:45.56Z</time></trkpt><trkpt lat="40.9130464" lon="16.4113905"><ele>570.0</ele><time>2026-05-03T11:48:46.56Z</time></trkpt><trkpt lat="40.9132332" lon="16.4113059"><ele>570.6666666666666</ele><time>2026-05-03T11:48:47.561Z</time></trkpt><trkpt lat="40.9134166" lon="16.4112293"><ele>571.3333333333333</ele><time>2026-05-03T11:48:48.56Z</time></trkpt><trkpt lat="40.9136006" lon="16.4111483"><ele>572.0</ele><time>2026-05-03T11:48:49.561Z</time></trkpt><trkpt lat="40.9137859" lon="16.4110577"><ele>572.0</ele><time>2026-05-03T11:48:50.56Z</time></trkpt><trkpt lat="40.9139681" lon="16.4109664"><ele>572.0</ele><time>2026-05-03T11:48:51.56Z</time></trkpt><trkpt lat="40.9141522" lon="16.4108805"><ele>572.0</ele><time>2026-05-03T11:48:52.56Z</time></trkpt><trkpt lat="40.9143392" lon="16.410802"><ele>572.3333333333333</ele><time>2026-05-03T11:48:53.56Z</time></trkpt><trkpt lat="40.9145235" lon="16.4107178"><ele>572.6666666666666</ele><time>2026-05-03T11:48:54.56Z</time></trkpt><trkpt lat="40.9147106" lon="16.4106343"><ele>573.0</ele><time>2026-05-03T11:48:55.56Z</time></trkpt><trkpt lat="40.9148995" lon="16.4105518"><ele>574.3333333333334</ele><time>2026-05-03T11:48:56.56Z</time></trkpt><trkpt lat="40.9150882" lon="16.4104724"><ele>575.6666666666667</ele><time>2026-05-03T11:48:57.561Z</time></trkpt><trkpt lat="40.9152778" lon="16.4103828"><ele>577.0</ele><time>2026-05-03T11:48:58.561Z</time></trkpt><trkpt lat="40.9154687" lon="16.4102907"><ele>577.0</ele><time>2026-05-03T11:48:59.56Z</time></trkpt><trkpt lat="40.9156598" lon="16.4102014"><ele>577.0</ele><time>2026-05-03T11:49:00.561Z</time></trkpt><trkpt lat="40.9158463" lon="16.4101141"><ele>577.0</ele><time>2026-05-03T11:49:01.56Z</time></trkpt><trkpt lat="40.9160303" lon="16.410025"><ele>578.6666666666667</ele><time>2026-05-03T11:49:02.561Z</time></trkpt><trkpt lat="40.9162149" lon="16.4099389"><ele>580.3333333333334</ele><time>2026-05-03T11:49:03.561Z</time></trkpt><trkpt lat="40.9163955" lon="16.4098559"><ele>582.0</ele><time>2026-05-03T11:49:04.56Z</time></trkpt><trkpt lat="40.91658" lon="16.4097728"><ele>582.6666666666666</ele><time>2026-05-03T11:49:05.561Z</time></trkpt><trkpt lat="40.9167663" lon="16.4096882"><ele>583.3333333333333</ele><time>2026-05-03T11:49:06.56Z</time></trkpt><trkpt lat="40.9169473" lon="16.4095991"><ele>584.0</ele><time>2026-05-03T11:49:07.56Z</time></trkpt><trkpt lat="40.9171287" lon="16.4095161"><ele>584.0</ele><time>2026-05-03T11:49:08.56Z</time></trkpt><trkpt lat="40.9173101" lon="16.4094318"><ele>584.0</ele><time>2026-05-03T11:49:09.56Z</time></trkpt><trkpt lat="40.917487" lon="16.4093482"><ele>584.0</ele><time>2026-05-03T11:49:10.56Z</time></trkpt><trkpt lat="40.9176678" lon="16.4092663"><ele>583.6666666666666</ele><time>2026-05-03T11:49:11.56Z</time></trkpt><trkpt lat="40.9178506" lon="16.409187"><ele>583.3333333333334</ele><time>2026-05-03T11:49:12.56Z</time></trkpt><trkpt lat="40.918037" lon="16.4091212"><ele>583.0</ele><time>2026-05-03T11:49:13.56Z</time></trkpt><trkpt lat="40.9182275" lon="16.4090698"><ele>582.3333333333334</ele><time>2026-05-03T11:49:14.56Z</time></trkpt><trkpt lat="40.9184247" lon="16.4090253"><ele>581.6666666666666</ele><time>2026-05-03T11:49:15.561Z</time></trkpt><trkpt lat="40.9186241" lon="16.4089714"><ele>581.0</ele><time>2026-05-03T11:49:16.561Z</time></trkpt><trkpt lat="40.9188172" lon="16.4089119"><ele>581.0</ele><time>2026-05-03T11:49:17.56Z</time></trkpt><trkpt lat="40.9190143" lon="16.4088518"><ele>581.0</ele><time>2026-05-03T11:49:18.56Z</time></trkpt><trkpt lat="40.919209" lon="16.4087952"><ele>581.0</ele><time>2026-05-03T11:49:19.56Z</time></trkpt><trkpt lat="40.9194079" lon="16.4087383"><ele>583.0</ele><time>2026-05-03T11:49:20.56Z</time></trkpt><trkpt lat="40.9196115" lon="16.4086838"><ele>585.0</ele><time>2026-05-03T11:49:21.56Z</time></trkpt><trkpt lat="40.9198116" lon="16.4086292"><ele>587.0</ele><time>2026-05-03T11:49:22.56Z</time></trkpt><trkpt lat="40.9200099" lon="16.4085699"><ele>587.0</ele><time>2026-05-03T11:49:23.56Z</time></trkpt><trkpt lat="40.920208" lon="16.4085111"><ele>587.0</ele><time>2026-05-03T11:49:24.56Z</time></trkpt><trkpt lat="40.9204054" lon="16.4084536"><ele>587.0</ele><time>2026-05-03T11:49:25.56Z</time></trkpt><trkpt lat="40.9206038" lon="16.4084037"><ele>587.0</ele><time>2026-05-03T11:49:26.561Z</time></trkpt><trkpt lat="40.9207952" lon="16.4083469"><ele>587.0</ele><time>2026-05-03T11:49:27.56Z</time></trkpt><trkpt lat="40.9209856" lon="16.4082795"><ele>587.0</ele><time>2026-05-03T11:49:28.56Z</time></trkpt><trkpt lat="40.9211659" lon="16.4082084"><ele>586.6666666666666</ele><time>2026-05-03T11:49:29.56Z</time></trkpt><trkpt lat="40.9213283" lon="16.4081216"><ele>586.3333333333334</ele><time>2026-05-03T11:49:30.56Z</time></trkpt><trkpt lat="40.921486" lon="16.4080121"><ele>586.0</ele><time>2026-05-03T11:49:31.56Z</time></trkpt><trkpt lat="40.9216362" lon="16.4078672"><ele>585.3333333333334</ele><time>2026-05-03T11:49:32.56Z</time></trkpt><trkpt lat="40.9217773" lon="16.4076999"><ele>584.6666666666666</ele><time>2026-05-03T11:49:33.56Z</time></trkpt><trkpt lat="40.9219177" lon="16.407519"><ele>584.0</ele><time>2026-05-03T11:49:34.561Z</time></trkpt><trkpt lat="40.9220608" lon="16.4073328"><ele>585.0</ele><time>2026-05-03T11:49:35.56Z</time></trkpt><trkpt lat="40.9222021" lon="16.4071411"><ele>586.0</ele><time>2026-05-03T11:49:36.561Z</time></trkpt><trkpt lat="40.9223398" lon="16.4069434"><ele>587.0</ele><time>2026-05-03T11:49:37.56Z</time></trkpt><trkpt lat="40.9224755" lon="16.4067486"><ele>585.6666666666666</ele><time>2026-05-03T11:49:38.56Z</time></trkpt><trkpt lat="40.9226127" lon="16.4065576"><ele>584.3333333333334</ele><time>2026-05-03T11:49:39.56Z</time></trkpt><trkpt lat="40.922754" lon="16.4063678"><ele>583.0</ele><time>2026-05-03T11:49:40.56Z</time></trkpt><trkpt lat="40.922897" lon="16.4061739"><ele>583.0</ele><time>2026-05-03T11:49:41.56Z</time></trkpt><trkpt lat="40.923042" lon="16.4059771"><ele>583.0</ele><time>2026-05-03T11:49:42.561Z</time></trkpt><trkpt lat="40.9231825" lon="16.4057789"><ele>583.0</ele><time>2026-05-03T11:49:43.56Z</time></trkpt><trkpt lat="40.923322" lon="16.4055822"><ele>582.3333333333334</ele><time>2026-05-03T11:49:44.561Z</time></trkpt><trkpt lat="40.9234653" lon="16.4053891"><ele>581.6666666666666</ele><time>2026-05-03T11:49:45.56Z</time></trkpt><trkpt lat="40.9236084" lon="16.4051961"><ele>581.0</ele><time>2026-05-03T11:49:46.56Z</time></trkpt><trkpt lat="40.92375" lon="16.4050004"><ele>581.0</ele><time>2026-05-03T11:49:47.56Z</time></trkpt><trkpt lat="40.9238827" lon="16.404801"><ele>581.0</ele><time>2026-05-03T11:49:48.56Z</time></trkpt><trkpt lat="40.9240062" lon="16.4045953"><ele>581.0</ele><time>2026-05-03T11:49:49.56Z</time></trkpt><trkpt lat="40.924118" lon="16.4043777"><ele>580.6666666666666</ele><time>2026-05-03T11:49:50.56Z</time></trkpt><trkpt lat="40.9242171" lon="16.4041461"><ele>580.3333333333334</ele><time>2026-05-03T11:49:51.561Z</time></trkpt><trkpt lat="40.9243098" lon="16.403909"><ele>580.0</ele><time>2026-05-03T11:49:52.561Z</time></trkpt><trkpt lat="40.9244031" lon="16.4036686"><ele>580.0</ele><time>2026-05-03T11:49:53.561Z</time></trkpt><trkpt lat="40.9244971" lon="16.4034329"><ele>580.0</ele><time>2026-05-03T11:49:54.56Z</time></trkpt><trkpt lat="40.9245945" lon="16.4032006"><ele>580.0</ele><time>2026-05-03T11:49:55.56Z</time></trkpt><trkpt lat="40.9246983" lon="16.4029667"><ele>580.6666666666667</ele><time>2026-05-03T11:49:56.56Z</time></trkpt><trkpt lat="40.9248065" lon="16.4027386"><ele>581.3333333333334</ele><time>2026-05-03T11:49:57.561Z</time></trkpt><trkpt lat="40.9249127" lon="16.4025081"><ele>582.0</ele><time>2026-05-03T11:49:58.56Z</time></trkpt><trkpt lat="40.9250294" lon="16.4022842"><ele>581.0</ele><time>2026-05-03T11:49:59.56Z</time></trkpt><trkpt lat="40.925148" lon="16.4020671"><ele>580.0</ele><time>2026-05-03T11:50:00.56Z</time></trkpt><trkpt lat="40.925271" lon="16.4018552"><ele>579.0</ele><time>2026-05-03T11:50:01.56Z</time></trkpt><trkpt lat="40.9253955" lon="16.4016493"><ele>579.0</ele><time>2026-05-03T11:50:02.561Z</time></trkpt><trkpt lat="40.9255194" lon="16.4014437"><ele>579.0</ele><time>2026-05-03T11:50:03.56Z</time></trkpt><trkpt lat="40.9256444" lon="16.4012408"><ele>579.0</ele><time>2026-05-03T11:50:04.56Z</time></trkpt><trkpt lat="40.9257707" lon="16.4010396"><ele>579.0</ele><time>2026-05-03T11:50:05.56Z</time></trkpt><trkpt lat="40.9258998" lon="16.400843"><ele>579.0</ele><time>2026-05-03T11:50:06.56Z</time></trkpt><trkpt lat="40.9260385" lon="16.4006532"><ele>579.0</ele><time>2026-05-03T11:50:07.561Z</time></trkpt><trkpt lat="40.9261828" lon="16.4004701"><ele>579.0</ele><time>2026-05-03T11:50:08.56Z</time></trkpt><trkpt lat="40.9263247" lon="16.4002826"><ele>579.0</ele><time>2026-05-03T11:50:09.561Z</time></trkpt><trkpt lat="40.9264663" lon="16.4000926"><ele>579.0</ele><time>2026-05-03T11:50:10.56Z</time></trkpt><trkpt lat="40.9266065" lon="16.399904"><ele>578.0</ele><time>2026-05-03T11:50:11.56Z</time></trkpt><trkpt lat="40.92675" lon="16.3997146"><ele>577.0</ele><time>2026-05-03T11:50:12.56Z</time></trkpt><trkpt lat="40.9268909" lon="16.3995284"><ele>576.0</ele><time>2026-05-03T11:50:13.56Z</time></trkpt><trkpt lat="40.92703" lon="16.3993371"><ele>576.0</ele><time>2026-05-03T11:50:14.56Z</time></trkpt><trkpt lat="40.9271708" lon="16.3991492"><ele>576.0</ele><time>2026-05-03T11:50:15.56Z</time></trkpt><trkpt lat="40.9273135" lon="16.3989612"><ele>576.0</ele><time>2026-05-03T11:50:16.56Z</time></trkpt><trkpt lat="40.927456" lon="16.3987759"><ele>576.0</ele><time>2026-05-03T11:50:17.56Z</time></trkpt><trkpt lat="40.9275978" lon="16.3985896"><ele>576.0</ele><time>2026-05-03T11:50:18.56Z</time></trkpt><trkpt lat="40.9277341" lon="16.3984026"><ele>576.0</ele><time>2026-05-03T11:50:19.561Z</time></trkpt><trkpt lat="40.927868" lon="16.3982161"><ele>576.0</ele><time>2026-05-03T11:50:20.561Z</time></trkpt><trkpt lat="40.9280036" lon="16.3980322"><ele>576.0</ele><time>2026-05-03T11:50:21.56Z</time></trkpt><trkpt lat="40.9281401" lon="16.3978486"><ele>576.0</ele><time>2026-05-03T11:50:22.56Z</time></trkpt><trkpt lat="40.9282753" lon="16.3976665"><ele>576.0</ele><time>2026-05-03T11:50:23.56Z</time></trkpt><trkpt lat="40.9284101" lon="16.3974852"><ele>576.0</ele><time>2026-05-03T11:50:24.56Z</time></trkpt><trkpt lat="40.9285435" lon="16.3973026"><ele>576.0</ele><time>2026-05-03T11:50:25.561Z</time></trkpt><trkpt lat="40.9286749" lon="16.3971164"><ele>576.0</ele><time>2026-05-03T11:50:26.56Z</time></trkpt><trkpt lat="40.9287999" lon="16.3969233"><ele>576.0</ele><time>2026-05-03T11:50:27.56Z</time></trkpt><trkpt lat="40.92891" lon="16.3967148"><ele>576.0</ele><time>2026-05-03T11:50:28.56Z</time></trkpt><trkpt lat="40.9290119" lon="16.3965003"><ele>575.6666666666666</ele><time>2026-05-03T11:50:29.561Z</time></trkpt><trkpt lat="40.929112" lon="16.3962815"><ele>575.3333333333333</ele><time>2026-05-03T11:50:30.56Z</time></trkpt><trkpt lat="40.9292114" lon="16.3960562"><ele>575.0</ele><time>2026-05-03T11:50:31.561Z</time></trkpt><trkpt lat="40.9293139" lon="16.3958348"><ele>575.0</ele><time>2026-05-03T11:50:32.561Z</time></trkpt><trkpt lat="40.9294118" lon="16.395614"><ele>575.0</ele><time>2026-05-03T11:50:33.56Z</time></trkpt><trkpt lat="40.9295135" lon="16.3953939"><ele>575.0</ele><time>2026-05-03T11:50:34.56Z</time></trkpt><trkpt lat="40.929617" lon="16.3951755"><ele>575.0</ele><time>2026-05-03T11:50:35.561Z</time></trkpt><trkpt lat="40.9297181" lon="16.3949585"><ele>575.0</ele><time>2026-05-03T11:50:36.56Z</time></trkpt><trkpt lat="40.9298217" lon="16.3947452"><ele>575.0</ele><time>2026-05-03T11:50:37.56Z</time></trkpt><trkpt lat="40.9299322" lon="16.3945369"><ele>575.3333333333333</ele><time>2026-05-03T11:50:38.56Z</time></trkpt><trkpt lat="40.9300535" lon="16.3943375"><ele>575.6666666666666</ele><time>2026-05-03T11:50:39.56Z</time></trkpt><trkpt lat="40.930175" lon="16.3941409"><ele>576.0</ele><time>2026-05-03T11:50:40.56Z</time></trkpt><trkpt lat="40.9302945" lon="16.3939407"><ele>576.3333333333334</ele><time>2026-05-03T11:50:41.56Z</time></trkpt><trkpt lat="40.9304153" lon="16.3937429"><ele>576.6666666666667</ele><time>2026-05-03T11:50:42.561Z</time></trkpt><trkpt lat="40.9305347" lon="16.3935452"><ele>577.0</ele><time>2026-05-03T11:50:43.561Z</time></trkpt><trkpt lat="40.9306532" lon="16.3933448"><ele>577.0</ele><time>2026-05-03T11:50:44.56Z</time></trkpt><trkpt lat="40.9307729" lon="16.3931505"><ele>577.0</ele><time>2026-05-03T11:50:45.56Z</time></trkpt><trkpt lat="40.9309031" lon="16.3929651"><ele>577.0</ele><time>2026-05-03T11:50:46.561Z</time></trkpt><trkpt lat="40.9310442" lon="16.3928019"><ele>577.3333333333334</ele><time>2026-05-03T11:50:47.56Z</time></trkpt><trkpt lat="40.9311988" lon="16.3926686"><ele>577.6666666666666</ele><time>2026-05-03T11:50:48.56Z</time></trkpt><trkpt lat="40.9313693" lon="16.3925576"><ele>578.0</ele><time>2026-05-03T11:50:49.56Z</time></trkpt><trkpt lat="40.9315483" lon="16.3924712"><ele>577.6666666666666</ele><time>2026-05-03T11:50:50.56Z</time></trkpt><trkpt lat="40.931731" lon="16.392406"><ele>577.3333333333334</ele><time>2026-05-03T11:50:51.561Z</time></trkpt><trkpt lat="40.9319157" lon="16.3923367"><ele>577.0</ele><time>2026-05-03T11:50:52.56Z</time></trkpt><trkpt lat="40.9320886" lon="16.3922384"><ele>579.0</ele><time>2026-05-03T11:50:53.56Z</time></trkpt><trkpt lat="40.9322515" lon="16.3921146"><ele>581.0</ele><time>2026-05-03T11:50:54.56Z</time></trkpt><trkpt lat="40.9324112" lon="16.3919597"><ele>583.0</ele><time>2026-05-03T11:50:55.561Z</time></trkpt><trkpt lat="40.9325553" lon="16.3917828"><ele>583.3333333333334</ele><time>2026-05-03T11:50:56.56Z</time></trkpt><trkpt lat="40.9326922" lon="16.3915983"><ele>583.6666666666666</ele><time>2026-05-03T11:50:57.561Z</time></trkpt><trkpt lat="40.9328295" lon="16.3914123"><ele>584.0</ele><time>2026-05-03T11:50:58.56Z</time></trkpt><trkpt lat="40.9329646" lon="16.3912245"><ele>584.6666666666666</ele><time>2026-05-03T11:50:59.56Z</time></trkpt><trkpt lat="40.9331015" lon="16.3910322"><ele>585.3333333333334</ele><time>2026-05-03T11:51:00.56Z</time></trkpt><trkpt lat="40.933242" lon="16.3908448"><ele>586.0</ele><time>2026-05-03T11:51:01.561Z</time></trkpt><trkpt lat="40.9333818" lon="16.3906668"><ele>586.0</ele><time>2026-05-03T11:51:02.56Z</time></trkpt><trkpt lat="40.9335323" lon="16.3905026"><ele>586.0</ele><time>2026-05-03T11:51:03.56Z</time></trkpt><trkpt lat="40.9336957" lon="16.3903554"><ele>586.0</ele><time>2026-05-03T11:51:04.56Z</time></trkpt><trkpt lat="40.9338678" lon="16.3902094"><ele>586.0</ele><time>2026-05-03T11:51:05.56Z</time></trkpt><trkpt lat="40.9340343" lon="16.3900662"><ele>586.0</ele><time>2026-05-03T11:51:06.56Z</time></trkpt><trkpt lat="40.934201" lon="16.3899232"><ele>586.0</ele><time>2026-05-03T11:51:07.56Z</time></trkpt><trkpt lat="40.93437" lon="16.3897811"><ele>587.3333333333334</ele><time>2026-05-03T11:51:08.561Z</time></trkpt><trkpt lat="40.934533" lon="16.389634"><ele>588.6666666666666</ele><time>2026-05-03T11:51:09.56Z</time></trkpt><trkpt lat="40.9346898" lon="16.3894851"><ele>590.0</ele><time>2026-05-03T11:51:10.56Z</time></trkpt><trkpt lat="40.9348459" lon="16.3893349"><ele>590.0</ele><time>2026-05-03T11:51:11.56Z</time></trkpt><trkpt lat="40.9349944" lon="16.3892068"><ele>590.0</ele><time>2026-05-03T11:51:12.561Z</time></trkpt><trkpt lat="40.9351512" lon="16.3891091"><ele>590.0</ele><time>2026-05-03T11:51:13.56Z</time></trkpt><trkpt lat="40.9353193" lon="16.3890347"><ele>590.3333333333333</ele><time>2026-05-03T11:51:14.561Z</time></trkpt><trkpt lat="40.9354994" lon="16.3889754"><ele>590.6666666666666</ele><time>2026-05-03T11:51:15.56Z</time></trkpt><trkpt lat="40.9356874" lon="16.3889199"><ele>591.0</ele><time>2026-05-03T11:51:16.561Z</time></trkpt><trkpt lat="40.9358759" lon="16.3888621"><ele>590.6666666666666</ele><time>2026-05-03T11:51:17.561Z</time></trkpt><trkpt lat="40.9360677" lon="16.3888048"><ele>590.3333333333333</ele><time>2026-05-03T11:51:18.56Z</time></trkpt><trkpt lat="40.9362585" lon="16.388743"><ele>590.0</ele><time>2026-05-03T11:51:19.56Z</time></trkpt><trkpt lat="40.9364423" lon="16.388678"><ele>590.0</ele><time>2026-05-03T11:51:20.561Z</time></trkpt><trkpt lat="40.9366182" lon="16.3886111"><ele>590.0</ele><time>2026-05-03T11:51:21.561Z</time></trkpt><trkpt lat="40.9367786" lon="16.3885484"><ele>590.0</ele><time>2026-05-03T11:51:22.561Z</time></trkpt><trkpt lat="40.9369351" lon="16.3884968"><ele>590.6666666666666</ele><time>2026-05-03T11:51:23.561Z</time></trkpt><trkpt lat="40.9371024" lon="16.3884678"><ele>591.3333333333334</ele><time>2026-05-03T11:51:24.561Z</time></trkpt><trkpt lat="40.9372791" lon="16.3884671"><ele>592.0</ele><time>2026-05-03T11:51:25.56Z</time></trkpt><trkpt lat="40.9374594" lon="16.3884959"><ele>592.6666666666667</ele><time>2026-05-03T11:51:26.56Z</time></trkpt><trkpt lat="40.9376429" lon="16.3885315"><ele>593.3333333333334</ele><time>2026-05-03T11:51:27.561Z</time></trkpt><trkpt lat="40.9378286" lon="16.3885628"><ele>594.0</ele><time>2026-05-03T11:51:28.56Z</time></trkpt><trkpt lat="40.9380196" lon="16.3885946"><ele>594.0</ele><time>2026-05-03T11:51:29.56Z</time></trkpt><trkpt lat="40.9382105" lon="16.3886289"><ele>594.0</ele><time>2026-05-03T11:51:30.56Z</time></trkpt><trkpt lat="40.9383998" lon="16.3886638"><ele>594.0</ele><time>2026-05-03T11:51:31.561Z</time></trkpt><trkpt lat="40.9385898" lon="16.3887033"><ele>593.0</ele><time>2026-05-03T11:51:32.561Z</time></trkpt><trkpt lat="40.9387826" lon="16.3887351"><ele>592.0</ele><time>2026-05-03T11:51:33.56Z</time></trkpt><trkpt lat="40.9389733" lon="16.3887667"><ele>591.0</ele><time>2026-05-03T11:51:34.561Z</time></trkpt><trkpt lat="40.9391767" lon="16.3888017"><ele>588.3333333333334</ele><time>2026-05-03T11:51:35.56Z</time></trkpt><trkpt lat="40.939385" lon="16.388845"><ele>585.6666666666667</ele><time>2026-05-03T11:51:36.56Z</time></trkpt><trkpt lat="40.9395867" lon="16.3888833"><ele>583.0</ele><time>2026-05-03T11:51:37.561Z</time></trkpt><trkpt lat="40.9397917" lon="16.3889183"><ele>583.0</ele><time>2026-05-03T11:51:38.561Z</time></trkpt><trkpt lat="40.9399967" lon="16.388955"><ele>583.0</ele><time>2026-05-03T11:51:39.56Z</time></trkpt><trkpt lat="40.94021" lon="16.3889917"><ele>583.0</ele><time>2026-05-03T11:51:40.56Z</time></trkpt><trkpt lat="40.940415" lon="16.3890367"><ele>583.6666666666667</ele><time>2026-05-03T11:51:41.561Z</time></trkpt><trkpt lat="40.9406183" lon="16.3890767"><ele>584.3333333333334</ele><time>2026-05-03T11:51:42.561Z</time></trkpt><trkpt lat="40.9408233" lon="16.3891117"><ele>585.0</ele><time>2026-05-03T11:51:43.56Z</time></trkpt><trkpt lat="40.9410033" lon="16.3891417"><ele>585.0</ele><time>2026-05-03T11:51:44.56Z</time></trkpt><trkpt lat="40.9411583" lon="16.389145"><ele>585.0</ele><time>2026-05-03T11:51:45.56Z</time></trkpt><trkpt lat="40.9412983" lon="16.38911"><ele>585.0</ele><time>2026-05-03T11:51:46.56Z</time></trkpt><trkpt lat="40.9414383" lon="16.3890267"><ele>585.0</ele><time>2026-05-03T11:51:47.561Z</time></trkpt><trkpt lat="40.9415733" lon="16.3889183"><ele>585.0</ele><time>2026-05-03T11:51:48.56Z</time></trkpt><trkpt lat="40.9417133" lon="16.38881"><ele>585.0</ele><time>2026-05-03T11:51:49.561Z</time></trkpt><trkpt lat="40.94186" lon="16.3887267"><ele>585.3333333333334</ele><time>2026-05-03T11:51:50.561Z</time></trkpt><trkpt lat="40.9420317" lon="16.3886867"><ele>585.6666666666667</ele><time>2026-05-03T11:51:51.56Z</time></trkpt><trkpt lat="40.9422167" lon="16.3886667"><ele>586.0</ele><time>2026-05-03T11:51:52.56Z</time></trkpt><trkpt lat="40.9424067" lon="16.3886583"><ele>586.6666666666667</ele><time>2026-05-03T11:51:53.56Z</time></trkpt><trkpt lat="40.9425967" lon="16.3886433"><ele>587.3333333333334</ele><time>2026-05-03T11:51:54.561Z</time></trkpt><trkpt lat="40.9427883" lon="16.3886233"><ele>588.0</ele><time>2026-05-03T11:51:55.561Z</time></trkpt><trkpt lat="40.94298" lon="16.3886033"><ele>588.0</ele><time>2026-05-03T11:51:56.56Z</time></trkpt><trkpt lat="40.9431733" lon="16.3885867"><ele>588.0</ele><time>2026-05-03T11:51:57.56Z</time></trkpt><trkpt lat="40.9433667" lon="16.3885633"><ele>588.0</ele><time>2026-05-03T11:51:58.561Z</time></trkpt><trkpt lat="40.943565" lon="16.3885433"><ele>588.3333333333334</ele><time>2026-05-03T11:51:59.56Z</time></trkpt><trkpt lat="40.9437567" lon="16.3885233"><ele>588.6666666666667</ele><time>2026-05-03T11:52:00.561Z</time></trkpt><trkpt lat="40.94395" lon="16.3885"><ele>589.0</ele><time>2026-05-03T11:52:01.56Z</time></trkpt><trkpt lat="40.9441383" lon="16.38848"><ele>589.6666666666667</ele><time>2026-05-03T11:52:02.561Z</time></trkpt><trkpt lat="40.944335" lon="16.3884667"><ele>590.3333333333334</ele><time>2026-05-03T11:52:03.56Z</time></trkpt><trkpt lat="40.9445283" lon="16.38845"><ele>591.0</ele><time>2026-05-03T11:52:04.56Z</time></trkpt><trkpt lat="40.94472" lon="16.3884283"><ele>591.0</ele><time>2026-05-03T11:52:05.56Z</time></trkpt><trkpt lat="40.9449167" lon="16.38841"><ele>591.0</ele><time>2026-05-03T11:52:06.56Z</time></trkpt><trkpt lat="40.945115" lon="16.38839"><ele>591.0</ele><time>2026-05-03T11:52:07.561Z</time></trkpt><trkpt lat="40.945305" lon="16.3883683"><ele>591.6666666666666</ele><time>2026-05-03T11:52:08.561Z</time></trkpt><trkpt lat="40.945495" lon="16.3883433"><ele>592.3333333333333</ele><time>2026-05-03T11:52:09.56Z</time></trkpt><trkpt lat="40.9456817" lon="16.3883167"><ele>593.0</ele><time>2026-05-03T11:52:10.56Z</time></trkpt><trkpt lat="40.9458767" lon="16.3883033"><ele>593.6666666666666</ele><time>2026-05-03T11:52:11.56Z</time></trkpt><trkpt lat="40.9460667" lon="16.3882817"><ele>594.3333333333334</ele><time>2026-05-03T11:52:12.561Z</time></trkpt><trkpt lat="40.9462617" lon="16.3882633"><ele>595.0</ele><time>2026-05-03T11:52:13.56Z</time></trkpt><trkpt lat="40.9464533" lon="16.3882417"><ele>595.0</ele><time>2026-05-03T11:52:14.561Z</time></trkpt><trkpt lat="40.94664" lon="16.3882183"><ele>595.0</ele><time>2026-05-03T11:52:15.56Z</time></trkpt><trkpt lat="40.94683" lon="16.3881967"><ele>595.0</ele><time>2026-05-03T11:52:16.56Z</time></trkpt><trkpt lat="40.947025" lon="16.388175"><ele>596.6666666666667</ele><time>2026-05-03T11:52:17.561Z</time></trkpt><trkpt lat="40.9472217" lon="16.388155"><ele>598.3333333333334</ele><time>2026-05-03T11:52:18.56Z</time></trkpt><trkpt lat="40.9474167" lon="16.3881283"><ele>600.0</ele><time>2026-05-03T11:52:19.56Z</time></trkpt><trkpt lat="40.9476133" lon="16.388105"><ele>601.3333333333334</ele><time>2026-05-03T11:52:20.56Z</time></trkpt><trkpt lat="40.94781" lon="16.3880817"><ele>602.6666666666667</ele><time>2026-05-03T11:52:21.56Z</time></trkpt><trkpt lat="40.9480017" lon="16.3880567"><ele>604.0</ele><time>2026-05-03T11:52:22.56Z</time></trkpt><trkpt lat="40.9481967" lon="16.3880333"><ele>604.6666666666667</ele><time>2026-05-03T11:52:23.56Z</time></trkpt><trkpt lat="40.948395" lon="16.3880167"><ele>605.3333333333334</ele><time>2026-05-03T11:52:24.56Z</time></trkpt><trkpt lat="40.9485933" lon="16.388"><ele>606.0</ele><time>2026-05-03T11:52:25.56Z</time></trkpt><trkpt lat="40.948795" lon="16.3879783"><ele>606.3333333333334</ele><time>2026-05-03T11:52:26.56Z</time></trkpt><trkpt lat="40.948995" lon="16.3879583"><ele>606.6666666666667</ele><time>2026-05-03T11:52:27.561Z</time></trkpt><trkpt lat="40.949195" lon="16.3879367"><ele>607.0</ele><time>2026-05-03T11:52:28.561Z</time></trkpt><trkpt lat="40.9493933" lon="16.3879167"><ele>608.0</ele><time>2026-05-03T11:52:29.561Z</time></trkpt><trkpt lat="40.9495883" lon="16.3878967"><ele>609.0</ele><time>2026-05-03T11:52:30.561Z</time></trkpt><trkpt lat="40.9497733" lon="16.3878767"><ele>610.0</ele><time>2026-05-03T11:52:31.561Z</time></trkpt><trkpt lat="40.9499417" lon="16.3878667"><ele>610.3333333333334</ele><time>2026-05-03T11:52:32.561Z</time></trkpt><trkpt lat="40.9501067" lon="16.3878517"><ele>610.6666666666666</ele><time>2026-05-03T11:52:33.561Z</time></trkpt><trkpt lat="40.9502733" lon="16.3878333"><ele>611.0</ele><time>2026-05-03T11:52:34.562Z</time></trkpt><trkpt lat="40.9504433" lon="16.3878167"><ele>611.0</ele><time>2026-05-03T11:52:35.561Z</time></trkpt><trkpt lat="40.950615" lon="16.3878017"><ele>611.0</ele><time>2026-05-03T11:52:36.562Z</time></trkpt><trkpt lat="40.9507883" lon="16.3877783"><ele>611.0</ele><time>2026-05-03T11:52:37.561Z</time></trkpt><trkpt lat="40.9509683" lon="16.38776"><ele>611.0</ele><time>2026-05-03T11:52:38.562Z</time></trkpt><trkpt lat="40.9511483" lon="16.3877383"><ele>611.0</ele><time>2026-05-03T11:52:39.561Z</time></trkpt><trkpt lat="40.951335" lon="16.387715"><ele>611.0</ele><time>2026-05-03T11:52:40.561Z</time></trkpt><trkpt lat="40.9515217" lon="16.3876983"><ele>610.6666666666666</ele><time>2026-05-03T11:52:41.561Z</time></trkpt><trkpt lat="40.9517117" lon="16.38768"><ele>610.3333333333334</ele><time>2026-05-03T11:52:42.562Z</time></trkpt><trkpt lat="40.9519" lon="16.3876617"><ele>610.0</ele><time>2026-05-03T11:52:43.562Z</time></trkpt><trkpt lat="40.95209" lon="16.3876383"><ele>610.0</ele><time>2026-05-03T11:52:44.561Z</time></trkpt><trkpt lat="40.95228" lon="16.3876167"><ele>610.0</ele><time>2026-05-03T11:52:45.561Z</time></trkpt><trkpt lat="40.9524683" lon="16.3875983"><ele>610.0</ele><time>2026-05-03T11:52:46.562Z</time></trkpt><trkpt lat="40.952655" lon="16.3875817"><ele>609.3333333333334</ele><time>2026-05-03T11:52:47.561Z</time></trkpt><trkpt lat="40.9528467" lon="16.3875633"><ele>608.6666666666666</ele><time>2026-05-03T11:52:48.562Z</time></trkpt><trkpt lat="40.9530383" lon="16.3875367"><ele>608.0</ele><time>2026-05-03T11:52:49.561Z</time></trkpt><trkpt lat="40.9532283" lon="16.3875183"><ele>607.3333333333333</ele><time>2026-05-03T11:52:50.562Z</time></trkpt><trkpt lat="40.9534217" lon="16.3874967"><ele>606.6666666666666</ele><time>2026-05-03T11:52:51.561Z</time></trkpt><trkpt lat="40.9536117" lon="16.387475"><ele>606.0</ele><time>2026-05-03T11:52:52.562Z</time></trkpt><trkpt lat="40.9538067" lon="16.3874533"><ele>606.0</ele><time>2026-05-03T11:52:53.561Z</time></trkpt><trkpt lat="40.9540033" lon="16.3874333"><ele>606.0</ele><time>2026-05-03T11:52:54.561Z</time></trkpt><trkpt lat="40.9542033" lon="16.3874033"><ele>606.0</ele><time>2026-05-03T11:52:55.561Z</time></trkpt><trkpt lat="40.9543983" lon="16.387375"><ele>606.3333333333334</ele><time>2026-05-03T11:52:56.561Z</time></trkpt><trkpt lat="40.9545883" lon="16.38735"><ele>606.6666666666667</ele><time>2026-05-03T11:52:57.562Z</time></trkpt><trkpt lat="40.9547733" lon="16.3873267"><ele>607.0</ele><time>2026-05-03T11:52:58.561Z</time></trkpt><trkpt lat="40.9549367" lon="16.3873083"><ele>607.0</ele><time>2026-05-03T11:52:59.561Z</time></trkpt><trkpt lat="40.9550867" lon="16.3872933"><ele>607.0</ele><time>2026-05-03T11:53:00.562Z</time></trkpt><trkpt lat="40.95522" lon="16.3872783"><ele>607.0</ele><time>2026-05-03T11:53:01.561Z</time></trkpt><trkpt lat="40.955325" lon="16.38726"><ele>607.0</ele><time>2026-05-03T11:53:02.561Z</time></trkpt><trkpt lat="40.9554183" lon="16.38725"><ele>607.0</ele><time>2026-05-03T11:53:03.562Z</time></trkpt><trkpt lat="40.955495" lon="16.3872417"><ele>607.0</ele><time>2026-05-03T11:53:04.561Z</time></trkpt><trkpt lat="40.9555583" lon="16.3872133"><ele>607.0</ele><time>2026-05-03T11:53:05.561Z</time></trkpt><trkpt lat="40.9556067" lon="16.3870617"><ele>607.0</ele><time>2026-05-03T11:53:07.561Z</time></trkpt><trkpt lat="40.9556017" lon="16.3869533"><ele>607.0</ele><time>2026-05-03T11:53:08.561Z</time></trkpt><trkpt lat="40.955585" lon="16.3868167"><ele>607.25</ele><time>2026-05-03T11:53:09.561Z</time></trkpt><trkpt lat="40.9555667" lon="16.3866717"><ele>607.5</ele><time>2026-05-03T11:53:10.561Z</time></trkpt><trkpt lat="40.9555417" lon="16.38652"><ele>607.75</ele><time>2026-05-03T11:53:11.561Z</time></trkpt><trkpt lat="40.95552" lon="16.3863533"><ele>608.0</ele><time>2026-05-03T11:53:12.562Z</time></trkpt><trkpt lat="40.9554933" lon="16.3861767"><ele>608.25</ele><time>2026-05-03T11:53:13.561Z</time></trkpt><trkpt lat="40.9554733" lon="16.3859917"><ele>608.5</ele><time>2026-05-03T11:53:14.561Z</time></trkpt><trkpt lat="40.95546" lon="16.3858033"><ele>608.75</ele><time>2026-05-03T11:53:15.562Z</time></trkpt><trkpt lat="40.9554467" lon="16.3856133"><ele>609.0</ele><time>2026-05-03T11:53:16.561Z</time></trkpt><trkpt lat="40.95543" lon="16.3854067"><ele>608.3333333333334</ele><time>2026-05-03T11:53:17.561Z</time></trkpt><trkpt lat="40.9554117" lon="16.3851933"><ele>607.6666666666667</ele><time>2026-05-03T11:53:18.562Z</time></trkpt><trkpt lat="40.9553917" lon="16.384975"><ele>607.0</ele><time>2026-05-03T11:53:19.562Z</time></trkpt><trkpt lat="40.9553617" lon="16.384745"><ele>606.6666666666667</ele><time>2026-05-03T11:53:20.561Z</time></trkpt><trkpt lat="40.9553367" lon="16.3845083"><ele>606.3333333333334</ele><time>2026-05-03T11:53:21.561Z</time></trkpt><trkpt lat="40.9553133" lon="16.384275"><ele>606.0</ele><time>2026-05-03T11:53:22.561Z</time></trkpt><trkpt lat="40.9552933" lon="16.3840383"><ele>606.0</ele><time>2026-05-03T11:53:23.561Z</time></trkpt><trkpt lat="40.9552783" lon="16.3838017"><ele>606.0</ele><time>2026-05-03T11:53:24.561Z</time></trkpt><trkpt lat="40.9552717" lon="16.3835683"><ele>606.0</ele><time>2026-05-03T11:53:25.562Z</time></trkpt><trkpt lat="40.9552833" lon="16.3833283"><ele>606.0</ele><time>2026-05-03T11:53:26.561Z</time></trkpt><trkpt lat="40.9552933" lon="16.3830783"><ele>606.0</ele><time>2026-05-03T11:53:27.561Z</time></trkpt><trkpt lat="40.955295" lon="16.38283"><ele>606.0</ele><time>2026-05-03T11:53:28.561Z</time></trkpt><trkpt lat="40.9553033" lon="16.382575"><ele>606.6666666666666</ele><time>2026-05-03T11:53:29.562Z</time></trkpt><trkpt lat="40.955315" lon="16.3823267"><ele>607.3333333333333</ele><time>2026-05-03T11:53:30.562Z</time></trkpt><trkpt lat="40.9553233" lon="16.3820817"><ele>608.0</ele><time>2026-05-03T11:53:31.561Z</time></trkpt><trkpt lat="40.955335" lon="16.38184"><ele>608.3333333333333</ele><time>2026-05-03T11:53:32.562Z</time></trkpt><trkpt lat="40.9553467" lon="16.3816067"><ele>608.6666666666666</ele><time>2026-05-03T11:53:33.562Z</time></trkpt><trkpt lat="40.955355" lon="16.38138"><ele>609.0</ele><time>2026-05-03T11:53:34.561Z</time></trkpt><trkpt lat="40.9553633" lon="16.3811633"><ele>609.3333333333334</ele><time>2026-05-03T11:53:35.561Z</time></trkpt><trkpt lat="40.95537" lon="16.38094"><ele>609.6666666666667</ele><time>2026-05-03T11:53:36.561Z</time></trkpt><trkpt lat="40.9553717" lon="16.38071"><ele>610.0</ele><time>2026-05-03T11:53:37.561Z</time></trkpt><trkpt lat="40.95537" lon="16.38047"><ele>609.0</ele><time>2026-05-03T11:53:38.561Z</time></trkpt><trkpt lat="40.955365" lon="16.380225"><ele>608.0</ele><time>2026-05-03T11:53:39.561Z</time></trkpt><trkpt lat="40.9553567" lon="16.379975"><ele>607.0</ele><time>2026-05-03T11:53:40.561Z</time></trkpt><trkpt lat="40.9553517" lon="16.3797233"><ele>606.6666666666667</ele><time>2026-05-03T11:53:41.562Z</time></trkpt><trkpt lat="40.955345" lon="16.3794733"><ele>606.3333333333334</ele><time>2026-05-03T11:53:42.561Z</time></trkpt><trkpt lat="40.955335" lon="16.37922"><ele>606.0</ele><time>2026-05-03T11:53:43.561Z</time></trkpt><trkpt lat="40.9553283" lon="16.3789667"><ele>606.6666666666666</ele><time>2026-05-03T11:53:44.561Z</time></trkpt><trkpt lat="40.9553217" lon="16.3787183"><ele>607.3333333333333</ele><time>2026-05-03T11:53:45.562Z</time></trkpt><trkpt lat="40.95532" lon="16.37849"><ele>608.0</ele><time>2026-05-03T11:53:46.562Z</time></trkpt><trkpt lat="40.955315" lon="16.3782783"><ele>608.0</ele><time>2026-05-03T11:53:47.561Z</time></trkpt><trkpt lat="40.9553067" lon="16.3780767"><ele>608.0</ele><time>2026-05-03T11:53:48.562Z</time></trkpt><trkpt lat="40.9552983" lon="16.3778717"><ele>608.0</ele><time>2026-05-03T11:53:49.561Z</time></trkpt><trkpt lat="40.955295" lon="16.37765"><ele>609.0</ele><time>2026-05-03T11:53:50.561Z</time></trkpt><trkpt lat="40.955285" lon="16.3774233"><ele>610.0</ele><time>2026-05-03T11:53:51.561Z</time></trkpt><trkpt lat="40.9552783" lon="16.3771917"><ele>611.0</ele><time>2026-05-03T11:53:52.561Z</time></trkpt><trkpt lat="40.9552683" lon="16.3769667"><ele>612.0</ele><time>2026-05-03T11:53:53.561Z</time></trkpt><trkpt lat="40.9552583" lon="16.376735"><ele>613.0</ele><time>2026-05-03T11:53:54.562Z</time></trkpt><trkpt lat="40.9552533" lon="16.3765117"><ele>614.0</ele><time>2026-05-03T11:53:55.561Z</time></trkpt><trkpt lat="40.9552483" lon="16.376275"><ele>614.0</ele><time>2026-05-03T11:53:56.561Z</time></trkpt><trkpt lat="40.9552417" lon="16.3760333"><ele>614.0</ele><time>2026-05-03T11:53:57.561Z</time></trkpt><trkpt lat="40.9552333" lon="16.3757883"><ele>614.0</ele><time>2026-05-03T11:53:58.561Z</time></trkpt><trkpt lat="40.955225" lon="16.37554"><ele>614.3333333333333</ele><time>2026-05-03T11:53:59.561Z</time></trkpt><trkpt lat="40.9552167" lon="16.375285"><ele>614.6666666666666</ele><time>2026-05-03T11:54:00.562Z</time></trkpt><trkpt lat="40.9552083" lon="16.3750367"><ele>615.0</ele><time>2026-05-03T11:54:01.561Z</time></trkpt><trkpt lat="40.9552" lon="16.3747967"><ele>614.6666666666666</ele><time>2026-05-03T11:54:02.561Z</time></trkpt><trkpt lat="40.9551917" lon="16.3745517"><ele>614.3333333333333</ele><time>2026-05-03T11:54:03.561Z</time></trkpt><trkpt lat="40.9551833" lon="16.37431"><ele>614.0</ele><time>2026-05-03T11:54:04.561Z</time></trkpt><trkpt lat="40.9551733" lon="16.3740667"><ele>614.6666666666666</ele><time>2026-05-03T11:54:05.562Z</time></trkpt><trkpt lat="40.9551633" lon="16.373835"><ele>615.3333333333334</ele><time>2026-05-03T11:54:06.562Z</time></trkpt><trkpt lat="40.9551567" lon="16.373615"><ele>616.0</ele><time>2026-05-03T11:54:07.562Z</time></trkpt><trkpt lat="40.9551483" lon="16.3733883"><ele>616.0</ele><time>2026-05-03T11:54:08.561Z</time></trkpt><trkpt lat="40.95514" lon="16.37318"><ele>616.0</ele><time>2026-05-03T11:54:09.561Z</time></trkpt><trkpt lat="40.955135" lon="16.3729833"><ele>616.0</ele><time>2026-05-03T11:54:10.562Z</time></trkpt><trkpt lat="40.95512" lon="16.3727967"><ele>616.0</ele><time>2026-05-03T11:54:11.562Z</time></trkpt><trkpt lat="40.9550867" lon="16.3726217"><ele>616.5</ele><time>2026-05-03T11:54:12.561Z</time></trkpt><trkpt lat="40.9550383" lon="16.3724533"><ele>617.0</ele><time>2026-05-03T11:54:13.561Z</time></trkpt><trkpt lat="40.9549783" lon="16.37228"><ele>617.5</ele><time>2026-05-03T11:54:14.561Z</time></trkpt><trkpt lat="40.9549083" lon="16.3721"><ele>618.0</ele><time>2026-05-03T11:54:15.561Z</time></trkpt><trkpt lat="40.9548333" lon="16.37191"><ele>619.3333333333334</ele><time>2026-05-03T11:54:16.561Z</time></trkpt><trkpt lat="40.95476" lon="16.3717067"><ele>620.6666666666667</ele><time>2026-05-03T11:54:17.561Z</time></trkpt><trkpt lat="40.9546867" lon="16.3714967"><ele>622.0</ele><time>2026-05-03T11:54:18.562Z</time></trkpt><trkpt lat="40.95461" lon="16.3712783"><ele>622.6666666666667</ele><time>2026-05-03T11:54:19.562Z</time></trkpt><trkpt lat="40.9545333" lon="16.3710617"><ele>623.3333333333334</ele><time>2026-05-03T11:54:20.562Z</time></trkpt><trkpt lat="40.954455" lon="16.370845"><ele>624.0</ele><time>2026-05-03T11:54:21.562Z</time></trkpt><trkpt lat="40.95437" lon="16.370635"><ele>624.0</ele><time>2026-05-03T11:54:22.562Z</time></trkpt><trkpt lat="40.9542917" lon="16.3704217"><ele>624.0</ele><time>2026-05-03T11:54:23.561Z</time></trkpt><trkpt lat="40.95422" lon="16.3701933"><ele>624.0</ele><time>2026-05-03T11:54:24.561Z</time></trkpt><trkpt lat="40.9541433" lon="16.3699817"><ele>624.3333333333334</ele><time>2026-05-03T11:54:25.561Z</time></trkpt><trkpt lat="40.9540683" lon="16.3697733"><ele>624.6666666666667</ele><time>2026-05-03T11:54:26.562Z</time></trkpt><trkpt lat="40.954" lon="16.3695817"><ele>625.0</ele><time>2026-05-03T11:54:27.561Z</time></trkpt><trkpt lat="40.953945" lon="16.3694233"><ele>625.2</ele><time>2026-05-03T11:54:28.561Z</time></trkpt><trkpt lat="40.9538967" lon="16.3692817"><ele>625.4</ele><time>2026-05-03T11:54:29.561Z</time></trkpt><trkpt lat="40.9538567" lon="16.36916"><ele>625.6</ele><time>2026-05-03T11:54:30.561Z</time></trkpt><trkpt lat="40.9538233" lon="16.369025"><ele>625.8</ele><time>2026-05-03T11:54:31.562Z</time></trkpt><trkpt lat="40.9537833" lon="16.36889"><ele>626.0</ele><time>2026-05-03T11:54:32.561Z</time></trkpt><trkpt lat="40.9537417" lon="16.3687517"><ele>626.0</ele><time>2026-05-03T11:54:33.561Z</time></trkpt><trkpt lat="40.953695" lon="16.368625"><ele>626.0</ele><time>2026-05-03T11:54:34.561Z</time></trkpt><trkpt lat="40.9536383" lon="16.368505"><ele>626.0</ele><time>2026-05-03T11:54:35.561Z</time></trkpt><trkpt lat="40.9535633" lon="16.368405"><ele>626.0</ele><time>2026-05-03T11:54:36.561Z</time></trkpt><trkpt lat="40.953475" lon="16.3683133"><ele>626.0</ele><time>2026-05-03T11:54:37.561Z</time></trkpt><trkpt lat="40.9533717" lon="16.36822"><ele>626.25</ele><time>2026-05-03T11:54:38.562Z</time></trkpt><trkpt lat="40.953265" lon="16.368125"><ele>626.5</ele><time>2026-05-03T11:54:39.562Z</time></trkpt><trkpt lat="40.9531633" lon="16.3680217"><ele>626.75</ele><time>2026-05-03T11:54:40.561Z</time></trkpt><trkpt lat="40.9530583" lon="16.36791"><ele>627.0</ele><time>2026-05-03T11:54:41.561Z</time></trkpt><trkpt lat="40.952955" lon="16.3677867"><ele>627.0</ele><time>2026-05-03T11:54:42.561Z</time></trkpt><trkpt lat="40.9528483" lon="16.3676617"><ele>627.0</ele><time>2026-05-03T11:54:43.561Z</time></trkpt><trkpt lat="40.952735" lon="16.3675333"><ele>627.0</ele><time>2026-05-03T11:54:44.561Z</time></trkpt><trkpt lat="40.9526167" lon="16.3673983"><ele>627.0</ele><time>2026-05-03T11:54:45.561Z</time></trkpt><trkpt lat="40.9524983" lon="16.3672667"><ele>627.0</ele><time>2026-05-03T11:54:46.562Z</time></trkpt><trkpt lat="40.952375" lon="16.367135"><ele>627.0</ele><time>2026-05-03T11:54:47.562Z</time></trkpt><trkpt lat="40.9522617" lon="16.366985"><ele>627.0</ele><time>2026-05-03T11:54:48.562Z</time></trkpt><trkpt lat="40.9521567" lon="16.3668617"><ele>627.0</ele><time>2026-05-03T11:54:49.562Z</time></trkpt><trkpt lat="40.9520783" lon="16.3667467"><ele>627.0</ele><time>2026-05-03T11:54:50.561Z</time></trkpt><trkpt lat="40.9520333" lon="16.3666367"><ele>627.0</ele><time>2026-05-03T11:54:51.562Z</time></trkpt><trkpt lat="40.9520117" lon="16.366505"><ele>627.0</ele><time>2026-05-03T11:54:52.561Z</time></trkpt><trkpt lat="40.9519883" lon="16.3663717"><ele>627.0</ele><time>2026-05-03T11:54:53.561Z</time></trkpt><trkpt lat="40.951945" lon="16.3662433"><ele>627.25</ele><time>2026-05-03T11:54:54.562Z</time></trkpt><trkpt lat="40.9518883" lon="16.36612"><ele>627.5</ele><time>2026-05-03T11:54:55.562Z</time></trkpt><trkpt lat="40.951815" lon="16.3660033"><ele>627.75</ele><time>2026-05-03T11:54:56.562Z</time></trkpt><trkpt lat="40.9517367" lon="16.365885"><ele>628.0</ele><time>2026-05-03T11:54:57.561Z</time></trkpt><trkpt lat="40.9516633" lon="16.365765"><ele>628.1999999999999</ele><time>2026-05-03T11:54:58.562Z</time></trkpt><trkpt lat="40.951595" lon="16.3656483"><ele>628.4</ele><time>2026-05-03T11:54:59.561Z</time></trkpt><trkpt lat="40.9515233" lon="16.3655267"><ele>628.5999999999999</ele><time>2026-05-03T11:55:00.561Z</time></trkpt><trkpt lat="40.95145" lon="16.3654283"><ele>628.8</ele><time>2026-05-03T11:55:01.561Z</time></trkpt><trkpt lat="40.95139" lon="16.36534"><ele>629.0</ele><time>2026-05-03T11:55:02.561Z</time></trkpt><trkpt lat="40.9513383" lon="16.3652583"><ele>629.3333333333333</ele><time>2026-05-03T11:55:03.561Z</time></trkpt><trkpt lat="40.9512933" lon="16.3651917"><ele>629.6666666666666</ele><time>2026-05-03T11:55:04.561Z</time></trkpt><trkpt lat="40.9512367" lon="16.3651033"><ele>630.0</ele><time>2026-05-03T11:55:06.561Z</time></trkpt><trkpt lat="40.9511917" lon="16.3650267"><ele>630.3333333333334</ele><time>2026-05-03T11:58:33.562Z</time></trkpt><trkpt lat="40.9511283" lon="16.3649083"><ele>630.6666666666667</ele><time>2026-05-03T11:58:35.561Z</time></trkpt><trkpt lat="40.9510933" lon="16.364835"><ele>631.0</ele><time>2026-05-03T11:58:36.562Z</time></trkpt><trkpt lat="40.951045" lon="16.3647367"><ele>631.4</ele><time>2026-05-03T11:58:37.562Z</time></trkpt><trkpt lat="40.950985" lon="16.3646367"><ele>631.8</ele><time>2026-05-03T11:58:38.562Z</time></trkpt><trkpt lat="40.950925" lon="16.3645333"><ele>632.1999999999999</ele><time>2026-05-03T11:58:39.562Z</time></trkpt><trkpt lat="40.95085" lon="16.3644183"><ele>632.6</ele><time>2026-05-03T11:58:40.561Z</time></trkpt><trkpt lat="40.9507717" lon="16.3642983"><ele>633.0</ele><time>2026-05-03T11:58:41.562Z</time></trkpt><trkpt lat="40.9506933" lon="16.3641767"><ele>633.0</ele><time>2026-05-03T11:58:42.561Z</time></trkpt><trkpt lat="40.95061" lon="16.36405"><ele>633.0</ele><time>2026-05-03T11:58:43.562Z</time></trkpt><trkpt lat="40.9505383" lon="16.3639283"><ele>633.0</ele><time>2026-05-03T11:58:44.561Z</time></trkpt><trkpt lat="40.9504633" lon="16.363815"><ele>633.0</ele><time>2026-05-03T11:58:45.561Z</time></trkpt><trkpt lat="40.95038" lon="16.363695"><ele>634.0</ele><time>2026-05-03T11:58:46.561Z</time></trkpt><trkpt lat="40.9502983" lon="16.36356"><ele>635.0</ele><time>2026-05-03T11:58:47.561Z</time></trkpt><trkpt lat="40.950205" lon="16.3634167"><ele>636.0</ele><time>2026-05-03T11:58:48.561Z</time></trkpt><trkpt lat="40.95011" lon="16.36328"><ele>637.0</ele><time>2026-05-03T11:58:49.561Z</time></trkpt><trkpt lat="40.9500133" lon="16.363135"><ele>638.0</ele><time>2026-05-03T11:58:50.561Z</time></trkpt><trkpt lat="40.94992" lon="16.3629817"><ele>639.0</ele><time>2026-05-03T11:58:51.561Z</time></trkpt><trkpt lat="40.9498217" lon="16.3628167"><ele>640.0</ele><time>2026-05-03T11:58:52.561Z</time></trkpt><trkpt lat="40.9497283" lon="16.362645"><ele>640.0</ele><time>2026-05-03T11:58:53.561Z</time></trkpt><trkpt lat="40.9496283" lon="16.3624733"><ele>640.0</ele><time>2026-05-03T11:58:54.561Z</time></trkpt><trkpt lat="40.9495267" lon="16.3623217"><ele>640.0</ele><time>2026-05-03T11:58:55.561Z</time></trkpt><trkpt lat="40.94942" lon="16.3621733"><ele>640.6666666666667</ele><time>2026-05-03T11:58:56.561Z</time></trkpt><trkpt lat="40.9493183" lon="16.362025"><ele>641.3333333333334</ele><time>2026-05-03T11:58:57.561Z</time></trkpt><trkpt lat="40.9492217" lon="16.361865"><ele>642.0</ele><time>2026-05-03T11:58:58.562Z</time></trkpt><trkpt lat="40.9491283" lon="16.361695"><ele>642.6666666666666</ele><time>2026-05-03T11:58:59.561Z</time></trkpt><trkpt lat="40.9490267" lon="16.3615267"><ele>643.3333333333333</ele><time>2026-05-03T11:59:00.562Z</time></trkpt><trkpt lat="40.9489267" lon="16.3613583"><ele>644.0</ele><time>2026-05-03T11:59:01.561Z</time></trkpt><trkpt lat="40.9488283" lon="16.361195"><ele>644.3333333333333</ele><time>2026-05-03T11:59:02.562Z</time></trkpt><trkpt lat="40.9487283" lon="16.36103"><ele>644.6666666666666</ele><time>2026-05-03T11:59:03.562Z</time></trkpt><trkpt lat="40.9486233" lon="16.3608717"><ele>645.0</ele><time>2026-05-03T11:59:04.561Z</time></trkpt><trkpt lat="40.9485133" lon="16.360715"><ele>645.0</ele><time>2026-05-03T11:59:05.561Z</time></trkpt><trkpt lat="40.9484067" lon="16.36056"><ele>645.0</ele><time>2026-05-03T11:59:06.561Z</time></trkpt><trkpt lat="40.94831" lon="16.3604117"><ele>645.0</ele><time>2026-05-03T11:59:07.562Z</time></trkpt><trkpt lat="40.9482317" lon="16.3602667"><ele>645.0</ele><time>2026-05-03T11:59:08.561Z</time></trkpt><trkpt lat="40.948165" lon="16.360125"><ele>645.0</ele><time>2026-05-03T11:59:09.561Z</time></trkpt><trkpt lat="40.948085" lon="16.359985"><ele>645.0</ele><time>2026-05-03T11:59:10.561Z</time></trkpt><trkpt lat="40.9479933" lon="16.3598467"><ele>645.0</ele><time>2026-05-03T11:59:11.561Z</time></trkpt><trkpt lat="40.9478917" lon="16.3597"><ele>645.0</ele><time>2026-05-03T11:59:12.562Z</time></trkpt><trkpt lat="40.9477883" lon="16.3595483"><ele>645.0</ele><time>2026-05-03T11:59:13.562Z</time></trkpt><trkpt lat="40.9476817" lon="16.35938"><ele>645.0</ele><time>2026-05-03T11:59:14.561Z</time></trkpt><trkpt lat="40.94757" lon="16.3592083"><ele>645.0</ele><time>2026-05-03T11:59:15.561Z</time></trkpt><trkpt lat="40.9474583" lon="16.3590417"><ele>643.6666666666666</ele><time>2026-05-03T11:59:16.561Z</time></trkpt><trkpt lat="40.9473467" lon="16.358865"><ele>642.3333333333333</ele><time>2026-05-03T11:59:17.561Z</time></trkpt><trkpt lat="40.9472417" lon="16.3586983"><ele>641.0</ele><time>2026-05-03T11:59:18.561Z</time></trkpt><trkpt lat="40.9471367" lon="16.35854"><ele>641.0</ele><time>2026-05-03T11:59:19.561Z</time></trkpt><trkpt lat="40.9470283" lon="16.3583767"><ele>641.0</ele><time>2026-05-03T11:59:20.562Z</time></trkpt><trkpt lat="40.946925" lon="16.3582167"><ele>641.0</ele><time>2026-05-03T11:59:21.561Z</time></trkpt><trkpt lat="40.9468267" lon="16.35806"><ele>640.3333333333333</ele><time>2026-05-03T11:59:22.561Z</time></trkpt><trkpt lat="40.9467283" lon="16.3579133"><ele>639.6666666666666</ele><time>2026-05-03T11:59:23.561Z</time></trkpt><trkpt lat="40.9466183" lon="16.35776"><ele>639.0</ele><time>2026-05-03T11:59:24.562Z</time></trkpt><trkpt lat="40.9465083" lon="16.3576067"><ele>638.3333333333334</ele><time>2026-05-03T11:59:25.561Z</time></trkpt><trkpt lat="40.9464067" lon="16.3574383"><ele>637.6666666666667</ele><time>2026-05-03T11:59:26.562Z</time></trkpt><trkpt lat="40.9463017" lon="16.357265"><ele>637.0</ele><time>2026-05-03T11:59:27.562Z</time></trkpt><trkpt lat="40.946185" lon="16.3570933"><ele>635.6666666666667</ele><time>2026-05-03T11:59:28.561Z</time></trkpt><trkpt lat="40.9460833" lon="16.3569267"><ele>634.3333333333334</ele><time>2026-05-03T11:59:29.561Z</time></trkpt><trkpt lat="40.945985" lon="16.356765"><ele>633.0</ele><time>2026-05-03T11:59:30.561Z</time></trkpt><trkpt lat="40.9458933" lon="16.3566217"><ele>633.5</ele><time>2026-05-03T11:59:31.561Z</time></trkpt><trkpt lat="40.9458067" lon="16.3564933"><ele>634.0</ele><time>2026-05-03T11:59:32.561Z</time></trkpt><trkpt lat="40.9457167" lon="16.356385"><ele>634.5</ele><time>2026-05-03T11:59:33.561Z</time></trkpt><trkpt lat="40.945615" lon="16.3562783"><ele>635.0</ele><time>2026-05-03T11:59:34.562Z</time></trkpt><trkpt lat="40.9454983" lon="16.356195"><ele>635.0</ele><time>2026-05-03T11:59:35.562Z</time></trkpt><trkpt lat="40.9453767" lon="16.356125"><ele>635.0</ele><time>2026-05-03T11:59:36.561Z</time></trkpt><trkpt lat="40.94525" lon="16.35607"><ele>635.0</ele><time>2026-05-03T11:59:37.561Z</time></trkpt><trkpt lat="40.9451133" lon="16.3559983"><ele>635.0</ele><time>2026-05-03T11:59:38.561Z</time></trkpt><trkpt lat="40.944975" lon="16.3559133"><ele>635.3333333333333</ele><time>2026-05-03T11:59:39.561Z</time></trkpt><trkpt lat="40.9448267" lon="16.355805"><ele>635.6666666666666</ele><time>2026-05-03T11:59:40.561Z</time></trkpt><trkpt lat="40.9446733" lon="16.3557067"><ele>636.0</ele><time>2026-05-03T11:59:41.561Z</time></trkpt><trkpt lat="40.9445033" lon="16.35561"><ele>636.0</ele><time>2026-05-03T11:59:42.562Z</time></trkpt><trkpt lat="40.9443283" lon="16.3555"><ele>636.0</ele><time>2026-05-03T11:59:43.561Z</time></trkpt><trkpt lat="40.94416" lon="16.3553967"><ele>636.0</ele><time>2026-05-03T11:59:44.562Z</time></trkpt><trkpt lat="40.94399" lon="16.3553"><ele>645.0</ele><time>2026-05-03T11:59:45.561Z</time></trkpt><trkpt lat="40.9476817" lon="16.35938"><ele>645.0</ele><time>2026-05-03T11:59:14.561Z</time></trkpt><trkpt lat="40.94757" lon="16.3592083"><ele>645.0</ele><time>2026-05-03T11:59:15.561Z</time></trkpt><trkpt lat="40.9474583" lon="16.3590417"><ele>645.0</ele><time>2026-05-03T11:59:16.561Z</time></trkpt><trkpt lat="40.9473467" lon="16.358865"><ele>643.6666666666666</ele><time>2026-05-03T11:59:17.561Z</time></trkpt><trkpt lat="40.9472417" lon="16.3586983"><ele>642.3333333333333</ele><time>2026-05-03T11:59:18.561Z</time></trkpt><trkpt lat="40.9471367" lon="16.35854"><ele>641.0</ele><time>2026-05-03T11:59:19.561Z</time></trkpt><trkpt lat="40.9470283" lon="16.3583767"><ele>641.0</ele><time>2026-05-03T11:59:20.562Z</time></trkpt><trkpt lat="40.946925" lon="16.3582167"><ele>641.0</ele><time>2026-05-03T11:59:21.561Z</time></trkpt><trkpt lat="40.9468267" lon="16.35806"><ele>641.0</ele><time>2026-05-03T11:59:22.561Z</time></trkpt><trkpt lat="40.9467283" lon="16.3579133"><ele>639.6666666666666</ele><time>2026-05-03T11:59:23.561Z</time></trkpt><trkpt lat="40.9466183" lon="16.35776"><ele>638.3333333333334</ele><time>2026-05-03T11:59:24.562Z</time></trkpt><trkpt lat="40.9465083" lon="16.3576067"><ele>637.0</ele><time>2026-05-03T11:59:25.561Z</time></trkpt><trkpt lat="40.9464067" lon="16.3574383"><ele>637.0</ele><time>2026-05-03T11:59:26.562Z</time></trkpt><trkpt lat="40.9463017" lon="16.357265"><ele>637.0</ele><time>2026-05-03T11:59:27.562Z</time></trkpt><trkpt lat="40.946185" lon="16.3570933"><ele>637.0</ele><time>2026-05-03T11:59:28.561Z</time></trkpt><trkpt lat="40.9460833" lon="16.3569267"><ele>636.5</ele><time>2026-05-03T11:59:29.561Z</time></trkpt><trkpt lat="40.945985" lon="16.356765"><ele>636.0</ele><time>2026-05-03T11:59:30.561Z</time></trkpt><trkpt lat="40.9458933" lon="16.3566217"><ele>635.5</ele><time>2026-05-03T11:59:31.561Z</time></trkpt><trkpt lat="40.9458067" lon="16.3564933"><ele>635.0</ele><time>2026-05-03T11:59:32.561Z</time></trkpt><trkpt lat="40.9457167" lon="16.356385"><ele>635.0</ele><time>2026-05-03T11:59:33.561Z</time></trkpt><trkpt lat="40.945615" lon="16.3562783"><ele>635.0</ele><time>2026-05-03T11:59:34.562Z</time></trkpt><trkpt lat="40.9454983" lon="16.356195"><ele>635.0</ele><time>2026-05-03T11:59:35.562Z</time></trkpt><trkpt lat="40.9453767" lon="16.356125"><ele>635.0</ele><time>2026-05-03T11:59:36.561Z</time></trkpt><trkpt lat="40.94525" lon="16.35607"><ele>635.0</ele><time>2026-05-03T11:59:37.561Z</time></trkpt><trkpt lat="40.9451133" lon="16.3559983"><ele>635.0</ele><time>2026-05-03T11:59:38.561Z</time></trkpt><trkpt lat="40.944975" lon="16.3559133"><ele>635.0</ele><time>2026-05-03T11:59:39.561Z</time></trkpt><trkpt lat="40.9448267" lon="16.355805"><ele>635.3333333333333</ele><time>2026-05-03T11:59:40.561Z</time></trkpt><trkpt lat="40.9446733" lon="16.3557067"><ele>635.6666666666666</ele><time>2026-05-03T11:59:41.561Z</time></trkpt><trkpt lat="40.9445033" lon="16.35561"><ele>636.0</ele><time>2026-05-03T11:59:42.562Z</time></trkpt><trkpt lat="40.9443283" lon="16.3555"><ele>635.0</ele><time>2026-05-03T11:59:43.561Z</time></trkpt><trkpt lat="40.94416" lon="16.3553967"><ele>634.0</ele><time>2026-05-03T11:59:44.562Z</time></trkpt><trkpt lat="40.94399" lon="16.3553"><ele>633.0</ele><time>2026-05-03T11:59:45.561Z</time></trkpt><trkpt lat="40.9438233" lon="16.3551983"><ele>633.0</ele><time>2026-05-03T11:59:46.561Z</time></trkpt><trkpt lat="40.94365" lon="16.355085"><ele>633.0</ele><time>2026-05-03T11:59:47.561Z</time></trkpt><trkpt lat="40.943475" lon="16.3549767"><ele>633.0</ele><time>2026-05-03T11:59:48.561Z</time></trkpt><trkpt lat="40.943305" lon="16.35487"><ele>632.6666666666666</ele><time>2026-05-03T11:59:49.561Z</time></trkpt><trkpt lat="40.9431417" lon="16.3547683"><ele>632.3333333333333</ele><time>2026-05-03T11:59:50.562Z</time></trkpt><trkpt lat="40.9429767" lon="16.3546767"><ele>632.0</ele><time>2026-05-03T11:59:51.561Z</time></trkpt><trkpt lat="40.9428067" lon="16.3545833"><ele>631.6666666666666</ele><time>2026-05-03T11:59:52.561Z</time></trkpt><trkpt lat="40.9426383" lon="16.3545083"><ele>631.3333333333334</ele><time>2026-05-03T11:59:53.561Z</time></trkpt><trkpt lat="40.94247" lon="16.354455"><ele>631.0</ele><time>2026-05-03T11:59:54.561Z</time></trkpt><trkpt lat="40.9423017" lon="16.3543967"><ele>630.3333333333334</ele><time>2026-05-03T11:59:55.562Z</time></trkpt><trkpt lat="40.9421267" lon="16.3543417"><ele>629.6666666666666</ele><time>2026-05-03T11:59:56.561Z</time></trkpt><trkpt lat="40.941945" lon="16.3542783"><ele>629.0</ele><time>2026-05-03T11:59:57.561Z</time></trkpt><trkpt lat="40.9417733" lon="16.3542133"><ele>628.6666666666666</ele><time>2026-05-03T11:59:58.561Z</time></trkpt><trkpt lat="40.9416" lon="16.3541417"><ele>628.3333333333334</ele><time>2026-05-03T11:59:59.561Z</time></trkpt><trkpt lat="40.94143" lon="16.354075"><ele>628.0</ele><time>2026-05-03T12:00:00.561Z</time></trkpt><trkpt lat="40.9412517" lon="16.354015"><ele>628.0</ele><time>2026-05-03T12:00:01.561Z</time></trkpt><trkpt lat="40.94108" lon="16.3539583"><ele>628.0</ele><time>2026-05-03T12:00:02.562Z</time></trkpt><trkpt lat="40.9409133" lon="16.3539117"><ele>628.0</ele><time>2026-05-03T12:00:03.562Z</time></trkpt><trkpt lat="40.9407567" lon="16.3538633"><ele>627.5</ele><time>2026-05-03T12:00:04.561Z</time></trkpt><trkpt lat="40.94061" lon="16.3538117"><ele>627.0</ele><time>2026-05-03T12:00:05.562Z</time></trkpt><trkpt lat="40.9404817" lon="16.3537667"><ele>626.5</ele><time>2026-05-03T12:00:06.561Z</time></trkpt><trkpt lat="40.94037" lon="16.3537183"><ele>626.0</ele><time>2026-05-03T12:00:07.562Z</time></trkpt><trkpt lat="40.9402617" lon="16.353655"><ele>626.0</ele><time>2026-05-03T12:00:08.561Z</time></trkpt><trkpt lat="40.94015" lon="16.3535717"><ele>626.0</ele><time>2026-05-03T12:00:09.561Z</time></trkpt><trkpt lat="40.94005" lon="16.35347"><ele>626.0</ele><time>2026-05-03T12:00:10.562Z</time></trkpt><trkpt lat="40.9399583" lon="16.3533617"><ele>626.0</ele><time>2026-05-03T12:00:11.562Z</time></trkpt><trkpt lat="40.9398767" lon="16.3532483"><ele>626.0</ele><time>2026-05-03T12:00:12.561Z</time></trkpt><trkpt lat="40.9397933" lon="16.35313"><ele>626.0</ele><time>2026-05-03T12:00:13.561Z</time></trkpt><trkpt lat="40.9397033" lon="16.3530083"><ele>626.0</ele><time>2026-05-03T12:00:14.562Z</time></trkpt><trkpt lat="40.93961" lon="16.35289"><ele>626.0</ele><time>2026-05-03T12:00:15.562Z</time></trkpt><trkpt lat="40.9395083" lon="16.3527583"><ele>625.6666666666666</ele><time>2026-05-03T12:00:16.561Z</time></trkpt><trkpt lat="40.9393917" lon="16.3526183"><ele>625.3333333333334</ele><time>2026-05-03T12:00:17.561Z</time></trkpt><trkpt lat="40.9392717" lon="16.35247"><ele>625.0</ele><time>2026-05-03T12:00:18.561Z</time></trkpt><trkpt lat="40.93915" lon="16.352325"><ele>624.3333333333334</ele><time>2026-05-03T12:00:19.561Z</time></trkpt><trkpt lat="40.9390233" lon="16.35218"><ele>623.6666666666666</ele><time>2026-05-03T12:00:20.561Z</time></trkpt><trkpt lat="40.938895" lon="16.35203"><ele>623.0</ele><time>2026-05-03T12:00:21.562Z</time></trkpt><trkpt lat="40.9387633" lon="16.3518767"><ele>623.0</ele><time>2026-05-03T12:00:22.561Z</time></trkpt><trkpt lat="40.9386317" lon="16.35173"><ele>623.0</ele><time>2026-05-03T12:00:23.561Z</time></trkpt><trkpt lat="40.9385083" lon="16.3515783"><ele>623.0</ele><time>2026-05-03T12:00:24.561Z</time></trkpt><trkpt lat="40.9383717" lon="16.35142"><ele>622.3333333333333</ele><time>2026-05-03T12:00:25.562Z</time></trkpt><trkpt lat="40.9382417" lon="16.351255"><ele>621.6666666666666</ele><time>2026-05-03T12:00:26.562Z</time></trkpt><trkpt lat="40.93811" lon="16.35108"><ele>621.0</ele><time>2026-05-03T12:00:27.562Z</time></trkpt><trkpt lat="40.9379683" lon="16.3509"><ele>621.0</ele><time>2026-05-03T12:00:28.561Z</time></trkpt><trkpt lat="40.9378267" lon="16.3507267"><ele>621.0</ele><time>2026-05-03T12:00:29.561Z</time></trkpt><trkpt lat="40.9376917" lon="16.35055"><ele>621.0</ele><time>2026-05-03T12:00:30.561Z</time></trkpt><trkpt lat="40.9375667" lon="16.3503817"><ele>621.0</ele><time>2026-05-03T12:00:31.561Z</time></trkpt><trkpt lat="40.9374367" lon="16.3502183"><ele>621.0</ele><time>2026-05-03T12:00:32.561Z</time></trkpt><trkpt lat="40.93731" lon="16.350065"><ele>621.0</ele><time>2026-05-03T12:00:33.561Z</time></trkpt><trkpt lat="40.9371833" lon="16.3499"><ele>621.0</ele><time>2026-05-03T12:00:34.561Z</time></trkpt><trkpt lat="40.93705" lon="16.3497217"><ele>621.0</ele><time>2026-05-03T12:00:35.561Z</time></trkpt><trkpt lat="40.9369033" lon="16.349555"><ele>621.0</ele><time>2026-05-03T12:00:36.561Z</time></trkpt><trkpt lat="40.9367733" lon="16.34938"><ele>621.6666666666666</ele><time>2026-05-03T12:00:37.561Z</time></trkpt><trkpt lat="40.9366383" lon="16.3492117"><ele>622.3333333333333</ele><time>2026-05-03T12:00:38.561Z</time></trkpt><trkpt lat="40.9365083" lon="16.3490417"><ele>623.0</ele><time>2026-05-03T12:00:39.561Z</time></trkpt><trkpt lat="40.9363817" lon="16.348875"><ele>623.6666666666666</ele><time>2026-05-03T12:00:40.561Z</time></trkpt><trkpt lat="40.9362517" lon="16.3487117"><ele>624.3333333333334</ele><time>2026-05-03T12:00:41.561Z</time></trkpt><trkpt lat="40.9361183" lon="16.3485483"><ele>625.0</ele><time>2026-05-03T12:00:42.561Z</time></trkpt><trkpt lat="40.9359917" lon="16.3483817"><ele>625.3333333333334</ele><time>2026-05-03T12:00:43.561Z</time></trkpt><trkpt lat="40.9358617" lon="16.3482133"><ele>625.6666666666666</ele><time>2026-05-03T12:00:44.561Z</time></trkpt><trkpt lat="40.9357283" lon="16.348045"><ele>626.0</ele><time>2026-05-03T12:00:45.562Z</time></trkpt><trkpt lat="40.9355933" lon="16.3478783"><ele>626.0</ele><time>2026-05-03T12:00:46.561Z</time></trkpt><trkpt lat="40.9354667" lon="16.3477167"><ele>626.0</ele><time>2026-05-03T12:00:47.561Z</time></trkpt><trkpt lat="40.9353417" lon="16.34756"><ele>626.0</ele><time>2026-05-03T12:00:48.562Z</time></trkpt><trkpt lat="40.9352167" lon="16.3474017"><ele>626.0</ele><time>2026-05-03T12:00:49.561Z</time></trkpt><trkpt lat="40.9350983" lon="16.34725"><ele>626.0</ele><time>2026-05-03T12:00:50.561Z</time></trkpt><trkpt lat="40.9349783" lon="16.347095"><ele>626.0</ele><time>2026-05-03T12:00:51.561Z</time></trkpt><trkpt lat="40.9348583" lon="16.3469333"><ele>625.6666666666666</ele><time>2026-05-03T12:00:52.561Z</time></trkpt><trkpt lat="40.9347267" lon="16.346775"><ele>625.3333333333334</ele><time>2026-05-03T12:00:53.561Z</time></trkpt><trkpt lat="40.9345967" lon="16.3466183"><ele>625.0</ele><time>2026-05-03T12:00:54.561Z</time></trkpt><trkpt lat="40.9344667" lon="16.34646"><ele>625.6666666666667</ele><time>2026-05-03T12:00:55.561Z</time></trkpt><trkpt lat="40.9343367" lon="16.3463"><ele>626.3333333333334</ele><time>2026-05-03T12:00:56.561Z</time></trkpt><trkpt lat="40.9342033" lon="16.346135"><ele>627.0</ele><time>2026-05-03T12:00:57.561Z</time></trkpt><trkpt lat="40.9340683" lon="16.34596"><ele>627.6666666666666</ele><time>2026-05-03T12:00:58.561Z</time></trkpt><trkpt lat="40.933935" lon="16.3457983"><ele>628.3333333333333</ele><time>2026-05-03T12:00:59.562Z</time></trkpt><trkpt lat="40.9338117" lon="16.3456483"><ele>629.0</ele><time>2026-05-03T12:01:00.561Z</time></trkpt><trkpt lat="40.933705" lon="16.345505"><ele>629.5</ele><time>2026-05-03T12:01:01.561Z</time></trkpt><trkpt lat="40.9335917" lon="16.345365"><ele>630.0</ele><time>2026-05-03T12:01:02.562Z</time></trkpt><trkpt lat="40.93348" lon="16.3452333"><ele>630.5</ele><time>2026-05-03T12:01:03.561Z</time></trkpt><trkpt lat="40.933375" lon="16.3451017"><ele>631.0</ele><time>2026-05-03T12:01:04.561Z</time></trkpt><trkpt lat="40.9332633" lon="16.34496"><ele>631.0</ele><time>2026-05-03T12:01:05.562Z</time></trkpt><trkpt lat="40.9331433" lon="16.344815"><ele>631.0</ele><time>2026-05-03T12:01:06.561Z</time></trkpt><trkpt lat="40.933015" lon="16.3446583"><ele>631.0</ele><time>2026-05-03T12:01:07.561Z</time></trkpt><trkpt lat="40.932905" lon="16.3445183"><ele>631.6666666666667</ele><time>2026-05-03T12:01:08.561Z</time></trkpt><trkpt lat="40.9327983" lon="16.3443733"><ele>632.3333333333334</ele><time>2026-05-03T12:01:09.561Z</time></trkpt><trkpt lat="40.9326983" lon="16.344225"><ele>633.0</ele><time>2026-05-03T12:01:10.561Z</time></trkpt><trkpt lat="40.9325917" lon="16.344085"><ele>634.0</ele><time>2026-05-03T12:01:11.562Z</time></trkpt><trkpt lat="40.9324817" lon="16.3439383"><ele>635.0</ele><time>2026-05-03T12:01:12.562Z</time></trkpt><trkpt lat="40.9323633" lon="16.343785"><ele>636.0</ele><time>2026-05-03T12:01:13.561Z</time></trkpt><trkpt lat="40.9322417" lon="16.3436367"><ele>636.0</ele><time>2026-05-03T12:01:14.561Z</time></trkpt><trkpt lat="40.93212" lon="16.3434833"><ele>636.0</ele><time>2026-05-03T12:01:15.562Z</time></trkpt><trkpt lat="40.9319983" lon="16.343335"><ele>636.0</ele><time>2026-05-03T12:01:16.561Z</time></trkpt><trkpt lat="40.931885" lon="16.343205"><ele>636.0</ele><time>2026-05-03T12:01:17.562Z</time></trkpt><trkpt lat="40.9317883" lon="16.343095"><ele>636.0</ele><time>2026-05-03T12:01:18.562Z</time></trkpt><trkpt lat="40.931705" lon="16.3429967"><ele>636.0</ele><time>2026-05-03T12:01:19.561Z</time></trkpt><trkpt lat="40.9316333" lon="16.3429"><ele>636.0</ele><time>2026-05-03T12:01:20.562Z</time></trkpt><trkpt lat="40.931565" lon="16.3427867"><ele>637.25</ele><time>2026-05-03T12:01:21.561Z</time></trkpt><trkpt lat="40.9315017" lon="16.3426633"><ele>638.5</ele><time>2026-05-03T12:01:22.561Z</time></trkpt><trkpt lat="40.9314417" lon="16.3425267"><ele>639.75</ele><time>2026-05-03T12:01:23.562Z</time></trkpt><trkpt lat="40.93137" lon="16.3423967"><ele>641.0</ele><time>2026-05-03T12:01:24.562Z</time></trkpt><trkpt lat="40.9312817" lon="16.342275"><ele>641.25</ele><time>2026-05-03T12:01:25.561Z</time></trkpt><trkpt lat="40.9311717" lon="16.34216"><ele>641.5</ele><time>2026-05-03T12:01:26.562Z</time></trkpt><trkpt lat="40.9310583" lon="16.342045"><ele>641.75</ele><time>2026-05-03T12:01:27.561Z</time></trkpt><trkpt lat="40.9309417" lon="16.341935"><ele>642.0</ele><time>2026-05-03T12:01:28.562Z</time></trkpt><trkpt lat="40.9308267" lon="16.3418217"><ele>642.6666666666666</ele><time>2026-05-03T12:01:29.561Z</time></trkpt><trkpt lat="40.9307133" lon="16.3416967"><ele>643.3333333333333</ele><time>2026-05-03T12:01:30.561Z</time></trkpt><trkpt lat="40.930595" lon="16.341565"><ele>644.0</ele><time>2026-05-03T12:01:31.561Z</time></trkpt><trkpt lat="40.9304833" lon="16.3414317"><ele>644.6666666666666</ele><time>2026-05-03T12:01:32.561Z</time></trkpt><trkpt lat="40.9303683" lon="16.3412917"><ele>645.3333333333334</ele><time>2026-05-03T12:01:33.561Z</time></trkpt><trkpt lat="40.9302567" lon="16.34115"><ele>646.0</ele><time>2026-05-03T12:01:34.562Z</time></trkpt><trkpt lat="40.9301467" lon="16.341005"><ele>647.3333333333334</ele><time>2026-05-03T12:01:35.561Z</time></trkpt><trkpt lat="40.9300317" lon="16.3408583"><ele>648.6666666666666</ele><time>2026-05-03T12:01:36.561Z</time></trkpt><trkpt lat="40.9299183" lon="16.3407067"><ele>650.0</ele><time>2026-05-03T12:01:37.561Z</time></trkpt><trkpt lat="40.9298033" lon="16.3405583"><ele>651.0</ele><time>2026-05-03T12:01:38.561Z</time></trkpt><trkpt lat="40.9296833" lon="16.34041"><ele>652.0</ele><time>2026-05-03T12:01:39.561Z</time></trkpt><trkpt lat="40.9295633" lon="16.34026"><ele>653.0</ele><time>2026-05-03T12:01:40.562Z</time></trkpt><trkpt lat="40.9294383" lon="16.3401133"><ele>653.0</ele><time>2026-05-03T12:01:41.561Z</time></trkpt><trkpt lat="40.929335" lon="16.3399733"><ele>653.0</ele><time>2026-05-03T12:01:42.562Z</time></trkpt><trkpt lat="40.9292383" lon="16.3398283"><ele>653.0</ele><time>2026-05-03T12:01:43.561Z</time></trkpt><trkpt lat="40.9291467" lon="16.3397"><ele>653.0</ele><time>2026-05-03T12:01:44.561Z</time></trkpt><trkpt lat="40.9290517" lon="16.3395833"><ele>654.25</ele><time>2026-05-03T12:01:45.561Z</time></trkpt><trkpt lat="40.9289483" lon="16.33947"><ele>655.5</ele><time>2026-05-03T12:01:46.562Z</time></trkpt><trkpt lat="40.9288417" lon="16.3393467"><ele>656.75</ele><time>2026-05-03T12:01:47.561Z</time></trkpt><trkpt lat="40.9287383" lon="16.3392067"><ele>658.0</ele><time>2026-05-03T12:01:48.561Z</time></trkpt><trkpt lat="40.9286317" lon="16.339055"><ele>658.0</ele><time>2026-05-03T12:01:49.561Z</time></trkpt><trkpt lat="40.9285283" lon="16.338905"><ele>658.0</ele><time>2026-05-03T12:01:50.561Z</time></trkpt><trkpt lat="40.9284217" lon="16.3387617"><ele>658.0</ele><time>2026-05-03T12:01:51.562Z</time></trkpt><trkpt lat="40.92831" lon="16.3386333"><ele>658.6666666666667</ele><time>2026-05-03T12:01:52.561Z</time></trkpt><trkpt lat="40.9281883" lon="16.3385133"><ele>659.3333333333334</ele><time>2026-05-03T12:01:53.561Z</time></trkpt><trkpt lat="40.9280533" lon="16.3384033"><ele>660.0</ele><time>2026-05-03T12:01:54.562Z</time></trkpt><trkpt lat="40.9279133" lon="16.3383033"><ele>660.0</ele><time>2026-05-03T12:01:55.561Z</time></trkpt><trkpt lat="40.9277783" lon="16.338205"><ele>660.0</ele><time>2026-05-03T12:01:56.561Z</time></trkpt><trkpt lat="40.9276483" lon="16.3381033"><ele>660.0</ele><time>2026-05-03T12:01:57.561Z</time></trkpt><trkpt lat="40.92753" lon="16.3380033"><ele>660.0</ele><time>2026-05-03T12:01:58.561Z</time></trkpt><trkpt lat="40.9274233" lon="16.33791"><ele>659.6</ele><time>2026-05-03T12:01:59.561Z</time></trkpt><trkpt lat="40.9273183" lon="16.3378233"><ele>659.2</ele><time>2026-05-03T12:02:00.561Z</time></trkpt><trkpt lat="40.927225" lon="16.3377567"><ele>658.8</ele><time>2026-05-03T12:02:01.561Z</time></trkpt><trkpt lat="40.92715" lon="16.337695"><ele>658.4</ele><time>2026-05-03T12:02:02.561Z</time></trkpt><trkpt lat="40.927085" lon="16.3376433"><ele>658.0</ele><time>2026-05-03T12:02:03.561Z</time></trkpt><trkpt lat="40.92703" lon="16.3376"><ele>658.0</ele><time>2026-05-03T12:02:04.562Z</time></trkpt><trkpt lat="40.9269433" lon="16.3375283"><ele>658.0</ele><time>2026-05-03T12:02:06.562Z</time></trkpt><trkpt lat="40.9270067" lon="16.3375983"><ele>658.0</ele><time>2026-05-03T12:02:14.561Z</time></trkpt><trkpt lat="40.9270683" lon="16.337635"><ele>658.0</ele><time>2026-05-03T12:02:15.561Z</time></trkpt><trkpt lat="40.9271383" lon="16.3376917"><ele>658.0</ele><time>2026-05-03T12:02:16.561Z</time></trkpt><trkpt lat="40.927215" lon="16.3377567"><ele>658.0</ele><time>2026-05-03T12:02:17.562Z</time></trkpt><trkpt lat="40.9272983" lon="16.33782"><ele>658.0</ele><time>2026-05-03T12:02:18.561Z</time></trkpt><trkpt lat="40.92738" lon="16.3378833"><ele>658.0</ele><time>2026-05-03T12:02:19.561Z</time></trkpt><trkpt lat="40.92745" lon="16.337935"><ele>658.0</ele><time>2026-05-03T12:02:20.561Z</time></trkpt><trkpt lat="40.9275083" lon="16.3379783"><ele>658.0</ele><time>2026-05-03T12:02:21.561Z</time></trkpt><trkpt lat="40.927585" lon="16.3380433"><ele>658.0</ele><time>2026-05-03T12:02:23.561Z</time></trkpt><trkpt lat="40.9276617" lon="16.3380383"><ele>658.0</ele><time>2026-05-03T12:02:26.561Z</time></trkpt><trkpt lat="40.92769" lon="16.33792"><ele>657.5999999999999</ele><time>2026-05-03T12:02:28.562Z</time></trkpt><trkpt lat="40.9277167" lon="16.3378317"><ele>657.1999999999999</ele><time>2026-05-03T12:02:29.561Z</time></trkpt><trkpt lat="40.92776" lon="16.3377283"><ele>656.8</ele><time>2026-05-03T12:02:30.561Z</time></trkpt><trkpt lat="40.9278183" lon="16.3376183"><ele>656.4</ele><time>2026-05-03T12:02:31.561Z</time></trkpt><trkpt lat="40.92788" lon="16.3375117"><ele>656.0</ele><time>2026-05-03T12:02:32.561Z</time></trkpt><trkpt lat="40.9279483" lon="16.33739"><ele>656.0</ele><time>2026-05-03T12:02:33.562Z</time></trkpt><trkpt lat="40.928025" lon="16.3372517"><ele>656.0</ele><time>2026-05-03T12:02:34.561Z</time></trkpt><trkpt lat="40.9281117" lon="16.3371033"><ele>656.0</ele><time>2026-05-03T12:02:35.562Z</time></trkpt><trkpt lat="40.9281983" lon="16.336955"><ele>656.0</ele><time>2026-05-03T12:02:36.562Z</time></trkpt><trkpt lat="40.92829" lon="16.3367967"><ele>655.75</ele><time>2026-05-03T12:02:37.561Z</time></trkpt><trkpt lat="40.9283833" lon="16.3366383"><ele>655.5</ele><time>2026-05-03T12:02:38.561Z</time></trkpt><trkpt lat="40.92848" lon="16.33649"><ele>655.25</ele><time>2026-05-03T12:02:39.561Z</time></trkpt><trkpt lat="40.928575" lon="16.33634"><ele>655.0</ele><time>2026-05-03T12:02:40.561Z</time></trkpt><trkpt lat="40.928665" lon="16.3361833"><ele>654.0</ele><time>2026-05-03T12:02:41.562Z</time></trkpt><trkpt lat="40.9287567" lon="16.33602"><ele>653.0</ele><time>2026-05-03T12:02:42.561Z</time></trkpt><trkpt lat="40.9288583" lon="16.3358517"><ele>652.0</ele><time>2026-05-03T12:02:43.561Z</time></trkpt><trkpt lat="40.92896" lon="16.3356833"><ele>651.6666666666667</ele><time>2026-05-03T12:02:44.561Z</time></trkpt><trkpt lat="40.9290567" lon="16.3355217"><ele>651.3333333333334</ele><time>2026-05-03T12:02:45.561Z</time></trkpt><trkpt lat="40.92916" lon="16.3353633"><ele>651.0</ele><time>2026-05-03T12:02:46.561Z</time></trkpt><trkpt lat="40.9292583" lon="16.3352017"><ele>650.75</ele><time>2026-05-03T12:02:47.562Z</time></trkpt><trkpt lat="40.9293483" lon="16.3350417"><ele>650.5</ele><time>2026-05-03T12:02:48.561Z</time></trkpt><trkpt lat="40.9294333" lon="16.334895"><ele>650.25</ele><time>2026-05-03T12:02:49.561Z</time></trkpt><trkpt lat="40.9295167" lon="16.33476"><ele>650.0</ele><time>2026-05-03T12:02:50.561Z</time></trkpt><trkpt lat="40.9296067" lon="16.3346183"><ele>649.5</ele><time>2026-05-03T12:02:51.561Z</time></trkpt><trkpt lat="40.9297" lon="16.33447"><ele>649.0</ele><time>2026-05-03T12:02:52.562Z</time></trkpt><trkpt lat="40.9297967" lon="16.3343183"><ele>648.5</ele><time>2026-05-03T12:02:53.562Z</time></trkpt><trkpt lat="40.9298933" lon="16.3341667"><ele>648.0</ele><time>2026-05-03T12:02:54.562Z</time></trkpt><trkpt lat="40.93" lon="16.3340233"><ele>648.0</ele><time>2026-05-03T12:02:55.561Z</time></trkpt><trkpt lat="40.9301" lon="16.333895"><ele>648.0</ele><time>2026-05-03T12:02:56.562Z</time></trkpt><trkpt lat="40.93019" lon="16.3337717"><ele>648.0</ele><time>2026-05-03T12:02:57.561Z</time></trkpt><trkpt lat="40.9302883" lon="16.3336317"><ele>648.0</ele><time>2026-05-03T12:02:58.561Z</time></trkpt><trkpt lat="40.9303783" lon="16.3334883"><ele>647.5</ele><time>2026-05-03T12:02:59.562Z</time></trkpt><trkpt lat="40.93045" lon="16.3333483"><ele>647.0</ele><time>2026-05-03T12:03:00.562Z</time></trkpt><trkpt lat="40.9305267" lon="16.3332233"><ele>646.5</ele><time>2026-05-03T12:03:01.561Z</time></trkpt><trkpt lat="40.93061" lon="16.3330967"><ele>646.0</ele><time>2026-05-03T12:03:02.561Z</time></trkpt><trkpt lat="40.9307017" lon="16.3329733"><ele>646.0</ele><time>2026-05-03T12:03:03.561Z</time></trkpt><trkpt lat="40.930795" lon="16.3328433"><ele>646.0</ele><time>2026-05-03T12:03:04.561Z</time></trkpt><trkpt lat="40.9308983" lon="16.332715"><ele>646.0</ele><time>2026-05-03T12:03:05.561Z</time></trkpt><trkpt lat="40.9310067" lon="16.3325933"><ele>646.0</ele><time>2026-05-03T12:03:06.561Z</time></trkpt><trkpt lat="40.9311167" lon="16.3324633"><ele>646.0</ele><time>2026-05-03T12:03:07.561Z</time></trkpt><trkpt lat="40.931225" lon="16.33231"><ele>646.0</ele><time>2026-05-03T12:03:08.561Z</time></trkpt><trkpt lat="40.93133" lon="16.3321733"><ele>646.0</ele><time>2026-05-03T12:03:09.562Z</time></trkpt><trkpt lat="40.9314433" lon="16.33204"><ele>645.6666666666667</ele><time>2026-05-03T12:03:10.562Z</time></trkpt><trkpt lat="40.9315483" lon="16.3319067"><ele>645.3333333333334</ele><time>2026-05-03T12:03:11.561Z</time></trkpt><trkpt lat="40.9316683" lon="16.3317767"><ele>645.0</ele><time>2026-05-03T12:03:12.561Z</time></trkpt><trkpt lat="40.93179" lon="16.3316517"><ele>645.0</ele><time>2026-05-03T12:03:13.561Z</time></trkpt><trkpt lat="40.931915" lon="16.3315383"><ele>645.0</ele><time>2026-05-03T12:03:14.561Z</time></trkpt><trkpt lat="40.9320383" lon="16.3314283"><ele>645.0</ele><time>2026-05-03T12:03:15.561Z</time></trkpt><trkpt lat="40.9321583" lon="16.3313233"><ele>645.0</ele><time>2026-05-03T12:03:16.562Z</time></trkpt><trkpt lat="40.93226" lon="16.3312167"><ele>645.0</ele><time>2026-05-03T12:03:17.561Z</time></trkpt><trkpt lat="40.9323583" lon="16.3310983"><ele>645.0</ele><time>2026-05-03T12:03:18.562Z</time></trkpt><trkpt lat="40.9324567" lon="16.3309817"><ele>645.0</ele><time>2026-05-03T12:03:19.561Z</time></trkpt><trkpt lat="40.9325767" lon="16.330885"><ele>645.0</ele><time>2026-05-03T12:03:20.561Z</time></trkpt><trkpt lat="40.9326883" lon="16.330805"><ele>645.0</ele><time>2026-05-03T12:03:21.562Z</time></trkpt><trkpt lat="40.932805" lon="16.3307183"><ele>645.0</ele><time>2026-05-03T12:03:22.561Z</time></trkpt><trkpt lat="40.9329083" lon="16.33063"><ele>645.0</ele><time>2026-05-03T12:03:23.561Z</time></trkpt><trkpt lat="40.9330083" lon="16.3305467"><ele>645.0</ele><time>2026-05-03T12:03:24.561Z</time></trkpt><trkpt lat="40.9330983" lon="16.33047"><ele>644.8333333333334</ele><time>2026-05-03T12:03:25.561Z</time></trkpt><trkpt lat="40.9331767" lon="16.3304083"><ele>644.6666666666666</ele><time>2026-05-03T12:03:26.561Z</time></trkpt><trkpt lat="40.93325" lon="16.330355"><ele>644.5</ele><time>2026-05-03T12:03:27.561Z</time></trkpt><trkpt lat="40.9333233" lon="16.330295"><ele>644.3333333333333</ele><time>2026-05-03T12:03:28.562Z</time></trkpt><trkpt lat="40.9333817" lon="16.3302067"><ele>644.1666666666666</ele><time>2026-05-03T12:03:29.561Z</time></trkpt><trkpt lat="40.9334267" lon="16.3301183"><ele>644.0</ele><time>2026-05-03T12:03:30.561Z</time></trkpt><trkpt lat="40.93347" lon="16.3300333"><ele>644.0</ele><time>2026-05-03T12:03:31.561Z</time></trkpt><trkpt lat="40.9335033" lon="16.3299583"><ele>644.0</ele><time>2026-05-03T12:03:32.562Z</time></trkpt><trkpt lat="40.933505" lon="16.3297867"><ele>644.0</ele><time>2026-05-03T12:03:34.561Z</time></trkpt><trkpt lat="40.9334617" lon="16.3297"><ele>644.0</ele><time>2026-05-03T12:03:35.561Z</time></trkpt><trkpt lat="40.933395" lon="16.3296167"><ele>644.0</ele><time>2026-05-03T12:03:36.561Z</time></trkpt><trkpt lat="40.9333067" lon="16.3295283"><ele>644.0</ele><time>2026-05-03T12:03:37.561Z</time></trkpt><trkpt lat="40.93321" lon="16.3294267"><ele>644.0</ele><time>2026-05-03T12:03:38.561Z</time></trkpt><trkpt lat="40.9331183" lon="16.3293233"><ele>644.0</ele><time>2026-05-03T12:03:39.561Z</time></trkpt><trkpt lat="40.9330267" lon="16.329205"><ele>644.0</ele><time>2026-05-03T12:03:40.561Z</time></trkpt><trkpt lat="40.9329367" lon="16.3290867"><ele>644.0</ele><time>2026-05-03T12:03:41.561Z</time></trkpt><trkpt lat="40.932845" lon="16.3289567"><ele>644.0</ele><time>2026-05-03T12:03:42.562Z</time></trkpt><trkpt lat="40.9327467" lon="16.3288283"><ele>644.0</ele><time>2026-05-03T12:03:43.562Z</time></trkpt><trkpt lat="40.93264" lon="16.328705"><ele>644.0</ele><time>2026-05-03T12:03:44.561Z</time></trkpt><trkpt lat="40.9325233" lon="16.3285917"><ele>645.6666666666666</ele><time>2026-05-03T12:03:45.561Z</time></trkpt><trkpt lat="40.932405" lon="16.3284717"><ele>647.3333333333334</ele><time>2026-05-03T12:03:46.561Z</time></trkpt><trkpt lat="40.9322833" lon="16.3283433"><ele>649.0</ele><time>2026-05-03T12:03:47.562Z</time></trkpt><trkpt lat="40.9321567" lon="16.3282083"><ele>649.0</ele><time>2026-05-03T12:03:48.561Z</time></trkpt><trkpt lat="40.93204" lon="16.328075"><ele>649.0</ele><time>2026-05-03T12:03:49.561Z</time></trkpt><trkpt lat="40.931915" lon="16.32794"><ele>649.0</ele><time>2026-05-03T12:03:50.561Z</time></trkpt><trkpt lat="40.9318083" lon="16.3278117"><ele>649.5</ele><time>2026-05-03T12:03:51.561Z</time></trkpt><trkpt lat="40.9317133" lon="16.3276983"><ele>650.0</ele><time>2026-05-03T12:03:52.561Z</time></trkpt><trkpt lat="40.931625" lon="16.3275867"><ele>650.5</ele><time>2026-05-03T12:03:53.561Z</time></trkpt><trkpt lat="40.93154" lon="16.3274817"><ele>651.0</ele><time>2026-05-03T12:03:54.561Z</time></trkpt><trkpt lat="40.93146" lon="16.3273833"><ele>651.0</ele><time>2026-05-03T12:03:55.561Z</time></trkpt><trkpt lat="40.9313817" lon="16.32727"><ele>651.0</ele><time>2026-05-03T12:03:56.562Z</time></trkpt><trkpt lat="40.9313067" lon="16.327165"><ele>651.0</ele><time>2026-05-03T12:03:57.561Z</time></trkpt><trkpt lat="40.9312367" lon="16.32707"><ele>651.0</ele><time>2026-05-03T12:03:58.562Z</time></trkpt><trkpt lat="40.9311883" lon="16.3269933"><ele>651.0</ele><time>2026-05-03T12:03:59.562Z</time></trkpt><trkpt lat="40.931175" lon="16.326905"><ele>651.4</ele><time>2026-05-03T12:04:00.561Z</time></trkpt><trkpt lat="40.93122" lon="16.3267433"><ele>651.8</ele><time>2026-05-03T12:04:02.561Z</time></trkpt><trkpt lat="40.9312817" lon="16.3266633"><ele>652.1999999999999</ele><time>2026-05-03T12:04:03.561Z</time></trkpt><trkpt lat="40.9313733" lon="16.326595"><ele>652.5999999999999</ele><time>2026-05-03T12:04:04.561Z</time></trkpt><trkpt lat="40.93147" lon="16.3265167"><ele>653.0</ele><time>2026-05-03T12:04:05.561Z</time></trkpt><trkpt lat="40.9315733" lon="16.3264283"><ele>653.5</ele><time>2026-05-03T12:04:06.561Z</time></trkpt><trkpt lat="40.9316767" lon="16.3263233"><ele>654.0</ele><time>2026-05-03T12:04:07.562Z</time></trkpt><trkpt lat="40.9317817" lon="16.3261983"><ele>654.5</ele><time>2026-05-03T12:04:08.561Z</time></trkpt><trkpt lat="40.931885" lon="16.3260667"><ele>655.0</ele><time>2026-05-03T12:04:09.561Z</time></trkpt><trkpt lat="40.9319967" lon="16.3259433"><ele>655.0</ele><time>2026-05-03T12:04:10.562Z</time></trkpt><trkpt lat="40.9321017" lon="16.3258183"><ele>655.0</ele><time>2026-05-03T12:04:11.561Z</time></trkpt><trkpt lat="40.9321933" lon="16.32571"><ele>655.0</ele><time>2026-05-03T12:04:12.561Z</time></trkpt><trkpt lat="40.9322767" lon="16.3256"><ele>655.0</ele><time>2026-05-03T12:04:13.561Z</time></trkpt><trkpt lat="40.932365" lon="16.3254833"><ele>655.0</ele><time>2026-05-03T12:04:14.561Z</time></trkpt><trkpt lat="40.9324517" lon="16.32536"><ele>655.0</ele><time>2026-05-03T12:04:15.562Z</time></trkpt><trkpt lat="40.9325483" lon="16.325235"><ele>655.0</ele><time>2026-05-03T12:04:16.561Z</time></trkpt><trkpt lat="40.9326433" lon="16.3251083"><ele>655.0</ele><time>2026-05-03T12:04:17.562Z</time></trkpt><trkpt lat="40.93274" lon="16.32499"><ele>654.75</ele><time>2026-05-03T12:04:18.561Z</time></trkpt><trkpt lat="40.9328383" lon="16.3248783"><ele>654.5</ele><time>2026-05-03T12:04:19.561Z</time></trkpt><trkpt lat="40.9329467" lon="16.32476"><ele>654.25</ele><time>2026-05-03T12:04:20.561Z</time></trkpt><trkpt lat="40.9330433" lon="16.3246483"><ele>654.0</ele><time>2026-05-03T12:04:21.561Z</time></trkpt><trkpt lat="40.933145" lon="16.324545"><ele>654.0</ele><time>2026-05-03T12:04:22.562Z</time></trkpt><trkpt lat="40.9332533" lon="16.324435"><ele>654.0</ele><time>2026-05-03T12:04:23.561Z</time></trkpt><trkpt lat="40.93337" lon="16.3243117"><ele>654.0</ele><time>2026-05-03T12:04:24.561Z</time></trkpt><trkpt lat="40.933485" lon="16.3241933"><ele>654.0</ele><time>2026-05-03T12:04:25.561Z</time></trkpt><trkpt lat="40.9336" lon="16.3240967"><ele>653.5</ele><time>2026-05-03T12:04:26.562Z</time></trkpt><trkpt lat="40.9337117" lon="16.3239933"><ele>653.0</ele><time>2026-05-03T12:04:27.561Z</time></trkpt><trkpt lat="40.9338333" lon="16.3238733"><ele>652.5</ele><time>2026-05-03T12:04:28.561Z</time></trkpt><trkpt lat="40.9339683" lon="16.3237583"><ele>652.0</ele><time>2026-05-03T12:04:29.561Z</time></trkpt><trkpt lat="40.9340983" lon="16.3236367"><ele>651.3333333333334</ele><time>2026-05-03T12:04:30.561Z</time></trkpt><trkpt lat="40.9342267" lon="16.3235133"><ele>650.6666666666666</ele><time>2026-05-03T12:04:31.561Z</time></trkpt><trkpt lat="40.9343583" lon="16.3233883"><ele>650.0</ele><time>2026-05-03T12:04:32.561Z</time></trkpt><trkpt lat="40.9344833" lon="16.3232667"><ele>650.0</ele><time>2026-05-03T12:04:33.561Z</time></trkpt><trkpt lat="40.9346117" lon="16.32314"><ele>650.0</ele><time>2026-05-03T12:04:34.561Z</time></trkpt><trkpt lat="40.93474" lon="16.3230067"><ele>650.0</ele><time>2026-05-03T12:04:35.561Z</time></trkpt><trkpt lat="40.93487" lon="16.3228817"><ele>649.6666666666666</ele><time>2026-05-03T12:04:36.562Z</time></trkpt><trkpt lat="40.9350033" lon="16.3227483"><ele>649.3333333333334</ele><time>2026-05-03T12:04:37.562Z</time></trkpt><trkpt lat="40.9351483" lon="16.3226067"><ele>649.0</ele><time>2026-05-03T12:04:38.561Z</time></trkpt><trkpt lat="40.9352983" lon="16.3224783"><ele>648.3333333333334</ele><time>2026-05-03T12:04:39.561Z</time></trkpt><trkpt lat="40.9354417" lon="16.3223367"><ele>647.6666666666666</ele><time>2026-05-03T12:04:40.561Z</time></trkpt><trkpt lat="40.9355933" lon="16.3221933"><ele>647.0</ele><time>2026-05-03T12:04:41.561Z</time></trkpt><trkpt lat="40.9357517" lon="16.3220583"><ele>646.3333333333333</ele><time>2026-05-03T12:04:42.561Z</time></trkpt><trkpt lat="40.9359083" lon="16.32193"><ele>645.6666666666666</ele><time>2026-05-03T12:04:43.561Z</time></trkpt><trkpt lat="40.9360617" lon="16.321795"><ele>645.0</ele><time>2026-05-03T12:04:44.561Z</time></trkpt><trkpt lat="40.93621" lon="16.3216517"><ele>645.0</ele><time>2026-05-03T12:04:45.561Z</time></trkpt><trkpt lat="40.9363567" lon="16.3215033"><ele>645.0</ele><time>2026-05-03T12:04:46.561Z</time></trkpt><trkpt lat="40.9365" lon="16.3213667"><ele>645.0</ele><time>2026-05-03T12:04:47.561Z</time></trkpt><trkpt lat="40.93664" lon="16.32125"><ele>645.25</ele><time>2026-05-03T12:04:48.561Z</time></trkpt><trkpt lat="40.93677" lon="16.3211483"><ele>645.5</ele><time>2026-05-03T12:04:49.561Z</time></trkpt><trkpt lat="40.9369" lon="16.3210533"><ele>645.75</ele><time>2026-05-03T12:04:50.561Z</time></trkpt><trkpt lat="40.9370183" lon="16.3209417"><ele>646.0</ele><time>2026-05-03T12:04:51.561Z</time></trkpt><trkpt lat="40.9371267" lon="16.3208033"><ele>646.0</ele><time>2026-05-03T12:04:52.561Z</time></trkpt><trkpt lat="40.937245" lon="16.3206633"><ele>646.0</ele><time>2026-05-03T12:04:53.561Z</time></trkpt><trkpt lat="40.9373683" lon="16.3205217"><ele>646.0</ele><time>2026-05-03T12:04:54.561Z</time></trkpt><trkpt lat="40.9374983" lon="16.320385"><ele>645.6666666666667</ele><time>2026-05-03T12:04:55.562Z</time></trkpt><trkpt lat="40.9376283" lon="16.3202517"><ele>645.3333333333334</ele><time>2026-05-03T12:04:56.562Z</time></trkpt><trkpt lat="40.937745" lon="16.3201117"><ele>645.0</ele><time>2026-05-03T12:04:57.561Z</time></trkpt><trkpt lat="40.9378717" lon="16.3199733"><ele>645.0</ele><time>2026-05-03T12:04:58.562Z</time></trkpt><trkpt lat="40.9379833" lon="16.3198483"><ele>645.0</ele><time>2026-05-03T12:04:59.561Z</time></trkpt><trkpt lat="40.9380833" lon="16.3197217"><ele>645.0</ele><time>2026-05-03T12:05:00.561Z</time></trkpt><trkpt lat="40.938175" lon="16.3196083"><ele>645.0</ele><time>2026-05-03T12:05:01.561Z</time></trkpt><trkpt lat="40.9382717" lon="16.319485"><ele>645.25</ele><time>2026-05-03T12:05:02.561Z</time></trkpt><trkpt lat="40.9383767" lon="16.319355"><ele>645.5</ele><time>2026-05-03T12:05:03.561Z</time></trkpt><trkpt lat="40.938475" lon="16.3192133"><ele>645.75</ele><time>2026-05-03T12:05:04.561Z</time></trkpt><trkpt lat="40.93857" lon="16.3190533"><ele>646.0</ele><time>2026-05-03T12:05:05.562Z</time></trkpt><trkpt lat="40.9386667" lon="16.31888"><ele>647.3333333333334</ele><time>2026-05-03T12:05:06.562Z</time></trkpt><trkpt lat="40.93877" lon="16.3187033"><ele>648.6666666666666</ele><time>2026-05-03T12:05:07.562Z</time></trkpt><trkpt lat="40.9388683" lon="16.3185133"><ele>650.0</ele><time>2026-05-03T12:05:08.562Z</time></trkpt><trkpt lat="40.93897" lon="16.3183167"><ele>650.0</ele><time>2026-05-03T12:05:09.562Z</time></trkpt><trkpt lat="40.9390667" lon="16.3181367"><ele>650.0</ele><time>2026-05-03T12:05:10.561Z</time></trkpt><trkpt lat="40.9391517" lon="16.3179783"><ele>650.0</ele><time>2026-05-03T12:05:11.561Z</time></trkpt><trkpt lat="40.939235" lon="16.317845"><ele>650.0</ele><time>2026-05-03T12:05:12.562Z</time></trkpt><trkpt lat="40.93932" lon="16.31774"><ele>650.25</ele><time>2026-05-03T12:05:13.561Z</time></trkpt><trkpt lat="40.9394183" lon="16.31766"><ele>650.5</ele><time>2026-05-03T12:05:14.561Z</time></trkpt><trkpt lat="40.9395333" lon="16.3175883"><ele>650.75</ele><time>2026-05-03T12:05:15.562Z</time></trkpt><trkpt lat="40.9396683" lon="16.3175333"><ele>651.0</ele><time>2026-05-03T12:05:16.561Z</time></trkpt><trkpt lat="40.9398067" lon="16.31747"><ele>651.0</ele><time>2026-05-03T12:05:17.561Z</time></trkpt><trkpt lat="40.939955" lon="16.3173933"><ele>651.0</ele><time>2026-05-03T12:05:18.561Z</time></trkpt><trkpt lat="40.9401" lon="16.3173183"><ele>651.0</ele><time>2026-05-03T12:05:19.561Z</time></trkpt><trkpt lat="40.94024" lon="16.3172417"><ele>650.6666666666666</ele><time>2026-05-03T12:05:20.561Z</time></trkpt><trkpt lat="40.9403883" lon="16.3171833"><ele>650.3333333333333</ele><time>2026-05-03T12:05:21.562Z</time></trkpt><trkpt lat="40.940545" lon="16.3171217"><ele>650.0</ele><time>2026-05-03T12:05:22.562Z</time></trkpt><trkpt lat="40.9407033" lon="16.3170583"><ele>650.0</ele><time>2026-05-03T12:05:23.561Z</time></trkpt><trkpt lat="40.94087" lon="16.3169967"><ele>650.0</ele><time>2026-05-03T12:05:24.562Z</time></trkpt><trkpt lat="40.94103" lon="16.316925"><ele>650.0</ele><time>2026-05-03T12:05:25.561Z</time></trkpt><trkpt lat="40.941175" lon="16.3168617"><ele>650.0</ele><time>2026-05-03T12:05:26.561Z</time></trkpt><trkpt lat="40.94131" lon="16.3168"><ele>650.0</ele><time>2026-05-03T12:05:27.562Z</time></trkpt><trkpt lat="40.9414433" lon="16.3167417"><ele>650.0</ele><time>2026-05-03T12:05:28.561Z</time></trkpt><trkpt lat="40.9415783" lon="16.31668"><ele>650.0</ele><time>2026-05-03T12:05:29.561Z</time></trkpt><trkpt lat="40.9417133" lon="16.3166133"><ele>650.0</ele><time>2026-05-03T12:05:30.561Z</time></trkpt><trkpt lat="40.9418483" lon="16.3165633"><ele>650.0</ele><time>2026-05-03T12:05:31.561Z</time></trkpt><trkpt lat="40.941985" lon="16.3165217"><ele>650.0</ele><time>2026-05-03T12:05:32.561Z</time></trkpt><trkpt lat="40.9421117" lon="16.31648"><ele>650.0</ele><time>2026-05-03T12:05:33.562Z</time></trkpt><trkpt lat="40.94223" lon="16.3164333"><ele>650.0</ele><time>2026-05-03T12:05:34.561Z</time></trkpt><trkpt lat="40.9423433" lon="16.3163917"><ele>650.0</ele><time>2026-05-03T12:05:35.561Z</time></trkpt><trkpt lat="40.9424467" lon="16.31634"><ele>650.0</ele><time>2026-05-03T12:05:36.561Z</time></trkpt><trkpt lat="40.9425333" lon="16.3162567"><ele>650.0</ele><time>2026-05-03T12:05:37.561Z</time></trkpt><trkpt lat="40.9426083" lon="16.3161533"><ele>650.0</ele><time>2026-05-03T12:05:38.561Z</time></trkpt><trkpt lat="40.9426617" lon="16.316025"><ele>649.75</ele><time>2026-05-03T12:05:39.563Z</time></trkpt><trkpt lat="40.942695" lon="16.31588"><ele>649.5</ele><time>2026-05-03T12:05:40.562Z</time></trkpt><trkpt lat="40.9427133" lon="16.31572"><ele>649.25</ele><time>2026-05-03T12:05:41.563Z</time></trkpt><trkpt lat="40.9427233" lon="16.31554"><ele>649.0</ele><time>2026-05-03T12:05:42.562Z</time></trkpt><trkpt lat="40.9427283" lon="16.3153467"><ele>648.6666666666667</ele><time>2026-05-03T12:05:43.562Z</time></trkpt><trkpt lat="40.9427333" lon="16.315145"><ele>648.3333333333334</ele><time>2026-05-03T12:05:44.563Z</time></trkpt><trkpt lat="40.9427483" lon="16.314935"><ele>648.0</ele><time>2026-05-03T12:05:45.562Z</time></trkpt><trkpt lat="40.942765" lon="16.3147283"><ele>647.0</ele><time>2026-05-03T12:05:46.562Z</time></trkpt><trkpt lat="40.942775" lon="16.314515"><ele>646.0</ele><time>2026-05-03T12:05:47.562Z</time></trkpt><trkpt lat="40.94277" lon="16.3142933"><ele>645.0</ele><time>2026-05-03T12:05:48.562Z</time></trkpt><trkpt lat="40.9427633" lon="16.3140633"><ele>644.0</ele><time>2026-05-03T12:05:49.562Z</time></trkpt><trkpt lat="40.9427467" lon="16.3138233"><ele>643.0</ele><time>2026-05-03T12:05:50.562Z</time></trkpt><trkpt lat="40.9427217" lon="16.313605"><ele>642.0</ele><time>2026-05-03T12:05:51.563Z</time></trkpt><trkpt lat="40.9426867" lon="16.3134033"><ele>642.0</ele><time>2026-05-03T12:05:52.563Z</time></trkpt><trkpt lat="40.9426483" lon="16.3132233"><ele>642.0</ele><time>2026-05-03T12:05:53.563Z</time></trkpt><trkpt lat="40.9426067" lon="16.313045"><ele>642.0</ele><time>2026-05-03T12:05:54.562Z</time></trkpt><trkpt lat="40.942565" lon="16.3128633"><ele>642.0</ele><time>2026-05-03T12:05:55.563Z</time></trkpt><trkpt lat="40.942515" lon="16.3126767"><ele>641.25</ele><time>2026-05-03T12:05:56.562Z</time></trkpt><trkpt lat="40.9424667" lon="16.312485"><ele>640.5</ele><time>2026-05-03T12:05:57.563Z</time></trkpt><trkpt lat="40.9424167" lon="16.31231"><ele>639.75</ele><time>2026-05-03T12:05:58.562Z</time></trkpt><trkpt lat="40.9423717" lon="16.3121483"><ele>639.0</ele><time>2026-05-03T12:05:59.563Z</time></trkpt><trkpt lat="40.9423317" lon="16.3120017"><ele>638.25</ele><time>2026-05-03T12:06:00.563Z</time></trkpt><trkpt lat="40.9422917" lon="16.3118533"><ele>637.5</ele><time>2026-05-03T12:06:01.562Z</time></trkpt><trkpt lat="40.9422517" lon="16.311695"><ele>636.75</ele><time>2026-05-03T12:06:02.563Z</time></trkpt><trkpt lat="40.942205" lon="16.311525"><ele>636.0</ele><time>2026-05-03T12:06:03.562Z</time></trkpt><trkpt lat="40.9421617" lon="16.3113533"><ele>635.0</ele><time>2026-05-03T12:06:04.562Z</time></trkpt><trkpt lat="40.9421217" lon="16.311195"><ele>634.0</ele><time>2026-05-03T12:06:05.562Z</time></trkpt><trkpt lat="40.9420817" lon="16.3110467"><ele>633.0</ele><time>2026-05-03T12:06:06.563Z</time></trkpt><trkpt lat="40.94205" lon="16.310915"><ele>632.0</ele><time>2026-05-03T12:06:07.562Z</time></trkpt><trkpt lat="40.94202" lon="16.3107867"><ele>632.0000000000001</ele><time>2026-05-03T12:06:08.563Z</time></trkpt><trkpt lat="40.9419867" lon="16.3106783"><ele>632.0</ele><time>2026-05-03T12:06:09.562Z</time></trkpt><trkpt lat="40.9419583" lon="16.31058"><ele>632.0</ele><time>2026-05-03T12:06:10.562Z</time></trkpt><trkpt lat="40.9419317" lon="16.3104933"><ele>632.0</ele><time>2026-05-03T12:06:11.563Z</time></trkpt><trkpt lat="40.94191" lon="16.3104133"><ele>632.0</ele><time>2026-05-03T12:06:12.562Z</time></trkpt><trkpt lat="40.94189" lon="16.3103333"><ele>632.0000000000001</ele><time>2026-05-03T12:06:13.562Z</time></trkpt><trkpt lat="40.94187" lon="16.3102483"><ele>632.0</ele><time>2026-05-03T12:06:14.563Z</time></trkpt><trkpt lat="40.9418467" lon="16.310155"><ele>632.1666666666666</ele><time>2026-05-03T12:06:15.562Z</time></trkpt><trkpt lat="40.9418233" lon="16.3100567"><ele>632.3333333333333</ele><time>2026-05-03T12:06:16.562Z</time></trkpt><trkpt lat="40.9417933" lon="16.3099517"><ele>632.5</ele><time>2026-05-03T12:06:17.562Z</time></trkpt><trkpt lat="40.9417617" lon="16.3098467"><ele>632.6666666666666</ele><time>2026-05-03T12:06:18.562Z</time></trkpt><trkpt lat="40.9417333" lon="16.3097517"><ele>632.8333333333334</ele><time>2026-05-03T12:06:19.563Z</time></trkpt><trkpt lat="40.9417067" lon="16.3096667"><ele>633.0</ele><time>2026-05-03T12:06:20.563Z</time></trkpt><trkpt lat="40.94168" lon="16.3095883"><ele>633.0</ele><time>2026-05-03T12:06:21.562Z</time></trkpt><trkpt lat="40.9416583" lon="16.309445"><ele>633.0</ele><time>2026-05-03T12:06:23.562Z</time></trkpt><trkpt lat="40.94169" lon="16.3092967"><ele>633.0</ele><time>2026-05-03T12:06:25.562Z</time></trkpt><trkpt lat="40.9417283" lon="16.3091967"><ele>633.0</ele><time>2026-05-03T12:06:26.563Z</time></trkpt><trkpt lat="40.9417683" lon="16.30909"><ele>633.0</ele><time>2026-05-03T12:06:27.562Z</time></trkpt><trkpt lat="40.941805" lon="16.3089733"><ele>632.1666666666666</ele><time>2026-05-03T12:06:28.563Z</time></trkpt><trkpt lat="40.941835" lon="16.3088633"><ele>631.3333333333334</ele><time>2026-05-03T12:06:29.562Z</time></trkpt><trkpt lat="40.9418767" lon="16.30877"><ele>630.5</ele><time>2026-05-03T12:06:30.563Z</time></trkpt><trkpt lat="40.9419333" lon="16.3086733"><ele>629.6666666666667</ele><time>2026-05-03T12:06:31.562Z</time></trkpt><trkpt lat="40.9419917" lon="16.3085967"><ele>628.8333333333334</ele><time>2026-05-03T12:06:32.563Z</time></trkpt><trkpt lat="40.94205" lon="16.3085233"><ele>628.0</ele><time>2026-05-03T12:06:33.562Z</time></trkpt><trkpt lat="40.9421033" lon="16.3084567"><ele>628.0</ele><time>2026-05-03T12:06:34.562Z</time></trkpt><trkpt lat="40.9421417" lon="16.308335"><ele>628.0</ele><time>2026-05-03T12:06:36.563Z</time></trkpt><trkpt lat="40.9420867" lon="16.3081883"><ele>628.0</ele><time>2026-05-03T12:06:38.562Z</time></trkpt><trkpt lat="40.9420283" lon="16.30813"><ele>628.0</ele><time>2026-05-03T12:06:39.562Z</time></trkpt><trkpt lat="40.9419617" lon="16.308055"><ele>628.0</ele><time>2026-05-03T12:06:40.563Z</time></trkpt><trkpt lat="40.9418783" lon="16.3079617"><ele>628.0</ele><time>2026-05-03T12:06:41.563Z</time></trkpt><trkpt lat="40.941795" lon="16.3078567"><ele>628.0</ele><time>2026-05-03T12:06:42.562Z</time></trkpt><trkpt lat="40.9417083" lon="16.30774"><ele>628.0</ele><time>2026-05-03T12:06:43.562Z</time></trkpt><trkpt lat="40.941625" lon="16.3076167"><ele>628.0</ele><time>2026-05-03T12:06:44.562Z</time></trkpt><trkpt lat="40.9415433" lon="16.3074983"><ele>628.0</ele><time>2026-05-03T12:06:45.563Z</time></trkpt><trkpt lat="40.9414667" lon="16.3073983"><ele>628.0</ele><time>2026-05-03T12:06:46.562Z</time></trkpt><trkpt lat="40.941395" lon="16.3073033"><ele>628.0</ele><time>2026-05-03T12:06:47.562Z</time></trkpt><trkpt lat="40.94134" lon="16.3072217"><ele>628.0</ele><time>2026-05-03T12:06:48.563Z</time></trkpt><trkpt lat="40.9412983" lon="16.3071283"><ele>628.0</ele><time>2026-05-03T12:06:49.562Z</time></trkpt><trkpt lat="40.9412717" lon="16.3070167"><ele>627.0</ele><time>2026-05-03T12:06:50.562Z</time></trkpt><trkpt lat="40.94125" lon="16.3068917"><ele>626.0</ele><time>2026-05-03T12:06:51.562Z</time></trkpt><trkpt lat="40.94123" lon="16.3067467"><ele>625.0</ele><time>2026-05-03T12:06:52.562Z</time></trkpt><trkpt lat="40.941205" lon="16.30658"><ele>624.0</ele><time>2026-05-03T12:06:53.562Z</time></trkpt><trkpt lat="40.9411833" lon="16.3064183"><ele>623.0</ele><time>2026-05-03T12:06:54.562Z</time></trkpt><trkpt lat="40.9411567" lon="16.3062617"><ele>622.0</ele><time>2026-05-03T12:06:55.562Z</time></trkpt><trkpt lat="40.941125" lon="16.3061017"><ele>621.0</ele><time>2026-05-03T12:06:56.562Z</time></trkpt><trkpt lat="40.9410967" lon="16.3059467"><ele>620.0</ele><time>2026-05-03T12:06:57.562Z</time></trkpt><trkpt lat="40.9410667" lon="16.3057933"><ele>620.0</ele><time>2026-05-03T12:06:58.563Z</time></trkpt><trkpt lat="40.9410417" lon="16.3056467"><ele>620.0</ele><time>2026-05-03T12:06:59.563Z</time></trkpt><trkpt lat="40.941015" lon="16.305515"><ele>620.0</ele><time>2026-05-03T12:07:00.563Z</time></trkpt><trkpt lat="40.94099" lon="16.3053817"><ele>620.0</ele><time>2026-05-03T12:07:01.563Z</time></trkpt><trkpt lat="40.940965" lon="16.3052567"><ele>620.0</ele><time>2026-05-03T12:07:02.562Z</time></trkpt><trkpt lat="40.9409467" lon="16.30513"><ele>620.0</ele><time>2026-05-03T12:07:03.563Z</time></trkpt><trkpt lat="40.94093" lon="16.305015"><ele>620.0</ele><time>2026-05-03T12:07:04.562Z</time></trkpt><trkpt lat="40.9409133" lon="16.3049083"><ele>620.0</ele><time>2026-05-03T12:07:05.562Z</time></trkpt><trkpt lat="40.940905" lon="16.3048083"><ele>620.0</ele><time>2026-05-03T12:07:06.562Z</time></trkpt><trkpt lat="40.9409017" lon="16.3047117"><ele>620.0</ele><time>2026-05-03T12:07:07.562Z</time></trkpt><trkpt lat="40.9408917" lon="16.3046233"><ele>620.0</ele><time>2026-05-03T12:07:08.562Z</time></trkpt><trkpt lat="40.94086" lon="16.3044717"><ele>620.0</ele><time>2026-05-03T12:07:10.562Z</time></trkpt><trkpt lat="40.9408283" lon="16.3043783"><ele>620.0</ele><time>2026-05-03T12:07:11.563Z</time></trkpt><trkpt lat="40.9408017" lon="16.3042733"><ele>620.0</ele><time>2026-05-03T12:07:12.563Z</time></trkpt><trkpt lat="40.9407817" lon="16.3041533"><ele>620.0</ele><time>2026-05-03T12:07:13.562Z</time></trkpt><trkpt lat="40.9407633" lon="16.30402"><ele>620.0</ele><time>2026-05-03T12:07:14.562Z</time></trkpt><trkpt lat="40.9407467" lon="16.30389"><ele>620.0</ele><time>2026-05-03T12:07:15.562Z</time></trkpt><trkpt lat="40.9407183" lon="16.3037417"><ele>620.0</ele><time>2026-05-03T12:07:16.562Z</time></trkpt><trkpt lat="40.940695" lon="16.3035967"><ele>620.0</ele><time>2026-05-03T12:07:17.562Z</time></trkpt><trkpt lat="40.9406667" lon="16.3034583"><ele>620.0</ele><time>2026-05-03T12:07:18.562Z</time></trkpt><trkpt lat="40.9406367" lon="16.303345"><ele>620.0</ele><time>2026-05-03T12:07:19.563Z</time></trkpt><trkpt lat="40.9405967" lon="16.3032533"><ele>620.0</ele><time>2026-05-03T12:07:20.563Z</time></trkpt><trkpt lat="40.94054" lon="16.3031733"><ele>620.0</ele><time>2026-05-03T12:07:21.562Z</time></trkpt><trkpt lat="40.940465" lon="16.3031133"><ele>620.0</ele><time>2026-05-03T12:07:22.562Z</time></trkpt><trkpt lat="40.9403917" lon="16.30309"><ele>620.0</ele><time>2026-05-03T12:07:23.562Z</time></trkpt><trkpt lat="40.940315" lon="16.3030817"><ele>620.0</ele><time>2026-05-03T12:07:24.563Z</time></trkpt><trkpt lat="40.94023" lon="16.3030817"><ele>620.0</ele><time>2026-05-03T12:07:25.563Z</time></trkpt><trkpt lat="40.9401333" lon="16.3031"><ele>620.0</ele><time>2026-05-03T12:07:26.563Z</time></trkpt><trkpt lat="40.9400433" lon="16.303115"><ele>620.0</ele><time>2026-05-03T12:07:27.563Z</time></trkpt><trkpt lat="40.9399583" lon="16.3031167"><ele>620.0</ele><time>2026-05-03T12:07:28.563Z</time></trkpt><trkpt lat="40.939885" lon="16.3031017"><ele>620.0</ele><time>2026-05-03T12:07:29.563Z</time></trkpt><trkpt lat="40.9398133" lon="16.3030767"><ele>620.0</ele><time>2026-05-03T12:07:30.562Z</time></trkpt><trkpt lat="40.9397117" lon="16.3029883"><ele>620.0</ele><time>2026-05-03T12:07:32.563Z</time></trkpt><trkpt lat="40.939665" lon="16.302925"><ele>619.5</ele><time>2026-05-03T12:07:33.563Z</time></trkpt><trkpt lat="40.9396267" lon="16.3028583"><ele>619.0</ele><time>2026-05-03T12:07:34.562Z</time></trkpt><trkpt lat="40.939585" lon="16.302785"><ele>618.5</ele><time>2026-05-03T12:07:35.563Z</time></trkpt><trkpt lat="40.9395" lon="16.302665"><ele>618.0</ele><time>2026-05-03T12:07:37.562Z</time></trkpt><trkpt lat="40.93945" lon="16.3026083"><ele>617.5</ele><time>2026-05-03T12:07:38.562Z</time></trkpt><trkpt lat="40.9393983" lon="16.3025483"><ele>617.0</ele><time>2026-05-03T12:07:39.562Z</time></trkpt><trkpt lat="40.9393467" lon="16.3024867"><ele>617.0</ele><time>2026-05-03T12:07:40.562Z</time></trkpt><trkpt lat="40.9392967" lon="16.3024183"><ele>617.0</ele><time>2026-05-03T12:07:41.562Z</time></trkpt><trkpt lat="40.9392517" lon="16.3023467"><ele>617.0</ele><time>2026-05-03T12:07:42.562Z</time></trkpt><trkpt lat="40.9392033" lon="16.302275"><ele>617.0</ele><time>2026-05-03T12:07:43.562Z</time></trkpt><trkpt lat="40.9391367" lon="16.3021317"><ele>617.0</ele><time>2026-05-03T12:07:45.562Z</time></trkpt><trkpt lat="40.9390933" lon="16.3020567"><ele>617.0</ele><time>2026-05-03T12:07:46.562Z</time></trkpt><trkpt lat="40.9390517" lon="16.3019767"><ele>614.6666666666666</ele><time>2026-05-03T12:07:47.563Z</time></trkpt><trkpt lat="40.9390083" lon="16.30189"><ele>612.3333333333333</ele><time>2026-05-03T12:07:48.563Z</time></trkpt><trkpt lat="40.9389683" lon="16.3018083"><ele>610.0</ele><time>2026-05-03T12:07:49.563Z</time></trkpt><trkpt lat="40.93892" lon="16.3017283"><ele>607.6666666666666</ele><time>2026-05-03T12:07:50.562Z</time></trkpt><trkpt lat="40.9388767" lon="16.3016567"><ele>605.3333333333334</ele><time>2026-05-03T12:07:51.563Z</time></trkpt><trkpt lat="40.938835" lon="16.30159"><ele>603.0</ele><time>2026-05-03T12:07:52.562Z</time></trkpt><trkpt lat="40.9387567" lon="16.3014833"><ele>600.5</ele><time>2026-05-03T12:07:54.562Z</time></trkpt><trkpt lat="40.93866" lon="16.3014083"><ele>598.0</ele><time>2026-05-03T12:07:56.563Z</time></trkpt><trkpt lat="40.9385467" lon="16.3013783"><ele>595.5</ele><time>2026-05-03T12:07:58.562Z</time></trkpt><trkpt lat="40.9384233" lon="16.3013667"><ele>593.0</ele><time>2026-05-03T12:08:00.562Z</time></trkpt><trkpt lat="40.9383233" lon="16.3013583"><ele>590.8333333333333</ele><time>2026-05-03T12:08:02.562Z</time></trkpt><trkpt lat="40.9382367" lon="16.3013567"><ele>588.6666666666666</ele><time>2026-05-03T12:08:04.562Z</time></trkpt><trkpt lat="40.9381533" lon="16.30136"><ele>586.5</ele><time>2026-05-03T12:08:06.562Z</time></trkpt><trkpt lat="40.9380667" lon="16.301345"><ele>584.3333333333334</ele><time>2026-05-03T12:08:08.562Z</time></trkpt><trkpt lat="40.9380033" lon="16.3012733"><ele>582.1666666666667</ele><time>2026-05-03T12:08:10.562Z</time></trkpt><trkpt lat="40.937965" lon="16.3011617"><ele>580.0</ele><time>2026-05-03T12:08:12.562Z</time></trkpt><trkpt lat="40.9379183" lon="16.30104"><ele>580.0</ele><time>2026-05-03T12:08:14.563Z</time></trkpt><trkpt lat="40.9378717" lon="16.30091"><ele>580.0</ele><time>2026-05-03T12:08:16.562Z</time></trkpt><trkpt lat="40.9378117" lon="16.30077"><ele>580.0</ele><time>2026-05-03T12:08:18.562Z</time></trkpt><trkpt lat="40.937765" lon="16.3006833"><ele>580.0</ele><time>2026-05-03T12:08:19.562Z</time></trkpt><trkpt lat="40.9377117" lon="16.3006033"><ele>580.0</ele><time>2026-05-03T12:08:20.563Z</time></trkpt><trkpt lat="40.937655" lon="16.3005217"><ele>578.8571428571429</ele><time>2026-05-03T12:08:21.562Z</time></trkpt><trkpt lat="40.937605" lon="16.3004383"><ele>577.7142857142858</ele><time>2026-05-03T12:08:22.562Z</time></trkpt><trkpt lat="40.9375517" lon="16.3003583"><ele>576.5714285714286</ele><time>2026-05-03T12:08:23.562Z</time></trkpt><trkpt lat="40.9374983" lon="16.300285"><ele>575.4285714285714</ele><time>2026-05-03T12:08:24.562Z</time></trkpt><trkpt lat="40.9374583" lon="16.3002183"><ele>574.2857142857142</ele><time>2026-05-03T12:08:25.562Z</time></trkpt><trkpt lat="40.9374183" lon="16.3001467"><ele>573.1428571428571</ele><time>2026-05-03T12:08:26.562Z</time></trkpt><trkpt lat="40.9373767" lon="16.3000733"><ele>572.0</ele><time>2026-05-03T12:08:27.563Z</time></trkpt><trkpt lat="40.937345" lon="16.2999883"><ele>571.2857142857142</ele><time>2026-05-03T12:08:28.563Z</time></trkpt><trkpt lat="40.937315" lon="16.2999083"><ele>570.5714285714286</ele><time>2026-05-03T12:08:29.562Z</time></trkpt><trkpt lat="40.9372817" lon="16.2998267"><ele>569.8571428571429</ele><time>2026-05-03T12:08:30.562Z</time></trkpt><trkpt lat="40.937255" lon="16.2997467"><ele>569.1428571428571</ele><time>2026-05-03T12:08:31.562Z</time></trkpt><trkpt lat="40.93723" lon="16.299655"><ele>568.4285714285714</ele><time>2026-05-03T12:08:32.562Z</time></trkpt><trkpt lat="40.937215" lon="16.2995633"><ele>567.7142857142857</ele><time>2026-05-03T12:08:33.562Z</time></trkpt><trkpt lat="40.93721" lon="16.2994733"><ele>567.0</ele><time>2026-05-03T12:08:34.562Z</time></trkpt><trkpt lat="40.9372183" lon="16.2993117"><ele>565.3333333333334</ele><time>2026-05-03T12:08:36.562Z</time></trkpt><trkpt lat="40.93722" lon="16.2992283"><ele>563.6666666666666</ele><time>2026-05-03T12:08:37.563Z</time></trkpt><trkpt lat="40.9372033" lon="16.2990833"><ele>562.0</ele><time>2026-05-03T12:08:39.562Z</time></trkpt><trkpt lat="40.937145" lon="16.2989917"><ele>560.3333333333333</ele><time>2026-05-03T12:08:41.562Z</time></trkpt><trkpt lat="40.937115" lon="16.2989117"><ele>558.6666666666666</ele><time>2026-05-03T12:08:43.562Z</time></trkpt><trkpt lat="40.937165" lon="16.2988067"><ele>557.0</ele><time>2026-05-03T12:08:46.562Z</time></trkpt><trkpt lat="40.93723" lon="16.2987133"><ele>556.4</ele><time>2026-05-03T12:08:48.562Z</time></trkpt><trkpt lat="40.9373083" lon="16.2986267"><ele>555.8000000000001</ele><time>2026-05-03T12:08:50.562Z</time></trkpt><trkpt lat="40.9374017" lon="16.298565"><ele>555.2</ele><time>2026-05-03T12:08:52.562Z</time></trkpt><trkpt lat="40.93749" lon="16.2984833"><ele>554.6</ele><time>2026-05-03T12:08:54.562Z</time></trkpt><trkpt lat="40.93755" lon="16.29837"><ele>554.0</ele><time>2026-05-03T12:08:56.562Z</time></trkpt><trkpt lat="40.9375817" lon="16.29821"><ele>554.5714285714286</ele><time>2026-05-03T12:08:58.562Z</time></trkpt><trkpt lat="40.9375933" lon="16.2981267"><ele>555.1428571428571</ele><time>2026-05-03T12:08:59.563Z</time></trkpt><trkpt lat="40.9376167" lon="16.298045"><ele>555.7142857142857</ele><time>2026-05-03T12:09:00.563Z</time></trkpt><trkpt lat="40.9376317" lon="16.2979583"><ele>556.2857142857142</ele><time>2026-05-03T12:09:01.562Z</time></trkpt><trkpt lat="40.9376517" lon="16.297865"><ele>556.8571428571429</ele><time>2026-05-03T12:09:02.562Z</time></trkpt><trkpt lat="40.9376783" lon="16.29776"><ele>557.4285714285713</ele><time>2026-05-03T12:09:03.563Z</time></trkpt><trkpt lat="40.9377117" lon="16.2976583"><ele>558.0</ele><time>2026-05-03T12:09:04.563Z</time></trkpt><trkpt lat="40.9377583" lon="16.2975583"><ele>558.0</ele><time>2026-05-03T12:09:05.563Z</time></trkpt><trkpt lat="40.9378083" lon="16.2974533"><ele>558.0</ele><time>2026-05-03T12:09:06.562Z</time></trkpt><trkpt lat="40.937855" lon="16.29735"><ele>558.0</ele><time>2026-05-03T12:09:07.562Z</time></trkpt><trkpt lat="40.9378933" lon="16.2972433"><ele>558.0</ele><time>2026-05-03T12:09:08.562Z</time></trkpt><trkpt lat="40.937935" lon="16.2971383"><ele>558.0</ele><time>2026-05-03T12:09:09.562Z</time></trkpt><trkpt lat="40.9379767" lon="16.297035"><ele>555.4</ele><time>2026-05-03T12:09:10.562Z</time></trkpt><trkpt lat="40.9380233" lon="16.2969233"><ele>552.8</ele><time>2026-05-03T12:09:11.562Z</time></trkpt><trkpt lat="40.9380667" lon="16.2968067"><ele>550.2</ele><time>2026-05-03T12:09:12.563Z</time></trkpt><trkpt lat="40.9381033" lon="16.29668"><ele>547.6</ele><time>2026-05-03T12:09:13.562Z</time></trkpt><trkpt lat="40.93814" lon="16.296555"><ele>545.0</ele><time>2026-05-03T12:09:14.563Z</time></trkpt><trkpt lat="40.9381733" lon="16.2964367"><ele>543.4</ele><time>2026-05-03T12:09:15.562Z</time></trkpt><trkpt lat="40.938205" lon="16.2963083"><ele>541.8</ele><time>2026-05-03T12:09:16.562Z</time></trkpt><trkpt lat="40.938235" lon="16.29619"><ele>540.2</ele><time>2026-05-03T12:09:17.562Z</time></trkpt><trkpt lat="40.938275" lon="16.29608"><ele>538.6</ele><time>2026-05-03T12:09:18.562Z</time></trkpt><trkpt lat="40.93832" lon="16.2959683"><ele>537.0</ele><time>2026-05-03T12:09:19.562Z</time></trkpt><trkpt lat="40.938375" lon="16.29585"><ele>537.2</ele><time>2026-05-03T12:09:20.562Z</time></trkpt><trkpt lat="40.9384283" lon="16.2957417"><ele>537.4000000000001</ele><time>2026-05-03T12:09:21.562Z</time></trkpt><trkpt lat="40.9384717" lon="16.2956367"><ele>537.5999999999999</ele><time>2026-05-03T12:09:22.562Z</time></trkpt><trkpt lat="40.9385133" lon="16.295515"><ele>537.8</ele><time>2026-05-03T12:09:23.563Z</time></trkpt><trkpt lat="40.9385533" lon="16.2953833"><ele>538.0</ele><time>2026-05-03T12:09:24.562Z</time></trkpt><trkpt lat="40.9386033" lon="16.2952433"><ele>538.0</ele><time>2026-05-03T12:09:25.563Z</time></trkpt><trkpt lat="40.93865" lon="16.2951083"><ele>538.0</ele><time>2026-05-03T12:09:26.563Z</time></trkpt><trkpt lat="40.9386883" lon="16.2949917"><ele>538.0</ele><time>2026-05-03T12:09:27.562Z</time></trkpt><trkpt lat="40.93872" lon="16.2948817"><ele>538.0</ele><time>2026-05-03T12:09:28.563Z</time></trkpt><trkpt lat="40.9387533" lon="16.2947783"><ele>538.0</ele><time>2026-05-03T12:09:29.563Z</time></trkpt><trkpt lat="40.9387917" lon="16.29466"><ele>536.1666666666667</ele><time>2026-05-03T12:09:30.562Z</time></trkpt><trkpt lat="40.9388317" lon="16.2945433"><ele>534.3333333333334</ele><time>2026-05-03T12:09:31.562Z</time></trkpt><trkpt lat="40.9388767" lon="16.2944333"><ele>532.5</ele><time>2026-05-03T12:09:32.563Z</time></trkpt><trkpt lat="40.9389233" lon="16.2943317"><ele>530.6666666666666</ele><time>2026-05-03T12:09:33.563Z</time></trkpt><trkpt lat="40.9389733" lon="16.294245"><ele>528.8333333333333</ele><time>2026-05-03T12:09:34.562Z</time></trkpt><trkpt lat="40.9390267" lon="16.294165"><ele>527.0</ele><time>2026-05-03T12:09:35.562Z</time></trkpt><trkpt lat="40.939085" lon="16.29407"><ele>527.0</ele><time>2026-05-03T12:09:36.562Z</time></trkpt><trkpt lat="40.93914" lon="16.2939833"><ele>527.0</ele><time>2026-05-03T12:09:37.563Z</time></trkpt><trkpt lat="40.93919" lon="16.2939"><ele>527.0</ele><time>2026-05-03T12:09:38.562Z</time></trkpt><trkpt lat="40.9392433" lon="16.2938217"><ele>527.0</ele><time>2026-05-03T12:09:39.563Z</time></trkpt><trkpt lat="40.9392783" lon="16.29375"><ele>527.0</ele><time>2026-05-03T12:09:40.563Z</time></trkpt><trkpt lat="40.9393117" lon="16.293675"><ele>527.0</ele><time>2026-05-03T12:09:41.563Z</time></trkpt><trkpt lat="40.93935" lon="16.2935367"><ele>525.8333333333333</ele><time>2026-05-03T12:09:43.562Z</time></trkpt><trkpt lat="40.9393433" lon="16.2933967"><ele>524.6666666666666</ele><time>2026-05-03T12:09:45.563Z</time></trkpt><trkpt lat="40.9393117" lon="16.2933167"><ele>523.5</ele><time>2026-05-03T12:09:46.563Z</time></trkpt><trkpt lat="40.9392933" lon="16.29323"><ele>522.3333333333334</ele><time>2026-05-03T12:09:47.562Z</time></trkpt><trkpt lat="40.9392833" lon="16.2931383"><ele>521.1666666666667</ele><time>2026-05-03T12:09:48.562Z</time></trkpt><trkpt lat="40.939285" lon="16.29304"><ele>520.0</ele><time>2026-05-03T12:09:49.562Z</time></trkpt><trkpt lat="40.939285" lon="16.2929183"><ele>519.8</ele><time>2026-05-03T12:09:50.563Z</time></trkpt><trkpt lat="40.9393017" lon="16.292785"><ele>519.6</ele><time>2026-05-03T12:09:51.562Z</time></trkpt><trkpt lat="40.9393017" lon="16.2926433"><ele>519.4</ele><time>2026-05-03T12:09:52.563Z</time></trkpt><trkpt lat="40.9392833" lon="16.2925117"><ele>519.2</ele><time>2026-05-03T12:09:53.562Z</time></trkpt><trkpt lat="40.939255" lon="16.2923733"><ele>519.0</ele><time>2026-05-03T12:09:54.563Z</time></trkpt><trkpt lat="40.9392217" lon="16.292235"><ele>518.8</ele><time>2026-05-03T12:09:55.562Z</time></trkpt><trkpt lat="40.9391867" lon="16.29209"><ele>518.5999999999999</ele><time>2026-05-03T12:09:56.562Z</time></trkpt><trkpt lat="40.939145" lon="16.29195"><ele>518.4</ele><time>2026-05-03T12:09:57.562Z</time></trkpt><trkpt lat="40.93911" lon="16.29182"><ele>518.1999999999999</ele><time>2026-05-03T12:09:58.562Z</time></trkpt><trkpt lat="40.9390883" lon="16.2916783"><ele>518.0</ele><time>2026-05-03T12:09:59.563Z</time></trkpt><trkpt lat="40.9390767" lon="16.2915283"><ele>516.6</ele><time>2026-05-03T12:10:00.562Z</time></trkpt><trkpt lat="40.939075" lon="16.291385"><ele>515.1999999999999</ele><time>2026-05-03T12:10:01.563Z</time></trkpt><trkpt lat="40.9390767" lon="16.2912383"><ele>513.8</ele><time>2026-05-03T12:10:02.562Z</time></trkpt><trkpt lat="40.9390783" lon="16.2910983"><ele>512.4</ele><time>2026-05-03T12:10:03.562Z</time></trkpt><trkpt lat="40.9390833" lon="16.2909667"><ele>511.0</ele><time>2026-05-03T12:10:04.563Z</time></trkpt><trkpt lat="40.93909" lon="16.2908367"><ele>511.0</ele><time>2026-05-03T12:10:05.563Z</time></trkpt><trkpt lat="40.9390933" lon="16.2907133"><ele>511.0</ele><time>2026-05-03T12:10:06.562Z</time></trkpt><trkpt lat="40.9390967" lon="16.29058"><ele>511.0</ele><time>2026-05-03T12:10:07.562Z</time></trkpt><trkpt lat="40.9390967" lon="16.2904433"><ele>511.0</ele><time>2026-05-03T12:10:08.563Z</time></trkpt><trkpt lat="40.939085" lon="16.2903133"><ele>511.0</ele><time>2026-05-03T12:10:09.562Z</time></trkpt><trkpt lat="40.939085" lon="16.2901917"><ele>510.1666666666667</ele><time>2026-05-03T12:10:10.563Z</time></trkpt><trkpt lat="40.9390833" lon="16.2900917"><ele>509.33333333333337</ele><time>2026-05-03T12:10:11.562Z</time></trkpt><trkpt lat="40.939095" lon="16.2899983"><ele>508.5</ele><time>2026-05-03T12:10:12.562Z</time></trkpt><trkpt lat="40.9391067" lon="16.2899083"><ele>507.66666666666663</ele><time>2026-05-03T12:10:13.563Z</time></trkpt><trkpt lat="40.9391333" lon="16.2897983"><ele>506.8333333333333</ele><time>2026-05-03T12:10:14.562Z</time></trkpt><trkpt lat="40.939165" lon="16.2896867"><ele>506.0</ele><time>2026-05-03T12:10:15.562Z</time></trkpt><trkpt lat="40.9391833" lon="16.2895633"><ele>506.0</ele><time>2026-05-03T12:10:16.562Z</time></trkpt><trkpt lat="40.9391917" lon="16.2894283"><ele>506.0</ele><time>2026-05-03T12:10:17.562Z</time></trkpt><trkpt lat="40.939185" lon="16.2892817"><ele>506.0</ele><time>2026-05-03T12:10:18.563Z</time></trkpt><trkpt lat="40.939175" lon="16.2891367"><ele>506.0</ele><time>2026-05-03T12:10:19.563Z</time></trkpt><trkpt lat="40.9391533" lon="16.288995"><ele>506.0</ele><time>2026-05-03T12:10:20.563Z</time></trkpt><trkpt lat="40.9391267" lon="16.288865"><ele>505.99999999999994</ele><time>2026-05-03T12:10:21.562Z</time></trkpt><trkpt lat="40.9391017" lon="16.2887533"><ele>506.0</ele><time>2026-05-03T12:10:22.562Z</time></trkpt><trkpt lat="40.9390633" lon="16.2886567"><ele>506.0</ele><time>2026-05-03T12:10:23.562Z</time></trkpt><trkpt lat="40.9390167" lon="16.2885933"><ele>506.0</ele><time>2026-05-03T12:10:24.562Z</time></trkpt><trkpt lat="40.9389617" lon="16.28855"><ele>505.99999999999994</ele><time>2026-05-03T12:10:25.563Z</time></trkpt><trkpt lat="40.93888" lon="16.2885317"><ele>506.0</ele><time>2026-05-03T12:10:26.562Z</time></trkpt><trkpt lat="40.9387817" lon="16.2885133"><ele>506.0</ele><time>2026-05-03T12:10:27.563Z</time></trkpt><trkpt lat="40.9386733" lon="16.2884767"><ele>506.0</ele><time>2026-05-03T12:10:28.562Z</time></trkpt><trkpt lat="40.9385517" lon="16.28844"><ele>506.0</ele><time>2026-05-03T12:10:29.562Z</time></trkpt><trkpt lat="40.9384333" lon="16.2884017"><ele>506.0</ele><time>2026-05-03T12:10:30.563Z</time></trkpt><trkpt lat="40.9383167" lon="16.2883633"><ele>503.8</ele><time>2026-05-03T12:10:31.563Z</time></trkpt><trkpt lat="40.9382133" lon="16.2883167"><ele>501.6</ele><time>2026-05-03T12:10:32.562Z</time></trkpt><trkpt lat="40.9381217" lon="16.288245"><ele>499.4</ele><time>2026-05-03T12:10:33.562Z</time></trkpt><trkpt lat="40.938035" lon="16.2881533"><ele>497.2</ele><time>2026-05-03T12:10:34.562Z</time></trkpt><trkpt lat="40.9379417" lon="16.2880483"><ele>495.0</ele><time>2026-05-03T12:10:35.562Z</time></trkpt><trkpt lat="40.93784" lon="16.2879433"><ele>494.5</ele><time>2026-05-03T12:10:36.562Z</time></trkpt><trkpt lat="40.937735" lon="16.2878333"><ele>494.0</ele><time>2026-05-03T12:10:37.562Z</time></trkpt><trkpt lat="40.9376233" lon="16.2877183"><ele>493.5</ele><time>2026-05-03T12:10:38.563Z</time></trkpt><trkpt lat="40.9375083" lon="16.2875933"><ele>493.0</ele><time>2026-05-03T12:10:39.563Z</time></trkpt><trkpt lat="40.9373883" lon="16.2874633"><ele>492.33333333333337</ele><time>2026-05-03T12:10:40.563Z</time></trkpt><trkpt lat="40.9372667" lon="16.2873317"><ele>491.66666666666663</ele><time>2026-05-03T12:10:41.563Z</time></trkpt><trkpt lat="40.9371483" lon="16.2872017"><ele>491.0</ele><time>2026-05-03T12:10:42.562Z</time></trkpt><trkpt lat="40.9370333" lon="16.28708"><ele>490.5</ele><time>2026-05-03T12:10:43.562Z</time></trkpt><trkpt lat="40.9369217" lon="16.2869617"><ele>490.0</ele><time>2026-05-03T12:10:44.562Z</time></trkpt><trkpt lat="40.9368133" lon="16.28685"><ele>489.5</ele><time>2026-05-03T12:10:45.562Z</time></trkpt><trkpt lat="40.9367083" lon="16.28674"><ele>489.0</ele><time>2026-05-03T12:10:46.562Z</time></trkpt><trkpt lat="40.9366033" lon="16.28663"><ele>488.0</ele><time>2026-05-03T12:10:47.563Z</time></trkpt><trkpt lat="40.9364933" lon="16.2865133"><ele>487.0</ele><time>2026-05-03T12:10:48.562Z</time></trkpt><trkpt lat="40.9363833" lon="16.2864033"><ele>486.0</ele><time>2026-05-03T12:10:49.562Z</time></trkpt><trkpt lat="40.936285" lon="16.2862967"><ele>485.0</ele><time>2026-05-03T12:10:50.563Z</time></trkpt><trkpt lat="40.9361883" lon="16.2861967"><ele>484.8333333333333</ele><time>2026-05-03T12:10:51.563Z</time></trkpt><trkpt lat="40.936095" lon="16.2861083"><ele>484.66666666666663</ele><time>2026-05-03T12:10:52.562Z</time></trkpt><trkpt lat="40.93601" lon="16.28604"><ele>484.5</ele><time>2026-05-03T12:10:53.562Z</time></trkpt><trkpt lat="40.93594" lon="16.285975"><ele>484.33333333333337</ele><time>2026-05-03T12:10:54.562Z</time></trkpt><trkpt lat="40.93589" lon="16.285915"><ele>484.1666666666667</ele><time>2026-05-03T12:10:55.563Z</time></trkpt><trkpt lat="40.935845" lon="16.2858517"><ele>484.0</ele><time>2026-05-03T12:10:56.562Z</time></trkpt><trkpt lat="40.9357967" lon="16.2857433"><ele>483.6</ele><time>2026-05-03T12:10:58.562Z</time></trkpt><trkpt lat="40.9357367" lon="16.2856683"><ele>483.2</ele><time>2026-05-03T12:11:21.563Z</time></trkpt><trkpt lat="40.9356233" lon="16.2856017"><ele>482.80000000000007</ele><time>2026-05-03T12:11:23.562Z</time></trkpt><trkpt lat="40.9355483" lon="16.2855383"><ele>482.40000000000003</ele><time>2026-05-03T12:11:24.562Z</time></trkpt><trkpt lat="40.9354567" lon="16.28546"><ele>482.0</ele><time>2026-05-03T12:11:25.562Z</time></trkpt><trkpt lat="40.9353617" lon="16.2853617"><ele>481.75</ele><time>2026-05-03T12:11:26.563Z</time></trkpt><trkpt lat="40.9352633" lon="16.2852633"><ele>481.5</ele><time>2026-05-03T12:11:27.563Z</time></trkpt><trkpt lat="40.9351667" lon="16.2851633"><ele>481.25</ele><time>2026-05-03T12:11:28.562Z</time></trkpt><trkpt lat="40.93507" lon="16.2850733"><ele>481.0</ele><time>2026-05-03T12:11:29.563Z</time></trkpt><trkpt lat="40.93499" lon="16.2849933"><ele>480.33333333333337</ele><time>2026-05-03T12:11:30.562Z</time></trkpt><trkpt lat="40.934925" lon="16.2849317"><ele>479.6666666666667</ele><time>2026-05-03T12:11:31.563Z</time></trkpt><trkpt lat="40.93487" lon="16.2848783"><ele>479.0</ele><time>2026-05-03T12:11:32.562Z</time></trkpt><trkpt lat="40.9348" lon="16.2848067"><ele>478.33333333333337</ele><time>2026-05-03T12:11:34.563Z</time></trkpt><trkpt lat="40.93485" lon="16.284875"><ele>477.6666666666667</ele><time>2026-05-03T12:11:47.563Z</time></trkpt><trkpt lat="40.9349467" lon="16.2849783"><ele>477.0</ele><time>2026-05-03T12:11:49.562Z</time></trkpt><trkpt lat="40.935005" lon="16.2850417"><ele>477.8</ele><time>2026-05-03T12:11:50.562Z</time></trkpt><trkpt lat="40.9350817" lon="16.2851133"><ele>478.6</ele><time>2026-05-03T12:11:51.562Z</time></trkpt><trkpt lat="40.9351583" lon="16.2851883"><ele>479.40000000000003</ele><time>2026-05-03T12:11:52.562Z</time></trkpt><trkpt lat="40.9352417" lon="16.2852683"><ele>480.20000000000005</ele><time>2026-05-03T12:11:53.563Z</time></trkpt><trkpt lat="40.9353267" lon="16.285345"><ele>481.0</ele><time>2026-05-03T12:11:54.562Z</time></trkpt><trkpt lat="40.9354067" lon="16.28543"><ele>481.00000000000006</ele><time>2026-05-03T12:11:55.562Z</time></trkpt><trkpt lat="40.93548" lon="16.2854967"><ele>481.0</ele><time>2026-05-03T12:11:56.562Z</time></trkpt><trkpt lat="40.9355467" lon="16.285555"><ele>481.0</ele><time>2026-05-03T12:11:57.562Z</time></trkpt><trkpt lat="40.9356133" lon="16.2856017"><ele>481.0</ele><time>2026-05-03T12:11:58.562Z</time></trkpt><trkpt lat="40.9356717" lon="16.2856417"><ele>481.00000000000006</ele><time>2026-05-03T12:11:59.562Z</time></trkpt><trkpt lat="40.9357533" lon="16.2856633"><ele>481.0</ele><time>2026-05-03T12:12:01.562Z</time></trkpt><trkpt lat="40.9358583" lon="16.285615"><ele>481.4</ele><time>2026-05-03T12:12:03.563Z</time></trkpt><trkpt lat="40.935935" lon="16.2855733"><ele>481.8</ele><time>2026-05-03T12:12:04.562Z</time></trkpt><trkpt lat="40.9360233" lon="16.2855217"><ele>482.19999999999993</ele><time>2026-05-03T12:12:05.563Z</time></trkpt><trkpt lat="40.9361267" lon="16.2854533"><ele>482.59999999999997</ele><time>2026-05-03T12:12:06.563Z</time></trkpt><trkpt lat="40.9362383" lon="16.2853883"><ele>483.0</ele><time>2026-05-03T12:12:07.563Z</time></trkpt><trkpt lat="40.93636" lon="16.2853167"><ele>483.0</ele><time>2026-05-03T12:12:08.562Z</time></trkpt><trkpt lat="40.9364817" lon="16.2852433"><ele>483.0</ele><time>2026-05-03T12:12:09.562Z</time></trkpt><trkpt lat="40.9366083" lon="16.2851667"><ele>483.0</ele><time>2026-05-03T12:12:10.562Z</time></trkpt><trkpt lat="40.93674" lon="16.2850883"><ele>483.0</ele><time>2026-05-03T12:12:11.563Z</time></trkpt><trkpt lat="40.9368717" lon="16.28501"><ele>483.0</ele><time>2026-05-03T12:12:12.563Z</time></trkpt><trkpt lat="40.9369983" lon="16.284935"><ele>483.0</ele><time>2026-05-03T12:12:13.563Z</time></trkpt><trkpt lat="40.9371217" lon="16.2848633"><ele>483.0</ele><time>2026-05-03T12:12:14.562Z</time></trkpt><trkpt lat="40.9372433" lon="16.28479"><ele>483.0</ele><time>2026-05-03T12:12:15.563Z</time></trkpt><trkpt lat="40.93737" lon="16.284705"><ele>483.0</ele><time>2026-05-03T12:12:16.562Z</time></trkpt><trkpt lat="40.9374983" lon="16.28462"><ele>483.0</ele><time>2026-05-03T12:12:17.563Z</time></trkpt><trkpt lat="40.9376233" lon="16.2845233"><ele>483.0</ele><time>2026-05-03T12:12:18.563Z</time></trkpt><trkpt lat="40.9377383" lon="16.28441"><ele>483.0</ele><time>2026-05-03T12:12:19.562Z</time></trkpt><trkpt lat="40.937855" lon="16.2842817"><ele>483.0</ele><time>2026-05-03T12:12:20.562Z</time></trkpt><trkpt lat="40.93797" lon="16.2841417"><ele>483.0</ele><time>2026-05-03T12:12:21.562Z</time></trkpt><trkpt lat="40.9380883" lon="16.284015"><ele>483.0</ele><time>2026-05-03T12:12:22.562Z</time></trkpt><trkpt lat="40.9382133" lon="16.2838783"><ele>483.0</ele><time>2026-05-03T12:12:23.562Z</time></trkpt><trkpt lat="40.9383367" lon="16.2837433"><ele>483.0</ele><time>2026-05-03T12:12:24.562Z</time></trkpt><trkpt lat="40.9384583" lon="16.2836117"><ele>483.0</ele><time>2026-05-03T12:12:25.563Z</time></trkpt><trkpt lat="40.9385833" lon="16.28348"><ele>484.0</ele><time>2026-05-03T12:12:26.562Z</time></trkpt><trkpt lat="40.9387017" lon="16.2833533"><ele>485.0</ele><time>2026-05-03T12:12:27.563Z</time></trkpt><trkpt lat="40.938815" lon="16.2832333"><ele>486.0</ele><time>2026-05-03T12:12:28.562Z</time></trkpt><trkpt lat="40.9389167" lon="16.2831167"><ele>487.0</ele><time>2026-05-03T12:12:29.562Z</time></trkpt><trkpt lat="40.9390133" lon="16.2830117"><ele>487.0</ele><time>2026-05-03T12:12:30.562Z</time></trkpt><trkpt lat="40.93909" lon="16.2829"><ele>487.0</ele><time>2026-05-03T12:12:31.562Z</time></trkpt><trkpt lat="40.93916" lon="16.28277"><ele>487.0</ele><time>2026-05-03T12:12:32.562Z</time></trkpt><trkpt lat="40.939225" lon="16.28263"><ele>487.0</ele><time>2026-05-03T12:12:33.563Z</time></trkpt><trkpt lat="40.93929" lon="16.2824767"><ele>488.5</ele><time>2026-05-03T12:12:34.563Z</time></trkpt><trkpt lat="40.93935" lon="16.282335"><ele>490.0</ele><time>2026-05-03T12:12:35.563Z</time></trkpt><trkpt lat="40.9393933" lon="16.2821883"><ele>491.5</ele><time>2026-05-03T12:12:36.562Z</time></trkpt><trkpt lat="40.939435" lon="16.2820383"><ele>493.0</ele><time>2026-05-03T12:12:37.562Z</time></trkpt><trkpt lat="40.9394617" lon="16.2818733"><ele>493.0</ele><time>2026-05-03T12:12:38.563Z</time></trkpt><trkpt lat="40.9394917" lon="16.2817033"><ele>493.0</ele><time>2026-05-03T12:12:39.563Z</time></trkpt><trkpt lat="40.9395133" lon="16.2815217"><ele>493.0</ele><time>2026-05-03T12:12:40.563Z</time></trkpt><trkpt lat="40.9395383" lon="16.2813367"><ele>493.0</ele><time>2026-05-03T12:12:41.563Z</time></trkpt><trkpt lat="40.9395583" lon="16.2811567"><ele>492.25</ele><time>2026-05-03T12:12:42.563Z</time></trkpt><trkpt lat="40.93958" lon="16.28099"><ele>491.5</ele><time>2026-05-03T12:12:43.562Z</time></trkpt><trkpt lat="40.9396083" lon="16.2808317"><ele>490.75</ele><time>2026-05-03T12:12:44.562Z</time></trkpt><trkpt lat="40.9396383" lon="16.280675"><ele>490.0</ele><time>2026-05-03T12:12:45.562Z</time></trkpt><trkpt lat="40.9396783" lon="16.2805267"><ele>489.25</ele><time>2026-05-03T12:12:46.562Z</time></trkpt><trkpt lat="40.939735" lon="16.2803867"><ele>488.5</ele><time>2026-05-03T12:12:47.562Z</time></trkpt><trkpt lat="40.9398017" lon="16.280275"><ele>487.75</ele><time>2026-05-03T12:12:48.562Z</time></trkpt><trkpt lat="40.9398817" lon="16.2801617"><ele>487.0</ele><time>2026-05-03T12:12:49.563Z</time></trkpt><trkpt lat="40.93997" lon="16.28003"><ele>490.0</ele><time>2026-05-03T12:12:50.562Z</time></trkpt><trkpt lat="40.940055" lon="16.2798917"><ele>493.0</ele><time>2026-05-03T12:12:51.562Z</time></trkpt><trkpt lat="40.9401367" lon="16.27975"><ele>496.0</ele><time>2026-05-03T12:12:52.563Z</time></trkpt><trkpt lat="40.9402033" lon="16.279625"><ele>499.0</ele><time>2026-05-03T12:12:53.562Z</time></trkpt><trkpt lat="40.9402483" lon="16.2795"><ele>499.0</ele><time>2026-05-03T12:12:54.562Z</time></trkpt><trkpt lat="40.940275" lon="16.2793517"><ele>499.0</ele><time>2026-05-03T12:12:55.563Z</time></trkpt><trkpt lat="40.9402983" lon="16.2791883"><ele>499.0</ele><time>2026-05-03T12:12:56.562Z</time></trkpt><trkpt lat="40.940315" lon="16.27901"><ele>499.0</ele><time>2026-05-03T12:12:57.562Z</time></trkpt><trkpt lat="40.9403383" lon="16.2788333"><ele>498.25</ele><time>2026-05-03T12:12:58.563Z</time></trkpt><trkpt lat="40.940365" lon="16.2786533"><ele>497.5</ele><time>2026-05-03T12:12:59.562Z</time></trkpt><trkpt lat="40.9403917" lon="16.27846"><ele>496.75</ele><time>2026-05-03T12:13:00.562Z</time></trkpt><trkpt lat="40.940415" lon="16.2782633"><ele>496.0</ele><time>2026-05-03T12:13:01.562Z</time></trkpt><trkpt lat="40.940435" lon="16.2780833"><ele>495.25</ele><time>2026-05-03T12:13:02.562Z</time></trkpt><trkpt lat="40.940455" lon="16.2779183"><ele>494.5</ele><time>2026-05-03T12:13:03.563Z</time></trkpt><trkpt lat="40.94048" lon="16.277775"><ele>493.75</ele><time>2026-05-03T12:13:04.562Z</time></trkpt><trkpt lat="40.94051" lon="16.2776267"><ele>493.0</ele><time>2026-05-03T12:13:05.562Z</time></trkpt><trkpt lat="40.9405483" lon="16.2774683"><ele>493.0</ele><time>2026-05-03T12:13:06.562Z</time></trkpt><trkpt lat="40.94059" lon="16.2773133"><ele>492.99999999999994</ele><time>2026-05-03T12:13:07.562Z</time></trkpt><trkpt lat="40.940635" lon="16.2771783"><ele>492.99999999999994</ele><time>2026-05-03T12:13:08.563Z</time></trkpt><trkpt lat="40.94068" lon="16.277055"><ele>493.0</ele><time>2026-05-03T12:13:09.562Z</time></trkpt><trkpt lat="40.9407267" lon="16.2769233"><ele>493.0</ele><time>2026-05-03T12:13:10.562Z</time></trkpt><trkpt lat="40.9407683" lon="16.2767883"><ele>492.59999999999997</ele><time>2026-05-03T12:13:11.562Z</time></trkpt><trkpt lat="40.9408067" lon="16.2766567"><ele>492.19999999999993</ele><time>2026-05-03T12:13:12.562Z</time></trkpt><trkpt lat="40.940845" lon="16.2765333"><ele>491.8</ele><time>2026-05-03T12:13:13.562Z</time></trkpt><trkpt lat="40.9408867" lon="16.2763983"><ele>491.4</ele><time>2026-05-03T12:13:14.563Z</time></trkpt><trkpt lat="40.940935" lon="16.2762583"><ele>491.0</ele><time>2026-05-03T12:13:15.562Z</time></trkpt><trkpt lat="40.940985" lon="16.2761167"><ele>490.99999999999994</ele><time>2026-05-03T12:13:16.563Z</time></trkpt><trkpt lat="40.94103" lon="16.275995"><ele>491.0</ele><time>2026-05-03T12:13:17.562Z</time></trkpt><trkpt lat="40.941075" lon="16.2759067"><ele>491.0</ele><time>2026-05-03T12:13:18.562Z</time></trkpt><trkpt lat="40.94112" lon="16.275845"><ele>491.0</ele><time>2026-05-03T12:13:19.562Z</time></trkpt><trkpt lat="40.9412333" lon="16.2758283"><ele>490.99999999999994</ele><time>2026-05-03T12:13:21.563Z</time></trkpt><trkpt lat="40.9413067" lon="16.2758383"><ele>491.0</ele><time>2026-05-03T12:13:22.562Z</time></trkpt><trkpt lat="40.9413767" lon="16.27585"><ele>490.99999999999994</ele><time>2026-05-03T12:13:23.563Z</time></trkpt><trkpt lat="40.9414517" lon="16.2758367"><ele>491.0</ele><time>2026-05-03T12:13:24.562Z</time></trkpt><trkpt lat="40.9415167" lon="16.2758"><ele>491.0</ele><time>2026-05-03T12:13:25.562Z</time></trkpt><trkpt lat="40.9415783" lon="16.275735"><ele>491.0</ele><time>2026-05-03T12:13:26.563Z</time></trkpt><trkpt lat="40.94164" lon="16.2756483"><ele>490.99999999999994</ele><time>2026-05-03T12:13:27.562Z</time></trkpt><trkpt lat="40.9417017" lon="16.2755633"><ele>491.0</ele><time>2026-05-03T12:13:28.562Z</time></trkpt><trkpt lat="40.94175" lon="16.2754583"><ele>493.6</ele><time>2026-05-03T12:13:29.563Z</time></trkpt><trkpt lat="40.9417883" lon="16.2753517"><ele>496.20000000000005</ele><time>2026-05-03T12:13:30.563Z</time></trkpt><trkpt lat="40.9418067" lon="16.275225"><ele>498.79999999999995</ele><time>2026-05-03T12:13:31.562Z</time></trkpt><trkpt lat="40.94181" lon="16.27509"><ele>501.4</ele><time>2026-05-03T12:13:32.563Z</time></trkpt><trkpt lat="40.94181" lon="16.2749617"><ele>504.0</ele><time>2026-05-03T12:13:33.562Z</time></trkpt><trkpt lat="40.9418167" lon="16.2748567"><ele>502.4</ele><time>2026-05-03T12:13:34.563Z</time></trkpt><trkpt lat="40.9418367" lon="16.27474"><ele>500.79999999999995</ele><time>2026-05-03T12:13:35.562Z</time></trkpt><trkpt lat="40.94188" lon="16.2746233"><ele>499.20000000000005</ele><time>2026-05-03T12:13:36.562Z</time></trkpt><trkpt lat="40.94193" lon="16.2744933"><ele>497.6</ele><time>2026-05-03T12:13:37.563Z</time></trkpt><trkpt lat="40.94199" lon="16.2743617"><ele>496.0</ele><time>2026-05-03T12:13:38.563Z</time></trkpt><trkpt lat="40.9420483" lon="16.2742333"><ele>496.0</ele><time>2026-05-03T12:13:39.563Z</time></trkpt><trkpt lat="40.9421067" lon="16.274115"><ele>496.0</ele><time>2026-05-03T12:13:40.562Z</time></trkpt><trkpt lat="40.942155" lon="16.2739967"><ele>496.0</ele><time>2026-05-03T12:13:41.562Z</time></trkpt><trkpt lat="40.94219" lon="16.27386"><ele>496.0</ele><time>2026-05-03T12:13:42.562Z</time></trkpt><trkpt lat="40.942225" lon="16.273725"><ele>496.0</ele><time>2026-05-03T12:13:43.562Z</time></trkpt><trkpt lat="40.942255" lon="16.2735867"><ele>494.25</ele><time>2026-05-03T12:13:44.562Z</time></trkpt><trkpt lat="40.9422983" lon="16.273435"><ele>492.5</ele><time>2026-05-03T12:13:45.563Z</time></trkpt><trkpt lat="40.9423383" lon="16.2732867"><ele>490.75</ele><time>2026-05-03T12:13:46.563Z</time></trkpt><trkpt lat="40.9423717" lon="16.2731433"><ele>489.0</ele><time>2026-05-03T12:13:47.562Z</time></trkpt><trkpt lat="40.9424" lon="16.2729917"><ele>487.79999999999995</ele><time>2026-05-03T12:13:48.562Z</time></trkpt><trkpt lat="40.9424183" lon="16.2728483"><ele>486.59999999999997</ele><time>2026-05-03T12:13:49.562Z</time></trkpt><trkpt lat="40.9424417" lon="16.2727267"><ele>485.4</ele><time>2026-05-03T12:13:50.562Z</time></trkpt><trkpt lat="40.9424733" lon="16.27261"><ele>484.2</ele><time>2026-05-03T12:13:51.563Z</time></trkpt><trkpt lat="40.9425017" lon="16.2724817"><ele>483.0</ele><time>2026-05-03T12:13:52.562Z</time></trkpt><trkpt lat="40.942535" lon="16.27236"><ele>483.2</ele><time>2026-05-03T12:13:53.562Z</time></trkpt><trkpt lat="40.9425667" lon="16.2722617"><ele>483.4</ele><time>2026-05-03T12:13:54.563Z</time></trkpt><trkpt lat="40.942585" lon="16.27217"><ele>483.59999999999997</ele><time>2026-05-03T12:13:55.562Z</time></trkpt><trkpt lat="40.9426233" lon="16.2720183"><ele>483.79999999999995</ele><time>2026-05-03T12:13:57.562Z</time></trkpt><trkpt lat="40.9426433" lon="16.2718583"><ele>484.0</ele><time>2026-05-03T12:13:59.562Z</time></trkpt><trkpt lat="40.9426417" lon="16.27177"><ele>484.0</ele><time>2026-05-03T12:14:01.562Z</time></trkpt><trkpt lat="40.9425583" lon="16.2716983"><ele>484.0</ele><time>2026-05-03T12:14:04.563Z</time></trkpt><trkpt lat="40.9424933" lon="16.2716633"><ele>484.0</ele><time>2026-05-03T12:14:05.562Z</time></trkpt><trkpt lat="40.9424083" lon="16.2716233"><ele>484.0</ele><time>2026-05-03T12:14:06.562Z</time></trkpt><trkpt lat="40.9423083" lon="16.2715817"><ele>484.0</ele><time>2026-05-03T12:14:07.563Z</time></trkpt><trkpt lat="40.9422067" lon="16.2715283"><ele>483.25</ele><time>2026-05-03T12:14:08.563Z</time></trkpt><trkpt lat="40.9420933" lon="16.2714767"><ele>482.5</ele><time>2026-05-03T12:14:09.562Z</time></trkpt><trkpt lat="40.9419667" lon="16.2714283"><ele>481.75</ele><time>2026-05-03T12:14:10.563Z</time></trkpt><trkpt lat="40.9418317" lon="16.271375"><ele>481.0</ele><time>2026-05-03T12:14:11.562Z</time></trkpt><trkpt lat="40.9416883" lon="16.27132"><ele>480.0</ele><time>2026-05-03T12:14:12.562Z</time></trkpt><trkpt lat="40.9415367" lon="16.27126"><ele>479.0</ele><time>2026-05-03T12:14:13.563Z</time></trkpt><trkpt lat="40.9413817" lon="16.2711983"><ele>478.0</ele><time>2026-05-03T12:14:14.563Z</time></trkpt><trkpt lat="40.94122" lon="16.2711283"><ele>478.0</ele><time>2026-05-03T12:14:15.563Z</time></trkpt><trkpt lat="40.9410483" lon="16.27106"><ele>478.0</ele><time>2026-05-03T12:14:16.563Z</time></trkpt><trkpt lat="40.9408783" lon="16.2709917"><ele>478.0</ele><time>2026-05-03T12:14:17.562Z</time></trkpt><trkpt lat="40.9407117" lon="16.2709217"><ele>477.33333333333337</ele><time>2026-05-03T12:14:18.563Z</time></trkpt><trkpt lat="40.940545" lon="16.2708467"><ele>476.66666666666663</ele><time>2026-05-03T12:14:19.562Z</time></trkpt><trkpt lat="40.9403733" lon="16.2707767"><ele>476.0</ele><time>2026-05-03T12:14:20.562Z</time></trkpt><trkpt lat="40.94021" lon="16.2707133"><ele>475.0</ele><time>2026-05-03T12:14:21.563Z</time></trkpt><trkpt lat="40.9400417" lon="16.2706517"><ele>474.0</ele><time>2026-05-03T12:14:22.562Z</time></trkpt><trkpt lat="40.9398767" lon="16.2705817"><ele>473.0</ele><time>2026-05-03T12:14:23.563Z</time></trkpt><trkpt lat="40.939715" lon="16.2705117"><ele>472.66666666666663</ele><time>2026-05-03T12:14:24.563Z</time></trkpt><trkpt lat="40.93955" lon="16.270445"><ele>472.33333333333337</ele><time>2026-05-03T12:14:25.563Z</time></trkpt><trkpt lat="40.93937" lon="16.2703733"><ele>472.0</ele><time>2026-05-03T12:14:26.563Z</time></trkpt><trkpt lat="40.9391983" lon="16.2702933"><ele>470.6666666666667</ele><time>2026-05-03T12:14:27.562Z</time></trkpt><trkpt lat="40.9390283" lon="16.2702117"><ele>469.33333333333337</ele><time>2026-05-03T12:14:28.562Z</time></trkpt><trkpt lat="40.9388583" lon="16.2701467"><ele>468.0</ele><time>2026-05-03T12:14:29.562Z</time></trkpt><trkpt lat="40.9386767" lon="16.2700783"><ele>468.0</ele><time>2026-05-03T12:14:30.562Z</time></trkpt><trkpt lat="40.9384983" lon="16.2700067"><ele>468.0</ele><time>2026-05-03T12:14:31.562Z</time></trkpt><trkpt lat="40.9383183" lon="16.2699317"><ele>468.0</ele><time>2026-05-03T12:14:32.562Z</time></trkpt><trkpt lat="40.9381467" lon="16.269855"><ele>467.66666666666663</ele><time>2026-05-03T12:14:33.562Z</time></trkpt><trkpt lat="40.9379833" lon="16.2697867"><ele>467.3333333333333</ele><time>2026-05-03T12:14:34.562Z</time></trkpt><trkpt lat="40.9378067" lon="16.26971"><ele>467.0</ele><time>2026-05-03T12:14:35.563Z</time></trkpt><trkpt lat="40.9376317" lon="16.269635"><ele>466.0</ele><time>2026-05-03T12:14:36.562Z</time></trkpt><trkpt lat="40.9374583" lon="16.2695617"><ele>465.0</ele><time>2026-05-03T12:14:37.562Z</time></trkpt><trkpt lat="40.9372833" lon="16.2694883"><ele>464.0</ele><time>2026-05-03T12:14:38.562Z</time></trkpt><trkpt lat="40.9371117" lon="16.2694167"><ele>464.0</ele><time>2026-05-03T12:14:39.563Z</time></trkpt><trkpt lat="40.9369283" lon="16.2693467"><ele>464.0</ele><time>2026-05-03T12:14:40.562Z</time></trkpt><trkpt lat="40.9367533" lon="16.2692717"><ele>464.0</ele><time>2026-05-03T12:14:41.563Z</time></trkpt><trkpt lat="40.9365917" lon="16.26919"><ele>463.3333333333333</ele><time>2026-05-03T12:14:42.562Z</time></trkpt><trkpt lat="40.9364217" lon="16.2691167"><ele>462.66666666666663</ele><time>2026-05-03T12:14:43.563Z</time></trkpt><trkpt lat="40.93624" lon="16.2690533"><ele>462.0</ele><time>2026-05-03T12:14:44.562Z</time></trkpt><trkpt lat="40.9360617" lon="16.2689867"><ele>461.33333333333337</ele><time>2026-05-03T12:14:45.562Z</time></trkpt><trkpt lat="40.9358917" lon="16.2689233"><ele>460.6666666666667</ele><time>2026-05-03T12:14:46.563Z</time></trkpt><trkpt lat="40.9357367" lon="16.26888"><ele>460.0</ele><time>2026-05-03T12:14:47.563Z</time></trkpt><trkpt lat="40.9355883" lon="16.268845"><ele>459.25</ele><time>2026-05-03T12:14:48.562Z</time></trkpt><trkpt lat="40.935445" lon="16.2688233"><ele>458.5</ele><time>2026-05-03T12:14:49.562Z</time></trkpt><trkpt lat="40.9353133" lon="16.2688233"><ele>457.75</ele><time>2026-05-03T12:14:50.562Z</time></trkpt><trkpt lat="40.9351833" lon="16.2688233"><ele>457.0</ele><time>2026-05-03T12:14:51.562Z</time></trkpt><trkpt lat="40.935055" lon="16.2688067"><ele>456.5</ele><time>2026-05-03T12:14:52.562Z</time></trkpt><trkpt lat="40.9349317" lon="16.2687783"><ele>456.0</ele><time>2026-05-03T12:14:53.562Z</time></trkpt><trkpt lat="40.9348167" lon="16.2687167"><ele>455.5</ele><time>2026-05-03T12:14:54.562Z</time></trkpt><trkpt lat="40.9346933" lon="16.268635"><ele>455.0</ele><time>2026-05-03T12:14:55.562Z</time></trkpt><trkpt lat="40.9345717" lon="16.26854"><ele>455.0</ele><time>2026-05-03T12:14:56.563Z</time></trkpt><trkpt lat="40.934455" lon="16.2684683"><ele>455.0</ele><time>2026-05-03T12:14:57.562Z</time></trkpt><trkpt lat="40.9343533" lon="16.2683967"><ele>455.0</ele><time>2026-05-03T12:14:58.562Z</time></trkpt><trkpt lat="40.934255" lon="16.2683183"><ele>455.0</ele><time>2026-05-03T12:14:59.562Z</time></trkpt><trkpt lat="40.93416" lon="16.2682483"><ele>454.99999999999994</ele><time>2026-05-03T12:15:00.562Z</time></trkpt><trkpt lat="40.9340767" lon="16.26819"><ele>455.0</ele><time>2026-05-03T12:15:01.562Z</time></trkpt><trkpt lat="40.9340017" lon="16.2681267"><ele>455.0</ele><time>2026-05-03T12:15:02.562Z</time></trkpt><trkpt lat="40.93394" lon="16.2680817"><ele>455.0</ele><time>2026-05-03T12:15:03.562Z</time></trkpt><trkpt lat="40.9338917" lon="16.2679433"><ele>454.99999999999994</ele><time>2026-05-03T12:15:05.562Z</time></trkpt><trkpt lat="40.93391" lon="16.2678417"><ele>455.0</ele><time>2026-05-03T12:15:08.562Z</time></trkpt><trkpt lat="40.93396" lon="16.2677267"><ele>455.0</ele><time>2026-05-03T12:15:10.562Z</time></trkpt><trkpt lat="40.9340017" lon="16.2676383"><ele>455.0</ele><time>2026-05-03T12:15:11.562Z</time></trkpt><trkpt lat="40.9340383" lon="16.26753"><ele>455.0</ele><time>2026-05-03T12:15:12.562Z</time></trkpt><trkpt lat="40.934085" lon="16.26742"><ele>455.0</ele><time>2026-05-03T12:15:13.562Z</time></trkpt><trkpt lat="40.9341417" lon="16.2673"><ele>455.0</ele><time>2026-05-03T12:15:14.562Z</time></trkpt><trkpt lat="40.9341967" lon="16.2671767"><ele>455.16666666666663</ele><time>2026-05-03T12:15:15.562Z</time></trkpt><trkpt lat="40.9342533" lon="16.2670717"><ele>455.3333333333333</ele><time>2026-05-03T12:15:16.562Z</time></trkpt><trkpt lat="40.93431" lon="16.26697"><ele>455.5</ele><time>2026-05-03T12:15:17.562Z</time></trkpt><trkpt lat="40.9343633" lon="16.266865"><ele>455.66666666666663</ele><time>2026-05-03T12:15:18.562Z</time></trkpt><trkpt lat="40.9344067" lon="16.2667717"><ele>455.8333333333333</ele><time>2026-05-03T12:15:19.562Z</time></trkpt><trkpt lat="40.93445" lon="16.2666983"><ele>456.0</ele><time>2026-05-03T12:15:20.562Z</time></trkpt><trkpt lat="40.9345017" lon="16.2666483"><ele>456.0</ele><time>2026-05-03T12:15:21.563Z</time></trkpt><trkpt lat="40.934595" lon="16.26656"><ele>456.0</ele><time>2026-05-03T12:15:23.563Z</time></trkpt><trkpt lat="40.93463" lon="16.2664583"><ele>456.0</ele><time>2026-05-03T12:15:25.562Z</time></trkpt><trkpt lat="40.9346" lon="16.26635"><ele>456.0</ele><time>2026-05-03T12:15:27.562Z</time></trkpt><trkpt lat="40.9344933" lon="16.26629"><ele>456.0</ele><time>2026-05-03T12:15:29.562Z</time></trkpt><trkpt lat="40.934395" lon="16.2662867"><ele>456.0</ele><time>2026-05-03T12:15:30.562Z</time></trkpt><trkpt lat="40.9342883" lon="16.2662483"><ele>456.0</ele><time>2026-05-03T12:15:31.562Z</time></trkpt><trkpt lat="40.9341683" lon="16.266185"><ele>456.0</ele><time>2026-05-03T12:15:32.563Z</time></trkpt><trkpt lat="40.9340467" lon="16.2660967"><ele>456.0</ele><time>2026-05-03T12:15:33.562Z</time></trkpt><trkpt lat="40.9339133" lon="16.266005"><ele>454.66666666666663</ele><time>2026-05-03T12:15:34.563Z</time></trkpt><trkpt lat="40.9337717" lon="16.2659117"><ele>453.3333333333333</ele><time>2026-05-03T12:15:35.562Z</time></trkpt><trkpt lat="40.9336267" lon="16.2658083"><ele>452.0</ele><time>2026-05-03T12:15:36.562Z</time></trkpt><trkpt lat="40.93348" lon="16.2657033"><ele>451.0</ele><time>2026-05-03T12:15:37.562Z</time></trkpt><trkpt lat="40.933325" lon="16.2655933"><ele>450.0</ele><time>2026-05-03T12:15:38.562Z</time></trkpt><trkpt lat="40.93316" lon="16.2654883"><ele>449.0</ele><time>2026-05-03T12:15:39.562Z</time></trkpt><trkpt lat="40.9329917" lon="16.2653717"><ele>449.0</ele><time>2026-05-03T12:15:40.563Z</time></trkpt><trkpt lat="40.9328267" lon="16.2652533"><ele>449.0</ele><time>2026-05-03T12:15:41.563Z</time></trkpt><trkpt lat="40.9326667" lon="16.2651383"><ele>449.0</ele><time>2026-05-03T12:15:42.563Z</time></trkpt><trkpt lat="40.9324983" lon="16.26502"><ele>448.66666666666663</ele><time>2026-05-03T12:15:43.562Z</time></trkpt><trkpt lat="40.9323333" lon="16.2649017"><ele>448.33333333333337</ele><time>2026-05-03T12:15:44.562Z</time></trkpt><trkpt lat="40.9321617" lon="16.2647917"><ele>448.0</ele><time>2026-05-03T12:15:45.562Z</time></trkpt><trkpt lat="40.931995" lon="16.264675"><ele>447.6666666666667</ele><time>2026-05-03T12:15:46.562Z</time></trkpt><trkpt lat="40.9318317" lon="16.2645567"><ele>447.33333333333337</ele><time>2026-05-03T12:15:47.562Z</time></trkpt><trkpt lat="40.9316633" lon="16.26444"><ele>447.0</ele><time>2026-05-03T12:15:48.562Z</time></trkpt><trkpt lat="40.9314967" lon="16.2643267"><ele>446.66666666666663</ele><time>2026-05-03T12:15:49.563Z</time></trkpt><trkpt lat="40.9313317" lon="16.26421"><ele>446.3333333333333</ele><time>2026-05-03T12:15:50.563Z</time></trkpt><trkpt lat="40.9311633" lon="16.2640933"><ele>446.0</ele><time>2026-05-03T12:15:51.562Z</time></trkpt><trkpt lat="40.9309967" lon="16.263975"><ele>445.66666666666663</ele><time>2026-05-03T12:15:52.563Z</time></trkpt><trkpt lat="40.930825" lon="16.2638583"><ele>445.33333333333337</ele><time>2026-05-03T12:15:53.562Z</time></trkpt><trkpt lat="40.930655" lon="16.26374"><ele>445.0</ele><time>2026-05-03T12:15:54.562Z</time></trkpt><trkpt lat="40.9304817" lon="16.263625"><ele>445.0</ele><time>2026-05-03T12:15:55.562Z</time></trkpt><trkpt lat="40.9303083" lon="16.263505"><ele>445.0</ele><time>2026-05-03T12:15:56.562Z</time></trkpt><trkpt lat="40.9301317" lon="16.2633817"><ele>445.0</ele><time>2026-05-03T12:15:57.562Z</time></trkpt><trkpt lat="40.9299617" lon="16.2632517"><ele>444.6666666666667</ele><time>2026-05-03T12:15:58.562Z</time></trkpt><trkpt lat="40.92979" lon="16.263135"><ele>444.33333333333337</ele><time>2026-05-03T12:15:59.562Z</time></trkpt><trkpt lat="40.9296217" lon="16.2630167"><ele>444.0</ele><time>2026-05-03T12:16:00.563Z</time></trkpt><trkpt lat="40.9294483" lon="16.2629"><ele>444.0</ele><time>2026-05-03T12:16:01.563Z</time></trkpt><trkpt lat="40.9292733" lon="16.2627717"><ele>444.0</ele><time>2026-05-03T12:16:02.562Z</time></trkpt><trkpt lat="40.9290933" lon="16.26265"><ele>444.0</ele><time>2026-05-03T12:16:03.562Z</time></trkpt><trkpt lat="40.9289133" lon="16.26253"><ele>442.66666666666663</ele><time>2026-05-03T12:16:04.563Z</time></trkpt><trkpt lat="40.9287317" lon="16.2624033"><ele>441.3333333333333</ele><time>2026-05-03T12:16:05.562Z</time></trkpt><trkpt lat="40.928555" lon="16.26228"><ele>440.0</ele><time>2026-05-03T12:16:06.563Z</time></trkpt><trkpt lat="40.9283733" lon="16.2621617"><ele>438.0</ele><time>2026-05-03T12:16:07.563Z</time></trkpt><trkpt lat="40.9281917" lon="16.2620417"><ele>436.0</ele><time>2026-05-03T12:16:08.562Z</time></trkpt><trkpt lat="40.9280167" lon="16.2619183"><ele>434.0</ele><time>2026-05-03T12:16:09.562Z</time></trkpt><trkpt lat="40.9278467" lon="16.2617917"><ele>434.0</ele><time>2026-05-03T12:16:10.562Z</time></trkpt><trkpt lat="40.92767" lon="16.2616683"><ele>434.0</ele><time>2026-05-03T12:16:11.562Z</time></trkpt><trkpt lat="40.9274967" lon="16.2615483"><ele>434.0</ele><time>2026-05-03T12:16:12.562Z</time></trkpt><trkpt lat="40.9273183" lon="16.261425"><ele>432.66666666666663</ele><time>2026-05-03T12:16:13.562Z</time></trkpt><trkpt lat="40.9271483" lon="16.2612917"><ele>431.33333333333337</ele><time>2026-05-03T12:16:14.563Z</time></trkpt><trkpt lat="40.92698" lon="16.261175"><ele>430.0</ele><time>2026-05-03T12:16:15.562Z</time></trkpt><trkpt lat="40.926815" lon="16.26106"><ele>431.33333333333337</ele><time>2026-05-03T12:16:16.562Z</time></trkpt><trkpt lat="40.926635" lon="16.2609433"><ele>432.66666666666663</ele><time>2026-05-03T12:16:17.562Z</time></trkpt><trkpt lat="40.9264617" lon="16.2608333"><ele>434.0</ele><time>2026-05-03T12:16:18.562Z</time></trkpt><trkpt lat="40.9263067" lon="16.2607233"><ele>436.0</ele><time>2026-05-03T12:16:19.562Z</time></trkpt><trkpt lat="40.9261467" lon="16.26061"><ele>438.0</ele><time>2026-05-03T12:16:20.563Z</time></trkpt><trkpt lat="40.9259783" lon="16.2604917"><ele>440.0</ele><time>2026-05-03T12:16:21.562Z</time></trkpt><trkpt lat="40.9258117" lon="16.2603783"><ele>441.0</ele><time>2026-05-03T12:16:22.562Z</time></trkpt><trkpt lat="40.925635" lon="16.2602667"><ele>442.0</ele><time>2026-05-03T12:16:23.562Z</time></trkpt><trkpt lat="40.9254567" lon="16.2601517"><ele>443.0</ele><time>2026-05-03T12:16:24.562Z</time></trkpt><trkpt lat="40.925295" lon="16.2600333"><ele>443.0</ele><time>2026-05-03T12:16:25.562Z</time></trkpt><trkpt lat="40.9251267" lon="16.259915"><ele>443.0</ele><time>2026-05-03T12:16:26.562Z</time></trkpt><trkpt lat="40.9249667" lon="16.25979"><ele>443.0</ele><time>2026-05-03T12:16:27.562Z</time></trkpt><trkpt lat="40.9248017" lon="16.2596683"><ele>444.3333333333333</ele><time>2026-05-03T12:16:28.562Z</time></trkpt><trkpt lat="40.9246383" lon="16.2595483"><ele>445.66666666666663</ele><time>2026-05-03T12:16:29.563Z</time></trkpt><trkpt lat="40.9244733" lon="16.2594283"><ele>447.0</ele><time>2026-05-03T12:16:30.563Z</time></trkpt><trkpt lat="40.9243033" lon="16.2593217"><ele>446.66666666666663</ele><time>2026-05-03T12:16:31.562Z</time></trkpt><trkpt lat="40.9241367" lon="16.2592083"><ele>446.3333333333333</ele><time>2026-05-03T12:16:32.563Z</time></trkpt><trkpt lat="40.923975" lon="16.2590933"><ele>446.0</ele><time>2026-05-03T12:16:33.562Z</time></trkpt><trkpt lat="40.9238167" lon="16.25898"><ele>447.0</ele><time>2026-05-03T12:16:34.562Z</time></trkpt><trkpt lat="40.923655" lon="16.25887"><ele>448.0</ele><time>2026-05-03T12:16:35.562Z</time></trkpt><trkpt lat="40.9234917" lon="16.2587567"><ele>449.0</ele><time>2026-05-03T12:16:36.562Z</time></trkpt><trkpt lat="40.92333" lon="16.258645"><ele>449.0</ele><time>2026-05-03T12:16:37.562Z</time></trkpt><trkpt lat="40.9231683" lon="16.2585317"><ele>449.0</ele><time>2026-05-03T12:16:38.563Z</time></trkpt><trkpt lat="40.9230017" lon="16.2584117"><ele>449.0</ele><time>2026-05-03T12:16:39.563Z</time></trkpt><trkpt lat="40.9228383" lon="16.258285"><ele>449.0</ele><time>2026-05-03T12:16:40.562Z</time></trkpt><trkpt lat="40.92267" lon="16.258175"><ele>449.0</ele><time>2026-05-03T12:16:41.563Z</time></trkpt><trkpt lat="40.9225" lon="16.25806"><ele>449.0</ele><time>2026-05-03T12:16:42.563Z</time></trkpt><trkpt lat="40.9223317" lon="16.2579433"><ele>450.66666666666663</ele><time>2026-05-03T12:16:43.562Z</time></trkpt><trkpt lat="40.9221583" lon="16.257825"><ele>452.33333333333337</ele><time>2026-05-03T12:16:44.562Z</time></trkpt><trkpt lat="40.9219933" lon="16.2577017"><ele>454.0</ele><time>2026-05-03T12:16:45.562Z</time></trkpt><trkpt lat="40.9218283" lon="16.2575967"><ele>453.6666666666667</ele><time>2026-05-03T12:16:46.562Z</time></trkpt><trkpt lat="40.9216633" lon="16.25749"><ele>453.33333333333337</ele><time>2026-05-03T12:16:47.562Z</time></trkpt><trkpt lat="40.9214967" lon="16.25738"><ele>453.0</ele><time>2026-05-03T12:16:48.563Z</time></trkpt><trkpt lat="40.921335" lon="16.2572633"><ele>453.0</ele><time>2026-05-03T12:16:49.562Z</time></trkpt><trkpt lat="40.9211717" lon="16.2571483"><ele>453.0</ele><time>2026-05-03T12:16:50.562Z</time></trkpt><trkpt lat="40.9210083" lon="16.2570283"><ele>453.0</ele><time>2026-05-03T12:16:51.562Z</time></trkpt><trkpt lat="40.920845" lon="16.2569117"><ele>453.66666666666663</ele><time>2026-05-03T12:16:52.562Z</time></trkpt><trkpt lat="40.9206817" lon="16.2567833"><ele>454.3333333333333</ele><time>2026-05-03T12:16:53.562Z</time></trkpt><trkpt lat="40.9205183" lon="16.2566717"><ele>455.0</ele><time>2026-05-03T12:16:54.562Z</time></trkpt><trkpt lat="40.9203583" lon="16.256565"><ele>455.0</ele><time>2026-05-03T12:16:55.562Z</time></trkpt><trkpt lat="40.9202067" lon="16.2564667"><ele>455.0</ele><time>2026-05-03T12:16:56.562Z</time></trkpt><trkpt lat="40.9200633" lon="16.2563783"><ele>455.0</ele><time>2026-05-03T12:16:57.562Z</time></trkpt><trkpt lat="40.91994" lon="16.2562933"><ele>455.49999999999994</ele><time>2026-05-03T12:16:58.562Z</time></trkpt><trkpt lat="40.9198317" lon="16.2562167"><ele>456.0</ele><time>2026-05-03T12:16:59.562Z</time></trkpt><trkpt lat="40.9197367" lon="16.256155"><ele>456.5</ele><time>2026-05-03T12:17:00.562Z</time></trkpt><trkpt lat="40.91966" lon="16.2561067"><ele>457.0</ele><time>2026-05-03T12:17:01.562Z</time></trkpt><trkpt lat="40.919605" lon="16.25606"><ele>457.49999999999994</ele><time>2026-05-03T12:17:02.562Z</time></trkpt><trkpt lat="40.9195517" lon="16.2560067"><ele>458.0</ele><time>2026-05-03T12:17:03.563Z</time></trkpt><trkpt lat="40.9194867" lon="16.2559667"><ele>458.0</ele><time>2026-05-03T12:17:04.562Z</time></trkpt><trkpt lat="40.9194117" lon="16.2559267"><ele>457.99999999999994</ele><time>2026-05-03T12:17:05.562Z</time></trkpt><trkpt lat="40.919325" lon="16.255875"><ele>457.99999999999994</ele><time>2026-05-03T12:17:06.562Z</time></trkpt><trkpt lat="40.9192367" lon="16.2558067"><ele>458.0</ele><time>2026-05-03T12:17:07.562Z</time></trkpt><trkpt lat="40.9191317" lon="16.2557267"><ele>458.0</ele><time>2026-05-03T12:17:08.562Z</time></trkpt><trkpt lat="40.919025" lon="16.2556483"><ele>458.5</ele><time>2026-05-03T12:17:09.562Z</time></trkpt><trkpt lat="40.91891" lon="16.2555933"><ele>459.0</ele><time>2026-05-03T12:17:10.562Z</time></trkpt><trkpt lat="40.918805" lon="16.2555083"><ele>459.5</ele><time>2026-05-03T12:17:11.562Z</time></trkpt><trkpt lat="40.9186917" lon="16.2554383"><ele>460.0</ele><time>2026-05-03T12:17:12.562Z</time></trkpt><trkpt lat="40.91859" lon="16.2553667"><ele>460.0</ele><time>2026-05-03T12:17:13.562Z</time></trkpt><trkpt lat="40.91848" lon="16.255295"><ele>460.0</ele><time>2026-05-03T12:17:14.562Z</time></trkpt><trkpt lat="40.9183683" lon="16.2552317"><ele>460.0</ele><time>2026-05-03T12:17:15.562Z</time></trkpt><trkpt lat="40.91826" lon="16.2551683"><ele>460.0</ele><time>2026-05-03T12:17:16.562Z</time></trkpt><trkpt lat="40.918155" lon="16.2550817"><ele>460.25</ele><time>2026-05-03T12:17:17.562Z</time></trkpt><trkpt lat="40.9180467" lon="16.255005"><ele>460.5</ele><time>2026-05-03T12:17:18.562Z</time></trkpt><trkpt lat="40.917935" lon="16.2549317"><ele>460.75</ele><time>2026-05-03T12:17:19.562Z</time></trkpt><trkpt lat="40.91782" lon="16.2548417"><ele>461.0</ele><time>2026-05-03T12:17:20.562Z</time></trkpt><trkpt lat="40.91772" lon="16.2547633"><ele>461.0</ele><time>2026-05-03T12:17:21.562Z</time></trkpt><trkpt lat="40.9176217" lon="16.2546867"><ele>461.0</ele><time>2026-05-03T12:17:22.562Z</time></trkpt><trkpt lat="40.9175217" lon="16.2546133"><ele>461.0</ele><time>2026-05-03T12:17:23.563Z</time></trkpt><trkpt lat="40.9174383" lon="16.2545483"><ele>461.0</ele><time>2026-05-03T12:17:24.562Z</time></trkpt><trkpt lat="40.9173417" lon="16.254495"><ele>461.0</ele><time>2026-05-03T12:17:25.562Z</time></trkpt><trkpt lat="40.9172583" lon="16.25442"><ele>461.16666666666663</ele><time>2026-05-03T12:17:26.562Z</time></trkpt><trkpt lat="40.9171783" lon="16.2543617"><ele>461.3333333333333</ele><time>2026-05-03T12:17:27.562Z</time></trkpt><trkpt lat="40.9171117" lon="16.2543117"><ele>461.5</ele><time>2026-05-03T12:17:28.562Z</time></trkpt><trkpt lat="40.91703" lon="16.2542817"><ele>461.66666666666663</ele><time>2026-05-03T12:17:30.562Z</time></trkpt><trkpt lat="40.9170183" lon="16.2541983"><ele>461.8333333333333</ele><time>2026-05-03T12:17:52.562Z</time></trkpt><trkpt lat="40.9170517" lon="16.25412"><ele>462.0</ele><time>2026-05-03T12:17:53.562Z</time></trkpt><trkpt lat="40.91709" lon="16.25403"><ele>462.0</ele><time>2026-05-03T12:17:54.562Z</time></trkpt><trkpt lat="40.91713" lon="16.2539217"><ele>462.00000000000006</ele><time>2026-05-03T12:17:55.563Z</time></trkpt><trkpt lat="40.9171733" lon="16.2538067"><ele>462.00000000000006</ele><time>2026-05-03T12:17:56.562Z</time></trkpt><trkpt lat="40.9172183" lon="16.2536917"><ele>462.0</ele><time>2026-05-03T12:17:57.562Z</time></trkpt><trkpt lat="40.9172667" lon="16.253565"><ele>462.0</ele><time>2026-05-03T12:17:58.562Z</time></trkpt><trkpt lat="40.917315" lon="16.25343"><ele>462.0</ele><time>2026-05-03T12:17:59.562Z</time></trkpt><trkpt lat="40.9173567" lon="16.2532867"><ele>462.0</ele><time>2026-05-03T12:18:00.563Z</time></trkpt><trkpt lat="40.917415" lon="16.25315"><ele>462.0</ele><time>2026-05-03T12:18:01.562Z</time></trkpt><trkpt lat="40.9174833" lon="16.253015"><ele>462.0</ele><time>2026-05-03T12:18:02.562Z</time></trkpt><trkpt lat="40.91755" lon="16.2528783"><ele>461.5</ele><time>2026-05-03T12:18:03.562Z</time></trkpt><trkpt lat="40.9176033" lon="16.2527483"><ele>461.0</ele><time>2026-05-03T12:18:04.562Z</time></trkpt><trkpt lat="40.917655" lon="16.252605"><ele>460.5</ele><time>2026-05-03T12:18:05.563Z</time></trkpt><trkpt lat="40.9177067" lon="16.2524633"><ele>460.0</ele><time>2026-05-03T12:18:06.562Z</time></trkpt><trkpt lat="40.9177617" lon="16.2523183"><ele>460.0</ele><time>2026-05-03T12:18:07.562Z</time></trkpt><trkpt lat="40.9178267" lon="16.2521767"><ele>460.0</ele><time>2026-05-03T12:18:08.563Z</time></trkpt><trkpt lat="40.9178867" lon="16.2520283"><ele>460.0</ele><time>2026-05-03T12:18:09.563Z</time></trkpt><trkpt lat="40.9179533" lon="16.2518733"><ele>460.0</ele><time>2026-05-03T12:18:10.563Z</time></trkpt><trkpt lat="40.9180233" lon="16.2517133"><ele>460.0</ele><time>2026-05-03T12:18:11.563Z</time></trkpt><trkpt lat="40.9181" lon="16.2515517"><ele>460.0</ele><time>2026-05-03T12:18:12.563Z</time></trkpt><trkpt lat="40.91818" lon="16.2513883"><ele>460.0</ele><time>2026-05-03T12:18:13.563Z</time></trkpt><trkpt lat="40.91826" lon="16.2512233"><ele>460.0</ele><time>2026-05-03T12:18:14.562Z</time></trkpt><trkpt lat="40.9183317" lon="16.25106"><ele>460.25</ele><time>2026-05-03T12:18:15.563Z</time></trkpt><trkpt lat="40.918395" lon="16.2509083"><ele>460.5</ele><time>2026-05-03T12:18:16.562Z</time></trkpt><trkpt lat="40.9184617" lon="16.2507567"><ele>460.75</ele><time>2026-05-03T12:18:17.562Z</time></trkpt><trkpt lat="40.9185283" lon="16.2506133"><ele>461.0</ele><time>2026-05-03T12:18:18.562Z</time></trkpt><trkpt lat="40.918585" lon="16.250485"><ele>461.16666666666663</ele><time>2026-05-03T12:18:19.562Z</time></trkpt><trkpt lat="40.9186317" lon="16.25038"><ele>461.3333333333333</ele><time>2026-05-03T12:18:20.562Z</time></trkpt><trkpt lat="40.9186583" lon="16.250275"><ele>461.5</ele><time>2026-05-03T12:18:21.562Z</time></trkpt><trkpt lat="40.91869" lon="16.2501817"><ele>461.66666666666663</ele><time>2026-05-03T12:18:22.562Z</time></trkpt><trkpt lat="40.9187267" lon="16.2500867"><ele>461.8333333333333</ele><time>2026-05-03T12:18:23.562Z</time></trkpt><trkpt lat="40.9187733" lon="16.2499783"><ele>462.0</ele><time>2026-05-03T12:18:24.562Z</time></trkpt><trkpt lat="40.91884" lon="16.2498633"><ele>459.0</ele><time>2026-05-03T12:18:25.562Z</time></trkpt><trkpt lat="40.918915" lon="16.2497483"><ele>456.0</ele><time>2026-05-03T12:18:26.563Z</time></trkpt><trkpt lat="40.9190033" lon="16.2496283"><ele>453.0</ele><time>2026-05-03T12:18:27.563Z</time></trkpt><trkpt lat="40.9191067" lon="16.2494983"><ele>450.0</ele><time>2026-05-03T12:18:28.562Z</time></trkpt><trkpt lat="40.91922" lon="16.249355"><ele>448.0</ele><time>2026-05-03T12:18:29.563Z</time></trkpt><trkpt lat="40.9193383" lon="16.2492"><ele>446.0</ele><time>2026-05-03T12:18:30.562Z</time></trkpt><trkpt lat="40.91946" lon="16.2490467"><ele>444.0</ele><time>2026-05-03T12:18:31.563Z</time></trkpt><trkpt lat="40.9195683" lon="16.2489033"><ele>444.0</ele><time>2026-05-03T12:18:32.563Z</time></trkpt><trkpt lat="40.9196883" lon="16.2487533"><ele>444.0</ele><time>2026-05-03T12:18:33.562Z</time></trkpt><trkpt lat="40.9197967" lon="16.24859"><ele>444.0</ele><time>2026-05-03T12:18:34.562Z</time></trkpt><trkpt lat="40.919925" lon="16.248425"><ele>444.0</ele><time>2026-05-03T12:18:35.562Z</time></trkpt><trkpt lat="40.9200317" lon="16.2482633"><ele>444.0</ele><time>2026-05-03T12:18:36.563Z</time></trkpt><trkpt lat="40.9201317" lon="16.2481083"><ele>444.0</ele><time>2026-05-03T12:18:37.563Z</time></trkpt><trkpt lat="40.9202367" lon="16.24796"><ele>445.75</ele><time>2026-05-03T12:18:38.562Z</time></trkpt><trkpt lat="40.9203433" lon="16.2478217"><ele>447.5</ele><time>2026-05-03T12:18:39.562Z</time></trkpt><trkpt lat="40.9204367" lon="16.2476883"><ele>449.25</ele><time>2026-05-03T12:18:40.562Z</time></trkpt><trkpt lat="40.92048" lon="16.24755"><ele>451.0</ele><time>2026-05-03T12:18:41.562Z</time></trkpt><trkpt lat="40.9205183" lon="16.2474333"><ele>451.00000000000006</ele><time>2026-05-03T12:18:42.562Z</time></trkpt><trkpt lat="40.920555" lon="16.247325"><ele>451.0</ele><time>2026-05-03T12:18:43.562Z</time></trkpt><trkpt lat="40.920595" lon="16.2472217"><ele>451.0</ele><time>2026-05-03T12:18:44.563Z</time></trkpt><trkpt lat="40.9206283" lon="16.2471233"><ele>451.0</ele><time>2026-05-03T12:18:45.562Z</time></trkpt><trkpt lat="40.92066" lon="16.2470233"><ele>451.00000000000006</ele><time>2026-05-03T12:18:46.563Z</time></trkpt><trkpt lat="40.9206967" lon="16.246915"><ele>451.0</ele><time>2026-05-03T12:18:47.563Z</time></trkpt><trkpt lat="40.920725" lon="16.246815"><ele>449.83333333333337</ele><time>2026-05-03T12:18:48.563Z</time></trkpt><trkpt lat="40.9207267" lon="16.24671"><ele>448.6666666666667</ele><time>2026-05-03T12:18:49.564Z</time></trkpt><trkpt lat="40.920705" lon="16.2466217"><ele>447.5</ele><time>2026-05-03T12:18:50.563Z</time></trkpt><trkpt lat="40.9206583" lon="16.2465467"><ele>446.33333333333337</ele><time>2026-05-03T12:18:51.563Z</time></trkpt><trkpt lat="40.9205933" lon="16.24646"><ele>445.1666666666667</ele><time>2026-05-03T12:18:52.563Z</time></trkpt><trkpt lat="40.9205317" lon="16.24635"><ele>444.0</ele><time>2026-05-03T12:18:53.564Z</time></trkpt><trkpt lat="40.9204867" lon="16.24623"><ele>444.0</ele><time>2026-05-03T12:18:54.563Z</time></trkpt><trkpt lat="40.9204583" lon="16.24611"><ele>444.0</ele><time>2026-05-03T12:18:55.564Z</time></trkpt><trkpt lat="40.9204583" lon="16.245985"><ele>444.0</ele><time>2026-05-03T12:18:56.563Z</time></trkpt><trkpt lat="40.9204733" lon="16.2458417"><ele>444.0</ele><time>2026-05-03T12:18:57.564Z</time></trkpt><trkpt lat="40.9204817" lon="16.2456783"><ele>444.0</ele><time>2026-05-03T12:18:58.563Z</time></trkpt><trkpt lat="40.920495" lon="16.2455133"><ele>443.5</ele><time>2026-05-03T12:18:59.563Z</time></trkpt><trkpt lat="40.920505" lon="16.2453467"><ele>443.0</ele><time>2026-05-03T12:19:00.563Z</time></trkpt><trkpt lat="40.9205083" lon="16.2451867"><ele>442.5</ele><time>2026-05-03T12:19:01.563Z</time></trkpt><trkpt lat="40.9205183" lon="16.24503"><ele>442.0</ele><time>2026-05-03T12:19:02.564Z</time></trkpt><trkpt lat="40.9205217" lon="16.2448717"><ele>442.8</ele><time>2026-05-03T12:19:03.564Z</time></trkpt><trkpt lat="40.9205267" lon="16.24473"><ele>443.6</ele><time>2026-05-03T12:19:04.563Z</time></trkpt><trkpt lat="40.9205267" lon="16.24461"><ele>444.40000000000003</ele><time>2026-05-03T12:19:05.564Z</time></trkpt><trkpt lat="40.9205233" lon="16.2445067"><ele>445.20000000000005</ele><time>2026-05-03T12:19:06.564Z</time></trkpt><trkpt lat="40.9205033" lon="16.2444217"><ele>446.0</ele><time>2026-05-03T12:19:07.563Z</time></trkpt><trkpt lat="40.9204017" lon="16.2443033"><ele>446.0</ele><time>2026-05-03T12:19:09.563Z</time></trkpt><trkpt lat="40.9203367" lon="16.244235"><ele>446.0</ele><time>2026-05-03T12:19:10.563Z</time></trkpt><trkpt lat="40.9202733" lon="16.2441367"><ele>446.0</ele><time>2026-05-03T12:19:11.563Z</time></trkpt><trkpt lat="40.9202083" lon="16.2440117"><ele>446.0</ele><time>2026-05-03T12:19:12.564Z</time></trkpt><trkpt lat="40.9201483" lon="16.24387"><ele>446.0</ele><time>2026-05-03T12:19:13.563Z</time></trkpt><trkpt lat="40.9200917" lon="16.2437317"><ele>442.20000000000005</ele><time>2026-05-03T12:19:14.563Z</time></trkpt><trkpt lat="40.9200433" lon="16.243595"><ele>438.40000000000003</ele><time>2026-05-03T12:19:15.563Z</time></trkpt><trkpt lat="40.9200033" lon="16.24347"><ele>434.6</ele><time>2026-05-03T12:19:16.563Z</time></trkpt><trkpt lat="40.9199633" lon="16.2433633"><ele>430.8</ele><time>2026-05-03T12:19:17.563Z</time></trkpt><trkpt lat="40.919905" lon="16.2432733"><ele>427.0</ele><time>2026-05-03T12:19:18.563Z</time></trkpt><trkpt lat="40.9198383" lon="16.2431983"><ele>427.0</ele><time>2026-05-03T12:19:19.563Z</time></trkpt><trkpt lat="40.9197533" lon="16.2431333"><ele>427.00000000000006</ele><time>2026-05-03T12:19:20.563Z</time></trkpt><trkpt lat="40.919665" lon="16.24308"><ele>427.00000000000006</ele><time>2026-05-03T12:19:21.564Z</time></trkpt><trkpt lat="40.9195683" lon="16.24305"><ele>427.0</ele><time>2026-05-03T12:19:22.563Z</time></trkpt><trkpt lat="40.91946" lon="16.243035"><ele>427.0</ele><time>2026-05-03T12:19:23.563Z</time></trkpt><trkpt lat="40.919355" lon="16.2430017"><ele>428.5</ele><time>2026-05-03T12:19:24.564Z</time></trkpt><trkpt lat="40.91925" lon="16.2429483"><ele>430.0</ele><time>2026-05-03T12:19:25.563Z</time></trkpt><trkpt lat="40.9191467" lon="16.2428583"><ele>431.5</ele><time>2026-05-03T12:19:26.564Z</time></trkpt><trkpt lat="40.919045" lon="16.2427617"><ele>433.0</ele><time>2026-05-03T12:19:27.563Z</time></trkpt><trkpt lat="40.9189483" lon="16.2426717"><ele>429.2</ele><time>2026-05-03T12:19:28.563Z</time></trkpt><trkpt lat="40.918855" lon="16.2425783"><ele>425.4</ele><time>2026-05-03T12:19:29.563Z</time></trkpt><trkpt lat="40.91877" lon="16.2425033"><ele>421.59999999999997</ele><time>2026-05-03T12:19:30.563Z</time></trkpt><trkpt lat="40.91869" lon="16.2424183"><ele>417.79999999999995</ele><time>2026-05-03T12:19:31.563Z</time></trkpt><trkpt lat="40.9186133" lon="16.2423317"><ele>414.0</ele><time>2026-05-03T12:19:32.564Z</time></trkpt><trkpt lat="40.9185317" lon="16.2422417"><ele>413.6</ele><time>2026-05-03T12:19:33.564Z</time></trkpt><trkpt lat="40.918455" lon="16.24216"><ele>413.2</ele><time>2026-05-03T12:19:34.563Z</time></trkpt><trkpt lat="40.918395" lon="16.24209"><ele>412.8</ele><time>2026-05-03T12:19:35.563Z</time></trkpt><trkpt lat="40.918325" lon="16.242005"><ele>412.40000000000003</ele><time>2026-05-03T12:19:36.563Z</time></trkpt><trkpt lat="40.9182517" lon="16.2419267"><ele>412.0</ele><time>2026-05-03T12:19:37.563Z</time></trkpt><trkpt lat="40.9181767" lon="16.241845"><ele>409.0</ele><time>2026-05-03T12:19:38.564Z</time></trkpt><trkpt lat="40.9181033" lon="16.241755"><ele>406.0</ele><time>2026-05-03T12:19:39.563Z</time></trkpt><trkpt lat="40.9180283" lon="16.2416617"><ele>403.0</ele><time>2026-05-03T12:19:40.563Z</time></trkpt><trkpt lat="40.91795" lon="16.2415783"><ele>400.0</ele><time>2026-05-03T12:19:41.563Z</time></trkpt><trkpt lat="40.9178633" lon="16.2414967"><ele>397.0</ele><time>2026-05-03T12:19:42.564Z</time></trkpt><trkpt lat="40.9177867" lon="16.2414183"><ele>395.6</ele><time>2026-05-03T12:19:43.564Z</time></trkpt><trkpt lat="40.9177083" lon="16.2413317"><ele>394.20000000000005</ele><time>2026-05-03T12:19:44.563Z</time></trkpt><trkpt lat="40.9176283" lon="16.2412383"><ele>392.8</ele><time>2026-05-03T12:19:45.563Z</time></trkpt><trkpt lat="40.9175533" lon="16.2411433"><ele>391.4</ele><time>2026-05-03T12:19:46.563Z</time></trkpt><trkpt lat="40.9174817" lon="16.2410633"><ele>390.0</ele><time>2026-05-03T12:19:47.563Z</time></trkpt><trkpt lat="40.917415" lon="16.240995"><ele>388.2857142857143</ele><time>2026-05-03T12:19:48.563Z</time></trkpt><trkpt lat="40.9173567" lon="16.2409217"><ele>386.57142857142856</ele><time>2026-05-03T12:19:49.564Z</time></trkpt><trkpt lat="40.917305" lon="16.2408633"><ele>384.8571428571429</ele><time>2026-05-03T12:19:50.563Z</time></trkpt><trkpt lat="40.9172533" lon="16.240815"><ele>383.1428571428571</ele><time>2026-05-03T12:19:51.563Z</time></trkpt><trkpt lat="40.9171983" lon="16.2407533"><ele>381.42857142857144</ele><time>2026-05-03T12:19:52.563Z</time></trkpt><trkpt lat="40.91714" lon="16.24069"><ele>379.7142857142857</ele><time>2026-05-03T12:19:53.563Z</time></trkpt><trkpt lat="40.9170783" lon="16.2406133"><ele>378.0</ele><time>2026-05-03T12:19:54.563Z</time></trkpt><trkpt lat="40.917005" lon="16.240525"><ele>377.4</ele><time>2026-05-03T12:19:55.564Z</time></trkpt><trkpt lat="40.9169317" lon="16.2404367"><ele>376.79999999999995</ele><time>2026-05-03T12:19:56.563Z</time></trkpt><trkpt lat="40.9168633" lon="16.240355"><ele>376.2</ele><time>2026-05-03T12:19:57.563Z</time></trkpt><trkpt lat="40.9167817" lon="16.24026"><ele>375.6</ele><time>2026-05-03T12:19:58.564Z</time></trkpt><trkpt lat="40.9167033" lon="16.2401783"><ele>375.0</ele><time>2026-05-03T12:19:59.564Z</time></trkpt><trkpt lat="40.9166233" lon="16.2400983"><ele>373.2</ele><time>2026-05-03T12:20:00.563Z</time></trkpt><trkpt lat="40.9165467" lon="16.24001"><ele>371.4</ele><time>2026-05-03T12:20:01.563Z</time></trkpt><trkpt lat="40.9164683" lon="16.2399267"><ele>369.6</ele><time>2026-05-03T12:20:02.564Z</time></trkpt><trkpt lat="40.9164017" lon="16.2398483"><ele>367.8</ele><time>2026-05-03T12:20:03.563Z</time></trkpt><trkpt lat="40.91634" lon="16.2397833"><ele>366.0</ele><time>2026-05-03T12:20:04.563Z</time></trkpt><trkpt lat="40.9162717" lon="16.23971"><ele>366.0</ele><time>2026-05-03T12:20:05.563Z</time></trkpt><trkpt lat="40.9161967" lon="16.2396267"><ele>366.0</ele><time>2026-05-03T12:20:06.564Z</time></trkpt><trkpt lat="40.916115" lon="16.2395367"><ele>366.0</ele><time>2026-05-03T12:20:07.563Z</time></trkpt><trkpt lat="40.916035" lon="16.2394433"><ele>366.0</ele><time>2026-05-03T12:20:08.563Z</time></trkpt><trkpt lat="40.9159467" lon="16.2393367"><ele>366.0</ele><time>2026-05-03T12:20:09.564Z</time></trkpt><trkpt lat="40.9158533" lon="16.2392267"><ele>363.75</ele><time>2026-05-03T12:20:10.563Z</time></trkpt><trkpt lat="40.915755" lon="16.239115"><ele>361.5</ele><time>2026-05-03T12:20:11.564Z</time></trkpt><trkpt lat="40.9156583" lon="16.2390033"><ele>359.25</ele><time>2026-05-03T12:20:12.563Z</time></trkpt><trkpt lat="40.9155517" lon="16.2388883"><ele>357.0</ele><time>2026-05-03T12:20:13.564Z</time></trkpt><trkpt lat="40.9154483" lon="16.2387783"><ele>357.0</ele><time>2026-05-03T12:20:14.563Z</time></trkpt><trkpt lat="40.9153533" lon="16.23867"><ele>357.0</ele><time>2026-05-03T12:20:15.563Z</time></trkpt><trkpt lat="40.91527" lon="16.2385783"><ele>357.0</ele><time>2026-05-03T12:20:16.564Z</time></trkpt><trkpt lat="40.9151933" lon="16.238505"><ele>357.0</ele><time>2026-05-03T12:20:17.564Z</time></trkpt><trkpt lat="40.9151267" lon="16.2384283"><ele>357.0</ele><time>2026-05-03T12:20:18.563Z</time></trkpt><trkpt lat="40.91506" lon="16.2383467"><ele>355.40000000000003</ele><time>2026-05-03T12:20:19.563Z</time></trkpt><trkpt lat="40.9149883" lon="16.238265"><ele>353.8</ele><time>2026-05-03T12:20:20.564Z</time></trkpt><trkpt lat="40.91491" lon="16.23817"><ele>352.2</ele><time>2026-05-03T12:20:21.563Z</time></trkpt><trkpt lat="40.9148333" lon="16.2380867"><ele>350.6</ele><time>2026-05-03T12:20:22.563Z</time></trkpt><trkpt lat="40.914765" lon="16.23802"><ele>349.0</ele><time>2026-05-03T12:20:23.564Z</time></trkpt><trkpt lat="40.9147033" lon="16.23796"><ele>349.0</ele><time>2026-05-03T12:20:24.563Z</time></trkpt><trkpt lat="40.9146117" lon="16.2378567"><ele>349.0</ele><time>2026-05-03T12:20:26.563Z</time></trkpt><trkpt lat="40.914525" lon="16.2377483"><ele>349.0</ele><time>2026-05-03T12:20:28.563Z</time></trkpt><trkpt lat="40.914455" lon="16.2376667"><ele>349.0</ele><time>2026-05-03T12:20:30.563Z</time></trkpt><trkpt lat="40.914435" lon="16.2375317"><ele>349.0</ele><time>2026-05-03T12:20:44.562Z</time></trkpt><trkpt lat="40.9144533" lon="16.237445"><ele>349.0</ele><time>2026-05-03T12:20:45.563Z</time></trkpt><trkpt lat="40.914495" lon="16.237345"><ele>349.0</ele><time>2026-05-03T12:20:46.563Z</time></trkpt><trkpt lat="40.9145467" lon="16.2372317"><ele>349.0</ele><time>2026-05-03T12:20:47.564Z</time></trkpt><trkpt lat="40.914595" lon="16.2370967"><ele>349.0</ele><time>2026-05-03T12:20:48.564Z</time></trkpt><trkpt lat="40.9146467" lon="16.236955"><ele>349.0</ele><time>2026-05-03T12:20:49.563Z</time></trkpt><trkpt lat="40.9147017" lon="16.2367933"><ele>347.75</ele><time>2026-05-03T12:20:50.563Z</time></trkpt><trkpt lat="40.9147683" lon="16.23662"><ele>346.5</ele><time>2026-05-03T12:20:51.564Z</time></trkpt><trkpt lat="40.9148333" lon="16.2364483"><ele>345.25</ele><time>2026-05-03T12:20:52.563Z</time></trkpt><trkpt lat="40.9148967" lon="16.23628"><ele>344.0</ele><time>2026-05-03T12:20:53.563Z</time></trkpt><trkpt lat="40.9149633" lon="16.2360933"><ele>344.0</ele><time>2026-05-03T12:20:54.563Z</time></trkpt><trkpt lat="40.9150267" lon="16.2359067"><ele>344.0</ele><time>2026-05-03T12:20:55.563Z</time></trkpt><trkpt lat="40.915095" lon="16.2357333"><ele>344.0</ele><time>2026-05-03T12:20:56.563Z</time></trkpt><trkpt lat="40.91516" lon="16.235555"><ele>346.33333333333337</ele><time>2026-05-03T12:20:57.564Z</time></trkpt><trkpt lat="40.9152317" lon="16.2353633"><ele>348.6666666666667</ele><time>2026-05-03T12:20:58.563Z</time></trkpt><trkpt lat="40.91531" lon="16.2351767"><ele>351.0</ele><time>2026-05-03T12:20:59.563Z</time></trkpt><trkpt lat="40.9153817" lon="16.23499"><ele>352.3333333333333</ele><time>2026-05-03T12:21:00.564Z</time></trkpt><trkpt lat="40.9154483" lon="16.2347967"><ele>353.66666666666663</ele><time>2026-05-03T12:21:01.564Z</time></trkpt><trkpt lat="40.91552" lon="16.2345967"><ele>355.0</ele><time>2026-05-03T12:21:02.563Z</time></trkpt><trkpt lat="40.9155883" lon="16.2344017"><ele>355.0</ele><time>2026-05-03T12:21:03.563Z</time></trkpt><trkpt lat="40.9156617" lon="16.2342167"><ele>355.0</ele><time>2026-05-03T12:21:04.563Z</time></trkpt><trkpt lat="40.91573" lon="16.2340433"><ele>355.0</ele><time>2026-05-03T12:21:05.563Z</time></trkpt><trkpt lat="40.9157983" lon="16.2338717"><ele>357.0</ele><time>2026-05-03T12:21:06.563Z</time></trkpt><trkpt lat="40.9158667" lon="16.233695"><ele>359.0</ele><time>2026-05-03T12:21:07.563Z</time></trkpt><trkpt lat="40.9159283" lon="16.2335233"><ele>361.0</ele><time>2026-05-03T12:21:08.563Z</time></trkpt><trkpt lat="40.9159933" lon="16.23336"><ele>363.0</ele><time>2026-05-03T12:21:09.563Z</time></trkpt><trkpt lat="40.916055" lon="16.2331933"><ele>362.25</ele><time>2026-05-03T12:21:10.564Z</time></trkpt><trkpt lat="40.916105" lon="16.2330383"><ele>361.5</ele><time>2026-05-03T12:21:11.564Z</time></trkpt><trkpt lat="40.916155" lon="16.232895"><ele>360.75</ele><time>2026-05-03T12:21:12.564Z</time></trkpt><trkpt lat="40.916205" lon="16.232755"><ele>360.0</ele><time>2026-05-03T12:21:13.563Z</time></trkpt><trkpt lat="40.9162533" lon="16.232595"><ele>360.0</ele><time>2026-05-03T12:21:14.564Z</time></trkpt><trkpt lat="40.9163117" lon="16.2324333"><ele>360.0</ele><time>2026-05-03T12:21:15.564Z</time></trkpt><trkpt lat="40.91638" lon="16.2322767"><ele>360.0</ele><time>2026-05-03T12:21:16.564Z</time></trkpt><trkpt lat="40.91644" lon="16.2321183"><ele>360.0</ele><time>2026-05-03T12:21:17.563Z</time></trkpt><trkpt lat="40.9165033" lon="16.2319433"><ele>356.0</ele><time>2026-05-03T12:21:18.564Z</time></trkpt><trkpt lat="40.9165667" lon="16.231755"><ele>352.0</ele><time>2026-05-03T12:21:19.564Z</time></trkpt><trkpt lat="40.9166467" lon="16.231575"><ele>348.0</ele><time>2026-05-03T12:21:20.564Z</time></trkpt><trkpt lat="40.9167233" lon="16.2313817"><ele>349.3333333333333</ele><time>2026-05-03T12:21:21.563Z</time></trkpt><trkpt lat="40.9167917" lon="16.2311817"><ele>350.66666666666663</ele><time>2026-05-03T12:21:22.564Z</time></trkpt><trkpt lat="40.9168617" lon="16.230985"><ele>352.0</ele><time>2026-05-03T12:21:23.564Z</time></trkpt><trkpt lat="40.9169383" lon="16.2307767"><ele>352.0</ele><time>2026-05-03T12:21:24.563Z</time></trkpt><trkpt lat="40.9170233" lon="16.2305617"><ele>352.0</ele><time>2026-05-03T12:21:25.563Z</time></trkpt><trkpt lat="40.9171033" lon="16.2303517"><ele>352.0</ele><time>2026-05-03T12:21:26.564Z</time></trkpt><trkpt lat="40.917175" lon="16.23014"><ele>352.0</ele><time>2026-05-03T12:21:27.564Z</time></trkpt><trkpt lat="40.917255" lon="16.2299383"><ele>352.0</ele><time>2026-05-03T12:21:28.563Z</time></trkpt><trkpt lat="40.91733" lon="16.2297283"><ele>352.0</ele><time>2026-05-03T12:21:29.563Z</time></trkpt><trkpt lat="40.9174067" lon="16.2295267"><ele>352.3333333333333</ele><time>2026-05-03T12:21:30.563Z</time></trkpt><trkpt lat="40.9174783" lon="16.2293317"><ele>352.6666666666667</ele><time>2026-05-03T12:21:31.563Z</time></trkpt><trkpt lat="40.9175483" lon="16.229135"><ele>353.0</ele><time>2026-05-03T12:21:32.563Z</time></trkpt><trkpt lat="40.91762" lon="16.2289333"><ele>353.0</ele><time>2026-05-03T12:21:33.564Z</time></trkpt><trkpt lat="40.917695" lon="16.2287267"><ele>353.0</ele><time>2026-05-03T12:21:34.563Z</time></trkpt><trkpt lat="40.9177767" lon="16.22852"><ele>353.0</ele><time>2026-05-03T12:21:35.563Z</time></trkpt><trkpt lat="40.917855" lon="16.2283017"><ele>353.33333333333337</ele><time>2026-05-03T12:21:36.563Z</time></trkpt><trkpt lat="40.9179283" lon="16.2281"><ele>353.6666666666667</ele><time>2026-05-03T12:21:37.563Z</time></trkpt><trkpt lat="40.9179983" lon="16.2279133"><ele>354.0</ele><time>2026-05-03T12:21:38.563Z</time></trkpt><trkpt lat="40.9180567" lon="16.227755"><ele>354.0</ele><time>2026-05-03T12:21:39.563Z</time></trkpt><trkpt lat="40.91811" lon="16.2276283"><ele>354.0</ele><time>2026-05-03T12:21:40.563Z</time></trkpt><trkpt lat="40.9181583" lon="16.227505"><ele>354.0</ele><time>2026-05-03T12:21:41.564Z</time></trkpt><trkpt lat="40.9181983" lon="16.2273983"><ele>354.0</ele><time>2026-05-03T12:21:42.563Z</time></trkpt><trkpt lat="40.9182383" lon="16.2273"><ele>354.0</ele><time>2026-05-03T12:21:43.563Z</time></trkpt><trkpt lat="40.9182717" lon="16.227205"><ele>353.2</ele><time>2026-05-03T12:21:44.564Z</time></trkpt><trkpt lat="40.9183183" lon="16.227105"><ele>352.4</ele><time>2026-05-03T12:21:45.564Z</time></trkpt><trkpt lat="40.91836" lon="16.2269817"><ele>351.6</ele><time>2026-05-03T12:21:46.563Z</time></trkpt><trkpt lat="40.91841" lon="16.2268533"><ele>350.8</ele><time>2026-05-03T12:21:47.564Z</time></trkpt><trkpt lat="40.9184633" lon="16.2267117"><ele>350.0</ele><time>2026-05-03T12:21:48.564Z</time></trkpt><trkpt lat="40.9185167" lon="16.22658"><ele>351.0</ele><time>2026-05-03T12:21:49.563Z</time></trkpt><trkpt lat="40.9185667" lon="16.2264517"><ele>352.0</ele><time>2026-05-03T12:21:50.563Z</time></trkpt><trkpt lat="40.9186133" lon="16.2263283"><ele>353.0</ele><time>2026-05-03T12:21:51.564Z</time></trkpt><trkpt lat="40.9186583" lon="16.2262167"><ele>354.0</ele><time>2026-05-03T12:21:52.563Z</time></trkpt><trkpt lat="40.918695" lon="16.2261167"><ele>355.0</ele><time>2026-05-03T12:21:53.564Z</time></trkpt><trkpt lat="40.91873" lon="16.2260217"><ele>355.0</ele><time>2026-05-03T12:21:54.563Z</time></trkpt><trkpt lat="40.91877" lon="16.22594"><ele>355.0</ele><time>2026-05-03T12:21:55.564Z</time></trkpt><trkpt lat="40.9188067" lon="16.2257967"><ele>355.0</ele><time>2026-05-03T12:21:57.563Z</time></trkpt><trkpt lat="40.91876" lon="16.225695"><ele>355.0</ele><time>2026-05-03T12:21:59.563Z</time></trkpt><trkpt lat="40.9186917" lon="16.225665"><ele>355.0</ele><time>2026-05-03T12:22:00.563Z</time></trkpt><trkpt lat="40.91858" lon="16.2256467"><ele>355.0</ele><time>2026-05-03T12:22:01.564Z</time></trkpt><trkpt lat="40.91845" lon="16.225625"><ele>355.0</ele><time>2026-05-03T12:22:02.564Z</time></trkpt><trkpt lat="40.918315" lon="16.2255817"><ele>355.0</ele><time>2026-05-03T12:22:03.563Z</time></trkpt><trkpt lat="40.9181683" lon="16.2255317"><ele>355.0</ele><time>2026-05-03T12:22:04.563Z</time></trkpt><trkpt lat="40.9180217" lon="16.2254667"><ele>350.66666666666663</ele><time>2026-05-03T12:22:05.563Z</time></trkpt><trkpt lat="40.9178733" lon="16.2253833"><ele>346.3333333333333</ele><time>2026-05-03T12:22:06.564Z</time></trkpt><trkpt lat="40.9177283" lon="16.225285"><ele>342.0</ele><time>2026-05-03T12:22:07.564Z</time></trkpt><trkpt lat="40.9175883" lon="16.225185"><ele>340.0</ele><time>2026-05-03T12:22:08.563Z</time></trkpt><trkpt lat="40.91745" lon="16.22507"><ele>338.0</ele><time>2026-05-03T12:22:09.564Z</time></trkpt><trkpt lat="40.91732" lon="16.2249567"><ele>336.0</ele><time>2026-05-03T12:22:10.563Z</time></trkpt><trkpt lat="40.9172017" lon="16.224855"><ele>335.6</ele><time>2026-05-03T12:22:11.563Z</time></trkpt><trkpt lat="40.9171" lon="16.2247717"><ele>335.20000000000005</ele><time>2026-05-03T12:22:12.563Z</time></trkpt><trkpt lat="40.9170017" lon="16.2246917"><ele>334.79999999999995</ele><time>2026-05-03T12:22:13.564Z</time></trkpt><trkpt lat="40.916925" lon="16.2245933"><ele>334.4</ele><time>2026-05-03T12:22:14.564Z</time></trkpt><trkpt lat="40.916875" lon="16.22449"><ele>334.0</ele><time>2026-05-03T12:22:15.563Z</time></trkpt><trkpt lat="40.91686" lon="16.2243867"><ele>334.0</ele><time>2026-05-03T12:22:16.564Z</time></trkpt><trkpt lat="40.9168833" lon="16.2242817"><ele>334.0</ele><time>2026-05-03T12:22:17.563Z</time></trkpt><trkpt lat="40.9169233" lon="16.224165"><ele>334.0</ele><time>2026-05-03T12:22:18.563Z</time></trkpt><trkpt lat="40.91698" lon="16.2240333"><ele>334.0</ele><time>2026-05-03T12:22:19.564Z</time></trkpt><trkpt lat="40.91704" lon="16.2238717"><ele>334.0</ele><time>2026-05-03T12:22:20.564Z</time></trkpt><trkpt lat="40.9171033" lon="16.2236933"><ele>332.66666666666663</ele><time>2026-05-03T12:22:21.564Z</time></trkpt><trkpt lat="40.9171683" lon="16.2235083"><ele>331.3333333333333</ele><time>2026-05-03T12:22:22.564Z</time></trkpt><trkpt lat="40.9172317" lon="16.22333"><ele>330.0</ele><time>2026-05-03T12:22:23.564Z</time></trkpt><trkpt lat="40.9172933" lon="16.223145"><ele>329.75</ele><time>2026-05-03T12:22:24.563Z</time></trkpt><trkpt lat="40.9173533" lon="16.2229683"><ele>329.5</ele><time>2026-05-03T12:22:25.563Z</time></trkpt><trkpt lat="40.9174133" lon="16.2227967"><ele>329.25</ele><time>2026-05-03T12:22:26.563Z</time></trkpt><trkpt lat="40.9174733" lon="16.22264"><ele>329.0</ele><time>2026-05-03T12:22:27.563Z</time></trkpt><trkpt lat="40.91753" lon="16.2224867"><ele>329.79999999999995</ele><time>2026-05-03T12:22:28.564Z</time></trkpt><trkpt lat="40.91759" lon="16.22235"><ele>330.59999999999997</ele><time>2026-05-03T12:22:29.563Z</time></trkpt><trkpt lat="40.9176367" lon="16.222215"><ele>331.4</ele><time>2026-05-03T12:22:30.564Z</time></trkpt><trkpt lat="40.917675" lon="16.2220767"><ele>332.2</ele><time>2026-05-03T12:22:31.564Z</time></trkpt><trkpt lat="40.9177183" lon="16.2219633"><ele>333.0</ele><time>2026-05-03T12:22:32.563Z</time></trkpt><trkpt lat="40.917745" lon="16.2218683"><ele>333.0</ele><time>2026-05-03T12:22:33.563Z</time></trkpt><trkpt lat="40.9177533" lon="16.22178"><ele>333.0</ele><time>2026-05-03T12:22:34.563Z</time></trkpt><trkpt lat="40.9177367" lon="16.2216967"><ele>333.0</ele><time>2026-05-03T12:22:35.564Z</time></trkpt><trkpt lat="40.9176867" lon="16.221625"><ele>333.0</ele><time>2026-05-03T12:22:36.563Z</time></trkpt><trkpt lat="40.9176033" lon="16.2215633"><ele>333.0</ele><time>2026-05-03T12:22:37.564Z</time></trkpt><trkpt lat="40.9175033" lon="16.2215117"><ele>333.0</ele><time>2026-05-03T12:22:38.563Z</time></trkpt><trkpt lat="40.9173783" lon="16.2214467"><ele>329.6666666666667</ele><time>2026-05-03T12:22:39.563Z</time></trkpt><trkpt lat="40.9172317" lon="16.22137"><ele>326.33333333333337</ele><time>2026-05-03T12:22:40.563Z</time></trkpt><trkpt lat="40.9170817" lon="16.2212883"><ele>323.0</ele><time>2026-05-03T12:22:41.564Z</time></trkpt><trkpt lat="40.916925" lon="16.2211983"><ele>323.0</ele><time>2026-05-03T12:22:42.563Z</time></trkpt><trkpt lat="40.91676" lon="16.2211117"><ele>323.0</ele><time>2026-05-03T12:22:43.564Z</time></trkpt><trkpt lat="40.916595" lon="16.221025"><ele>323.0</ele><time>2026-05-03T12:22:44.563Z</time></trkpt><trkpt lat="40.9164217" lon="16.2209233"><ele>321.33333333333337</ele><time>2026-05-03T12:22:45.563Z</time></trkpt><trkpt lat="40.9162467" lon="16.22082"><ele>319.6666666666667</ele><time>2026-05-03T12:22:46.563Z</time></trkpt><trkpt lat="40.9160733" lon="16.2207183"><ele>318.0</ele><time>2026-05-03T12:22:47.563Z</time></trkpt><trkpt lat="40.9158933" lon="16.2206183"><ele>316.6666666666667</ele><time>2026-05-03T12:22:48.564Z</time></trkpt><trkpt lat="40.915715" lon="16.2205183"><ele>315.33333333333337</ele><time>2026-05-03T12:22:49.563Z</time></trkpt><trkpt lat="40.9155267" lon="16.2204083"><ele>314.0</ele><time>2026-05-03T12:22:50.563Z</time></trkpt><trkpt lat="40.9153417" lon="16.2203017"><ele>314.0</ele><time>2026-05-03T12:22:51.563Z</time></trkpt><trkpt lat="40.915155" lon="16.2201933"><ele>314.0</ele><time>2026-05-03T12:22:52.563Z</time></trkpt><trkpt lat="40.9149717" lon="16.220085"><ele>314.0</ele><time>2026-05-03T12:22:53.564Z</time></trkpt><trkpt lat="40.9147833" lon="16.2199733"><ele>312.6666666666667</ele><time>2026-05-03T12:22:54.563Z</time></trkpt><trkpt lat="40.9146017" lon="16.2198667"><ele>311.3333333333333</ele><time>2026-05-03T12:22:55.564Z</time></trkpt><trkpt lat="40.91442" lon="16.2197617"><ele>310.0</ele><time>2026-05-03T12:22:56.564Z</time></trkpt><trkpt lat="40.9142483" lon="16.2196533"><ele>309.0</ele><time>2026-05-03T12:22:57.563Z</time></trkpt><trkpt lat="40.9140633" lon="16.2195533"><ele>308.0</ele><time>2026-05-03T12:22:58.564Z</time></trkpt><trkpt lat="40.91388" lon="16.2194583"><ele>307.0</ele><time>2026-05-03T12:22:59.563Z</time></trkpt><trkpt lat="40.913695" lon="16.2193533"><ele>307.0</ele><time>2026-05-03T12:23:00.563Z</time></trkpt><trkpt lat="40.9135117" lon="16.219245"><ele>307.0</ele><time>2026-05-03T12:23:01.563Z</time></trkpt><trkpt lat="40.91333" lon="16.2191417"><ele>307.0</ele><time>2026-05-03T12:23:02.563Z</time></trkpt><trkpt lat="40.9131517" lon="16.2190433"><ele>307.66666666666663</ele><time>2026-05-03T12:23:03.564Z</time></trkpt><trkpt lat="40.9129767" lon="16.2189483"><ele>308.3333333333333</ele><time>2026-05-03T12:23:04.563Z</time></trkpt><trkpt lat="40.9128033" lon="16.218845"><ele>309.0</ele><time>2026-05-03T12:23:05.563Z</time></trkpt><trkpt lat="40.9126333" lon="16.2187383"><ele>307.6666666666667</ele><time>2026-05-03T12:23:06.563Z</time></trkpt><trkpt lat="40.9124583" lon="16.218635"><ele>306.33333333333337</ele><time>2026-05-03T12:23:07.564Z</time></trkpt><trkpt lat="40.9122917" lon="16.218535"><ele>305.0</ele><time>2026-05-03T12:23:08.563Z</time></trkpt><trkpt lat="40.912115" lon="16.2184333"><ele>305.0</ele><time>2026-05-03T12:23:09.564Z</time></trkpt><trkpt lat="40.9119367" lon="16.2183333"><ele>305.0</ele><time>2026-05-03T12:23:10.564Z</time></trkpt><trkpt lat="40.9117583" lon="16.2182317"><ele>305.0</ele><time>2026-05-03T12:23:11.563Z</time></trkpt><trkpt lat="40.9115783" lon="16.21813"><ele>305.0</ele><time>2026-05-03T12:23:12.564Z</time></trkpt><trkpt lat="40.9114" lon="16.2180233"><ele>305.0</ele><time>2026-05-03T12:23:13.563Z</time></trkpt><trkpt lat="40.9112183" lon="16.2179183"><ele>305.0</ele><time>2026-05-03T12:23:14.564Z</time></trkpt><trkpt lat="40.9110367" lon="16.2178083"><ele>303.6666666666667</ele><time>2026-05-03T12:23:15.563Z</time></trkpt><trkpt lat="40.9108583" lon="16.2177117"><ele>302.3333333333333</ele><time>2026-05-03T12:23:16.563Z</time></trkpt><trkpt lat="40.91068" lon="16.21761"><ele>301.0</ele><time>2026-05-03T12:23:17.564Z</time></trkpt><trkpt lat="40.9105017" lon="16.21751"><ele>301.0</ele><time>2026-05-03T12:23:18.563Z</time></trkpt><trkpt lat="40.9103233" lon="16.21741"><ele>301.0</ele><time>2026-05-03T12:23:19.563Z</time></trkpt><trkpt lat="40.910155" lon="16.217315"><ele>301.0</ele><time>2026-05-03T12:23:20.563Z</time></trkpt><trkpt lat="40.9099983" lon="16.2172283"><ele>301.75</ele><time>2026-05-03T12:23:21.563Z</time></trkpt><trkpt lat="40.9098517" lon="16.2171483"><ele>302.5</ele><time>2026-05-03T12:23:22.563Z</time></trkpt><trkpt lat="40.909725" lon="16.2170667"><ele>303.25</ele><time>2026-05-03T12:23:23.563Z</time></trkpt><trkpt lat="40.9096067" lon="16.216995"><ele>304.0</ele><time>2026-05-03T12:23:24.564Z</time></trkpt><trkpt lat="40.9094933" lon="16.2169233"><ele>304.0</ele><time>2026-05-03T12:23:25.563Z</time></trkpt><trkpt lat="40.9093833" lon="16.216865"><ele>304.0</ele><time>2026-05-03T12:23:26.564Z</time></trkpt><trkpt lat="40.9092717" lon="16.2168"><ele>304.0</ele><time>2026-05-03T12:23:27.563Z</time></trkpt><trkpt lat="40.9091483" lon="16.2167333"><ele>304.0</ele><time>2026-05-03T12:23:28.563Z</time></trkpt><trkpt lat="40.909025" lon="16.216665"><ele>303.5</ele><time>2026-05-03T12:23:29.564Z</time></trkpt><trkpt lat="40.9089033" lon="16.2166033"><ele>303.0</ele><time>2026-05-03T12:23:30.563Z</time></trkpt><trkpt lat="40.9087917" lon="16.216535"><ele>302.5</ele><time>2026-05-03T12:23:31.564Z</time></trkpt><trkpt lat="40.9086733" lon="16.2164733"><ele>302.0</ele><time>2026-05-03T12:23:32.563Z</time></trkpt><trkpt lat="40.9085683" lon="16.2164133"><ele>302.0</ele><time>2026-05-03T12:23:33.563Z</time></trkpt><trkpt lat="40.9084633" lon="16.216355"><ele>302.0</ele><time>2026-05-03T12:23:34.563Z</time></trkpt><trkpt lat="40.9083533" lon="16.2162933"><ele>302.0</ele><time>2026-05-03T12:23:35.564Z</time></trkpt><trkpt lat="40.9082467" lon="16.2162367"><ele>302.0</ele><time>2026-05-03T12:23:36.563Z</time></trkpt><trkpt lat="40.9081417" lon="16.2161833"><ele>300.83333333333337</ele><time>2026-05-03T12:23:37.563Z</time></trkpt><trkpt lat="40.9080567" lon="16.216135"><ele>299.6666666666667</ele><time>2026-05-03T12:23:38.564Z</time></trkpt><trkpt lat="40.9079833" lon="16.216085"><ele>298.5</ele><time>2026-05-03T12:23:39.563Z</time></trkpt><trkpt lat="40.90791" lon="16.2160183"><ele>297.3333333333333</ele><time>2026-05-03T12:23:41.563Z</time></trkpt><trkpt lat="40.907925" lon="16.2159233"><ele>296.16666666666663</ele><time>2026-05-03T12:23:43.563Z</time></trkpt><trkpt lat="40.907965" lon="16.2158517"><ele>295.0</ele><time>2026-05-03T12:23:44.564Z</time></trkpt><trkpt lat="40.908015" lon="16.2157583"><ele>295.0</ele><time>2026-05-03T12:23:45.563Z</time></trkpt><trkpt lat="40.908065" lon="16.215645"><ele>295.0</ele><time>2026-05-03T12:23:46.563Z</time></trkpt><trkpt lat="40.9081217" lon="16.2155183"><ele>295.0</ele><time>2026-05-03T12:23:47.563Z</time></trkpt><trkpt lat="40.90818" lon="16.2153817"><ele>295.0</ele><time>2026-05-03T12:23:48.563Z</time></trkpt><trkpt lat="40.908245" lon="16.2152417"><ele>295.0</ele><time>2026-05-03T12:23:49.563Z</time></trkpt><trkpt lat="40.908315" lon="16.215095"><ele>295.0</ele><time>2026-05-03T12:23:50.563Z</time></trkpt><trkpt lat="40.9083817" lon="16.214945"><ele>295.0</ele><time>2026-05-03T12:23:51.564Z</time></trkpt><trkpt lat="40.9084517" lon="16.2147833"><ele>295.0</ele><time>2026-05-03T12:23:52.563Z</time></trkpt><trkpt lat="40.9085217" lon="16.2146167"><ele>294.3333333333333</ele><time>2026-05-03T12:23:53.564Z</time></trkpt><trkpt lat="40.9085967" lon="16.2144467"><ele>293.6666666666667</ele><time>2026-05-03T12:23:54.564Z</time></trkpt><trkpt lat="40.90868" lon="16.2142683"><ele>293.0</ele><time>2026-05-03T12:23:55.564Z</time></trkpt><trkpt lat="40.90876" lon="16.2140883"><ele>292.33333333333337</ele><time>2026-05-03T12:23:56.563Z</time></trkpt><trkpt lat="40.9088367" lon="16.2139117"><ele>291.6666666666667</ele><time>2026-05-03T12:23:57.563Z</time></trkpt><trkpt lat="40.9089183" lon="16.213735"><ele>291.0</ele><time>2026-05-03T12:23:58.563Z</time></trkpt><trkpt lat="40.9090117" lon="16.2135683"><ele>291.0</ele><time>2026-05-03T12:23:59.564Z</time></trkpt><trkpt lat="40.909125" lon="16.2134117"><ele>291.0</ele><time>2026-05-03T12:24:00.563Z</time></trkpt><trkpt lat="40.90926" lon="16.2132783"><ele>291.0</ele><time>2026-05-03T12:24:01.564Z</time></trkpt><trkpt lat="40.9094067" lon="16.21317"><ele>290.6666666666667</ele><time>2026-05-03T12:24:02.564Z</time></trkpt><trkpt lat="40.9095617" lon="16.2130717"><ele>290.33333333333337</ele><time>2026-05-03T12:24:03.563Z</time></trkpt><trkpt lat="40.9097067" lon="16.212965"><ele>290.0</ele><time>2026-05-03T12:24:04.563Z</time></trkpt><trkpt lat="40.9098583" lon="16.212865"><ele>290.0</ele><time>2026-05-03T12:24:05.563Z</time></trkpt><trkpt lat="40.9100083" lon="16.212765"><ele>290.0</ele><time>2026-05-03T12:24:06.563Z</time></trkpt><trkpt lat="40.91016" lon="16.21266"><ele>290.0</ele><time>2026-05-03T12:24:07.563Z</time></trkpt><trkpt lat="40.910315" lon="16.212555"><ele>290.33333333333337</ele><time>2026-05-03T12:24:08.564Z</time></trkpt><trkpt lat="40.9104633" lon="16.2124433"><ele>290.6666666666667</ele><time>2026-05-03T12:24:09.563Z</time></trkpt><trkpt lat="40.9106083" lon="16.2123183"><ele>291.0</ele><time>2026-05-03T12:24:10.563Z</time></trkpt><trkpt lat="40.91074" lon="16.212165"><ele>291.0</ele><time>2026-05-03T12:24:11.563Z</time></trkpt><trkpt lat="40.9108517" lon="16.2119933"><ele>291.0</ele><time>2026-05-03T12:24:12.564Z</time></trkpt><trkpt lat="40.9109533" lon="16.2118"><ele>291.0</ele><time>2026-05-03T12:24:13.563Z</time></trkpt><trkpt lat="40.9110433" lon="16.2115917"><ele>291.6666666666667</ele><time>2026-05-03T12:24:14.563Z</time></trkpt><trkpt lat="40.9111167" lon="16.2113617"><ele>292.33333333333337</ele><time>2026-05-03T12:24:15.563Z</time></trkpt><trkpt lat="40.9111733" lon="16.2111317"><ele>293.0</ele><time>2026-05-03T12:24:16.563Z</time></trkpt><trkpt lat="40.9112206" lon="16.2108937"><ele>292.33333333333337</ele><time>2026-05-03T12:24:17.563Z</time></trkpt><trkpt lat="40.9112642" lon="16.2106541"><ele>291.6666666666667</ele><time>2026-05-03T12:24:18.563Z</time></trkpt><trkpt lat="40.9113145" lon="16.2104152"><ele>291.0</ele><time>2026-05-03T12:24:19.563Z</time></trkpt><trkpt lat="40.9113599" lon="16.2101785"><ele>291.0</ele><time>2026-05-03T12:24:20.563Z</time></trkpt><trkpt lat="40.9114039" lon="16.2099409"><ele>291.0</ele><time>2026-05-03T12:24:21.564Z</time></trkpt><trkpt lat="40.9114464" lon="16.2097102"><ele>291.0</ele><time>2026-05-03T12:24:22.563Z</time></trkpt><trkpt lat="40.9114859" lon="16.2094796"><ele>291.0</ele><time>2026-05-03T12:24:23.563Z</time></trkpt><trkpt lat="40.9115311" lon="16.2092519"><ele>291.0</ele><time>2026-05-03T12:24:24.563Z</time></trkpt><trkpt lat="40.9115837" lon="16.2090276"><ele>291.0</ele><time>2026-05-03T12:24:25.563Z</time></trkpt><trkpt lat="40.9116547" lon="16.2088149"><ele>291.6666666666667</ele><time>2026-05-03T12:24:26.563Z</time></trkpt><trkpt lat="40.9117594" lon="16.2086256"><ele>292.33333333333337</ele><time>2026-05-03T12:24:27.564Z</time></trkpt><trkpt lat="40.9118901" lon="16.2084557"><ele>293.0</ele><time>2026-05-03T12:24:28.563Z</time></trkpt><trkpt lat="40.9120261" lon="16.2082823"><ele>293.6666666666667</ele><time>2026-05-03T12:24:29.563Z</time></trkpt><trkpt lat="40.9121648" lon="16.2081057"><ele>294.3333333333333</ele><time>2026-05-03T12:24:30.563Z</time></trkpt><trkpt lat="40.9123027" lon="16.2079297"><ele>295.0</ele><time>2026-05-03T12:24:31.563Z</time></trkpt><trkpt lat="40.9124466" lon="16.2077611"><ele>294.66666666666663</ele><time>2026-05-03T12:24:32.563Z</time></trkpt><trkpt lat="40.9125919" lon="16.2075907"><ele>294.3333333333333</ele><time>2026-05-03T12:24:33.564Z</time></trkpt><trkpt lat="40.9127352" lon="16.2074204"><ele>294.0</ele><time>2026-05-03T12:24:34.564Z</time></trkpt><trkpt lat="40.9128759" lon="16.2072519"><ele>294.0</ele><time>2026-05-03T12:24:35.564Z</time></trkpt><trkpt lat="40.9130127" lon="16.207079"><ele>294.0</ele><time>2026-05-03T12:24:36.563Z</time></trkpt><trkpt lat="40.9131497" lon="16.2069064"><ele>294.0</ele><time>2026-05-03T12:24:37.563Z</time></trkpt><trkpt lat="40.9132917" lon="16.2067313"><ele>294.3333333333333</ele><time>2026-05-03T12:24:38.563Z</time></trkpt><trkpt lat="40.9134365" lon="16.2065613"><ele>294.66666666666663</ele><time>2026-05-03T12:24:39.563Z</time></trkpt><trkpt lat="40.9135783" lon="16.20639"><ele>295.0</ele><time>2026-05-03T12:24:40.563Z</time></trkpt><trkpt lat="40.9137176" lon="16.2062175"><ele>295.3333333333333</ele><time>2026-05-03T12:24:41.563Z</time></trkpt><trkpt lat="40.9138587" lon="16.2060419"><ele>295.6666666666667</ele><time>2026-05-03T12:24:42.563Z</time></trkpt><trkpt lat="40.9140037" lon="16.2058666"><ele>296.0</ele><time>2026-05-03T12:24:43.563Z</time></trkpt><trkpt lat="40.9141478" lon="16.2056889"><ele>296.0</ele><time>2026-05-03T12:24:44.563Z</time></trkpt><trkpt lat="40.9142879" lon="16.2055131"><ele>296.0</ele><time>2026-05-03T12:24:45.564Z</time></trkpt><trkpt lat="40.9144295" lon="16.2053358"><ele>296.0</ele><time>2026-05-03T12:24:46.564Z</time></trkpt><trkpt lat="40.9145732" lon="16.2051615"><ele>296.0</ele><time>2026-05-03T12:24:47.563Z</time></trkpt><trkpt lat="40.9147173" lon="16.204991"><ele>296.0</ele><time>2026-05-03T12:24:48.563Z</time></trkpt><trkpt lat="40.9148585" lon="16.2048222"><ele>296.0</ele><time>2026-05-03T12:24:49.563Z</time></trkpt><trkpt lat="40.9149983" lon="16.2046517"><ele>296.0</ele><time>2026-05-03T12:24:50.563Z</time></trkpt><trkpt lat="40.9151383" lon="16.2044733"><ele>296.0</ele><time>2026-05-03T12:24:51.563Z</time></trkpt><trkpt lat="40.9152817" lon="16.2043067"><ele>296.0</ele><time>2026-05-03T12:24:52.563Z</time></trkpt><trkpt lat="40.915425" lon="16.2041367"><ele>297.0</ele><time>2026-05-03T12:24:53.563Z</time></trkpt><trkpt lat="40.9155667" lon="16.2039667"><ele>298.0</ele><time>2026-05-03T12:24:54.563Z</time></trkpt><trkpt lat="40.9157033" lon="16.2038033"><ele>299.0</ele><time>2026-05-03T12:24:55.563Z</time></trkpt><trkpt lat="40.915845" lon="16.20364"><ele>298.33333333333337</ele><time>2026-05-03T12:24:56.563Z</time></trkpt><trkpt lat="40.9159917" lon="16.2034933"><ele>297.6666666666667</ele><time>2026-05-03T12:24:57.563Z</time></trkpt><trkpt lat="40.91615" lon="16.20336"><ele>297.0</ele><time>2026-05-03T12:24:58.563Z</time></trkpt><trkpt lat="40.9163133" lon="16.2032417"><ele>297.0</ele><time>2026-05-03T12:24:59.563Z</time></trkpt><trkpt lat="40.91648" lon="16.203135"><ele>297.0</ele><time>2026-05-03T12:25:00.563Z</time></trkpt><trkpt lat="40.91665" lon="16.2030283"><ele>297.0</ele><time>2026-05-03T12:25:01.563Z</time></trkpt><trkpt lat="40.9168283" lon="16.2029233"><ele>297.3333333333333</ele><time>2026-05-03T12:25:02.563Z</time></trkpt><trkpt lat="40.9170017" lon="16.2028233"><ele>297.66666666666663</ele><time>2026-05-03T12:25:03.563Z</time></trkpt><trkpt lat="40.9171767" lon="16.2027217"><ele>298.0</ele><time>2026-05-03T12:25:04.563Z</time></trkpt><trkpt lat="40.9173483" lon="16.20262"><ele>298.0</ele><time>2026-05-03T12:25:05.563Z</time></trkpt><trkpt lat="40.9175233" lon="16.2025167"><ele>298.0</ele><time>2026-05-03T12:25:06.564Z</time></trkpt><trkpt lat="40.9176867" lon="16.2024183"><ele>298.0</ele><time>2026-05-03T12:25:07.564Z</time></trkpt><trkpt lat="40.9178567" lon="16.2023317"><ele>298.3333333333333</ele><time>2026-05-03T12:25:08.563Z</time></trkpt><trkpt lat="40.9180267" lon="16.2022467"><ele>298.6666666666667</ele><time>2026-05-03T12:25:09.564Z</time></trkpt><trkpt lat="40.9182" lon="16.2021567"><ele>299.0</ele><time>2026-05-03T12:25:10.563Z</time></trkpt><trkpt lat="40.91837" lon="16.2020733"><ele>299.33333333333337</ele><time>2026-05-03T12:25:11.564Z</time></trkpt><trkpt lat="40.9185417" lon="16.2019967"><ele>299.6666666666667</ele><time>2026-05-03T12:25:12.564Z</time></trkpt><trkpt lat="40.9187183" lon="16.2019167"><ele>300.0</ele><time>2026-05-03T12:25:13.564Z</time></trkpt><trkpt lat="40.918895" lon="16.2018433"><ele>300.0</ele><time>2026-05-03T12:25:14.563Z</time></trkpt><trkpt lat="40.9190683" lon="16.201765"><ele>300.0</ele><time>2026-05-03T12:25:15.563Z</time></trkpt><trkpt lat="40.9192467" lon="16.2016867"><ele>300.0</ele><time>2026-05-03T12:25:16.564Z</time></trkpt><trkpt lat="40.9194233" lon="16.2015983"><ele>300.0</ele><time>2026-05-03T12:25:17.563Z</time></trkpt><trkpt lat="40.9196" lon="16.2015167"><ele>300.0</ele><time>2026-05-03T12:25:18.563Z</time></trkpt><trkpt lat="40.9197783" lon="16.2014367"><ele>300.0</ele><time>2026-05-03T12:25:19.563Z</time></trkpt><trkpt lat="40.9199533" lon="16.2013533"><ele>300.3333333333333</ele><time>2026-05-03T12:25:20.564Z</time></trkpt><trkpt lat="40.92013" lon="16.2012767"><ele>300.66666666666663</ele><time>2026-05-03T12:25:21.564Z</time></trkpt><trkpt lat="40.9203017" lon="16.2012017"><ele>301.0</ele><time>2026-05-03T12:25:22.563Z</time></trkpt><trkpt lat="40.92047" lon="16.2011217"><ele>301.0</ele><time>2026-05-03T12:25:23.563Z</time></trkpt><trkpt lat="40.92063" lon="16.20104"><ele>301.0</ele><time>2026-05-03T12:25:24.563Z</time></trkpt><trkpt lat="40.9207833" lon="16.2009367"><ele>301.0</ele><time>2026-05-03T12:25:25.563Z</time></trkpt><trkpt lat="40.9209133" lon="16.20079"><ele>301.3333333333333</ele><time>2026-05-03T12:25:26.564Z</time></trkpt><trkpt lat="40.92104" lon="16.2006183"><ele>301.6666666666667</ele><time>2026-05-03T12:25:27.564Z</time></trkpt><trkpt lat="40.9211583" lon="16.2004217"><ele>302.0</ele><time>2026-05-03T12:25:28.563Z</time></trkpt><trkpt lat="40.9212767" lon="16.20023"><ele>302.0</ele><time>2026-05-03T12:25:29.563Z</time></trkpt><trkpt lat="40.9213917" lon="16.20004"><ele>302.0</ele><time>2026-05-03T12:25:30.564Z</time></trkpt><trkpt lat="40.9215117" lon="16.1998483"><ele>302.0</ele><time>2026-05-03T12:25:31.564Z</time></trkpt><trkpt lat="40.9216317" lon="16.19966"><ele>301.6666666666667</ele><time>2026-05-03T12:25:32.563Z</time></trkpt><trkpt lat="40.9217417" lon="16.1994883"><ele>301.3333333333333</ele><time>2026-05-03T12:25:33.563Z</time></trkpt><trkpt lat="40.9218383" lon="16.19933"><ele>301.0</ele><time>2026-05-03T12:25:34.563Z</time></trkpt><trkpt lat="40.9219183" lon="16.1991933"><ele>301.0</ele><time>2026-05-03T12:25:35.563Z</time></trkpt><trkpt lat="40.9219867" lon="16.1990817"><ele>301.0</ele><time>2026-05-03T12:25:36.564Z</time></trkpt><trkpt lat="40.9220483" lon="16.1989933"><ele>301.0</ele><time>2026-05-03T12:25:37.564Z</time></trkpt><trkpt lat="40.922095" lon="16.1989133"><ele>301.0</ele><time>2026-05-03T12:25:38.563Z</time></trkpt><trkpt lat="40.9221483" lon="16.1988033"><ele>301.0</ele><time>2026-05-03T12:25:40.563Z</time></trkpt><trkpt lat="40.9221217" lon="16.1987033"><ele>301.25</ele><time>2026-05-03T12:25:42.563Z</time></trkpt><trkpt lat="40.9220067" lon="16.198595"><ele>301.5</ele><time>2026-05-03T12:25:44.563Z</time></trkpt><trkpt lat="40.9219283" lon="16.1985183"><ele>301.75</ele><time>2026-05-03T12:25:45.563Z</time></trkpt><trkpt lat="40.9218467" lon="16.1984317"><ele>302.0</ele><time>2026-05-03T12:25:46.563Z</time></trkpt><trkpt lat="40.921755" lon="16.1983367"><ele>302.0</ele><time>2026-05-03T12:25:47.563Z</time></trkpt><trkpt lat="40.9216533" lon="16.1982383"><ele>302.0</ele><time>2026-05-03T12:25:48.564Z</time></trkpt><trkpt lat="40.9215383" lon="16.1981367"><ele>302.0</ele><time>2026-05-03T12:25:49.563Z</time></trkpt><trkpt lat="40.9214183" lon="16.1980317"><ele>302.0</ele><time>2026-05-03T12:25:50.563Z</time></trkpt><trkpt lat="40.921295" lon="16.1979217"><ele>302.0</ele><time>2026-05-03T12:25:51.563Z</time></trkpt><trkpt lat="40.92117" lon="16.197805"><ele>302.0</ele><time>2026-05-03T12:25:52.563Z</time></trkpt><trkpt lat="40.9210483" lon="16.197675"><ele>302.0</ele><time>2026-05-03T12:25:53.563Z</time></trkpt><trkpt lat="40.9209367" lon="16.1975583"><ele>302.0</ele><time>2026-05-03T12:25:54.563Z</time></trkpt><trkpt lat="40.92084" lon="16.19745"><ele>302.0</ele><time>2026-05-03T12:25:55.563Z</time></trkpt><trkpt lat="40.9207633" lon="16.1973617"><ele>302.0</ele><time>2026-05-03T12:25:56.563Z</time></trkpt><trkpt lat="40.9207067" lon="16.1973033"><ele>302.0</ele><time>2026-05-03T12:25:57.563Z</time></trkpt><trkpt lat="40.92065" lon="16.1972"><ele>302.0</ele><time>2026-05-03T12:25:59.564Z</time></trkpt><trkpt lat="40.9206433" lon="16.197065"><ele>302.6</ele><time>2026-05-03T12:26:01.563Z</time></trkpt><trkpt lat="40.9206383" lon="16.1969667"><ele>303.2</ele><time>2026-05-03T12:26:02.563Z</time></trkpt><trkpt lat="40.9206233" lon="16.1968517"><ele>303.8</ele><time>2026-05-03T12:26:03.564Z</time></trkpt><trkpt lat="40.9206067" lon="16.1967167"><ele>304.4</ele><time>2026-05-03T12:26:04.563Z</time></trkpt><trkpt lat="40.920585" lon="16.1965783"><ele>305.0</ele><time>2026-05-03T12:26:05.564Z</time></trkpt><trkpt lat="40.920565" lon="16.1964417"><ele>305.25</ele><time>2026-05-03T12:26:06.564Z</time></trkpt><trkpt lat="40.9205383" lon="16.196285"><ele>305.5</ele><time>2026-05-03T12:26:07.564Z</time></trkpt><trkpt lat="40.920515" lon="16.1961283"><ele>305.75</ele><time>2026-05-03T12:26:08.563Z</time></trkpt><trkpt lat="40.9204933" lon="16.1959717"><ele>306.0</ele><time>2026-05-03T12:26:09.563Z</time></trkpt><trkpt lat="40.920475" lon="16.1958167"><ele>307.0</ele><time>2026-05-03T12:26:10.564Z</time></trkpt><trkpt lat="40.920455" lon="16.1956583"><ele>308.0</ele><time>2026-05-03T12:26:11.563Z</time></trkpt><trkpt lat="40.92044" lon="16.1954917"><ele>309.0</ele><time>2026-05-03T12:26:12.563Z</time></trkpt><trkpt lat="40.9204217" lon="16.1953267"><ele>310.0</ele><time>2026-05-03T12:26:13.564Z</time></trkpt><trkpt lat="40.920405" lon="16.19517"><ele>310.0</ele><time>2026-05-03T12:26:14.563Z</time></trkpt><trkpt lat="40.920395" lon="16.1950033"><ele>310.0</ele><time>2026-05-03T12:26:15.564Z</time></trkpt><trkpt lat="40.920385" lon="16.19484"><ele>310.0</ele><time>2026-05-03T12:26:16.564Z</time></trkpt><trkpt lat="40.920375" lon="16.1946817"><ele>310.0</ele><time>2026-05-03T12:26:17.564Z</time></trkpt><trkpt lat="40.9203583" lon="16.19453"><ele>310.4</ele><time>2026-05-03T12:26:18.564Z</time></trkpt><trkpt lat="40.9203333" lon="16.1943917"><ele>310.8</ele><time>2026-05-03T12:26:19.563Z</time></trkpt><trkpt lat="40.9203133" lon="16.1942533"><ele>311.2</ele><time>2026-05-03T12:26:20.563Z</time></trkpt><trkpt lat="40.9203167" lon="16.1941217"><ele>311.6</ele><time>2026-05-03T12:26:21.563Z</time></trkpt><trkpt lat="40.92033" lon="16.193995"><ele>312.0</ele><time>2026-05-03T12:26:22.563Z</time></trkpt><trkpt lat="40.9203533" lon="16.1938717"><ele>312.6</ele><time>2026-05-03T12:26:23.564Z</time></trkpt><trkpt lat="40.9203833" lon="16.193765"><ele>313.2</ele><time>2026-05-03T12:26:24.563Z</time></trkpt><trkpt lat="40.920415" lon="16.1936617"><ele>313.8</ele><time>2026-05-03T12:26:25.564Z</time></trkpt><trkpt lat="40.920445" lon="16.1935533"><ele>314.4</ele><time>2026-05-03T12:26:26.563Z</time></trkpt><trkpt lat="40.92049" lon="16.1934467"><ele>315.0</ele><time>2026-05-03T12:26:27.564Z</time></trkpt><trkpt lat="40.9205317" lon="16.193325"><ele>315.0</ele><time>2026-05-03T12:26:28.563Z</time></trkpt><trkpt lat="40.9205783" lon="16.193205"><ele>315.0</ele><time>2026-05-03T12:26:29.563Z</time></trkpt><trkpt lat="40.9206233" lon="16.193085"><ele>315.0</ele><time>2026-05-03T12:26:30.563Z</time></trkpt><trkpt lat="40.9206617" lon="16.19296"><ele>315.0</ele><time>2026-05-03T12:26:31.564Z</time></trkpt><trkpt lat="40.9207167" lon="16.1928333"><ele>315.0</ele><time>2026-05-03T12:26:32.563Z</time></trkpt><trkpt lat="40.92077" lon="16.1927083"><ele>315.0</ele><time>2026-05-03T12:26:33.563Z</time></trkpt><trkpt lat="40.9208217" lon="16.19258"><ele>315.0</ele><time>2026-05-03T12:26:34.563Z</time></trkpt><trkpt lat="40.9208733" lon="16.1924483"><ele>315.0</ele><time>2026-05-03T12:26:35.564Z</time></trkpt><trkpt lat="40.9209317" lon="16.192315"><ele>315.0</ele><time>2026-05-03T12:26:36.564Z</time></trkpt><trkpt lat="40.9209917" lon="16.192175"><ele>315.5</ele><time>2026-05-03T12:26:37.563Z</time></trkpt><trkpt lat="40.92104" lon="16.1920533"><ele>316.0</ele><time>2026-05-03T12:26:38.564Z</time></trkpt><trkpt lat="40.9210917" lon="16.19192"><ele>316.5</ele><time>2026-05-03T12:26:39.563Z</time></trkpt><trkpt lat="40.9211483" lon="16.191785"><ele>317.0</ele><time>2026-05-03T12:26:40.564Z</time></trkpt><trkpt lat="40.9212067" lon="16.1916483"><ele>317.0</ele><time>2026-05-03T12:26:41.563Z</time></trkpt><trkpt lat="40.921265" lon="16.1915067"><ele>317.0</ele><time>2026-05-03T12:26:42.563Z</time></trkpt><trkpt lat="40.921325" lon="16.1913683"><ele>317.0</ele><time>2026-05-03T12:26:43.563Z</time></trkpt><trkpt lat="40.9213767" lon="16.1912317"><ele>317.0</ele><time>2026-05-03T12:26:44.564Z</time></trkpt><trkpt lat="40.921425" lon="16.191095"><ele>317.0</ele><time>2026-05-03T12:26:45.564Z</time></trkpt><trkpt lat="40.9214717" lon="16.1909683"><ele>317.0</ele><time>2026-05-03T12:26:46.563Z</time></trkpt><trkpt lat="40.9215183" lon="16.1908433"><ele>317.0</ele><time>2026-05-03T12:26:47.563Z</time></trkpt><trkpt lat="40.9215617" lon="16.19072"><ele>317.0</ele><time>2026-05-03T12:26:48.563Z</time></trkpt><trkpt lat="40.921595" lon="16.1906033"><ele>317.0</ele><time>2026-05-03T12:26:49.564Z</time></trkpt><trkpt lat="40.9216283" lon="16.1904917"><ele>317.1666666666667</ele><time>2026-05-03T12:26:50.563Z</time></trkpt><trkpt lat="40.92167" lon="16.1903933"><ele>317.33333333333337</ele><time>2026-05-03T12:26:51.564Z</time></trkpt><trkpt lat="40.9217133" lon="16.1902967"><ele>317.5</ele><time>2026-05-03T12:26:52.563Z</time></trkpt><trkpt lat="40.9217383" lon="16.1902"><ele>317.6666666666667</ele><time>2026-05-03T12:26:53.563Z</time></trkpt><trkpt lat="40.9217617" lon="16.1901117"><ele>317.8333333333333</ele><time>2026-05-03T12:26:54.563Z</time></trkpt><trkpt lat="40.9217933" lon="16.1900283"><ele>318.0</ele><time>2026-05-03T12:26:55.563Z</time></trkpt><trkpt lat="40.9218317" lon="16.1899317"><ele>318.6666666666667</ele><time>2026-05-03T12:26:56.564Z</time></trkpt><trkpt lat="40.92186" lon="16.1898333"><ele>319.3333333333333</ele><time>2026-05-03T12:26:57.563Z</time></trkpt><trkpt lat="40.9218933" lon="16.1897283"><ele>320.0</ele><time>2026-05-03T12:26:58.564Z</time></trkpt><trkpt lat="40.9219233" lon="16.1896133"><ele>320.66666666666663</ele><time>2026-05-03T12:26:59.563Z</time></trkpt><trkpt lat="40.9219567" lon="16.1895"><ele>321.3333333333333</ele><time>2026-05-03T12:27:00.563Z</time></trkpt><trkpt lat="40.92199" lon="16.1893883"><ele>322.0</ele><time>2026-05-03T12:27:01.563Z</time></trkpt><trkpt lat="40.92203" lon="16.189275"><ele>322.0</ele><time>2026-05-03T12:27:02.563Z</time></trkpt><trkpt lat="40.922065" lon="16.189165"><ele>322.0</ele><time>2026-05-03T12:27:03.563Z</time></trkpt><trkpt lat="40.9220933" lon="16.18906"><ele>322.0</ele><time>2026-05-03T12:27:04.563Z</time></trkpt><trkpt lat="40.92212" lon="16.1889683"><ele>322.0</ele><time>2026-05-03T12:27:05.563Z</time></trkpt><trkpt lat="40.922145" lon="16.1888883"><ele>322.0</ele><time>2026-05-03T12:27:06.563Z</time></trkpt><trkpt lat="40.9221733" lon="16.188805"><ele>322.0</ele><time>2026-05-03T12:27:07.564Z</time></trkpt><trkpt lat="40.922195" lon="16.188715"><ele>322.14285714285717</ele><time>2026-05-03T12:27:08.564Z</time></trkpt><trkpt lat="40.9222233" lon="16.1886217"><ele>322.2857142857143</ele><time>2026-05-03T12:27:09.563Z</time></trkpt><trkpt lat="40.9222617" lon="16.18852"><ele>322.42857142857144</ele><time>2026-05-03T12:27:10.563Z</time></trkpt><trkpt lat="40.9222883" lon="16.18844"><ele>322.57142857142856</ele><time>2026-05-03T12:27:11.564Z</time></trkpt><trkpt lat="40.9223117" lon="16.18835"><ele>322.7142857142857</ele><time>2026-05-03T12:27:12.563Z</time></trkpt><trkpt lat="40.922335" lon="16.18826"><ele>322.8571428571429</ele><time>2026-05-03T12:27:13.563Z</time></trkpt><trkpt lat="40.9223617" lon="16.1881767"><ele>323.0</ele><time>2026-05-03T12:27:14.564Z</time></trkpt><trkpt lat="40.922385" lon="16.1880917"><ele>323.2</ele><time>2026-05-03T12:27:15.564Z</time></trkpt><trkpt lat="40.9224033" lon="16.18801"><ele>323.4</ele><time>2026-05-03T12:27:16.563Z</time></trkpt><trkpt lat="40.9224483" lon="16.1878783"><ele>323.59999999999997</ele><time>2026-05-03T12:27:18.564Z</time></trkpt><trkpt lat="40.922495" lon="16.1877067"><ele>323.79999999999995</ele><time>2026-05-03T12:27:20.563Z</time></trkpt><trkpt lat="40.92252" lon="16.187605"><ele>324.0</ele><time>2026-05-03T12:27:21.563Z</time></trkpt><trkpt lat="40.9225433" lon="16.1875167"><ele>324.8571428571429</ele><time>2026-05-03T12:27:22.563Z</time></trkpt><trkpt lat="40.9225683" lon="16.1874233"><ele>325.7142857142857</ele><time>2026-05-03T12:27:23.563Z</time></trkpt><trkpt lat="40.9225867" lon="16.1873333"><ele>326.57142857142856</ele><time>2026-05-03T12:27:24.563Z</time></trkpt><trkpt lat="40.922605" lon="16.1872467"><ele>327.42857142857144</ele><time>2026-05-03T12:27:25.563Z</time></trkpt><trkpt lat="40.9226267" lon="16.187155"><ele>328.2857142857143</ele><time>2026-05-03T12:27:26.564Z</time></trkpt><trkpt lat="40.9226533" lon="16.1870633"><ele>329.14285714285717</ele><time>2026-05-03T12:27:27.564Z</time></trkpt><trkpt lat="40.9226783" lon="16.186965"><ele>330.0</ele><time>2026-05-03T12:27:28.564Z</time></trkpt><trkpt lat="40.922695" lon="16.186875"><ele>330.2</ele><time>2026-05-03T12:27:29.563Z</time></trkpt><trkpt lat="40.9227317" lon="16.1867233"><ele>330.4</ele><time>2026-05-03T12:27:31.563Z</time></trkpt><trkpt lat="40.9227733" lon="16.1865717"><ele>330.6</ele><time>2026-05-03T12:27:33.563Z</time></trkpt><trkpt lat="40.9227917" lon="16.18648"><ele>330.8</ele><time>2026-05-03T12:27:34.563Z</time></trkpt><trkpt lat="40.92281" lon="16.1863833"><ele>331.0</ele><time>2026-05-03T12:27:35.563Z</time></trkpt><trkpt lat="40.9228267" lon="16.186295"><ele>331.0</ele><time>2026-05-03T12:27:36.563Z</time></trkpt><trkpt lat="40.92284" lon="16.1862117"><ele>331.0</ele><time>2026-05-03T12:27:37.564Z</time></trkpt><trkpt lat="40.922865" lon="16.1861317"><ele>331.0</ele><time>2026-05-03T12:27:38.564Z</time></trkpt><trkpt lat="40.9228867" lon="16.1860533"><ele>331.0</ele><time>2026-05-03T12:27:39.563Z</time></trkpt><trkpt lat="40.92293" lon="16.1858983"><ele>331.0</ele><time>2026-05-03T12:27:41.563Z</time></trkpt><trkpt lat="40.92296" lon="16.185815"><ele>331.0</ele><time>2026-05-03T12:27:42.563Z</time></trkpt><trkpt lat="40.92301" lon="16.18566"><ele>330.8571428571429</ele><time>2026-05-03T12:27:44.563Z</time></trkpt><trkpt lat="40.9230367" lon="16.185575"><ele>330.7142857142857</ele><time>2026-05-03T12:27:45.563Z</time></trkpt><trkpt lat="40.9230583" lon="16.185475"><ele>330.57142857142856</ele><time>2026-05-03T12:27:46.564Z</time></trkpt><trkpt lat="40.9230717" lon="16.1853833"><ele>330.42857142857144</ele><time>2026-05-03T12:27:47.564Z</time></trkpt><trkpt lat="40.9230867" lon="16.185295"><ele>330.2857142857143</ele><time>2026-05-03T12:27:48.563Z</time></trkpt><trkpt lat="40.9231033" lon="16.1852033"><ele>330.14285714285717</ele><time>2026-05-03T12:27:49.563Z</time></trkpt><trkpt lat="40.9231183" lon="16.1851117"><ele>330.0</ele><time>2026-05-03T12:27:50.563Z</time></trkpt><trkpt lat="40.9231383" lon="16.1850183"><ele>330.0</ele><time>2026-05-03T12:27:51.563Z</time></trkpt><trkpt lat="40.9231467" lon="16.1849267"><ele>330.0</ele><time>2026-05-03T12:27:52.563Z</time></trkpt><trkpt lat="40.923185" lon="16.1847767"><ele>330.0</ele><time>2026-05-03T12:27:54.564Z</time></trkpt><trkpt lat="40.923235" lon="16.1846317"><ele>330.0</ele><time>2026-05-03T12:27:56.563Z</time></trkpt><trkpt lat="40.9232867" lon="16.1844883"><ele>330.0</ele><time>2026-05-03T12:27:58.563Z</time></trkpt><trkpt lat="40.92331" lon="16.1844067"><ele>329.6</ele><time>2026-05-03T12:27:59.563Z</time></trkpt><trkpt lat="40.9233533" lon="16.1842683"><ele>329.2</ele><time>2026-05-03T12:28:01.563Z</time></trkpt><trkpt lat="40.923395" lon="16.184125"><ele>328.79999999999995</ele><time>2026-05-03T12:28:03.563Z</time></trkpt><trkpt lat="40.9234167" lon="16.1840417"><ele>328.4</ele><time>2026-05-03T12:28:04.564Z</time></trkpt><trkpt lat="40.92344" lon="16.183955"><ele>328.0</ele><time>2026-05-03T12:28:05.563Z</time></trkpt><trkpt lat="40.923485" lon="16.183825"><ele>329.0</ele><time>2026-05-03T12:28:07.563Z</time></trkpt><trkpt lat="40.9235267" lon="16.183675"><ele>330.0</ele><time>2026-05-03T12:28:09.564Z</time></trkpt><trkpt lat="40.9235533" lon="16.183585"><ele>331.0</ele><time>2026-05-03T12:28:10.564Z</time></trkpt><trkpt lat="40.923585" lon="16.18349"><ele>332.0</ele><time>2026-05-03T12:28:11.564Z</time></trkpt><trkpt lat="40.9236233" lon="16.1833933"><ele>333.0</ele><time>2026-05-03T12:28:12.564Z</time></trkpt><trkpt lat="40.9236683" lon="16.183295"><ele>334.0</ele><time>2026-05-03T12:28:13.563Z</time></trkpt><trkpt lat="40.923705" lon="16.1832017"><ele>333.5</ele><time>2026-05-03T12:28:14.564Z</time></trkpt><trkpt lat="40.9237483" lon="16.18312"><ele>333.0</ele><time>2026-05-03T12:28:15.564Z</time></trkpt><trkpt lat="40.9237867" lon="16.18303"><ele>332.5</ele><time>2026-05-03T12:28:16.563Z</time></trkpt><trkpt lat="40.9238267" lon="16.182935"><ele>332.0</ele><time>2026-05-03T12:28:17.564Z</time></trkpt><trkpt lat="40.9238633" lon="16.1828517"><ele>331.5</ele><time>2026-05-03T12:28:18.563Z</time></trkpt><trkpt lat="40.9239383" lon="16.1827133"><ele>331.0</ele><time>2026-05-03T12:28:20.563Z</time></trkpt><trkpt lat="40.9239733" lon="16.18264"><ele>331.0</ele><time>2026-05-03T12:28:21.563Z</time></trkpt><trkpt lat="40.9240283" lon="16.1824983"><ele>331.0</ele><time>2026-05-03T12:28:23.564Z</time></trkpt><trkpt lat="40.9240767" lon="16.18235"><ele>331.0</ele><time>2026-05-03T12:28:25.563Z</time></trkpt><trkpt lat="40.924105" lon="16.1822583"><ele>331.0</ele><time>2026-05-03T12:28:26.564Z</time></trkpt><trkpt lat="40.9241317" lon="16.1821567"><ele>331.0</ele><time>2026-05-03T12:28:27.563Z</time></trkpt><trkpt lat="40.924155" lon="16.1820467"><ele>331.0</ele><time>2026-05-03T12:28:28.563Z</time></trkpt><trkpt lat="40.9241817" lon="16.18195"><ele>331.0</ele><time>2026-05-03T12:28:29.563Z</time></trkpt><trkpt lat="40.9242033" lon="16.18187"><ele>331.0</ele><time>2026-05-03T12:28:30.563Z</time></trkpt><trkpt lat="40.92423" lon="16.181785"><ele>331.0</ele><time>2026-05-03T12:28:31.563Z</time></trkpt><trkpt lat="40.924255" lon="16.1816933"><ele>331.0</ele><time>2026-05-03T12:28:32.564Z</time></trkpt><trkpt lat="40.92428" lon="16.1816033"><ele>331.0</ele><time>2026-05-03T12:28:33.563Z</time></trkpt><trkpt lat="40.924305" lon="16.18151"><ele>331.0</ele><time>2026-05-03T12:28:34.563Z</time></trkpt><trkpt lat="40.9243317" lon="16.1814283"><ele>332.16666666666663</ele><time>2026-05-03T12:28:35.564Z</time></trkpt><trkpt lat="40.924355" lon="16.1813433"><ele>333.3333333333333</ele><time>2026-05-03T12:28:36.564Z</time></trkpt><trkpt lat="40.924385" lon="16.1812533"><ele>334.5</ele><time>2026-05-03T12:28:37.563Z</time></trkpt><trkpt lat="40.92442" lon="16.181135"><ele>335.6666666666667</ele><time>2026-05-03T12:28:39.563Z</time></trkpt><trkpt lat="40.92447" lon="16.1810433"><ele>336.83333333333337</ele><time>2026-05-03T12:28:55.564Z</time></trkpt><trkpt lat="40.9245033" lon="16.1809567"><ele>338.0</ele><time>2026-05-03T12:28:57.564Z</time></trkpt><trkpt lat="40.9245433" lon="16.180865"><ele>338.0</ele><time>2026-05-03T12:28:59.564Z</time></trkpt><trkpt lat="40.9245833" lon="16.1807633"><ele>338.0</ele><time>2026-05-03T12:29:01.564Z</time></trkpt><trkpt lat="40.924625" lon="16.1806533"><ele>338.0</ele><time>2026-05-03T12:29:03.563Z</time></trkpt><trkpt lat="40.9246633" lon="16.180565"><ele>338.0</ele><time>2026-05-03T12:29:05.563Z</time></trkpt><trkpt lat="40.924705" lon="16.1804583"><ele>338.0</ele><time>2026-05-03T12:29:07.563Z</time></trkpt><trkpt lat="40.9247583" lon="16.1803317"><ele>337.2</ele><time>2026-05-03T12:29:09.563Z</time></trkpt><trkpt lat="40.9248133" lon="16.18021"><ele>336.4</ele><time>2026-05-03T12:29:11.564Z</time></trkpt><trkpt lat="40.9248583" lon="16.1801033"><ele>335.59999999999997</ele><time>2026-05-03T12:29:13.564Z</time></trkpt><trkpt lat="40.9249017" lon="16.1799967"><ele>334.79999999999995</ele><time>2026-05-03T12:29:15.564Z</time></trkpt><trkpt lat="40.9249617" lon="16.1798767"><ele>334.0</ele><time>2026-05-03T12:29:17.563Z</time></trkpt><trkpt lat="40.9250083" lon="16.17975"><ele>333.6</ele><time>2026-05-03T12:29:19.564Z</time></trkpt><trkpt lat="40.9250467" lon="16.1796383"><ele>333.2</ele><time>2026-05-03T12:29:21.563Z</time></trkpt><trkpt lat="40.9251033" lon="16.1795267"><ele>332.8</ele><time>2026-05-03T12:29:23.563Z</time></trkpt><trkpt lat="40.9251667" lon="16.179385"><ele>332.40000000000003</ele><time>2026-05-03T12:29:25.563Z</time></trkpt><trkpt lat="40.925215" lon="16.1792567"><ele>332.0</ele><time>2026-05-03T12:29:27.563Z</time></trkpt><trkpt lat="40.925265" lon="16.1791317"><ele>333.20000000000005</ele><time>2026-05-03T12:29:29.563Z</time></trkpt><trkpt lat="40.9253167" lon="16.179005"><ele>334.4</ele><time>2026-05-03T12:29:31.564Z</time></trkpt><trkpt lat="40.925375" lon="16.178865"><ele>335.6</ele><time>2026-05-03T12:29:33.564Z</time></trkpt><trkpt lat="40.9254067" lon="16.1787833"><ele>336.79999999999995</ele><time>2026-05-03T12:29:34.563Z</time></trkpt><trkpt lat="40.9254567" lon="16.178655"><ele>338.0</ele><time>2026-05-03T12:29:36.563Z</time></trkpt><trkpt lat="40.9255133" lon="16.17851"><ele>338.0</ele><time>2026-05-03T12:29:38.564Z</time></trkpt><trkpt lat="40.9255617" lon="16.1783783"><ele>338.0</ele><time>2026-05-03T12:29:40.563Z</time></trkpt><trkpt lat="40.9256217" lon="16.1782467"><ele>338.0</ele><time>2026-05-03T12:29:42.563Z</time></trkpt><trkpt lat="40.92565" lon="16.178165"><ele>338.0</ele><time>2026-05-03T12:29:43.564Z</time></trkpt><trkpt lat="40.9256783" lon="16.178075"><ele>338.0</ele><time>2026-05-03T12:29:44.564Z</time></trkpt><trkpt lat="40.9257283" lon="16.17793"><ele>338.1666666666667</ele><time>2026-05-03T12:29:46.564Z</time></trkpt><trkpt lat="40.9257583" lon="16.17785"><ele>338.33333333333337</ele><time>2026-05-03T12:29:47.564Z</time></trkpt><trkpt lat="40.92581" lon="16.1777033"><ele>338.5</ele><time>2026-05-03T12:29:49.564Z</time></trkpt><trkpt lat="40.92587" lon="16.177565"><ele>338.6666666666667</ele><time>2026-05-03T12:29:51.563Z</time></trkpt><trkpt lat="40.9258983" lon="16.1774883"><ele>338.8333333333333</ele><time>2026-05-03T12:29:52.564Z</time></trkpt><trkpt lat="40.9259283" lon="16.17741"><ele>339.0</ele><time>2026-05-03T12:29:53.563Z</time></trkpt><trkpt lat="40.925955" lon="16.17733"><ele>339.1666666666667</ele><time>2026-05-03T12:29:54.563Z</time></trkpt><trkpt lat="40.9259867" lon="16.1772533"><ele>339.3333333333333</ele><time>2026-05-03T12:29:55.563Z</time></trkpt><trkpt lat="40.9260167" lon="16.1771767"><ele>339.5</ele><time>2026-05-03T12:29:56.563Z</time></trkpt><trkpt lat="40.9260483" lon="16.1771"><ele>339.66666666666663</ele><time>2026-05-03T12:29:57.563Z</time></trkpt><trkpt lat="40.9261133" lon="16.176955"><ele>339.8333333333333</ele><time>2026-05-03T12:29:59.564Z</time></trkpt><trkpt lat="40.9261467" lon="16.1768633"><ele>340.0</ele><time>2026-05-03T12:30:00.564Z</time></trkpt><trkpt lat="40.9261783" lon="16.1767817"><ele>340.0</ele><time>2026-05-03T12:30:01.563Z</time></trkpt><trkpt lat="40.92621" lon="16.1767017"><ele>340.0</ele><time>2026-05-03T12:30:02.563Z</time></trkpt><trkpt lat="40.9262583" lon="16.1765667"><ele>340.0</ele><time>2026-05-03T12:30:04.563Z</time></trkpt><trkpt lat="40.9262917" lon="16.1764933"><ele>340.0</ele><time>2026-05-03T12:30:05.564Z</time></trkpt><trkpt lat="40.9263417" lon="16.17636"><ele>340.0</ele><time>2026-05-03T12:30:07.563Z</time></trkpt><trkpt lat="40.9263933" lon="16.176255"><ele>340.0</ele><time>2026-05-03T12:30:09.563Z</time></trkpt><trkpt lat="40.92646" lon="16.1760983"><ele>340.0</ele><time>2026-05-03T12:30:11.563Z</time></trkpt><trkpt lat="40.9265017" lon="16.1759917"><ele>340.0</ele><time>2026-05-03T12:30:12.563Z</time></trkpt><trkpt lat="40.9265467" lon="16.1758867"><ele>340.0</ele><time>2026-05-03T12:30:13.563Z</time></trkpt><trkpt lat="40.926585" lon="16.1757783"><ele>340.0</ele><time>2026-05-03T12:30:14.563Z</time></trkpt><trkpt lat="40.926615" lon="16.1756767"><ele>340.0</ele><time>2026-05-03T12:30:15.564Z</time></trkpt><trkpt lat="40.9266467" lon="16.17558"><ele>340.0</ele><time>2026-05-03T12:30:16.563Z</time></trkpt><trkpt lat="40.9266817" lon="16.17549"><ele>340.0</ele><time>2026-05-03T12:30:17.564Z</time></trkpt><trkpt lat="40.9267167" lon="16.1754033"><ele>340.0</ele><time>2026-05-03T12:30:18.564Z</time></trkpt><trkpt lat="40.9267533" lon="16.1753117"><ele>340.0</ele><time>2026-05-03T12:30:19.563Z</time></trkpt><trkpt lat="40.9267833" lon="16.175225"><ele>340.0</ele><time>2026-05-03T12:30:20.563Z</time></trkpt><trkpt lat="40.9268183" lon="16.175135"><ele>340.66666666666663</ele><time>2026-05-03T12:30:21.563Z</time></trkpt><trkpt lat="40.9268483" lon="16.175055"><ele>341.3333333333333</ele><time>2026-05-03T12:30:22.563Z</time></trkpt><trkpt lat="40.9268767" lon="16.1749767"><ele>342.0</ele><time>2026-05-03T12:30:23.563Z</time></trkpt><trkpt lat="40.9269267" lon="16.1748433"><ele>342.6666666666667</ele><time>2026-05-03T12:30:25.563Z</time></trkpt><trkpt lat="40.9269833" lon="16.17471"><ele>343.33333333333337</ele><time>2026-05-03T12:30:27.564Z</time></trkpt><trkpt lat="40.9270217" lon="16.1746433"><ele>344.0</ele><time>2026-05-03T12:30:28.563Z</time></trkpt><trkpt lat="40.9270867" lon="16.1745117"><ele>344.1666666666667</ele><time>2026-05-03T12:30:30.564Z</time></trkpt><trkpt lat="40.9271533" lon="16.174375"><ele>344.33333333333337</ele><time>2026-05-03T12:30:32.563Z</time></trkpt><trkpt lat="40.927195" lon="16.1743067"><ele>344.5</ele><time>2026-05-03T12:30:33.563Z</time></trkpt><trkpt lat="40.927235" lon="16.1742417"><ele>344.6666666666667</ele><time>2026-05-03T12:30:34.563Z</time></trkpt><trkpt lat="40.92728" lon="16.1741767"><ele>344.8333333333333</ele><time>2026-05-03T12:30:35.563Z</time></trkpt><trkpt lat="40.9273267" lon="16.1741117"><ele>345.0</ele><time>2026-05-03T12:30:36.563Z</time></trkpt><trkpt lat="40.9273867" lon="16.1740417"><ele>344.6</ele><time>2026-05-03T12:30:37.563Z</time></trkpt><trkpt lat="40.9274417" lon="16.17398"><ele>344.2</ele><time>2026-05-03T12:30:38.563Z</time></trkpt><trkpt lat="40.9275283" lon="16.173875"><ele>343.79999999999995</ele><time>2026-05-03T12:30:40.563Z</time></trkpt><trkpt lat="40.9275967" lon="16.1738017"><ele>343.4</ele><time>2026-05-03T12:30:42.563Z</time></trkpt><trkpt lat="40.9277033" lon="16.17379"><ele>343.0</ele><time>2026-05-03T12:30:44.564Z</time></trkpt><trkpt lat="40.9277733" lon="16.1737983"><ele>344.0</ele><time>2026-05-03T12:30:45.563Z</time></trkpt><trkpt lat="40.9278517" lon="16.1738167"><ele>345.0</ele><time>2026-05-03T12:30:46.563Z</time></trkpt><trkpt lat="40.92794" lon="16.17384"><ele>346.0</ele><time>2026-05-03T12:30:47.563Z</time></trkpt><trkpt lat="40.928035" lon="16.1738617"><ele>347.0</ele><time>2026-05-03T12:30:48.563Z</time></trkpt><trkpt lat="40.92814" lon="16.1738833"><ele>348.0</ele><time>2026-05-03T12:30:49.563Z</time></trkpt><trkpt lat="40.9282467" lon="16.1739117"><ele>348.0</ele><time>2026-05-03T12:30:50.563Z</time></trkpt><trkpt lat="40.92836" lon="16.1739383"><ele>348.0</ele><time>2026-05-03T12:30:51.563Z</time></trkpt><trkpt lat="40.92847" lon="16.1739667"><ele>348.0</ele><time>2026-05-03T12:30:52.563Z</time></trkpt><trkpt lat="40.9285833" lon="16.174"><ele>348.0</ele><time>2026-05-03T12:30:53.563Z</time></trkpt><trkpt lat="40.9286917" lon="16.17403"><ele>348.2</ele><time>2026-05-03T12:30:54.564Z</time></trkpt><trkpt lat="40.9288033" lon="16.1740617"><ele>348.4</ele><time>2026-05-03T12:30:55.564Z</time></trkpt><trkpt lat="40.92891" lon="16.1740867"><ele>348.59999999999997</ele><time>2026-05-03T12:30:56.563Z</time></trkpt><trkpt lat="40.929005" lon="16.17411"><ele>348.79999999999995</ele><time>2026-05-03T12:30:57.564Z</time></trkpt><trkpt lat="40.9290983" lon="16.1741433"><ele>349.0</ele><time>2026-05-03T12:30:58.564Z</time></trkpt><trkpt lat="40.929185" lon="16.174165"><ele>349.79999999999995</ele><time>2026-05-03T12:30:59.563Z</time></trkpt><trkpt lat="40.92926" lon="16.17418"><ele>350.59999999999997</ele><time>2026-05-03T12:31:00.563Z</time></trkpt><trkpt lat="40.9293417" lon="16.174215"><ele>351.4</ele><time>2026-05-03T12:31:02.563Z</time></trkpt><trkpt lat="40.92936" lon="16.17433"><ele>352.2</ele><time>2026-05-03T12:31:05.564Z</time></trkpt><trkpt lat="40.9292917" lon="16.1744633"><ele>353.0</ele><time>2026-05-03T12:31:07.563Z</time></trkpt><trkpt lat="40.92924" lon="16.1746"><ele>353.0</ele><time>2026-05-03T12:31:09.564Z</time></trkpt><trkpt lat="40.9292017" lon="16.1747083"><ele>353.0</ele><time>2026-05-03T12:31:11.563Z</time></trkpt><trkpt lat="40.929245" lon="16.1746133"><ele>353.0</ele><time>2026-05-03T12:31:27.563Z</time></trkpt><trkpt lat="40.9292717" lon="16.17452"><ele>353.0</ele><time>2026-05-03T12:31:30.563Z</time></trkpt><trkpt lat="40.9293033" lon="16.1744283"><ele>353.0</ele><time>2026-05-03T12:31:33.563Z</time></trkpt><trkpt lat="40.92935" lon="16.1742883"><ele>353.0</ele><time>2026-05-03T12:31:42.563Z</time></trkpt><trkpt lat="40.9294" lon="16.1742167"><ele>353.0</ele><time>2026-05-03T12:31:52.563Z</time></trkpt><trkpt lat="40.9294717" lon="16.17424"><ele>353.0</ele><time>2026-05-03T12:31:54.563Z</time></trkpt><trkpt lat="40.929535" lon="16.1742667"><ele>353.0</ele><time>2026-05-03T12:31:56.563Z</time></trkpt><trkpt lat="40.9296033" lon="16.174305"><ele>353.0</ele><time>2026-05-03T12:31:58.563Z</time></trkpt><trkpt lat="40.9296717" lon="16.1743383"><ele>353.0</ele><time>2026-05-03T12:32:00.564Z</time></trkpt><trkpt lat="40.929725" lon="16.1743983"><ele>353.0</ele><time>2026-05-03T12:32:02.563Z</time></trkpt><trkpt lat="40.9297633" lon="16.1745167"><ele>353.0</ele><time>2026-05-03T12:32:04.563Z</time></trkpt><trkpt lat="40.9297783" lon="16.174685"><ele>353.0</ele><time>2026-05-03T12:32:06.563Z</time></trkpt><trkpt lat="40.9297833" lon="16.1747783"><ele>353.0</ele><time>2026-05-03T12:32:07.563Z</time></trkpt><trkpt lat="40.92978" lon="16.17488"><ele>353.0</ele><time>2026-05-03T12:32:08.563Z</time></trkpt><trkpt lat="40.929785" lon="16.1749717"><ele>353.0</ele><time>2026-05-03T12:32:09.564Z</time></trkpt><trkpt lat="40.9297867" lon="16.1750633"><ele>353.0</ele><time>2026-05-03T12:32:10.564Z</time></trkpt><trkpt lat="40.9297933" lon="16.17515"><ele>352.83333333333337</ele><time>2026-05-03T12:32:11.563Z</time></trkpt><trkpt lat="40.9298233" lon="16.1752967"><ele>352.6666666666667</ele><time>2026-05-03T12:32:13.564Z</time></trkpt><trkpt lat="40.9298533" lon="16.17537"><ele>352.5</ele><time>2026-05-03T12:32:14.563Z</time></trkpt><trkpt lat="40.929905" lon="16.175445"><ele>352.3333333333333</ele><time>2026-05-03T12:32:15.563Z</time></trkpt><trkpt lat="40.9299667" lon="16.1755217"><ele>352.16666666666663</ele><time>2026-05-03T12:32:16.563Z</time></trkpt><trkpt lat="40.93003" lon="16.1756033"><ele>352.0</ele><time>2026-05-03T12:32:17.563Z</time></trkpt><trkpt lat="40.9300917" lon="16.17568"><ele>349.6</ele><time>2026-05-03T12:32:18.564Z</time></trkpt><trkpt lat="40.93016" lon="16.1757567"><ele>347.20000000000005</ele><time>2026-05-03T12:32:19.564Z</time></trkpt><trkpt lat="40.930235" lon="16.175845"><ele>344.8</ele><time>2026-05-03T12:32:20.563Z</time></trkpt><trkpt lat="40.9303033" lon="16.1759283"><ele>342.4</ele><time>2026-05-03T12:32:21.563Z</time></trkpt><trkpt lat="40.9303767" lon="16.1760067"><ele>340.0</ele><time>2026-05-03T12:32:22.564Z</time></trkpt><trkpt lat="40.93046" lon="16.1760917"><ele>340.0</ele><time>2026-05-03T12:32:23.563Z</time></trkpt><trkpt lat="40.9305483" lon="16.176175"><ele>340.0</ele><time>2026-05-03T12:32:24.563Z</time></trkpt><trkpt lat="40.930635" lon="16.1762667"><ele>340.0</ele><time>2026-05-03T12:32:25.563Z</time></trkpt><trkpt lat="40.930715" lon="16.1763633"><ele>340.0</ele><time>2026-05-03T12:32:26.563Z</time></trkpt><trkpt lat="40.93079" lon="16.176455"><ele>340.0</ele><time>2026-05-03T12:32:27.564Z</time></trkpt><trkpt lat="40.9308567" lon="16.1765533"><ele>337.6</ele><time>2026-05-03T12:32:28.564Z</time></trkpt><trkpt lat="40.9309233" lon="16.1766517"><ele>335.2</ele><time>2026-05-03T12:32:29.563Z</time></trkpt><trkpt lat="40.9309983" lon="16.176745"><ele>332.79999999999995</ele><time>2026-05-03T12:32:30.563Z</time></trkpt><trkpt lat="40.931055" lon="16.1768367"><ele>330.4</ele><time>2026-05-03T12:32:31.563Z</time></trkpt><trkpt lat="40.9311167" lon="16.1769167"><ele>328.0</ele><time>2026-05-03T12:32:32.563Z</time></trkpt><trkpt lat="40.93117" lon="16.1769967"><ele>328.0</ele><time>2026-05-03T12:32:33.563Z</time></trkpt><trkpt lat="40.9312217" lon="16.1770667"><ele>328.0</ele><time>2026-05-03T12:32:34.563Z</time></trkpt><trkpt lat="40.9312733" lon="16.1771317"><ele>328.0</ele><time>2026-05-03T12:32:35.563Z</time></trkpt><trkpt lat="40.9313217" lon="16.1771967"><ele>328.0</ele><time>2026-05-03T12:32:36.563Z</time></trkpt><trkpt lat="40.9314067" lon="16.17732"><ele>328.0</ele><time>2026-05-03T12:32:38.564Z</time></trkpt><trkpt lat="40.9314483" lon="16.1773833"><ele>328.0</ele><time>2026-05-03T12:32:39.564Z</time></trkpt><trkpt lat="40.9315267" lon="16.1775033"><ele>327.5</ele><time>2026-05-03T12:32:41.564Z</time></trkpt><trkpt lat="40.9315683" lon="16.17757"><ele>327.0</ele><time>2026-05-03T12:32:42.563Z</time></trkpt><trkpt lat="40.9316183" lon="16.1776417"><ele>326.5</ele><time>2026-05-03T12:32:43.563Z</time></trkpt><trkpt lat="40.9316783" lon="16.17772"><ele>326.0</ele><time>2026-05-03T12:32:44.563Z</time></trkpt><trkpt lat="40.9317467" lon="16.1778033"><ele>325.5</ele><time>2026-05-03T12:32:45.563Z</time></trkpt><trkpt lat="40.931815" lon="16.177895"><ele>325.0</ele><time>2026-05-03T12:32:46.563Z</time></trkpt><trkpt lat="40.9318767" lon="16.17798"><ele>325.0</ele><time>2026-05-03T12:32:47.563Z</time></trkpt><trkpt lat="40.9319383" lon="16.1780567"><ele>325.0</ele><time>2026-05-03T12:32:48.563Z</time></trkpt><trkpt lat="40.9319933" lon="16.1781217"><ele>325.0</ele><time>2026-05-03T12:32:49.564Z</time></trkpt><trkpt lat="40.932045" lon="16.178185"><ele>325.0</ele><time>2026-05-03T12:32:50.563Z</time></trkpt><trkpt lat="40.9321767" lon="16.178225"><ele>325.0</ele><time>2026-05-03T12:32:52.564Z</time></trkpt><trkpt lat="40.9322617" lon="16.178215"><ele>325.0</ele><time>2026-05-03T12:32:53.564Z</time></trkpt><trkpt lat="40.9323567" lon="16.1781867"><ele>325.0</ele><time>2026-05-03T12:32:54.563Z</time></trkpt><trkpt lat="40.93246" lon="16.17816"><ele>325.0</ele><time>2026-05-03T12:32:55.563Z</time></trkpt><trkpt lat="40.9325667" lon="16.17813"><ele>325.0</ele><time>2026-05-03T12:32:56.563Z</time></trkpt><trkpt lat="40.9326733" lon="16.1781017"><ele>325.0</ele><time>2026-05-03T12:32:57.563Z</time></trkpt><trkpt lat="40.93279" lon="16.17807"><ele>325.0</ele><time>2026-05-03T12:32:58.563Z</time></trkpt><trkpt lat="40.9329033" lon="16.17803"><ele>325.0</ele><time>2026-05-03T12:32:59.563Z</time></trkpt><trkpt lat="40.933015" lon="16.1779917"><ele>325.0</ele><time>2026-05-03T12:33:00.563Z</time></trkpt><trkpt lat="40.9331167" lon="16.177955"><ele>325.0</ele><time>2026-05-03T12:33:01.563Z</time></trkpt><trkpt lat="40.933215" lon="16.1779033"><ele>325.0</ele><time>2026-05-03T12:33:02.563Z</time></trkpt><trkpt lat="40.9333117" lon="16.1778433"><ele>325.0</ele><time>2026-05-03T12:33:03.564Z</time></trkpt><trkpt lat="40.9334" lon="16.1777633"><ele>326.0</ele><time>2026-05-03T12:33:04.563Z</time></trkpt><trkpt lat="40.9334917" lon="16.1776683"><ele>327.0</ele><time>2026-05-03T12:33:05.563Z</time></trkpt><trkpt lat="40.9335833" lon="16.1775717"><ele>328.0</ele><time>2026-05-03T12:33:06.563Z</time></trkpt><trkpt lat="40.9336867" lon="16.1774767"><ele>329.0</ele><time>2026-05-03T12:33:07.564Z</time></trkpt><trkpt lat="40.9337917" lon="16.1773917"><ele>328.75</ele><time>2026-05-03T12:33:08.563Z</time></trkpt><trkpt lat="40.9339017" lon="16.177305"><ele>328.5</ele><time>2026-05-03T12:33:09.563Z</time></trkpt><trkpt lat="40.934015" lon="16.1772167"><ele>328.25</ele><time>2026-05-03T12:33:10.564Z</time></trkpt><trkpt lat="40.93413" lon="16.1771383"><ele>328.0</ele><time>2026-05-03T12:33:11.563Z</time></trkpt><trkpt lat="40.9342533" lon="16.177075"><ele>328.75</ele><time>2026-05-03T12:33:12.563Z</time></trkpt><trkpt lat="40.9343867" lon="16.1770133"><ele>329.5</ele><time>2026-05-03T12:33:13.563Z</time></trkpt><trkpt lat="40.934515" lon="16.1769433"><ele>330.25</ele><time>2026-05-03T12:33:14.563Z</time></trkpt><trkpt lat="40.9346467" lon="16.1768767"><ele>331.0</ele><time>2026-05-03T12:33:15.564Z</time></trkpt><trkpt lat="40.93478" lon="16.1768067"><ele>331.0</ele><time>2026-05-03T12:33:16.564Z</time></trkpt><trkpt lat="40.9349083" lon="16.1767383"><ele>331.0</ele><time>2026-05-03T12:33:17.563Z</time></trkpt><trkpt lat="40.93503" lon="16.176675"><ele>331.0</ele><time>2026-05-03T12:33:18.563Z</time></trkpt><trkpt lat="40.935135" lon="16.17662"><ele>331.0</ele><time>2026-05-03T12:33:19.564Z</time></trkpt><trkpt lat="40.9352317" lon="16.1765667"><ele>331.16666666666663</ele><time>2026-05-03T12:33:20.563Z</time></trkpt><trkpt lat="40.9353217" lon="16.1765183"><ele>331.3333333333333</ele><time>2026-05-03T12:33:21.564Z</time></trkpt><trkpt lat="40.9354017" lon="16.176495"><ele>331.5</ele><time>2026-05-03T12:33:22.563Z</time></trkpt><trkpt lat="40.9354783" lon="16.176485"><ele>331.6666666666667</ele><time>2026-05-03T12:33:23.563Z</time></trkpt><trkpt lat="40.9355533" lon="16.1764933"><ele>331.83333333333337</ele><time>2026-05-03T12:33:24.563Z</time></trkpt><trkpt lat="40.93563" lon="16.17654"><ele>332.0</ele><time>2026-05-03T12:33:25.563Z</time></trkpt><trkpt lat="40.935705" lon="16.1765933"><ele>332.1666666666667</ele><time>2026-05-03T12:33:26.563Z</time></trkpt><trkpt lat="40.9357767" lon="16.1766483"><ele>332.33333333333337</ele><time>2026-05-03T12:33:27.563Z</time></trkpt><trkpt lat="40.935835" lon="16.176695"><ele>332.5</ele><time>2026-05-03T12:33:28.564Z</time></trkpt><trkpt lat="40.935925" lon="16.17675"><ele>332.6666666666667</ele><time>2026-05-03T12:33:30.563Z</time></trkpt><trkpt lat="40.935985" lon="16.17679"><ele>332.8333333333333</ele><time>2026-05-03T12:33:32.563Z</time></trkpt><trkpt lat="40.9360967" lon="16.176865"><ele>333.0</ele><time>2026-05-03T12:37:58.564Z</time></trkpt><trkpt lat="40.9361767" lon="16.1767833"><ele>333.5</ele><time>2026-05-03T12:38:00.564Z</time></trkpt><trkpt lat="40.93627" lon="16.17668"><ele>334.0</ele><time>2026-05-03T12:38:02.564Z</time></trkpt><trkpt lat="40.93635" lon="16.1765917"><ele>334.5</ele><time>2026-05-03T12:38:04.564Z</time></trkpt><trkpt lat="40.936455" lon="16.1764767"><ele>335.0</ele><time>2026-05-03T12:38:06.565Z</time></trkpt><trkpt lat="40.9365333" lon="16.1764067"><ele>335.0</ele><time>2026-05-03T12:38:07.565Z</time></trkpt><trkpt lat="40.9366117" lon="16.1763217"><ele>335.0</ele><time>2026-05-03T12:38:08.564Z</time></trkpt><trkpt lat="40.9366967" lon="16.1762333"><ele>335.0</ele><time>2026-05-03T12:38:09.564Z</time></trkpt><trkpt lat="40.9367933" lon="16.1761433"><ele>335.0</ele><time>2026-05-03T12:38:10.565Z</time></trkpt><trkpt lat="40.9368883" lon="16.1760483"><ele>335.0</ele><time>2026-05-03T12:38:11.564Z</time></trkpt><trkpt lat="40.9369883" lon="16.1759517"><ele>336.0</ele><time>2026-05-03T12:38:12.565Z</time></trkpt><trkpt lat="40.9370883" lon="16.17585"><ele>337.0</ele><time>2026-05-03T12:38:13.564Z</time></trkpt><trkpt lat="40.9371867" lon="16.17574"><ele>338.0</ele><time>2026-05-03T12:38:14.564Z</time></trkpt><trkpt lat="40.9372883" lon="16.175635"><ele>339.0</ele><time>2026-05-03T12:38:15.564Z</time></trkpt><trkpt lat="40.9373933" lon="16.1755283"><ele>339.25</ele><time>2026-05-03T12:38:16.565Z</time></trkpt><trkpt lat="40.9375067" lon="16.1754267"><ele>339.5</ele><time>2026-05-03T12:38:17.564Z</time></trkpt><trkpt lat="40.9376217" lon="16.17531"><ele>339.75</ele><time>2026-05-03T12:38:18.564Z</time></trkpt><trkpt lat="40.9377333" lon="16.1751867"><ele>340.0</ele><time>2026-05-03T12:38:19.564Z</time></trkpt><trkpt lat="40.9378467" lon="16.175065"><ele>340.25</ele><time>2026-05-03T12:38:20.564Z</time></trkpt><trkpt lat="40.9379633" lon="16.174945"><ele>340.5</ele><time>2026-05-03T12:38:21.564Z</time></trkpt><trkpt lat="40.93808" lon="16.1748183"><ele>340.75</ele><time>2026-05-03T12:38:22.564Z</time></trkpt><trkpt lat="40.9381967" lon="16.174695"><ele>341.0</ele><time>2026-05-03T12:38:23.564Z</time></trkpt><trkpt lat="40.9383233" lon="16.1745733"><ele>341.0</ele><time>2026-05-03T12:38:24.565Z</time></trkpt><trkpt lat="40.9384467" lon="16.1744517"><ele>341.0</ele><time>2026-05-03T12:38:25.565Z</time></trkpt><trkpt lat="40.93857" lon="16.174325"><ele>341.0</ele><time>2026-05-03T12:38:26.565Z</time></trkpt><trkpt lat="40.9386933" lon="16.1741983"><ele>341.0</ele><time>2026-05-03T12:38:27.564Z</time></trkpt><trkpt lat="40.9388283" lon="16.1740633"><ele>341.0</ele><time>2026-05-03T12:38:28.565Z</time></trkpt><trkpt lat="40.938965" lon="16.17393"><ele>341.0</ele><time>2026-05-03T12:38:29.564Z</time></trkpt><trkpt lat="40.9391" lon="16.173795"><ele>342.0</ele><time>2026-05-03T12:38:30.565Z</time></trkpt><trkpt lat="40.9392417" lon="16.1736517"><ele>343.0</ele><time>2026-05-03T12:38:31.564Z</time></trkpt><trkpt lat="40.9393867" lon="16.1735"><ele>344.0</ele><time>2026-05-03T12:38:32.564Z</time></trkpt><trkpt lat="40.939525" lon="16.1733583"><ele>344.0</ele><time>2026-05-03T12:38:33.565Z</time></trkpt><trkpt lat="40.939665" lon="16.17321"><ele>344.0</ele><time>2026-05-03T12:38:34.564Z</time></trkpt><trkpt lat="40.9398083" lon="16.1730583"><ele>344.0</ele><time>2026-05-03T12:38:35.564Z</time></trkpt><trkpt lat="40.9399533" lon="16.172915"><ele>345.0</ele><time>2026-05-03T12:38:36.564Z</time></trkpt><trkpt lat="40.9400983" lon="16.1727717"><ele>346.0</ele><time>2026-05-03T12:38:37.565Z</time></trkpt><trkpt lat="40.9402467" lon="16.1726283"><ele>347.0</ele><time>2026-05-03T12:38:38.564Z</time></trkpt><trkpt lat="40.940395" lon="16.172475"><ele>347.33333333333337</ele><time>2026-05-03T12:38:39.564Z</time></trkpt><trkpt lat="40.94054" lon="16.172325"><ele>347.6666666666667</ele><time>2026-05-03T12:38:40.565Z</time></trkpt><trkpt lat="40.9406867" lon="16.1721717"><ele>348.0</ele><time>2026-05-03T12:38:41.564Z</time></trkpt><trkpt lat="40.940835" lon="16.17202"><ele>348.3333333333333</ele><time>2026-05-03T12:38:42.565Z</time></trkpt><trkpt lat="40.9409783" lon="16.1718667"><ele>348.66666666666663</ele><time>2026-05-03T12:38:43.564Z</time></trkpt><trkpt lat="40.9411267" lon="16.1717133"><ele>349.0</ele><time>2026-05-03T12:38:44.564Z</time></trkpt><trkpt lat="40.941275" lon="16.171565"><ele>350.0</ele><time>2026-05-03T12:38:45.565Z</time></trkpt><trkpt lat="40.9414233" lon="16.1714233"><ele>351.0</ele><time>2026-05-03T12:38:46.564Z</time></trkpt><trkpt lat="40.9415683" lon="16.17128"><ele>352.0</ele><time>2026-05-03T12:38:47.565Z</time></trkpt><trkpt lat="40.9417117" lon="16.17113"><ele>353.3333333333333</ele><time>2026-05-03T12:38:48.564Z</time></trkpt><trkpt lat="40.9418583" lon="16.1709933"><ele>354.6666666666667</ele><time>2026-05-03T12:38:49.565Z</time></trkpt><trkpt lat="40.941995" lon="16.17085"><ele>356.0</ele><time>2026-05-03T12:38:50.564Z</time></trkpt><trkpt lat="40.9421417" lon="16.17072"><ele>356.0</ele><time>2026-05-03T12:38:51.564Z</time></trkpt><trkpt lat="40.942295" lon="16.1705933"><ele>356.0</ele><time>2026-05-03T12:38:52.564Z</time></trkpt><trkpt lat="40.9424483" lon="16.170485"><ele>356.0</ele><time>2026-05-03T12:38:53.564Z</time></trkpt><trkpt lat="40.942615" lon="16.1703833"><ele>356.6666666666667</ele><time>2026-05-03T12:38:54.564Z</time></trkpt><trkpt lat="40.94278" lon="16.1702767"><ele>357.3333333333333</ele><time>2026-05-03T12:38:55.564Z</time></trkpt><trkpt lat="40.9429433" lon="16.170165"><ele>358.0</ele><time>2026-05-03T12:38:56.564Z</time></trkpt><trkpt lat="40.9431083" lon="16.17005"><ele>358.0</ele><time>2026-05-03T12:38:57.564Z</time></trkpt><trkpt lat="40.9432767" lon="16.1699417"><ele>358.0</ele><time>2026-05-03T12:38:58.565Z</time></trkpt><trkpt lat="40.9434467" lon="16.16983"><ele>358.0</ele><time>2026-05-03T12:38:59.564Z</time></trkpt><trkpt lat="40.9436233" lon="16.1697133"><ele>358.66666666666663</ele><time>2026-05-03T12:39:00.564Z</time></trkpt><trkpt lat="40.9437967" lon="16.1696017"><ele>359.3333333333333</ele><time>2026-05-03T12:39:01.564Z</time></trkpt><trkpt lat="40.9439717" lon="16.1694833"><ele>360.0</ele><time>2026-05-03T12:39:02.565Z</time></trkpt><trkpt lat="40.9441433" lon="16.1693767"><ele>360.3333333333333</ele><time>2026-05-03T12:39:03.565Z</time></trkpt><trkpt lat="40.94432" lon="16.16926"><ele>360.66666666666663</ele><time>2026-05-03T12:39:04.564Z</time></trkpt><trkpt lat="40.9444917" lon="16.1691483"><ele>361.0</ele><time>2026-05-03T12:39:05.565Z</time></trkpt><trkpt lat="40.9446517" lon="16.1690483"><ele>361.0</ele><time>2026-05-03T12:39:06.564Z</time></trkpt><trkpt lat="40.9448083" lon="16.1689417"><ele>361.0</ele><time>2026-05-03T12:39:07.564Z</time></trkpt><trkpt lat="40.9449783" lon="16.16884"><ele>361.0</ele><time>2026-05-03T12:39:08.564Z</time></trkpt><trkpt lat="40.94515" lon="16.1687667"><ele>361.3333333333333</ele><time>2026-05-03T12:39:09.564Z</time></trkpt><trkpt lat="40.945335" lon="16.16873"><ele>361.6666666666667</ele><time>2026-05-03T12:39:10.564Z</time></trkpt><trkpt lat="40.9455283" lon="16.1687083"><ele>362.0</ele><time>2026-05-03T12:39:11.564Z</time></trkpt><trkpt lat="40.9457217" lon="16.1686983"><ele>362.33333333333337</ele><time>2026-05-03T12:39:12.564Z</time></trkpt><trkpt lat="40.9459167" lon="16.1686867"><ele>362.6666666666667</ele><time>2026-05-03T12:39:13.564Z</time></trkpt><trkpt lat="40.9461133" lon="16.1686767"><ele>363.0</ele><time>2026-05-03T12:39:14.564Z</time></trkpt><trkpt lat="40.9463067" lon="16.1686533"><ele>363.0</ele><time>2026-05-03T12:39:15.565Z</time></trkpt><trkpt lat="40.946495" lon="16.168635"><ele>363.0</ele><time>2026-05-03T12:39:16.564Z</time></trkpt><trkpt lat="40.9466883" lon="16.1686217"><ele>363.0</ele><time>2026-05-03T12:39:17.564Z</time></trkpt><trkpt lat="40.9468733" lon="16.1686083"><ele>364.0</ele><time>2026-05-03T12:39:18.564Z</time></trkpt><trkpt lat="40.9470533" lon="16.1685933"><ele>365.0</ele><time>2026-05-03T12:39:19.565Z</time></trkpt><trkpt lat="40.9472333" lon="16.1685817"><ele>366.0</ele><time>2026-05-03T12:39:20.565Z</time></trkpt><trkpt lat="40.9474067" lon="16.1685617"><ele>367.3333333333333</ele><time>2026-05-03T12:39:21.564Z</time></trkpt><trkpt lat="40.947575" lon="16.168545"><ele>368.66666666666663</ele><time>2026-05-03T12:39:22.565Z</time></trkpt><trkpt lat="40.94774" lon="16.1685283"><ele>370.0</ele><time>2026-05-03T12:39:23.564Z</time></trkpt><trkpt lat="40.9479033" lon="16.1685167"><ele>370.0</ele><time>2026-05-03T12:39:24.564Z</time></trkpt><trkpt lat="40.94805" lon="16.1685067"><ele>370.0</ele><time>2026-05-03T12:39:25.565Z</time></trkpt><trkpt lat="40.9481933" lon="16.1684967"><ele>370.0</ele><time>2026-05-03T12:39:26.564Z</time></trkpt><trkpt lat="40.9483317" lon="16.1684833"><ele>370.0</ele><time>2026-05-03T12:39:27.564Z</time></trkpt><trkpt lat="40.9484583" lon="16.1684467"><ele>370.8</ele><time>2026-05-03T12:39:28.564Z</time></trkpt><trkpt lat="40.9485733" lon="16.1683917"><ele>371.6</ele><time>2026-05-03T12:39:29.564Z</time></trkpt><trkpt lat="40.9486767" lon="16.1683183"><ele>372.4</ele><time>2026-05-03T12:39:30.564Z</time></trkpt><trkpt lat="40.9487567" lon="16.1682483"><ele>373.2</ele><time>2026-05-03T12:39:31.565Z</time></trkpt><trkpt lat="40.9488217" lon="16.1681733"><ele>374.0</ele><time>2026-05-03T12:39:32.564Z</time></trkpt><trkpt lat="40.9488767" lon="16.1680733"><ele>374.0</ele><time>2026-05-03T12:39:33.564Z</time></trkpt><trkpt lat="40.9489283" lon="16.16796"><ele>374.0</ele><time>2026-05-03T12:39:34.564Z</time></trkpt><trkpt lat="40.9489633" lon="16.1678233"><ele>374.0</ele><time>2026-05-03T12:39:35.565Z</time></trkpt><trkpt lat="40.94899" lon="16.16768"><ele>374.0</ele><time>2026-05-03T12:39:36.564Z</time></trkpt><trkpt lat="40.9490117" lon="16.1675367"><ele>374.0</ele><time>2026-05-03T12:39:37.564Z</time></trkpt><trkpt lat="40.9490417" lon="16.167405"><ele>373.79999999999995</ele><time>2026-05-03T12:39:38.564Z</time></trkpt><trkpt lat="40.9490817" lon="16.1672817"><ele>373.59999999999997</ele><time>2026-05-03T12:39:39.564Z</time></trkpt><trkpt lat="40.9491267" lon="16.16715"><ele>373.4</ele><time>2026-05-03T12:39:40.564Z</time></trkpt><trkpt lat="40.9491767" lon="16.1670317"><ele>373.2</ele><time>2026-05-03T12:39:41.564Z</time></trkpt><trkpt lat="40.9492333" lon="16.1669067"><ele>373.0</ele><time>2026-05-03T12:39:42.564Z</time></trkpt><trkpt lat="40.9493017" lon="16.1667633"><ele>373.0</ele><time>2026-05-03T12:39:43.564Z</time></trkpt><trkpt lat="40.9493783" lon="16.1666167"><ele>373.0</ele><time>2026-05-03T12:39:44.565Z</time></trkpt><trkpt lat="40.9494583" lon="16.1664667"><ele>373.0</ele><time>2026-05-03T12:39:45.564Z</time></trkpt><trkpt lat="40.94954" lon="16.1663017"><ele>373.0</ele><time>2026-05-03T12:39:46.565Z</time></trkpt><trkpt lat="40.9496283" lon="16.1661383"><ele>371.3333333333333</ele><time>2026-05-03T12:39:47.564Z</time></trkpt><trkpt lat="40.9497167" lon="16.16597"><ele>369.6666666666667</ele><time>2026-05-03T12:39:48.565Z</time></trkpt><trkpt lat="40.9498083" lon="16.165795"><ele>368.0</ele><time>2026-05-03T12:39:49.564Z</time></trkpt><trkpt lat="40.9499033" lon="16.16562"><ele>367.0</ele><time>2026-05-03T12:39:50.565Z</time></trkpt><trkpt lat="40.9499983" lon="16.1654383"><ele>366.0</ele><time>2026-05-03T12:39:51.564Z</time></trkpt><trkpt lat="40.9500983" lon="16.1652483"><ele>365.0</ele><time>2026-05-03T12:39:52.564Z</time></trkpt><trkpt lat="40.9501933" lon="16.165055"><ele>365.0</ele><time>2026-05-03T12:39:53.564Z</time></trkpt><trkpt lat="40.9502917" lon="16.1648717"><ele>365.0</ele><time>2026-05-03T12:39:54.565Z</time></trkpt><trkpt lat="40.9503933" lon="16.1646833"><ele>365.0</ele><time>2026-05-03T12:39:55.564Z</time></trkpt><trkpt lat="40.9504933" lon="16.16448"><ele>364.6666666666667</ele><time>2026-05-03T12:39:56.565Z</time></trkpt><trkpt lat="40.9505967" lon="16.16428"><ele>364.3333333333333</ele><time>2026-05-03T12:39:57.564Z</time></trkpt><trkpt lat="40.950705" lon="16.164075"><ele>364.0</ele><time>2026-05-03T12:39:58.564Z</time></trkpt><trkpt lat="40.95081" lon="16.1638667"><ele>364.3333333333333</ele><time>2026-05-03T12:39:59.564Z</time></trkpt><trkpt lat="40.9509233" lon="16.163655"><ele>364.6666666666667</ele><time>2026-05-03T12:40:00.564Z</time></trkpt><trkpt lat="40.95103" lon="16.1634433"><ele>365.0</ele><time>2026-05-03T12:40:01.565Z</time></trkpt><trkpt lat="40.9511417" lon="16.1632283"><ele>363.0</ele><time>2026-05-03T12:40:02.564Z</time></trkpt><trkpt lat="40.9512567" lon="16.163025"><ele>361.0</ele><time>2026-05-03T12:40:03.564Z</time></trkpt><trkpt lat="40.9513717" lon="16.1627967"><ele>359.0</ele><time>2026-05-03T12:40:04.564Z</time></trkpt><trkpt lat="40.951495" lon="16.1625933"><ele>359.0</ele><time>2026-05-03T12:40:05.565Z</time></trkpt><trkpt lat="40.9516083" lon="16.162375"><ele>359.0</ele><time>2026-05-03T12:40:06.565Z</time></trkpt><trkpt lat="40.9517217" lon="16.162155"><ele>359.0</ele><time>2026-05-03T12:40:07.564Z</time></trkpt><trkpt lat="40.9518333" lon="16.16193"><ele>359.0</ele><time>2026-05-03T12:40:08.564Z</time></trkpt><trkpt lat="40.9519433" lon="16.1617117"><ele>359.0</ele><time>2026-05-03T12:40:09.564Z</time></trkpt><trkpt lat="40.9520367" lon="16.1614833"><ele>359.0</ele><time>2026-05-03T12:40:10.565Z</time></trkpt><trkpt lat="40.9521133" lon="16.161245"><ele>359.0</ele><time>2026-05-03T12:40:11.564Z</time></trkpt><trkpt lat="40.9521883" lon="16.1610067"><ele>359.0</ele><time>2026-05-03T12:40:12.565Z</time></trkpt><trkpt lat="40.9522567" lon="16.16076"><ele>359.0</ele><time>2026-05-03T12:40:13.565Z</time></trkpt><trkpt lat="40.9523317" lon="16.1605233"><ele>359.0</ele><time>2026-05-03T12:40:14.564Z</time></trkpt><trkpt lat="40.9524067" lon="16.1602933"><ele>359.0</ele><time>2026-05-03T12:40:15.564Z</time></trkpt><trkpt lat="40.9524767" lon="16.1600533"><ele>359.0</ele><time>2026-05-03T12:40:16.565Z</time></trkpt><trkpt lat="40.9525467" lon="16.159815"><ele>361.33333333333337</ele><time>2026-05-03T12:40:17.564Z</time></trkpt><trkpt lat="40.95261" lon="16.1595783"><ele>363.6666666666667</ele><time>2026-05-03T12:40:18.564Z</time></trkpt><trkpt lat="40.9526817" lon="16.1593367"><ele>366.0</ele><time>2026-05-03T12:40:19.564Z</time></trkpt><trkpt lat="40.9527517" lon="16.159095"><ele>366.0</ele><time>2026-05-03T12:40:20.564Z</time></trkpt><trkpt lat="40.9528233" lon="16.1588467"><ele>366.0</ele><time>2026-05-03T12:40:21.565Z</time></trkpt><trkpt lat="40.9528983" lon="16.1586067"><ele>366.0</ele><time>2026-05-03T12:40:22.565Z</time></trkpt><trkpt lat="40.95297" lon="16.15837"><ele>364.6666666666667</ele><time>2026-05-03T12:40:23.565Z</time></trkpt><trkpt lat="40.9530417" lon="16.1581333"><ele>363.33333333333337</ele><time>2026-05-03T12:40:24.565Z</time></trkpt><trkpt lat="40.95311" lon="16.1578933"><ele>362.0</ele><time>2026-05-03T12:40:25.565Z</time></trkpt><trkpt lat="40.953175" lon="16.1576517"><ele>362.0</ele><time>2026-05-03T12:40:26.564Z</time></trkpt><trkpt lat="40.9532483" lon="16.1574183"><ele>362.0</ele><time>2026-05-03T12:40:27.564Z</time></trkpt><trkpt lat="40.9533167" lon="16.157185"><ele>362.0</ele><time>2026-05-03T12:40:28.564Z</time></trkpt><trkpt lat="40.9533883" lon="16.156955"><ele>362.33333333333337</ele><time>2026-05-03T12:40:29.564Z</time></trkpt><trkpt lat="40.95346" lon="16.1567167"><ele>362.6666666666667</ele><time>2026-05-03T12:40:30.565Z</time></trkpt><trkpt lat="40.9535433" lon="16.156485"><ele>363.0</ele><time>2026-05-03T12:40:31.564Z</time></trkpt><trkpt lat="40.95363" lon="16.1562483"><ele>363.0</ele><time>2026-05-03T12:40:32.564Z</time></trkpt><trkpt lat="40.9537183" lon="16.15602"><ele>363.0</ele><time>2026-05-03T12:40:33.564Z</time></trkpt><trkpt lat="40.953805" lon="16.1557933"><ele>363.0</ele><time>2026-05-03T12:40:34.565Z</time></trkpt><trkpt lat="40.953895" lon="16.1555733"><ele>362.6666666666667</ele><time>2026-05-03T12:40:35.564Z</time></trkpt><trkpt lat="40.9539817" lon="16.1553483"><ele>362.33333333333337</ele><time>2026-05-03T12:40:36.565Z</time></trkpt><trkpt lat="40.95406" lon="16.1551367"><ele>362.0</ele><time>2026-05-03T12:40:37.565Z</time></trkpt><trkpt lat="40.9541317" lon="16.1549333"><ele>363.6666666666667</ele><time>2026-05-03T12:40:38.564Z</time></trkpt><trkpt lat="40.954205" lon="16.1547567"><ele>365.3333333333333</ele><time>2026-05-03T12:40:39.564Z</time></trkpt><trkpt lat="40.9542733" lon="16.154575"><ele>367.0</ele><time>2026-05-03T12:40:40.565Z</time></trkpt><trkpt lat="40.9543467" lon="16.15439"><ele>367.0</ele><time>2026-05-03T12:40:41.564Z</time></trkpt><trkpt lat="40.954415" lon="16.1542017"><ele>367.0</ele><time>2026-05-03T12:40:42.565Z</time></trkpt><trkpt lat="40.95449" lon="16.154005"><ele>367.0</ele><time>2026-05-03T12:40:43.564Z</time></trkpt><trkpt lat="40.9545583" lon="16.1538083"><ele>366.0</ele><time>2026-05-03T12:40:44.564Z</time></trkpt><trkpt lat="40.95463" lon="16.153625"><ele>365.0</ele><time>2026-05-03T12:40:45.564Z</time></trkpt><trkpt lat="40.954705" lon="16.1534533"><ele>364.0</ele><time>2026-05-03T12:40:46.564Z</time></trkpt><trkpt lat="40.9547933" lon="16.1532883"><ele>364.0</ele><time>2026-05-03T12:40:47.564Z</time></trkpt><trkpt lat="40.9548933" lon="16.15313"><ele>364.0</ele><time>2026-05-03T12:40:48.564Z</time></trkpt><trkpt lat="40.9550083" lon="16.1529717"><ele>364.0</ele><time>2026-05-03T12:40:49.565Z</time></trkpt><trkpt lat="40.9551183" lon="16.1527967"><ele>364.0</ele><time>2026-05-03T12:40:50.564Z</time></trkpt><trkpt lat="40.955225" lon="16.1526367"><ele>364.0</ele><time>2026-05-03T12:40:51.564Z</time></trkpt><trkpt lat="40.955335" lon="16.152485"><ele>364.0</ele><time>2026-05-03T12:40:52.564Z</time></trkpt><trkpt lat="40.9554333" lon="16.15234"><ele>363.0</ele><time>2026-05-03T12:40:53.564Z</time></trkpt><trkpt lat="40.955525" lon="16.1522067"><ele>362.0</ele><time>2026-05-03T12:40:54.564Z</time></trkpt><trkpt lat="40.9556117" lon="16.1520917"><ele>361.0</ele><time>2026-05-03T12:40:55.564Z</time></trkpt><trkpt lat="40.95567" lon="16.15198"><ele>360.0</ele><time>2026-05-03T12:40:56.564Z</time></trkpt><trkpt lat="40.9557267" lon="16.1518767"><ele>360.0</ele><time>2026-05-03T12:40:57.564Z</time></trkpt><trkpt lat="40.9557783" lon="16.1517917"><ele>360.0</ele><time>2026-05-03T12:40:58.564Z</time></trkpt><trkpt lat="40.95582" lon="16.1517217"><ele>360.0</ele><time>2026-05-03T12:40:59.564Z</time></trkpt><trkpt lat="40.9558767" lon="16.1516717"><ele>360.0</ele><time>2026-05-03T12:41:00.564Z</time></trkpt><trkpt lat="40.9559333" lon="16.1516333"><ele>360.0</ele><time>2026-05-03T12:41:01.564Z</time></trkpt><trkpt lat="40.9559833" lon="16.1515733"><ele>360.0</ele><time>2026-05-03T12:41:02.564Z</time></trkpt><trkpt lat="40.956025" lon="16.1514917"><ele>360.0</ele><time>2026-05-03T12:41:03.564Z</time></trkpt><trkpt lat="40.9560533" lon="16.15139"><ele>360.5</ele><time>2026-05-03T12:41:04.564Z</time></trkpt><trkpt lat="40.9560767" lon="16.1512517"><ele>361.0</ele><time>2026-05-03T12:41:05.564Z</time></trkpt><trkpt lat="40.9561083" lon="16.1511033"><ele>361.5</ele><time>2026-05-03T12:41:06.564Z</time></trkpt><trkpt lat="40.9561667" lon="16.1509517"><ele>362.0</ele><time>2026-05-03T12:41:07.564Z</time></trkpt><trkpt lat="40.956235" lon="16.1507883"><ele>362.0</ele><time>2026-05-03T12:41:08.564Z</time></trkpt><trkpt lat="40.95631" lon="16.1506267"><ele>362.0</ele><time>2026-05-03T12:41:09.564Z</time></trkpt><trkpt lat="40.9563883" lon="16.1504533"><ele>362.0</ele><time>2026-05-03T12:41:10.565Z</time></trkpt><trkpt lat="40.9564733" lon="16.1502817"><ele>362.0</ele><time>2026-05-03T12:41:11.564Z</time></trkpt><trkpt lat="40.9565533" lon="16.1500967"><ele>362.0</ele><time>2026-05-03T12:41:12.564Z</time></trkpt><trkpt lat="40.9566333" lon="16.14991"><ele>362.0</ele><time>2026-05-03T12:41:13.564Z</time></trkpt><trkpt lat="40.9567217" lon="16.1497183"><ele>363.33333333333337</ele><time>2026-05-03T12:41:14.565Z</time></trkpt><trkpt lat="40.9568133" lon="16.14952"><ele>364.6666666666667</ele><time>2026-05-03T12:41:15.565Z</time></trkpt><trkpt lat="40.95691" lon="16.1493217"><ele>366.0</ele><time>2026-05-03T12:41:16.564Z</time></trkpt><trkpt lat="40.9570033" lon="16.149125"><ele>365.6666666666667</ele><time>2026-05-03T12:41:17.564Z</time></trkpt><trkpt lat="40.9570933" lon="16.1489317"><ele>365.33333333333337</ele><time>2026-05-03T12:41:18.564Z</time></trkpt><trkpt lat="40.95718" lon="16.1487267"><ele>365.0</ele><time>2026-05-03T12:41:19.564Z</time></trkpt><trkpt lat="40.9572783" lon="16.1485217"><ele>365.0</ele><time>2026-05-03T12:41:20.564Z</time></trkpt><trkpt lat="40.9573833" lon="16.1483283"><ele>365.0</ele><time>2026-05-03T12:41:21.564Z</time></trkpt><trkpt lat="40.9574867" lon="16.1481383"><ele>365.0</ele><time>2026-05-03T12:41:22.564Z</time></trkpt><trkpt lat="40.9576033" lon="16.147945"><ele>365.0</ele><time>2026-05-03T12:41:23.564Z</time></trkpt><trkpt lat="40.95772" lon="16.1477433"><ele>365.0</ele><time>2026-05-03T12:41:24.564Z</time></trkpt><trkpt lat="40.9578333" lon="16.1475383"><ele>365.0</ele><time>2026-05-03T12:41:25.565Z</time></trkpt><trkpt lat="40.9579467" lon="16.1473283"><ele>365.0</ele><time>2026-05-03T12:41:26.564Z</time></trkpt><trkpt lat="40.9580567" lon="16.1471267"><ele>365.0</ele><time>2026-05-03T12:41:27.564Z</time></trkpt><trkpt lat="40.9581667" lon="16.1469317"><ele>365.0</ele><time>2026-05-03T12:41:28.564Z</time></trkpt><trkpt lat="40.95828" lon="16.1467333"><ele>366.0</ele><time>2026-05-03T12:41:29.564Z</time></trkpt><trkpt lat="40.9583917" lon="16.1465283"><ele>367.0</ele><time>2026-05-03T12:41:30.564Z</time></trkpt><trkpt lat="40.9585" lon="16.1463367"><ele>368.0</ele><time>2026-05-03T12:41:31.565Z</time></trkpt><trkpt lat="40.958605" lon="16.1461367"><ele>368.0</ele><time>2026-05-03T12:41:32.565Z</time></trkpt><trkpt lat="40.9587167" lon="16.1459333"><ele>368.0</ele><time>2026-05-03T12:41:33.565Z</time></trkpt><trkpt lat="40.958825" lon="16.145745"><ele>368.0</ele><time>2026-05-03T12:41:34.564Z</time></trkpt><trkpt lat="40.958935" lon="16.1455483"><ele>368.6666666666667</ele><time>2026-05-03T12:41:35.564Z</time></trkpt><trkpt lat="40.9590483" lon="16.145345"><ele>369.3333333333333</ele><time>2026-05-03T12:41:36.564Z</time></trkpt><trkpt lat="40.9591617" lon="16.14515"><ele>370.0</ele><time>2026-05-03T12:41:37.564Z</time></trkpt><trkpt lat="40.9592717" lon="16.1449433"><ele>369.66666666666663</ele><time>2026-05-03T12:41:38.564Z</time></trkpt><trkpt lat="40.95938" lon="16.1447433"><ele>369.3333333333333</ele><time>2026-05-03T12:41:39.565Z</time></trkpt><trkpt lat="40.9594933" lon="16.1445483"><ele>369.0</ele><time>2026-05-03T12:41:40.565Z</time></trkpt><trkpt lat="40.9595983" lon="16.1443617"><ele>369.0</ele><time>2026-05-03T12:41:41.564Z</time></trkpt><trkpt lat="40.9597033" lon="16.1441617"><ele>369.0</ele><time>2026-05-03T12:41:42.564Z</time></trkpt><trkpt lat="40.9598117" lon="16.1439633"><ele>369.0</ele><time>2026-05-03T12:41:43.565Z</time></trkpt><trkpt lat="40.9599233" lon="16.1437617"><ele>368.6666666666667</ele><time>2026-05-03T12:41:44.564Z</time></trkpt><trkpt lat="40.9600333" lon="16.14355"><ele>368.33333333333337</ele><time>2026-05-03T12:41:45.565Z</time></trkpt><trkpt lat="40.9601417" lon="16.1433467"><ele>368.0</ele><time>2026-05-03T12:41:46.564Z</time></trkpt><trkpt lat="40.9602517" lon="16.1431533"><ele>370.0</ele><time>2026-05-03T12:41:47.564Z</time></trkpt><trkpt lat="40.96035" lon="16.1429517"><ele>372.0</ele><time>2026-05-03T12:41:48.565Z</time></trkpt><trkpt lat="40.9604517" lon="16.14274"><ele>374.0</ele><time>2026-05-03T12:41:49.565Z</time></trkpt><trkpt lat="40.960555" lon="16.142535"><ele>373.0</ele><time>2026-05-03T12:41:50.564Z</time></trkpt><trkpt lat="40.960655" lon="16.1423317"><ele>372.0</ele><time>2026-05-03T12:41:51.564Z</time></trkpt><trkpt lat="40.9607533" lon="16.1421283"><ele>371.0</ele><time>2026-05-03T12:41:52.564Z</time></trkpt><trkpt lat="40.960855" lon="16.1419267"><ele>373.0</ele><time>2026-05-03T12:41:53.564Z</time></trkpt><trkpt lat="40.9609383" lon="16.1417067"><ele>375.0</ele><time>2026-05-03T12:41:54.565Z</time></trkpt><trkpt lat="40.9610233" lon="16.1414867"><ele>377.0</ele><time>2026-05-03T12:41:55.565Z</time></trkpt><trkpt lat="40.96111" lon="16.1412533"><ele>377.0</ele><time>2026-05-03T12:41:56.564Z</time></trkpt><trkpt lat="40.961185" lon="16.1410167"><ele>377.0</ele><time>2026-05-03T12:41:57.564Z</time></trkpt><trkpt lat="40.9612583" lon="16.140785"><ele>377.0</ele><time>2026-05-03T12:41:58.564Z</time></trkpt><trkpt lat="40.9613383" lon="16.14055"><ele>376.33333333333337</ele><time>2026-05-03T12:41:59.564Z</time></trkpt><trkpt lat="40.9614117" lon="16.140315"><ele>375.6666666666667</ele><time>2026-05-03T12:42:00.564Z</time></trkpt><trkpt lat="40.9614833" lon="16.1400717"><ele>375.0</ele><time>2026-05-03T12:42:01.565Z</time></trkpt><trkpt lat="40.9615583" lon="16.13983"><ele>374.0</ele><time>2026-05-03T12:42:02.565Z</time></trkpt><trkpt lat="40.9616417" lon="16.1395983"><ele>373.0</ele><time>2026-05-03T12:42:03.565Z</time></trkpt><trkpt lat="40.96172" lon="16.1393633"><ele>372.0</ele><time>2026-05-03T12:42:04.564Z</time></trkpt><trkpt lat="40.9618083" lon="16.1391317"><ele>375.0</ele><time>2026-05-03T12:42:05.564Z</time></trkpt><trkpt lat="40.9618967" lon="16.138905"><ele>378.0</ele><time>2026-05-03T12:42:06.565Z</time></trkpt><trkpt lat="40.96199" lon="16.1386767"><ele>381.0</ele><time>2026-05-03T12:42:07.564Z</time></trkpt><trkpt lat="40.9620867" lon="16.1384617"><ele>381.0</ele><time>2026-05-03T12:42:08.564Z</time></trkpt><trkpt lat="40.9621867" lon="16.138235"><ele>381.0</ele><time>2026-05-03T12:42:09.564Z</time></trkpt><trkpt lat="40.9622867" lon="16.138025"><ele>381.0</ele><time>2026-05-03T12:42:10.565Z</time></trkpt><trkpt lat="40.9623883" lon="16.1378183"><ele>380.3333333333333</ele><time>2026-05-03T12:42:11.564Z</time></trkpt><trkpt lat="40.9624833" lon="16.1376"><ele>379.66666666666663</ele><time>2026-05-03T12:42:12.564Z</time></trkpt><trkpt lat="40.9625833" lon="16.1373783"><ele>379.0</ele><time>2026-05-03T12:42:13.564Z</time></trkpt><trkpt lat="40.9626767" lon="16.137165"><ele>379.0</ele><time>2026-05-03T12:42:14.564Z</time></trkpt><trkpt lat="40.9627783" lon="16.1369567"><ele>379.0</ele><time>2026-05-03T12:42:15.565Z</time></trkpt><trkpt lat="40.96288" lon="16.1367383"><ele>379.0</ele><time>2026-05-03T12:42:16.565Z</time></trkpt><trkpt lat="40.9629833" lon="16.1365133"><ele>377.0</ele><time>2026-05-03T12:42:17.564Z</time></trkpt><trkpt lat="40.9630883" lon="16.1362867"><ele>375.0</ele><time>2026-05-03T12:42:18.564Z</time></trkpt><trkpt lat="40.963195" lon="16.1360633"><ele>373.0</ele><time>2026-05-03T12:42:19.564Z</time></trkpt><trkpt lat="40.9633083" lon="16.1358467"><ele>373.3333333333333</ele><time>2026-05-03T12:42:20.565Z</time></trkpt><trkpt lat="40.9634183" lon="16.1356383"><ele>373.6666666666667</ele><time>2026-05-03T12:42:21.564Z</time></trkpt><trkpt lat="40.9635217" lon="16.13542"><ele>374.0</ele><time>2026-05-03T12:42:22.564Z</time></trkpt><trkpt lat="40.9636333" lon="16.1352117"><ele>374.0</ele><time>2026-05-03T12:42:23.564Z</time></trkpt><trkpt lat="40.9637483" lon="16.1349983"><ele>374.0</ele><time>2026-05-03T12:42:24.565Z</time></trkpt><trkpt lat="40.9638633" lon="16.134795"><ele>374.0</ele><time>2026-05-03T12:42:25.564Z</time></trkpt><trkpt lat="40.9639733" lon="16.1345933"><ele>374.0</ele><time>2026-05-03T12:42:26.565Z</time></trkpt><trkpt lat="40.9640767" lon="16.1344067"><ele>374.0</ele><time>2026-05-03T12:42:27.564Z</time></trkpt><trkpt lat="40.9641783" lon="16.1342233"><ele>374.0</ele><time>2026-05-03T12:42:28.565Z</time></trkpt><trkpt lat="40.9642717" lon="16.1340617"><ele>372.75</ele><time>2026-05-03T12:42:29.565Z</time></trkpt><trkpt lat="40.96436" lon="16.13391"><ele>371.5</ele><time>2026-05-03T12:42:30.564Z</time></trkpt><trkpt lat="40.9644417" lon="16.133775"><ele>370.25</ele><time>2026-05-03T12:42:31.564Z</time></trkpt><trkpt lat="40.9645183" lon="16.1336633"><ele>369.0</ele><time>2026-05-03T12:42:32.564Z</time></trkpt><trkpt lat="40.9646033" lon="16.1335717"><ele>369.0</ele><time>2026-05-03T12:42:33.565Z</time></trkpt><trkpt lat="40.9646917" lon="16.13352"><ele>369.0</ele><time>2026-05-03T12:42:34.564Z</time></trkpt><trkpt lat="40.96479" lon="16.133495"><ele>369.0</ele><time>2026-05-03T12:42:35.565Z</time></trkpt><trkpt lat="40.9649017" lon="16.1334767"><ele>369.0</ele><time>2026-05-03T12:42:36.565Z</time></trkpt><trkpt lat="40.9650183" lon="16.13346"><ele>369.0</ele><time>2026-05-03T12:42:37.564Z</time></trkpt><trkpt lat="40.9651417" lon="16.1334467"><ele>368.79999999999995</ele><time>2026-05-03T12:42:38.565Z</time></trkpt><trkpt lat="40.9652567" lon="16.13342"><ele>368.59999999999997</ele><time>2026-05-03T12:42:39.564Z</time></trkpt><trkpt lat="40.965365" lon="16.13338"><ele>368.4</ele><time>2026-05-03T12:42:40.564Z</time></trkpt><trkpt lat="40.96546" lon="16.133315"><ele>368.2</ele><time>2026-05-03T12:42:41.564Z</time></trkpt><trkpt lat="40.9655383" lon="16.1332167"><ele>368.0</ele><time>2026-05-03T12:42:42.564Z</time></trkpt><trkpt lat="40.9655917" lon="16.1331"><ele>368.0</ele><time>2026-05-03T12:42:43.564Z</time></trkpt><trkpt lat="40.965625" lon="16.1329783"><ele>368.0</ele><time>2026-05-03T12:42:44.565Z</time></trkpt><trkpt lat="40.9656233" lon="16.1328367"><ele>368.0</ele><time>2026-05-03T12:42:45.564Z</time></trkpt><trkpt lat="40.9655983" lon="16.132695"><ele>368.0</ele><time>2026-05-03T12:42:46.565Z</time></trkpt><trkpt lat="40.9655517" lon="16.1325567"><ele>368.0</ele><time>2026-05-03T12:42:47.564Z</time></trkpt><trkpt lat="40.965485" lon="16.1324383"><ele>367.0</ele><time>2026-05-03T12:42:48.565Z</time></trkpt><trkpt lat="40.9654183" lon="16.1323233"><ele>366.0</ele><time>2026-05-03T12:42:49.565Z</time></trkpt><trkpt lat="40.9653617" lon="16.13222"><ele>365.0</ele><time>2026-05-03T12:42:50.564Z</time></trkpt><trkpt lat="40.9653067" lon="16.1321183"><ele>364.0</ele><time>2026-05-03T12:42:51.565Z</time></trkpt><trkpt lat="40.9652633" lon="16.1319983"><ele>363.0</ele><time>2026-05-03T12:42:52.565Z</time></trkpt><trkpt lat="40.96523" lon="16.13187"><ele>363.0</ele><time>2026-05-03T12:42:53.564Z</time></trkpt><trkpt lat="40.9652233" lon="16.1317367"><ele>363.0</ele><time>2026-05-03T12:42:54.565Z</time></trkpt><trkpt lat="40.9652267" lon="16.13159"><ele>363.0</ele><time>2026-05-03T12:42:55.564Z</time></trkpt><trkpt lat="40.9652417" lon="16.131425"><ele>363.0</ele><time>2026-05-03T12:42:56.565Z</time></trkpt><trkpt lat="40.9652433" lon="16.1312383"><ele>360.3333333333333</ele><time>2026-05-03T12:42:57.564Z</time></trkpt><trkpt lat="40.9652483" lon="16.1310367"><ele>357.66666666666663</ele><time>2026-05-03T12:42:58.565Z</time></trkpt><trkpt lat="40.965255" lon="16.1308267"><ele>355.0</ele><time>2026-05-03T12:42:59.564Z</time></trkpt><trkpt lat="40.9652683" lon="16.1306083"><ele>355.0</ele><time>2026-05-03T12:43:00.564Z</time></trkpt><trkpt lat="40.96527" lon="16.1303783"><ele>355.0</ele><time>2026-05-03T12:43:01.564Z</time></trkpt><trkpt lat="40.965275" lon="16.13015"><ele>355.0</ele><time>2026-05-03T12:43:02.564Z</time></trkpt><trkpt lat="40.965285" lon="16.1299117"><ele>356.0</ele><time>2026-05-03T12:43:03.565Z</time></trkpt><trkpt lat="40.9652917" lon="16.129675"><ele>357.0</ele><time>2026-05-03T12:43:04.564Z</time></trkpt><trkpt lat="40.9653067" lon="16.1294633"><ele>358.0</ele><time>2026-05-03T12:43:05.564Z</time></trkpt><trkpt lat="40.965315" lon="16.129255"><ele>358.0</ele><time>2026-05-03T12:43:06.565Z</time></trkpt><trkpt lat="40.9653267" lon="16.1290617"><ele>358.0</ele><time>2026-05-03T12:43:07.565Z</time></trkpt><trkpt lat="40.9653433" lon="16.1288717"><ele>358.0</ele><time>2026-05-03T12:43:08.564Z</time></trkpt><trkpt lat="40.965375" lon="16.1286783"><ele>358.0</ele><time>2026-05-03T12:43:09.564Z</time></trkpt><trkpt lat="40.9654267" lon="16.128475"><ele>356.3333333333333</ele><time>2026-05-03T12:43:10.565Z</time></trkpt><trkpt lat="40.96549" lon="16.1282733"><ele>354.6666666666667</ele><time>2026-05-03T12:43:11.564Z</time></trkpt><trkpt lat="40.965575" lon="16.12808"><ele>353.0</ele><time>2026-05-03T12:43:12.565Z</time></trkpt><trkpt lat="40.9656717" lon="16.12789"><ele>352.33333333333337</ele><time>2026-05-03T12:43:13.565Z</time></trkpt><trkpt lat="40.9657867" lon="16.127705"><ele>351.6666666666667</ele><time>2026-05-03T12:43:14.565Z</time></trkpt><trkpt lat="40.9659017" lon="16.1275233"><ele>351.0</ele><time>2026-05-03T12:43:15.565Z</time></trkpt><trkpt lat="40.966015" lon="16.1273283"><ele>350.3333333333333</ele><time>2026-05-03T12:43:16.564Z</time></trkpt><trkpt lat="40.9661333" lon="16.12712"><ele>349.66666666666663</ele><time>2026-05-03T12:43:17.564Z</time></trkpt><trkpt lat="40.966255" lon="16.12693"><ele>349.0</ele><time>2026-05-03T12:43:18.565Z</time></trkpt><trkpt lat="40.96638" lon="16.1267367"><ele>348.3333333333333</ele><time>2026-05-03T12:43:19.564Z</time></trkpt><trkpt lat="40.9665017" lon="16.1265417"><ele>347.6666666666667</ele><time>2026-05-03T12:43:20.565Z</time></trkpt><trkpt lat="40.96662" lon="16.1263417"><ele>347.0</ele><time>2026-05-03T12:43:21.565Z</time></trkpt><trkpt lat="40.966735" lon="16.1261433"><ele>347.0</ele><time>2026-05-03T12:43:22.565Z</time></trkpt><trkpt lat="40.966855" lon="16.12594"><ele>347.0</ele><time>2026-05-03T12:43:23.564Z</time></trkpt><trkpt lat="40.96697" lon="16.1257483"><ele>347.0</ele><time>2026-05-03T12:43:24.564Z</time></trkpt><trkpt lat="40.967085" lon="16.12555"><ele>346.0</ele><time>2026-05-03T12:43:25.564Z</time></trkpt><trkpt lat="40.9671967" lon="16.1253533"><ele>345.0</ele><time>2026-05-03T12:43:26.564Z</time></trkpt><trkpt lat="40.9673167" lon="16.1251583"><ele>344.0</ele><time>2026-05-03T12:43:27.565Z</time></trkpt><trkpt lat="40.9674283" lon="16.1249667"><ele>343.33333333333337</ele><time>2026-05-03T12:43:28.564Z</time></trkpt><trkpt lat="40.9675467" lon="16.1247917"><ele>342.6666666666667</ele><time>2026-05-03T12:43:29.564Z</time></trkpt><trkpt lat="40.9676517" lon="16.1246133"><ele>342.0</ele><time>2026-05-03T12:43:30.565Z</time></trkpt><trkpt lat="40.9677583" lon="16.1244533"><ele>342.0</ele><time>2026-05-03T12:43:31.564Z</time></trkpt><trkpt lat="40.9678683" lon="16.12429"><ele>342.0</ele><time>2026-05-03T12:43:32.564Z</time></trkpt><trkpt lat="40.967995" lon="16.12414"><ele>342.0</ele><time>2026-05-03T12:43:33.565Z</time></trkpt><trkpt lat="40.9681417" lon="16.124"><ele>342.0</ele><time>2026-05-03T12:43:34.564Z</time></trkpt><trkpt lat="40.9682933" lon="16.12387"><ele>342.0</ele><time>2026-05-03T12:43:35.565Z</time></trkpt><trkpt lat="40.96844" lon="16.1237367"><ele>342.0</ele><time>2026-05-03T12:43:36.565Z</time></trkpt><trkpt lat="40.96859" lon="16.1236117"><ele>342.0</ele><time>2026-05-03T12:43:37.564Z</time></trkpt><trkpt lat="40.968735" lon="16.123485"><ele>342.0</ele><time>2026-05-03T12:43:38.564Z</time></trkpt><trkpt lat="40.9688867" lon="16.1233533"><ele>342.0</ele><time>2026-05-03T12:43:39.564Z</time></trkpt><trkpt lat="40.969035" lon="16.1232167"><ele>340.3333333333333</ele><time>2026-05-03T12:43:40.565Z</time></trkpt><trkpt lat="40.9691917" lon="16.1230917"><ele>338.66666666666663</ele><time>2026-05-03T12:43:41.564Z</time></trkpt><trkpt lat="40.969345" lon="16.12297"><ele>337.0</ele><time>2026-05-03T12:43:42.565Z</time></trkpt><trkpt lat="40.969495" lon="16.1228367"><ele>337.0</ele><time>2026-05-03T12:43:43.564Z</time></trkpt><trkpt lat="40.9696533" lon="16.1226967"><ele>337.0</ele><time>2026-05-03T12:43:44.564Z</time></trkpt><trkpt lat="40.9698083" lon="16.122555"><ele>337.0</ele><time>2026-05-03T12:43:45.565Z</time></trkpt><trkpt lat="40.96996" lon="16.1224167"><ele>337.3333333333333</ele><time>2026-05-03T12:43:46.565Z</time></trkpt><trkpt lat="40.9701183" lon="16.1222833"><ele>337.6666666666667</ele><time>2026-05-03T12:43:47.564Z</time></trkpt><trkpt lat="40.970275" lon="16.1221467"><ele>338.0</ele><time>2026-05-03T12:43:48.564Z</time></trkpt><trkpt lat="40.9704267" lon="16.122025"><ele>338.0</ele><time>2026-05-03T12:43:49.564Z</time></trkpt><trkpt lat="40.970585" lon="16.12189"><ele>338.0</ele><time>2026-05-03T12:43:50.564Z</time></trkpt><trkpt lat="40.970745" lon="16.1217567"><ele>338.0</ele><time>2026-05-03T12:43:51.565Z</time></trkpt><trkpt lat="40.9708983" lon="16.1216183"><ele>337.0</ele><time>2026-05-03T12:43:52.564Z</time></trkpt><trkpt lat="40.9710467" lon="16.1214817"><ele>336.0</ele><time>2026-05-03T12:43:53.564Z</time></trkpt><trkpt lat="40.971205" lon="16.1213467"><ele>335.0</ele><time>2026-05-03T12:43:54.564Z</time></trkpt><trkpt lat="40.9713533" lon="16.12122"><ele>335.0</ele><time>2026-05-03T12:43:55.564Z</time></trkpt><trkpt lat="40.97149" lon="16.1210983"><ele>335.0</ele><time>2026-05-03T12:43:56.564Z</time></trkpt><trkpt lat="40.9716133" lon="16.12099"><ele>335.0</ele><time>2026-05-03T12:43:57.564Z</time></trkpt><trkpt lat="40.9717217" lon="16.1209067"><ele>335.0</ele><time>2026-05-03T12:43:58.564Z</time></trkpt><trkpt lat="40.9718217" lon="16.1208133"><ele>335.0</ele><time>2026-05-03T12:43:59.564Z</time></trkpt><trkpt lat="40.9719217" lon="16.12073"><ele>335.0</ele><time>2026-05-03T12:44:00.564Z</time></trkpt><trkpt lat="40.972025" lon="16.12065"><ele>335.0</ele><time>2026-05-03T12:44:01.564Z</time></trkpt><trkpt lat="40.972125" lon="16.1205567"><ele>335.0</ele><time>2026-05-03T12:44:02.564Z</time></trkpt><trkpt lat="40.972235" lon="16.1204617"><ele>335.0</ele><time>2026-05-03T12:44:03.565Z</time></trkpt><trkpt lat="40.9723467" lon="16.1203617"><ele>335.0</ele><time>2026-05-03T12:44:04.564Z</time></trkpt><trkpt lat="40.9724583" lon="16.1202333"><ele>335.0</ele><time>2026-05-03T12:44:05.565Z</time></trkpt><trkpt lat="40.9725517" lon="16.12007"><ele>335.0</ele><time>2026-05-03T12:44:06.565Z</time></trkpt><trkpt lat="40.9726433" lon="16.11989"><ele>337.6666666666667</ele><time>2026-05-03T12:44:07.565Z</time></trkpt><trkpt lat="40.97273" lon="16.119705"><ele>340.3333333333333</ele><time>2026-05-03T12:44:08.564Z</time></trkpt><trkpt lat="40.9728217" lon="16.1195067"><ele>343.0</ele><time>2026-05-03T12:44:09.565Z</time></trkpt><trkpt lat="40.972915" lon="16.1193083"><ele>343.0</ele><time>2026-05-03T12:44:10.564Z</time></trkpt><trkpt lat="40.9730083" lon="16.119125"><ele>343.0</ele><time>2026-05-03T12:44:11.564Z</time></trkpt><trkpt lat="40.973095" lon="16.1189483"><ele>343.0</ele><time>2026-05-03T12:44:12.565Z</time></trkpt><trkpt lat="40.9731717" lon="16.118795"><ele>342.5</ele><time>2026-05-03T12:44:13.564Z</time></trkpt><trkpt lat="40.9732417" lon="16.1186567"><ele>342.0</ele><time>2026-05-03T12:44:14.564Z</time></trkpt><trkpt lat="40.9732983" lon="16.1185217"><ele>341.5</ele><time>2026-05-03T12:44:15.564Z</time></trkpt><trkpt lat="40.9733617" lon="16.1183917"><ele>341.0</ele><time>2026-05-03T12:44:16.564Z</time></trkpt><trkpt lat="40.9734217" lon="16.1182617"><ele>339.4</ele><time>2026-05-03T12:44:17.565Z</time></trkpt><trkpt lat="40.9734867" lon="16.1181367"><ele>337.8</ele><time>2026-05-03T12:44:18.564Z</time></trkpt><trkpt lat="40.9735417" lon="16.1180317"><ele>336.2</ele><time>2026-05-03T12:44:19.565Z</time></trkpt><trkpt lat="40.9735983" lon="16.1179333"><ele>334.59999999999997</ele><time>2026-05-03T12:44:20.564Z</time></trkpt><trkpt lat="40.9736533" lon="16.1178317"><ele>333.0</ele><time>2026-05-03T12:44:21.565Z</time></trkpt><trkpt lat="40.9737017" lon="16.1177417"><ele>333.0</ele><time>2026-05-03T12:44:22.564Z</time></trkpt><trkpt lat="40.9737633" lon="16.117645"><ele>333.0</ele><time>2026-05-03T12:44:23.564Z</time></trkpt><trkpt lat="40.97382" lon="16.1175467"><ele>333.0</ele><time>2026-05-03T12:44:24.564Z</time></trkpt><trkpt lat="40.97388" lon="16.117455"><ele>333.0</ele><time>2026-05-03T12:44:25.564Z</time></trkpt><trkpt lat="40.9739367" lon="16.117375"><ele>333.0</ele><time>2026-05-03T12:44:26.565Z</time></trkpt><trkpt lat="40.9739917" lon="16.1173033"><ele>333.0</ele><time>2026-05-03T12:44:27.564Z</time></trkpt><trkpt lat="40.9740433" lon="16.1172267"><ele>333.5714285714286</ele><time>2026-05-03T12:44:28.565Z</time></trkpt><trkpt lat="40.9740983" lon="16.117155"><ele>334.1428571428571</ele><time>2026-05-03T12:44:29.564Z</time></trkpt><trkpt lat="40.9741517" lon="16.1170833"><ele>334.7142857142857</ele><time>2026-05-03T12:44:30.564Z</time></trkpt><trkpt lat="40.9742017" lon="16.1170167"><ele>335.28571428571433</ele><time>2026-05-03T12:44:31.564Z</time></trkpt><trkpt lat="40.97425" lon="16.1169383"><ele>335.8571428571429</ele><time>2026-05-03T12:44:32.564Z</time></trkpt><trkpt lat="40.9742983" lon="16.1168617"><ele>336.42857142857144</ele><time>2026-05-03T12:44:33.564Z</time></trkpt><trkpt lat="40.9743417" lon="16.1167917"><ele>337.0</ele><time>2026-05-03T12:44:34.564Z</time></trkpt><trkpt lat="40.9743867" lon="16.1167267"><ele>337.0</ele><time>2026-05-03T12:44:35.564Z</time></trkpt><trkpt lat="40.9744333" lon="16.11666"><ele>337.0</ele><time>2026-05-03T12:44:36.564Z</time></trkpt><trkpt lat="40.9744883" lon="16.116595"><ele>337.0</ele><time>2026-05-03T12:44:37.565Z</time></trkpt><trkpt lat="40.9745383" lon="16.1165317"><ele>337.0</ele><time>2026-05-03T12:44:38.564Z</time></trkpt><trkpt lat="40.9745883" lon="16.1164633"><ele>337.0</ele><time>2026-05-03T12:44:39.565Z</time></trkpt><trkpt lat="40.9746667" lon="16.11638"><ele>337.0</ele><time>2026-05-03T12:44:41.564Z</time></trkpt><trkpt lat="40.9746" lon="16.1163783"><ele>337.0</ele><time>2026-05-03T12:44:46.564Z</time></trkpt><trkpt lat="40.97456" lon="16.11646"><ele>337.0</ele><time>2026-05-03T12:44:47.564Z</time></trkpt><trkpt lat="40.9745083" lon="16.1165467"><ele>337.0</ele><time>2026-05-03T12:44:48.564Z</time></trkpt><trkpt lat="40.9744433" lon="16.1166383"><ele>337.0</ele><time>2026-05-03T12:44:49.565Z</time></trkpt><trkpt lat="40.9743717" lon="16.11673"><ele>337.0</ele><time>2026-05-03T12:44:50.564Z</time></trkpt><trkpt lat="40.9742933" lon="16.1168283"><ele>337.0</ele><time>2026-05-03T12:44:51.565Z</time></trkpt><trkpt lat="40.9742117" lon="16.116945"><ele>337.0</ele><time>2026-05-03T12:44:52.565Z</time></trkpt><trkpt lat="40.9741267" lon="16.1170733"><ele>337.0</ele><time>2026-05-03T12:44:53.565Z</time></trkpt><trkpt lat="40.974045" lon="16.1172017"><ele>337.0</ele><time>2026-05-03T12:44:54.564Z</time></trkpt><trkpt lat="40.973965" lon="16.1173117"><ele>336.20000000000005</ele><time>2026-05-03T12:44:55.564Z</time></trkpt><trkpt lat="40.9738933" lon="16.117415"><ele>335.4</ele><time>2026-05-03T12:44:56.563Z</time></trkpt><trkpt lat="40.973825" lon="16.1175167"><ele>334.6</ele><time>2026-05-03T12:44:57.565Z</time></trkpt><trkpt lat="40.9737583" lon="16.11762"><ele>333.79999999999995</ele><time>2026-05-03T12:44:58.564Z</time></trkpt><trkpt lat="40.9736917" lon="16.117725"><ele>333.0</ele><time>2026-05-03T12:44:59.564Z</time></trkpt><trkpt lat="40.9736383" lon="16.1178283"><ele>333.0</ele><time>2026-05-03T12:45:00.564Z</time></trkpt><trkpt lat="40.973595" lon="16.1179183"><ele>333.0</ele><time>2026-05-03T12:45:01.564Z</time></trkpt><trkpt lat="40.9735567" lon="16.1180017"><ele>333.0</ele><time>2026-05-03T12:45:02.564Z</time></trkpt><trkpt lat="40.9735183" lon="16.1180717"><ele>333.0</ele><time>2026-05-03T12:45:03.564Z</time></trkpt><trkpt lat="40.9735133" lon="16.118185"><ele>333.0</ele><time>2026-05-03T12:45:05.564Z</time></trkpt><trkpt lat="40.9735783" lon="16.1182033"><ele>333.0</ele><time>2026-05-03T12:45:07.564Z</time></trkpt><trkpt lat="40.9736767" lon="16.1181633"><ele>333.0</ele><time>2026-05-03T12:45:09.565Z</time></trkpt><trkpt lat="40.97374" lon="16.1181233"><ele>333.0</ele><time>2026-05-03T12:45:10.564Z</time></trkpt><trkpt lat="40.973805" lon="16.1180867"><ele>333.0</ele><time>2026-05-03T12:45:11.565Z</time></trkpt><trkpt lat="40.973875" lon="16.1180433"><ele>333.0</ele><time>2026-05-03T12:45:12.565Z</time></trkpt><trkpt lat="40.97396" lon="16.1180017"><ele>333.0</ele><time>2026-05-03T12:45:13.565Z</time></trkpt><trkpt lat="40.9740617" lon="16.1179617"><ele>333.0</ele><time>2026-05-03T12:45:14.565Z</time></trkpt><trkpt lat="40.9741767" lon="16.1179317"><ele>335.4</ele><time>2026-05-03T12:45:15.564Z</time></trkpt><trkpt lat="40.9742917" lon="16.1179"><ele>337.79999999999995</ele><time>2026-05-03T12:45:16.564Z</time></trkpt><trkpt lat="40.9744033" lon="16.11787"><ele>340.2</ele><time>2026-05-03T12:45:17.564Z</time></trkpt><trkpt lat="40.9745067" lon="16.1178483"><ele>342.6</ele><time>2026-05-03T12:45:18.564Z</time></trkpt><trkpt lat="40.9746" lon="16.1178267"><ele>345.0</ele><time>2026-05-03T12:45:19.564Z</time></trkpt><trkpt lat="40.9746883" lon="16.117805"><ele>345.0</ele><time>2026-05-03T12:45:20.564Z</time></trkpt><trkpt lat="40.9747733" lon="16.1177983"><ele>345.0</ele><time>2026-05-03T12:45:21.564Z</time></trkpt><trkpt lat="40.9748483" lon="16.117785"><ele>345.0</ele><time>2026-05-03T12:45:22.564Z</time></trkpt><trkpt lat="40.9749283" lon="16.11776"><ele>345.0</ele><time>2026-05-03T12:45:23.564Z</time></trkpt><trkpt lat="40.975015" lon="16.1177217"><ele>345.0</ele><time>2026-05-03T12:45:24.564Z</time></trkpt><trkpt lat="40.975115" lon="16.11768"><ele>345.0</ele><time>2026-05-03T12:45:25.565Z</time></trkpt><trkpt lat="40.9752233" lon="16.11764"><ele>346.6666666666667</ele><time>2026-05-03T12:45:26.565Z</time></trkpt><trkpt lat="40.9753217" lon="16.1176017"><ele>348.3333333333333</ele><time>2026-05-03T12:45:27.564Z</time></trkpt><trkpt lat="40.9754017" lon="16.1175583"><ele>350.0</ele><time>2026-05-03T12:45:28.565Z</time></trkpt><trkpt lat="40.975465" lon="16.1175117"><ele>351.66666666666663</ele><time>2026-05-03T12:45:29.564Z</time></trkpt><trkpt lat="40.9755233" lon="16.1174633"><ele>353.3333333333333</ele><time>2026-05-03T12:45:30.564Z</time></trkpt><trkpt lat="40.97559" lon="16.1174367"><ele>355.0</ele><time>2026-05-03T12:45:31.564Z</time></trkpt><trkpt lat="40.9756667" lon="16.117425"><ele>355.0</ele><time>2026-05-03T12:45:32.564Z</time></trkpt><trkpt lat="40.9757667" lon="16.1174467"><ele>355.0</ele><time>2026-05-03T12:45:33.564Z</time></trkpt><trkpt lat="40.97587" lon="16.1174733"><ele>355.0</ele><time>2026-05-03T12:45:34.564Z</time></trkpt><trkpt lat="40.9759833" lon="16.1174967"><ele>355.0</ele><time>2026-05-03T12:45:35.565Z</time></trkpt><trkpt lat="40.9760967" lon="16.1175217"><ele>355.0</ele><time>2026-05-03T12:45:36.564Z</time></trkpt><trkpt lat="40.976205" lon="16.1175517"><ele>356.25</ele><time>2026-05-03T12:45:37.565Z</time></trkpt><trkpt lat="40.97632" lon="16.1175833"><ele>357.5</ele><time>2026-05-03T12:45:38.564Z</time></trkpt><trkpt lat="40.9764333" lon="16.117625"><ele>358.75</ele><time>2026-05-03T12:45:39.564Z</time></trkpt><trkpt lat="40.9765483" lon="16.1176667"><ele>360.0</ele><time>2026-05-03T12:45:40.564Z</time></trkpt><trkpt lat="40.9766483" lon="16.11771"><ele>359.4</ele><time>2026-05-03T12:45:41.564Z</time></trkpt><trkpt lat="40.976745" lon="16.11775"><ele>358.8</ele><time>2026-05-03T12:45:42.564Z</time></trkpt><trkpt lat="40.9768467" lon="16.1177633"><ele>358.20000000000005</ele><time>2026-05-03T12:45:43.564Z</time></trkpt><trkpt lat="40.9769533" lon="16.1177733"><ele>357.6</ele><time>2026-05-03T12:45:44.565Z</time></trkpt><trkpt lat="40.9770583" lon="16.1177983"><ele>357.0</ele><time>2026-05-03T12:45:45.564Z</time></trkpt><trkpt lat="40.9771567" lon="16.11783"><ele>357.0</ele><time>2026-05-03T12:45:46.564Z</time></trkpt><trkpt lat="40.977255" lon="16.1178817"><ele>357.0</ele><time>2026-05-03T12:45:47.564Z</time></trkpt><trkpt lat="40.9773633" lon="16.1179467"><ele>357.0</ele><time>2026-05-03T12:45:48.564Z</time></trkpt><trkpt lat="40.9774683" lon="16.1179867"><ele>357.0</ele><time>2026-05-03T12:45:49.564Z</time></trkpt><trkpt lat="40.9775683" lon="16.1180033"><ele>357.0</ele><time>2026-05-03T12:45:50.564Z</time></trkpt><trkpt lat="40.9776767" lon="16.1179933"><ele>357.5</ele><time>2026-05-03T12:45:51.564Z</time></trkpt><trkpt lat="40.9778" lon="16.1179717"><ele>358.0</ele><time>2026-05-03T12:45:52.564Z</time></trkpt><trkpt lat="40.9779333" lon="16.11795"><ele>358.5</ele><time>2026-05-03T12:45:53.564Z</time></trkpt><trkpt lat="40.97806" lon="16.1179317"><ele>359.0</ele><time>2026-05-03T12:45:54.564Z</time></trkpt><trkpt lat="40.97819" lon="16.1179233"><ele>359.0</ele><time>2026-05-03T12:45:55.565Z</time></trkpt><trkpt lat="40.9783233" lon="16.1178967"><ele>359.0</ele><time>2026-05-03T12:45:56.565Z</time></trkpt><trkpt lat="40.9784517" lon="16.11789"><ele>359.0</ele><time>2026-05-03T12:45:57.564Z</time></trkpt><trkpt lat="40.978585" lon="16.1179"><ele>359.0</ele><time>2026-05-03T12:45:58.564Z</time></trkpt><trkpt lat="40.9787217" lon="16.1178967"><ele>361.25</ele><time>2026-05-03T12:45:59.565Z</time></trkpt><trkpt lat="40.9788467" lon="16.1179017"><ele>363.5</ele><time>2026-05-03T12:46:00.565Z</time></trkpt><trkpt lat="40.9789567" lon="16.1179017"><ele>365.75</ele><time>2026-05-03T12:46:01.564Z</time></trkpt><trkpt lat="40.9790683" lon="16.1179233"><ele>368.0</ele><time>2026-05-03T12:46:02.565Z</time></trkpt><trkpt lat="40.979175" lon="16.1179583"><ele>369.59999999999997</ele><time>2026-05-03T12:46:03.564Z</time></trkpt><trkpt lat="40.9792767" lon="16.1180017"><ele>371.2</ele><time>2026-05-03T12:46:04.565Z</time></trkpt><trkpt lat="40.9793767" lon="16.118045"><ele>372.8</ele><time>2026-05-03T12:46:05.564Z</time></trkpt><trkpt lat="40.9794817" lon="16.1180817"><ele>374.4</ele><time>2026-05-03T12:46:06.564Z</time></trkpt><trkpt lat="40.9795983" lon="16.1181217"><ele>376.0</ele><time>2026-05-03T12:46:07.564Z</time></trkpt><trkpt lat="40.9797217" lon="16.1181667"><ele>376.0</ele><time>2026-05-03T12:46:08.565Z</time></trkpt><trkpt lat="40.9798517" lon="16.1182217"><ele>376.0</ele><time>2026-05-03T12:46:09.565Z</time></trkpt><trkpt lat="40.9799917" lon="16.1182717"><ele>376.0</ele><time>2026-05-03T12:46:10.565Z</time></trkpt><trkpt lat="40.9801233" lon="16.1183167"><ele>376.0</ele><time>2026-05-03T12:46:11.565Z</time></trkpt><trkpt lat="40.9802617" lon="16.1183517"><ele>376.75</ele><time>2026-05-03T12:46:12.565Z</time></trkpt><trkpt lat="40.9803933" lon="16.1183883"><ele>377.5</ele><time>2026-05-03T12:46:13.564Z</time></trkpt><trkpt lat="40.9805267" lon="16.11843"><ele>378.25</ele><time>2026-05-03T12:46:14.564Z</time></trkpt><trkpt lat="40.9806621" lon="16.1184649"><ele>379.0</ele><time>2026-05-03T12:46:15.564Z</time></trkpt><trkpt lat="40.9807982" lon="16.1184946"><ele>378.5</ele><time>2026-05-03T12:46:16.564Z</time></trkpt><trkpt lat="40.9809279" lon="16.1185336"><ele>378.0</ele><time>2026-05-03T12:46:17.564Z</time></trkpt><trkpt lat="40.9810447" lon="16.1185867"><ele>377.5</ele><time>2026-05-03T12:46:18.564Z</time></trkpt><trkpt lat="40.9811504" lon="16.1186365"><ele>377.0</ele><time>2026-05-03T12:46:19.565Z</time></trkpt><trkpt lat="40.9812395" lon="16.1186689"><ele>377.0</ele><time>2026-05-03T12:46:20.565Z</time></trkpt><trkpt lat="40.9813242" lon="16.1186792"><ele>377.0</ele><time>2026-05-03T12:46:21.564Z</time></trkpt><trkpt lat="40.9814042" lon="16.1186826"><ele>377.0</ele><time>2026-05-03T12:46:22.564Z</time></trkpt><trkpt lat="40.9814905" lon="16.1186926"><ele>377.0</ele><time>2026-05-03T12:46:23.564Z</time></trkpt><trkpt lat="40.9815837" lon="16.1187175"><ele>377.0</ele><time>2026-05-03T12:46:24.565Z</time></trkpt><trkpt lat="40.9816821" lon="16.1187564"><ele>377.0</ele><time>2026-05-03T12:46:25.564Z</time></trkpt><trkpt lat="40.9817896" lon="16.1187917"><ele>377.0</ele><time>2026-05-03T12:46:26.564Z</time></trkpt><trkpt lat="40.9819009" lon="16.1188308"><ele>377.0</ele><time>2026-05-03T12:46:27.565Z</time></trkpt><trkpt lat="40.9820152" lon="16.1188748"><ele>377.0</ele><time>2026-05-03T12:46:28.564Z</time></trkpt><trkpt lat="40.9821284" lon="16.1189341"><ele>377.0</ele><time>2026-05-03T12:46:29.565Z</time></trkpt><trkpt lat="40.9822318" lon="16.1190092"><ele>377.0</ele><time>2026-05-03T12:46:30.565Z</time></trkpt><trkpt lat="40.9823282" lon="16.1190665"><ele>377.0</ele><time>2026-05-03T12:46:31.565Z</time></trkpt><trkpt lat="40.982418" lon="16.1191116"><ele>377.0</ele><time>2026-05-03T12:46:32.564Z</time></trkpt><trkpt lat="40.982512" lon="16.1191289"><ele>377.0</ele><time>2026-05-03T12:46:33.564Z</time></trkpt><trkpt lat="40.9826083" lon="16.1191201"><ele>377.0</ele><time>2026-05-03T12:46:34.564Z</time></trkpt><trkpt lat="40.9827029" lon="16.1191184"><ele>377.1666666666667</ele><time>2026-05-03T12:46:35.564Z</time></trkpt><trkpt lat="40.9827873" lon="16.1191311"><ele>377.33333333333337</ele><time>2026-05-03T12:46:36.564Z</time></trkpt><trkpt lat="40.9828612" lon="16.1191544"><ele>377.5</ele><time>2026-05-03T12:46:37.565Z</time></trkpt><trkpt lat="40.982936" lon="16.1191856"><ele>377.6666666666667</ele><time>2026-05-03T12:46:38.564Z</time></trkpt><trkpt lat="40.9830212" lon="16.1192239"><ele>377.8333333333333</ele><time>2026-05-03T12:46:39.565Z</time></trkpt><trkpt lat="40.9831168" lon="16.1192768"><ele>378.0</ele><time>2026-05-03T12:46:40.564Z</time></trkpt><trkpt lat="40.9832176" lon="16.1193315"><ele>378.0</ele><time>2026-05-03T12:46:41.564Z</time></trkpt><trkpt lat="40.9833133" lon="16.11937"><ele>378.0</ele><time>2026-05-03T12:46:42.564Z</time></trkpt><trkpt lat="40.9834067" lon="16.119385"><ele>378.0</ele><time>2026-05-03T12:46:43.564Z</time></trkpt><trkpt lat="40.9834917" lon="16.11938"><ele>378.0</ele><time>2026-05-03T12:46:44.564Z</time></trkpt><trkpt lat="40.9835917" lon="16.11936"><ele>378.0</ele><time>2026-05-03T12:46:45.565Z</time></trkpt><trkpt lat="40.9836933" lon="16.1193383"><ele>378.0</ele><time>2026-05-03T12:46:46.565Z</time></trkpt><trkpt lat="40.98379" lon="16.1193033"><ele>378.0</ele><time>2026-05-03T12:46:47.565Z</time></trkpt><trkpt lat="40.9838783" lon="16.11925"><ele>378.0</ele><time>2026-05-03T12:46:48.564Z</time></trkpt><trkpt lat="40.98398" lon="16.1191883"><ele>378.0</ele><time>2026-05-03T12:46:49.564Z</time></trkpt><trkpt lat="40.9840867" lon="16.1191383"><ele>378.0</ele><time>2026-05-03T12:46:50.564Z</time></trkpt><trkpt lat="40.9842017" lon="16.1190967"><ele>377.0</ele><time>2026-05-03T12:46:51.564Z</time></trkpt><trkpt lat="40.9843167" lon="16.1190667"><ele>376.0</ele><time>2026-05-03T12:46:52.565Z</time></trkpt><trkpt lat="40.9844217" lon="16.1190333"><ele>375.0</ele><time>2026-05-03T12:46:53.565Z</time></trkpt><trkpt lat="40.9845133" lon="16.118995"><ele>374.0</ele><time>2026-05-03T12:46:54.564Z</time></trkpt><trkpt lat="40.9846" lon="16.118955"><ele>373.0</ele><time>2026-05-03T12:46:55.565Z</time></trkpt><trkpt lat="40.984685" lon="16.118925"><ele>373.0</ele><time>2026-05-03T12:46:56.565Z</time></trkpt><trkpt lat="40.9847567" lon="16.11892"><ele>373.0</ele><time>2026-05-03T12:46:57.565Z</time></trkpt><trkpt lat="40.9848233" lon="16.1189433"><ele>373.0</ele><time>2026-05-03T12:46:58.565Z</time></trkpt><trkpt lat="40.984885" lon="16.1189917"><ele>373.0</ele><time>2026-05-03T12:46:59.564Z</time></trkpt><trkpt lat="40.9849483" lon="16.1190583"><ele>373.0</ele><time>2026-05-03T12:47:00.564Z</time></trkpt><trkpt lat="40.9850117" lon="16.1191383"><ele>373.0</ele><time>2026-05-03T12:47:01.564Z</time></trkpt><trkpt lat="40.98507" lon="16.1192317"><ele>372.66666666666663</ele><time>2026-05-03T12:47:02.564Z</time></trkpt><trkpt lat="40.9851383" lon="16.1193267"><ele>372.3333333333333</ele><time>2026-05-03T12:47:03.564Z</time></trkpt><trkpt lat="40.9852067" lon="16.1194183"><ele>372.0</ele><time>2026-05-03T12:47:04.565Z</time></trkpt><trkpt lat="40.9852683" lon="16.1195"><ele>371.6666666666667</ele><time>2026-05-03T12:47:05.564Z</time></trkpt><trkpt lat="40.9853183" lon="16.1195767"><ele>371.33333333333337</ele><time>2026-05-03T12:47:06.564Z</time></trkpt><trkpt lat="40.985365" lon="16.119665"><ele>371.0</ele><time>2026-05-03T12:47:07.564Z</time></trkpt><trkpt lat="40.98541" lon="16.1197733"><ele>371.0</ele><time>2026-05-03T12:47:08.565Z</time></trkpt><trkpt lat="40.98545" lon="16.1198867"><ele>371.0</ele><time>2026-05-03T12:47:09.565Z</time></trkpt><trkpt lat="40.98549" lon="16.1200017"><ele>371.0</ele><time>2026-05-03T12:47:10.564Z</time></trkpt><trkpt lat="40.9855317" lon="16.12011"><ele>371.0</ele><time>2026-05-03T12:47:11.564Z</time></trkpt><trkpt lat="40.9855817" lon="16.120225"><ele>371.0</ele><time>2026-05-03T12:47:12.564Z</time></trkpt><trkpt lat="40.9856317" lon="16.1203483"><ele>370.6</ele><time>2026-05-03T12:47:13.564Z</time></trkpt><trkpt lat="40.9856767" lon="16.12046"><ele>370.20000000000005</ele><time>2026-05-03T12:47:14.564Z</time></trkpt><trkpt lat="40.9857183" lon="16.1205683"><ele>369.79999999999995</ele><time>2026-05-03T12:47:15.564Z</time></trkpt><trkpt lat="40.98576" lon="16.1206817"><ele>369.4</ele><time>2026-05-03T12:47:16.564Z</time></trkpt><trkpt lat="40.9858117" lon="16.120815"><ele>369.0</ele><time>2026-05-03T12:47:17.565Z</time></trkpt><trkpt lat="40.9858733" lon="16.1209467"><ele>369.0</ele><time>2026-05-03T12:47:18.564Z</time></trkpt><trkpt lat="40.9859217" lon="16.121075"><ele>369.0</ele><time>2026-05-03T12:47:19.565Z</time></trkpt><trkpt lat="40.985965" lon="16.1212117"><ele>369.0</ele><time>2026-05-03T12:47:20.564Z</time></trkpt><trkpt lat="40.986005" lon="16.1213467"><ele>369.0</ele><time>2026-05-03T12:47:21.564Z</time></trkpt><trkpt lat="40.9860417" lon="16.1214817"><ele>369.0</ele><time>2026-05-03T12:47:22.565Z</time></trkpt><trkpt lat="40.986085" lon="16.12161"><ele>369.79999999999995</ele><time>2026-05-03T12:47:23.565Z</time></trkpt><trkpt lat="40.986145" lon="16.1217333"><ele>370.59999999999997</ele><time>2026-05-03T12:47:24.564Z</time></trkpt><trkpt lat="40.98621" lon="16.1218417"><ele>371.4</ele><time>2026-05-03T12:47:25.565Z</time></trkpt><trkpt lat="40.9862967" lon="16.1219433"><ele>372.2</ele><time>2026-05-03T12:47:26.564Z</time></trkpt><trkpt lat="40.9863917" lon="16.12202"><ele>373.0</ele><time>2026-05-03T12:47:27.565Z</time></trkpt><trkpt lat="40.9864833" lon="16.12209"><ele>373.0</ele><time>2026-05-03T12:47:28.565Z</time></trkpt><trkpt lat="40.986585" lon="16.1221383"><ele>373.0</ele><time>2026-05-03T12:47:29.565Z</time></trkpt><trkpt lat="40.986695" lon="16.1221733"><ele>373.0</ele><time>2026-05-03T12:47:30.564Z</time></trkpt><trkpt lat="40.986805" lon="16.1222033"><ele>373.0</ele><time>2026-05-03T12:47:31.565Z</time></trkpt><trkpt lat="40.9869083" lon="16.122215"><ele>373.0</ele><time>2026-05-03T12:47:32.564Z</time></trkpt><trkpt lat="40.9870083" lon="16.1221917"><ele>372.25</ele><time>2026-05-03T12:47:33.564Z</time></trkpt><trkpt lat="40.9871183" lon="16.122155"><ele>371.5</ele><time>2026-05-03T12:47:34.564Z</time></trkpt><trkpt lat="40.9872267" lon="16.12209"><ele>370.75</ele><time>2026-05-03T12:47:35.564Z</time></trkpt><trkpt lat="40.9873317" lon="16.122"><ele>370.0</ele><time>2026-05-03T12:47:36.564Z</time></trkpt><trkpt lat="40.987435" lon="16.1219033"><ele>369.5</ele><time>2026-05-03T12:47:37.564Z</time></trkpt><trkpt lat="40.9875333" lon="16.1218117"><ele>369.0</ele><time>2026-05-03T12:47:38.564Z</time></trkpt><trkpt lat="40.987625" lon="16.1217233"><ele>368.5</ele><time>2026-05-03T12:47:39.564Z</time></trkpt><trkpt lat="40.9877167" lon="16.12165"><ele>368.0</ele><time>2026-05-03T12:47:40.564Z</time></trkpt><trkpt lat="40.9878117" lon="16.121565"><ele>367.59999999999997</ele><time>2026-05-03T12:47:41.565Z</time></trkpt><trkpt lat="40.98791" lon="16.1214917"><ele>367.2</ele><time>2026-05-03T12:47:42.564Z</time></trkpt><trkpt lat="40.9880067" lon="16.121405"><ele>366.8</ele><time>2026-05-03T12:47:43.564Z</time></trkpt><trkpt lat="40.9880983" lon="16.121325"><ele>366.4</ele><time>2026-05-03T12:47:44.565Z</time></trkpt><trkpt lat="40.9881833" lon="16.1212483"><ele>366.0</ele><time>2026-05-03T12:47:45.565Z</time></trkpt><trkpt lat="40.988265" lon="16.121195"><ele>365.8333333333333</ele><time>2026-05-03T12:47:46.565Z</time></trkpt><trkpt lat="40.98835" lon="16.1211633"><ele>365.6666666666667</ele><time>2026-05-03T12:47:47.564Z</time></trkpt><trkpt lat="40.98844" lon="16.12116"><ele>365.5</ele><time>2026-05-03T12:47:48.564Z</time></trkpt><trkpt lat="40.9885217" lon="16.1211783"><ele>365.33333333333337</ele><time>2026-05-03T12:47:49.564Z</time></trkpt><trkpt lat="40.9885967" lon="16.1212267"><ele>365.1666666666667</ele><time>2026-05-03T12:47:50.565Z</time></trkpt><trkpt lat="40.9886533" lon="16.12129"><ele>365.0</ele><time>2026-05-03T12:47:51.564Z</time></trkpt><trkpt lat="40.988705" lon="16.12136"><ele>365.00000000000006</ele><time>2026-05-03T12:47:52.564Z</time></trkpt><trkpt lat="40.9887533" lon="16.1214217"><ele>365.0</ele><time>2026-05-03T12:47:53.564Z</time></trkpt><trkpt lat="40.9888033" lon="16.121485"><ele>365.0</ele><time>2026-05-03T12:47:54.564Z</time></trkpt><trkpt lat="40.9888567" lon="16.12156"><ele>365.0</ele><time>2026-05-03T12:47:55.564Z</time></trkpt><trkpt lat="40.9889133" lon="16.1216383"><ele>365.0</ele><time>2026-05-03T12:47:56.565Z</time></trkpt><trkpt lat="40.9889633" lon="16.1217183"><ele>365.00000000000006</ele><time>2026-05-03T12:47:57.565Z</time></trkpt><trkpt lat="40.9890117" lon="16.1217883"><ele>365.0</ele><time>2026-05-03T12:47:58.564Z</time></trkpt><trkpt lat="40.9890567" lon="16.121855"><ele>365.00000000000006</ele><time>2026-05-03T12:47:59.564Z</time></trkpt><trkpt lat="40.9891067" lon="16.121925"><ele>365.0</ele><time>2026-05-03T12:48:00.565Z</time></trkpt><trkpt lat="40.98916" lon="16.1219983"><ele>365.0</ele><time>2026-05-03T12:48:01.565Z</time></trkpt><trkpt lat="40.9892067" lon="16.1220667"><ele>365.0</ele><time>2026-05-03T12:48:02.564Z</time></trkpt><trkpt lat="40.9892533" lon="16.12213"><ele>365.0</ele><time>2026-05-03T12:48:03.564Z</time></trkpt><trkpt lat="40.9893083" lon="16.1222"><ele>365.00000000000006</ele><time>2026-05-03T12:48:04.564Z</time></trkpt><trkpt lat="40.989375" lon="16.1222617"><ele>365.0</ele><time>2026-05-03T12:48:05.565Z</time></trkpt><trkpt lat="40.98944" lon="16.1223217"><ele>363.4</ele><time>2026-05-03T12:48:06.564Z</time></trkpt><trkpt lat="40.989535" lon="16.1222817"><ele>361.8</ele><time>2026-05-03T12:48:08.564Z</time></trkpt><trkpt lat="40.989595" lon="16.122185"><ele>360.20000000000005</ele><time>2026-05-03T12:48:09.564Z</time></trkpt><trkpt lat="40.98966" lon="16.1220633"><ele>358.6</ele><time>2026-05-03T12:48:10.564Z</time></trkpt><trkpt lat="40.989725" lon="16.1219267"><ele>357.0</ele><time>2026-05-03T12:48:11.565Z</time></trkpt><trkpt lat="40.9897967" lon="16.121785"><ele>357.0</ele><time>2026-05-03T12:48:12.564Z</time></trkpt><trkpt lat="40.9898583" lon="16.1216433"><ele>357.0</ele><time>2026-05-03T12:48:13.564Z</time></trkpt><trkpt lat="40.9899183" lon="16.1214983"><ele>357.0</ele><time>2026-05-03T12:48:14.565Z</time></trkpt><trkpt lat="40.9899817" lon="16.1213667"><ele>357.0</ele><time>2026-05-03T12:48:15.564Z</time></trkpt><trkpt lat="40.9900367" lon="16.1212417"><ele>356.6</ele><time>2026-05-03T12:48:16.565Z</time></trkpt><trkpt lat="40.99009" lon="16.1211167"><ele>356.20000000000005</ele><time>2026-05-03T12:48:17.564Z</time></trkpt><trkpt lat="40.99014" lon="16.1210183"><ele>355.8</ele><time>2026-05-03T12:48:18.564Z</time></trkpt><trkpt lat="40.9901867" lon="16.1209167"><ele>355.4</ele><time>2026-05-03T12:48:19.564Z</time></trkpt><trkpt lat="40.9902333" lon="16.1208167"><ele>355.0</ele><time>2026-05-03T12:48:20.564Z</time></trkpt><trkpt lat="40.9902783" lon="16.1207283"><ele>354.0</ele><time>2026-05-03T12:48:21.564Z</time></trkpt><trkpt lat="40.990315" lon="16.1206417"><ele>353.0</ele><time>2026-05-03T12:48:22.564Z</time></trkpt><trkpt lat="40.9903567" lon="16.1205517"><ele>352.0</ele><time>2026-05-03T12:48:23.564Z</time></trkpt><trkpt lat="40.9904" lon="16.12044"><ele>351.0</ele><time>2026-05-03T12:48:25.564Z</time></trkpt><trkpt lat="40.9904567" lon="16.1203833"><ele>350.0</ele><time>2026-05-03T12:48:27.564Z</time></trkpt><trkpt lat="40.9905967" lon="16.1204333"><ele>350.0</ele><time>2026-05-03T12:48:29.565Z</time></trkpt><trkpt lat="40.9906867" lon="16.1204683"><ele>350.0</ele><time>2026-05-03T12:48:30.564Z</time></trkpt><trkpt lat="40.99079" lon="16.12051"><ele>350.0</ele><time>2026-05-03T12:48:31.564Z</time></trkpt><trkpt lat="40.990895" lon="16.1205417"><ele>350.0</ele><time>2026-05-03T12:48:32.564Z</time></trkpt><trkpt lat="40.9910183" lon="16.1205617"><ele>350.0</ele><time>2026-05-03T12:48:33.564Z</time></trkpt><trkpt lat="40.9911433" lon="16.1205683"><ele>350.5</ele><time>2026-05-03T12:48:34.564Z</time></trkpt><trkpt lat="40.9912717" lon="16.1205617"><ele>351.0</ele><time>2026-05-03T12:48:35.564Z</time></trkpt><trkpt lat="40.991405" lon="16.1205567"><ele>351.5</ele><time>2026-05-03T12:48:36.565Z</time></trkpt><trkpt lat="40.9915367" lon="16.1205517"><ele>352.0</ele><time>2026-05-03T12:48:37.564Z</time></trkpt><trkpt lat="40.99167" lon="16.120545"><ele>351.8333333333333</ele><time>2026-05-03T12:48:38.564Z</time></trkpt><trkpt lat="40.99178" lon="16.1205233"><ele>351.66666666666663</ele><time>2026-05-03T12:48:39.564Z</time></trkpt><trkpt lat="40.9918667" lon="16.1205083"><ele>351.5</ele><time>2026-05-03T12:48:40.564Z</time></trkpt><trkpt lat="40.9919383" lon="16.1205"><ele>351.3333333333333</ele><time>2026-05-03T12:48:41.564Z</time></trkpt><trkpt lat="40.9920033" lon="16.1204883"><ele>351.1666666666667</ele><time>2026-05-03T12:48:42.564Z</time></trkpt><trkpt lat="40.9920667" lon="16.1204767"><ele>351.0</ele><time>2026-05-03T12:48:43.564Z</time></trkpt><trkpt lat="40.99213" lon="16.120485"><ele>351.0</ele><time>2026-05-03T12:48:44.565Z</time></trkpt><trkpt lat="40.9922467" lon="16.1205217"><ele>351.0</ele><time>2026-05-03T12:48:46.564Z</time></trkpt><trkpt lat="40.9923667" lon="16.1204717"><ele>351.0</ele><time>2026-05-03T12:48:48.565Z</time></trkpt><trkpt lat="40.9924283" lon="16.1204"><ele>351.0</ele><time>2026-05-03T12:48:49.565Z</time></trkpt><trkpt lat="40.9924817" lon="16.1203"><ele>351.0</ele><time>2026-05-03T12:48:50.564Z</time></trkpt><trkpt lat="40.9925267" lon="16.120185"><ele>351.1666666666667</ele><time>2026-05-03T12:48:51.564Z</time></trkpt><trkpt lat="40.992565" lon="16.1200667"><ele>351.3333333333333</ele><time>2026-05-03T12:48:52.564Z</time></trkpt><trkpt lat="40.9925967" lon="16.1199567"><ele>351.5</ele><time>2026-05-03T12:48:53.564Z</time></trkpt><trkpt lat="40.9926383" lon="16.1198583"><ele>351.66666666666663</ele><time>2026-05-03T12:48:54.565Z</time></trkpt><trkpt lat="40.992675" lon="16.11977"><ele>351.8333333333333</ele><time>2026-05-03T12:48:55.565Z</time></trkpt><trkpt lat="40.9927067" lon="16.11968"><ele>352.0</ele><time>2026-05-03T12:48:56.564Z</time></trkpt><trkpt lat="40.9927533" lon="16.1196017"><ele>352.0</ele><time>2026-05-03T12:48:57.564Z</time></trkpt><trkpt lat="40.9927917" lon="16.119515"><ele>352.0</ele><time>2026-05-03T12:48:58.564Z</time></trkpt><trkpt lat="40.99283" lon="16.1194317"><ele>352.0</ele><time>2026-05-03T12:48:59.564Z</time></trkpt><trkpt lat="40.99287" lon="16.11935"><ele>352.0</ele><time>2026-05-03T12:49:00.564Z</time></trkpt><trkpt lat="40.992915" lon="16.1192683"><ele>352.0</ele><time>2026-05-03T12:49:01.565Z</time></trkpt><trkpt lat="40.99297" lon="16.1191933"><ele>352.0</ele><time>2026-05-03T12:49:02.565Z</time></trkpt><trkpt lat="40.99304" lon="16.1191217"><ele>351.0</ele><time>2026-05-03T12:49:03.565Z</time></trkpt><trkpt lat="40.993105" lon="16.1190467"><ele>350.0</ele><time>2026-05-03T12:49:04.564Z</time></trkpt><trkpt lat="40.9931867" lon="16.118965"><ele>349.0</ele><time>2026-05-03T12:49:05.564Z</time></trkpt><trkpt lat="40.9932717" lon="16.1188883"><ele>348.0</ele><time>2026-05-03T12:49:06.564Z</time></trkpt><trkpt lat="40.9933483" lon="16.1188133"><ele>347.0</ele><time>2026-05-03T12:49:07.564Z</time></trkpt><trkpt lat="40.993415" lon="16.1187433"><ele>347.0</ele><time>2026-05-03T12:49:08.564Z</time></trkpt><trkpt lat="40.9934783" lon="16.1186783"><ele>347.0</ele><time>2026-05-03T12:49:09.565Z</time></trkpt><trkpt lat="40.9935433" lon="16.1186067"><ele>347.0</ele><time>2026-05-03T12:49:10.564Z</time></trkpt><trkpt lat="40.9936067" lon="16.118555"><ele>347.0</ele><time>2026-05-03T12:49:11.565Z</time></trkpt><trkpt lat="40.9936817" lon="16.1185067"><ele>347.0</ele><time>2026-05-03T12:49:12.564Z</time></trkpt><trkpt lat="40.9937667" lon="16.118465"><ele>347.0</ele><time>2026-05-03T12:49:13.564Z</time></trkpt><trkpt lat="40.993855" lon="16.1184183"><ele>347.0</ele><time>2026-05-03T12:49:14.564Z</time></trkpt><trkpt lat="40.9939517" lon="16.1183867"><ele>347.0</ele><time>2026-05-03T12:49:15.564Z</time></trkpt><trkpt lat="40.994055" lon="16.118365"><ele>347.0</ele><time>2026-05-03T12:49:16.564Z</time></trkpt><trkpt lat="40.994165" lon="16.1183483"><ele>347.0</ele><time>2026-05-03T12:49:17.565Z</time></trkpt><trkpt lat="40.9942683" lon="16.1183483"><ele>347.0</ele><time>2026-05-03T12:49:18.564Z</time></trkpt><trkpt lat="40.994365" lon="16.1183667"><ele>347.0</ele><time>2026-05-03T12:49:19.564Z</time></trkpt><trkpt lat="40.9944517" lon="16.118405"><ele>347.0</ele><time>2026-05-03T12:49:20.564Z</time></trkpt><trkpt lat="40.9945383" lon="16.1184783"><ele>347.0</ele><time>2026-05-03T12:49:21.564Z</time></trkpt><trkpt lat="40.994615" lon="16.1185733"><ele>347.0</ele><time>2026-05-03T12:49:22.564Z</time></trkpt><trkpt lat="40.9946883" lon="16.1186733"><ele>347.0</ele><time>2026-05-03T12:49:23.564Z</time></trkpt><trkpt lat="40.9947533" lon="16.118785"><ele>347.0</ele><time>2026-05-03T12:49:24.564Z</time></trkpt><trkpt lat="40.9948133" lon="16.1189033"><ele>347.0</ele><time>2026-05-03T12:49:25.564Z</time></trkpt><trkpt lat="40.9948717" lon="16.1190017"><ele>347.0</ele><time>2026-05-03T12:49:26.564Z</time></trkpt><trkpt lat="40.99492" lon="16.1190883"><ele>347.0</ele><time>2026-05-03T12:49:27.565Z</time></trkpt><trkpt lat="40.9949633" lon="16.1191717"><ele>347.0</ele><time>2026-05-03T12:49:28.564Z</time></trkpt><trkpt lat="40.9950183" lon="16.1192417"><ele>347.0</ele><time>2026-05-03T12:49:29.564Z</time></trkpt><trkpt lat="40.995085" lon="16.1193033"><ele>347.6</ele><time>2026-05-03T12:49:30.564Z</time></trkpt><trkpt lat="40.9951533" lon="16.119365"><ele>348.20000000000005</ele><time>2026-05-03T12:49:31.564Z</time></trkpt><trkpt lat="40.9952317" lon="16.1194383"><ele>348.8</ele><time>2026-05-03T12:49:32.564Z</time></trkpt><trkpt lat="40.9953033" lon="16.1195183"><ele>349.4</ele><time>2026-05-03T12:49:33.564Z</time></trkpt><trkpt lat="40.995385" lon="16.1196083"><ele>350.0</ele><time>2026-05-03T12:49:34.564Z</time></trkpt><trkpt lat="40.9954683" lon="16.1197117"><ele>350.0</ele><time>2026-05-03T12:49:35.564Z</time></trkpt><trkpt lat="40.9955483" lon="16.1198167"><ele>350.0</ele><time>2026-05-03T12:49:36.564Z</time></trkpt><trkpt lat="40.9956317" lon="16.1199233"><ele>350.0</ele><time>2026-05-03T12:49:37.564Z</time></trkpt><trkpt lat="40.9957083" lon="16.12004"><ele>350.0</ele><time>2026-05-03T12:49:38.564Z</time></trkpt><trkpt lat="40.99578" lon="16.12014"><ele>350.0</ele><time>2026-05-03T12:49:39.564Z</time></trkpt><trkpt lat="40.9958433" lon="16.1202367"><ele>351.33333333333337</ele><time>2026-05-03T12:49:40.564Z</time></trkpt><trkpt lat="40.9959067" lon="16.1203417"><ele>352.6666666666667</ele><time>2026-05-03T12:49:41.564Z</time></trkpt><trkpt lat="40.9959583" lon="16.1204467"><ele>354.0</ele><time>2026-05-03T12:49:42.565Z</time></trkpt><trkpt lat="40.996" lon="16.1205333"><ele>355.3333333333333</ele><time>2026-05-03T12:49:43.564Z</time></trkpt><trkpt lat="40.9960367" lon="16.12063"><ele>356.66666666666663</ele><time>2026-05-03T12:49:44.564Z</time></trkpt><trkpt lat="40.996085" lon="16.1207117"><ele>358.0</ele><time>2026-05-03T12:49:45.564Z</time></trkpt><trkpt lat="40.9961483" lon="16.1207767"><ele>358.0</ele><time>2026-05-03T12:49:46.565Z</time></trkpt><trkpt lat="40.996225" lon="16.120835"><ele>358.0</ele><time>2026-05-03T12:49:47.564Z</time></trkpt><trkpt lat="40.9963217" lon="16.12088"><ele>358.0</ele><time>2026-05-03T12:49:48.564Z</time></trkpt><trkpt lat="40.99643" lon="16.1209067"><ele>358.0</ele><time>2026-05-03T12:49:49.564Z</time></trkpt><trkpt lat="40.9965467" lon="16.1209133"><ele>358.0</ele><time>2026-05-03T12:49:50.564Z</time></trkpt><trkpt lat="40.9966617" lon="16.1208983"><ele>357.5</ele><time>2026-05-03T12:49:51.564Z</time></trkpt><trkpt lat="40.996775" lon="16.12088"><ele>357.0</ele><time>2026-05-03T12:49:52.565Z</time></trkpt><trkpt lat="40.9968817" lon="16.120855"><ele>356.5</ele><time>2026-05-03T12:49:53.564Z</time></trkpt><trkpt lat="40.9969933" lon="16.12082"><ele>356.0</ele><time>2026-05-03T12:49:54.564Z</time></trkpt><trkpt lat="40.99711" lon="16.1207867"><ele>356.0</ele><time>2026-05-03T12:49:55.564Z</time></trkpt><trkpt lat="40.997205" lon="16.1207467"><ele>356.0</ele><time>2026-05-03T12:49:56.565Z</time></trkpt><trkpt lat="40.9973067" lon="16.1207183"><ele>356.0</ele><time>2026-05-03T12:49:57.564Z</time></trkpt><trkpt lat="40.997415" lon="16.1207033"><ele>356.0</ele><time>2026-05-03T12:49:58.564Z</time></trkpt><trkpt lat="40.997525" lon="16.12068"><ele>356.0</ele><time>2026-05-03T12:49:59.564Z</time></trkpt><trkpt lat="40.997635" lon="16.1206583"><ele>358.0</ele><time>2026-05-03T12:50:00.564Z</time></trkpt><trkpt lat="40.99774" lon="16.120635"><ele>360.0</ele><time>2026-05-03T12:50:01.564Z</time></trkpt><trkpt lat="40.997845" lon="16.1206133"><ele>362.0</ele><time>2026-05-03T12:50:02.565Z</time></trkpt><trkpt lat="40.9979433" lon="16.120595"><ele>364.0</ele><time>2026-05-03T12:50:03.564Z</time></trkpt><trkpt lat="40.99804" lon="16.120595"><ele>366.0</ele><time>2026-05-03T12:50:04.564Z</time></trkpt><trkpt lat="40.9981367" lon="16.1205983"><ele>366.0</ele><time>2026-05-03T12:50:05.564Z</time></trkpt><trkpt lat="40.998235" lon="16.1206233"><ele>366.0</ele><time>2026-05-03T12:50:06.564Z</time></trkpt><trkpt lat="40.9983267" lon="16.1206333"><ele>366.0</ele><time>2026-05-03T12:50:07.564Z</time></trkpt><trkpt lat="40.9984083" lon="16.120635"><ele>366.0</ele><time>2026-05-03T12:50:08.564Z</time></trkpt><trkpt lat="40.9984817" lon="16.12062"><ele>366.0</ele><time>2026-05-03T12:50:09.565Z</time></trkpt><trkpt lat="40.99855" lon="16.120585"><ele>366.0</ele><time>2026-05-03T12:50:10.564Z</time></trkpt><trkpt lat="40.9986183" lon="16.1205467"><ele>366.8333333333333</ele><time>2026-05-03T12:50:11.564Z</time></trkpt><trkpt lat="40.9986717" lon="16.1205"><ele>367.6666666666667</ele><time>2026-05-03T12:50:12.564Z</time></trkpt><trkpt lat="40.9987233" lon="16.12042"><ele>368.5</ele><time>2026-05-03T12:50:14.564Z</time></trkpt><trkpt lat="40.9987283" lon="16.12032"><ele>369.33333333333337</ele><time>2026-05-03T12:50:16.564Z</time></trkpt><trkpt lat="40.998705" lon="16.120165"><ele>370.1666666666667</ele><time>2026-05-03T12:50:18.565Z</time></trkpt><trkpt lat="40.99871" lon="16.1200783"><ele>371.0</ele><time>2026-05-03T12:50:19.564Z</time></trkpt><trkpt lat="40.9987317" lon="16.1199883"><ele>371.0</ele><time>2026-05-03T12:50:20.564Z</time></trkpt><trkpt lat="40.9987633" lon="16.1199017"><ele>371.0</ele><time>2026-05-03T12:50:21.564Z</time></trkpt><trkpt lat="40.9988183" lon="16.1198333"><ele>371.0</ele><time>2026-05-03T12:50:22.565Z</time></trkpt><trkpt lat="40.998885" lon="16.1197883"><ele>371.0</ele><time>2026-05-03T12:50:23.565Z</time></trkpt><trkpt lat="40.9989617" lon="16.1197683"><ele>371.0</ele><time>2026-05-03T12:50:24.565Z</time></trkpt><trkpt lat="40.9990333" lon="16.1197733"><ele>371.0</ele><time>2026-05-03T12:50:25.564Z</time></trkpt><trkpt lat="40.9991" lon="16.1198067"><ele>371.0</ele><time>2026-05-03T12:50:26.565Z</time></trkpt><trkpt lat="40.99917" lon="16.1198617"><ele>372.0</ele><time>2026-05-03T12:50:27.564Z</time></trkpt><trkpt lat="40.9992417" lon="16.1199217"><ele>373.0</ele><time>2026-05-03T12:50:28.564Z</time></trkpt><trkpt lat="40.999315" lon="16.1199933"><ele>374.0</ele><time>2026-05-03T12:50:29.564Z</time></trkpt><trkpt lat="40.99939" lon="16.1200583"><ele>375.0</ele><time>2026-05-03T12:50:30.564Z</time></trkpt><trkpt lat="40.9994667" lon="16.1201217"><ele>376.0</ele><time>2026-05-03T12:50:31.564Z</time></trkpt><trkpt lat="40.99956" lon="16.1201833"><ele>376.0</ele><time>2026-05-03T12:50:32.565Z</time></trkpt><trkpt lat="40.999665" lon="16.1202317"><ele>376.0</ele><time>2026-05-03T12:50:33.564Z</time></trkpt><trkpt lat="40.9997733" lon="16.12028"><ele>376.0</ele><time>2026-05-03T12:50:34.565Z</time></trkpt><trkpt lat="40.9998817" lon="16.1202967"><ele>376.0</ele><time>2026-05-03T12:50:35.565Z</time></trkpt><trkpt lat="40.9999983" lon="16.1202967"><ele>376.0</ele><time>2026-05-03T12:50:36.564Z</time></trkpt><trkpt lat="41.0001117" lon="16.1202983"><ele>376.0</ele><time>2026-05-03T12:50:37.565Z</time></trkpt><trkpt lat="41.0002317" lon="16.1203033"><ele>376.0</ele><time>2026-05-03T12:50:38.564Z</time></trkpt><trkpt lat="41.0003567" lon="16.120315"><ele>376.0</ele><time>2026-05-03T12:50:39.564Z</time></trkpt><trkpt lat="41.0004933" lon="16.120315"><ele>376.0</ele><time>2026-05-03T12:50:40.564Z</time></trkpt><trkpt lat="41.0006333" lon="16.1203267"><ele>376.0</ele><time>2026-05-03T12:50:41.565Z</time></trkpt><trkpt lat="41.0007683" lon="16.1203517"><ele>376.0</ele><time>2026-05-03T12:50:42.564Z</time></trkpt><trkpt lat="41.000885" lon="16.120365"><ele>376.0</ele><time>2026-05-03T12:50:43.564Z</time></trkpt><trkpt lat="41.00099" lon="16.1203883"><ele>375.6</ele><time>2026-05-03T12:50:44.564Z</time></trkpt><trkpt lat="41.0010783" lon="16.1204383"><ele>375.20000000000005</ele><time>2026-05-03T12:50:45.565Z</time></trkpt><trkpt lat="41.001165" lon="16.1205183"><ele>374.79999999999995</ele><time>2026-05-03T12:50:46.565Z</time></trkpt><trkpt lat="41.0012533" lon="16.1206117"><ele>374.4</ele><time>2026-05-03T12:50:47.564Z</time></trkpt><trkpt lat="41.0013533" lon="16.120705"><ele>374.0</ele><time>2026-05-03T12:50:48.564Z</time></trkpt><trkpt lat="41.001455" lon="16.120795"><ele>374.0</ele><time>2026-05-03T12:50:49.565Z</time></trkpt><trkpt lat="41.0015733" lon="16.1208717"><ele>374.0</ele><time>2026-05-03T12:50:50.565Z</time></trkpt><trkpt lat="41.0016983" lon="16.1209433"><ele>374.0</ele><time>2026-05-03T12:50:51.565Z</time></trkpt><trkpt lat="41.0018217" lon="16.12101"><ele>374.0</ele><time>2026-05-03T12:50:52.564Z</time></trkpt><trkpt lat="41.0019483" lon="16.1210767"><ele>375.0</ele><time>2026-05-03T12:50:53.564Z</time></trkpt><trkpt lat="41.002075" lon="16.12115"><ele>376.0</ele><time>2026-05-03T12:50:54.564Z</time></trkpt><trkpt lat="41.002195" lon="16.121235"><ele>377.0</ele><time>2026-05-03T12:50:55.564Z</time></trkpt><trkpt lat="41.0023167" lon="16.12133"><ele>378.0</ele><time>2026-05-03T12:50:56.565Z</time></trkpt><trkpt lat="41.0024317" lon="16.12143"><ele>378.0</ele><time>2026-05-03T12:50:57.564Z</time></trkpt><trkpt lat="41.00254" lon="16.1215183"><ele>378.0</ele><time>2026-05-03T12:50:58.564Z</time></trkpt><trkpt lat="41.0026317" lon="16.121595"><ele>378.0</ele><time>2026-05-03T12:50:59.564Z</time></trkpt><trkpt lat="41.002715" lon="16.1216667"><ele>378.0</ele><time>2026-05-03T12:51:00.564Z</time></trkpt><trkpt lat="41.0028" lon="16.12174"><ele>378.0</ele><time>2026-05-03T12:51:01.564Z</time></trkpt><trkpt lat="41.00288" lon="16.1218133"><ele>378.79999999999995</ele><time>2026-05-03T12:51:02.564Z</time></trkpt><trkpt lat="41.0029583" lon="16.1218733"><ele>379.6</ele><time>2026-05-03T12:51:03.565Z</time></trkpt><trkpt lat="41.003025" lon="16.12193"><ele>380.4</ele><time>2026-05-03T12:51:04.565Z</time></trkpt><trkpt lat="41.00308" lon="16.1219867"><ele>381.20000000000005</ele><time>2026-05-03T12:51:05.564Z</time></trkpt><trkpt lat="41.0031767" lon="16.1220767"><ele>382.0</ele><time>2026-05-03T12:51:07.564Z</time></trkpt><trkpt lat="41.00325" lon="16.122185"><ele>382.0</ele><time>2026-05-03T12:51:09.564Z</time></trkpt><trkpt lat="41.00327" lon="16.1223383"><ele>382.0</ele><time>2026-05-03T12:51:11.564Z</time></trkpt><trkpt lat="41.0032483" lon="16.122425"><ele>382.0</ele><time>2026-05-03T12:51:12.565Z</time></trkpt><trkpt lat="41.0031983" lon="16.1225017"><ele>382.0</ele><time>2026-05-03T12:51:13.564Z</time></trkpt><trkpt lat="41.0031117" lon="16.12257"><ele>382.0</ele><time>2026-05-03T12:51:14.565Z</time></trkpt><trkpt lat="41.0030117" lon="16.1226533"><ele>382.40000000000003</ele><time>2026-05-03T12:51:15.564Z</time></trkpt><trkpt lat="41.0029167" lon="16.1227333"><ele>382.8</ele><time>2026-05-03T12:51:16.565Z</time></trkpt><trkpt lat="41.00283" lon="16.1228"><ele>383.2</ele><time>2026-05-03T12:51:17.564Z</time></trkpt><trkpt lat="41.00276" lon="16.1228683"><ele>383.6</ele><time>2026-05-03T12:51:18.564Z</time></trkpt><trkpt lat="41.0027017" lon="16.1229433"><ele>384.0</ele><time>2026-05-03T12:51:19.565Z</time></trkpt><trkpt lat="41.0026517" lon="16.12301"><ele>384.0</ele><time>2026-05-03T12:51:20.564Z</time></trkpt><trkpt lat="41.0025767" lon="16.1231233"><ele>384.0</ele><time>2026-05-03T12:51:22.565Z</time></trkpt><trkpt lat="41.00251" lon="16.1231883"><ele>384.0</ele><time>2026-05-03T12:51:24.565Z</time></trkpt><trkpt lat="41.00239" lon="16.123285"><ele>384.0</ele><time>2026-05-03T12:51:26.565Z</time></trkpt><trkpt lat="41.0023083" lon="16.1233667"><ele>384.0</ele><time>2026-05-03T12:51:27.564Z</time></trkpt><trkpt lat="41.0022167" lon="16.1234633"><ele>383.0</ele><time>2026-05-03T12:51:28.564Z</time></trkpt><trkpt lat="41.0021333" lon="16.1235517"><ele>382.0</ele><time>2026-05-03T12:51:29.564Z</time></trkpt><trkpt lat="41.0020533" lon="16.1236433"><ele>381.0</ele><time>2026-05-03T12:51:30.565Z</time></trkpt><trkpt lat="41.001975" lon="16.1237333"><ele>380.0</ele><time>2026-05-03T12:51:31.565Z</time></trkpt><trkpt lat="41.0018933" lon="16.12383"><ele>379.0</ele><time>2026-05-03T12:51:32.565Z</time></trkpt><trkpt lat="41.0018033" lon="16.1239467"><ele>379.0</ele><time>2026-05-03T12:51:33.565Z</time></trkpt><trkpt lat="41.0017117" lon="16.1240833"><ele>379.0</ele><time>2026-05-03T12:51:34.564Z</time></trkpt><trkpt lat="41.0016317" lon="16.12422"><ele>379.0</ele><time>2026-05-03T12:51:35.565Z</time></trkpt><trkpt lat="41.0015533" lon="16.1243467"><ele>379.0</ele><time>2026-05-03T12:51:36.564Z</time></trkpt><trkpt lat="41.0014767" lon="16.1244683"><ele>378.5</ele><time>2026-05-03T12:51:37.564Z</time></trkpt><trkpt lat="41.001395" lon="16.124585"><ele>378.0</ele><time>2026-05-03T12:51:38.564Z</time></trkpt><trkpt lat="41.0013083" lon="16.1247017"><ele>377.5</ele><time>2026-05-03T12:51:39.564Z</time></trkpt><trkpt lat="41.0012233" lon="16.12482"><ele>377.0</ele><time>2026-05-03T12:51:40.564Z</time></trkpt><trkpt lat="41.0011433" lon="16.1249417"><ele>376.75</ele><time>2026-05-03T12:51:41.565Z</time></trkpt><trkpt lat="41.0010633" lon="16.125055"><ele>376.5</ele><time>2026-05-03T12:51:42.564Z</time></trkpt><trkpt lat="41.0009917" lon="16.1251783"><ele>376.25</ele><time>2026-05-03T12:51:43.565Z</time></trkpt><trkpt lat="41.0009133" lon="16.1253167"><ele>376.0</ele><time>2026-05-03T12:51:44.565Z</time></trkpt><trkpt lat="41.0008383" lon="16.1254517"><ele>374.75</ele><time>2026-05-03T12:51:45.564Z</time></trkpt><trkpt lat="41.0007617" lon="16.1255883"><ele>373.5</ele><time>2026-05-03T12:51:46.564Z</time></trkpt><trkpt lat="41.0006983" lon="16.1257183"><ele>372.25</ele><time>2026-05-03T12:51:47.564Z</time></trkpt><trkpt lat="41.000645" lon="16.1258567"><ele>371.0</ele><time>2026-05-03T12:51:48.564Z</time></trkpt><trkpt lat="41.0005983" lon="16.1259783"><ele>370.4</ele><time>2026-05-03T12:51:49.565Z</time></trkpt><trkpt lat="41.000545" lon="16.1261083"><ele>369.8</ele><time>2026-05-03T12:51:50.565Z</time></trkpt><trkpt lat="41.00048" lon="16.126235"><ele>369.2</ele><time>2026-05-03T12:51:51.564Z</time></trkpt><trkpt lat="41.0004183" lon="16.1263533"><ele>368.59999999999997</ele><time>2026-05-03T12:51:52.564Z</time></trkpt><trkpt lat="41.0003583" lon="16.1264567"><ele>368.0</ele><time>2026-05-03T12:51:53.565Z</time></trkpt><trkpt lat="41.0003017" lon="16.1265383"><ele>368.5</ele><time>2026-05-03T12:51:54.564Z</time></trkpt><trkpt lat="41.000225" lon="16.1266167"><ele>369.0</ele><time>2026-05-03T12:51:55.564Z</time></trkpt><trkpt lat="41.0001483" lon="16.1266967"><ele>369.5</ele><time>2026-05-03T12:51:56.564Z</time></trkpt><trkpt lat="41.0000783" lon="16.12676"><ele>370.0</ele><time>2026-05-03T12:51:57.565Z</time></trkpt><trkpt lat="41.0000133" lon="16.1268067"><ele>370.5</ele><time>2026-05-03T12:51:58.564Z</time></trkpt><trkpt lat="40.9999583" lon="16.12685"><ele>371.0</ele><time>2026-05-03T12:51:59.564Z</time></trkpt><trkpt lat="40.9999117" lon="16.126915"><ele>371.0</ele><time>2026-05-03T12:52:00.564Z</time></trkpt><trkpt lat="40.9998633" lon="16.1270017"><ele>371.0</ele><time>2026-05-03T12:52:01.565Z</time></trkpt><trkpt lat="40.9998133" lon="16.12709"><ele>371.0</ele><time>2026-05-03T12:52:02.565Z</time></trkpt><trkpt lat="40.9997667" lon="16.1271817"><ele>371.0</ele><time>2026-05-03T12:52:03.564Z</time></trkpt><trkpt lat="40.99972" lon="16.127265"><ele>371.0</ele><time>2026-05-03T12:52:04.564Z</time></trkpt><trkpt lat="40.9996833" lon="16.1273667"><ele>371.0</ele><time>2026-05-03T12:52:05.564Z</time></trkpt><trkpt lat="40.9996583" lon="16.127485"><ele>372.0</ele><time>2026-05-03T12:52:06.564Z</time></trkpt><trkpt lat="40.99962" lon="16.1276133"><ele>373.0</ele><time>2026-05-03T12:52:07.564Z</time></trkpt><trkpt lat="40.9995717" lon="16.12774"><ele>374.0</ele><time>2026-05-03T12:52:08.565Z</time></trkpt><trkpt lat="40.9995067" lon="16.1278517"><ele>375.0</ele><time>2026-05-03T12:52:09.565Z</time></trkpt><trkpt lat="40.9994417" lon="16.1279617"><ele>376.0</ele><time>2026-05-03T12:52:10.565Z</time></trkpt><trkpt lat="40.9993767" lon="16.128075"><ele>376.0</ele><time>2026-05-03T12:52:11.564Z</time></trkpt><trkpt lat="40.999325" lon="16.1281867"><ele>376.0</ele><time>2026-05-03T12:52:12.564Z</time></trkpt><trkpt lat="40.9992833" lon="16.1283017"><ele>376.0</ele><time>2026-05-03T12:52:13.565Z</time></trkpt><trkpt lat="40.9992417" lon="16.128415"><ele>376.0</ele><time>2026-05-03T12:52:14.564Z</time></trkpt><trkpt lat="40.9992017" lon="16.1285383"><ele>376.0</ele><time>2026-05-03T12:52:15.564Z</time></trkpt><trkpt lat="40.999155" lon="16.1286767"><ele>376.0</ele><time>2026-05-03T12:52:16.565Z</time></trkpt><trkpt lat="40.9991167" lon="16.128805"><ele>376.0</ele><time>2026-05-03T12:52:17.565Z</time></trkpt><trkpt lat="40.99908" lon="16.1289317"><ele>376.0</ele><time>2026-05-03T12:52:18.565Z</time></trkpt><trkpt lat="40.9990517" lon="16.1290683"><ele>376.0</ele><time>2026-05-03T12:52:19.564Z</time></trkpt><trkpt lat="40.9990183" lon="16.129205"><ele>376.0</ele><time>2026-05-03T12:52:20.564Z</time></trkpt><trkpt lat="40.99898" lon="16.1293417"><ele>376.0</ele><time>2026-05-03T12:52:21.565Z</time></trkpt><trkpt lat="40.9989367" lon="16.129485"><ele>376.0</ele><time>2026-05-03T12:52:22.565Z</time></trkpt><trkpt lat="40.9988967" lon="16.1296133"><ele>376.0</ele><time>2026-05-03T12:52:23.564Z</time></trkpt><trkpt lat="40.9988467" lon="16.1297383"><ele>376.0</ele><time>2026-05-03T12:52:24.564Z</time></trkpt><trkpt lat="40.9987967" lon="16.1298683"><ele>376.0</ele><time>2026-05-03T12:52:25.564Z</time></trkpt><trkpt lat="40.9987367" lon="16.1300067"><ele>376.4</ele><time>2026-05-03T12:52:26.564Z</time></trkpt><trkpt lat="40.9986933" lon="16.130145"><ele>376.8</ele><time>2026-05-03T12:52:27.565Z</time></trkpt><trkpt lat="40.9986533" lon="16.130275"><ele>377.2</ele><time>2026-05-03T12:52:28.564Z</time></trkpt><trkpt lat="40.9986117" lon="16.130405"><ele>377.59999999999997</ele><time>2026-05-03T12:52:29.565Z</time></trkpt><trkpt lat="40.9985683" lon="16.1305383"><ele>378.0</ele><time>2026-05-03T12:52:30.564Z</time></trkpt><trkpt lat="40.998525" lon="16.1306683"><ele>378.1666666666667</ele><time>2026-05-03T12:52:31.564Z</time></trkpt><trkpt lat="40.99849" lon="16.130775"><ele>378.3333333333333</ele><time>2026-05-03T12:52:32.565Z</time></trkpt><trkpt lat="40.9984483" lon="16.1308817"><ele>378.5</ele><time>2026-05-03T12:52:33.564Z</time></trkpt><trkpt lat="40.9984183" lon="16.130995"><ele>378.66666666666663</ele><time>2026-05-03T12:52:34.564Z</time></trkpt><trkpt lat="40.9983967" lon="16.1310967"><ele>378.8333333333333</ele><time>2026-05-03T12:52:35.564Z</time></trkpt><trkpt lat="40.998375" lon="16.1311817"><ele>379.0</ele><time>2026-05-03T12:52:36.564Z</time></trkpt><trkpt lat="40.9983283" lon="16.1313167"><ele>379.0</ele><time>2026-05-03T12:52:38.564Z</time></trkpt><trkpt lat="40.9983083" lon="16.1314217"><ele>379.0</ele><time>2026-05-03T12:52:40.565Z</time></trkpt><trkpt lat="40.998255" lon="16.131595"><ele>379.0</ele><time>2026-05-03T12:55:43.562Z</time></trkpt><trkpt lat="40.9981983" lon="16.1317233"><ele>379.0</ele><time>2026-05-03T12:55:45.562Z</time></trkpt><trkpt lat="40.9981583" lon="16.1318133"><ele>379.0</ele><time>2026-05-03T12:55:46.563Z</time></trkpt><trkpt lat="40.9981067" lon="16.1319117"><ele>379.2</ele><time>2026-05-03T12:55:47.562Z</time></trkpt><trkpt lat="40.9980583" lon="16.1320167"><ele>379.4</ele><time>2026-05-03T12:55:48.562Z</time></trkpt><trkpt lat="40.9980033" lon="16.1321283"><ele>379.6</ele><time>2026-05-03T12:55:49.562Z</time></trkpt><trkpt lat="40.9979467" lon="16.1322483"><ele>379.8</ele><time>2026-05-03T12:55:50.563Z</time></trkpt><trkpt lat="40.9978783" lon="16.1323633"><ele>380.0</ele><time>2026-05-03T12:55:51.562Z</time></trkpt><trkpt lat="40.99781" lon="16.1324683"><ele>379.8</ele><time>2026-05-03T12:55:52.563Z</time></trkpt><trkpt lat="40.9977367" lon="16.1325733"><ele>379.6</ele><time>2026-05-03T12:55:53.563Z</time></trkpt><trkpt lat="40.9976633" lon="16.13268"><ele>379.4</ele><time>2026-05-03T12:55:54.562Z</time></trkpt><trkpt lat="40.9975983" lon="16.1327767"><ele>379.2</ele><time>2026-05-03T12:55:55.562Z</time></trkpt><trkpt lat="40.997525" lon="16.132885"><ele>379.0</ele><time>2026-05-03T12:55:56.562Z</time></trkpt><trkpt lat="40.9974483" lon="16.1329967"><ele>379.0</ele><time>2026-05-03T12:55:57.563Z</time></trkpt><trkpt lat="40.997375" lon="16.1331083"><ele>379.0</ele><time>2026-05-03T12:55:58.562Z</time></trkpt><trkpt lat="40.997305" lon="16.1332183"><ele>379.0</ele><time>2026-05-03T12:55:59.562Z</time></trkpt><trkpt lat="40.9972317" lon="16.1333233"><ele>379.0</ele><time>2026-05-03T12:56:00.562Z</time></trkpt><trkpt lat="40.9971567" lon="16.1334283"><ele>379.0</ele><time>2026-05-03T12:56:01.563Z</time></trkpt><trkpt lat="40.997085" lon="16.1335367"><ele>380.25</ele><time>2026-05-03T12:56:02.562Z</time></trkpt><trkpt lat="40.997005" lon="16.1336567"><ele>381.5</ele><time>2026-05-03T12:56:03.562Z</time></trkpt><trkpt lat="40.9969317" lon="16.1337717"><ele>382.75</ele><time>2026-05-03T12:56:04.562Z</time></trkpt><trkpt lat="40.9968567" lon="16.1338933"><ele>384.0</ele><time>2026-05-03T12:56:05.563Z</time></trkpt><trkpt lat="40.9967933" lon="16.134"><ele>384.6666666666667</ele><time>2026-05-03T12:56:06.563Z</time></trkpt><trkpt lat="40.9967233" lon="16.1341067"><ele>385.33333333333337</ele><time>2026-05-03T12:56:07.563Z</time></trkpt><trkpt lat="40.99666" lon="16.1341983"><ele>386.0</ele><time>2026-05-03T12:56:08.563Z</time></trkpt><trkpt lat="40.9966133" lon="16.1342667"><ele>386.6666666666667</ele><time>2026-05-03T12:56:09.562Z</time></trkpt><trkpt lat="40.9965683" lon="16.1343917"><ele>387.33333333333337</ele><time>2026-05-03T12:56:11.562Z</time></trkpt><trkpt lat="40.996555" lon="16.1344767"><ele>388.0</ele><time>2026-05-03T12:56:12.562Z</time></trkpt><trkpt lat="40.996545" lon="16.1345633"><ele>388.00000000000006</ele><time>2026-05-03T12:56:13.563Z</time></trkpt><trkpt lat="40.9965233" lon="16.1346417"><ele>388.0</ele><time>2026-05-03T12:56:14.563Z</time></trkpt><trkpt lat="40.9964683" lon="16.1347033"><ele>388.0</ele><time>2026-05-03T12:56:15.563Z</time></trkpt><trkpt lat="40.9963983" lon="16.13476"><ele>388.0</ele><time>2026-05-03T12:56:16.562Z</time></trkpt><trkpt lat="40.9963333" lon="16.1348117"><ele>388.00000000000006</ele><time>2026-05-03T12:56:17.562Z</time></trkpt><trkpt lat="40.9962483" lon="16.1348733"><ele>388.0</ele><time>2026-05-03T12:56:19.563Z</time></trkpt><trkpt lat="40.9961783" lon="16.13491"><ele>387.83333333333337</ele><time>2026-05-03T12:56:22.562Z</time></trkpt><trkpt lat="40.99612" lon="16.134975"><ele>387.6666666666667</ele><time>2026-05-03T12:56:26.563Z</time></trkpt><trkpt lat="40.9960733" lon="16.1350517"><ele>387.5</ele><time>2026-05-03T12:56:28.562Z</time></trkpt><trkpt lat="40.9959883" lon="16.1351567"><ele>387.33333333333337</ele><time>2026-05-03T12:56:30.562Z</time></trkpt><trkpt lat="40.9959367" lon="16.13523"><ele>387.1666666666667</ele><time>2026-05-03T12:56:31.562Z</time></trkpt><trkpt lat="40.99588" lon="16.135315"><ele>387.0</ele><time>2026-05-03T12:56:32.562Z</time></trkpt><trkpt lat="40.9958117" lon="16.1354067"><ele>387.0</ele><time>2026-05-03T12:56:33.563Z</time></trkpt><trkpt lat="40.9957317" lon="16.135505"><ele>387.0</ele><time>2026-05-03T12:56:34.563Z</time></trkpt><trkpt lat="40.9956617" lon="16.1356017"><ele>387.0</ele><time>2026-05-03T12:56:35.563Z</time></trkpt><trkpt lat="40.9955917" lon="16.135695"><ele>387.0</ele><time>2026-05-03T12:56:36.562Z</time></trkpt><trkpt lat="40.9955217" lon="16.1357883"><ele>387.0</ele><time>2026-05-03T12:56:37.562Z</time></trkpt><trkpt lat="40.995445" lon="16.1358867"><ele>388.0</ele><time>2026-05-03T12:56:38.562Z</time></trkpt><trkpt lat="40.9953717" lon="16.1359717"><ele>389.0</ele><time>2026-05-03T12:56:39.563Z</time></trkpt><trkpt lat="40.9953033" lon="16.136045"><ele>390.0</ele><time>2026-05-03T12:56:40.562Z</time></trkpt><trkpt lat="40.9952267" lon="16.136105"><ele>391.0</ele><time>2026-05-03T12:56:41.562Z</time></trkpt><trkpt lat="40.9951517" lon="16.136185"><ele>392.0</ele><time>2026-05-03T12:56:42.563Z</time></trkpt><trkpt lat="40.9950717" lon="16.1362733"><ele>392.40000000000003</ele><time>2026-05-03T12:56:43.562Z</time></trkpt><trkpt lat="40.995" lon="16.1363717"><ele>392.8</ele><time>2026-05-03T12:56:44.562Z</time></trkpt><trkpt lat="40.9949267" lon="16.1364767"><ele>393.2</ele><time>2026-05-03T12:56:45.562Z</time></trkpt><trkpt lat="40.9948483" lon="16.1365867"><ele>393.6</ele><time>2026-05-03T12:56:46.562Z</time></trkpt><trkpt lat="40.994775" lon="16.13669"><ele>394.0</ele><time>2026-05-03T12:56:47.562Z</time></trkpt><trkpt lat="40.9947167" lon="16.1367967"><ele>394.0</ele><time>2026-05-03T12:56:48.562Z</time></trkpt><trkpt lat="40.9946583" lon="16.1368983"><ele>394.0</ele><time>2026-05-03T12:56:49.562Z</time></trkpt><trkpt lat="40.99459" lon="16.1370033"><ele>394.0</ele><time>2026-05-03T12:56:50.562Z</time></trkpt><trkpt lat="40.994525" lon="16.1371167"><ele>394.0</ele><time>2026-05-03T12:56:51.563Z</time></trkpt><trkpt lat="40.9944633" lon="16.137235"><ele>394.0</ele><time>2026-05-03T12:56:52.562Z</time></trkpt><trkpt lat="40.994405" lon="16.1373633"><ele>394.0</ele><time>2026-05-03T12:56:53.562Z</time></trkpt><trkpt lat="40.994335" lon="16.1375017"><ele>394.0</ele><time>2026-05-03T12:56:54.562Z</time></trkpt><trkpt lat="40.9942683" lon="16.1376217"><ele>394.0</ele><time>2026-05-03T12:56:55.562Z</time></trkpt><trkpt lat="40.9942083" lon="16.1377383"><ele>394.0</ele><time>2026-05-03T12:56:56.562Z</time></trkpt><trkpt lat="40.9941567" lon="16.13784"><ele>394.0</ele><time>2026-05-03T12:56:57.562Z</time></trkpt><trkpt lat="40.99411" lon="16.1379333"><ele>394.00000000000006</ele><time>2026-05-03T12:56:58.562Z</time></trkpt><trkpt lat="40.9940667" lon="16.1380217"><ele>394.0</ele><time>2026-05-03T12:56:59.562Z</time></trkpt><trkpt lat="40.994025" lon="16.13812"><ele>394.0</ele><time>2026-05-03T12:57:00.562Z</time></trkpt><trkpt lat="40.9939717" lon="16.138215"><ele>394.0</ele><time>2026-05-03T12:57:01.562Z</time></trkpt><trkpt lat="40.993915" lon="16.1383117"><ele>394.00000000000006</ele><time>2026-05-03T12:57:02.562Z</time></trkpt><trkpt lat="40.9938567" lon="16.13842"><ele>394.0</ele><time>2026-05-03T12:57:03.562Z</time></trkpt><trkpt lat="40.9938067" lon="16.1385317"><ele>395.0</ele><time>2026-05-03T12:57:04.562Z</time></trkpt><trkpt lat="40.99376" lon="16.1386383"><ele>396.0</ele><time>2026-05-03T12:57:05.562Z</time></trkpt><trkpt lat="40.9936983" lon="16.1387567"><ele>397.0</ele><time>2026-05-03T12:57:06.563Z</time></trkpt><trkpt lat="40.9936367" lon="16.1388733"><ele>398.0</ele><time>2026-05-03T12:57:07.562Z</time></trkpt><trkpt lat="40.9935667" lon="16.1389883"><ele>399.0</ele><time>2026-05-03T12:57:08.562Z</time></trkpt><trkpt lat="40.9935017" lon="16.139095"><ele>399.2</ele><time>2026-05-03T12:57:09.563Z</time></trkpt><trkpt lat="40.9934433" lon="16.139215"><ele>399.4</ele><time>2026-05-03T12:57:10.562Z</time></trkpt><trkpt lat="40.9933867" lon="16.139335"><ele>399.6</ele><time>2026-05-03T12:57:11.563Z</time></trkpt><trkpt lat="40.99332" lon="16.139455"><ele>399.8</ele><time>2026-05-03T12:57:12.562Z</time></trkpt><trkpt lat="40.9932433" lon="16.1395733"><ele>400.0</ele><time>2026-05-03T12:57:13.563Z</time></trkpt><trkpt lat="40.9931583" lon="16.1396933"><ele>400.0</ele><time>2026-05-03T12:57:14.563Z</time></trkpt><trkpt lat="40.9930733" lon="16.139815"><ele>400.0</ele><time>2026-05-03T12:57:15.563Z</time></trkpt><trkpt lat="40.9929967" lon="16.139925"><ele>400.0</ele><time>2026-05-03T12:57:16.562Z</time></trkpt><trkpt lat="40.9929183" lon="16.1400367"><ele>400.0</ele><time>2026-05-03T12:57:17.562Z</time></trkpt><trkpt lat="40.9928467" lon="16.1401367"><ele>401.25</ele><time>2026-05-03T12:57:18.563Z</time></trkpt><trkpt lat="40.9927717" lon="16.1402467"><ele>402.5</ele><time>2026-05-03T12:57:19.562Z</time></trkpt><trkpt lat="40.9926933" lon="16.140365"><ele>403.75</ele><time>2026-05-03T12:57:20.562Z</time></trkpt><trkpt lat="40.9926167" lon="16.14048"><ele>405.0</ele><time>2026-05-03T12:57:21.562Z</time></trkpt><trkpt lat="40.992535" lon="16.1405983"><ele>405.75</ele><time>2026-05-03T12:57:22.562Z</time></trkpt><trkpt lat="40.9924483" lon="16.140725"><ele>406.5</ele><time>2026-05-03T12:57:23.562Z</time></trkpt><trkpt lat="40.9923617" lon="16.1408583"><ele>407.25</ele><time>2026-05-03T12:57:24.562Z</time></trkpt><trkpt lat="40.9922783" lon="16.1409783"><ele>408.0</ele><time>2026-05-03T12:57:25.562Z</time></trkpt><trkpt lat="40.9921933" lon="16.141085"><ele>408.0</ele><time>2026-05-03T12:57:26.562Z</time></trkpt><trkpt lat="40.99211" lon="16.1411883"><ele>408.0</ele><time>2026-05-03T12:57:27.562Z</time></trkpt><trkpt lat="40.9920317" lon="16.141295"><ele>408.0</ele><time>2026-05-03T12:57:28.563Z</time></trkpt><trkpt lat="40.9919467" lon="16.1414083"><ele>408.0</ele><time>2026-05-03T12:57:29.562Z</time></trkpt><trkpt lat="40.99186" lon="16.1415317"><ele>408.75</ele><time>2026-05-03T12:57:30.562Z</time></trkpt><trkpt lat="40.99177" lon="16.1416533"><ele>409.5</ele><time>2026-05-03T12:57:31.563Z</time></trkpt><trkpt lat="40.9916833" lon="16.1417617"><ele>410.25</ele><time>2026-05-03T12:57:32.563Z</time></trkpt><trkpt lat="40.9915967" lon="16.141865"><ele>411.0</ele><time>2026-05-03T12:57:33.562Z</time></trkpt><trkpt lat="40.9915167" lon="16.1419683"><ele>411.0</ele><time>2026-05-03T12:57:34.562Z</time></trkpt><trkpt lat="40.9914433" lon="16.1420617"><ele>411.0</ele><time>2026-05-03T12:57:35.562Z</time></trkpt><trkpt lat="40.99137" lon="16.1421483"><ele>411.0</ele><time>2026-05-03T12:57:36.562Z</time></trkpt><trkpt lat="40.9912983" lon="16.14223"><ele>411.0</ele><time>2026-05-03T12:57:37.563Z</time></trkpt><trkpt lat="40.9912217" lon="16.1423117"><ele>411.0</ele><time>2026-05-03T12:57:38.563Z</time></trkpt><trkpt lat="40.9911383" lon="16.1423983"><ele>411.20000000000005</ele><time>2026-05-03T12:57:39.562Z</time></trkpt><trkpt lat="40.99106" lon="16.142485"><ele>411.40000000000003</ele><time>2026-05-03T12:57:40.562Z</time></trkpt><trkpt lat="40.99098" lon="16.1425667"><ele>411.6</ele><time>2026-05-03T12:57:41.562Z</time></trkpt><trkpt lat="40.9908983" lon="16.1426433"><ele>411.8</ele><time>2026-05-03T12:57:42.562Z</time></trkpt><trkpt lat="40.99081" lon="16.14273"><ele>412.0</ele><time>2026-05-03T12:57:43.563Z</time></trkpt><trkpt lat="40.9907217" lon="16.142825"><ele>412.6</ele><time>2026-05-03T12:57:44.563Z</time></trkpt><trkpt lat="40.990635" lon="16.1429233"><ele>413.20000000000005</ele><time>2026-05-03T12:57:45.562Z</time></trkpt><trkpt lat="40.9905467" lon="16.1430217"><ele>413.8</ele><time>2026-05-03T12:57:46.562Z</time></trkpt><trkpt lat="40.9904667" lon="16.1431133"><ele>414.4</ele><time>2026-05-03T12:57:47.562Z</time></trkpt><trkpt lat="40.9903783" lon="16.1432067"><ele>415.0</ele><time>2026-05-03T12:57:48.562Z</time></trkpt><trkpt lat="40.99029" lon="16.1432967"><ele>415.0</ele><time>2026-05-03T12:57:49.563Z</time></trkpt><trkpt lat="40.990195" lon="16.1433783"><ele>415.0</ele><time>2026-05-03T12:57:50.562Z</time></trkpt><trkpt lat="40.9900867" lon="16.1434533"><ele>415.0</ele><time>2026-05-03T12:57:51.562Z</time></trkpt><trkpt lat="40.9899733" lon="16.1435267"><ele>415.0</ele><time>2026-05-03T12:57:52.562Z</time></trkpt><trkpt lat="40.989855" lon="16.1436067"><ele>415.0</ele><time>2026-05-03T12:57:53.562Z</time></trkpt><trkpt lat="40.9897333" lon="16.1436867"><ele>415.0</ele><time>2026-05-03T12:57:54.563Z</time></trkpt><trkpt lat="40.989605" lon="16.1437667"><ele>415.0</ele><time>2026-05-03T12:57:55.563Z</time></trkpt><trkpt lat="40.9894717" lon="16.1438483"><ele>415.0</ele><time>2026-05-03T12:57:56.562Z</time></trkpt><trkpt lat="40.9893483" lon="16.1439317"><ele>415.0</ele><time>2026-05-03T12:57:57.562Z</time></trkpt><trkpt lat="40.9892233" lon="16.1440167"><ele>415.0</ele><time>2026-05-03T12:57:58.563Z</time></trkpt><trkpt lat="40.9890967" lon="16.14411"><ele>415.0</ele><time>2026-05-03T12:57:59.563Z</time></trkpt><trkpt lat="40.98897" lon="16.1441983"><ele>415.0</ele><time>2026-05-03T12:58:00.562Z</time></trkpt><trkpt lat="40.988845" lon="16.1442833"><ele>415.75</ele><time>2026-05-03T12:58:01.562Z</time></trkpt><trkpt lat="40.9887167" lon="16.1443783"><ele>416.5</ele><time>2026-05-03T12:58:02.562Z</time></trkpt><trkpt lat="40.9885933" lon="16.1444717"><ele>417.25</ele><time>2026-05-03T12:58:03.562Z</time></trkpt><trkpt lat="40.98847" lon="16.1445667"><ele>418.0</ele><time>2026-05-03T12:58:04.562Z</time></trkpt><trkpt lat="40.98834" lon="16.144665"><ele>418.0</ele><time>2026-05-03T12:58:05.563Z</time></trkpt><trkpt lat="40.98822" lon="16.144765"><ele>418.0</ele><time>2026-05-03T12:58:06.562Z</time></trkpt><trkpt lat="40.9880967" lon="16.14486"><ele>418.0</ele><time>2026-05-03T12:58:07.563Z</time></trkpt><trkpt lat="40.9879667" lon="16.1449633"><ele>418.0</ele><time>2026-05-03T12:58:08.562Z</time></trkpt><trkpt lat="40.9878383" lon="16.14507"><ele>418.75</ele><time>2026-05-03T12:58:09.562Z</time></trkpt><trkpt lat="40.9877133" lon="16.1451733"><ele>419.5</ele><time>2026-05-03T12:58:10.562Z</time></trkpt><trkpt lat="40.987595" lon="16.1452933"><ele>420.25</ele><time>2026-05-03T12:58:11.562Z</time></trkpt><trkpt lat="40.9874817" lon="16.1454233"><ele>421.0</ele><time>2026-05-03T12:58:12.562Z</time></trkpt><trkpt lat="40.9873783" lon="16.1455683"><ele>422.33333333333337</ele><time>2026-05-03T12:58:13.562Z</time></trkpt><trkpt lat="40.9872717" lon="16.145715"><ele>423.66666666666663</ele><time>2026-05-03T12:58:14.562Z</time></trkpt><trkpt lat="40.987165" lon="16.1458617"><ele>425.0</ele><time>2026-05-03T12:58:15.562Z</time></trkpt><trkpt lat="40.9870667" lon="16.146"><ele>425.0</ele><time>2026-05-03T12:58:16.562Z</time></trkpt><trkpt lat="40.9869617" lon="16.1461383"><ele>425.0</ele><time>2026-05-03T12:58:17.562Z</time></trkpt><trkpt lat="40.986865" lon="16.1462833"><ele>425.0</ele><time>2026-05-03T12:58:18.562Z</time></trkpt><trkpt lat="40.9867733" lon="16.1464267"><ele>425.0</ele><time>2026-05-03T12:58:19.562Z</time></trkpt><trkpt lat="40.986675" lon="16.1465717"><ele>425.0</ele><time>2026-05-03T12:58:20.562Z</time></trkpt><trkpt lat="40.98657" lon="16.1467133"><ele>425.0</ele><time>2026-05-03T12:58:21.562Z</time></trkpt><trkpt lat="40.9864667" lon="16.14686"><ele>425.0</ele><time>2026-05-03T12:58:22.562Z</time></trkpt><trkpt lat="40.986365" lon="16.1470083"><ele>425.0</ele><time>2026-05-03T12:58:23.562Z</time></trkpt><trkpt lat="40.9862483" lon="16.14716"><ele>425.0</ele><time>2026-05-03T12:58:24.562Z</time></trkpt><trkpt lat="40.9861433" lon="16.14731"><ele>425.0</ele><time>2026-05-03T12:58:25.562Z</time></trkpt><trkpt lat="40.9860383" lon="16.147475"><ele>425.0</ele><time>2026-05-03T12:58:26.562Z</time></trkpt><trkpt lat="40.985935" lon="16.1476417"><ele>425.0</ele><time>2026-05-03T12:58:27.562Z</time></trkpt><trkpt lat="40.98583" lon="16.14781"><ele>425.0</ele><time>2026-05-03T12:58:28.562Z</time></trkpt><trkpt lat="40.98572" lon="16.1479817"><ele>425.0</ele><time>2026-05-03T12:58:29.562Z</time></trkpt><trkpt lat="40.9856133" lon="16.148155"><ele>425.0</ele><time>2026-05-03T12:58:30.562Z</time></trkpt><trkpt lat="40.9855083" lon="16.1483267"><ele>425.0</ele><time>2026-05-03T12:58:31.562Z</time></trkpt><trkpt lat="40.9854017" lon="16.1484883"><ele>425.5</ele><time>2026-05-03T12:58:32.562Z</time></trkpt><trkpt lat="40.9853033" lon="16.148645"><ele>426.0</ele><time>2026-05-03T12:58:33.563Z</time></trkpt><trkpt lat="40.9852183" lon="16.14879"><ele>426.5</ele><time>2026-05-03T12:58:34.562Z</time></trkpt><trkpt lat="40.9851233" lon="16.14893"><ele>427.0</ele><time>2026-05-03T12:58:35.562Z</time></trkpt><trkpt lat="40.98502" lon="16.1490567"><ele>427.75</ele><time>2026-05-03T12:58:36.562Z</time></trkpt><trkpt lat="40.9849083" lon="16.1491833"><ele>428.5</ele><time>2026-05-03T12:58:37.563Z</time></trkpt><trkpt lat="40.9848067" lon="16.1493133"><ele>429.25</ele><time>2026-05-03T12:58:38.563Z</time></trkpt><trkpt lat="40.9847033" lon="16.149445"><ele>430.0</ele><time>2026-05-03T12:58:39.562Z</time></trkpt><trkpt lat="40.9845967" lon="16.1495783"><ele>430.0</ele><time>2026-05-03T12:58:40.563Z</time></trkpt><trkpt lat="40.9844917" lon="16.1497083"><ele>430.0</ele><time>2026-05-03T12:58:41.562Z</time></trkpt><trkpt lat="40.9844083" lon="16.1498183"><ele>430.0</ele><time>2026-05-03T12:58:42.562Z</time></trkpt><trkpt lat="40.9843383" lon="16.1499017"><ele>430.0</ele><time>2026-05-03T12:58:43.563Z</time></trkpt><trkpt lat="40.9842617" lon="16.1499833"><ele>430.0</ele><time>2026-05-03T12:58:44.562Z</time></trkpt><trkpt lat="40.9841883" lon="16.1500617"><ele>430.0</ele><time>2026-05-03T12:58:45.563Z</time></trkpt><trkpt lat="40.98411" lon="16.150155"><ele>430.0</ele><time>2026-05-03T12:58:46.563Z</time></trkpt><trkpt lat="40.9840233" lon="16.1502483"><ele>430.0</ele><time>2026-05-03T12:58:47.563Z</time></trkpt><trkpt lat="40.9839183" lon="16.15035"><ele>430.0</ele><time>2026-05-03T12:58:48.562Z</time></trkpt><trkpt lat="40.983815" lon="16.1504617"><ele>430.25</ele><time>2026-05-03T12:58:49.562Z</time></trkpt><trkpt lat="40.9837" lon="16.150565"><ele>430.5</ele><time>2026-05-03T12:58:50.562Z</time></trkpt><trkpt lat="40.983575" lon="16.1506633"><ele>430.75</ele><time>2026-05-03T12:58:51.562Z</time></trkpt><trkpt lat="40.98345" lon="16.150765"><ele>431.0</ele><time>2026-05-03T12:58:52.562Z</time></trkpt><trkpt lat="40.9833267" lon="16.1508733"><ele>430.5</ele><time>2026-05-03T12:58:53.562Z</time></trkpt><trkpt lat="40.9832017" lon="16.1509733"><ele>430.0</ele><time>2026-05-03T12:58:54.562Z</time></trkpt><trkpt lat="40.983085" lon="16.1510783"><ele>429.5</ele><time>2026-05-03T12:58:55.562Z</time></trkpt><trkpt lat="40.982965" lon="16.1511917"><ele>429.0</ele><time>2026-05-03T12:58:56.562Z</time></trkpt><trkpt lat="40.982855" lon="16.1513"><ele>429.0</ele><time>2026-05-03T12:58:57.562Z</time></trkpt><trkpt lat="40.982755" lon="16.1514"><ele>429.0</ele><time>2026-05-03T12:58:58.562Z</time></trkpt><trkpt lat="40.982665" lon="16.1515067"><ele>429.0</ele><time>2026-05-03T12:58:59.562Z</time></trkpt><trkpt lat="40.9825767" lon="16.1516167"><ele>429.0</ele><time>2026-05-03T12:59:00.562Z</time></trkpt><trkpt lat="40.98249" lon="16.1517367"><ele>428.0</ele><time>2026-05-03T12:59:01.562Z</time></trkpt><trkpt lat="40.9824133" lon="16.1518583"><ele>427.0</ele><time>2026-05-03T12:59:02.562Z</time></trkpt><trkpt lat="40.982345" lon="16.1519983"><ele>426.0</ele><time>2026-05-03T12:59:03.562Z</time></trkpt><trkpt lat="40.9822833" lon="16.152155"><ele>425.0</ele><time>2026-05-03T12:59:04.562Z</time></trkpt><trkpt lat="40.9822233" lon="16.1523217"><ele>425.0</ele><time>2026-05-03T12:59:05.563Z</time></trkpt><trkpt lat="40.98216" lon="16.152495"><ele>425.0</ele><time>2026-05-03T12:59:06.562Z</time></trkpt><trkpt lat="40.9820933" lon="16.1526717"><ele>425.0</ele><time>2026-05-03T12:59:07.563Z</time></trkpt><trkpt lat="40.9820367" lon="16.152835"><ele>425.0</ele><time>2026-05-03T12:59:08.562Z</time></trkpt><trkpt lat="40.9819767" lon="16.1529883"><ele>425.0</ele><time>2026-05-03T12:59:09.562Z</time></trkpt><trkpt lat="40.9819183" lon="16.1531333"><ele>425.0</ele><time>2026-05-03T12:59:10.562Z</time></trkpt><trkpt lat="40.981865" lon="16.153275"><ele>425.0</ele><time>2026-05-03T12:59:11.562Z</time></trkpt><trkpt lat="40.9818167" lon="16.1534133"><ele>425.0</ele><time>2026-05-03T12:59:12.563Z</time></trkpt><trkpt lat="40.9817667" lon="16.1535433"><ele>424.8</ele><time>2026-05-03T12:59:13.563Z</time></trkpt><trkpt lat="40.9817283" lon="16.1536567"><ele>424.6</ele><time>2026-05-03T12:59:14.562Z</time></trkpt><trkpt lat="40.9816933" lon="16.1537783"><ele>424.4</ele><time>2026-05-03T12:59:15.563Z</time></trkpt><trkpt lat="40.98168" lon="16.1539117"><ele>424.2</ele><time>2026-05-03T12:59:16.563Z</time></trkpt><trkpt lat="40.98168" lon="16.15404"><ele>424.0</ele><time>2026-05-03T12:59:17.562Z</time></trkpt><trkpt lat="40.9816733" lon="16.15416"><ele>423.83333333333337</ele><time>2026-05-03T12:59:18.563Z</time></trkpt><trkpt lat="40.981665" lon="16.1542617"><ele>423.6666666666667</ele><time>2026-05-03T12:59:19.562Z</time></trkpt><trkpt lat="40.981655" lon="16.1543483"><ele>423.5</ele><time>2026-05-03T12:59:20.562Z</time></trkpt><trkpt lat="40.981615" lon="16.15447"><ele>423.33333333333337</ele><time>2026-05-03T12:59:22.563Z</time></trkpt><trkpt lat="40.9815933" lon="16.1545533"><ele>423.1666666666667</ele><time>2026-05-03T12:59:24.562Z</time></trkpt><trkpt lat="40.98158" lon="16.154635"><ele>423.0</ele><time>2026-05-03T12:59:26.562Z</time></trkpt><trkpt lat="40.9815517" lon="16.154745"><ele>423.0</ele><time>2026-05-03T12:59:28.562Z</time></trkpt><trkpt lat="40.981535" lon="16.1548783"><ele>423.0</ele><time>2026-05-03T12:59:30.562Z</time></trkpt><trkpt lat="40.9815117" lon="16.1549683"><ele>423.0</ele><time>2026-05-03T12:59:31.562Z</time></trkpt><trkpt lat="40.9814783" lon="16.1550733"><ele>423.0</ele><time>2026-05-03T12:59:32.563Z</time></trkpt><trkpt lat="40.9814433" lon="16.1551933"><ele>423.0</ele><time>2026-05-03T12:59:33.562Z</time></trkpt><trkpt lat="40.9814083" lon="16.15533"><ele>423.0</ele><time>2026-05-03T12:59:34.563Z</time></trkpt><trkpt lat="40.9813633" lon="16.15547"><ele>423.0</ele><time>2026-05-03T12:59:35.562Z</time></trkpt><trkpt lat="40.9813183" lon="16.15561"><ele>423.0</ele><time>2026-05-03T12:59:36.563Z</time></trkpt><trkpt lat="40.9812567" lon="16.1557567"><ele>423.0</ele><time>2026-05-03T12:59:37.562Z</time></trkpt><trkpt lat="40.9812067" lon="16.1559183"><ele>423.0</ele><time>2026-05-03T12:59:38.562Z</time></trkpt><trkpt lat="40.9811517" lon="16.1560817"><ele>423.0</ele><time>2026-05-03T12:59:39.562Z</time></trkpt><trkpt lat="40.9810883" lon="16.156235"><ele>423.0</ele><time>2026-05-03T12:59:40.563Z</time></trkpt><trkpt lat="40.98102" lon="16.15638"><ele>423.0</ele><time>2026-05-03T12:59:41.563Z</time></trkpt><trkpt lat="40.980955" lon="16.1565433"><ele>423.0</ele><time>2026-05-03T12:59:42.562Z</time></trkpt><trkpt lat="40.9808767" lon="16.156705"><ele>423.0</ele><time>2026-05-03T12:59:43.562Z</time></trkpt><trkpt lat="40.9807983" lon="16.1568783"><ele>423.0</ele><time>2026-05-03T12:59:44.562Z</time></trkpt><trkpt lat="40.9807217" lon="16.15704"><ele>423.0</ele><time>2026-05-03T12:59:45.562Z</time></trkpt><trkpt lat="40.980645" lon="16.1571967"><ele>423.0</ele><time>2026-05-03T12:59:46.562Z</time></trkpt><trkpt lat="40.9805633" lon="16.15735"><ele>423.0</ele><time>2026-05-03T12:59:47.562Z</time></trkpt><trkpt lat="40.98048" lon="16.1575133"><ele>423.0</ele><time>2026-05-03T12:59:48.562Z</time></trkpt><trkpt lat="40.9804" lon="16.1576867"><ele>423.0</ele><time>2026-05-03T12:59:49.562Z</time></trkpt><trkpt lat="40.98033" lon="16.157835"><ele>423.0</ele><time>2026-05-03T12:59:50.562Z</time></trkpt><trkpt lat="40.98027" lon="16.1579583"><ele>423.0</ele><time>2026-05-03T12:59:51.563Z</time></trkpt><trkpt lat="40.9802183" lon="16.15805"><ele>423.0</ele><time>2026-05-03T12:59:52.562Z</time></trkpt><trkpt lat="40.980185" lon="16.1581217"><ele>423.0</ele><time>2026-05-03T12:59:53.562Z</time></trkpt><trkpt lat="40.9801733" lon="16.1582117"><ele>423.0</ele><time>2026-05-03T12:59:55.562Z</time></trkpt><trkpt lat="40.9802517" lon="16.1583067"><ele>423.0</ele><time>2026-05-03T12:59:57.562Z</time></trkpt><trkpt lat="40.9803133" lon="16.15836"><ele>423.0</ele><time>2026-05-03T12:59:58.563Z</time></trkpt><trkpt lat="40.9803867" lon="16.1584183"><ele>423.0</ele><time>2026-05-03T12:59:59.562Z</time></trkpt><trkpt lat="40.9804617" lon="16.1584817"><ele>423.0</ele><time>2026-05-03T13:00:00.563Z</time></trkpt><trkpt lat="40.9805283" lon="16.1585383"><ele>423.0</ele><time>2026-05-03T13:00:01.562Z</time></trkpt><trkpt lat="40.9805967" lon="16.1585933"><ele>423.0</ele><time>2026-05-03T13:00:02.562Z</time></trkpt><trkpt lat="40.9806667" lon="16.158655"><ele>423.0</ele><time>2026-05-03T13:00:03.562Z</time></trkpt><trkpt lat="40.9807383" lon="16.1587217"><ele>423.0</ele><time>2026-05-03T13:00:04.563Z</time></trkpt><trkpt lat="40.9808067" lon="16.158795"><ele>423.0</ele><time>2026-05-03T13:00:05.562Z</time></trkpt><trkpt lat="40.9808767" lon="16.158865"><ele>423.0</ele><time>2026-05-03T13:00:06.562Z</time></trkpt><trkpt lat="40.9809533" lon="16.15894"><ele>423.0</ele><time>2026-05-03T13:00:07.562Z</time></trkpt><trkpt lat="40.9810333" lon="16.1590183"><ele>423.0</ele><time>2026-05-03T13:00:08.563Z</time></trkpt><trkpt lat="40.981115" lon="16.1590967"><ele>423.2</ele><time>2026-05-03T13:00:09.562Z</time></trkpt><trkpt lat="40.9812017" lon="16.1591783"><ele>423.4</ele><time>2026-05-03T13:00:10.563Z</time></trkpt><trkpt lat="40.981295" lon="16.1592583"><ele>423.59999999999997</ele><time>2026-05-03T13:00:11.562Z</time></trkpt><trkpt lat="40.9813833" lon="16.1593317"><ele>423.79999999999995</ele><time>2026-05-03T13:00:12.562Z</time></trkpt><trkpt lat="40.9814733" lon="16.1594083"><ele>424.0</ele><time>2026-05-03T13:00:13.562Z</time></trkpt><trkpt lat="40.9815583" lon="16.1594883"><ele>424.0</ele><time>2026-05-03T13:00:14.562Z</time></trkpt><trkpt lat="40.98165" lon="16.159575"><ele>424.0</ele><time>2026-05-03T13:00:15.563Z</time></trkpt><trkpt lat="40.9817367" lon="16.1596517"><ele>424.0</ele><time>2026-05-03T13:00:16.562Z</time></trkpt><trkpt lat="40.9818183" lon="16.1597267"><ele>424.0</ele><time>2026-05-03T13:00:17.562Z</time></trkpt><trkpt lat="40.9819033" lon="16.1598033"><ele>424.0</ele><time>2026-05-03T13:00:18.562Z</time></trkpt><trkpt lat="40.981985" lon="16.15987"><ele>424.6</ele><time>2026-05-03T13:00:19.562Z</time></trkpt><trkpt lat="40.9820683" lon="16.1599433"><ele>425.2</ele><time>2026-05-03T13:00:20.562Z</time></trkpt><trkpt lat="40.98215" lon="16.1600217"><ele>425.80000000000007</ele><time>2026-05-03T13:00:21.562Z</time></trkpt><trkpt lat="40.9822317" lon="16.160105"><ele>426.40000000000003</ele><time>2026-05-03T13:00:22.562Z</time></trkpt><trkpt lat="40.9823083" lon="16.1601867"><ele>427.0</ele><time>2026-05-03T13:00:23.563Z</time></trkpt><trkpt lat="40.9823683" lon="16.1602617"><ele>427.0</ele><time>2026-05-03T13:00:24.562Z</time></trkpt><trkpt lat="40.982405" lon="16.1603333"><ele>427.00000000000006</ele><time>2026-05-03T13:00:25.562Z</time></trkpt><trkpt lat="40.982455" lon="16.160505"><ele>427.00000000000006</ele><time>2026-05-03T13:00:27.562Z</time></trkpt><trkpt lat="40.9824867" lon="16.1606117"><ele>427.0</ele><time>2026-05-03T13:00:28.562Z</time></trkpt><trkpt lat="40.9825183" lon="16.1607317"><ele>427.0</ele><time>2026-05-03T13:00:29.563Z</time></trkpt><trkpt lat="40.9825433" lon="16.1608533"><ele>427.83333333333337</ele><time>2026-05-03T13:00:30.562Z</time></trkpt><trkpt lat="40.982565" lon="16.16097"><ele>428.6666666666667</ele><time>2026-05-03T13:00:31.562Z</time></trkpt><trkpt lat="40.9825817" lon="16.1610733"><ele>429.5</ele><time>2026-05-03T13:00:32.563Z</time></trkpt><trkpt lat="40.9825933" lon="16.1611733"><ele>430.33333333333337</ele><time>2026-05-03T13:00:33.562Z</time></trkpt><trkpt lat="40.98261" lon="16.161275"><ele>431.1666666666667</ele><time>2026-05-03T13:00:34.562Z</time></trkpt><trkpt lat="40.9826317" lon="16.1613817"><ele>432.0</ele><time>2026-05-03T13:00:35.563Z</time></trkpt><trkpt lat="40.9826567" lon="16.16149"><ele>432.20000000000005</ele><time>2026-05-03T13:00:36.562Z</time></trkpt><trkpt lat="40.9826783" lon="16.1616"><ele>432.40000000000003</ele><time>2026-05-03T13:00:37.563Z</time></trkpt><trkpt lat="40.9826967" lon="16.1617117"><ele>432.59999999999997</ele><time>2026-05-03T13:00:38.562Z</time></trkpt><trkpt lat="40.982715" lon="16.1618267"><ele>432.79999999999995</ele><time>2026-05-03T13:00:39.562Z</time></trkpt><trkpt lat="40.9827367" lon="16.1619533"><ele>433.0</ele><time>2026-05-03T13:00:40.563Z</time></trkpt><trkpt lat="40.9827633" lon="16.1620717"><ele>433.0</ele><time>2026-05-03T13:00:41.562Z</time></trkpt><trkpt lat="40.9827917" lon="16.162195"><ele>432.99999999999994</ele><time>2026-05-03T13:00:42.562Z</time></trkpt><trkpt lat="40.9828267" lon="16.162315"><ele>432.99999999999994</ele><time>2026-05-03T13:00:43.562Z</time></trkpt><trkpt lat="40.98286" lon="16.16244"><ele>433.0</ele><time>2026-05-03T13:00:44.562Z</time></trkpt><trkpt lat="40.982895" lon="16.1625717"><ele>433.0</ele><time>2026-05-03T13:00:45.562Z</time></trkpt><trkpt lat="40.9829367" lon="16.1627067"><ele>433.59999999999997</ele><time>2026-05-03T13:00:46.562Z</time></trkpt><trkpt lat="40.9829717" lon="16.1628417"><ele>434.19999999999993</ele><time>2026-05-03T13:00:47.562Z</time></trkpt><trkpt lat="40.9829983" lon="16.1629783"><ele>434.8</ele><time>2026-05-03T13:00:48.563Z</time></trkpt><trkpt lat="40.983025" lon="16.1631233"><ele>435.4</ele><time>2026-05-03T13:00:49.562Z</time></trkpt><trkpt lat="40.983055" lon="16.1632633"><ele>436.0</ele><time>2026-05-03T13:00:50.563Z</time></trkpt><trkpt lat="40.9830917" lon="16.1634"><ele>436.1666666666667</ele><time>2026-05-03T13:00:51.563Z</time></trkpt><trkpt lat="40.98312" lon="16.1635283"><ele>436.33333333333337</ele><time>2026-05-03T13:00:52.562Z</time></trkpt><trkpt lat="40.98314" lon="16.163645"><ele>436.5</ele><time>2026-05-03T13:00:53.562Z</time></trkpt><trkpt lat="40.9831617" lon="16.163755"><ele>436.66666666666663</ele><time>2026-05-03T13:00:54.562Z</time></trkpt><trkpt lat="40.9831567" lon="16.1638583"><ele>436.8333333333333</ele><time>2026-05-03T13:00:55.562Z</time></trkpt><trkpt lat="40.98314" lon="16.1639683"><ele>437.0</ele><time>2026-05-03T13:00:56.562Z</time></trkpt><trkpt lat="40.9831" lon="16.1640767"><ele>437.40000000000003</ele><time>2026-05-03T13:00:57.562Z</time></trkpt><trkpt lat="40.9830533" lon="16.1641933"><ele>437.80000000000007</ele><time>2026-05-03T13:00:58.562Z</time></trkpt><trkpt lat="40.9830133" lon="16.16432"><ele>438.2</ele><time>2026-05-03T13:00:59.562Z</time></trkpt><trkpt lat="40.9829717" lon="16.16446"><ele>438.6</ele><time>2026-05-03T13:01:00.563Z</time></trkpt><trkpt lat="40.9829333" lon="16.164595"><ele>439.0</ele><time>2026-05-03T13:01:01.562Z</time></trkpt><trkpt lat="40.9828967" lon="16.164735"><ele>439.4</ele><time>2026-05-03T13:01:02.562Z</time></trkpt><trkpt lat="40.9828667" lon="16.164865"><ele>439.79999999999995</ele><time>2026-05-03T13:01:03.563Z</time></trkpt><trkpt lat="40.9828367" lon="16.1649933"><ele>440.20000000000005</ele><time>2026-05-03T13:01:04.562Z</time></trkpt><trkpt lat="40.982795" lon="16.1651217"><ele>440.6</ele><time>2026-05-03T13:01:05.562Z</time></trkpt><trkpt lat="40.982755" lon="16.1652583"><ele>441.0</ele><time>2026-05-03T13:01:06.562Z</time></trkpt><trkpt lat="40.98272" lon="16.1653917"><ele>441.0</ele><time>2026-05-03T13:01:07.563Z</time></trkpt><trkpt lat="40.98268" lon="16.1655267"><ele>441.0</ele><time>2026-05-03T13:01:08.563Z</time></trkpt><trkpt lat="40.9826617" lon="16.16566"><ele>441.0</ele><time>2026-05-03T13:01:09.562Z</time></trkpt><trkpt lat="40.98267" lon="16.1657667"><ele>441.0</ele><time>2026-05-03T13:01:10.563Z</time></trkpt><trkpt lat="40.9827" lon="16.1658617"><ele>441.0</ele><time>2026-05-03T13:01:11.562Z</time></trkpt><trkpt lat="40.9827667" lon="16.1659383"><ele>441.5</ele><time>2026-05-03T13:01:12.563Z</time></trkpt><trkpt lat="40.9828283" lon="16.16599"><ele>442.0</ele><time>2026-05-03T13:01:13.562Z</time></trkpt><trkpt lat="40.9829017" lon="16.166025"><ele>442.5</ele><time>2026-05-03T13:01:14.562Z</time></trkpt><trkpt lat="40.982975" lon="16.1660467"><ele>443.0</ele><time>2026-05-03T13:01:15.562Z</time></trkpt><trkpt lat="40.9830583" lon="16.16607"><ele>443.5</ele><time>2026-05-03T13:01:16.562Z</time></trkpt><trkpt lat="40.9831467" lon="16.1660867"><ele>444.0</ele><time>2026-05-03T13:01:17.562Z</time></trkpt><trkpt lat="40.9832317" lon="16.1661017"><ele>444.0</ele><time>2026-05-03T13:01:18.562Z</time></trkpt><trkpt lat="40.9832983" lon="16.1661183"><ele>444.0</ele><time>2026-05-03T13:01:19.562Z</time></trkpt><trkpt lat="40.9833883" lon="16.1661417"><ele>444.0</ele><time>2026-05-03T13:01:21.563Z</time></trkpt><trkpt lat="40.9833217" lon="16.166135"><ele>444.0</ele><time>2026-05-03T13:08:06.563Z</time></trkpt><trkpt lat="40.9834133" lon="16.16616"><ele>444.0</ele><time>2026-05-03T13:08:52.562Z</time></trkpt><trkpt lat="40.983505" lon="16.1661917"><ele>444.0</ele><time>2026-05-03T13:08:54.563Z</time></trkpt><trkpt lat="40.98358" lon="16.1662617"><ele>444.0</ele><time>2026-05-03T13:08:56.562Z</time></trkpt><trkpt lat="40.983655" lon="16.1663817"><ele>444.0</ele><time>2026-05-03T13:08:58.563Z</time></trkpt><trkpt lat="40.9836867" lon="16.1664583"><ele>444.0</ele><time>2026-05-03T13:08:59.563Z</time></trkpt><trkpt lat="40.98371" lon="16.1665367"><ele>444.0</ele><time>2026-05-03T13:09:00.562Z</time></trkpt><trkpt lat="40.9837333" lon="16.16662"><ele>444.0</ele><time>2026-05-03T13:09:01.563Z</time></trkpt><trkpt lat="40.9837633" lon="16.1667117"><ele>444.0</ele><time>2026-05-03T13:09:02.563Z</time></trkpt><trkpt lat="40.98379" lon="16.1667917"><ele>444.8333333333333</ele><time>2026-05-03T13:09:03.563Z</time></trkpt><trkpt lat="40.9838333" lon="16.1668783"><ele>445.66666666666663</ele><time>2026-05-03T13:09:05.563Z</time></trkpt><trkpt lat="40.9838683" lon="16.1669667"><ele>446.5</ele><time>2026-05-03T13:09:09.563Z</time></trkpt><trkpt lat="40.9839033" lon="16.1670883"><ele>447.3333333333333</ele><time>2026-05-03T13:09:11.562Z</time></trkpt><trkpt lat="40.9839267" lon="16.16718"><ele>448.16666666666663</ele><time>2026-05-03T13:09:12.562Z</time></trkpt><trkpt lat="40.9839517" lon="16.16728"><ele>449.0</ele><time>2026-05-03T13:09:13.562Z</time></trkpt><trkpt lat="40.9839717" lon="16.16739"><ele>449.6</ele><time>2026-05-03T13:09:14.562Z</time></trkpt><trkpt lat="40.9839933" lon="16.16751"><ele>450.2</ele><time>2026-05-03T13:09:15.563Z</time></trkpt><trkpt lat="40.9840183" lon="16.167635"><ele>450.80000000000007</ele><time>2026-05-03T13:09:16.563Z</time></trkpt><trkpt lat="40.98404" lon="16.16776"><ele>451.40000000000003</ele><time>2026-05-03T13:09:17.563Z</time></trkpt><trkpt lat="40.984065" lon="16.167875"><ele>452.0</ele><time>2026-05-03T13:09:18.562Z</time></trkpt><trkpt lat="40.9840883" lon="16.1679917"><ele>452.0</ele><time>2026-05-03T13:09:19.563Z</time></trkpt><trkpt lat="40.9841133" lon="16.1680933"><ele>452.0</ele><time>2026-05-03T13:09:20.563Z</time></trkpt><trkpt lat="40.984135" lon="16.168195"><ele>452.0</ele><time>2026-05-03T13:09:21.562Z</time></trkpt><trkpt lat="40.98415" lon="16.1682883"><ele>452.0</ele><time>2026-05-03T13:09:22.563Z</time></trkpt><trkpt lat="40.9841717" lon="16.16838"><ele>452.0</ele><time>2026-05-03T13:09:23.562Z</time></trkpt><trkpt lat="40.9841867" lon="16.168475"><ele>452.0</ele><time>2026-05-03T13:09:24.562Z</time></trkpt><trkpt lat="40.984195" lon="16.168565"><ele>452.0</ele><time>2026-05-03T13:09:25.562Z</time></trkpt><trkpt lat="40.9842017" lon="16.168675"><ele>453.0</ele><time>2026-05-03T13:09:26.562Z</time></trkpt><trkpt lat="40.9842017" lon="16.1687833"><ele>454.00000000000006</ele><time>2026-05-03T13:09:27.562Z</time></trkpt><trkpt lat="40.9842067" lon="16.1689117"><ele>455.00000000000006</ele><time>2026-05-03T13:09:28.562Z</time></trkpt><trkpt lat="40.9842217" lon="16.1690517"><ele>456.0</ele><time>2026-05-03T13:09:29.562Z</time></trkpt><trkpt lat="40.9842383" lon="16.16919"><ele>457.0</ele><time>2026-05-03T13:09:30.563Z</time></trkpt><trkpt lat="40.98425" lon="16.1693283"><ele>457.8</ele><time>2026-05-03T13:09:31.562Z</time></trkpt><trkpt lat="40.98426" lon="16.169475"><ele>458.6</ele><time>2026-05-03T13:09:32.563Z</time></trkpt><trkpt lat="40.9842783" lon="16.1696217"><ele>459.40000000000003</ele><time>2026-05-03T13:09:33.562Z</time></trkpt><trkpt lat="40.9843" lon="16.1697617"><ele>460.20000000000005</ele><time>2026-05-03T13:09:34.562Z</time></trkpt><trkpt lat="40.9843183" lon="16.1699083"><ele>461.0</ele><time>2026-05-03T13:09:35.562Z</time></trkpt><trkpt lat="40.9843367" lon="16.1700467"><ele>461.6</ele><time>2026-05-03T13:09:36.562Z</time></trkpt><trkpt lat="40.9843533" lon="16.17019"><ele>462.20000000000005</ele><time>2026-05-03T13:09:37.562Z</time></trkpt><trkpt lat="40.98437" lon="16.17033"><ele>462.79999999999995</ele><time>2026-05-03T13:09:38.562Z</time></trkpt><trkpt lat="40.9843983" lon="16.1704683"><ele>463.4</ele><time>2026-05-03T13:09:39.562Z</time></trkpt><trkpt lat="40.98442" lon="16.170605"><ele>464.0</ele><time>2026-05-03T13:09:40.563Z</time></trkpt><trkpt lat="40.9844433" lon="16.17075"><ele>464.79999999999995</ele><time>2026-05-03T13:09:41.563Z</time></trkpt><trkpt lat="40.9844583" lon="16.1708883"><ele>465.59999999999997</ele><time>2026-05-03T13:09:42.562Z</time></trkpt><trkpt lat="40.984475" lon="16.171035"><ele>466.4</ele><time>2026-05-03T13:09:43.563Z</time></trkpt><trkpt lat="40.9844867" lon="16.1711833"><ele>467.2</ele><time>2026-05-03T13:09:44.562Z</time></trkpt><trkpt lat="40.9845083" lon="16.1713283"><ele>468.0</ele><time>2026-05-03T13:09:45.562Z</time></trkpt><trkpt lat="40.9845333" lon="16.1714633"><ele>468.2</ele><time>2026-05-03T13:09:46.562Z</time></trkpt><trkpt lat="40.984555" lon="16.1715967"><ele>468.4</ele><time>2026-05-03T13:09:47.563Z</time></trkpt><trkpt lat="40.9845783" lon="16.17173"><ele>468.59999999999997</ele><time>2026-05-03T13:09:48.562Z</time></trkpt><trkpt lat="40.9845983" lon="16.1718633"><ele>468.79999999999995</ele><time>2026-05-03T13:09:49.562Z</time></trkpt><trkpt lat="40.9846117" lon="16.1720117"><ele>469.0</ele><time>2026-05-03T13:09:50.562Z</time></trkpt><trkpt lat="40.9846217" lon="16.1721533"><ele>469.00000000000006</ele><time>2026-05-03T13:09:51.562Z</time></trkpt><trkpt lat="40.9846367" lon="16.17228"><ele>469.0</ele><time>2026-05-03T13:09:52.562Z</time></trkpt><trkpt lat="40.9846583" lon="16.1723933"><ele>469.0</ele><time>2026-05-03T13:09:53.562Z</time></trkpt><trkpt lat="40.9846783" lon="16.172515"><ele>469.0</ele><time>2026-05-03T13:09:54.562Z</time></trkpt><trkpt lat="40.9846983" lon="16.1726283"><ele>469.00000000000006</ele><time>2026-05-03T13:09:55.563Z</time></trkpt><trkpt lat="40.9847083" lon="16.1727317"><ele>469.0</ele><time>2026-05-03T13:09:56.562Z</time></trkpt><trkpt lat="40.98472" lon="16.1728167"><ele>469.6</ele><time>2026-05-03T13:09:57.562Z</time></trkpt><trkpt lat="40.984755" lon="16.172945"><ele>470.2</ele><time>2026-05-03T13:09:59.562Z</time></trkpt><trkpt lat="40.9848367" lon="16.1730467"><ele>470.80000000000007</ele><time>2026-05-03T13:10:01.562Z</time></trkpt><trkpt lat="40.9849033" lon="16.173125"><ele>471.40000000000003</ele><time>2026-05-03T13:10:03.563Z</time></trkpt><trkpt lat="40.984955" lon="16.17321"><ele>472.0</ele><time>2026-05-03T13:10:07.562Z</time></trkpt><trkpt lat="40.9850017" lon="16.173295"><ele>473.33333333333337</ele><time>2026-05-03T13:10:09.562Z</time></trkpt><trkpt lat="40.9850517" lon="16.17336"><ele>474.6666666666667</ele><time>2026-05-03T13:10:10.562Z</time></trkpt><trkpt lat="40.9851133" lon="16.1734383"><ele>476.0</ele><time>2026-05-03T13:10:11.562Z</time></trkpt><trkpt lat="40.98518" lon="16.1735183"><ele>477.33333333333337</ele><time>2026-05-03T13:10:12.562Z</time></trkpt><trkpt lat="40.9852317" lon="16.1735867"><ele>478.6666666666667</ele><time>2026-05-03T13:10:13.562Z</time></trkpt><trkpt lat="40.9852933" lon="16.173555"><ele>480.0</ele><time>2026-05-03T13:10:18.563Z</time></trkpt><trkpt lat="40.9853467" lon="16.1734617"><ele>480.0</ele><time>2026-05-03T13:10:20.563Z</time></trkpt><trkpt lat="40.9854667" lon="16.1734133"><ele>480.0</ele><time>2026-05-03T13:10:22.563Z</time></trkpt><trkpt lat="40.9855333" lon="16.1733833"><ele>480.0</ele><time>2026-05-03T13:10:23.562Z</time></trkpt><trkpt lat="40.9856067" lon="16.1733283"><ele>480.0</ele><time>2026-05-03T13:10:24.563Z</time></trkpt><trkpt lat="40.98566" lon="16.1732583"><ele>480.0</ele><time>2026-05-03T13:10:25.563Z</time></trkpt><trkpt lat="40.9856933" lon="16.1731733"><ele>480.0</ele><time>2026-05-03T13:10:26.562Z</time></trkpt><trkpt lat="40.9857233" lon="16.1730767"><ele>480.4</ele><time>2026-05-03T13:10:27.562Z</time></trkpt><trkpt lat="40.985735" lon="16.1729533"><ele>480.8</ele><time>2026-05-03T13:10:28.562Z</time></trkpt><trkpt lat="40.9857367" lon="16.1728183"><ele>481.20000000000005</ele><time>2026-05-03T13:10:29.563Z</time></trkpt><trkpt lat="40.9857217" lon="16.17267"><ele>481.6</ele><time>2026-05-03T13:10:30.563Z</time></trkpt><trkpt lat="40.9857133" lon="16.1725133"><ele>482.0</ele><time>2026-05-03T13:10:31.562Z</time></trkpt><trkpt lat="40.985705" lon="16.1723533"><ele>482.5</ele><time>2026-05-03T13:10:32.562Z</time></trkpt><trkpt lat="40.9856933" lon="16.17219"><ele>483.0</ele><time>2026-05-03T13:10:33.563Z</time></trkpt><trkpt lat="40.9856833" lon="16.1720283"><ele>483.5</ele><time>2026-05-03T13:10:34.563Z</time></trkpt><trkpt lat="40.9856767" lon="16.17187"><ele>484.0</ele><time>2026-05-03T13:10:35.562Z</time></trkpt><trkpt lat="40.9856683" lon="16.1717083"><ele>484.0</ele><time>2026-05-03T13:10:36.562Z</time></trkpt><trkpt lat="40.985675" lon="16.1715433"><ele>484.0</ele><time>2026-05-03T13:10:37.562Z</time></trkpt><trkpt lat="40.9856833" lon="16.1713833"><ele>484.0</ele><time>2026-05-03T13:10:38.562Z</time></trkpt><trkpt lat="40.9856933" lon="16.1712367"><ele>484.0</ele><time>2026-05-03T13:10:39.562Z</time></trkpt><trkpt lat="40.9857067" lon="16.1711033"><ele>483.25</ele><time>2026-05-03T13:10:40.562Z</time></trkpt><trkpt lat="40.985725" lon="16.1709633"><ele>482.5</ele><time>2026-05-03T13:10:41.563Z</time></trkpt><trkpt lat="40.9857517" lon="16.1708133"><ele>481.75</ele><time>2026-05-03T13:10:42.562Z</time></trkpt><trkpt lat="40.985785" lon="16.1706567"><ele>481.0</ele><time>2026-05-03T13:10:43.563Z</time></trkpt><trkpt lat="40.9858283" lon="16.17049"><ele>482.0</ele><time>2026-05-03T13:10:44.562Z</time></trkpt><trkpt lat="40.98588" lon="16.1703283"><ele>483.0</ele><time>2026-05-03T13:10:45.562Z</time></trkpt><trkpt lat="40.9859217" lon="16.17015"><ele>484.0</ele><time>2026-05-03T13:10:46.562Z</time></trkpt><trkpt lat="40.9859667" lon="16.1699683"><ele>485.0</ele><time>2026-05-03T13:10:47.562Z</time></trkpt><trkpt lat="40.9860167" lon="16.1697767"><ele>485.0</ele><time>2026-05-03T13:10:48.563Z</time></trkpt><trkpt lat="40.9860633" lon="16.1695917"><ele>485.0</ele><time>2026-05-03T13:10:49.563Z</time></trkpt><trkpt lat="40.98612" lon="16.169405"><ele>485.0</ele><time>2026-05-03T13:10:50.562Z</time></trkpt><trkpt lat="40.9861733" lon="16.1692067"><ele>482.3333333333333</ele><time>2026-05-03T13:10:51.562Z</time></trkpt><trkpt lat="40.9862233" lon="16.16901"><ele>479.66666666666663</ele><time>2026-05-03T13:10:52.563Z</time></trkpt><trkpt lat="40.986275" lon="16.1688067"><ele>477.0</ele><time>2026-05-03T13:10:53.562Z</time></trkpt><trkpt lat="40.9863267" lon="16.1685967"><ele>477.0</ele><time>2026-05-03T13:10:54.563Z</time></trkpt><trkpt lat="40.9863783" lon="16.1683867"><ele>477.0</ele><time>2026-05-03T13:10:55.562Z</time></trkpt><trkpt lat="40.986425" lon="16.1682017"><ele>477.0</ele><time>2026-05-03T13:10:56.562Z</time></trkpt><trkpt lat="40.986465" lon="16.1680267"><ele>476.0</ele><time>2026-05-03T13:10:57.562Z</time></trkpt><trkpt lat="40.9865067" lon="16.167865"><ele>475.0</ele><time>2026-05-03T13:10:58.562Z</time></trkpt><trkpt lat="40.9865533" lon="16.167695"><ele>474.0</ele><time>2026-05-03T13:10:59.562Z</time></trkpt><trkpt lat="40.9865983" lon="16.1675217"><ele>473.0</ele><time>2026-05-03T13:11:00.562Z</time></trkpt><trkpt lat="40.98664" lon="16.1673617"><ele>475.4</ele><time>2026-05-03T13:11:01.562Z</time></trkpt><trkpt lat="40.9866783" lon="16.1672133"><ele>477.79999999999995</ele><time>2026-05-03T13:11:02.562Z</time></trkpt><trkpt lat="40.98672" lon="16.1670933"><ele>480.2</ele><time>2026-05-03T13:11:03.562Z</time></trkpt><trkpt lat="40.9867717" lon="16.1669917"><ele>482.6</ele><time>2026-05-03T13:11:04.563Z</time></trkpt><trkpt lat="40.98683" lon="16.1668917"><ele>485.0</ele><time>2026-05-03T13:11:05.562Z</time></trkpt><trkpt lat="40.9869" lon="16.1668117"><ele>485.0</ele><time>2026-05-03T13:11:06.562Z</time></trkpt><trkpt lat="40.9869817" lon="16.166735"><ele>485.0</ele><time>2026-05-03T13:11:07.563Z</time></trkpt><trkpt lat="40.9870733" lon="16.16668"><ele>485.0</ele><time>2026-05-03T13:11:08.562Z</time></trkpt><trkpt lat="40.98717" lon="16.1666433"><ele>485.0</ele><time>2026-05-03T13:11:09.562Z</time></trkpt><trkpt lat="40.9872733" lon="16.166625"><ele>485.0</ele><time>2026-05-03T13:11:10.563Z</time></trkpt><trkpt lat="40.9873617" lon="16.1666067"><ele>484.99999999999994</ele><time>2026-05-03T13:11:11.563Z</time></trkpt><trkpt lat="40.9874417" lon="16.1665733"><ele>485.0</ele><time>2026-05-03T13:11:12.562Z</time></trkpt><trkpt lat="40.9875167" lon="16.1665367"><ele>485.0</ele><time>2026-05-03T13:11:13.562Z</time></trkpt><trkpt lat="40.987585" lon="16.1664567"><ele>485.0</ele><time>2026-05-03T13:11:14.562Z</time></trkpt><trkpt lat="40.9876217" lon="16.1663333"><ele>484.99999999999994</ele><time>2026-05-03T13:11:15.563Z</time></trkpt><trkpt lat="40.9876483" lon="16.1662167"><ele>485.0</ele><time>2026-05-03T13:11:16.563Z</time></trkpt><trkpt lat="40.9876533" lon="16.16607"><ele>486.2</ele><time>2026-05-03T13:11:17.562Z</time></trkpt><trkpt lat="40.9876533" lon="16.1659217"><ele>487.4</ele><time>2026-05-03T13:11:18.562Z</time></trkpt><trkpt lat="40.9876717" lon="16.1657717"><ele>488.6</ele><time>2026-05-03T13:11:19.562Z</time></trkpt><trkpt lat="40.9877117" lon="16.1656367"><ele>489.8</ele><time>2026-05-03T13:11:20.562Z</time></trkpt><trkpt lat="40.9877633" lon="16.1655033"><ele>491.0</ele><time>2026-05-03T13:11:21.563Z</time></trkpt><trkpt lat="40.9878267" lon="16.1653833"><ele>491.0</ele><time>2026-05-03T13:11:22.562Z</time></trkpt><trkpt lat="40.9879067" lon="16.1652917"><ele>491.0</ele><time>2026-05-03T13:11:23.562Z</time></trkpt><trkpt lat="40.988" lon="16.1652133"><ele>491.0</ele><time>2026-05-03T13:11:24.562Z</time></trkpt><trkpt lat="40.9880967" lon="16.1651533"><ele>491.0</ele><time>2026-05-03T13:11:25.563Z</time></trkpt><trkpt lat="40.9881917" lon="16.1650883"><ele>491.0</ele><time>2026-05-03T13:11:26.562Z</time></trkpt><trkpt lat="40.9882717" lon="16.165015"><ele>491.0</ele><time>2026-05-03T13:11:27.562Z</time></trkpt><trkpt lat="40.9883383" lon="16.16493"><ele>491.0</ele><time>2026-05-03T13:11:28.563Z</time></trkpt><trkpt lat="40.9883933" lon="16.16483"><ele>491.0</ele><time>2026-05-03T13:11:29.562Z</time></trkpt><trkpt lat="40.9884333" lon="16.1647"><ele>491.0</ele><time>2026-05-03T13:11:30.562Z</time></trkpt><trkpt lat="40.9884733" lon="16.164555"><ele>491.0</ele><time>2026-05-03T13:11:31.562Z</time></trkpt><trkpt lat="40.988515" lon="16.164415"><ele>492.4</ele><time>2026-05-03T13:11:32.562Z</time></trkpt><trkpt lat="40.988555" lon="16.16429"><ele>493.8</ele><time>2026-05-03T13:11:33.563Z</time></trkpt><trkpt lat="40.9885983" lon="16.164165"><ele>495.19999999999993</ele><time>2026-05-03T13:11:34.562Z</time></trkpt><trkpt lat="40.9886617" lon="16.1640383"><ele>496.59999999999997</ele><time>2026-05-03T13:11:35.563Z</time></trkpt><trkpt lat="40.9887333" lon="16.163915"><ele>498.0</ele><time>2026-05-03T13:11:36.563Z</time></trkpt><trkpt lat="40.9887917" lon="16.1638117"><ele>498.0</ele><time>2026-05-03T13:11:37.562Z</time></trkpt><trkpt lat="40.988825" lon="16.16371"><ele>497.99999999999994</ele><time>2026-05-03T13:11:38.562Z</time></trkpt><trkpt lat="40.9888483" lon="16.1635917"><ele>497.99999999999994</ele><time>2026-05-03T13:11:39.562Z</time></trkpt><trkpt lat="40.9888533" lon="16.1634667"><ele>498.0</ele><time>2026-05-03T13:11:40.562Z</time></trkpt><trkpt lat="40.98883" lon="16.1633533"><ele>498.0</ele><time>2026-05-03T13:11:41.562Z</time></trkpt><trkpt lat="40.9887933" lon="16.163235"><ele>497.1666666666667</ele><time>2026-05-03T13:11:42.563Z</time></trkpt><trkpt lat="40.988745" lon="16.1631267"><ele>496.33333333333337</ele><time>2026-05-03T13:11:43.562Z</time></trkpt><trkpt lat="40.9887167" lon="16.1630267"><ele>495.5</ele><time>2026-05-03T13:11:44.563Z</time></trkpt><trkpt lat="40.988695" lon="16.1629233"><ele>494.6666666666667</ele><time>2026-05-03T13:11:45.562Z</time></trkpt><trkpt lat="40.9886933" lon="16.1628067"><ele>493.83333333333337</ele><time>2026-05-03T13:11:46.562Z</time></trkpt><trkpt lat="40.9887083" lon="16.162675"><ele>493.0</ele><time>2026-05-03T13:11:47.562Z</time></trkpt><trkpt lat="40.98872" lon="16.1625417"><ele>493.0</ele><time>2026-05-03T13:11:48.563Z</time></trkpt><trkpt lat="40.988725" lon="16.16241"><ele>492.99999999999994</ele><time>2026-05-03T13:11:49.562Z</time></trkpt><trkpt lat="40.98871" lon="16.1622767"><ele>492.99999999999994</ele><time>2026-05-03T13:11:50.562Z</time></trkpt><trkpt lat="40.9886783" lon="16.16214"><ele>493.0</ele><time>2026-05-03T13:11:51.562Z</time></trkpt><trkpt lat="40.988645" lon="16.161995"><ele>493.0</ele><time>2026-05-03T13:11:52.562Z</time></trkpt><trkpt lat="40.988615" lon="16.16186"><ele>492.00000000000006</ele><time>2026-05-03T13:11:53.562Z</time></trkpt><trkpt lat="40.9885917" lon="16.1617433"><ele>491.0</ele><time>2026-05-03T13:11:54.562Z</time></trkpt><trkpt lat="40.988585" lon="16.1616383"><ele>490.0</ele><time>2026-05-03T13:11:55.562Z</time></trkpt><trkpt lat="40.9885933" lon="16.1615367"><ele>489.0</ele><time>2026-05-03T13:11:56.562Z</time></trkpt><trkpt lat="40.98862" lon="16.1614267"><ele>488.00000000000006</ele><time>2026-05-03T13:11:57.562Z</time></trkpt><trkpt lat="40.98865" lon="16.161315"><ele>487.0</ele><time>2026-05-03T13:11:58.562Z</time></trkpt><trkpt lat="40.9886733" lon="16.161225"><ele>485.8</ele><time>2026-05-03T13:11:59.562Z</time></trkpt><trkpt lat="40.988705" lon="16.16109"><ele>484.6</ele><time>2026-05-03T13:12:01.562Z</time></trkpt><trkpt lat="40.9887467" lon="16.1609467"><ele>483.40000000000003</ele><time>2026-05-03T13:12:10.563Z</time></trkpt><trkpt lat="40.98877" lon="16.1608433"><ele>482.20000000000005</ele><time>2026-05-03T13:12:12.562Z</time></trkpt><trkpt lat="40.9888" lon="16.160725"><ele>481.0</ele><time>2026-05-03T13:12:14.563Z</time></trkpt><trkpt lat="40.9888233" lon="16.1606383"><ele>480.0</ele><time>2026-05-03T13:12:15.562Z</time></trkpt><trkpt lat="40.9888483" lon="16.160545"><ele>479.0</ele><time>2026-05-03T13:12:16.563Z</time></trkpt><trkpt lat="40.9888833" lon="16.160435"><ele>478.0</ele><time>2026-05-03T13:12:17.562Z</time></trkpt><trkpt lat="40.9889167" lon="16.16031"><ele>477.0</ele><time>2026-05-03T13:12:18.562Z</time></trkpt><trkpt lat="40.9889517" lon="16.1601717"><ele>476.0</ele><time>2026-05-03T13:12:19.562Z</time></trkpt><trkpt lat="40.9889867" lon="16.160025"><ele>476.0</ele><time>2026-05-03T13:12:20.562Z</time></trkpt><trkpt lat="40.989025" lon="16.1598717"><ele>476.0</ele><time>2026-05-03T13:12:21.562Z</time></trkpt><trkpt lat="40.989065" lon="16.1597083"><ele>476.0</ele><time>2026-05-03T13:12:22.563Z</time></trkpt><trkpt lat="40.9891067" lon="16.159545"><ele>476.0</ele><time>2026-05-03T13:12:23.562Z</time></trkpt><trkpt lat="40.98915" lon="16.15938"><ele>479.0</ele><time>2026-05-03T13:12:24.562Z</time></trkpt><trkpt lat="40.9892" lon="16.1592283"><ele>482.0</ele><time>2026-05-03T13:12:25.562Z</time></trkpt><trkpt lat="40.9892333" lon="16.1590767"><ele>485.0</ele><time>2026-05-03T13:12:26.562Z</time></trkpt><trkpt lat="40.9892733" lon="16.15893"><ele>488.0</ele><time>2026-05-03T13:12:27.562Z</time></trkpt><trkpt lat="40.9893083" lon="16.1587817"><ele>488.0</ele><time>2026-05-03T13:12:28.562Z</time></trkpt><trkpt lat="40.9893467" lon="16.15863"><ele>488.0</ele><time>2026-05-03T13:12:29.563Z</time></trkpt><trkpt lat="40.9893833" lon="16.1584767"><ele>488.0</ele><time>2026-05-03T13:12:30.562Z</time></trkpt><trkpt lat="40.9894183" lon="16.1583233"><ele>488.0</ele><time>2026-05-03T13:12:31.562Z</time></trkpt><trkpt lat="40.9894617" lon="16.1581683"><ele>487.0</ele><time>2026-05-03T13:12:32.563Z</time></trkpt><trkpt lat="40.989505" lon="16.1580033"><ele>486.0</ele><time>2026-05-03T13:12:33.562Z</time></trkpt><trkpt lat="40.9895517" lon="16.15783"><ele>485.0</ele><time>2026-05-03T13:12:34.563Z</time></trkpt><trkpt lat="40.9896" lon="16.15767"><ele>484.0</ele><time>2026-05-03T13:12:35.562Z</time></trkpt><trkpt lat="40.9896467" lon="16.1574983"><ele>482.5</ele><time>2026-05-03T13:12:36.562Z</time></trkpt><trkpt lat="40.9896933" lon="16.1573283"><ele>481.0</ele><time>2026-05-03T13:12:37.563Z</time></trkpt><trkpt lat="40.9897383" lon="16.1571467"><ele>479.5</ele><time>2026-05-03T13:12:38.562Z</time></trkpt><trkpt lat="40.9897883" lon="16.15696"><ele>478.0</ele><time>2026-05-03T13:12:39.563Z</time></trkpt><trkpt lat="40.989835" lon="16.156785"><ele>478.0</ele><time>2026-05-03T13:12:40.562Z</time></trkpt><trkpt lat="40.98988" lon="16.156615"><ele>478.0</ele><time>2026-05-03T13:12:41.563Z</time></trkpt><trkpt lat="40.989925" lon="16.1564467"><ele>478.0</ele><time>2026-05-03T13:12:42.562Z</time></trkpt><trkpt lat="40.98997" lon="16.156275"><ele>478.0</ele><time>2026-05-03T13:12:43.562Z</time></trkpt><trkpt lat="40.99001" lon="16.1561083"><ele>480.5</ele><time>2026-05-03T13:12:44.562Z</time></trkpt><trkpt lat="40.99005" lon="16.1559533"><ele>483.0</ele><time>2026-05-03T13:12:45.563Z</time></trkpt><trkpt lat="40.9900867" lon="16.1557983"><ele>485.5</ele><time>2026-05-03T13:12:46.562Z</time></trkpt><trkpt lat="40.9901283" lon="16.1556417"><ele>488.0</ele><time>2026-05-03T13:12:47.563Z</time></trkpt><trkpt lat="40.990175" lon="16.155465"><ele>488.0</ele><time>2026-05-03T13:12:48.563Z</time></trkpt><trkpt lat="40.9902233" lon="16.155275"><ele>488.0</ele><time>2026-05-03T13:12:49.562Z</time></trkpt><trkpt lat="40.99027" lon="16.1550933"><ele>488.0</ele><time>2026-05-03T13:12:50.562Z</time></trkpt><trkpt lat="40.9903217" lon="16.1549117"><ele>488.0</ele><time>2026-05-03T13:12:51.562Z</time></trkpt><trkpt lat="40.9903683" lon="16.1547383"><ele>486.5</ele><time>2026-05-03T13:12:52.562Z</time></trkpt><trkpt lat="40.9904133" lon="16.1545667"><ele>485.0</ele><time>2026-05-03T13:12:53.562Z</time></trkpt><trkpt lat="40.99046" lon="16.1543867"><ele>483.5</ele><time>2026-05-03T13:12:54.562Z</time></trkpt><trkpt lat="40.99051" lon="16.1542017"><ele>482.0</ele><time>2026-05-03T13:12:55.562Z</time></trkpt><trkpt lat="40.9905583" lon="16.154015"><ele>480.75</ele><time>2026-05-03T13:12:56.562Z</time></trkpt><trkpt lat="40.99061" lon="16.1538367"><ele>479.5</ele><time>2026-05-03T13:12:57.562Z</time></trkpt><trkpt lat="40.99066" lon="16.153665"><ele>478.25</ele><time>2026-05-03T13:12:58.562Z</time></trkpt><trkpt lat="40.9907067" lon="16.1535067"><ele>477.0</ele><time>2026-05-03T13:12:59.563Z</time></trkpt><trkpt lat="40.99075" lon="16.15336"><ele>475.25</ele><time>2026-05-03T13:13:00.563Z</time></trkpt><trkpt lat="40.9907933" lon="16.15318"><ele>473.5</ele><time>2026-05-03T13:13:01.562Z</time></trkpt><trkpt lat="40.99084" lon="16.1529933"><ele>471.75</ele><time>2026-05-03T13:13:02.562Z</time></trkpt><trkpt lat="40.99089" lon="16.1528033"><ele>470.0</ele><time>2026-05-03T13:13:03.562Z</time></trkpt><trkpt lat="40.9909383" lon="16.152615"><ele>473.75</ele><time>2026-05-03T13:13:04.562Z</time></trkpt><trkpt lat="40.9909833" lon="16.1524333"><ele>477.5</ele><time>2026-05-03T13:13:05.562Z</time></trkpt><trkpt lat="40.9910367" lon="16.15226"><ele>481.25</ele><time>2026-05-03T13:13:06.563Z</time></trkpt><trkpt lat="40.9910883" lon="16.1520617"><ele>485.0</ele><time>2026-05-03T13:13:07.563Z</time></trkpt><trkpt lat="40.9911317" lon="16.1518717"><ele>485.0</ele><time>2026-05-03T13:13:08.563Z</time></trkpt><trkpt lat="40.991185" lon="16.1516767"><ele>485.0</ele><time>2026-05-03T13:13:09.563Z</time></trkpt><trkpt lat="40.9912417" lon="16.1514733"><ele>485.0</ele><time>2026-05-03T13:13:10.563Z</time></trkpt><trkpt lat="40.9912983" lon="16.1512667"><ele>482.75</ele><time>2026-05-03T13:13:11.562Z</time></trkpt><trkpt lat="40.99135" lon="16.1510633"><ele>480.5</ele><time>2026-05-03T13:13:12.562Z</time></trkpt><trkpt lat="40.9913933" lon="16.150875"><ele>478.25</ele><time>2026-05-03T13:13:13.562Z</time></trkpt><trkpt lat="40.9914333" lon="16.1507017"><ele>476.0</ele><time>2026-05-03T13:13:14.563Z</time></trkpt><trkpt lat="40.9914733" lon="16.1505417"><ele>474.0</ele><time>2026-05-03T13:13:15.563Z</time></trkpt><trkpt lat="40.9915133" lon="16.15039"><ele>472.0</ele><time>2026-05-03T13:13:16.562Z</time></trkpt><trkpt lat="40.9915517" lon="16.1502333"><ele>470.0</ele><time>2026-05-03T13:13:17.562Z</time></trkpt><trkpt lat="40.991595" lon="16.1500733"><ele>468.0</ele><time>2026-05-03T13:13:18.563Z</time></trkpt><trkpt lat="40.991645" lon="16.1498983"><ele>470.33333333333337</ele><time>2026-05-03T13:13:19.562Z</time></trkpt><trkpt lat="40.991695" lon="16.1497033"><ele>472.6666666666667</ele><time>2026-05-03T13:13:20.563Z</time></trkpt><trkpt lat="40.9917367" lon="16.1494883"><ele>475.0</ele><time>2026-05-03T13:13:21.562Z</time></trkpt><trkpt lat="40.9917917" lon="16.1492867"><ele>475.0</ele><time>2026-05-03T13:13:22.563Z</time></trkpt><trkpt lat="40.9918533" lon="16.1491"><ele>475.0</ele><time>2026-05-03T13:13:23.563Z</time></trkpt><trkpt lat="40.9919033" lon="16.14892"><ele>475.0</ele><time>2026-05-03T13:13:24.563Z</time></trkpt><trkpt lat="40.9919567" lon="16.1487367"><ele>475.0</ele><time>2026-05-03T13:13:25.563Z</time></trkpt><trkpt lat="40.99201" lon="16.1485417"><ele>472.75</ele><time>2026-05-03T13:13:26.563Z</time></trkpt><trkpt lat="40.99206" lon="16.1483483"><ele>470.5</ele><time>2026-05-03T13:13:27.562Z</time></trkpt><trkpt lat="40.9921167" lon="16.1481583"><ele>468.25</ele><time>2026-05-03T13:13:28.562Z</time></trkpt><trkpt lat="40.9921733" lon="16.1480017"><ele>466.0</ele><time>2026-05-03T13:13:29.562Z</time></trkpt><trkpt lat="40.9922083" lon="16.14784"><ele>464.0</ele><time>2026-05-03T13:13:30.562Z</time></trkpt><trkpt lat="40.9922483" lon="16.1476717"><ele>462.0</ele><time>2026-05-03T13:13:31.563Z</time></trkpt><trkpt lat="40.992285" lon="16.1474967"><ele>460.0</ele><time>2026-05-03T13:13:32.563Z</time></trkpt><trkpt lat="40.9923367" lon="16.1473133"><ele>458.0</ele><time>2026-05-03T13:13:33.563Z</time></trkpt><trkpt lat="40.9923833" lon="16.1471267"><ele>456.66666666666663</ele><time>2026-05-03T13:13:34.563Z</time></trkpt><trkpt lat="40.9924433" lon="16.1469267"><ele>455.33333333333337</ele><time>2026-05-03T13:13:35.562Z</time></trkpt><trkpt lat="40.9924883" lon="16.14672"><ele>454.0</ele><time>2026-05-03T13:13:36.562Z</time></trkpt><trkpt lat="40.9925467" lon="16.14651"><ele>453.33333333333337</ele><time>2026-05-03T13:13:37.563Z</time></trkpt><trkpt lat="40.992595" lon="16.1463083"><ele>452.66666666666663</ele><time>2026-05-03T13:13:38.563Z</time></trkpt><trkpt lat="40.9926467" lon="16.1461017"><ele>452.0</ele><time>2026-05-03T13:13:39.562Z</time></trkpt><trkpt lat="40.9926933" lon="16.1459117"><ele>452.0</ele><time>2026-05-03T13:13:40.563Z</time></trkpt><trkpt lat="40.9927417" lon="16.1457333"><ele>452.0</ele><time>2026-05-03T13:13:41.562Z</time></trkpt><trkpt lat="40.9927967" lon="16.1455583"><ele>452.0</ele><time>2026-05-03T13:13:42.563Z</time></trkpt><trkpt lat="40.9928433" lon="16.1453933"><ele>452.0</ele><time>2026-05-03T13:13:43.563Z</time></trkpt><trkpt lat="40.992885" lon="16.145235"><ele>450.40000000000003</ele><time>2026-05-03T13:13:44.563Z</time></trkpt><trkpt lat="40.992925" lon="16.14508"><ele>448.80000000000007</ele><time>2026-05-03T13:13:45.562Z</time></trkpt><trkpt lat="40.9929633" lon="16.1449367"><ele>447.2</ele><time>2026-05-03T13:13:46.563Z</time></trkpt><trkpt lat="40.9929917" lon="16.1448117"><ele>445.6</ele><time>2026-05-03T13:13:47.563Z</time></trkpt><trkpt lat="40.993015" lon="16.144695"><ele>444.0</ele><time>2026-05-03T13:13:48.562Z</time></trkpt><trkpt lat="40.9930433" lon="16.144595"><ele>442.5</ele><time>2026-05-03T13:13:49.562Z</time></trkpt><trkpt lat="40.9930767" lon="16.1444867"><ele>441.0</ele><time>2026-05-03T13:13:50.562Z</time></trkpt><trkpt lat="40.993105" lon="16.1443817"><ele>439.5</ele><time>2026-05-03T13:13:51.563Z</time></trkpt><trkpt lat="40.9931317" lon="16.1442833"><ele>438.0</ele><time>2026-05-03T13:13:52.562Z</time></trkpt><trkpt lat="40.9931517" lon="16.1441933"><ele>436.5</ele><time>2026-05-03T13:13:53.562Z</time></trkpt><trkpt lat="40.9931733" lon="16.1441133"><ele>435.0</ele><time>2026-05-03T13:13:54.562Z</time></trkpt><trkpt lat="40.9932517" lon="16.144005"><ele>434.4</ele><time>2026-05-03T13:13:56.562Z</time></trkpt><trkpt lat="40.9933583" lon="16.1440167"><ele>433.8</ele><time>2026-05-03T13:13:58.562Z</time></trkpt><trkpt lat="40.993455" lon="16.1441183"><ele>433.20000000000005</ele><time>2026-05-03T13:14:00.562Z</time></trkpt><trkpt lat="40.993505" lon="16.14421"><ele>432.6</ele><time>2026-05-03T13:14:01.563Z</time></trkpt><trkpt lat="40.99356" lon="16.144315"><ele>432.0</ele><time>2026-05-03T13:14:02.563Z</time></trkpt><trkpt lat="40.9936217" lon="16.14443"><ele>433.40000000000003</ele><time>2026-05-03T13:14:03.563Z</time></trkpt><trkpt lat="40.9936867" lon="16.14454"><ele>434.80000000000007</ele><time>2026-05-03T13:14:04.562Z</time></trkpt><trkpt lat="40.9937533" lon="16.1446467"><ele>436.2</ele><time>2026-05-03T13:14:05.562Z</time></trkpt><trkpt lat="40.99383" lon="16.1447617"><ele>437.6</ele><time>2026-05-03T13:14:06.562Z</time></trkpt><trkpt lat="40.9939033" lon="16.14488"><ele>439.0</ele><time>2026-05-03T13:14:07.562Z</time></trkpt><trkpt lat="40.993975" lon="16.1450017"><ele>440.6</ele><time>2026-05-03T13:14:08.563Z</time></trkpt><trkpt lat="40.9940517" lon="16.1451167"><ele>442.2</ele><time>2026-05-03T13:14:09.563Z</time></trkpt><trkpt lat="40.9941267" lon="16.1452333"><ele>443.80000000000007</ele><time>2026-05-03T13:14:10.562Z</time></trkpt><trkpt lat="40.99419" lon="16.14533"><ele>445.40000000000003</ele><time>2026-05-03T13:14:11.562Z</time></trkpt><trkpt lat="40.9942383" lon="16.1454083"><ele>447.0</ele><time>2026-05-03T13:14:12.563Z</time></trkpt><trkpt lat="40.9942967" lon="16.14547"><ele>447.5</ele><time>2026-05-03T13:14:13.562Z</time></trkpt><trkpt lat="40.9943567" lon="16.14551"><ele>448.0</ele><time>2026-05-03T13:14:14.562Z</time></trkpt><trkpt lat="40.9944283" lon="16.1455117"><ele>448.5</ele><time>2026-05-03T13:14:15.562Z</time></trkpt><trkpt lat="40.9945117" lon="16.145505"><ele>449.0</ele><time>2026-05-03T13:14:16.563Z</time></trkpt><trkpt lat="40.9946" lon="16.1454833"><ele>449.5</ele><time>2026-05-03T13:14:17.563Z</time></trkpt><trkpt lat="40.994695" lon="16.1454717"><ele>450.0</ele><time>2026-05-03T13:14:18.563Z</time></trkpt><trkpt lat="40.994795" lon="16.1454833"><ele>450.0</ele><time>2026-05-03T13:14:19.563Z</time></trkpt><trkpt lat="40.99489" lon="16.1455033"><ele>450.0</ele><time>2026-05-03T13:14:20.562Z</time></trkpt><trkpt lat="40.9949883" lon="16.1455167"><ele>450.0</ele><time>2026-05-03T13:14:21.563Z</time></trkpt><trkpt lat="40.9950967" lon="16.145515"><ele>450.0</ele><time>2026-05-03T13:14:22.563Z</time></trkpt><trkpt lat="40.9952083" lon="16.14551"><ele>450.0</ele><time>2026-05-03T13:14:23.562Z</time></trkpt><trkpt lat="40.9953283" lon="16.1454983"><ele>451.75</ele><time>2026-05-03T13:14:24.563Z</time></trkpt><trkpt lat="40.9954583" lon="16.1454833"><ele>453.5</ele><time>2026-05-03T13:14:25.562Z</time></trkpt><trkpt lat="40.9955917" lon="16.1454633"><ele>455.25</ele><time>2026-05-03T13:14:26.562Z</time></trkpt><trkpt lat="40.9957317" lon="16.1454483"><ele>457.0</ele><time>2026-05-03T13:14:27.562Z</time></trkpt><trkpt lat="40.9958617" lon="16.1454283"><ele>457.6666666666667</ele><time>2026-05-03T13:14:28.562Z</time></trkpt><trkpt lat="40.9959717" lon="16.1454083"><ele>458.33333333333337</ele><time>2026-05-03T13:14:29.562Z</time></trkpt><trkpt lat="40.9960617" lon="16.1453933"><ele>459.0</ele><time>2026-05-03T13:14:30.562Z</time></trkpt><trkpt lat="40.99614" lon="16.1453983"><ele>459.66666666666663</ele><time>2026-05-03T13:14:31.562Z</time></trkpt><trkpt lat="40.99621" lon="16.1454367"><ele>460.3333333333333</ele><time>2026-05-03T13:14:32.563Z</time></trkpt><trkpt lat="40.99627" lon="16.1454933"><ele>461.0</ele><time>2026-05-03T13:14:33.562Z</time></trkpt><trkpt lat="40.9963167" lon="16.14557"><ele>460.99999999999994</ele><time>2026-05-03T13:14:34.563Z</time></trkpt><trkpt lat="40.99634" lon="16.145655"><ele>461.0</ele><time>2026-05-03T13:14:35.562Z</time></trkpt><trkpt lat="40.9963683" lon="16.1457467"><ele>461.0</ele><time>2026-05-03T13:14:36.563Z</time></trkpt><trkpt lat="40.9963883" lon="16.145845"><ele>461.0</ele><time>2026-05-03T13:14:37.562Z</time></trkpt><trkpt lat="40.99641" lon="16.1459267"><ele>460.99999999999994</ele><time>2026-05-03T13:14:38.562Z</time></trkpt><trkpt lat="40.996425" lon="16.1460167"><ele>461.0</ele><time>2026-05-03T13:14:39.562Z</time></trkpt><trkpt lat="40.9964667" lon="16.1461483"><ele>463.16666666666663</ele><time>2026-05-03T13:14:41.563Z</time></trkpt><trkpt lat="40.99656" lon="16.1461933"><ele>465.3333333333333</ele><time>2026-05-03T13:14:43.562Z</time></trkpt><trkpt lat="40.99663" lon="16.1461983"><ele>467.5</ele><time>2026-05-03T13:14:44.563Z</time></trkpt><trkpt lat="40.9966933" lon="16.1462183"><ele>469.66666666666663</ele><time>2026-05-03T13:14:45.563Z</time></trkpt><trkpt lat="40.9967617" lon="16.146265"><ele>471.8333333333333</ele><time>2026-05-03T13:14:46.563Z</time></trkpt><trkpt lat="40.9968317" lon="16.1463133"><ele>474.0</ele><time>2026-05-03T13:14:47.562Z</time></trkpt><trkpt lat="40.9969133" lon="16.1463583"><ele>474.0</ele><time>2026-05-03T13:14:48.562Z</time></trkpt><trkpt lat="40.996995" lon="16.1463733"><ele>474.0</ele><time>2026-05-03T13:14:49.562Z</time></trkpt><trkpt lat="40.9970917" lon="16.1463767"><ele>474.0</ele><time>2026-05-03T13:14:50.563Z</time></trkpt><trkpt lat="40.9972" lon="16.14637"><ele>474.0</ele><time>2026-05-03T13:14:51.563Z</time></trkpt><trkpt lat="40.9973117" lon="16.1463683"><ele>474.0</ele><time>2026-05-03T13:14:52.563Z</time></trkpt><trkpt lat="40.9974317" lon="16.146375"><ele>474.75</ele><time>2026-05-03T13:14:53.562Z</time></trkpt><trkpt lat="40.9975417" lon="16.14637"><ele>475.5</ele><time>2026-05-03T13:14:54.562Z</time></trkpt><trkpt lat="40.9976533" lon="16.1463783"><ele>476.25</ele><time>2026-05-03T13:14:55.562Z</time></trkpt><trkpt lat="40.9977767" lon="16.14639"><ele>477.0</ele><time>2026-05-03T13:14:56.563Z</time></trkpt><trkpt lat="40.9978933" lon="16.1463917"><ele>477.0</ele><time>2026-05-03T13:14:57.562Z</time></trkpt><trkpt lat="40.9980033" lon="16.1463783"><ele>477.00000000000006</ele><time>2026-05-03T13:14:58.562Z</time></trkpt><trkpt lat="40.9981017" lon="16.1463583"><ele>477.00000000000006</ele><time>2026-05-03T13:14:59.562Z</time></trkpt><trkpt lat="40.9981917" lon="16.146315"><ele>477.0</ele><time>2026-05-03T13:15:00.562Z</time></trkpt><trkpt lat="40.9982883" lon="16.146265"><ele>477.0</ele><time>2026-05-03T13:15:01.563Z</time></trkpt><trkpt lat="40.9983833" lon="16.1462217"><ele>476.5</ele><time>2026-05-03T13:15:02.562Z</time></trkpt><trkpt lat="40.99848" lon="16.1461867"><ele>476.0</ele><time>2026-05-03T13:15:03.562Z</time></trkpt><trkpt lat="40.9986" lon="16.146175"><ele>475.5</ele><time>2026-05-03T13:15:04.563Z</time></trkpt><trkpt lat="40.9987333" lon="16.146175"><ele>475.0</ele><time>2026-05-03T13:15:05.562Z</time></trkpt><trkpt lat="40.9988683" lon="16.1461783"><ele>475.0</ele><time>2026-05-03T13:15:06.562Z</time></trkpt><trkpt lat="40.9990117" lon="16.146175"><ele>475.0</ele><time>2026-05-03T13:15:07.562Z</time></trkpt><trkpt lat="40.9991583" lon="16.1461767"><ele>475.0</ele><time>2026-05-03T13:15:08.563Z</time></trkpt><trkpt lat="40.9993167" lon="16.1461833"><ele>475.0</ele><time>2026-05-03T13:15:09.562Z</time></trkpt><trkpt lat="40.9994733" lon="16.1461983"><ele>475.75</ele><time>2026-05-03T13:15:10.562Z</time></trkpt><trkpt lat="40.9996267" lon="16.1461933"><ele>476.5</ele><time>2026-05-03T13:15:11.563Z</time></trkpt><trkpt lat="40.9997717" lon="16.146185"><ele>477.25</ele><time>2026-05-03T13:15:12.562Z</time></trkpt><trkpt lat="40.9998983" lon="16.14619"><ele>478.0</ele><time>2026-05-03T13:15:13.563Z</time></trkpt><trkpt lat="41.000015" lon="16.1461833"><ele>478.0</ele><time>2026-05-03T13:15:14.562Z</time></trkpt><trkpt lat="41.00013" lon="16.14618"><ele>478.0</ele><time>2026-05-03T13:15:15.562Z</time></trkpt><trkpt lat="41.0002517" lon="16.1461867"><ele>478.0</ele><time>2026-05-03T13:15:16.562Z</time></trkpt><trkpt lat="41.0003833" lon="16.14618"><ele>478.0</ele><time>2026-05-03T13:15:17.562Z</time></trkpt><trkpt lat="41.0005167" lon="16.1461667"><ele>478.0</ele><time>2026-05-03T13:15:18.562Z</time></trkpt><trkpt lat="41.0006333" lon="16.1461667"><ele>477.99999999999994</ele><time>2026-05-03T13:15:19.562Z</time></trkpt><trkpt lat="41.0007367" lon="16.146175"><ele>477.99999999999994</ele><time>2026-05-03T13:15:20.562Z</time></trkpt><trkpt lat="41.0008217" lon="16.1461817"><ele>478.0</ele><time>2026-05-03T13:15:21.562Z</time></trkpt><trkpt lat="41.00089" lon="16.1461867"><ele>478.0</ele><time>2026-05-03T13:15:22.562Z</time></trkpt><trkpt lat="41.0009917" lon="16.1461983"><ele>477.33333333333337</ele><time>2026-05-03T13:15:24.562Z</time></trkpt><trkpt lat="41.0009983" lon="16.1460783"><ele>476.6666666666667</ele><time>2026-05-03T13:15:58.562Z</time></trkpt><trkpt lat="41.000965" lon="16.1459617"><ele>476.0</ele><time>2026-05-03T13:16:01.562Z</time></trkpt><trkpt lat="41.0009333" lon="16.1458717"><ele>475.33333333333337</ele><time>2026-05-03T13:16:03.562Z</time></trkpt><trkpt lat="41.0008967" lon="16.1457833"><ele>474.6666666666667</ele><time>2026-05-03T13:16:05.562Z</time></trkpt><trkpt lat="41.0008683" lon="16.14567"><ele>474.0</ele><time>2026-05-03T13:16:07.562Z</time></trkpt><trkpt lat="41.00085" lon="16.1455533"><ele>474.0</ele><time>2026-05-03T13:16:09.562Z</time></trkpt><trkpt lat="41.0008567" lon="16.1454183"><ele>474.0</ele><time>2026-05-03T13:16:11.562Z</time></trkpt><trkpt lat="41.0008967" lon="16.1453517"><ele>474.0</ele><time>2026-05-03T13:16:12.562Z</time></trkpt><trkpt lat="41.00096" lon="16.145295"><ele>474.0</ele><time>2026-05-03T13:16:13.563Z</time></trkpt><trkpt lat="41.001045" lon="16.1452383"><ele>474.0</ele><time>2026-05-03T13:16:14.562Z</time></trkpt><trkpt lat="41.00113" lon="16.145195"><ele>474.0</ele><time>2026-05-03T13:16:15.562Z</time></trkpt><trkpt lat="41.0012383" lon="16.1451467"><ele>474.0</ele><time>2026-05-03T13:16:16.562Z</time></trkpt><trkpt lat="41.0013467" lon="16.1450883"><ele>474.0</ele><time>2026-05-03T13:16:17.562Z</time></trkpt><trkpt lat="41.001435" lon="16.1450167"><ele>474.0</ele><time>2026-05-03T13:16:18.562Z</time></trkpt><trkpt lat="41.001515" lon="16.1449433"><ele>474.0</ele><time>2026-05-03T13:16:19.562Z</time></trkpt><trkpt lat="41.0015867" lon="16.144895"><ele>474.0</ele><time>2026-05-03T13:16:20.563Z</time></trkpt><trkpt lat="41.0016583" lon="16.1448317"><ele>472.0</ele><time>2026-05-03T13:16:21.563Z</time></trkpt><trkpt lat="41.00173" lon="16.1447717"><ele>470.0</ele><time>2026-05-03T13:16:22.563Z</time></trkpt><trkpt lat="41.0018167" lon="16.1447083"><ele>468.0</ele><time>2026-05-03T13:16:23.562Z</time></trkpt><trkpt lat="41.0019117" lon="16.1446467"><ele>466.0</ele><time>2026-05-03T13:16:24.562Z</time></trkpt><trkpt lat="41.0020167" lon="16.1445867"><ele>464.0</ele><time>2026-05-03T13:16:25.562Z</time></trkpt><trkpt lat="41.0021267" lon="16.1445183"><ele>464.0</ele><time>2026-05-03T13:16:26.562Z</time></trkpt><trkpt lat="41.0022467" lon="16.1444467"><ele>464.0</ele><time>2026-05-03T13:16:27.562Z</time></trkpt><trkpt lat="41.0023717" lon="16.1443783"><ele>464.0</ele><time>2026-05-03T13:16:28.562Z</time></trkpt><trkpt lat="41.0025" lon="16.14431"><ele>464.0</ele><time>2026-05-03T13:16:29.563Z</time></trkpt><trkpt lat="41.0026283" lon="16.14424"><ele>464.75</ele><time>2026-05-03T13:16:30.562Z</time></trkpt><trkpt lat="41.002765" lon="16.1441733"><ele>465.5</ele><time>2026-05-03T13:16:31.562Z</time></trkpt><trkpt lat="41.0029033" lon="16.1440967"><ele>466.25</ele><time>2026-05-03T13:16:32.562Z</time></trkpt><trkpt lat="41.0030417" lon="16.1440267"><ele>467.0</ele><time>2026-05-03T13:16:33.563Z</time></trkpt><trkpt lat="41.0031867" lon="16.143955"><ele>464.75</ele><time>2026-05-03T13:16:34.563Z</time></trkpt><trkpt lat="41.0033233" lon="16.143875"><ele>462.5</ele><time>2026-05-03T13:16:35.563Z</time></trkpt><trkpt lat="41.0034617" lon="16.1438"><ele>460.25</ele><time>2026-05-03T13:16:36.562Z</time></trkpt><trkpt lat="41.0036017" lon="16.1437283"><ele>458.0</ele><time>2026-05-03T13:16:37.563Z</time></trkpt><trkpt lat="41.0037417" lon="16.1436517"><ele>458.0</ele><time>2026-05-03T13:16:38.562Z</time></trkpt><trkpt lat="41.0038783" lon="16.1435783"><ele>458.0</ele><time>2026-05-03T13:16:39.563Z</time></trkpt><trkpt lat="41.0040017" lon="16.1435217"><ele>458.0</ele><time>2026-05-03T13:16:40.562Z</time></trkpt><trkpt lat="41.0041183" lon="16.14347"><ele>458.0</ele><time>2026-05-03T13:16:41.562Z</time></trkpt><trkpt lat="41.00424" lon="16.1434183"><ele>460.0</ele><time>2026-05-03T13:16:42.562Z</time></trkpt><trkpt lat="41.0043633" lon="16.14337"><ele>462.0</ele><time>2026-05-03T13:16:43.562Z</time></trkpt><trkpt lat="41.00449" lon="16.1433333"><ele>464.0</ele><time>2026-05-03T13:16:44.563Z</time></trkpt><trkpt lat="41.0046033" lon="16.14331"><ele>466.0</ele><time>2026-05-03T13:16:45.562Z</time></trkpt><trkpt lat="41.0047067" lon="16.14327"><ele>466.0</ele><time>2026-05-03T13:16:46.562Z</time></trkpt><trkpt lat="41.0048033" lon="16.1432283"><ele>466.0</ele><time>2026-05-03T13:16:47.562Z</time></trkpt><trkpt lat="41.0048917" lon="16.14316"><ele>466.0</ele><time>2026-05-03T13:16:48.562Z</time></trkpt><trkpt lat="41.0049733" lon="16.1430767"><ele>466.0</ele><time>2026-05-03T13:16:49.562Z</time></trkpt><trkpt lat="41.005055" lon="16.1429683"><ele>466.0</ele><time>2026-05-03T13:16:50.563Z</time></trkpt><trkpt lat="41.0051367" lon="16.1428467"><ele>464.5</ele><time>2026-05-03T13:16:51.562Z</time></trkpt><trkpt lat="41.0052233" lon="16.1427333"><ele>463.0</ele><time>2026-05-03T13:16:52.563Z</time></trkpt><trkpt lat="41.0053217" lon="16.1426283"><ele>461.5</ele><time>2026-05-03T13:16:53.562Z</time></trkpt><trkpt lat="41.00543" lon="16.1425233"><ele>460.0</ele><time>2026-05-03T13:16:54.562Z</time></trkpt><trkpt lat="41.0055467" lon="16.1424083"><ele>458.6666666666667</ele><time>2026-05-03T13:16:55.562Z</time></trkpt><trkpt lat="41.00567" lon="16.1422983"><ele>457.33333333333337</ele><time>2026-05-03T13:16:56.563Z</time></trkpt><trkpt lat="41.0058" lon="16.1421833"><ele>456.0</ele><time>2026-05-03T13:16:57.562Z</time></trkpt><trkpt lat="41.00593" lon="16.1420667"><ele>456.0</ele><time>2026-05-03T13:16:58.562Z</time></trkpt><trkpt lat="41.0060717" lon="16.1419417"><ele>456.0</ele><time>2026-05-03T13:16:59.563Z</time></trkpt><trkpt lat="41.0062117" lon="16.1418183"><ele>456.0</ele><time>2026-05-03T13:17:00.563Z</time></trkpt><trkpt lat="41.006335" lon="16.1417067"><ele>456.0</ele><time>2026-05-03T13:17:01.562Z</time></trkpt><trkpt lat="41.006435" lon="16.141595"><ele>456.0</ele><time>2026-05-03T13:17:02.562Z</time></trkpt><trkpt lat="41.0065217" lon="16.1415033"><ele>456.0</ele><time>2026-05-03T13:17:03.563Z</time></trkpt><trkpt lat="41.0065933" lon="16.1414267"><ele>456.0</ele><time>2026-05-03T13:17:04.562Z</time></trkpt><trkpt lat="41.00666" lon="16.141365"><ele>456.0</ele><time>2026-05-03T13:17:05.562Z</time></trkpt><trkpt lat="41.00673" lon="16.1413333"><ele>456.0</ele><time>2026-05-03T13:17:06.562Z</time></trkpt><trkpt lat="41.0068017" lon="16.141325"><ele>456.0</ele><time>2026-05-03T13:17:07.563Z</time></trkpt><trkpt lat="41.006885" lon="16.141345"><ele>456.0</ele><time>2026-05-03T13:17:08.562Z</time></trkpt><trkpt lat="41.0069767" lon="16.1413767"><ele>456.0</ele><time>2026-05-03T13:17:09.562Z</time></trkpt><trkpt lat="41.0070783" lon="16.1414067"><ele>456.0</ele><time>2026-05-03T13:17:10.562Z</time></trkpt><trkpt lat="41.0071867" lon="16.1414433"><ele>456.0</ele><time>2026-05-03T13:17:11.562Z</time></trkpt><trkpt lat="41.007295" lon="16.1414767"><ele>456.0</ele><time>2026-05-03T13:17:12.562Z</time></trkpt><trkpt lat="41.0074117" lon="16.1415133"><ele>456.0</ele><time>2026-05-03T13:17:13.562Z</time></trkpt><trkpt lat="41.0075217" lon="16.1415533"><ele>456.0</ele><time>2026-05-03T13:17:14.563Z</time></trkpt><trkpt lat="41.00762" lon="16.1415933"><ele>456.0</ele><time>2026-05-03T13:17:15.562Z</time></trkpt><trkpt lat="41.0076967" lon="16.1416267"><ele>458.5</ele><time>2026-05-03T13:17:16.563Z</time></trkpt><trkpt lat="41.0077683" lon="16.1416517"><ele>461.0</ele><time>2026-05-03T13:17:17.562Z</time></trkpt><trkpt lat="41.0078333" lon="16.1417233"><ele>463.5</ele><time>2026-05-03T13:17:19.563Z</time></trkpt><trkpt lat="41.00789" lon="16.1418067"><ele>466.0</ele><time>2026-05-03T13:17:22.562Z</time></trkpt><trkpt lat="41.0079183" lon="16.1419"><ele>468.5</ele><time>2026-05-03T13:17:24.563Z</time></trkpt><trkpt lat="41.00792" lon="16.14203"><ele>471.0</ele><time>2026-05-03T13:17:26.562Z</time></trkpt><trkpt lat="41.00795" lon="16.142115"><ele>471.0</ele><time>2026-05-03T13:17:28.563Z</time></trkpt><trkpt lat="41.007935" lon="16.142"><ele>471.0</ele><time>2026-05-03T13:17:40.562Z</time></trkpt><trkpt lat="41.0078983" lon="16.1418983"><ele>471.0</ele><time>2026-05-03T13:17:42.563Z</time></trkpt><trkpt lat="41.0078567" lon="16.1417717"><ele>471.0</ele><time>2026-05-03T13:17:44.563Z</time></trkpt><trkpt lat="41.00778" lon="16.1416617"><ele>471.0</ele><time>2026-05-03T13:17:46.562Z</time></trkpt><trkpt lat="41.0076883" lon="16.1416117"><ele>471.0</ele><time>2026-05-03T13:17:48.563Z</time></trkpt><trkpt lat="41.00757" lon="16.1415867"><ele>471.0</ele><time>2026-05-03T13:17:50.562Z</time></trkpt><trkpt lat="41.00745" lon="16.14153"><ele>471.0</ele><time>2026-05-03T13:17:52.563Z</time></trkpt><trkpt lat="41.0073717" lon="16.141505"><ele>471.0</ele><time>2026-05-03T13:17:53.562Z</time></trkpt><trkpt lat="41.00729" lon="16.141475"><ele>471.0</ele><time>2026-05-03T13:17:54.562Z</time></trkpt><trkpt lat="41.0072117" lon="16.1414467"><ele>468.5</ele><time>2026-05-03T13:17:55.562Z</time></trkpt><trkpt lat="41.0071333" lon="16.141415"><ele>466.0</ele><time>2026-05-03T13:17:56.562Z</time></trkpt><trkpt lat="41.0070583" lon="16.1413933"><ele>463.5</ele><time>2026-05-03T13:17:57.562Z</time></trkpt><trkpt lat="41.0069783" lon="16.14137"><ele>461.0</ele><time>2026-05-03T13:17:58.562Z</time></trkpt><trkpt lat="41.0069017" lon="16.1413433"><ele>458.5</ele><time>2026-05-03T13:17:59.562Z</time></trkpt><trkpt lat="41.0068367" lon="16.1413317"><ele>456.0</ele><time>2026-05-03T13:18:00.562Z</time></trkpt><trkpt lat="41.0067283" lon="16.1413217"><ele>456.0</ele><time>2026-05-03T13:18:02.562Z</time></trkpt><trkpt lat="41.0066133" lon="16.14136"><ele>456.0</ele><time>2026-05-03T13:18:04.562Z</time></trkpt><trkpt lat="41.00653" lon="16.1414533"><ele>456.0</ele><time>2026-05-03T13:18:06.562Z</time></trkpt><trkpt lat="41.0064633" lon="16.1415317"><ele>456.0</ele><time>2026-05-03T13:18:08.562Z</time></trkpt><trkpt lat="41.006375" lon="16.1416317"><ele>456.0</ele><time>2026-05-03T13:18:10.562Z</time></trkpt><trkpt lat="41.0063133" lon="16.1417"><ele>456.0</ele><time>2026-05-03T13:18:11.563Z</time></trkpt><trkpt lat="41.00624" lon="16.14177"><ele>456.0</ele><time>2026-05-03T13:18:12.563Z</time></trkpt><trkpt lat="41.0061583" lon="16.14185"><ele>456.0</ele><time>2026-05-03T13:18:13.563Z</time></trkpt><trkpt lat="41.00607" lon="16.1419267"><ele>456.0</ele><time>2026-05-03T13:18:14.562Z</time></trkpt><trkpt lat="41.0059817" lon="16.1420133"><ele>456.0</ele><time>2026-05-03T13:18:15.562Z</time></trkpt><trkpt lat="41.0058883" lon="16.1421017"><ele>457.0</ele><time>2026-05-03T13:18:16.563Z</time></trkpt><trkpt lat="41.0057933" lon="16.1421867"><ele>458.0</ele><time>2026-05-03T13:18:17.562Z</time></trkpt><trkpt lat="41.0056933" lon="16.142265"><ele>459.0</ele><time>2026-05-03T13:18:18.562Z</time></trkpt><trkpt lat="41.0055933" lon="16.142355"><ele>460.0</ele><time>2026-05-03T13:18:19.563Z</time></trkpt><trkpt lat="41.0055017" lon="16.1424383"><ele>460.0</ele><time>2026-05-03T13:18:20.563Z</time></trkpt><trkpt lat="41.0054033" lon="16.1425267"><ele>460.0</ele><time>2026-05-03T13:18:21.562Z</time></trkpt><trkpt lat="41.0053133" lon="16.1426067"><ele>460.0</ele><time>2026-05-03T13:18:22.562Z</time></trkpt><trkpt lat="41.0052417" lon="16.1426767"><ele>460.0</ele><time>2026-05-03T13:18:23.562Z</time></trkpt><trkpt lat="41.005175" lon="16.1427467"><ele>460.0</ele><time>2026-05-03T13:18:24.563Z</time></trkpt><trkpt lat="41.005115" lon="16.14282"><ele>460.00000000000006</ele><time>2026-05-03T13:18:25.562Z</time></trkpt><trkpt lat="41.0050617" lon="16.1429033"><ele>460.0</ele><time>2026-05-03T13:18:26.562Z</time></trkpt><trkpt lat="41.0050117" lon="16.1429883"><ele>460.0</ele><time>2026-05-03T13:18:27.562Z</time></trkpt><trkpt lat="41.004945" lon="16.1430667"><ele>460.0</ele><time>2026-05-03T13:18:28.562Z</time></trkpt><trkpt lat="41.004875" lon="16.1431333"><ele>460.00000000000006</ele><time>2026-05-03T13:18:29.563Z</time></trkpt><trkpt lat="41.0048017" lon="16.143195"><ele>460.0</ele><time>2026-05-03T13:18:30.562Z</time></trkpt><trkpt lat="41.0047333" lon="16.143245"><ele>461.2</ele><time>2026-05-03T13:18:31.563Z</time></trkpt><trkpt lat="41.0046533" lon="16.1432817"><ele>462.4</ele><time>2026-05-03T13:18:32.562Z</time></trkpt><trkpt lat="41.0045583" lon="16.1433083"><ele>463.6</ele><time>2026-05-03T13:18:33.563Z</time></trkpt><trkpt lat="41.0044617" lon="16.1433433"><ele>464.8</ele><time>2026-05-03T13:18:34.562Z</time></trkpt><trkpt lat="41.0043533" lon="16.1433783"><ele>466.0</ele><time>2026-05-03T13:18:35.562Z</time></trkpt><trkpt lat="41.004245" lon="16.1434117"><ele>464.4</ele><time>2026-05-03T13:18:36.562Z</time></trkpt><trkpt lat="41.0041483" lon="16.143445"><ele>462.8</ele><time>2026-05-03T13:18:37.563Z</time></trkpt><trkpt lat="41.0040667" lon="16.1434767"><ele>461.19999999999993</ele><time>2026-05-03T13:18:38.562Z</time></trkpt><trkpt lat="41.0039933" lon="16.1435133"><ele>459.59999999999997</ele><time>2026-05-03T13:18:39.562Z</time></trkpt><trkpt lat="41.003905" lon="16.1435567"><ele>458.0</ele><time>2026-05-03T13:18:40.563Z</time></trkpt><trkpt lat="41.0038083" lon="16.14361"><ele>458.0</ele><time>2026-05-03T13:18:41.562Z</time></trkpt><trkpt lat="41.0036967" lon="16.1436617"><ele>458.0</ele><time>2026-05-03T13:18:42.562Z</time></trkpt><trkpt lat="41.0035783" lon="16.1437267"><ele>458.0</ele><time>2026-05-03T13:18:43.563Z</time></trkpt><trkpt lat="41.0034617" lon="16.1437867"><ele>458.0</ele><time>2026-05-03T13:18:44.562Z</time></trkpt><trkpt lat="41.003345" lon="16.143845"><ele>457.25</ele><time>2026-05-03T13:18:45.563Z</time></trkpt><trkpt lat="41.0032283" lon="16.143905"><ele>456.5</ele><time>2026-05-03T13:18:46.563Z</time></trkpt><trkpt lat="41.0031233" lon="16.14396"><ele>455.75</ele><time>2026-05-03T13:18:47.562Z</time></trkpt><trkpt lat="41.003015" lon="16.1440283"><ele>455.0</ele><time>2026-05-03T13:18:48.562Z</time></trkpt><trkpt lat="41.0029083" lon="16.1440833"><ele>456.8</ele><time>2026-05-03T13:18:49.562Z</time></trkpt><trkpt lat="41.0028033" lon="16.14414"><ele>458.6</ele><time>2026-05-03T13:18:50.563Z</time></trkpt><trkpt lat="41.00271" lon="16.1441817"><ele>460.4</ele><time>2026-05-03T13:18:51.562Z</time></trkpt><trkpt lat="41.002635" lon="16.14422"><ele>462.2</ele><time>2026-05-03T13:18:52.563Z</time></trkpt><trkpt lat="41.0025567" lon="16.144265"><ele>464.0</ele><time>2026-05-03T13:18:53.562Z</time></trkpt><trkpt lat="41.00248" lon="16.14431"><ele>463.99999999999994</ele><time>2026-05-03T13:18:54.562Z</time></trkpt><trkpt lat="41.00241" lon="16.1443483"><ele>464.0</ele><time>2026-05-03T13:18:55.562Z</time></trkpt><trkpt lat="41.0023067" lon="16.144405"><ele>464.0</ele><time>2026-05-03T13:18:57.562Z</time></trkpt><trkpt lat="41.002225" lon="16.14445"><ele>464.0</ele><time>2026-05-03T13:18:59.562Z</time></trkpt><trkpt lat="41.002155" lon="16.144485"><ele>463.99999999999994</ele><time>2026-05-03T13:19:01.562Z</time></trkpt><trkpt lat="41.0020833" lon="16.1445283"><ele>464.0</ele><time>2026-05-03T13:19:03.562Z</time></trkpt><trkpt lat="41.0020067" lon="16.144585"><ele>464.0</ele><time>2026-05-03T13:19:05.562Z</time></trkpt><trkpt lat="41.0019383" lon="16.1446167"><ele>464.0</ele><time>2026-05-03T13:19:07.563Z</time></trkpt><trkpt lat="41.00185" lon="16.14467"><ele>464.0</ele><time>2026-05-03T13:19:17.563Z</time></trkpt><trkpt lat="41.001755" lon="16.1447233"><ele>464.0</ele><time>2026-05-03T13:19:19.563Z</time></trkpt><trkpt lat="41.0016567" lon="16.1448017"><ele>464.0</ele><time>2026-05-03T13:19:21.563Z</time></trkpt><trkpt lat="41.0015967" lon="16.144865"><ele>465.66666666666663</ele><time>2026-05-03T13:19:23.562Z</time></trkpt><trkpt lat="41.0016" lon="16.144965"><ele>467.3333333333333</ele><time>2026-05-03T13:19:26.562Z</time></trkpt><trkpt lat="41.0016533" lon="16.1450833"><ele>469.0</ele><time>2026-05-03T13:19:28.563Z</time></trkpt><trkpt lat="41.0016817" lon="16.1451633"><ele>470.66666666666663</ele><time>2026-05-03T13:19:29.562Z</time></trkpt><trkpt lat="41.001705" lon="16.1452483"><ele>472.3333333333333</ele><time>2026-05-03T13:19:30.562Z</time></trkpt><trkpt lat="41.0017267" lon="16.145345"><ele>474.0</ele><time>2026-05-03T13:19:31.562Z</time></trkpt><trkpt lat="41.0017467" lon="16.1454483"><ele>474.3333333333333</ele><time>2026-05-03T13:19:32.563Z</time></trkpt><trkpt lat="41.00177" lon="16.1455633"><ele>474.66666666666663</ele><time>2026-05-03T13:19:33.563Z</time></trkpt><trkpt lat="41.0017983" lon="16.145665"><ele>475.0</ele><time>2026-05-03T13:19:34.562Z</time></trkpt><trkpt lat="41.0018217" lon="16.145765"><ele>475.3333333333333</ele><time>2026-05-03T13:19:35.562Z</time></trkpt><trkpt lat="41.0018417" lon="16.14587"><ele>475.66666666666663</ele><time>2026-05-03T13:19:36.562Z</time></trkpt><trkpt lat="41.001865" lon="16.1459783"><ele>476.0</ele><time>2026-05-03T13:19:37.562Z</time></trkpt><trkpt lat="41.0018883" lon="16.14607"><ele>477.8</ele><time>2026-05-03T13:19:38.562Z</time></trkpt><trkpt lat="41.0019467" lon="16.1462"><ele>479.6</ele><time>2026-05-03T13:19:40.562Z</time></trkpt><trkpt lat="41.0020667" lon="16.1462617"><ele>481.4</ele><time>2026-05-03T13:19:42.562Z</time></trkpt><trkpt lat="41.00215" lon="16.1462767"><ele>483.2</ele><time>2026-05-03T13:19:43.562Z</time></trkpt><trkpt lat="41.002235" lon="16.1462917"><ele>485.0</ele><time>2026-05-03T13:19:44.562Z</time></trkpt><trkpt lat="41.00233" lon="16.1463167"><ele>484.99999999999994</ele><time>2026-05-03T13:19:45.563Z</time></trkpt><trkpt lat="41.0024133" lon="16.1463267"><ele>485.0</ele><time>2026-05-03T13:19:46.563Z</time></trkpt><trkpt lat="41.0025" lon="16.1463433"><ele>485.0</ele><time>2026-05-03T13:19:47.562Z</time></trkpt><trkpt lat="41.0025933" lon="16.1463433"><ele>485.0</ele><time>2026-05-03T13:19:48.563Z</time></trkpt><trkpt lat="41.002685" lon="16.14636"><ele>484.99999999999994</ele><time>2026-05-03T13:19:49.563Z</time></trkpt><trkpt lat="41.0027617" lon="16.1463683"><ele>485.0</ele><time>2026-05-03T13:19:50.562Z</time></trkpt><trkpt lat="41.0028383" lon="16.1463867"><ele>486.66666666666663</ele><time>2026-05-03T13:19:51.563Z</time></trkpt><trkpt lat="41.0029033" lon="16.1464083"><ele>488.3333333333333</ele><time>2026-05-03T13:19:52.562Z</time></trkpt><trkpt lat="41.0029683" lon="16.1464333"><ele>490.0</ele><time>2026-05-03T13:19:53.562Z</time></trkpt><trkpt lat="41.0030367" lon="16.14646"><ele>491.66666666666663</ele><time>2026-05-03T13:19:54.562Z</time></trkpt><trkpt lat="41.0031283" lon="16.1465017"><ele>493.3333333333333</ele><time>2026-05-03T13:19:55.562Z</time></trkpt><trkpt lat="41.0032083" lon="16.1465283"><ele>495.0</ele><time>2026-05-03T13:19:56.562Z</time></trkpt><trkpt lat="41.0032867" lon="16.1465483"><ele>496.8333333333333</ele><time>2026-05-03T13:19:57.563Z</time></trkpt><trkpt lat="41.0033683" lon="16.146555"><ele>498.66666666666663</ele><time>2026-05-03T13:19:58.563Z</time></trkpt><trkpt lat="41.0034517" lon="16.146555"><ele>500.5</ele><time>2026-05-03T13:19:59.562Z</time></trkpt><trkpt lat="41.00353" lon="16.1465433"><ele>502.3333333333333</ele><time>2026-05-03T13:20:00.562Z</time></trkpt><trkpt lat="41.0036167" lon="16.1465233"><ele>504.16666666666663</ele><time>2026-05-03T13:20:01.562Z</time></trkpt><trkpt lat="41.0037033" lon="16.1464967"><ele>506.0</ele><time>2026-05-03T13:20:02.563Z</time></trkpt><trkpt lat="41.0038017" lon="16.14647"><ele>506.0</ele><time>2026-05-03T13:20:03.562Z</time></trkpt><trkpt lat="41.0038917" lon="16.1464233"><ele>506.0</ele><time>2026-05-03T13:20:04.562Z</time></trkpt><trkpt lat="41.0039767" lon="16.1463867"><ele>506.0</ele><time>2026-05-03T13:20:05.562Z</time></trkpt><trkpt lat="41.0040683" lon="16.1463417"><ele>506.0</ele><time>2026-05-03T13:20:06.563Z</time></trkpt><trkpt lat="41.00417" lon="16.1462967"><ele>506.0</ele><time>2026-05-03T13:20:07.562Z</time></trkpt><trkpt lat="41.004265" lon="16.1462517"><ele>510.25</ele><time>2026-05-03T13:20:08.562Z</time></trkpt><trkpt lat="41.0043733" lon="16.1462183"><ele>514.5</ele><time>2026-05-03T13:20:09.562Z</time></trkpt><trkpt lat="41.004485" lon="16.146185"><ele>518.75</ele><time>2026-05-03T13:20:10.562Z</time></trkpt><trkpt lat="41.004595" lon="16.14614"><ele>523.0</ele><time>2026-05-03T13:20:11.562Z</time></trkpt><trkpt lat="41.0047017" lon="16.146105"><ele>523.0</ele><time>2026-05-03T13:20:12.563Z</time></trkpt><trkpt lat="41.0048133" lon="16.1460933"><ele>523.0</ele><time>2026-05-03T13:20:13.563Z</time></trkpt><trkpt lat="41.0049117" lon="16.14608"><ele>523.0</ele><time>2026-05-03T13:20:14.562Z</time></trkpt><trkpt lat="41.00503" lon="16.1460433"><ele>523.0</ele><time>2026-05-03T13:20:15.563Z</time></trkpt><trkpt lat="41.005125" lon="16.146005"><ele>523.0</ele><time>2026-05-03T13:20:16.562Z</time></trkpt><trkpt lat="41.0052417" lon="16.146015"><ele>526.0</ele><time>2026-05-03T13:20:17.562Z</time></trkpt><trkpt lat="41.00533" lon="16.145975"><ele>529.0</ele><time>2026-05-03T13:20:18.562Z</time></trkpt><trkpt lat="41.0054317" lon="16.14593"><ele>532.0</ele><time>2026-05-03T13:20:19.563Z</time></trkpt><trkpt lat="41.0055333" lon="16.1458983"><ele>535.0</ele><time>2026-05-03T13:20:20.562Z</time></trkpt><trkpt lat="41.005615" lon="16.145875"><ele>538.0</ele><time>2026-05-03T13:20:21.562Z</time></trkpt><trkpt lat="41.0056783" lon="16.145845"><ele>538.0</ele><time>2026-05-03T13:20:22.562Z</time></trkpt><trkpt lat="41.0057933" lon="16.1458467"><ele>538.0</ele><time>2026-05-03T13:20:25.562Z</time></trkpt><trkpt lat="41.005795" lon="16.14595"><ele>538.0</ele><time>2026-05-03T13:20:27.562Z</time></trkpt><trkpt lat="41.0057133" lon="16.1460517"><ele>538.0</ele><time>2026-05-03T13:20:29.563Z</time></trkpt><trkpt lat="41.00566" lon="16.1461167"><ele>538.0</ele><time>2026-05-03T13:20:30.563Z</time></trkpt><trkpt lat="41.0055983" lon="16.14623"><ele>538.0</ele><time>2026-05-03T13:20:32.562Z</time></trkpt><trkpt lat="41.0056333" lon="16.1463383"><ele>538.0</ele><time>2026-05-03T13:20:35.562Z</time></trkpt><trkpt lat="41.0057083" lon="16.146365"><ele>538.0</ele><time>2026-05-03T13:20:37.562Z</time></trkpt><trkpt lat="41.0058133" lon="16.1463367"><ele>538.0</ele><time>2026-05-03T13:20:39.562Z</time></trkpt><trkpt lat="41.0058867" lon="16.1463317"><ele>538.0</ele><time>2026-05-03T13:20:40.562Z</time></trkpt><trkpt lat="41.0059533" lon="16.1463083"><ele>538.0</ele><time>2026-05-03T13:20:41.563Z</time></trkpt><trkpt lat="41.0060267" lon="16.1462883"><ele>540.8</ele><time>2026-05-03T13:20:42.563Z</time></trkpt><trkpt lat="41.0060983" lon="16.146275"><ele>543.5999999999999</ele><time>2026-05-03T13:20:43.562Z</time></trkpt><trkpt lat="41.0061617" lon="16.1462517"><ele>546.4000000000001</ele><time>2026-05-03T13:20:44.562Z</time></trkpt><trkpt lat="41.0062783" lon="16.1462383"><ele>549.2</ele><time>2026-05-03T13:20:46.562Z</time></trkpt><trkpt lat="41.0064083" lon="16.146205"><ele>552.0</ele><time>2026-05-03T13:20:48.562Z</time></trkpt><trkpt lat="41.0064783" lon="16.1461983"><ele>552.0</ele><time>2026-05-03T13:20:49.563Z</time></trkpt><trkpt lat="41.0065517" lon="16.1461983"><ele>552.0</ele><time>2026-05-03T13:20:50.562Z</time></trkpt><trkpt lat="41.006625" lon="16.1461883"><ele>552.0</ele><time>2026-05-03T13:20:51.562Z</time></trkpt><trkpt lat="41.006695" lon="16.146175"><ele>552.0</ele><time>2026-05-03T13:20:52.563Z</time></trkpt><trkpt lat="41.0067667" lon="16.14619"><ele>552.0</ele><time>2026-05-03T13:20:53.563Z</time></trkpt><trkpt lat="41.0068667" lon="16.1462233"><ele>552.0</ele><time>2026-05-03T13:20:55.563Z</time></trkpt><trkpt lat="41.0069417" lon="16.146305"><ele>553.6</ele><time>2026-05-03T13:20:57.563Z</time></trkpt><trkpt lat="41.0070233" lon="16.1464467"><ele>555.2</ele><time>2026-05-03T13:20:59.562Z</time></trkpt><trkpt lat="41.0070733" lon="16.14651"><ele>556.8</ele><time>2026-05-03T13:21:00.562Z</time></trkpt><trkpt lat="41.0071267" lon="16.1465767"><ele>558.4</ele><time>2026-05-03T13:21:01.562Z</time></trkpt><trkpt lat="41.0071783" lon="16.1466433"><ele>560.0</ele><time>2026-05-03T13:21:02.562Z</time></trkpt><trkpt lat="41.0072583" lon="16.146755"><ele>564.2</ele><time>2026-05-03T13:21:04.562Z</time></trkpt><trkpt lat="41.00732" lon="16.1468717"><ele>568.4</ele><time>2026-05-03T13:21:06.562Z</time></trkpt><trkpt lat="41.007375" lon="16.1470133"><ele>572.6</ele><time>2026-05-03T13:21:08.562Z</time></trkpt><trkpt lat="41.0073883" lon="16.1471033"><ele>576.8</ele><time>2026-05-03T13:21:09.562Z</time></trkpt><trkpt lat="41.0073833" lon="16.14719"><ele>581.0</ele><time>2026-05-03T13:21:10.563Z</time></trkpt><trkpt lat="41.007375" lon="16.14733"><ele>582.0</ele><time>2026-05-03T13:21:12.562Z</time></trkpt><trkpt lat="41.007375" lon="16.147465"><ele>583.0</ele><time>2026-05-03T13:22:16.562Z</time></trkpt><trkpt lat="41.0073767" lon="16.147625"><ele>584.0</ele><time>2026-05-03T13:22:18.562Z</time></trkpt><trkpt lat="41.0073833" lon="16.1477183"><ele>585.0</ele><time>2026-05-03T13:22:19.563Z</time></trkpt><trkpt lat="41.0073833" lon="16.1478183"><ele>586.0</ele><time>2026-05-03T13:22:20.563Z</time></trkpt><trkpt lat="41.00737" lon="16.14792"><ele>587.0</ele><time>2026-05-03T13:22:21.562Z</time></trkpt><trkpt lat="41.0073417" lon="16.1480167"><ele>587.0</ele><time>2026-05-03T13:22:22.562Z</time></trkpt><trkpt lat="41.007305" lon="16.1480983"><ele>587.0</ele><time>2026-05-03T13:22:23.562Z</time></trkpt><trkpt lat="41.0072483" lon="16.148235"><ele>587.0</ele><time>2026-05-03T13:22:25.562Z</time></trkpt><trkpt lat="41.0071883" lon="16.1483717"><ele>587.0</ele><time>2026-05-03T13:22:27.562Z</time></trkpt><trkpt lat="41.0071417" lon="16.1484783"><ele>587.0</ele><time>2026-05-03T13:22:29.562Z</time></trkpt><trkpt lat="41.0070783" lon="16.1485983"><ele>587.1666666666666</ele><time>2026-05-03T13:22:31.562Z</time></trkpt><trkpt lat="41.0070083" lon="16.1487183"><ele>587.3333333333333</ele><time>2026-05-03T13:22:33.563Z</time></trkpt><trkpt lat="41.0069667" lon="16.1487867"><ele>587.5</ele><time>2026-05-03T13:22:34.562Z</time></trkpt><trkpt lat="41.0069167" lon="16.1488583"><ele>587.6666666666666</ele><time>2026-05-03T13:22:35.562Z</time></trkpt><trkpt lat="41.0068517" lon="16.1489233"><ele>587.8333333333334</ele><time>2026-05-03T13:22:36.562Z</time></trkpt><trkpt lat="41.0067833" lon="16.149"><ele>588.0</ele><time>2026-05-03T13:22:37.562Z</time></trkpt><trkpt lat="41.006695" lon="16.149065"><ele>589.0</ele><time>2026-05-03T13:22:38.562Z</time></trkpt><trkpt lat="41.0065917" lon="16.149125"><ele>590.0</ele><time>2026-05-03T13:22:39.562Z</time></trkpt><trkpt lat="41.00648" lon="16.1491883"><ele>591.0</ele><time>2026-05-03T13:22:40.562Z</time></trkpt><trkpt lat="41.0063667" lon="16.1492367"><ele>592.0</ele><time>2026-05-03T13:22:41.563Z</time></trkpt><trkpt lat="41.00625" lon="16.1493117"><ele>592.0</ele><time>2026-05-03T13:22:42.562Z</time></trkpt><trkpt lat="41.0061317" lon="16.1493817"><ele>592.0</ele><time>2026-05-03T13:22:43.563Z</time></trkpt><trkpt lat="41.006015" lon="16.1494467"><ele>592.0</ele><time>2026-05-03T13:22:44.563Z</time></trkpt><trkpt lat="41.005895" lon="16.1495217"><ele>592.0</ele><time>2026-05-03T13:22:45.562Z</time></trkpt><trkpt lat="41.00577" lon="16.1495967"><ele>592.25</ele><time>2026-05-03T13:22:46.563Z</time></trkpt><trkpt lat="41.0056483" lon="16.1496567"><ele>592.5</ele><time>2026-05-03T13:22:47.563Z</time></trkpt><trkpt lat="41.0055267" lon="16.14972"><ele>592.75</ele><time>2026-05-03T13:22:48.562Z</time></trkpt><trkpt lat="41.0054167" lon="16.14978"><ele>593.0</ele><time>2026-05-03T13:22:49.562Z</time></trkpt><trkpt lat="41.0052983" lon="16.149855"><ele>592.75</ele><time>2026-05-03T13:22:50.563Z</time></trkpt><trkpt lat="41.0051817" lon="16.1499383"><ele>592.5</ele><time>2026-05-03T13:22:51.562Z</time></trkpt><trkpt lat="41.0050567" lon="16.150025"><ele>592.25</ele><time>2026-05-03T13:22:52.562Z</time></trkpt><trkpt lat="41.00493" lon="16.150125"><ele>592.0</ele><time>2026-05-03T13:22:53.562Z</time></trkpt><trkpt lat="41.0048017" lon="16.1502183"><ele>593.0</ele><time>2026-05-03T13:22:54.562Z</time></trkpt><trkpt lat="41.0046667" lon="16.150315"><ele>594.0</ele><time>2026-05-03T13:22:55.563Z</time></trkpt><trkpt lat="41.004535" lon="16.1504183"><ele>595.0</ele><time>2026-05-03T13:22:56.563Z</time></trkpt><trkpt lat="41.00441" lon="16.15052"><ele>595.0</ele><time>2026-05-03T13:22:57.562Z</time></trkpt><trkpt lat="41.0042783" lon="16.150615"><ele>595.0</ele><time>2026-05-03T13:22:58.562Z</time></trkpt><trkpt lat="41.004145" lon="16.1507117"><ele>595.0</ele><time>2026-05-03T13:22:59.562Z</time></trkpt><trkpt lat="41.0040167" lon="16.1508133"><ele>594.5</ele><time>2026-05-03T13:23:00.562Z</time></trkpt><trkpt lat="41.00389" lon="16.15091"><ele>594.0</ele><time>2026-05-03T13:23:01.562Z</time></trkpt><trkpt lat="41.0037783" lon="16.1509967"><ele>593.5</ele><time>2026-05-03T13:23:02.562Z</time></trkpt><trkpt lat="41.003685" lon="16.1510717"><ele>593.0</ele><time>2026-05-03T13:23:03.562Z</time></trkpt><trkpt lat="41.0035933" lon="16.1511167"><ele>593.0</ele><time>2026-05-03T13:23:04.563Z</time></trkpt><trkpt lat="41.0035183" lon="16.151155"><ele>593.0</ele><time>2026-05-03T13:23:05.562Z</time></trkpt><trkpt lat="41.0034533" lon="16.15121"><ele>593.0</ele><time>2026-05-03T13:23:06.563Z</time></trkpt><trkpt lat="41.0033967" lon="16.151255"><ele>593.0</ele><time>2026-05-03T13:23:07.562Z</time></trkpt><trkpt lat="41.0033333" lon="16.1512867"><ele>593.0</ele><time>2026-05-03T13:23:08.562Z</time></trkpt><trkpt lat="41.0032217" lon="16.151315"><ele>593.0</ele><time>2026-05-03T13:23:10.563Z</time></trkpt><trkpt lat="41.0031717" lon="16.1514067"><ele>592.75</ele><time>2026-05-03T13:23:12.562Z</time></trkpt><trkpt lat="41.0031967" lon="16.15157"><ele>592.5</ele><time>2026-05-03T13:23:14.562Z</time></trkpt><trkpt lat="41.003255" lon="16.151695"><ele>592.25</ele><time>2026-05-03T13:23:15.563Z</time></trkpt><trkpt lat="41.003315" lon="16.15182"><ele>592.0</ele><time>2026-05-03T13:23:16.562Z</time></trkpt><trkpt lat="41.0033817" lon="16.1519633"><ele>592.0</ele><time>2026-05-03T13:23:17.562Z</time></trkpt><trkpt lat="41.003455" lon="16.15212"><ele>592.0</ele><time>2026-05-03T13:23:18.562Z</time></trkpt><trkpt lat="41.0035283" lon="16.1522817"><ele>592.0</ele><time>2026-05-03T13:23:19.562Z</time></trkpt><trkpt lat="41.0036083" lon="16.1524533"><ele>592.0</ele><time>2026-05-03T13:23:20.562Z</time></trkpt><trkpt lat="41.0036933" lon="16.152625"><ele>591.0</ele><time>2026-05-03T13:23:21.563Z</time></trkpt><trkpt lat="41.0037733" lon="16.152805"><ele>590.0</ele><time>2026-05-03T13:23:22.562Z</time></trkpt><trkpt lat="41.0038533" lon="16.15299"><ele>589.0</ele><time>2026-05-03T13:23:23.562Z</time></trkpt><trkpt lat="41.003935" lon="16.1531833"><ele>588.3333333333334</ele><time>2026-05-03T13:23:24.563Z</time></trkpt><trkpt lat="41.0040183" lon="16.15337"><ele>587.6666666666666</ele><time>2026-05-03T13:23:25.562Z</time></trkpt><trkpt lat="41.0041017" lon="16.1535733"><ele>587.0</ele><time>2026-05-03T13:23:26.563Z</time></trkpt><trkpt lat="41.004185" lon="16.1537633"><ele>587.0</ele><time>2026-05-03T13:23:27.562Z</time></trkpt><trkpt lat="41.0042583" lon="16.1539317"><ele>587.0</ele><time>2026-05-03T13:23:28.563Z</time></trkpt><trkpt lat="41.0043433" lon="16.1541217"><ele>587.0</ele><time>2026-05-03T13:23:29.562Z</time></trkpt><trkpt lat="41.00443" lon="16.154305"><ele>586.6666666666666</ele><time>2026-05-03T13:23:30.562Z</time></trkpt><trkpt lat="41.004505" lon="16.1544817"><ele>586.3333333333334</ele><time>2026-05-03T13:23:31.562Z</time></trkpt><trkpt lat="41.004575" lon="16.1546533"><ele>586.0</ele><time>2026-05-03T13:23:32.562Z</time></trkpt><trkpt lat="41.0046633" lon="16.1548333"><ele>586.0</ele><time>2026-05-03T13:23:33.562Z</time></trkpt><trkpt lat="41.004745" lon="16.1550117"><ele>586.0</ele><time>2026-05-03T13:23:34.562Z</time></trkpt><trkpt lat="41.0048267" lon="16.155185"><ele>586.0</ele><time>2026-05-03T13:23:35.562Z</time></trkpt><trkpt lat="41.0049" lon="16.15537"><ele>586.0</ele><time>2026-05-03T13:23:36.563Z</time></trkpt><trkpt lat="41.0049833" lon="16.1555783"><ele>586.0</ele><time>2026-05-03T13:23:37.562Z</time></trkpt><trkpt lat="41.0050633" lon="16.1557883"><ele>586.0</ele><time>2026-05-03T13:23:38.562Z</time></trkpt><trkpt lat="41.0051533" lon="16.1559783"><ele>585.6666666666667</ele><time>2026-05-03T13:23:39.562Z</time></trkpt><trkpt lat="41.0052517" lon="16.1561783"><ele>585.3333333333334</ele><time>2026-05-03T13:23:40.562Z</time></trkpt><trkpt lat="41.0053367" lon="16.15636"><ele>585.0</ele><time>2026-05-03T13:23:41.562Z</time></trkpt><trkpt lat="41.00542" lon="16.1565417"><ele>585.0</ele><time>2026-05-03T13:23:42.562Z</time></trkpt><trkpt lat="41.0055067" lon="16.1567117"><ele>585.0</ele><time>2026-05-03T13:23:43.562Z</time></trkpt><trkpt lat="41.0055917" lon="16.1568867"><ele>585.0</ele><time>2026-05-03T13:23:44.563Z</time></trkpt><trkpt lat="41.0056783" lon="16.15706"><ele>585.0</ele><time>2026-05-03T13:23:45.562Z</time></trkpt><trkpt lat="41.0057533" lon="16.15724"><ele>585.0</ele><time>2026-05-03T13:23:46.562Z</time></trkpt><trkpt lat="41.0058383" lon="16.15742"><ele>585.0</ele><time>2026-05-03T13:23:47.562Z</time></trkpt><trkpt lat="41.0059217" lon="16.1575933"><ele>585.6666666666666</ele><time>2026-05-03T13:23:48.562Z</time></trkpt><trkpt lat="41.00601" lon="16.1577933"><ele>586.3333333333333</ele><time>2026-05-03T13:23:49.563Z</time></trkpt><trkpt lat="41.006085" lon="16.1579867"><ele>587.0</ele><time>2026-05-03T13:23:50.562Z</time></trkpt><trkpt lat="41.0061633" lon="16.1581733"><ele>587.6666666666666</ele><time>2026-05-03T13:23:51.562Z</time></trkpt><trkpt lat="41.0062467" lon="16.1583717"><ele>588.3333333333334</ele><time>2026-05-03T13:23:52.562Z</time></trkpt><trkpt lat="41.0063267" lon="16.1585767"><ele>589.0</ele><time>2026-05-03T13:23:53.563Z</time></trkpt><trkpt lat="41.0063933" lon="16.15877"><ele>589.0</ele><time>2026-05-03T13:23:54.562Z</time></trkpt><trkpt lat="41.006455" lon="16.1589367"><ele>589.0</ele><time>2026-05-03T13:23:55.563Z</time></trkpt><trkpt lat="41.00652" lon="16.1591033"><ele>589.0</ele><time>2026-05-03T13:23:56.562Z</time></trkpt><trkpt lat="41.0065867" lon="16.1592633"><ele>589.0</ele><time>2026-05-03T13:23:57.562Z</time></trkpt><trkpt lat="41.0066533" lon="16.15942"><ele>588.0</ele><time>2026-05-03T13:23:58.562Z</time></trkpt><trkpt lat="41.00672" lon="16.1595733"><ele>587.0</ele><time>2026-05-03T13:23:59.562Z</time></trkpt><trkpt lat="41.0067867" lon="16.1597167"><ele>586.0</ele><time>2026-05-03T13:24:00.563Z</time></trkpt><trkpt lat="41.0068167" lon="16.1598433"><ele>585.0</ele><time>2026-05-03T13:24:01.562Z</time></trkpt><trkpt lat="41.00685" lon="16.159935"><ele>584.0</ele><time>2026-05-03T13:24:02.562Z</time></trkpt><trkpt lat="41.0068883" lon="16.1600567"><ele>584.0</ele><time>2026-05-03T13:24:04.562Z</time></trkpt><trkpt lat="41.0069517" lon="16.1601367"><ele>584.0</ele><time>2026-05-03T13:24:06.563Z</time></trkpt><trkpt lat="41.00702" lon="16.1601783"><ele>584.0</ele><time>2026-05-03T13:24:07.562Z</time></trkpt><trkpt lat="41.0071083" lon="16.1602483"><ele>584.0</ele><time>2026-05-03T13:24:08.562Z</time></trkpt><trkpt lat="41.0072067" lon="16.16033"><ele>584.0</ele><time>2026-05-03T13:24:09.562Z</time></trkpt><trkpt lat="41.0073067" lon="16.1604217"><ele>584.0</ele><time>2026-05-03T13:24:10.562Z</time></trkpt><trkpt lat="41.0074217" lon="16.1605233"><ele>584.0</ele><time>2026-05-03T13:24:11.563Z</time></trkpt><trkpt lat="41.00754" lon="16.1606267"><ele>584.0</ele><time>2026-05-03T13:24:12.562Z</time></trkpt><trkpt lat="41.0076567" lon="16.160735"><ele>584.0</ele><time>2026-05-03T13:24:13.562Z</time></trkpt><trkpt lat="41.0077783" lon="16.1608567"><ele>582.5</ele><time>2026-05-03T13:24:14.563Z</time></trkpt><trkpt lat="41.0079117" lon="16.1609767"><ele>581.0</ele><time>2026-05-03T13:24:15.562Z</time></trkpt><trkpt lat="41.0080367" lon="16.16108"><ele>579.5</ele><time>2026-05-03T13:24:16.562Z</time></trkpt><trkpt lat="41.008145" lon="16.1611683"><ele>578.0</ele><time>2026-05-03T13:24:17.562Z</time></trkpt><trkpt lat="41.0082383" lon="16.1612417"><ele>578.0</ele><time>2026-05-03T13:24:18.562Z</time></trkpt><trkpt lat="41.0083267" lon="16.1613"><ele>578.0</ele><time>2026-05-03T13:24:19.562Z</time></trkpt><trkpt lat="41.0084183" lon="16.1613333"><ele>578.0</ele><time>2026-05-03T13:24:20.562Z</time></trkpt><trkpt lat="41.0085017" lon="16.1613317"><ele>578.0</ele><time>2026-05-03T13:24:21.562Z</time></trkpt><trkpt lat="41.0085817" lon="16.1612917"><ele>578.0</ele><time>2026-05-03T13:24:22.563Z</time></trkpt><trkpt lat="41.0086517" lon="16.1612367"><ele>578.0</ele><time>2026-05-03T13:24:23.563Z</time></trkpt><trkpt lat="41.0087233" lon="16.161185"><ele>578.0</ele><time>2026-05-03T13:24:24.562Z</time></trkpt><trkpt lat="41.0087967" lon="16.1611167"><ele>578.0</ele><time>2026-05-03T13:24:25.562Z</time></trkpt><trkpt lat="41.0088767" lon="16.1610383"><ele>578.0</ele><time>2026-05-03T13:24:26.562Z</time></trkpt><trkpt lat="41.00896" lon="16.1609683"><ele>578.0</ele><time>2026-05-03T13:24:27.562Z</time></trkpt><trkpt lat="41.00905" lon="16.1608883"><ele>578.0</ele><time>2026-05-03T13:24:28.562Z</time></trkpt><trkpt lat="41.009135" lon="16.1608033"><ele>579.0</ele><time>2026-05-03T13:24:29.562Z</time></trkpt><trkpt lat="41.00923" lon="16.1607217"><ele>580.0</ele><time>2026-05-03T13:24:30.562Z</time></trkpt><trkpt lat="41.0093217" lon="16.16063"><ele>581.0</ele><time>2026-05-03T13:24:31.562Z</time></trkpt><trkpt lat="41.0094233" lon="16.160555"><ele>582.0</ele><time>2026-05-03T13:24:32.562Z</time></trkpt><trkpt lat="41.009535" lon="16.160475"><ele>583.25</ele><time>2026-05-03T13:24:33.563Z</time></trkpt><trkpt lat="41.0096617" lon="16.16041"><ele>584.5</ele><time>2026-05-03T13:24:34.562Z</time></trkpt><trkpt lat="41.0097867" lon="16.1603467"><ele>585.75</ele><time>2026-05-03T13:24:35.562Z</time></trkpt><trkpt lat="41.00991" lon="16.1602883"><ele>587.0</ele><time>2026-05-03T13:24:36.563Z</time></trkpt><trkpt lat="41.01006" lon="16.160255"><ele>587.5</ele><time>2026-05-03T13:24:37.563Z</time></trkpt><trkpt lat="41.0101967" lon="16.1601917"><ele>588.0</ele><time>2026-05-03T13:24:38.562Z</time></trkpt><trkpt lat="41.0103417" lon="16.1601617"><ele>588.5</ele><time>2026-05-03T13:24:39.562Z</time></trkpt><trkpt lat="41.0104867" lon="16.1601433"><ele>589.0</ele><time>2026-05-03T13:24:40.562Z</time></trkpt><trkpt lat="41.0106417" lon="16.1601183"><ele>589.0</ele><time>2026-05-03T13:24:41.562Z</time></trkpt><trkpt lat="41.0108" lon="16.160095"><ele>589.0</ele><time>2026-05-03T13:24:42.562Z</time></trkpt><trkpt lat="41.01096" lon="16.16006"><ele>589.0</ele><time>2026-05-03T13:24:43.563Z</time></trkpt><trkpt lat="41.0111183" lon="16.1600217"><ele>589.6666666666667</ele><time>2026-05-03T13:24:44.563Z</time></trkpt><trkpt lat="41.011285" lon="16.15999"><ele>590.3333333333334</ele><time>2026-05-03T13:24:45.562Z</time></trkpt><trkpt lat="41.011455" lon="16.1599583"><ele>591.0</ele><time>2026-05-03T13:24:46.562Z</time></trkpt><trkpt lat="41.01164" lon="16.1599367"><ele>591.3333333333334</ele><time>2026-05-03T13:24:47.562Z</time></trkpt><trkpt lat="41.01182" lon="16.1599"><ele>591.6666666666667</ele><time>2026-05-03T13:24:48.562Z</time></trkpt><trkpt lat="41.01199" lon="16.159885"><ele>592.0</ele><time>2026-05-03T13:24:49.562Z</time></trkpt><trkpt lat="41.012175" lon="16.159875"><ele>592.3333333333334</ele><time>2026-05-03T13:24:50.562Z</time></trkpt><trkpt lat="41.01234" lon="16.1598283"><ele>592.6666666666666</ele><time>2026-05-03T13:24:51.562Z</time></trkpt><trkpt lat="41.0125033" lon="16.1598033"><ele>593.0</ele><time>2026-05-03T13:24:52.563Z</time></trkpt><trkpt lat="41.0126633" lon="16.1597767"><ele>592.3333333333333</ele><time>2026-05-03T13:24:53.562Z</time></trkpt><trkpt lat="41.0128167" lon="16.1597417"><ele>591.6666666666666</ele><time>2026-05-03T13:24:54.562Z</time></trkpt><trkpt lat="41.0129683" lon="16.1597167"><ele>591.0</ele><time>2026-05-03T13:24:55.562Z</time></trkpt><trkpt lat="41.0131267" lon="16.159695"><ele>591.0</ele><time>2026-05-03T13:24:56.562Z</time></trkpt><trkpt lat="41.0132817" lon="16.159675"><ele>591.0</ele><time>2026-05-03T13:24:57.563Z</time></trkpt><trkpt lat="41.01345" lon="16.159645"><ele>591.0</ele><time>2026-05-03T13:24:58.563Z</time></trkpt><trkpt lat="41.013625" lon="16.1596233"><ele>590.6666666666666</ele><time>2026-05-03T13:24:59.562Z</time></trkpt><trkpt lat="41.0137917" lon="16.159595"><ele>590.3333333333333</ele><time>2026-05-03T13:25:00.562Z</time></trkpt><trkpt lat="41.01396" lon="16.15955"><ele>590.0</ele><time>2026-05-03T13:25:01.562Z</time></trkpt><trkpt lat="41.0141333" lon="16.159515"><ele>591.3333333333333</ele><time>2026-05-03T13:25:02.563Z</time></trkpt><trkpt lat="41.0143083" lon="16.1594833"><ele>592.6666666666666</ele><time>2026-05-03T13:25:03.562Z</time></trkpt><trkpt lat="41.0144783" lon="16.1594617"><ele>594.0</ele><time>2026-05-03T13:25:04.562Z</time></trkpt><trkpt lat="41.01465" lon="16.1594317"><ele>594.0</ele><time>2026-05-03T13:25:05.562Z</time></trkpt><trkpt lat="41.0148217" lon="16.1594033"><ele>594.0</ele><time>2026-05-03T13:25:06.562Z</time></trkpt><trkpt lat="41.0149717" lon="16.1593733"><ele>594.0</ele><time>2026-05-03T13:25:07.562Z</time></trkpt><trkpt lat="41.0151267" lon="16.159345"><ele>594.3333333333334</ele><time>2026-05-03T13:25:08.563Z</time></trkpt><trkpt lat="41.01528" lon="16.1593267"><ele>594.6666666666667</ele><time>2026-05-03T13:25:09.562Z</time></trkpt><trkpt lat="41.0154317" lon="16.1592933"><ele>595.0</ele><time>2026-05-03T13:25:10.563Z</time></trkpt><trkpt lat="41.0155867" lon="16.15926"><ele>595.0</ele><time>2026-05-03T13:25:11.563Z</time></trkpt><trkpt lat="41.0157217" lon="16.1592267"><ele>595.0</ele><time>2026-05-03T13:25:12.562Z</time></trkpt><trkpt lat="41.0158733" lon="16.1592133"><ele>595.0</ele><time>2026-05-03T13:25:13.562Z</time></trkpt><trkpt lat="41.0160217" lon="16.1591817"><ele>595.0</ele><time>2026-05-03T13:25:14.563Z</time></trkpt><trkpt lat="41.0161817" lon="16.1591483"><ele>595.0</ele><time>2026-05-03T13:25:15.563Z</time></trkpt><trkpt lat="41.0163317" lon="16.159125"><ele>595.0</ele><time>2026-05-03T13:25:16.563Z</time></trkpt><trkpt lat="41.0164817" lon="16.1591"><ele>595.0</ele><time>2026-05-03T13:25:17.562Z</time></trkpt><trkpt lat="41.0166183" lon="16.159055"><ele>595.0</ele><time>2026-05-03T13:25:18.562Z</time></trkpt><trkpt lat="41.01676" lon="16.1590233"><ele>595.0</ele><time>2026-05-03T13:25:19.562Z</time></trkpt><trkpt lat="41.0169033" lon="16.159"><ele>595.0</ele><time>2026-05-03T13:25:20.563Z</time></trkpt><trkpt lat="41.0170333" lon="16.1589767"><ele>595.0</ele><time>2026-05-03T13:25:21.562Z</time></trkpt><trkpt lat="41.0171383" lon="16.1589617"><ele>595.0</ele><time>2026-05-03T13:25:22.563Z</time></trkpt><trkpt lat="41.017235" lon="16.158915"><ele>595.0</ele><time>2026-05-03T13:25:23.562Z</time></trkpt><trkpt lat="41.017305" lon="16.15887"><ele>595.0</ele><time>2026-05-03T13:25:24.563Z</time></trkpt><trkpt lat="41.017345" lon="16.158805"><ele>595.0</ele><time>2026-05-03T13:25:25.562Z</time></trkpt><trkpt lat="41.0174333" lon="16.1586967"><ele>595.0</ele><time>2026-05-03T13:25:27.562Z</time></trkpt><trkpt lat="41.0174917" lon="16.15863"><ele>595.0</ele><time>2026-05-03T13:25:28.563Z</time></trkpt><trkpt lat="41.01757" lon="16.1585433"><ele>595.0</ele><time>2026-05-03T13:25:29.562Z</time></trkpt><trkpt lat="41.0176683" lon="16.1584483"><ele>594.5</ele><time>2026-05-03T13:25:30.562Z</time></trkpt><trkpt lat="41.01778" lon="16.1583483"><ele>594.0</ele><time>2026-05-03T13:25:31.562Z</time></trkpt><trkpt lat="41.0178767" lon="16.1582483"><ele>593.5</ele><time>2026-05-03T13:25:32.562Z</time></trkpt><trkpt lat="41.0179817" lon="16.1581417"><ele>593.0</ele><time>2026-05-03T13:25:33.562Z</time></trkpt><trkpt lat="41.018085" lon="16.1580383"><ele>593.0</ele><time>2026-05-03T13:25:34.562Z</time></trkpt><trkpt lat="41.0181933" lon="16.1579317"><ele>593.0</ele><time>2026-05-03T13:25:35.562Z</time></trkpt><trkpt lat="41.0182933" lon="16.157835"><ele>593.0</ele><time>2026-05-03T13:25:36.563Z</time></trkpt><trkpt lat="41.0184017" lon="16.15773"><ele>593.0</ele><time>2026-05-03T13:25:37.562Z</time></trkpt><trkpt lat="41.0185067" lon="16.1576117"><ele>593.0</ele><time>2026-05-03T13:25:38.562Z</time></trkpt><trkpt lat="41.01862" lon="16.157485"><ele>593.0</ele><time>2026-05-03T13:25:39.563Z</time></trkpt><trkpt lat="41.018735" lon="16.1573717"><ele>593.0</ele><time>2026-05-03T13:25:40.562Z</time></trkpt><trkpt lat="41.0188533" lon="16.1572583"><ele>593.0</ele><time>2026-05-03T13:25:41.562Z</time></trkpt><trkpt lat="41.018965" lon="16.1571433"><ele>592.5</ele><time>2026-05-03T13:25:42.563Z</time></trkpt><trkpt lat="41.019065" lon="16.157035"><ele>592.0</ele><time>2026-05-03T13:25:43.562Z</time></trkpt><trkpt lat="41.0191583" lon="16.1569383"><ele>591.5</ele><time>2026-05-03T13:25:44.563Z</time></trkpt><trkpt lat="41.019245" lon="16.1568417"><ele>591.0</ele><time>2026-05-03T13:25:45.562Z</time></trkpt><trkpt lat="41.0193233" lon="16.1567583"><ele>590.8333333333334</ele><time>2026-05-03T13:25:46.562Z</time></trkpt><trkpt lat="41.0193917" lon="16.1566867"><ele>590.6666666666666</ele><time>2026-05-03T13:25:47.562Z</time></trkpt><trkpt lat="41.0194517" lon="16.1566183"><ele>590.5</ele><time>2026-05-03T13:25:48.562Z</time></trkpt><trkpt lat="41.019525" lon="16.1565583"><ele>590.3333333333333</ele><time>2026-05-03T13:25:49.562Z</time></trkpt><trkpt lat="41.019605" lon="16.156515"><ele>590.1666666666666</ele><time>2026-05-03T13:25:50.562Z</time></trkpt><trkpt lat="41.0197017" lon="16.1565333"><ele>590.0</ele><time>2026-05-03T13:25:51.562Z</time></trkpt><trkpt lat="41.01978" lon="16.1565633"><ele>590.0</ele><time>2026-05-03T13:25:52.562Z</time></trkpt><trkpt lat="41.0198767" lon="16.1566383"><ele>590.0</ele><time>2026-05-03T13:25:53.563Z</time></trkpt><trkpt lat="41.0199667" lon="16.15673"><ele>590.0</ele><time>2026-05-03T13:25:54.562Z</time></trkpt><trkpt lat="41.0200417" lon="16.1567933"><ele>590.0</ele><time>2026-05-03T13:25:55.562Z</time></trkpt><trkpt lat="41.020105" lon="16.156825"><ele>590.0</ele><time>2026-05-03T13:25:56.562Z</time></trkpt><trkpt lat="41.0201733" lon="16.1568433"><ele>589.3333333333333</ele><time>2026-05-03T13:25:57.562Z</time></trkpt><trkpt lat="41.020235" lon="16.1568267"><ele>588.6666666666666</ele><time>2026-05-03T13:25:58.562Z</time></trkpt><trkpt lat="41.0203017" lon="16.15679"><ele>588.0</ele><time>2026-05-03T13:25:59.563Z</time></trkpt><trkpt lat="41.0203617" lon="16.15666"><ele>587.3333333333334</ele><time>2026-05-03T13:26:01.562Z</time></trkpt><trkpt lat="41.0203733" lon="16.15656"><ele>586.6666666666667</ele><time>2026-05-03T13:26:02.562Z</time></trkpt><trkpt lat="41.02037" lon="16.1564433"><ele>586.0</ele><time>2026-05-03T13:26:03.563Z</time></trkpt><trkpt lat="41.0203467" lon="16.1563017"><ele>584.75</ele><time>2026-05-03T13:26:04.562Z</time></trkpt><trkpt lat="41.020335" lon="16.15615"><ele>583.5</ele><time>2026-05-03T13:26:05.562Z</time></trkpt><trkpt lat="41.0203217" lon="16.1560067"><ele>582.25</ele><time>2026-05-03T13:26:06.562Z</time></trkpt><trkpt lat="41.0203" lon="16.1558433"><ele>581.0</ele><time>2026-05-03T13:26:07.562Z</time></trkpt><trkpt lat="41.02027" lon="16.1556633"><ele>580.75</ele><time>2026-05-03T13:26:08.563Z</time></trkpt><trkpt lat="41.0202533" lon="16.1554967"><ele>580.5</ele><time>2026-05-03T13:26:09.563Z</time></trkpt><trkpt lat="41.0202367" lon="16.1553283"><ele>580.25</ele><time>2026-05-03T13:26:10.562Z</time></trkpt><trkpt lat="41.0202267" lon="16.1551383"><ele>580.0</ele><time>2026-05-03T13:26:11.562Z</time></trkpt><trkpt lat="41.0202183" lon="16.1549433"><ele>580.25</ele><time>2026-05-03T13:26:12.562Z</time></trkpt><trkpt lat="41.0202167" lon="16.1547567"><ele>580.5</ele><time>2026-05-03T13:26:13.562Z</time></trkpt><trkpt lat="41.0202183" lon="16.15457"><ele>580.75</ele><time>2026-05-03T13:26:14.562Z</time></trkpt><trkpt lat="41.0202183" lon="16.1543783"><ele>581.0</ele><time>2026-05-03T13:26:15.562Z</time></trkpt><trkpt lat="41.0202117" lon="16.1541883"><ele>580.75</ele><time>2026-05-03T13:26:16.562Z</time></trkpt><trkpt lat="41.020215" lon="16.1540033"><ele>580.5</ele><time>2026-05-03T13:26:17.563Z</time></trkpt><trkpt lat="41.02021" lon="16.153815"><ele>580.25</ele><time>2026-05-03T13:26:18.562Z</time></trkpt><trkpt lat="41.0202017" lon="16.1536267"><ele>580.0</ele><time>2026-05-03T13:26:19.562Z</time></trkpt><trkpt lat="41.02019" lon="16.1534217"><ele>580.0</ele><time>2026-05-03T13:26:20.563Z</time></trkpt><trkpt lat="41.020175" lon="16.15321"><ele>580.0</ele><time>2026-05-03T13:26:21.562Z</time></trkpt><trkpt lat="41.0201683" lon="16.152985"><ele>580.0</ele><time>2026-05-03T13:26:22.562Z</time></trkpt><trkpt lat="41.02016" lon="16.1527633"><ele>579.3333333333334</ele><time>2026-05-03T13:26:23.562Z</time></trkpt><trkpt lat="41.020155" lon="16.152535"><ele>578.6666666666666</ele><time>2026-05-03T13:26:24.562Z</time></trkpt><trkpt lat="41.020145" lon="16.15231"><ele>578.0</ele><time>2026-05-03T13:26:25.562Z</time></trkpt><trkpt lat="41.0201433" lon="16.1520983"><ele>577.75</ele><time>2026-05-03T13:26:26.563Z</time></trkpt><trkpt lat="41.0201333" lon="16.151905"><ele>577.5</ele><time>2026-05-03T13:26:27.562Z</time></trkpt><trkpt lat="41.02012" lon="16.1517217"><ele>577.25</ele><time>2026-05-03T13:26:28.563Z</time></trkpt><trkpt lat="41.0201067" lon="16.1515617"><ele>577.0</ele><time>2026-05-03T13:26:29.563Z</time></trkpt><trkpt lat="41.020105" lon="16.151395"><ele>576.25</ele><time>2026-05-03T13:26:30.563Z</time></trkpt><trkpt lat="41.0201067" lon="16.1512417"><ele>575.5</ele><time>2026-05-03T13:26:31.562Z</time></trkpt><trkpt lat="41.0201183" lon="16.1511183"><ele>574.75</ele><time>2026-05-03T13:26:32.563Z</time></trkpt><trkpt lat="41.0200867" lon="16.1509567"><ele>574.0</ele><time>2026-05-03T13:26:33.562Z</time></trkpt><trkpt lat="41.02005" lon="16.1507967"><ele>571.5</ele><time>2026-05-03T13:26:34.563Z</time></trkpt><trkpt lat="41.0199783" lon="16.1506217"><ele>569.0</ele><time>2026-05-03T13:26:35.562Z</time></trkpt><trkpt lat="41.0199083" lon="16.150465"><ele>566.5</ele><time>2026-05-03T13:26:36.563Z</time></trkpt><trkpt lat="41.019825" lon="16.1503067"><ele>564.0</ele><time>2026-05-03T13:26:37.562Z</time></trkpt><trkpt lat="41.01973" lon="16.1501417"><ele>564.0</ele><time>2026-05-03T13:26:38.562Z</time></trkpt><trkpt lat="41.0196383" lon="16.1499783"><ele>564.0</ele><time>2026-05-03T13:26:39.563Z</time></trkpt><trkpt lat="41.0195333" lon="16.1498"><ele>564.0</ele><time>2026-05-03T13:26:40.563Z</time></trkpt><trkpt lat="41.01944" lon="16.1496367"><ele>565.25</ele><time>2026-05-03T13:26:41.562Z</time></trkpt><trkpt lat="41.0193483" lon="16.1494667"><ele>566.5</ele><time>2026-05-03T13:26:42.562Z</time></trkpt><trkpt lat="41.019265" lon="16.1493133"><ele>567.75</ele><time>2026-05-03T13:26:43.562Z</time></trkpt><trkpt lat="41.019195" lon="16.149175"><ele>569.0</ele><time>2026-05-03T13:26:44.563Z</time></trkpt><trkpt lat="41.019135" lon="16.1490433"><ele>568.2</ele><time>2026-05-03T13:26:45.562Z</time></trkpt><trkpt lat="41.0190883" lon="16.1489133"><ele>567.4</ele><time>2026-05-03T13:26:46.562Z</time></trkpt><trkpt lat="41.01906" lon="16.1487917"><ele>566.6</ele><time>2026-05-03T13:26:47.562Z</time></trkpt><trkpt lat="41.0190467" lon="16.1486533"><ele>565.8</ele><time>2026-05-03T13:26:48.562Z</time></trkpt><trkpt lat="41.01905" lon="16.1484967"><ele>565.0</ele><time>2026-05-03T13:26:49.562Z</time></trkpt><trkpt lat="41.0190567" lon="16.1483367"><ele>565.5</ele><time>2026-05-03T13:26:50.562Z</time></trkpt><trkpt lat="41.0190567" lon="16.14815"><ele>566.0</ele><time>2026-05-03T13:26:51.563Z</time></trkpt><trkpt lat="41.0190683" lon="16.1479633"><ele>566.5</ele><time>2026-05-03T13:26:52.562Z</time></trkpt><trkpt lat="41.0190733" lon="16.1477533"><ele>567.0</ele><time>2026-05-03T13:26:53.562Z</time></trkpt><trkpt lat="41.019065" lon="16.1475633"><ele>565.25</ele><time>2026-05-03T13:26:54.562Z</time></trkpt><trkpt lat="41.0190733" lon="16.147365"><ele>563.5</ele><time>2026-05-03T13:26:55.562Z</time></trkpt><trkpt lat="41.0190767" lon="16.1471683"><ele>561.75</ele><time>2026-05-03T13:26:56.563Z</time></trkpt><trkpt lat="41.019075" lon="16.1469733"><ele>560.0</ele><time>2026-05-03T13:26:57.562Z</time></trkpt><trkpt lat="41.0190667" lon="16.1467933"><ele>560.0</ele><time>2026-05-03T13:26:58.562Z</time></trkpt><trkpt lat="41.01907" lon="16.1465933"><ele>560.0</ele><time>2026-05-03T13:26:59.563Z</time></trkpt><trkpt lat="41.0190683" lon="16.1463883"><ele>560.0</ele><time>2026-05-03T13:27:00.563Z</time></trkpt><trkpt lat="41.01907" lon="16.1462017"><ele>560.0</ele><time>2026-05-03T13:27:01.564Z</time></trkpt><trkpt lat="41.019075" lon="16.14603"><ele>559.4</ele><time>2026-05-03T13:27:02.563Z</time></trkpt><trkpt lat="41.01907" lon="16.1458717"><ele>558.8</ele><time>2026-05-03T13:27:03.563Z</time></trkpt><trkpt lat="41.0190733" lon="16.1457233"><ele>558.2</ele><time>2026-05-03T13:27:04.563Z</time></trkpt><trkpt lat="41.0190767" lon="16.145585"><ele>557.6</ele><time>2026-05-03T13:27:05.563Z</time></trkpt><trkpt lat="41.0190883" lon="16.1454567"><ele>557.0</ele><time>2026-05-03T13:27:06.564Z</time></trkpt><trkpt lat="41.0191217" lon="16.1453417"><ele>559.0</ele><time>2026-05-03T13:27:07.563Z</time></trkpt><trkpt lat="41.0191683" lon="16.1452383"><ele>561.0</ele><time>2026-05-03T13:27:08.563Z</time></trkpt><trkpt lat="41.01923" lon="16.1451433"><ele>563.0</ele><time>2026-05-03T13:27:09.563Z</time></trkpt><trkpt lat="41.019315" lon="16.145045"><ele>565.0</ele><time>2026-05-03T13:27:10.563Z</time></trkpt><trkpt lat="41.0194067" lon="16.1449567"><ele>567.0</ele><time>2026-05-03T13:27:11.563Z</time></trkpt><trkpt lat="41.0194967" lon="16.1448583"><ele>567.5</ele><time>2026-05-03T13:27:12.563Z</time></trkpt><trkpt lat="41.01961" lon="16.1447367"><ele>568.0</ele><time>2026-05-03T13:27:13.563Z</time></trkpt><trkpt lat="41.0197117" lon="16.144615"><ele>568.5</ele><time>2026-05-03T13:27:14.563Z</time></trkpt><trkpt lat="41.0198117" lon="16.1445067"><ele>569.0</ele><time>2026-05-03T13:27:15.564Z</time></trkpt><trkpt lat="41.0199117" lon="16.144395"><ele>569.0</ele><time>2026-05-03T13:27:16.564Z</time></trkpt><trkpt lat="41.0200067" lon="16.144285"><ele>569.0</ele><time>2026-05-03T13:27:17.564Z</time></trkpt><trkpt lat="41.0200983" lon="16.1441667"><ele>569.0</ele><time>2026-05-03T13:27:18.563Z</time></trkpt><trkpt lat="41.0201867" lon="16.144065"><ele>569.0</ele><time>2026-05-03T13:27:19.564Z</time></trkpt><trkpt lat="41.02028" lon="16.1439617"><ele>569.0</ele><time>2026-05-03T13:27:20.563Z</time></trkpt><trkpt lat="41.020365" lon="16.14386"><ele>569.0</ele><time>2026-05-03T13:27:21.563Z</time></trkpt><trkpt lat="41.020455" lon="16.1437633"><ele>569.0</ele><time>2026-05-03T13:27:22.563Z</time></trkpt><trkpt lat="41.02054" lon="16.14366"><ele>569.0</ele><time>2026-05-03T13:27:23.563Z</time></trkpt><trkpt lat="41.0206183" lon="16.1435517"><ele>569.0</ele><time>2026-05-03T13:27:24.563Z</time></trkpt><trkpt lat="41.0206833" lon="16.143415"><ele>569.0</ele><time>2026-05-03T13:27:25.563Z</time></trkpt><trkpt lat="41.0207517" lon="16.143265"><ele>569.0</ele><time>2026-05-03T13:27:26.563Z</time></trkpt><trkpt lat="41.0208067" lon="16.143095"><ele>569.0</ele><time>2026-05-03T13:27:27.564Z</time></trkpt><trkpt lat="41.02085" lon="16.1429333"><ele>568.25</ele><time>2026-05-03T13:27:28.564Z</time></trkpt><trkpt lat="41.020885" lon="16.1427533"><ele>567.5</ele><time>2026-05-03T13:27:29.563Z</time></trkpt><trkpt lat="41.0209067" lon="16.1425767"><ele>566.75</ele><time>2026-05-03T13:27:30.563Z</time></trkpt><trkpt lat="41.02093" lon="16.14239"><ele>566.0</ele><time>2026-05-03T13:27:31.563Z</time></trkpt><trkpt lat="41.0209583" lon="16.142225"><ele>565.5</ele><time>2026-05-03T13:27:32.563Z</time></trkpt><trkpt lat="41.0209717" lon="16.1420683"><ele>565.0</ele><time>2026-05-03T13:27:33.564Z</time></trkpt><trkpt lat="41.0209833" lon="16.1418967"><ele>564.5</ele><time>2026-05-03T13:27:34.563Z</time></trkpt><trkpt lat="41.0209967" lon="16.1417317"><ele>564.0</ele><time>2026-05-03T13:27:35.563Z</time></trkpt><trkpt lat="41.02103" lon="16.1415417"><ele>563.6666666666666</ele><time>2026-05-03T13:27:36.564Z</time></trkpt><trkpt lat="41.021075" lon="16.1413467"><ele>563.3333333333333</ele><time>2026-05-03T13:27:37.564Z</time></trkpt><trkpt lat="41.021115" lon="16.1411467"><ele>563.0</ele><time>2026-05-03T13:27:38.563Z</time></trkpt><trkpt lat="41.0211567" lon="16.1409433"><ele>563.0</ele><time>2026-05-03T13:27:39.563Z</time></trkpt><trkpt lat="41.0212033" lon="16.1407433"><ele>563.0</ele><time>2026-05-03T13:27:40.564Z</time></trkpt><trkpt lat="41.02125" lon="16.1405383"><ele>563.0</ele><time>2026-05-03T13:27:41.564Z</time></trkpt><trkpt lat="41.0213" lon="16.1403217"><ele>562.6666666666666</ele><time>2026-05-03T13:27:42.563Z</time></trkpt><trkpt lat="41.0213483" lon="16.1401133"><ele>562.3333333333334</ele><time>2026-05-03T13:27:43.564Z</time></trkpt><trkpt lat="41.0214" lon="16.139915"><ele>562.0</ele><time>2026-05-03T13:27:44.564Z</time></trkpt><trkpt lat="41.021445" lon="16.1397317"><ele>561.5</ele><time>2026-05-03T13:27:45.563Z</time></trkpt><trkpt lat="41.0214867" lon="16.139555"><ele>561.0</ele><time>2026-05-03T13:27:46.563Z</time></trkpt><trkpt lat="41.021525" lon="16.139385"><ele>560.5</ele><time>2026-05-03T13:27:47.564Z</time></trkpt><trkpt lat="41.0215583" lon="16.1392267"><ele>560.0</ele><time>2026-05-03T13:27:48.563Z</time></trkpt><trkpt lat="41.0215983" lon="16.1390667"><ele>559.0</ele><time>2026-05-03T13:27:49.563Z</time></trkpt><trkpt lat="41.0216533" lon="16.13891"><ele>558.0</ele><time>2026-05-03T13:27:50.564Z</time></trkpt><trkpt lat="41.021725" lon="16.1387617"><ele>557.0</ele><time>2026-05-03T13:27:51.563Z</time></trkpt><trkpt lat="41.0218083" lon="16.13861"><ele>556.0</ele><time>2026-05-03T13:27:52.563Z</time></trkpt><trkpt lat="41.0218967" lon="16.1384567"><ele>556.0</ele><time>2026-05-03T13:27:53.563Z</time></trkpt><trkpt lat="41.0219717" lon="16.1383083"><ele>556.0</ele><time>2026-05-03T13:27:54.563Z</time></trkpt><trkpt lat="41.0220633" lon="16.1381667"><ele>556.0</ele><time>2026-05-03T13:27:55.563Z</time></trkpt><trkpt lat="41.02214" lon="16.1380267"><ele>556.0</ele><time>2026-05-03T13:27:56.563Z</time></trkpt><trkpt lat="41.0222167" lon="16.1378883"><ele>556.2</ele><time>2026-05-03T13:27:57.563Z</time></trkpt><trkpt lat="41.0222817" lon="16.137765"><ele>556.4000000000001</ele><time>2026-05-03T13:27:58.563Z</time></trkpt><trkpt lat="41.022345" lon="16.1376483"><ele>556.6</ele><time>2026-05-03T13:27:59.563Z</time></trkpt><trkpt lat="41.0224083" lon="16.1375317"><ele>556.8000000000001</ele><time>2026-05-03T13:28:00.564Z</time></trkpt><trkpt lat="41.0224683" lon="16.1374083"><ele>557.0</ele><time>2026-05-03T13:28:01.563Z</time></trkpt><trkpt lat="41.0225433" lon="16.1372767"><ele>557.0</ele><time>2026-05-03T13:28:02.563Z</time></trkpt><trkpt lat="41.02261" lon="16.1371317"><ele>557.0</ele><time>2026-05-03T13:28:03.563Z</time></trkpt><trkpt lat="41.02269" lon="16.1369883"><ele>557.0</ele><time>2026-05-03T13:28:04.563Z</time></trkpt><trkpt lat="41.0227667" lon="16.1368467"><ele>557.0</ele><time>2026-05-03T13:28:05.563Z</time></trkpt><trkpt lat="41.0228483" lon="16.1367017"><ele>557.0</ele><time>2026-05-03T13:28:06.563Z</time></trkpt><trkpt lat="41.0229317" lon="16.1365533"><ele>557.0</ele><time>2026-05-03T13:28:07.563Z</time></trkpt><trkpt lat="41.0230183" lon="16.1364067"><ele>557.0</ele><time>2026-05-03T13:28:08.563Z</time></trkpt><trkpt lat="41.0231017" lon="16.1362517"><ele>557.0</ele><time>2026-05-03T13:28:09.563Z</time></trkpt><trkpt lat="41.0231833" lon="16.13609"><ele>557.0</ele><time>2026-05-03T13:28:10.563Z</time></trkpt><trkpt lat="41.0232717" lon="16.1359367"><ele>557.0</ele><time>2026-05-03T13:28:11.563Z</time></trkpt><trkpt lat="41.0233583" lon="16.135765"><ele>557.0</ele><time>2026-05-03T13:28:12.564Z</time></trkpt><trkpt lat="41.0234417" lon="16.1355933"><ele>557.0</ele><time>2026-05-03T13:28:13.563Z</time></trkpt><trkpt lat="41.0235233" lon="16.1354217"><ele>557.0</ele><time>2026-05-03T13:28:14.564Z</time></trkpt><trkpt lat="41.02361" lon="16.1352533"><ele>557.0</ele><time>2026-05-03T13:28:15.564Z</time></trkpt><trkpt lat="41.0237167" lon="16.1351017"><ele>557.0</ele><time>2026-05-03T13:28:16.563Z</time></trkpt><trkpt lat="41.0237967" lon="16.1349467"><ele>557.0</ele><time>2026-05-03T13:28:17.563Z</time></trkpt><trkpt lat="41.0238633" lon="16.134795"><ele>557.0</ele><time>2026-05-03T13:28:18.563Z</time></trkpt><trkpt lat="41.02393" lon="16.1346683"><ele>557.0</ele><time>2026-05-03T13:28:19.563Z</time></trkpt><trkpt lat="41.02397" lon="16.1345833"><ele>557.0</ele><time>2026-05-03T13:28:20.563Z</time></trkpt><trkpt lat="41.0240017" lon="16.134505"><ele>557.0</ele><time>2026-05-03T13:28:21.563Z</time></trkpt><trkpt lat="41.024015" lon="16.13442"><ele>557.0</ele><time>2026-05-03T13:28:23.563Z</time></trkpt><trkpt lat="41.02401" lon="16.1343317"><ele>557.0</ele><time>2026-05-03T13:28:27.563Z</time></trkpt><trkpt lat="41.0239333" lon="16.13431"><ele>557.0</ele><time>2026-05-03T13:29:08.564Z</time></trkpt><trkpt lat="41.02396" lon="16.1343883"><ele>557.0</ele><time>2026-05-03T13:29:22.563Z</time></trkpt><trkpt lat="41.0240183" lon="16.1344417"><ele>557.0</ele><time>2026-05-03T13:29:26.564Z</time></trkpt><trkpt lat="41.0240317" lon="16.1343583"><ele>557.0</ele><time>2026-05-03T13:29:31.563Z</time></trkpt><trkpt lat="41.023965" lon="16.134315"><ele>557.0</ele><time>2026-05-03T13:29:34.563Z</time></trkpt><trkpt lat="41.0238883" lon="16.1342717"><ele>557.0</ele><time>2026-05-03T13:29:36.564Z</time></trkpt><trkpt lat="41.0238133" lon="16.1342567"><ele>557.0</ele><time>2026-05-03T13:29:38.563Z</time></trkpt><trkpt lat="41.0237367" lon="16.1342383"><ele>557.0</ele><time>2026-05-03T13:29:41.563Z</time></trkpt><trkpt lat="41.0236633" lon="16.134225"><ele>557.0</ele><time>2026-05-03T13:29:44.563Z</time></trkpt><trkpt lat="41.0235783" lon="16.1342167"><ele>557.0</ele><time>2026-05-03T13:29:46.563Z</time></trkpt><trkpt lat="41.0234467" lon="16.13421"><ele>557.0</ele><time>2026-05-03T13:29:48.563Z</time></trkpt><trkpt lat="41.0233717" lon="16.1342083"><ele>557.0</ele><time>2026-05-03T13:29:49.564Z</time></trkpt><trkpt lat="41.0232817" lon="16.1342033"><ele>557.0</ele><time>2026-05-03T13:29:50.563Z</time></trkpt><trkpt lat="41.0231867" lon="16.1341817"><ele>557.0</ele><time>2026-05-03T13:29:51.563Z</time></trkpt><trkpt lat="41.0230883" lon="16.134165"><ele>557.0</ele><time>2026-05-03T13:29:52.564Z</time></trkpt><trkpt lat="41.0229983" lon="16.1341567"><ele>557.0</ele><time>2026-05-03T13:29:53.563Z</time></trkpt><trkpt lat="41.02291" lon="16.1341517"><ele>557.0</ele><time>2026-05-03T13:29:54.563Z</time></trkpt><trkpt lat="41.0228283" lon="16.13415"><ele>557.0</ele><time>2026-05-03T13:29:55.563Z</time></trkpt><trkpt lat="41.02276" lon="16.1341467"><ele>557.0</ele><time>2026-05-03T13:29:56.563Z</time></trkpt><trkpt lat="41.0226917" lon="16.13414"><ele>557.0</ele><time>2026-05-03T13:29:57.563Z</time></trkpt><trkpt lat="41.0226267" lon="16.1341333"><ele>557.0</ele><time>2026-05-03T13:29:58.563Z</time></trkpt><trkpt lat="41.02256" lon="16.134125"><ele>557.0</ele><time>2026-05-03T13:29:59.563Z</time></trkpt><trkpt lat="41.0224417" lon="16.13411"><ele>557.0</ele><time>2026-05-03T13:30:01.563Z</time></trkpt><trkpt lat="41.0223317" lon="16.1341067"><ele>557.0</ele><time>2026-05-03T13:30:03.564Z</time></trkpt><trkpt lat="41.0222683" lon="16.1341017"><ele>557.0</ele><time>2026-05-03T13:30:04.563Z</time></trkpt><trkpt lat="41.0221583" lon="16.1340767"><ele>556.2</ele><time>2026-05-03T13:30:06.563Z</time></trkpt><trkpt lat="41.0220767" lon="16.1340367"><ele>555.4000000000001</ele><time>2026-05-03T13:30:08.563Z</time></trkpt><trkpt lat="41.0220233" lon="16.13395"><ele>554.5999999999999</ele><time>2026-05-03T13:30:18.562Z</time></trkpt><trkpt lat="41.0219617" lon="16.1338"><ele>553.8</ele><time>2026-05-03T13:30:20.563Z</time></trkpt><trkpt lat="41.021935" lon="16.133695"><ele>553.0</ele><time>2026-05-03T13:30:21.563Z</time></trkpt><trkpt lat="41.021915" lon="16.1335867"><ele>553.0</ele><time>2026-05-03T13:30:22.564Z</time></trkpt><trkpt lat="41.0218933" lon="16.13349"><ele>553.0</ele><time>2026-05-03T13:30:23.563Z</time></trkpt><trkpt lat="41.0218667" lon="16.1334033"><ele>553.0</ele><time>2026-05-03T13:30:24.564Z</time></trkpt><trkpt lat="41.0218383" lon="16.1333233"><ele>553.0</ele><time>2026-05-03T13:30:25.564Z</time></trkpt><trkpt lat="41.0217933" lon="16.1331867"><ele>553.0</ele><time>2026-05-03T13:30:27.564Z</time></trkpt><trkpt lat="41.021775" lon="16.1331067"><ele>553.0</ele><time>2026-05-03T13:30:28.564Z</time></trkpt><trkpt lat="41.021755" lon="16.1330267"><ele>551.6666666666667</ele><time>2026-05-03T13:30:29.564Z</time></trkpt><trkpt lat="41.021735" lon="16.132875"><ele>550.3333333333334</ele><time>2026-05-03T13:30:31.563Z</time></trkpt><trkpt lat="41.0217417" lon="16.132715"><ele>549.0</ele><time>2026-05-03T13:30:33.563Z</time></trkpt><trkpt lat="41.0217517" lon="16.1326267"><ele>547.6666666666666</ele><time>2026-05-03T13:30:34.563Z</time></trkpt><trkpt lat="41.0217717" lon="16.1325417"><ele>546.3333333333333</ele><time>2026-05-03T13:30:35.564Z</time></trkpt><trkpt lat="41.0217917" lon="16.13246"><ele>545.0</ele><time>2026-05-03T13:30:36.563Z</time></trkpt><trkpt lat="41.0218083" lon="16.132375"><ele>542.5</ele><time>2026-05-03T13:30:37.563Z</time></trkpt><trkpt lat="41.02182" lon="16.1322917"><ele>540.0</ele><time>2026-05-03T13:30:38.564Z</time></trkpt><trkpt lat="41.0218333" lon="16.1322067"><ele>537.5</ele><time>2026-05-03T13:30:39.564Z</time></trkpt><trkpt lat="41.0218483" lon="16.1321217"><ele>535.0</ele><time>2026-05-03T13:30:40.563Z</time></trkpt><trkpt lat="41.02189" lon="16.1319617"><ele>532.5</ele><time>2026-05-03T13:30:42.563Z</time></trkpt><trkpt lat="41.0219033" lon="16.1318767"><ele>530.0</ele><time>2026-05-03T13:30:43.564Z</time></trkpt><trkpt lat="41.02192" lon="16.1317933"><ele>530.0</ele><time>2026-05-03T13:30:44.563Z</time></trkpt><trkpt lat="41.0219383" lon="16.1317083"><ele>530.0</ele><time>2026-05-03T13:30:45.563Z</time></trkpt><trkpt lat="41.0219583" lon="16.131625"><ele>530.0</ele><time>2026-05-03T13:30:46.563Z</time></trkpt><trkpt lat="41.021995" lon="16.13148"><ele>530.0</ele><time>2026-05-03T13:30:48.564Z</time></trkpt><trkpt lat="41.0220017" lon="16.131395"><ele>530.0</ele><time>2026-05-03T13:30:50.563Z</time></trkpt><trkpt lat="41.0219633" lon="16.1315217"><ele>530.0</ele><time>2026-05-03T13:31:11.564Z</time></trkpt><trkpt lat="41.0219533" lon="16.1316067"><ele>530.0</ele><time>2026-05-03T13:31:12.563Z</time></trkpt><trkpt lat="41.0219333" lon="16.131705"><ele>530.0</ele><time>2026-05-03T13:31:13.564Z</time></trkpt><trkpt lat="41.0219117" lon="16.1318017"><ele>530.0</ele><time>2026-05-03T13:31:14.564Z</time></trkpt><trkpt lat="41.0218883" lon="16.1319033"><ele>530.0</ele><time>2026-05-03T13:31:15.563Z</time></trkpt><trkpt lat="41.0218683" lon="16.132015"><ele>530.0</ele><time>2026-05-03T13:31:16.563Z</time></trkpt><trkpt lat="41.0218483" lon="16.132125"><ele>530.0</ele><time>2026-05-03T13:31:17.563Z</time></trkpt><trkpt lat="41.0218283" lon="16.132235"><ele>530.0</ele><time>2026-05-03T13:31:18.564Z</time></trkpt><trkpt lat="41.0218" lon="16.1323433"><ele>530.0</ele><time>2026-05-03T13:31:19.563Z</time></trkpt><trkpt lat="41.0217767" lon="16.132455"><ele>530.0</ele><time>2026-05-03T13:31:20.563Z</time></trkpt><trkpt lat="41.0217517" lon="16.1325633"><ele>530.0</ele><time>2026-05-03T13:31:21.564Z</time></trkpt><trkpt lat="41.0217317" lon="16.1326733"><ele>530.0</ele><time>2026-05-03T13:31:22.563Z</time></trkpt><trkpt lat="41.0217183" lon="16.1327783"><ele>530.0</ele><time>2026-05-03T13:31:23.564Z</time></trkpt><trkpt lat="41.0217133" lon="16.1328867"><ele>533.0</ele><time>2026-05-03T13:31:24.563Z</time></trkpt><trkpt lat="41.0217267" lon="16.1329983"><ele>536.0</ele><time>2026-05-03T13:31:25.563Z</time></trkpt><trkpt lat="41.02176" lon="16.1331083"><ele>539.0</ele><time>2026-05-03T13:31:26.564Z</time></trkpt><trkpt lat="41.0217967" lon="16.1332233"><ele>542.0</ele><time>2026-05-03T13:31:27.563Z</time></trkpt><trkpt lat="41.0218317" lon="16.1333417"><ele>545.0</ele><time>2026-05-03T13:31:28.564Z</time></trkpt><trkpt lat="41.021865" lon="16.1334633"><ele>546.3333333333333</ele><time>2026-05-03T13:31:29.564Z</time></trkpt><trkpt lat="41.0218967" lon="16.1335833"><ele>547.6666666666666</ele><time>2026-05-03T13:31:30.563Z</time></trkpt><trkpt lat="41.0219367" lon="16.1336967"><ele>549.0</ele><time>2026-05-03T13:31:31.564Z</time></trkpt><trkpt lat="41.0219683" lon="16.1338"><ele>550.3333333333334</ele><time>2026-05-03T13:31:32.563Z</time></trkpt><trkpt lat="41.02201" lon="16.133935"><ele>551.6666666666667</ele><time>2026-05-03T13:31:34.564Z</time></trkpt><trkpt lat="41.022005" lon="16.13402"><ele>553.0</ele><time>2026-05-03T13:31:36.563Z</time></trkpt><trkpt lat="41.0219233" lon="16.13406"><ele>553.0</ele><time>2026-05-03T13:31:38.563Z</time></trkpt><trkpt lat="41.0218533" lon="16.1340517"><ele>553.0</ele><time>2026-05-03T13:31:39.563Z</time></trkpt><trkpt lat="41.0217767" lon="16.1340383"><ele>553.0</ele><time>2026-05-03T13:31:40.563Z</time></trkpt><trkpt lat="41.0216883" lon="16.1340233"><ele>553.0</ele><time>2026-05-03T13:31:41.563Z</time></trkpt><trkpt lat="41.0215917" lon="16.13401"><ele>553.0</ele><time>2026-05-03T13:31:42.564Z</time></trkpt><trkpt lat="41.0214933" lon="16.1340017"><ele>553.0</ele><time>2026-05-03T13:31:43.563Z</time></trkpt><trkpt lat="41.0214" lon="16.13399"><ele>553.1999999999999</ele><time>2026-05-03T13:31:44.563Z</time></trkpt><trkpt lat="41.0212983" lon="16.1339767"><ele>553.4</ele><time>2026-05-03T13:31:45.563Z</time></trkpt><trkpt lat="41.0211967" lon="16.1339633"><ele>553.5999999999999</ele><time>2026-05-03T13:31:46.564Z</time></trkpt><trkpt lat="41.02111" lon="16.1339533"><ele>553.8</ele><time>2026-05-03T13:31:47.563Z</time></trkpt><trkpt lat="41.02104" lon="16.1339417"><ele>554.0</ele><time>2026-05-03T13:31:48.563Z</time></trkpt><trkpt lat="41.0209283" lon="16.133905"><ele>554.0</ele><time>2026-05-03T13:31:50.564Z</time></trkpt><trkpt lat="41.0208417" lon="16.1338883"><ele>554.0</ele><time>2026-05-03T13:31:52.563Z</time></trkpt><trkpt lat="41.02074" lon="16.133885"><ele>554.0</ele><time>2026-05-03T13:32:41.563Z</time></trkpt><trkpt lat="41.020625" lon="16.1338533"><ele>554.0</ele><time>2026-05-03T13:32:43.564Z</time></trkpt><trkpt lat="41.020545" lon="16.1338233"><ele>554.0</ele><time>2026-05-03T13:32:45.563Z</time></trkpt><trkpt lat="41.0204833" lon="16.133805"><ele>554.0</ele><time>2026-05-03T13:32:47.563Z</time></trkpt><trkpt lat="41.0205517" lon="16.1338433"><ele>554.0</ele><time>2026-05-03T13:33:05.564Z</time></trkpt><trkpt lat="41.0206483" lon="16.1338367"><ele>554.0</ele><time>2026-05-03T13:33:07.563Z</time></trkpt><trkpt lat="41.020755" lon="16.13387"><ele>554.0</ele><time>2026-05-03T13:33:09.563Z</time></trkpt><trkpt lat="41.020815" lon="16.1339083"><ele>554.0</ele><time>2026-05-03T13:33:10.564Z</time></trkpt><trkpt lat="41.02088" lon="16.1339217"><ele>554.0</ele><time>2026-05-03T13:33:11.563Z</time></trkpt><trkpt lat="41.0209567" lon="16.133935"><ele>554.0</ele><time>2026-05-03T13:33:12.563Z</time></trkpt><trkpt lat="41.0210417" lon="16.1339533"><ele>554.0</ele><time>2026-05-03T13:33:13.563Z</time></trkpt><trkpt lat="41.0211383" lon="16.1339733"><ele>554.0</ele><time>2026-05-03T13:33:14.563Z</time></trkpt><trkpt lat="41.0212467" lon="16.1339883"><ele>554.0</ele><time>2026-05-03T13:33:15.564Z</time></trkpt><trkpt lat="41.0213567" lon="16.1340067"><ele>554.0</ele><time>2026-05-03T13:33:16.564Z</time></trkpt><trkpt lat="41.0214683" lon="16.1340317"><ele>554.0</ele><time>2026-05-03T13:33:17.563Z</time></trkpt><trkpt lat="41.0215833" lon="16.1340383"><ele>554.0</ele><time>2026-05-03T13:33:18.563Z</time></trkpt><trkpt lat="41.0216983" lon="16.1340467"><ele>554.0</ele><time>2026-05-03T13:33:19.563Z</time></trkpt><trkpt lat="41.021805" lon="16.1340583"><ele>554.0</ele><time>2026-05-03T13:33:20.564Z</time></trkpt><trkpt lat="41.0218983" lon="16.13406"><ele>554.0</ele><time>2026-05-03T13:33:21.563Z</time></trkpt><trkpt lat="41.0219767" lon="16.1340533"><ele>553.8</ele><time>2026-05-03T13:33:22.564Z</time></trkpt><trkpt lat="41.0220567" lon="16.1340483"><ele>553.5999999999999</ele><time>2026-05-03T13:33:23.563Z</time></trkpt><trkpt lat="41.0221467" lon="16.13407"><ele>553.4</ele><time>2026-05-03T13:33:24.563Z</time></trkpt><trkpt lat="41.0222467" lon="16.1341033"><ele>553.1999999999999</ele><time>2026-05-03T13:33:25.563Z</time></trkpt><trkpt lat="41.0223583" lon="16.1341267"><ele>553.0</ele><time>2026-05-03T13:33:26.563Z</time></trkpt><trkpt lat="41.022475" lon="16.134135"><ele>554.0</ele><time>2026-05-03T13:33:27.563Z</time></trkpt><trkpt lat="41.0225967" lon="16.13414"><ele>555.0</ele><time>2026-05-03T13:33:28.564Z</time></trkpt><trkpt lat="41.0227233" lon="16.1341467"><ele>556.0</ele><time>2026-05-03T13:33:29.564Z</time></trkpt><trkpt lat="41.0228633" lon="16.13416"><ele>557.0</ele><time>2026-05-03T13:33:30.564Z</time></trkpt><trkpt lat="41.0230033" lon="16.1341733"><ele>557.0</ele><time>2026-05-03T13:33:31.563Z</time></trkpt><trkpt lat="41.02314" lon="16.13419"><ele>557.0</ele><time>2026-05-03T13:33:32.563Z</time></trkpt><trkpt lat="41.0232667" lon="16.1342033"><ele>557.0</ele><time>2026-05-03T13:33:33.563Z</time></trkpt><trkpt lat="41.0233817" lon="16.1342283"><ele>557.0</ele><time>2026-05-03T13:33:34.563Z</time></trkpt><trkpt lat="41.0234867" lon="16.1342417"><ele>557.0</ele><time>2026-05-03T13:33:35.563Z</time></trkpt><trkpt lat="41.0235783" lon="16.13425"><ele>557.0</ele><time>2026-05-03T13:33:36.563Z</time></trkpt><trkpt lat="41.0236617" lon="16.134255"><ele>557.0</ele><time>2026-05-03T13:33:37.563Z</time></trkpt><trkpt lat="41.0237333" lon="16.1342633"><ele>557.0</ele><time>2026-05-03T13:33:38.564Z</time></trkpt><trkpt lat="41.0238017" lon="16.1342717"><ele>557.0</ele><time>2026-05-03T13:33:39.563Z</time></trkpt><trkpt lat="41.0239367" lon="16.13428"><ele>557.0</ele><time>2026-05-03T13:33:42.564Z</time></trkpt><trkpt lat="41.0240317" lon="16.1343067"><ele>557.0</ele><time>2026-05-03T13:33:53.563Z</time></trkpt><trkpt lat="41.023935" lon="16.1343083"><ele>557.0</ele><time>2026-05-03T13:36:47.563Z</time></trkpt><trkpt lat="41.0238233" lon="16.1342317"><ele>557.0</ele><time>2026-05-03T13:36:49.563Z</time></trkpt><trkpt lat="41.02374" lon="16.1342117"><ele>557.0</ele><time>2026-05-03T13:36:50.563Z</time></trkpt><trkpt lat="41.023645" lon="16.134205"><ele>557.0</ele><time>2026-05-03T13:36:51.563Z</time></trkpt><trkpt lat="41.0235433" lon="16.1342"><ele>557.0</ele><time>2026-05-03T13:36:52.564Z</time></trkpt><trkpt lat="41.0234383" lon="16.1341917"><ele>557.0</ele><time>2026-05-03T13:36:53.563Z</time></trkpt><trkpt lat="41.0233267" lon="16.134185"><ele>557.0</ele><time>2026-05-03T13:36:54.563Z</time></trkpt><trkpt lat="41.02321" lon="16.1341733"><ele>557.0</ele><time>2026-05-03T13:36:55.563Z</time></trkpt><trkpt lat="41.023095" lon="16.13416"><ele>557.0</ele><time>2026-05-03T13:36:56.563Z</time></trkpt><trkpt lat="41.0229917" lon="16.1341467"><ele>557.0</ele><time>2026-05-03T13:36:57.564Z</time></trkpt><trkpt lat="41.0228867" lon="16.1341367"><ele>557.0</ele><time>2026-05-03T13:36:58.563Z</time></trkpt><trkpt lat="41.0227867" lon="16.134125"><ele>557.0</ele><time>2026-05-03T13:36:59.563Z</time></trkpt><trkpt lat="41.0226817" lon="16.1341067"><ele>557.0</ele><time>2026-05-03T13:37:00.563Z</time></trkpt><trkpt lat="41.02258" lon="16.1340983"><ele>557.0</ele><time>2026-05-03T13:37:01.563Z</time></trkpt><trkpt lat="41.022485" lon="16.1340917"><ele>557.0</ele><time>2026-05-03T13:37:02.564Z</time></trkpt><trkpt lat="41.0224" lon="16.1340833"><ele>557.0</ele><time>2026-05-03T13:37:03.564Z</time></trkpt><trkpt lat="41.02232" lon="16.1340867"><ele>557.0</ele><time>2026-05-03T13:37:04.563Z</time></trkpt><trkpt lat="41.022235" lon="16.134085"><ele>557.0</ele><time>2026-05-03T13:37:05.563Z</time></trkpt><trkpt lat="41.02217" lon="16.1340683"><ele>557.0</ele><time>2026-05-03T13:37:06.563Z</time></trkpt><trkpt lat="41.022105" lon="16.134045"><ele>556.2</ele><time>2026-05-03T13:37:07.563Z</time></trkpt><trkpt lat="41.022045" lon="16.134"><ele>555.4000000000001</ele><time>2026-05-03T13:37:08.563Z</time></trkpt><trkpt lat="41.0220033" lon="16.13392"><ele>554.5999999999999</ele><time>2026-05-03T13:37:09.563Z</time></trkpt><trkpt lat="41.02197" lon="16.1337983"><ele>553.8</ele><time>2026-05-03T13:37:10.564Z</time></trkpt><trkpt lat="41.02194" lon="16.133665"><ele>553.0</ele><time>2026-05-03T13:37:11.563Z</time></trkpt><trkpt lat="41.0219167" lon="16.1335233"><ele>553.0</ele><time>2026-05-03T13:37:12.564Z</time></trkpt><trkpt lat="41.0218717" lon="16.1333867"><ele>553.0</ele><time>2026-05-03T13:37:13.563Z</time></trkpt><trkpt lat="41.0218267" lon="16.1332467"><ele>553.0</ele><time>2026-05-03T13:37:14.564Z</time></trkpt><trkpt lat="41.02179" lon="16.1331067"><ele>553.0</ele><time>2026-05-03T13:37:15.564Z</time></trkpt><trkpt lat="41.0217567" lon="16.1329817"><ele>553.0</ele><time>2026-05-03T13:37:16.563Z</time></trkpt><trkpt lat="41.0217383" lon="16.1328683"><ele>551.4</ele><time>2026-05-03T13:37:17.564Z</time></trkpt><trkpt lat="41.0217333" lon="16.1327567"><ele>549.8</ele><time>2026-05-03T13:37:18.563Z</time></trkpt><trkpt lat="41.02175" lon="16.132625"><ele>548.2</ele><time>2026-05-03T13:37:19.563Z</time></trkpt><trkpt lat="41.02178" lon="16.1324817"><ele>546.6</ele><time>2026-05-03T13:37:20.563Z</time></trkpt><trkpt lat="41.0218167" lon="16.1323333"><ele>545.0</ele><time>2026-05-03T13:37:21.563Z</time></trkpt><trkpt lat="41.0218517" lon="16.1321817"><ele>541.25</ele><time>2026-05-03T13:37:22.563Z</time></trkpt><trkpt lat="41.021885" lon="16.1320283"><ele>537.5</ele><time>2026-05-03T13:37:23.563Z</time></trkpt><trkpt lat="41.0219183" lon="16.1318867"><ele>533.75</ele><time>2026-05-03T13:37:24.563Z</time></trkpt><trkpt lat="41.0219517" lon="16.13175"><ele>530.0</ele><time>2026-05-03T13:37:25.563Z</time></trkpt><trkpt lat="41.0219783" lon="16.1316083"><ele>527.6</ele><time>2026-05-03T13:37:26.563Z</time></trkpt><trkpt lat="41.0220117" lon="16.1314667"><ele>525.2</ele><time>2026-05-03T13:37:27.563Z</time></trkpt><trkpt lat="41.02204" lon="16.1313283"><ele>522.8</ele><time>2026-05-03T13:37:28.563Z</time></trkpt><trkpt lat="41.022065" lon="16.131185"><ele>520.4</ele><time>2026-05-03T13:37:29.563Z</time></trkpt><trkpt lat="41.02209" lon="16.13105"><ele>518.0</ele><time>2026-05-03T13:37:30.563Z</time></trkpt><trkpt lat="41.0221" lon="16.1309083"><ele>518.0</ele><time>2026-05-03T13:37:31.563Z</time></trkpt><trkpt lat="41.0220867" lon="16.1307633"><ele>518.0</ele><time>2026-05-03T13:37:32.563Z</time></trkpt><trkpt lat="41.0220667" lon="16.13061"><ele>518.0</ele><time>2026-05-03T13:37:33.563Z</time></trkpt><trkpt lat="41.0220333" lon="16.1304467"><ele>518.0</ele><time>2026-05-03T13:37:34.563Z</time></trkpt><trkpt lat="41.0219967" lon="16.130285"><ele>516.5</ele><time>2026-05-03T13:37:35.563Z</time></trkpt><trkpt lat="41.0219583" lon="16.1301267"><ele>515.0</ele><time>2026-05-03T13:37:36.563Z</time></trkpt><trkpt lat="41.0219217" lon="16.1299733"><ele>513.5</ele><time>2026-05-03T13:37:37.564Z</time></trkpt><trkpt lat="41.021885" lon="16.1298167"><ele>512.0</ele><time>2026-05-03T13:37:38.563Z</time></trkpt><trkpt lat="41.02185" lon="16.1296667"><ele>511.25</ele><time>2026-05-03T13:37:39.563Z</time></trkpt><trkpt lat="41.0218083" lon="16.129515"><ele>510.5</ele><time>2026-05-03T13:37:40.563Z</time></trkpt><trkpt lat="41.0217733" lon="16.12937"><ele>509.75</ele><time>2026-05-03T13:37:41.563Z</time></trkpt><trkpt lat="41.0217367" lon="16.1292167"><ele>509.0</ele><time>2026-05-03T13:37:42.564Z</time></trkpt><trkpt lat="41.021705" lon="16.1290717"><ele>508.25</ele><time>2026-05-03T13:37:43.564Z</time></trkpt><trkpt lat="41.0216783" lon="16.1289217"><ele>507.5</ele><time>2026-05-03T13:37:44.563Z</time></trkpt><trkpt lat="41.0216483" lon="16.1287667"><ele>506.75</ele><time>2026-05-03T13:37:45.563Z</time></trkpt><trkpt lat="41.0216167" lon="16.12861"><ele>506.0</ele><time>2026-05-03T13:37:46.563Z</time></trkpt><trkpt lat="41.0215817" lon="16.1284433"><ele>499.75</ele><time>2026-05-03T13:37:47.563Z</time></trkpt><trkpt lat="41.0215517" lon="16.1282817"><ele>493.5</ele><time>2026-05-03T13:37:48.564Z</time></trkpt><trkpt lat="41.02152" lon="16.1281267"><ele>487.25</ele><time>2026-05-03T13:37:49.564Z</time></trkpt><trkpt lat="41.0214817" lon="16.1279733"><ele>481.0</ele><time>2026-05-03T13:37:50.563Z</time></trkpt><trkpt lat="41.021455" lon="16.1278333"><ele>480.0</ele><time>2026-05-03T13:37:51.563Z</time></trkpt><trkpt lat="41.0214417" lon="16.1276983"><ele>479.0</ele><time>2026-05-03T13:37:52.563Z</time></trkpt><trkpt lat="41.0214383" lon="16.1275583"><ele>478.0</ele><time>2026-05-03T13:37:53.564Z</time></trkpt><trkpt lat="41.0214383" lon="16.1274117"><ele>477.0</ele><time>2026-05-03T13:37:54.563Z</time></trkpt><trkpt lat="41.0214417" lon="16.1272433"><ele>476.0</ele><time>2026-05-03T13:37:55.563Z</time></trkpt><trkpt lat="41.021455" lon="16.1270833"><ele>473.75</ele><time>2026-05-03T13:37:56.564Z</time></trkpt><trkpt lat="41.0214667" lon="16.126925"><ele>471.5</ele><time>2026-05-03T13:37:57.564Z</time></trkpt><trkpt lat="41.0214783" lon="16.1267633"><ele>469.25</ele><time>2026-05-03T13:37:58.563Z</time></trkpt><trkpt lat="41.02149" lon="16.1265967"><ele>467.0</ele><time>2026-05-03T13:37:59.563Z</time></trkpt><trkpt lat="41.0215067" lon="16.1264367"><ele>464.5</ele><time>2026-05-03T13:38:00.563Z</time></trkpt><trkpt lat="41.0215217" lon="16.1262733"><ele>462.0</ele><time>2026-05-03T13:38:01.563Z</time></trkpt><trkpt lat="41.0215433" lon="16.1261217"><ele>459.5</ele><time>2026-05-03T13:38:02.563Z</time></trkpt><trkpt lat="41.0215683" lon="16.12597"><ele>457.0</ele><time>2026-05-03T13:38:03.563Z</time></trkpt><trkpt lat="41.0216017" lon="16.1258217"><ele>455.6</ele><time>2026-05-03T13:38:04.563Z</time></trkpt><trkpt lat="41.0216267" lon="16.125675"><ele>454.20000000000005</ele><time>2026-05-03T13:38:05.563Z</time></trkpt><trkpt lat="41.021655" lon="16.1255383"><ele>452.8</ele><time>2026-05-03T13:38:06.564Z</time></trkpt><trkpt lat="41.0216833" lon="16.1254167"><ele>451.4</ele><time>2026-05-03T13:38:07.563Z</time></trkpt><trkpt lat="41.0217067" lon="16.1253017"><ele>450.0</ele><time>2026-05-03T13:38:08.563Z</time></trkpt><trkpt lat="41.0217167" lon="16.1251667"><ele>451.6</ele><time>2026-05-03T13:38:09.564Z</time></trkpt><trkpt lat="41.02172" lon="16.1250217"><ele>453.2</ele><time>2026-05-03T13:38:10.564Z</time></trkpt><trkpt lat="41.0217083" lon="16.1248883"><ele>454.79999999999995</ele><time>2026-05-03T13:38:11.564Z</time></trkpt><trkpt lat="41.021695" lon="16.1247533"><ele>456.4</ele><time>2026-05-03T13:38:12.563Z</time></trkpt><trkpt lat="41.0216917" lon="16.12463"><ele>458.0</ele><time>2026-05-03T13:38:13.564Z</time></trkpt><trkpt lat="41.021685" lon="16.124505"><ele>458.0</ele><time>2026-05-03T13:38:14.564Z</time></trkpt><trkpt lat="41.021685" lon="16.1243883"><ele>458.0</ele><time>2026-05-03T13:38:15.563Z</time></trkpt><trkpt lat="41.02169" lon="16.1242817"><ele>458.0</ele><time>2026-05-03T13:38:16.563Z</time></trkpt><trkpt lat="41.0217033" lon="16.12419"><ele>458.0</ele><time>2026-05-03T13:38:17.563Z</time></trkpt><trkpt lat="41.0217117" lon="16.1241067"><ele>458.0</ele><time>2026-05-03T13:38:18.563Z</time></trkpt><trkpt lat="41.021715" lon="16.1240117"><ele>458.0</ele><time>2026-05-03T13:38:19.563Z</time></trkpt><trkpt lat="41.021725" lon="16.1239233"><ele>458.0</ele><time>2026-05-03T13:38:20.564Z</time></trkpt><trkpt lat="41.021735" lon="16.1238283"><ele>456.99999999999994</ele><time>2026-05-03T13:38:21.563Z</time></trkpt><trkpt lat="41.0217483" lon="16.1236867"><ele>456.0</ele><time>2026-05-03T13:38:23.563Z</time></trkpt><trkpt lat="41.0217533" lon="16.12358"><ele>455.0</ele><time>2026-05-03T13:38:25.564Z</time></trkpt><trkpt lat="41.021765" lon="16.1234783"><ele>454.0</ele><time>2026-05-03T13:38:27.563Z</time></trkpt><trkpt lat="41.021755" lon="16.1233833"><ele>452.99999999999994</ele><time>2026-05-03T13:38:29.564Z</time></trkpt><trkpt lat="41.0217817" lon="16.1232717"><ele>452.0</ele><time>2026-05-03T13:38:53.563Z</time></trkpt><trkpt lat="41.02182" lon="16.1231333"><ele>451.20000000000005</ele><time>2026-05-03T13:38:55.563Z</time></trkpt><trkpt lat="41.0218467" lon="16.1230167"><ele>450.40000000000003</ele><time>2026-05-03T13:38:56.564Z</time></trkpt><trkpt lat="41.0218783" lon="16.12288"><ele>449.59999999999997</ele><time>2026-05-03T13:38:57.563Z</time></trkpt><trkpt lat="41.0219183" lon="16.12273"><ele>448.79999999999995</ele><time>2026-05-03T13:38:58.564Z</time></trkpt><trkpt lat="41.0219633" lon="16.12257"><ele>448.0</ele><time>2026-05-03T13:38:59.563Z</time></trkpt><trkpt lat="41.02201" lon="16.1224017"><ele>446.75</ele><time>2026-05-03T13:39:00.563Z</time></trkpt><trkpt lat="41.0220617" lon="16.1222283"><ele>445.5</ele><time>2026-05-03T13:39:01.563Z</time></trkpt><trkpt lat="41.02211" lon="16.12206"><ele>444.25</ele><time>2026-05-03T13:39:02.563Z</time></trkpt><trkpt lat="41.0221467" lon="16.1218883"><ele>443.0</ele><time>2026-05-03T13:39:03.563Z</time></trkpt><trkpt lat="41.0221917" lon="16.121705"><ele>441.75</ele><time>2026-05-03T13:39:04.563Z</time></trkpt><trkpt lat="41.0222483" lon="16.12152"><ele>440.5</ele><time>2026-05-03T13:39:05.564Z</time></trkpt><trkpt lat="41.0222967" lon="16.1213367"><ele>439.25</ele><time>2026-05-03T13:39:06.563Z</time></trkpt><trkpt lat="41.0223483" lon="16.121155"><ele>438.0</ele><time>2026-05-03T13:39:07.564Z</time></trkpt><trkpt lat="41.0223883" lon="16.1209833"><ele>438.0</ele><time>2026-05-03T13:39:08.564Z</time></trkpt><trkpt lat="41.02243" lon="16.12082"><ele>438.0</ele><time>2026-05-03T13:39:09.564Z</time></trkpt><trkpt lat="41.0224683" lon="16.1206567"><ele>438.0</ele><time>2026-05-03T13:39:10.563Z</time></trkpt><trkpt lat="41.0225133" lon="16.1204967"><ele>438.0</ele><time>2026-05-03T13:39:11.563Z</time></trkpt><trkpt lat="41.02256" lon="16.120345"><ele>438.25</ele><time>2026-05-03T13:39:12.563Z</time></trkpt><trkpt lat="41.0226017" lon="16.1201883"><ele>438.5</ele><time>2026-05-03T13:39:13.563Z</time></trkpt><trkpt lat="41.0226417" lon="16.12003"><ele>438.75</ele><time>2026-05-03T13:39:14.563Z</time></trkpt><trkpt lat="41.0226933" lon="16.1198667"><ele>439.0</ele><time>2026-05-03T13:39:15.563Z</time></trkpt><trkpt lat="41.0227433" lon="16.1196983"><ele>439.0</ele><time>2026-05-03T13:39:16.563Z</time></trkpt><trkpt lat="41.0227883" lon="16.119515"><ele>439.0</ele><time>2026-05-03T13:39:17.563Z</time></trkpt><trkpt lat="41.0228383" lon="16.1193317"><ele>439.0</ele><time>2026-05-03T13:39:18.564Z</time></trkpt><trkpt lat="41.02289" lon="16.1191383"><ele>439.0</ele><time>2026-05-03T13:39:19.563Z</time></trkpt><trkpt lat="41.0229483" lon="16.11893"><ele>437.6666666666667</ele><time>2026-05-03T13:39:20.564Z</time></trkpt><trkpt lat="41.0230067" lon="16.1187167"><ele>436.33333333333337</ele><time>2026-05-03T13:39:21.564Z</time></trkpt><trkpt lat="41.0230583" lon="16.1185033"><ele>435.0</ele><time>2026-05-03T13:39:22.564Z</time></trkpt><trkpt lat="41.0231217" lon="16.1182983"><ele>433.66666666666663</ele><time>2026-05-03T13:39:23.564Z</time></trkpt><trkpt lat="41.023185" lon="16.1180817"><ele>432.3333333333333</ele><time>2026-05-03T13:39:24.564Z</time></trkpt><trkpt lat="41.0232467" lon="16.117855"><ele>431.0</ele><time>2026-05-03T13:39:25.563Z</time></trkpt><trkpt lat="41.0232983" lon="16.11763"><ele>434.0</ele><time>2026-05-03T13:39:26.563Z</time></trkpt><trkpt lat="41.0233517" lon="16.1174183"><ele>437.0</ele><time>2026-05-03T13:39:27.563Z</time></trkpt><trkpt lat="41.0234" lon="16.1172117"><ele>440.0</ele><time>2026-05-03T13:39:28.564Z</time></trkpt><trkpt lat="41.0234667" lon="16.1170117"><ele>440.0</ele><time>2026-05-03T13:39:29.564Z</time></trkpt><trkpt lat="41.0235283" lon="16.1168083"><ele>440.0</ele><time>2026-05-03T13:39:30.564Z</time></trkpt><trkpt lat="41.023585" lon="16.11659"><ele>440.0</ele><time>2026-05-03T13:39:31.563Z</time></trkpt><trkpt lat="41.023645" lon="16.11638"><ele>438.66666666666663</ele><time>2026-05-03T13:39:32.564Z</time></trkpt><trkpt lat="41.0236967" lon="16.1161767"><ele>437.33333333333337</ele><time>2026-05-03T13:39:33.563Z</time></trkpt><trkpt lat="41.0237517" lon="16.1159667"><ele>436.0</ele><time>2026-05-03T13:39:34.564Z</time></trkpt><trkpt lat="41.023815" lon="16.1157767"><ele>434.33333333333337</ele><time>2026-05-03T13:39:35.563Z</time></trkpt><trkpt lat="41.0238717" lon="16.1155767"><ele>432.66666666666663</ele><time>2026-05-03T13:39:36.563Z</time></trkpt><trkpt lat="41.0239233" lon="16.11538"><ele>431.0</ele><time>2026-05-03T13:39:37.563Z</time></trkpt><trkpt lat="41.0239733" lon="16.115215"><ele>431.0</ele><time>2026-05-03T13:39:38.563Z</time></trkpt><trkpt lat="41.024015" lon="16.1150483"><ele>431.0</ele><time>2026-05-03T13:39:39.563Z</time></trkpt><trkpt lat="41.0240467" lon="16.1149067"><ele>431.0</ele><time>2026-05-03T13:39:40.563Z</time></trkpt><trkpt lat="41.0240783" lon="16.1147833"><ele>431.0</ele><time>2026-05-03T13:39:41.563Z</time></trkpt><trkpt lat="41.0241" lon="16.1146533"><ele>431.0</ele><time>2026-05-03T13:39:42.563Z</time></trkpt><trkpt lat="41.0241167" lon="16.114525"><ele>430.75</ele><time>2026-05-03T13:39:43.563Z</time></trkpt><trkpt lat="41.024135" lon="16.114395"><ele>430.5</ele><time>2026-05-03T13:39:44.564Z</time></trkpt><trkpt lat="41.02416" lon="16.1142517"><ele>430.25</ele><time>2026-05-03T13:39:45.563Z</time></trkpt><trkpt lat="41.0241817" lon="16.1140967"><ele>430.0</ele><time>2026-05-03T13:39:46.563Z</time></trkpt><trkpt lat="41.02421" lon="16.1139217"><ele>431.25</ele><time>2026-05-03T13:39:47.564Z</time></trkpt><trkpt lat="41.02423" lon="16.1137467"><ele>432.5</ele><time>2026-05-03T13:39:48.564Z</time></trkpt><trkpt lat="41.0242567" lon="16.1135683"><ele>433.75</ele><time>2026-05-03T13:39:49.563Z</time></trkpt><trkpt lat="41.02428" lon="16.1133767"><ele>435.0</ele><time>2026-05-03T13:39:50.564Z</time></trkpt><trkpt lat="41.0242983" lon="16.1131733"><ele>435.0</ele><time>2026-05-03T13:39:51.563Z</time></trkpt><trkpt lat="41.02433" lon="16.112985"><ele>435.0</ele><time>2026-05-03T13:39:52.563Z</time></trkpt><trkpt lat="41.02436" lon="16.11279"><ele>435.0</ele><time>2026-05-03T13:39:53.564Z</time></trkpt><trkpt lat="41.0243933" lon="16.1125783"><ele>434.0</ele><time>2026-05-03T13:39:54.564Z</time></trkpt><trkpt lat="41.0244283" lon="16.112375"><ele>433.0</ele><time>2026-05-03T13:39:55.564Z</time></trkpt><trkpt lat="41.0244567" lon="16.1121517"><ele>432.0</ele><time>2026-05-03T13:39:56.564Z</time></trkpt><trkpt lat="41.0244867" lon="16.1119517"><ele>432.0</ele><time>2026-05-03T13:39:57.563Z</time></trkpt><trkpt lat="41.024515" lon="16.1117533"><ele>432.0</ele><time>2026-05-03T13:39:58.564Z</time></trkpt><trkpt lat="41.0245383" lon="16.1115583"><ele>432.0</ele><time>2026-05-03T13:39:59.564Z</time></trkpt><trkpt lat="41.0245617" lon="16.1113533"><ele>431.5</ele><time>2026-05-03T13:40:00.564Z</time></trkpt><trkpt lat="41.0245933" lon="16.1111633"><ele>431.0</ele><time>2026-05-03T13:40:01.563Z</time></trkpt><trkpt lat="41.02462" lon="16.1109733"><ele>430.5</ele><time>2026-05-03T13:40:02.564Z</time></trkpt><trkpt lat="41.024645" lon="16.1108"><ele>430.0</ele><time>2026-05-03T13:40:03.563Z</time></trkpt><trkpt lat="41.0246667" lon="16.1106233"><ele>429.4</ele><time>2026-05-03T13:40:04.564Z</time></trkpt><trkpt lat="41.0246867" lon="16.1104933"><ele>428.8</ele><time>2026-05-03T13:40:05.563Z</time></trkpt><trkpt lat="41.024705" lon="16.1103667"><ele>428.20000000000005</ele><time>2026-05-03T13:40:06.564Z</time></trkpt><trkpt lat="41.02472" lon="16.1102567"><ele>427.6</ele><time>2026-05-03T13:40:07.563Z</time></trkpt><trkpt lat="41.0247483" lon="16.11014"><ele>427.0</ele><time>2026-05-03T13:40:08.563Z</time></trkpt><trkpt lat="41.0247967" lon="16.1100067"><ele>426.75</ele><time>2026-05-03T13:40:09.563Z</time></trkpt><trkpt lat="41.0248583" lon="16.1098717"><ele>426.5</ele><time>2026-05-03T13:40:10.563Z</time></trkpt><trkpt lat="41.02492" lon="16.10972"><ele>426.25</ele><time>2026-05-03T13:40:11.563Z</time></trkpt><trkpt lat="41.0249817" lon="16.1095733"><ele>426.0</ele><time>2026-05-03T13:40:12.563Z</time></trkpt><trkpt lat="41.025025" lon="16.10944"><ele>426.6666666666667</ele><time>2026-05-03T13:40:13.563Z</time></trkpt><trkpt lat="41.0250667" lon="16.10931"><ele>427.33333333333337</ele><time>2026-05-03T13:40:14.564Z</time></trkpt><trkpt lat="41.0251033" lon="16.1092017"><ele>428.0</ele><time>2026-05-03T13:40:15.564Z</time></trkpt><trkpt lat="41.0251233" lon="16.109105"><ele>428.6666666666667</ele><time>2026-05-03T13:40:16.563Z</time></trkpt><trkpt lat="41.0251317" lon="16.108995"><ele>429.33333333333337</ele><time>2026-05-03T13:40:18.564Z</time></trkpt><trkpt lat="41.025125" lon="16.10891"><ele>430.0</ele><time>2026-05-03T13:40:21.563Z</time></trkpt><trkpt lat="41.0251983" lon="16.10891"><ele>430.0</ele><time>2026-05-03T13:40:36.563Z</time></trkpt><trkpt lat="41.0252983" lon="16.1089267"><ele>430.0</ele><time>2026-05-03T13:40:49.563Z</time></trkpt><trkpt lat="41.0253767" lon="16.1089967"><ele>430.0</ele><time>2026-05-03T13:40:51.564Z</time></trkpt><trkpt lat="41.0254617" lon="16.1090783"><ele>430.0</ele><time>2026-05-03T13:40:53.563Z</time></trkpt><trkpt lat="41.0255533" lon="16.109175"><ele>430.0</ele><time>2026-05-03T13:40:55.563Z</time></trkpt><trkpt lat="41.025615" lon="16.1092417"><ele>430.0</ele><time>2026-05-03T13:40:57.563Z</time></trkpt><trkpt lat="41.0257083" lon="16.1092283"><ele>430.0</ele><time>2026-05-03T13:41:00.564Z</time></trkpt><trkpt lat="41.02576" lon="16.1091167"><ele>430.0</ele><time>2026-05-03T13:41:02.563Z</time></trkpt><trkpt lat="41.025805" lon="16.1089567"><ele>430.0</ele><time>2026-05-03T13:41:04.563Z</time></trkpt><trkpt lat="41.0258333" lon="16.10885"><ele>430.0</ele><time>2026-05-03T13:41:05.563Z</time></trkpt><trkpt lat="41.0258633" lon="16.108745"><ele>430.83333333333337</ele><time>2026-05-03T13:41:06.564Z</time></trkpt><trkpt lat="41.02589" lon="16.1086467"><ele>431.6666666666667</ele><time>2026-05-03T13:41:07.563Z</time></trkpt><trkpt lat="41.02591" lon="16.10855"><ele>432.5</ele><time>2026-05-03T13:41:08.563Z</time></trkpt><trkpt lat="41.0259367" lon="16.1084083"><ele>433.33333333333337</ele><time>2026-05-03T13:41:10.563Z</time></trkpt><trkpt lat="41.0259667" lon="16.1082983"><ele>434.1666666666667</ele><time>2026-05-03T13:41:12.564Z</time></trkpt><trkpt lat="41.0259917" lon="16.1082033"><ele>435.0</ele><time>2026-05-03T13:41:15.563Z</time></trkpt><trkpt lat="41.0260433" lon="16.1080917"><ele>435.0</ele><time>2026-05-03T13:41:18.564Z</time></trkpt><trkpt lat="41.0260783" lon="16.1080017"><ele>435.0</ele><time>2026-05-03T13:41:20.563Z</time></trkpt><trkpt lat="41.0261133" lon="16.1078933"><ele>435.0</ele><time>2026-05-03T13:41:22.563Z</time></trkpt><trkpt lat="41.02615" lon="16.1077367"><ele>435.0</ele><time>2026-05-03T13:41:24.563Z</time></trkpt><trkpt lat="41.0261683" lon="16.1076517"><ele>435.0</ele><time>2026-05-03T13:41:25.563Z</time></trkpt><trkpt lat="41.026205" lon="16.1075067"><ele>434.7142857142857</ele><time>2026-05-03T13:41:27.563Z</time></trkpt><trkpt lat="41.0262333" lon="16.10739"><ele>434.42857142857144</ele><time>2026-05-03T13:41:29.563Z</time></trkpt><trkpt lat="41.026265" lon="16.1073117"><ele>434.1428571428571</ele><time>2026-05-03T13:41:31.563Z</time></trkpt><trkpt lat="41.0262867" lon="16.1072333"><ele>433.8571428571429</ele><time>2026-05-03T13:41:33.564Z</time></trkpt><trkpt lat="41.0262933" lon="16.1071367"><ele>433.57142857142856</ele><time>2026-05-03T13:41:47.564Z</time></trkpt><trkpt lat="41.0263133" lon="16.1070383"><ele>433.2857142857143</ele><time>2026-05-03T13:41:50.563Z</time></trkpt><trkpt lat="41.0262617" lon="16.1069717"><ele>433.0</ele><time>2026-05-03T13:42:09.563Z</time></trkpt><trkpt lat="41.0262717" lon="16.1070783"><ele>433.00000000000006</ele><time>2026-05-03T13:42:12.563Z</time></trkpt><trkpt lat="41.0263317" lon="16.1069867"><ele>433.0</ele><time>2026-05-03T13:42:44.563Z</time></trkpt><trkpt lat="41.0262817" lon="16.10693"><ele>433.0</ele><time>2026-05-03T13:42:48.563Z</time></trkpt><trkpt lat="41.026255" lon="16.10705"><ele>433.0</ele><time>2026-05-03T13:42:52.563Z</time></trkpt><trkpt lat="41.0262517" lon="16.10715"><ele>433.00000000000006</ele><time>2026-05-03T13:42:54.564Z</time></trkpt><trkpt lat="41.0262883" lon="16.1072583"><ele>433.0</ele><time>2026-05-03T13:43:16.563Z</time></trkpt><trkpt lat="41.0263583" lon="16.1072217"><ele>433.0</ele><time>2026-05-03T13:43:20.563Z</time></trkpt><trkpt lat="41.0263783" lon="16.1071067"><ele>432.99999999999994</ele><time>2026-05-03T13:43:22.564Z</time></trkpt><trkpt lat="41.0263983" lon="16.1069917"><ele>432.99999999999994</ele><time>2026-05-03T13:43:24.564Z</time></trkpt><trkpt lat="41.0264283" lon="16.1068767"><ele>433.0</ele><time>2026-05-03T13:43:26.564Z</time></trkpt><trkpt lat="41.026465" lon="16.1067483"><ele>433.0</ele><time>2026-05-03T13:43:28.563Z</time></trkpt><trkpt lat="41.026505" lon="16.1066233"><ele>432.5</ele><time>2026-05-03T13:43:30.563Z</time></trkpt><trkpt lat="41.026555" lon="16.1064883"><ele>432.0</ele><time>2026-05-03T13:43:32.563Z</time></trkpt><trkpt lat="41.0265967" lon="16.10635"><ele>431.5</ele><time>2026-05-03T13:43:34.563Z</time></trkpt><trkpt lat="41.0266317" lon="16.106205"><ele>431.0</ele><time>2026-05-03T13:43:36.563Z</time></trkpt><trkpt lat="41.0266667" lon="16.1060583"><ele>432.49999999999994</ele><time>2026-05-03T13:43:38.564Z</time></trkpt><trkpt lat="41.0267017" lon="16.1059267"><ele>434.0</ele><time>2026-05-03T13:43:40.563Z</time></trkpt><trkpt lat="41.0267433" lon="16.1058333"><ele>435.5</ele><time>2026-05-03T13:43:42.563Z</time></trkpt><trkpt lat="41.026795" lon="16.1057833"><ele>437.0</ele><time>2026-05-03T13:43:44.563Z</time></trkpt><trkpt lat="41.0268633" lon="16.1057933"><ele>438.49999999999994</ele><time>2026-05-03T13:43:46.563Z</time></trkpt><trkpt lat="41.0269533" lon="16.105825"><ele>440.0</ele><time>2026-05-03T13:43:48.563Z</time></trkpt><trkpt lat="41.0270583" lon="16.1058483"><ele>440.0</ele><time>2026-05-03T13:43:50.563Z</time></trkpt><trkpt lat="41.0271817" lon="16.1058767"><ele>440.0</ele><time>2026-05-03T13:43:52.564Z</time></trkpt><trkpt lat="41.0272567" lon="16.10591"><ele>440.0</ele><time>2026-05-03T13:43:54.563Z</time></trkpt><trkpt lat="41.0273217" lon="16.1058167"><ele>440.0</ele><time>2026-05-03T13:43:58.563Z</time></trkpt><trkpt lat="41.0273333" lon="16.1056567"><ele>440.0</ele><time>2026-05-03T13:44:00.564Z</time></trkpt><trkpt lat="41.0273417" lon="16.1055717"><ele>439.66666666666663</ele><time>2026-05-03T13:44:01.564Z</time></trkpt><trkpt lat="41.027345" lon="16.1054733"><ele>439.3333333333333</ele><time>2026-05-03T13:44:02.563Z</time></trkpt><trkpt lat="41.0273517" lon="16.1053683"><ele>439.0</ele><time>2026-05-03T13:44:03.564Z</time></trkpt><trkpt lat="41.02737" lon="16.10526"><ele>438.66666666666663</ele><time>2026-05-03T13:44:04.563Z</time></trkpt><trkpt lat="41.027385" lon="16.1051567"><ele>438.3333333333333</ele><time>2026-05-03T13:44:05.563Z</time></trkpt><trkpt lat="41.0273983" lon="16.10504"><ele>438.0</ele><time>2026-05-03T13:44:06.563Z</time></trkpt><trkpt lat="41.0274067" lon="16.104935"><ele>437.5</ele><time>2026-05-03T13:44:07.563Z</time></trkpt><trkpt lat="41.0274167" lon="16.1048383"><ele>437.0</ele><time>2026-05-03T13:44:08.563Z</time></trkpt><trkpt lat="41.0274317" lon="16.10474"><ele>436.5</ele><time>2026-05-03T13:44:09.563Z</time></trkpt><trkpt lat="41.0274467" lon="16.1046333"><ele>436.0</ele><time>2026-05-03T13:44:10.563Z</time></trkpt><trkpt lat="41.0274633" lon="16.1045217"><ele>435.5</ele><time>2026-05-03T13:44:11.563Z</time></trkpt><trkpt lat="41.027475" lon="16.1044067"><ele>435.0</ele><time>2026-05-03T13:44:12.564Z</time></trkpt><trkpt lat="41.0274917" lon="16.1043"><ele>436.1666666666667</ele><time>2026-05-03T13:44:13.564Z</time></trkpt><trkpt lat="41.0275067" lon="16.1041883"><ele>437.33333333333337</ele><time>2026-05-03T13:44:14.563Z</time></trkpt><trkpt lat="41.0275183" lon="16.1040733"><ele>438.5</ele><time>2026-05-03T13:44:15.564Z</time></trkpt><trkpt lat="41.02753" lon="16.1039667"><ele>439.6666666666667</ele><time>2026-05-03T13:44:16.564Z</time></trkpt><trkpt lat="41.0275417" lon="16.10386"><ele>440.83333333333337</ele><time>2026-05-03T13:44:17.563Z</time></trkpt><trkpt lat="41.0275633" lon="16.1037533"><ele>442.0</ele><time>2026-05-03T13:44:18.563Z</time></trkpt><trkpt lat="41.0275767" lon="16.1036417"><ele>442.00000000000006</ele><time>2026-05-03T13:44:19.564Z</time></trkpt><trkpt lat="41.0275883" lon="16.1035317"><ele>442.0</ele><time>2026-05-03T13:44:20.564Z</time></trkpt><trkpt lat="41.0276" lon="16.1034183"><ele>442.0</ele><time>2026-05-03T13:44:21.563Z</time></trkpt><trkpt lat="41.02761" lon="16.103305"><ele>442.0</ele><time>2026-05-03T13:44:22.563Z</time></trkpt><trkpt lat="41.0276217" lon="16.103185"><ele>442.00000000000006</ele><time>2026-05-03T13:44:23.563Z</time></trkpt><trkpt lat="41.02764" lon="16.10307"><ele>442.0</ele><time>2026-05-03T13:44:24.564Z</time></trkpt><trkpt lat="41.0276533" lon="16.1029617"><ele>441.50000000000006</ele><time>2026-05-03T13:44:25.563Z</time></trkpt><trkpt lat="41.027665" lon="16.1028567"><ele>441.0</ele><time>2026-05-03T13:44:26.563Z</time></trkpt><trkpt lat="41.0276783" lon="16.102745"><ele>440.5</ele><time>2026-05-03T13:44:27.563Z</time></trkpt><trkpt lat="41.0276883" lon="16.1026433"><ele>440.0</ele><time>2026-05-03T13:44:28.563Z</time></trkpt><trkpt lat="41.0277" lon="16.1025317"><ele>439.50000000000006</ele><time>2026-05-03T13:44:29.563Z</time></trkpt><trkpt lat="41.0277133" lon="16.1024217"><ele>439.0</ele><time>2026-05-03T13:44:30.564Z</time></trkpt><trkpt lat="41.0277267" lon="16.10232"><ele>438.83333333333337</ele><time>2026-05-03T13:44:31.564Z</time></trkpt><trkpt lat="41.027745" lon="16.1022083"><ele>438.6666666666667</ele><time>2026-05-03T13:44:32.563Z</time></trkpt><trkpt lat="41.0277633" lon="16.1020933"><ele>438.5</ele><time>2026-05-03T13:44:33.563Z</time></trkpt><trkpt lat="41.02778" lon="16.1019817"><ele>438.33333333333337</ele><time>2026-05-03T13:44:34.563Z</time></trkpt><trkpt lat="41.02779" lon="16.1018733"><ele>438.1666666666667</ele><time>2026-05-03T13:44:35.563Z</time></trkpt><trkpt lat="41.0278033" lon="16.10177"><ele>438.0</ele><time>2026-05-03T13:44:36.563Z</time></trkpt><trkpt lat="41.0278117" lon="16.1016683"><ele>437.5</ele><time>2026-05-03T13:44:37.563Z</time></trkpt><trkpt lat="41.027825" lon="16.10156"><ele>437.0</ele><time>2026-05-03T13:44:38.563Z</time></trkpt><trkpt lat="41.027835" lon="16.101455"><ele>436.5</ele><time>2026-05-03T13:44:39.563Z</time></trkpt><trkpt lat="41.0278567" lon="16.101345"><ele>436.0</ele><time>2026-05-03T13:44:40.563Z</time></trkpt><trkpt lat="41.0278733" lon="16.1012283"><ele>435.5</ele><time>2026-05-03T13:44:41.565Z</time></trkpt><trkpt lat="41.0278883" lon="16.10111"><ele>435.0</ele><time>2026-05-03T13:44:42.564Z</time></trkpt><trkpt lat="41.027905" lon="16.100995"><ele>435.0</ele><time>2026-05-03T13:44:43.565Z</time></trkpt><trkpt lat="41.0279283" lon="16.1008867"><ele>435.0</ele><time>2026-05-03T13:44:44.564Z</time></trkpt><trkpt lat="41.027945" lon="16.1007767"><ele>435.0</ele><time>2026-05-03T13:44:45.564Z</time></trkpt><trkpt lat="41.0279617" lon="16.1006717"><ele>435.0</ele><time>2026-05-03T13:44:46.565Z</time></trkpt><trkpt lat="41.02798" lon="16.1005617"><ele>435.0</ele><time>2026-05-03T13:44:47.564Z</time></trkpt><trkpt lat="41.0280033" lon="16.1004417"><ele>435.0</ele><time>2026-05-03T13:44:48.564Z</time></trkpt><trkpt lat="41.0280267" lon="16.10033"><ele>434.2</ele><time>2026-05-03T13:44:49.564Z</time></trkpt><trkpt lat="41.0280483" lon="16.1002117"><ele>433.4</ele><time>2026-05-03T13:44:50.564Z</time></trkpt><trkpt lat="41.0280683" lon="16.1000783"><ele>432.6</ele><time>2026-05-03T13:44:51.565Z</time></trkpt><trkpt lat="41.0280833" lon="16.0999617"><ele>431.8</ele><time>2026-05-03T13:44:52.564Z</time></trkpt><trkpt lat="41.0281" lon="16.0998467"><ele>431.0</ele><time>2026-05-03T13:44:53.564Z</time></trkpt><trkpt lat="41.028115" lon="16.09973"><ele>430.20000000000005</ele><time>2026-05-03T13:44:54.564Z</time></trkpt><trkpt lat="41.0281367" lon="16.0996133"><ele>429.40000000000003</ele><time>2026-05-03T13:44:55.564Z</time></trkpt><trkpt lat="41.028155" lon="16.0995017"><ele>428.6</ele><time>2026-05-03T13:44:56.564Z</time></trkpt><trkpt lat="41.0281767" lon="16.0993833"><ele>427.8</ele><time>2026-05-03T13:44:57.565Z</time></trkpt><trkpt lat="41.0281967" lon="16.0992617"><ele>427.0</ele><time>2026-05-03T13:44:58.564Z</time></trkpt><trkpt lat="41.0282183" lon="16.0991483"><ele>426.20000000000005</ele><time>2026-05-03T13:44:59.564Z</time></trkpt><trkpt lat="41.0282367" lon="16.0990267"><ele>425.40000000000003</ele><time>2026-05-03T13:45:00.564Z</time></trkpt><trkpt lat="41.0282617" lon="16.0989033"><ele>424.6</ele><time>2026-05-03T13:45:01.564Z</time></trkpt><trkpt lat="41.0282867" lon="16.09877"><ele>423.79999999999995</ele><time>2026-05-03T13:45:02.565Z</time></trkpt><trkpt lat="41.0283067" lon="16.098635"><ele>423.0</ele><time>2026-05-03T13:45:03.564Z</time></trkpt><trkpt lat="41.0283283" lon="16.098495"><ele>425.0</ele><time>2026-05-03T13:45:04.564Z</time></trkpt><trkpt lat="41.0283517" lon="16.0983533"><ele>427.0</ele><time>2026-05-03T13:45:05.564Z</time></trkpt><trkpt lat="41.0283767" lon="16.098215"><ele>428.99999999999994</ele><time>2026-05-03T13:45:06.564Z</time></trkpt><trkpt lat="41.0284" lon="16.09808"><ele>431.0</ele><time>2026-05-03T13:45:07.564Z</time></trkpt><trkpt lat="41.0284267" lon="16.0979583"><ele>433.0</ele><time>2026-05-03T13:45:08.564Z</time></trkpt><trkpt lat="41.0284433" lon="16.0978283"><ele>433.0</ele><time>2026-05-03T13:45:09.564Z</time></trkpt><trkpt lat="41.02846" lon="16.0976967"><ele>432.99999999999994</ele><time>2026-05-03T13:45:10.565Z</time></trkpt><trkpt lat="41.0284817" lon="16.0975617"><ele>432.99999999999994</ele><time>2026-05-03T13:45:11.565Z</time></trkpt><trkpt lat="41.0285033" lon="16.0974267"><ele>433.0</ele><time>2026-05-03T13:45:12.564Z</time></trkpt><trkpt lat="41.028525" lon="16.0972967"><ele>433.0</ele><time>2026-05-03T13:45:13.564Z</time></trkpt><trkpt lat="41.0285483" lon="16.0971617"><ele>432.2</ele><time>2026-05-03T13:45:14.564Z</time></trkpt><trkpt lat="41.0285667" lon="16.0970317"><ele>431.4</ele><time>2026-05-03T13:45:15.565Z</time></trkpt><trkpt lat="41.02859" lon="16.096895"><ele>430.59999999999997</ele><time>2026-05-03T13:45:16.564Z</time></trkpt><trkpt lat="41.0286133" lon="16.0967633"><ele>429.79999999999995</ele><time>2026-05-03T13:45:17.564Z</time></trkpt><trkpt lat="41.0286383" lon="16.0966517"><ele>429.0</ele><time>2026-05-03T13:45:18.565Z</time></trkpt><trkpt lat="41.0286683" lon="16.0965383"><ele>428.4</ele><time>2026-05-03T13:45:19.564Z</time></trkpt><trkpt lat="41.0286867" lon="16.0964233"><ele>427.79999999999995</ele><time>2026-05-03T13:45:20.564Z</time></trkpt><trkpt lat="41.0287083" lon="16.0963233"><ele>427.20000000000005</ele><time>2026-05-03T13:45:21.565Z</time></trkpt><trkpt lat="41.0287133" lon="16.0962317"><ele>426.6</ele><time>2026-05-03T13:45:22.564Z</time></trkpt><trkpt lat="41.0287" lon="16.0960833"><ele>426.0</ele><time>2026-05-03T13:45:24.564Z</time></trkpt><trkpt lat="41.028655" lon="16.0959633"><ele>426.0</ele><time>2026-05-03T13:45:26.564Z</time></trkpt><trkpt lat="41.0285983" lon="16.0958367"><ele>426.0</ele><time>2026-05-03T13:45:28.564Z</time></trkpt><trkpt lat="41.0285383" lon="16.0956867"><ele>426.0</ele><time>2026-05-03T13:45:30.564Z</time></trkpt><trkpt lat="41.0285033" lon="16.0955967"><ele>426.0</ele><time>2026-05-03T13:45:31.565Z</time></trkpt><trkpt lat="41.0284667" lon="16.0954917"><ele>426.0</ele><time>2026-05-03T13:45:32.564Z</time></trkpt><trkpt lat="41.0284217" lon="16.0953783"><ele>425.4</ele><time>2026-05-03T13:45:33.565Z</time></trkpt><trkpt lat="41.0283817" lon="16.0952583"><ele>424.8</ele><time>2026-05-03T13:45:34.564Z</time></trkpt><trkpt lat="41.028345" lon="16.095145"><ele>424.2</ele><time>2026-05-03T13:45:35.564Z</time></trkpt><trkpt lat="41.0283" lon="16.09503"><ele>423.59999999999997</ele><time>2026-05-03T13:45:36.565Z</time></trkpt><trkpt lat="41.028265" lon="16.0949217"><ele>423.0</ele><time>2026-05-03T13:45:37.565Z</time></trkpt><trkpt lat="41.0282383" lon="16.09483"><ele>421.1666666666667</ele><time>2026-05-03T13:45:38.565Z</time></trkpt><trkpt lat="41.0282017" lon="16.094735"><ele>419.33333333333337</ele><time>2026-05-03T13:45:39.564Z</time></trkpt><trkpt lat="41.028165" lon="16.09464"><ele>417.5</ele><time>2026-05-03T13:45:40.564Z</time></trkpt><trkpt lat="41.0281333" lon="16.0945333"><ele>415.6666666666667</ele><time>2026-05-03T13:45:41.565Z</time></trkpt><trkpt lat="41.0281" lon="16.09443"><ele>413.83333333333337</ele><time>2026-05-03T13:45:42.565Z</time></trkpt><trkpt lat="41.0280683" lon="16.09433"><ele>412.0</ele><time>2026-05-03T13:45:43.564Z</time></trkpt><trkpt lat="41.028035" lon="16.0942317"><ele>412.00000000000006</ele><time>2026-05-03T13:45:44.564Z</time></trkpt><trkpt lat="41.028" lon="16.0941317"><ele>412.0</ele><time>2026-05-03T13:45:45.564Z</time></trkpt><trkpt lat="41.0279617" lon="16.0940383"><ele>412.0</ele><time>2026-05-03T13:45:46.564Z</time></trkpt><trkpt lat="41.0279317" lon="16.09395"><ele>412.0</ele><time>2026-05-03T13:45:47.564Z</time></trkpt><trkpt lat="41.0278967" lon="16.0938567"><ele>412.00000000000006</ele><time>2026-05-03T13:45:48.564Z</time></trkpt><trkpt lat="41.0278617" lon="16.0937517"><ele>412.0</ele><time>2026-05-03T13:45:49.564Z</time></trkpt><trkpt lat="41.0278267" lon="16.093645"><ele>412.00000000000006</ele><time>2026-05-03T13:45:50.565Z</time></trkpt><trkpt lat="41.0277883" lon="16.0935367"><ele>412.0</ele><time>2026-05-03T13:45:51.564Z</time></trkpt><trkpt lat="41.0277467" lon="16.093425"><ele>412.0</ele><time>2026-05-03T13:45:52.565Z</time></trkpt><trkpt lat="41.0277133" lon="16.09332"><ele>412.0</ele><time>2026-05-03T13:45:53.564Z</time></trkpt><trkpt lat="41.0276783" lon="16.0932217"><ele>412.00000000000006</ele><time>2026-05-03T13:45:54.564Z</time></trkpt><trkpt lat="41.0276483" lon="16.0931317"><ele>412.0</ele><time>2026-05-03T13:45:55.565Z</time></trkpt><trkpt lat="41.0276" lon="16.0929767"><ele>412.00000000000006</ele><time>2026-05-03T13:45:57.564Z</time></trkpt><trkpt lat="41.0275717" lon="16.0928967"><ele>412.0</ele><time>2026-05-03T13:45:58.564Z</time></trkpt><trkpt lat="41.0275467" lon="16.0927833"><ele>412.0</ele><time>2026-05-03T13:46:00.564Z</time></trkpt><trkpt lat="41.027575" lon="16.0926933"><ele>412.0</ele><time>2026-05-03T13:46:08.564Z</time></trkpt><trkpt lat="41.0276667" lon="16.0925933"><ele>412.00000000000006</ele><time>2026-05-03T13:46:10.564Z</time></trkpt><trkpt lat="41.0277217" lon="16.0925417"><ele>412.0</ele><time>2026-05-03T13:46:11.565Z</time></trkpt><trkpt lat="41.0277817" lon="16.0924883"><ele>412.00000000000006</ele><time>2026-05-03T13:46:12.564Z</time></trkpt><trkpt lat="41.027845" lon="16.09243"><ele>412.0</ele><time>2026-05-03T13:46:13.564Z</time></trkpt><trkpt lat="41.0279067" lon="16.0923767"><ele>412.0</ele><time>2026-05-03T13:46:14.564Z</time></trkpt><trkpt lat="41.0279717" lon="16.09232"><ele>412.0</ele><time>2026-05-03T13:46:15.564Z</time></trkpt><trkpt lat="41.0280483" lon="16.09227"><ele>412.00000000000006</ele><time>2026-05-03T13:46:16.564Z</time></trkpt><trkpt lat="41.0281233" lon="16.0922133"><ele>412.0</ele><time>2026-05-03T13:46:17.564Z</time></trkpt><trkpt lat="41.028195" lon="16.092155"><ele>411.8</ele><time>2026-05-03T13:46:18.564Z</time></trkpt><trkpt lat="41.0282817" lon="16.0921017"><ele>411.6</ele><time>2026-05-03T13:46:19.564Z</time></trkpt><trkpt lat="41.0283617" lon="16.0920517"><ele>411.40000000000003</ele><time>2026-05-03T13:46:20.565Z</time></trkpt><trkpt lat="41.028445" lon="16.0920067"><ele>411.20000000000005</ele><time>2026-05-03T13:46:21.564Z</time></trkpt><trkpt lat="41.02853" lon="16.0919567"><ele>411.0</ele><time>2026-05-03T13:46:22.565Z</time></trkpt><trkpt lat="41.02861" lon="16.091915"><ele>411.6666666666667</ele><time>2026-05-03T13:46:23.564Z</time></trkpt><trkpt lat="41.0286917" lon="16.0918733"><ele>412.33333333333337</ele><time>2026-05-03T13:46:24.565Z</time></trkpt><trkpt lat="41.02876" lon="16.09184"><ele>413.0</ele><time>2026-05-03T13:46:25.564Z</time></trkpt><trkpt lat="41.0288367" lon="16.09176"><ele>413.6666666666667</ele><time>2026-05-03T13:46:27.565Z</time></trkpt><trkpt lat="41.02885" lon="16.0916417"><ele>414.33333333333337</ele><time>2026-05-03T13:46:29.565Z</time></trkpt><trkpt lat="41.0288433" lon="16.09155"><ele>415.0</ele><time>2026-05-03T13:46:30.565Z</time></trkpt><trkpt lat="41.028835" lon="16.0914517"><ele>415.0</ele><time>2026-05-03T13:46:31.564Z</time></trkpt><trkpt lat="41.0288283" lon="16.091355"><ele>415.0</ele><time>2026-05-03T13:46:32.564Z</time></trkpt><trkpt lat="41.0288217" lon="16.091255"><ele>415.0</ele><time>2026-05-03T13:46:33.564Z</time></trkpt><trkpt lat="41.0288133" lon="16.0911167"><ele>415.0</ele><time>2026-05-03T13:46:35.565Z</time></trkpt><trkpt lat="41.028855" lon="16.091015"><ele>415.0</ele><time>2026-05-03T13:46:50.564Z</time></trkpt><trkpt lat="41.0289183" lon="16.0908767"><ele>415.0</ele><time>2026-05-03T13:46:52.565Z</time></trkpt><trkpt lat="41.0289533" lon="16.0907833"><ele>415.0</ele><time>2026-05-03T13:46:53.564Z</time></trkpt><trkpt lat="41.028975" lon="16.090695"><ele>415.0</ele><time>2026-05-03T13:46:54.564Z</time></trkpt><trkpt lat="41.029005" lon="16.0906167"><ele>415.0</ele><time>2026-05-03T13:46:55.564Z</time></trkpt><trkpt lat="41.0290433" lon="16.0905383"><ele>415.0</ele><time>2026-05-03T13:46:56.564Z</time></trkpt><trkpt lat="41.0290867" lon="16.09047"><ele>415.0</ele><time>2026-05-03T13:46:57.564Z</time></trkpt><trkpt lat="41.0291283" lon="16.0903983"><ele>415.0</ele><time>2026-05-03T13:46:58.565Z</time></trkpt><trkpt lat="41.0291717" lon="16.090325"><ele>415.33333333333337</ele><time>2026-05-03T13:46:59.565Z</time></trkpt><trkpt lat="41.02921" lon="16.0902583"><ele>415.6666666666667</ele><time>2026-05-03T13:47:00.564Z</time></trkpt><trkpt lat="41.0292667" lon="16.0901283"><ele>416.0</ele><time>2026-05-03T13:47:02.564Z</time></trkpt><trkpt lat="41.0293033" lon="16.0899683"><ele>416.33333333333337</ele><time>2026-05-03T13:47:04.565Z</time></trkpt><trkpt lat="41.029325" lon="16.0898767"><ele>416.6666666666667</ele><time>2026-05-03T13:47:05.564Z</time></trkpt><trkpt lat="41.029345" lon="16.089785"><ele>417.0</ele><time>2026-05-03T13:47:06.565Z</time></trkpt><trkpt lat="41.0293683" lon="16.089695"><ele>417.0</ele><time>2026-05-03T13:47:07.564Z</time></trkpt><trkpt lat="41.0294333" lon="16.0895483"><ele>417.0</ele><time>2026-05-03T13:47:09.564Z</time></trkpt><trkpt lat="41.0294733" lon="16.0894633"><ele>417.0</ele><time>2026-05-03T13:47:10.564Z</time></trkpt><trkpt lat="41.0295133" lon="16.0893883"><ele>417.0</ele><time>2026-05-03T13:47:11.564Z</time></trkpt><trkpt lat="41.0295567" lon="16.089325"><ele>417.0</ele><time>2026-05-03T13:47:12.564Z</time></trkpt><trkpt lat="41.0296" lon="16.0892517"><ele>417.0</ele><time>2026-05-03T13:47:13.565Z</time></trkpt><trkpt lat="41.0296517" lon="16.08917"><ele>417.0</ele><time>2026-05-03T13:47:14.565Z</time></trkpt><trkpt lat="41.029695" lon="16.0890983"><ele>417.0</ele><time>2026-05-03T13:47:15.565Z</time></trkpt><trkpt lat="41.0297317" lon="16.0890133"><ele>417.0</ele><time>2026-05-03T13:47:16.564Z</time></trkpt><trkpt lat="41.0297683" lon="16.0889317"><ele>417.0</ele><time>2026-05-03T13:47:17.565Z</time></trkpt><trkpt lat="41.0298067" lon="16.088845"><ele>417.0</ele><time>2026-05-03T13:47:18.564Z</time></trkpt><trkpt lat="41.029845" lon="16.0887617"><ele>417.0</ele><time>2026-05-03T13:47:19.565Z</time></trkpt><trkpt lat="41.0298833" lon="16.0886933"><ele>417.0</ele><time>2026-05-03T13:47:20.565Z</time></trkpt><trkpt lat="41.029935" lon="16.0886033"><ele>416.40000000000003</ele><time>2026-05-03T13:47:22.565Z</time></trkpt><trkpt lat="41.030015" lon="16.0886009"><ele>415.8</ele><time>2026-05-03T13:47:25.565Z</time></trkpt><trkpt lat="41.0301068" lon="16.0886652"><ele>415.2</ele><time>2026-05-03T13:47:27.564Z</time></trkpt><trkpt lat="41.0302185" lon="16.0887376"><ele>414.6</ele><time>2026-05-03T13:47:29.564Z</time></trkpt><trkpt lat="41.0303253" lon="16.0888025"><ele>414.0</ele><time>2026-05-03T13:47:31.564Z</time></trkpt><trkpt lat="41.0303947" lon="16.088885"><ele>414.0</ele><time>2026-05-03T13:47:33.564Z</time></trkpt><trkpt lat="41.0304198" lon="16.0890386"><ele>414.0</ele><time>2026-05-03T13:47:35.565Z</time></trkpt><trkpt lat="41.0304252" lon="16.089123"><ele>414.0</ele><time>2026-05-03T13:47:36.564Z</time></trkpt><trkpt lat="41.0304432" lon="16.0892722"><ele>414.0</ele><time>2026-05-03T13:47:38.565Z</time></trkpt><trkpt lat="41.0304838" lon="16.0893677"><ele>414.0</ele><time>2026-05-03T13:47:40.564Z</time></trkpt><trkpt lat="41.0305867" lon="16.089415"><ele>415.6666666666667</ele><time>2026-05-03T13:47:42.565Z</time></trkpt><trkpt lat="41.0307067" lon="16.089465"><ele>417.33333333333337</ele><time>2026-05-03T13:47:44.564Z</time></trkpt><trkpt lat="41.0307767" lon="16.08949"><ele>419.0</ele><time>2026-05-03T13:47:45.564Z</time></trkpt><trkpt lat="41.030845" lon="16.0895267"><ele>420.6666666666667</ele><time>2026-05-03T13:47:46.565Z</time></trkpt><trkpt lat="41.0309117" lon="16.0895617"><ele>422.33333333333337</ele><time>2026-05-03T13:47:47.565Z</time></trkpt><trkpt lat="41.0309817" lon="16.0895967"><ele>424.0</ele><time>2026-05-03T13:47:48.564Z</time></trkpt><trkpt lat="41.03104" lon="16.08965"><ele>424.6666666666667</ele><time>2026-05-03T13:47:49.564Z</time></trkpt><trkpt lat="41.0311017" lon="16.0897067"><ele>425.33333333333337</ele><time>2026-05-03T13:47:50.564Z</time></trkpt><trkpt lat="41.031165" lon="16.08977"><ele>426.0</ele><time>2026-05-03T13:47:51.564Z</time></trkpt><trkpt lat="41.03123" lon="16.0898333"><ele>426.66666666666663</ele><time>2026-05-03T13:47:52.564Z</time></trkpt><trkpt lat="41.0312867" lon="16.0899017"><ele>427.3333333333333</ele><time>2026-05-03T13:47:53.564Z</time></trkpt><trkpt lat="41.03134" lon="16.0899683"><ele>428.0</ele><time>2026-05-03T13:47:54.565Z</time></trkpt><trkpt lat="41.031395" lon="16.09003"><ele>429.14285714285717</ele><time>2026-05-03T13:47:55.564Z</time></trkpt><trkpt lat="41.0314433" lon="16.090095"><ele>430.2857142857143</ele><time>2026-05-03T13:47:56.564Z</time></trkpt><trkpt lat="41.0314917" lon="16.0901583"><ele>431.42857142857144</ele><time>2026-05-03T13:47:57.564Z</time></trkpt><trkpt lat="41.0315417" lon="16.0902217"><ele>432.57142857142856</ele><time>2026-05-03T13:47:58.564Z</time></trkpt><trkpt lat="41.0315933" lon="16.0902783"><ele>433.7142857142857</ele><time>2026-05-03T13:47:59.565Z</time></trkpt><trkpt lat="41.0316467" lon="16.0903417"><ele>434.8571428571429</ele><time>2026-05-03T13:48:00.564Z</time></trkpt><trkpt lat="41.0317083" lon="16.0904083"><ele>436.0</ele><time>2026-05-03T13:48:01.564Z</time></trkpt><trkpt lat="41.0317767" lon="16.09047"><ele>436.50000000000006</ele><time>2026-05-03T13:48:02.565Z</time></trkpt><trkpt lat="41.03184" lon="16.0905383"><ele>437.0</ele><time>2026-05-03T13:48:03.565Z</time></trkpt><trkpt lat="41.0319" lon="16.09061"><ele>437.5</ele><time>2026-05-03T13:48:04.564Z</time></trkpt><trkpt lat="41.0319567" lon="16.090675"><ele>438.0</ele><time>2026-05-03T13:48:05.565Z</time></trkpt><trkpt lat="41.032015" lon="16.0907483"><ele>438.50000000000006</ele><time>2026-05-03T13:48:06.564Z</time></trkpt><trkpt lat="41.032075" lon="16.0908133"><ele>439.0</ele><time>2026-05-03T13:48:07.565Z</time></trkpt><trkpt lat="41.0321367" lon="16.0908783"><ele>440.1666666666667</ele><time>2026-05-03T13:48:08.564Z</time></trkpt><trkpt lat="41.032195" lon="16.09094"><ele>441.33333333333337</ele><time>2026-05-03T13:48:09.564Z</time></trkpt><trkpt lat="41.0322583" lon="16.0909967"><ele>442.5</ele><time>2026-05-03T13:48:10.564Z</time></trkpt><trkpt lat="41.0323233" lon="16.0910633"><ele>443.66666666666663</ele><time>2026-05-03T13:48:11.564Z</time></trkpt><trkpt lat="41.032375" lon="16.0911333"><ele>444.8333333333333</ele><time>2026-05-03T13:48:12.564Z</time></trkpt><trkpt lat="41.0324133" lon="16.09121"><ele>446.0</ele><time>2026-05-03T13:48:13.564Z</time></trkpt><trkpt lat="41.0324583" lon="16.09129"><ele>446.8333333333333</ele><time>2026-05-03T13:48:14.564Z</time></trkpt><trkpt lat="41.0325033" lon="16.0913667"><ele>447.66666666666663</ele><time>2026-05-03T13:48:15.564Z</time></trkpt><trkpt lat="41.032555" lon="16.09144"><ele>448.5</ele><time>2026-05-03T13:48:16.564Z</time></trkpt><trkpt lat="41.032625" lon="16.0914967"><ele>449.33333333333337</ele><time>2026-05-03T13:48:18.565Z</time></trkpt><trkpt lat="41.0326817" lon="16.0914267"><ele>450.1666666666667</ele><time>2026-05-03T13:48:20.565Z</time></trkpt><trkpt lat="41.0327617" lon="16.0912833"><ele>451.0</ele><time>2026-05-03T13:48:22.564Z</time></trkpt><trkpt lat="41.032825" lon="16.0912"><ele>451.00000000000006</ele><time>2026-05-03T13:48:23.565Z</time></trkpt><trkpt lat="41.03289" lon="16.0911233"><ele>451.0</ele><time>2026-05-03T13:48:24.564Z</time></trkpt><trkpt lat="41.0329483" lon="16.0910617"><ele>451.0</ele><time>2026-05-03T13:48:25.565Z</time></trkpt><trkpt lat="41.032985" lon="16.0909883"><ele>451.0</ele><time>2026-05-03T13:48:26.565Z</time></trkpt><trkpt lat="41.0330133" lon="16.0908883"><ele>451.00000000000006</ele><time>2026-05-03T13:48:27.564Z</time></trkpt><trkpt lat="41.0330483" lon="16.0907817"><ele>451.0</ele><time>2026-05-03T13:48:28.565Z</time></trkpt><trkpt lat="41.0330867" lon="16.0906733"><ele>451.4</ele><time>2026-05-03T13:48:29.565Z</time></trkpt><trkpt lat="41.0331333" lon="16.0905767"><ele>451.8</ele><time>2026-05-03T13:48:30.564Z</time></trkpt><trkpt lat="41.0331817" lon="16.0904867"><ele>452.19999999999993</ele><time>2026-05-03T13:48:31.565Z</time></trkpt><trkpt lat="41.0332333" lon="16.09039"><ele>452.59999999999997</ele><time>2026-05-03T13:48:32.565Z</time></trkpt><trkpt lat="41.0332917" lon="16.0902917"><ele>453.0</ele><time>2026-05-03T13:48:33.565Z</time></trkpt><trkpt lat="41.0333533" lon="16.0901817"><ele>453.0</ele><time>2026-05-03T13:48:34.564Z</time></trkpt><trkpt lat="41.033425" lon="16.0900567"><ele>453.0</ele><time>2026-05-03T13:48:35.564Z</time></trkpt><trkpt lat="41.0335017" lon="16.08993"><ele>453.0</ele><time>2026-05-03T13:48:36.565Z</time></trkpt><trkpt lat="41.0335883" lon="16.0897967"><ele>453.0</ele><time>2026-05-03T13:48:37.565Z</time></trkpt><trkpt lat="41.0336633" lon="16.089675"><ele>450.5</ele><time>2026-05-03T13:48:38.564Z</time></trkpt><trkpt lat="41.0337433" lon="16.08954"><ele>448.0</ele><time>2026-05-03T13:48:39.565Z</time></trkpt><trkpt lat="41.0338233" lon="16.0894"><ele>445.5</ele><time>2026-05-03T13:48:40.564Z</time></trkpt><trkpt lat="41.0338967" lon="16.0892783"><ele>443.0</ele><time>2026-05-03T13:48:41.564Z</time></trkpt><trkpt lat="41.033965" lon="16.089165"><ele>441.99999999999994</ele><time>2026-05-03T13:48:42.564Z</time></trkpt><trkpt lat="41.034025" lon="16.0890733"><ele>441.0</ele><time>2026-05-03T13:48:43.565Z</time></trkpt><trkpt lat="41.0340767" lon="16.0890017"><ele>440.0</ele><time>2026-05-03T13:48:44.564Z</time></trkpt><trkpt lat="41.03411" lon="16.0889267"><ele>439.0</ele><time>2026-05-03T13:48:45.564Z</time></trkpt><trkpt lat="41.0341067" lon="16.0887667"><ele>437.99999999999994</ele><time>2026-05-03T13:48:47.564Z</time></trkpt><trkpt lat="41.03407" lon="16.0886883"><ele>437.0</ele><time>2026-05-03T13:48:48.564Z</time></trkpt><trkpt lat="41.0340067" lon="16.0886083"><ele>437.0</ele><time>2026-05-03T13:48:49.564Z</time></trkpt><trkpt lat="41.0339267" lon="16.0885133"><ele>437.0</ele><time>2026-05-03T13:48:50.565Z</time></trkpt><trkpt lat="41.0338317" lon="16.0884067"><ele>437.0</ele><time>2026-05-03T13:48:51.565Z</time></trkpt><trkpt lat="41.0337317" lon="16.0882967"><ele>437.0</ele><time>2026-05-03T13:48:52.564Z</time></trkpt><trkpt lat="41.0336367" lon="16.0881867"><ele>437.0</ele><time>2026-05-03T13:48:53.565Z</time></trkpt><trkpt lat="41.033545" lon="16.088085"><ele>437.00000000000006</ele><time>2026-05-03T13:48:54.564Z</time></trkpt><trkpt lat="41.0334517" lon="16.08798"><ele>437.00000000000006</ele><time>2026-05-03T13:48:55.565Z</time></trkpt><trkpt lat="41.0333683" lon="16.0879"><ele>437.0</ele><time>2026-05-03T13:48:56.564Z</time></trkpt><trkpt lat="41.0332917" lon="16.08781"><ele>437.0</ele><time>2026-05-03T13:48:57.565Z</time></trkpt><trkpt lat="41.0332133" lon="16.0877083"><ele>435.0</ele><time>2026-05-03T13:48:58.565Z</time></trkpt><trkpt lat="41.0331367" lon="16.0875967"><ele>433.0</ele><time>2026-05-03T13:48:59.564Z</time></trkpt><trkpt lat="41.033055" lon="16.08749"><ele>431.0</ele><time>2026-05-03T13:49:00.564Z</time></trkpt><trkpt lat="41.0329717" lon="16.08739"><ele>429.0</ele><time>2026-05-03T13:49:01.565Z</time></trkpt><trkpt lat="41.0328867" lon="16.0872967"><ele>428.5</ele><time>2026-05-03T13:49:02.564Z</time></trkpt><trkpt lat="41.0328067" lon="16.0872067"><ele>428.0</ele><time>2026-05-03T13:49:03.564Z</time></trkpt><trkpt lat="41.03273" lon="16.0870933"><ele>427.5</ele><time>2026-05-03T13:49:04.564Z</time></trkpt><trkpt lat="41.0326517" lon="16.0869733"><ele>427.0</ele><time>2026-05-03T13:49:05.564Z</time></trkpt><trkpt lat="41.0325633" lon="16.086865"><ele>427.0</ele><time>2026-05-03T13:49:06.565Z</time></trkpt><trkpt lat="41.0324733" lon="16.0867533"><ele>427.0</ele><time>2026-05-03T13:49:07.564Z</time></trkpt><trkpt lat="41.0323833" lon="16.0866517"><ele>427.0</ele><time>2026-05-03T13:49:08.564Z</time></trkpt><trkpt lat="41.0323033" lon="16.086555"><ele>427.0</ele><time>2026-05-03T13:49:09.564Z</time></trkpt><trkpt lat="41.0322233" lon="16.0864667"><ele>425.33333333333337</ele><time>2026-05-03T13:49:10.564Z</time></trkpt><trkpt lat="41.0321433" lon="16.08638"><ele>423.6666666666667</ele><time>2026-05-03T13:49:11.564Z</time></trkpt><trkpt lat="41.0320683" lon="16.0862917"><ele>422.0</ele><time>2026-05-03T13:49:12.564Z</time></trkpt><trkpt lat="41.03201" lon="16.0862233"><ele>420.33333333333337</ele><time>2026-05-03T13:49:13.564Z</time></trkpt><trkpt lat="41.0319633" lon="16.086155"><ele>418.6666666666667</ele><time>2026-05-03T13:49:14.565Z</time></trkpt><trkpt lat="41.03191" lon="16.0860533"><ele>417.0</ele><time>2026-05-03T13:49:16.565Z</time></trkpt><trkpt lat="41.0318883" lon="16.0859183"><ele>417.0</ele><time>2026-05-03T13:49:18.565Z</time></trkpt><trkpt lat="41.031895" lon="16.08582"><ele>417.0</ele><time>2026-05-03T13:49:19.564Z</time></trkpt><trkpt lat="41.03191" lon="16.08572"><ele>417.0</ele><time>2026-05-03T13:49:20.564Z</time></trkpt><trkpt lat="41.031935" lon="16.0856283"><ele>417.0</ele><time>2026-05-03T13:49:21.565Z</time></trkpt><trkpt lat="41.031985" lon="16.0855467"><ele>417.0</ele><time>2026-05-03T13:49:22.564Z</time></trkpt><trkpt lat="41.0320433" lon="16.0854767"><ele>417.0</ele><time>2026-05-03T13:49:23.564Z</time></trkpt><trkpt lat="41.0321017" lon="16.08542"><ele>415.8333333333333</ele><time>2026-05-03T13:49:24.565Z</time></trkpt><trkpt lat="41.0321633" lon="16.0853717"><ele>414.66666666666663</ele><time>2026-05-03T13:49:25.565Z</time></trkpt><trkpt lat="41.0322083" lon="16.0852933"><ele>413.5</ele><time>2026-05-03T13:49:26.564Z</time></trkpt><trkpt lat="41.032235" lon="16.08521"><ele>412.3333333333333</ele><time>2026-05-03T13:49:27.565Z</time></trkpt><trkpt lat="41.03224" lon="16.085115"><ele>411.16666666666663</ele><time>2026-05-03T13:49:28.565Z</time></trkpt><trkpt lat="41.0322183" lon="16.085015"><ele>410.0</ele><time>2026-05-03T13:49:29.565Z</time></trkpt><trkpt lat="41.0321683" lon="16.0848933"><ele>409.2</ele><time>2026-05-03T13:49:30.564Z</time></trkpt><trkpt lat="41.0321167" lon="16.0847817"><ele>408.4</ele><time>2026-05-03T13:49:31.565Z</time></trkpt><trkpt lat="41.0320633" lon="16.08466"><ele>407.6</ele><time>2026-05-03T13:49:32.565Z</time></trkpt><trkpt lat="41.032015" lon="16.0845433"><ele>406.8</ele><time>2026-05-03T13:49:33.565Z</time></trkpt><trkpt lat="41.03197" lon="16.0844317"><ele>406.0</ele><time>2026-05-03T13:49:34.564Z</time></trkpt><trkpt lat="41.0319433" lon="16.0843317"><ele>406.0</ele><time>2026-05-03T13:49:35.565Z</time></trkpt><trkpt lat="41.03193" lon="16.0842217"><ele>406.0</ele><time>2026-05-03T13:49:36.565Z</time></trkpt><trkpt lat="41.031935" lon="16.084105"><ele>406.0</ele><time>2026-05-03T13:49:37.564Z</time></trkpt><trkpt lat="41.0319517" lon="16.08397"><ele>406.0</ele><time>2026-05-03T13:49:38.564Z</time></trkpt><trkpt lat="41.0319617" lon="16.0838167"><ele>406.0</ele><time>2026-05-03T13:49:39.564Z</time></trkpt><trkpt lat="41.031965" lon="16.08368"><ele>405.6666666666667</ele><time>2026-05-03T13:49:40.564Z</time></trkpt><trkpt lat="41.0319733" lon="16.083565"><ele>405.33333333333337</ele><time>2026-05-03T13:49:41.564Z</time></trkpt><trkpt lat="41.0319967" lon="16.08346"><ele>405.0</ele><time>2026-05-03T13:49:42.565Z</time></trkpt><trkpt lat="41.0320267" lon="16.0833533"><ele>404.66666666666663</ele><time>2026-05-03T13:49:43.564Z</time></trkpt><trkpt lat="41.0320583" lon="16.0832417"><ele>404.3333333333333</ele><time>2026-05-03T13:49:44.564Z</time></trkpt><trkpt lat="41.0320867" lon="16.0831283"><ele>404.0</ele><time>2026-05-03T13:49:45.564Z</time></trkpt><trkpt lat="41.0321117" lon="16.0830267"><ele>403.16666666666663</ele><time>2026-05-03T13:49:46.564Z</time></trkpt><trkpt lat="41.0321333" lon="16.0829333"><ele>402.3333333333333</ele><time>2026-05-03T13:49:47.564Z</time></trkpt><trkpt lat="41.0321483" lon="16.0828433"><ele>401.5</ele><time>2026-05-03T13:49:48.564Z</time></trkpt><trkpt lat="41.0321567" lon="16.0827517"><ele>400.66666666666663</ele><time>2026-05-03T13:49:49.565Z</time></trkpt><trkpt lat="41.032165" lon="16.0826467"><ele>399.8333333333333</ele><time>2026-05-03T13:49:50.564Z</time></trkpt><trkpt lat="41.0321717" lon="16.08253"><ele>399.0</ele><time>2026-05-03T13:49:51.565Z</time></trkpt><trkpt lat="41.0321733" lon="16.0823933"><ele>398.0</ele><time>2026-05-03T13:49:52.564Z</time></trkpt><trkpt lat="41.0321633" lon="16.082245"><ele>397.0</ele><time>2026-05-03T13:49:53.564Z</time></trkpt><trkpt lat="41.0321433" lon="16.0820767"><ele>396.0</ele><time>2026-05-03T13:49:54.565Z</time></trkpt><trkpt lat="41.0321333" lon="16.081915"><ele>395.0</ele><time>2026-05-03T13:49:55.564Z</time></trkpt><trkpt lat="41.03213" lon="16.0817583"><ele>395.0</ele><time>2026-05-03T13:49:56.564Z</time></trkpt><trkpt lat="41.03213" lon="16.0816117"><ele>395.0</ele><time>2026-05-03T13:49:57.564Z</time></trkpt><trkpt lat="41.0321317" lon="16.0814817"><ele>395.0</ele><time>2026-05-03T13:49:58.565Z</time></trkpt><trkpt lat="41.0321317" lon="16.0813633"><ele>395.0</ele><time>2026-05-03T13:49:59.565Z</time></trkpt><trkpt lat="41.0321283" lon="16.0812533"><ele>395.0</ele><time>2026-05-03T13:50:00.564Z</time></trkpt><trkpt lat="41.0321283" lon="16.0811517"><ele>394.3333333333333</ele><time>2026-05-03T13:50:01.565Z</time></trkpt><trkpt lat="41.0321167" lon="16.0810517"><ele>393.66666666666663</ele><time>2026-05-03T13:50:02.565Z</time></trkpt><trkpt lat="41.032085" lon="16.08096"><ele>393.0</ele><time>2026-05-03T13:50:03.564Z</time></trkpt><trkpt lat="41.032055" lon="16.080875"><ele>392.33333333333337</ele><time>2026-05-03T13:50:04.564Z</time></trkpt><trkpt lat="41.0320133" lon="16.0807683"><ele>391.6666666666667</ele><time>2026-05-03T13:50:06.565Z</time></trkpt><trkpt lat="41.03195" lon="16.0807017"><ele>391.0</ele><time>2026-05-03T13:50:09.564Z</time></trkpt><trkpt lat="41.03184" lon="16.0806933"><ele>391.0</ele><time>2026-05-03T13:50:11.564Z</time></trkpt><trkpt lat="41.0317583" lon="16.08072"><ele>391.0</ele><time>2026-05-03T13:50:12.564Z</time></trkpt><trkpt lat="41.0316517" lon="16.0807483"><ele>391.0</ele><time>2026-05-03T13:50:13.565Z</time></trkpt><trkpt lat="41.031535" lon="16.0807717"><ele>391.0</ele><time>2026-05-03T13:50:14.564Z</time></trkpt><trkpt lat="41.03141" lon="16.0808"><ele>391.0</ele><time>2026-05-03T13:50:15.564Z</time></trkpt><trkpt lat="41.0312833" lon="16.08084"><ele>391.0</ele><time>2026-05-03T13:50:16.565Z</time></trkpt><trkpt lat="41.0311467" lon="16.08087"><ele>391.0</ele><time>2026-05-03T13:50:17.565Z</time></trkpt><trkpt lat="41.03101" lon="16.0808983"><ele>391.0</ele><time>2026-05-03T13:50:18.565Z</time></trkpt><trkpt lat="41.0308683" lon="16.0809217"><ele>391.0</ele><time>2026-05-03T13:50:19.564Z</time></trkpt><trkpt lat="41.03073" lon="16.0809533"><ele>391.0</ele><time>2026-05-03T13:50:20.564Z</time></trkpt><trkpt lat="41.030595" lon="16.08098"><ele>391.0</ele><time>2026-05-03T13:50:21.564Z</time></trkpt><trkpt lat="41.0304567" lon="16.0810117"><ele>391.0</ele><time>2026-05-03T13:50:22.564Z</time></trkpt><trkpt lat="41.030315" lon="16.08105"><ele>391.0</ele><time>2026-05-03T13:50:23.564Z</time></trkpt><trkpt lat="41.0301767" lon="16.0810817"><ele>391.0</ele><time>2026-05-03T13:50:24.564Z</time></trkpt><trkpt lat="41.03004" lon="16.0811067"><ele>391.0</ele><time>2026-05-03T13:50:25.565Z</time></trkpt><trkpt lat="41.0298967" lon="16.0811383"><ele>391.0</ele><time>2026-05-03T13:50:26.564Z</time></trkpt><trkpt lat="41.0297583" lon="16.08117"><ele>391.0</ele><time>2026-05-03T13:50:27.564Z</time></trkpt><trkpt lat="41.0296183" lon="16.0811967"><ele>390.75</ele><time>2026-05-03T13:50:28.564Z</time></trkpt><trkpt lat="41.0294733" lon="16.08123"><ele>390.5</ele><time>2026-05-03T13:50:29.564Z</time></trkpt><trkpt lat="41.0293417" lon="16.0812633"><ele>390.25</ele><time>2026-05-03T13:50:30.565Z</time></trkpt><trkpt lat="41.0292117" lon="16.08129"><ele>390.0</ele><time>2026-05-03T13:50:31.564Z</time></trkpt><trkpt lat="41.0290933" lon="16.0813117"><ele>390.0</ele><time>2026-05-03T13:50:32.565Z</time></trkpt><trkpt lat="41.02899" lon="16.081335"><ele>390.0</ele><time>2026-05-03T13:50:33.564Z</time></trkpt><trkpt lat="41.0289" lon="16.0813533"><ele>390.0</ele><time>2026-05-03T13:50:34.564Z</time></trkpt><trkpt lat="41.02882" lon="16.0813733"><ele>390.0</ele><time>2026-05-03T13:50:35.565Z</time></trkpt><trkpt lat="41.0287317" lon="16.0814033"><ele>390.0</ele><time>2026-05-03T13:50:36.564Z</time></trkpt><trkpt lat="41.028635" lon="16.0814183"><ele>390.0</ele><time>2026-05-03T13:50:37.565Z</time></trkpt><trkpt lat="41.0285283" lon="16.0814433"><ele>390.0</ele><time>2026-05-03T13:50:38.564Z</time></trkpt><trkpt lat="41.02841" lon="16.0814683"><ele>390.0</ele><time>2026-05-03T13:50:39.564Z</time></trkpt><trkpt lat="41.0282817" lon="16.0815"><ele>390.0</ele><time>2026-05-03T13:50:40.564Z</time></trkpt><trkpt lat="41.0281517" lon="16.081525"><ele>390.0</ele><time>2026-05-03T13:50:41.564Z</time></trkpt><trkpt lat="41.02801" lon="16.0815517"><ele>390.0</ele><time>2026-05-03T13:50:42.565Z</time></trkpt><trkpt lat="41.0278683" lon="16.0815833"><ele>390.0</ele><time>2026-05-03T13:50:43.564Z</time></trkpt><trkpt lat="41.0277533" lon="16.08161"><ele>390.0</ele><time>2026-05-03T13:50:44.564Z</time></trkpt><trkpt lat="41.0276717" lon="16.0816217"><ele>390.0</ele><time>2026-05-03T13:50:45.565Z</time></trkpt><trkpt lat="41.02758" lon="16.0816117"><ele>390.0</ele><time>2026-05-03T13:50:47.565Z</time></trkpt><trkpt lat="41.0275883" lon="16.0815083"><ele>390.0</ele><time>2026-05-03T13:50:50.565Z</time></trkpt><trkpt lat="41.0276467" lon="16.0814267"><ele>390.0</ele><time>2026-05-03T13:50:52.564Z</time></trkpt><trkpt lat="41.0276967" lon="16.0813583"><ele>390.0</ele><time>2026-05-03T13:50:53.564Z</time></trkpt><trkpt lat="41.0277467" lon="16.0812733"><ele>390.0</ele><time>2026-05-03T13:50:54.565Z</time></trkpt><trkpt lat="41.0278083" lon="16.0811767"><ele>389.75</ele><time>2026-05-03T13:50:55.564Z</time></trkpt><trkpt lat="41.0278783" lon="16.08107"><ele>389.5</ele><time>2026-05-03T13:50:56.565Z</time></trkpt><trkpt lat="41.0279583" lon="16.080965"><ele>389.25</ele><time>2026-05-03T13:50:57.565Z</time></trkpt><trkpt lat="41.0280283" lon="16.0808467"><ele>389.0</ele><time>2026-05-03T13:50:58.564Z</time></trkpt><trkpt lat="41.0280967" lon="16.08071"><ele>388.79999999999995</ele><time>2026-05-03T13:50:59.564Z</time></trkpt><trkpt lat="41.028175" lon="16.0805833"><ele>388.59999999999997</ele><time>2026-05-03T13:51:00.564Z</time></trkpt><trkpt lat="41.0282433" lon="16.08047"><ele>388.4</ele><time>2026-05-03T13:51:01.565Z</time></trkpt><trkpt lat="41.028305" lon="16.0803683"><ele>388.2</ele><time>2026-05-03T13:51:02.564Z</time></trkpt><trkpt lat="41.0283633" lon="16.080265"><ele>388.0</ele><time>2026-05-03T13:51:03.564Z</time></trkpt><trkpt lat="41.0284317" lon="16.0801517"><ele>388.0</ele><time>2026-05-03T13:51:04.565Z</time></trkpt><trkpt lat="41.0285067" lon="16.080065"><ele>388.0</ele><time>2026-05-03T13:51:05.564Z</time></trkpt><trkpt lat="41.0285817" lon="16.0799817"><ele>388.0</ele><time>2026-05-03T13:51:06.564Z</time></trkpt><trkpt lat="41.0286617" lon="16.0798967"><ele>388.0</ele><time>2026-05-03T13:51:07.564Z</time></trkpt><trkpt lat="41.0287567" lon="16.07982"><ele>388.0</ele><time>2026-05-03T13:51:08.565Z</time></trkpt><trkpt lat="41.0288617" lon="16.0797583"><ele>387.5</ele><time>2026-05-03T13:51:09.565Z</time></trkpt><trkpt lat="41.0289783" lon="16.079715"><ele>387.0</ele><time>2026-05-03T13:51:10.565Z</time></trkpt><trkpt lat="41.029095" lon="16.0796667"><ele>386.5</ele><time>2026-05-03T13:51:11.564Z</time></trkpt><trkpt lat="41.0292267" lon="16.07962"><ele>386.0</ele><time>2026-05-03T13:51:12.564Z</time></trkpt><trkpt lat="41.0293617" lon="16.07957"><ele>385.75</ele><time>2026-05-03T13:51:13.564Z</time></trkpt><trkpt lat="41.0294867" lon="16.0795233"><ele>385.5</ele><time>2026-05-03T13:51:14.565Z</time></trkpt><trkpt lat="41.0296" lon="16.07945"><ele>385.25</ele><time>2026-05-03T13:51:15.564Z</time></trkpt><trkpt lat="41.0297033" lon="16.0793417"><ele>385.0</ele><time>2026-05-03T13:51:16.565Z</time></trkpt><trkpt lat="41.02977" lon="16.0791917"><ele>384.75</ele><time>2026-05-03T13:51:17.564Z</time></trkpt><trkpt lat="41.0298117" lon="16.0790283"><ele>384.5</ele><time>2026-05-03T13:51:18.565Z</time></trkpt><trkpt lat="41.0298283" lon="16.078855"><ele>384.25</ele><time>2026-05-03T13:51:19.564Z</time></trkpt><trkpt lat="41.0298217" lon="16.0786733"><ele>384.0</ele><time>2026-05-03T13:51:20.564Z</time></trkpt><trkpt lat="41.0298067" lon="16.0784633"><ele>383.75</ele><time>2026-05-03T13:51:21.564Z</time></trkpt><trkpt lat="41.0298" lon="16.0782667"><ele>383.5</ele><time>2026-05-03T13:51:22.564Z</time></trkpt><trkpt lat="41.0298017" lon="16.0781083"><ele>383.25</ele><time>2026-05-03T13:51:23.564Z</time></trkpt><trkpt lat="41.0298233" lon="16.07797"><ele>383.0</ele><time>2026-05-03T13:51:24.565Z</time></trkpt><trkpt lat="41.0298783" lon="16.07784"><ele>383.0</ele><time>2026-05-03T13:51:25.564Z</time></trkpt><trkpt lat="41.0299683" lon="16.0777533"><ele>383.0</ele><time>2026-05-03T13:51:26.565Z</time></trkpt><trkpt lat="41.0300867" lon="16.0777"><ele>383.0</ele><time>2026-05-03T13:51:27.564Z</time></trkpt><trkpt lat="41.0302267" lon="16.0776767"><ele>383.0</ele><time>2026-05-03T13:51:28.564Z</time></trkpt><trkpt lat="41.0303867" lon="16.0776667"><ele>383.0</ele><time>2026-05-03T13:51:29.564Z</time></trkpt><trkpt lat="41.0305467" lon="16.07766"><ele>383.0</ele><time>2026-05-03T13:51:30.565Z</time></trkpt><trkpt lat="41.0307117" lon="16.07764"><ele>383.0</ele><time>2026-05-03T13:51:31.564Z</time></trkpt><trkpt lat="41.0308883" lon="16.0776183"><ele>382.6666666666667</ele><time>2026-05-03T13:51:32.565Z</time></trkpt><trkpt lat="41.0310783" lon="16.0776017"><ele>382.3333333333333</ele><time>2026-05-03T13:51:33.564Z</time></trkpt><trkpt lat="41.0312683" lon="16.0775867"><ele>382.0</ele><time>2026-05-03T13:51:34.564Z</time></trkpt><trkpt lat="41.0314417" lon="16.0775617"><ele>382.0</ele><time>2026-05-03T13:51:35.564Z</time></trkpt><trkpt lat="41.0315967" lon="16.07752"><ele>382.0</ele><time>2026-05-03T13:51:36.564Z</time></trkpt><trkpt lat="41.0317383" lon="16.07746"><ele>382.0</ele><time>2026-05-03T13:51:37.564Z</time></trkpt><trkpt lat="41.0318767" lon="16.077395"><ele>382.25</ele><time>2026-05-03T13:51:38.564Z</time></trkpt><trkpt lat="41.0320083" lon="16.0773067"><ele>382.5</ele><time>2026-05-03T13:51:39.565Z</time></trkpt><trkpt lat="41.0321433" lon="16.0772317"><ele>382.75</ele><time>2026-05-03T13:51:40.565Z</time></trkpt><trkpt lat="41.0322683" lon="16.0771533"><ele>383.0</ele><time>2026-05-03T13:51:41.564Z</time></trkpt><trkpt lat="41.03239" lon="16.0770783"><ele>382.25</ele><time>2026-05-03T13:51:42.564Z</time></trkpt><trkpt lat="41.0324983" lon="16.077015"><ele>381.5</ele><time>2026-05-03T13:51:43.564Z</time></trkpt><trkpt lat="41.0326133" lon="16.0769333"><ele>380.75</ele><time>2026-05-03T13:51:44.564Z</time></trkpt><trkpt lat="41.0327467" lon="16.0768467"><ele>380.0</ele><time>2026-05-03T13:51:45.564Z</time></trkpt><trkpt lat="41.0328833" lon="16.076755"><ele>380.0</ele><time>2026-05-03T13:51:46.564Z</time></trkpt><trkpt lat="41.033035" lon="16.07668"><ele>380.0</ele><time>2026-05-03T13:51:47.565Z</time></trkpt><trkpt lat="41.0331967" lon="16.076625"><ele>380.0</ele><time>2026-05-03T13:51:48.564Z</time></trkpt><trkpt lat="41.0333667" lon="16.0765783"><ele>379.0</ele><time>2026-05-03T13:51:49.565Z</time></trkpt><trkpt lat="41.0335383" lon="16.076545"><ele>378.0</ele><time>2026-05-03T13:51:50.564Z</time></trkpt><trkpt lat="41.0337033" lon="16.0765267"><ele>377.0</ele><time>2026-05-03T13:51:51.564Z</time></trkpt><trkpt lat="41.033865" lon="16.0765"><ele>377.0</ele><time>2026-05-03T13:51:52.565Z</time></trkpt><trkpt lat="41.0340217" lon="16.0764617"><ele>377.0</ele><time>2026-05-03T13:51:53.564Z</time></trkpt><trkpt lat="41.0341817" lon="16.0764217"><ele>377.0</ele><time>2026-05-03T13:51:54.564Z</time></trkpt><trkpt lat="41.0343433" lon="16.0763717"><ele>375.6666666666667</ele><time>2026-05-03T13:51:55.564Z</time></trkpt><trkpt lat="41.0345083" lon="16.0763267"><ele>374.3333333333333</ele><time>2026-05-03T13:51:56.564Z</time></trkpt><trkpt lat="41.034675" lon="16.0762883"><ele>373.0</ele><time>2026-05-03T13:51:57.564Z</time></trkpt><trkpt lat="41.0348433" lon="16.076245"><ele>372.0</ele><time>2026-05-03T13:51:58.564Z</time></trkpt><trkpt lat="41.0350183" lon="16.0762083"><ele>371.0</ele><time>2026-05-03T13:51:59.564Z</time></trkpt><trkpt lat="41.035185" lon="16.07617"><ele>370.0</ele><time>2026-05-03T13:52:00.564Z</time></trkpt><trkpt lat="41.035355" lon="16.0761333"><ele>370.0</ele><time>2026-05-03T13:52:01.564Z</time></trkpt><trkpt lat="41.03552" lon="16.0761033"><ele>370.0</ele><time>2026-05-03T13:52:02.564Z</time></trkpt><trkpt lat="41.03568" lon="16.07606"><ele>370.0</ele><time>2026-05-03T13:52:03.565Z</time></trkpt><trkpt lat="41.0358283" lon="16.0760283"><ele>368.75</ele><time>2026-05-03T13:52:04.565Z</time></trkpt><trkpt lat="41.0359783" lon="16.0760017"><ele>367.5</ele><time>2026-05-03T13:52:05.565Z</time></trkpt><trkpt lat="41.03613" lon="16.0759667"><ele>366.25</ele><time>2026-05-03T13:52:06.565Z</time></trkpt><trkpt lat="41.036265" lon="16.075935"><ele>365.0</ele><time>2026-05-03T13:52:07.565Z</time></trkpt><trkpt lat="41.03639" lon="16.0758967"><ele>365.0</ele><time>2026-05-03T13:52:08.564Z</time></trkpt><trkpt lat="41.0365133" lon="16.075865"><ele>365.0</ele><time>2026-05-03T13:52:09.564Z</time></trkpt><trkpt lat="41.0366233" lon="16.075825"><ele>365.0</ele><time>2026-05-03T13:52:10.564Z</time></trkpt><trkpt lat="41.0367167" lon="16.0757967"><ele>365.0</ele><time>2026-05-03T13:52:11.565Z</time></trkpt><trkpt lat="41.0367983" lon="16.0757717"><ele>365.0</ele><time>2026-05-03T13:52:12.564Z</time></trkpt><trkpt lat="41.0368767" lon="16.0757533"><ele>364.5</ele><time>2026-05-03T13:52:13.564Z</time></trkpt><trkpt lat="41.036945" lon="16.0757283"><ele>364.0</ele><time>2026-05-03T13:52:14.564Z</time></trkpt><trkpt lat="41.037015" lon="16.0757083"><ele>363.5</ele><time>2026-05-03T13:52:15.564Z</time></trkpt><trkpt lat="41.0371" lon="16.075705"><ele>363.0</ele><time>2026-05-03T13:52:16.564Z</time></trkpt><trkpt lat="41.0371967" lon="16.0756933"><ele>362.5</ele><time>2026-05-03T13:52:17.565Z</time></trkpt><trkpt lat="41.0373067" lon="16.0756933"><ele>362.0</ele><time>2026-05-03T13:52:18.564Z</time></trkpt><trkpt lat="41.0374267" lon="16.0756783"><ele>361.5</ele><time>2026-05-03T13:52:19.564Z</time></trkpt><trkpt lat="41.0375617" lon="16.07565"><ele>361.0</ele><time>2026-05-03T13:52:20.564Z</time></trkpt><trkpt lat="41.0377" lon="16.0756233"><ele>360.5</ele><time>2026-05-03T13:52:21.564Z</time></trkpt><trkpt lat="41.0378467" lon="16.0755967"><ele>360.0</ele><time>2026-05-03T13:52:22.565Z</time></trkpt><trkpt lat="41.038" lon="16.0755767"><ele>360.0</ele><time>2026-05-03T13:52:23.564Z</time></trkpt><trkpt lat="41.0381533" lon="16.0755567"><ele>360.0</ele><time>2026-05-03T13:52:24.564Z</time></trkpt><trkpt lat="41.0382817" lon="16.0755333"><ele>360.0</ele><time>2026-05-03T13:52:25.564Z</time></trkpt><trkpt lat="41.0384033" lon="16.07551"><ele>360.0</ele><time>2026-05-03T13:52:26.564Z</time></trkpt><trkpt lat="41.0385283" lon="16.0754967"><ele>359.8</ele><time>2026-05-03T13:52:27.565Z</time></trkpt><trkpt lat="41.03865" lon="16.07548"><ele>359.6</ele><time>2026-05-03T13:52:28.565Z</time></trkpt><trkpt lat="41.0387667" lon="16.075455"><ele>359.4</ele><time>2026-05-03T13:52:29.564Z</time></trkpt><trkpt lat="41.0388683" lon="16.0754267"><ele>359.2</ele><time>2026-05-03T13:52:30.564Z</time></trkpt><trkpt lat="41.038955" lon="16.0753867"><ele>359.0</ele><time>2026-05-03T13:52:31.565Z</time></trkpt><trkpt lat="41.0390267" lon="16.075325"><ele>359.0</ele><time>2026-05-03T13:52:32.565Z</time></trkpt><trkpt lat="41.0391017" lon="16.0752533"><ele>359.0</ele><time>2026-05-03T13:52:33.564Z</time></trkpt><trkpt lat="41.0391683" lon="16.07515"><ele>359.0</ele><time>2026-05-03T13:52:34.565Z</time></trkpt><trkpt lat="41.0392283" lon="16.075035"><ele>359.0</ele><time>2026-05-03T13:52:35.565Z</time></trkpt><trkpt lat="41.0393" lon="16.07492"><ele>359.0</ele><time>2026-05-03T13:52:36.565Z</time></trkpt><trkpt lat="41.0393667" lon="16.07479"><ele>358.0</ele><time>2026-05-03T13:52:37.564Z</time></trkpt><trkpt lat="41.0394317" lon="16.0746533"><ele>357.0</ele><time>2026-05-03T13:52:38.564Z</time></trkpt><trkpt lat="41.0394967" lon="16.0745167"><ele>356.0</ele><time>2026-05-03T13:52:39.564Z</time></trkpt><trkpt lat="41.0395683" lon="16.0743683"><ele>355.0</ele><time>2026-05-03T13:52:40.564Z</time></trkpt><trkpt lat="41.03965" lon="16.0742167"><ele>354.25</ele><time>2026-05-03T13:52:41.564Z</time></trkpt><trkpt lat="41.039745" lon="16.0740817"><ele>353.5</ele><time>2026-05-03T13:52:42.564Z</time></trkpt><trkpt lat="41.0398333" lon="16.0739317"><ele>352.75</ele><time>2026-05-03T13:52:43.564Z</time></trkpt><trkpt lat="41.03991" lon="16.0737767"><ele>352.0</ele><time>2026-05-03T13:52:44.564Z</time></trkpt><trkpt lat="41.0399733" lon="16.0736133"><ele>352.0</ele><time>2026-05-03T13:52:45.564Z</time></trkpt><trkpt lat="41.040035" lon="16.0734583"><ele>352.0</ele><time>2026-05-03T13:52:46.564Z</time></trkpt><trkpt lat="41.04008" lon="16.0733067"><ele>352.0</ele><time>2026-05-03T13:52:47.565Z</time></trkpt><trkpt lat="41.0401233" lon="16.0731783"><ele>352.0</ele><time>2026-05-03T13:52:48.565Z</time></trkpt><trkpt lat="41.0401833" lon="16.073045"><ele>351.0</ele><time>2026-05-03T13:52:49.565Z</time></trkpt><trkpt lat="41.04026" lon="16.0729067"><ele>350.0</ele><time>2026-05-03T13:52:50.564Z</time></trkpt><trkpt lat="41.0403283" lon="16.0727483"><ele>349.0</ele><time>2026-05-03T13:52:51.564Z</time></trkpt><trkpt lat="41.0403967" lon="16.0725833"><ele>348.0</ele><time>2026-05-03T13:52:52.564Z</time></trkpt><trkpt lat="41.0404617" lon="16.0724283"><ele>347.25</ele><time>2026-05-03T13:52:53.564Z</time></trkpt><trkpt lat="41.0405283" lon="16.0722717"><ele>346.5</ele><time>2026-05-03T13:52:54.564Z</time></trkpt><trkpt lat="41.0406017" lon="16.0721033"><ele>345.75</ele><time>2026-05-03T13:52:55.565Z</time></trkpt><trkpt lat="41.0406783" lon="16.07193"><ele>345.0</ele><time>2026-05-03T13:52:56.565Z</time></trkpt><trkpt lat="41.0407533" lon="16.0717567"><ele>344.0</ele><time>2026-05-03T13:52:57.564Z</time></trkpt><trkpt lat="41.040825" lon="16.0715733"><ele>343.0</ele><time>2026-05-03T13:52:58.564Z</time></trkpt><trkpt lat="41.0408983" lon="16.071395"><ele>342.0</ele><time>2026-05-03T13:52:59.564Z</time></trkpt><trkpt lat="41.0409733" lon="16.0712167"><ele>342.0</ele><time>2026-05-03T13:53:00.564Z</time></trkpt><trkpt lat="41.0410517" lon="16.07104"><ele>342.0</ele><time>2026-05-03T13:53:01.564Z</time></trkpt><trkpt lat="41.0411267" lon="16.0708567"><ele>342.0</ele><time>2026-05-03T13:53:02.565Z</time></trkpt><trkpt lat="41.0411933" lon="16.0706733"><ele>340.6666666666667</ele><time>2026-05-03T13:53:03.564Z</time></trkpt><trkpt lat="41.041265" lon="16.070485"><ele>339.33333333333337</ele><time>2026-05-03T13:53:04.564Z</time></trkpt><trkpt lat="41.04135" lon="16.0703017"><ele>338.0</ele><time>2026-05-03T13:53:05.564Z</time></trkpt><trkpt lat="41.0414283" lon="16.0701167"><ele>338.0</ele><time>2026-05-03T13:53:06.564Z</time></trkpt><trkpt lat="41.0415133" lon="16.069935"><ele>338.0</ele><time>2026-05-03T13:53:07.565Z</time></trkpt><trkpt lat="41.0416" lon="16.0697517"><ele>338.0</ele><time>2026-05-03T13:53:08.564Z</time></trkpt><trkpt lat="41.0416717" lon="16.0695767"><ele>338.0</ele><time>2026-05-03T13:53:09.565Z</time></trkpt><trkpt lat="41.041735" lon="16.0694217"><ele>338.0</ele><time>2026-05-03T13:53:10.564Z</time></trkpt><trkpt lat="41.041795" lon="16.06928"><ele>338.0</ele><time>2026-05-03T13:53:11.565Z</time></trkpt><trkpt lat="41.04185" lon="16.0691483"><ele>338.0</ele><time>2026-05-03T13:53:12.564Z</time></trkpt><trkpt lat="41.04189" lon="16.0690267"><ele>337.6666666666667</ele><time>2026-05-03T13:53:13.564Z</time></trkpt><trkpt lat="41.0419217" lon="16.0689367"><ele>337.33333333333337</ele><time>2026-05-03T13:53:14.564Z</time></trkpt><trkpt lat="41.04195" lon="16.068855"><ele>337.0</ele><time>2026-05-03T13:53:15.564Z</time></trkpt><trkpt lat="41.0420133" lon="16.068715"><ele>336.6666666666667</ele><time>2026-05-03T13:53:17.564Z</time></trkpt><trkpt lat="41.0420717" lon="16.06866"><ele>336.3333333333333</ele><time>2026-05-03T13:53:18.564Z</time></trkpt><trkpt lat="41.0421483" lon="16.068605"><ele>336.0</ele><time>2026-05-03T13:53:19.564Z</time></trkpt><trkpt lat="41.0422417" lon="16.068555"><ele>336.0</ele><time>2026-05-03T13:53:20.564Z</time></trkpt><trkpt lat="41.0423467" lon="16.0684983"><ele>336.0</ele><time>2026-05-03T13:53:21.564Z</time></trkpt><trkpt lat="41.042465" lon="16.068435"><ele>336.0</ele><time>2026-05-03T13:53:22.564Z</time></trkpt><trkpt lat="41.0425917" lon="16.0683617"><ele>336.0</ele><time>2026-05-03T13:53:23.564Z</time></trkpt><trkpt lat="41.0427233" lon="16.0682783"><ele>336.3333333333333</ele><time>2026-05-03T13:53:24.565Z</time></trkpt><trkpt lat="41.04286" lon="16.0681917"><ele>336.66666666666663</ele><time>2026-05-03T13:53:25.564Z</time></trkpt><trkpt lat="41.043" lon="16.06809"><ele>337.0</ele><time>2026-05-03T13:53:26.564Z</time></trkpt><trkpt lat="41.04315" lon="16.0679767"><ele>337.0</ele><time>2026-05-03T13:53:27.565Z</time></trkpt><trkpt lat="41.0432933" lon="16.0678633"><ele>337.0</ele><time>2026-05-03T13:53:28.564Z</time></trkpt><trkpt lat="41.0434433" lon="16.0677417"><ele>337.0</ele><time>2026-05-03T13:53:29.564Z</time></trkpt><trkpt lat="41.0435933" lon="16.06762"><ele>336.66666666666663</ele><time>2026-05-03T13:53:30.565Z</time></trkpt><trkpt lat="41.0437417" lon="16.0674983"><ele>336.3333333333333</ele><time>2026-05-03T13:53:31.564Z</time></trkpt><trkpt lat="41.04388" lon="16.067385"><ele>336.0</ele><time>2026-05-03T13:53:32.564Z</time></trkpt><trkpt lat="41.0440233" lon="16.067285"><ele>335.75</ele><time>2026-05-03T13:53:33.565Z</time></trkpt><trkpt lat="41.04415" lon="16.0671717"><ele>335.5</ele><time>2026-05-03T13:53:34.564Z</time></trkpt><trkpt lat="41.0442683" lon="16.067085"><ele>335.25</ele><time>2026-05-03T13:53:35.564Z</time></trkpt><trkpt lat="41.0443583" lon="16.0670067"><ele>335.0</ele><time>2026-05-03T13:53:36.564Z</time></trkpt><trkpt lat="41.04444" lon="16.0669383"><ele>335.0</ele><time>2026-05-03T13:53:37.564Z</time></trkpt><trkpt lat="41.044535" lon="16.0668767"><ele>335.0</ele><time>2026-05-03T13:53:38.564Z</time></trkpt><trkpt lat="41.0446383" lon="16.066795"><ele>335.0</ele><time>2026-05-03T13:53:39.564Z</time></trkpt><trkpt lat="41.0447483" lon="16.0667083"><ele>335.0</ele><time>2026-05-03T13:53:40.564Z</time></trkpt><trkpt lat="41.0448683" lon="16.0666217"><ele>333.6666666666667</ele><time>2026-05-03T13:53:41.564Z</time></trkpt><trkpt lat="41.0449933" lon="16.0665233"><ele>332.3333333333333</ele><time>2026-05-03T13:53:42.564Z</time></trkpt><trkpt lat="41.0451267" lon="16.0664217"><ele>331.0</ele><time>2026-05-03T13:53:43.565Z</time></trkpt><trkpt lat="41.0452683" lon="16.0663183"><ele>331.0</ele><time>2026-05-03T13:53:44.565Z</time></trkpt><trkpt lat="41.0454167" lon="16.0662033"><ele>331.0</ele><time>2026-05-03T13:53:45.565Z</time></trkpt><trkpt lat="41.0455633" lon="16.0661017"><ele>331.0</ele><time>2026-05-03T13:53:46.565Z</time></trkpt><trkpt lat="41.0457083" lon="16.0660133"><ele>330.66666666666663</ele><time>2026-05-03T13:53:47.565Z</time></trkpt><trkpt lat="41.04586" lon="16.065945"><ele>330.3333333333333</ele><time>2026-05-03T13:53:48.564Z</time></trkpt><trkpt lat="41.0460233" lon="16.06589"><ele>330.0</ele><time>2026-05-03T13:53:49.564Z</time></trkpt><trkpt lat="41.046195" lon="16.065845"><ele>330.0</ele><time>2026-05-03T13:53:50.565Z</time></trkpt><trkpt lat="41.0463817" lon="16.0658"><ele>330.0</ele><time>2026-05-03T13:53:51.565Z</time></trkpt><trkpt lat="41.046565" lon="16.0657517"><ele>330.0</ele><time>2026-05-03T13:53:52.564Z</time></trkpt><trkpt lat="41.046755" lon="16.0656967"><ele>329.3333333333333</ele><time>2026-05-03T13:53:53.565Z</time></trkpt><trkpt lat="41.046945" lon="16.0656433"><ele>328.66666666666663</ele><time>2026-05-03T13:53:54.564Z</time></trkpt><trkpt lat="41.0471417" lon="16.0655917"><ele>328.0</ele><time>2026-05-03T13:53:55.565Z</time></trkpt><trkpt lat="41.0473367" lon="16.06555"><ele>327.0</ele><time>2026-05-03T13:53:56.564Z</time></trkpt><trkpt lat="41.0475183" lon="16.065515"><ele>326.0</ele><time>2026-05-03T13:53:57.565Z</time></trkpt><trkpt lat="41.0476817" lon="16.0654733"><ele>325.0</ele><time>2026-05-03T13:53:58.564Z</time></trkpt><trkpt lat="41.04783" lon="16.0654367"><ele>325.0</ele><time>2026-05-03T13:53:59.564Z</time></trkpt><trkpt lat="41.0479767" lon="16.0653933"><ele>325.0</ele><time>2026-05-03T13:54:00.564Z</time></trkpt><trkpt lat="41.04811" lon="16.06532"><ele>325.0</ele><time>2026-05-03T13:54:01.564Z</time></trkpt><trkpt lat="41.04826" lon="16.06522"><ele>326.0</ele><time>2026-05-03T13:54:02.565Z</time></trkpt><trkpt lat="41.048405" lon="16.065105"><ele>327.0</ele><time>2026-05-03T13:54:03.564Z</time></trkpt><trkpt lat="41.048555" lon="16.0649783"><ele>328.0</ele><time>2026-05-03T13:54:04.565Z</time></trkpt><trkpt lat="41.04871" lon="16.06486"><ele>328.0</ele><time>2026-05-03T13:54:05.564Z</time></trkpt><trkpt lat="41.048865" lon="16.0647267"><ele>328.0</ele><time>2026-05-03T13:54:06.564Z</time></trkpt><trkpt lat="41.0490267" lon="16.0645917"><ele>328.0</ele><time>2026-05-03T13:54:07.564Z</time></trkpt><trkpt lat="41.0491883" lon="16.064455"><ele>327.66666666666663</ele><time>2026-05-03T13:54:08.564Z</time></trkpt><trkpt lat="41.0493533" lon="16.0643233"><ele>327.3333333333333</ele><time>2026-05-03T13:54:09.564Z</time></trkpt><trkpt lat="41.0495183" lon="16.0641917"><ele>327.0</ele><time>2026-05-03T13:54:10.565Z</time></trkpt><trkpt lat="41.04968" lon="16.0640567"><ele>327.0</ele><time>2026-05-03T13:54:11.564Z</time></trkpt><trkpt lat="41.0498383" lon="16.06392"><ele>327.0</ele><time>2026-05-03T13:54:12.565Z</time></trkpt><trkpt lat="41.0499983" lon="16.0637883"><ele>327.0</ele><time>2026-05-03T13:54:13.564Z</time></trkpt><trkpt lat="41.05016" lon="16.0636567"><ele>326.6666666666667</ele><time>2026-05-03T13:54:14.565Z</time></trkpt><trkpt lat="41.0503217" lon="16.063525"><ele>326.33333333333337</ele><time>2026-05-03T13:54:15.564Z</time></trkpt><trkpt lat="41.0504833" lon="16.0633867"><ele>326.0</ele><time>2026-05-03T13:54:16.564Z</time></trkpt><trkpt lat="41.05065" lon="16.0632583"><ele>325.33333333333337</ele><time>2026-05-03T13:54:17.564Z</time></trkpt><trkpt lat="41.0508133" lon="16.0631283"><ele>324.6666666666667</ele><time>2026-05-03T13:54:18.564Z</time></trkpt><trkpt lat="41.0509767" lon="16.0629917"><ele>324.0</ele><time>2026-05-03T13:54:19.564Z</time></trkpt><trkpt lat="41.05114" lon="16.0628533"><ele>324.0</ele><time>2026-05-03T13:54:20.564Z</time></trkpt><trkpt lat="41.0513017" lon="16.06272"><ele>324.0</ele><time>2026-05-03T13:54:21.565Z</time></trkpt><trkpt lat="41.0514617" lon="16.062595"><ele>324.0</ele><time>2026-05-03T13:54:22.565Z</time></trkpt><trkpt lat="41.0516217" lon="16.0624633"><ele>323.6666666666667</ele><time>2026-05-03T13:54:23.564Z</time></trkpt><trkpt lat="41.0517833" lon="16.0623317"><ele>323.33333333333337</ele><time>2026-05-03T13:54:24.564Z</time></trkpt><trkpt lat="41.0519417" lon="16.0621967"><ele>323.0</ele><time>2026-05-03T13:54:25.564Z</time></trkpt><trkpt lat="41.0520983" lon="16.0620583"><ele>323.0</ele><time>2026-05-03T13:54:26.564Z</time></trkpt><trkpt lat="41.0522517" lon="16.06192"><ele>323.0</ele><time>2026-05-03T13:54:27.564Z</time></trkpt><trkpt lat="41.0524083" lon="16.061775"><ele>323.0</ele><time>2026-05-03T13:54:28.564Z</time></trkpt><trkpt lat="41.0525633" lon="16.06164"><ele>322.6666666666667</ele><time>2026-05-03T13:54:29.564Z</time></trkpt><trkpt lat="41.0527183" lon="16.0614983"><ele>322.3333333333333</ele><time>2026-05-03T13:54:30.564Z</time></trkpt><trkpt lat="41.0528817" lon="16.0613617"><ele>322.0</ele><time>2026-05-03T13:54:31.565Z</time></trkpt><trkpt lat="41.0530367" lon="16.06122"><ele>322.0</ele><time>2026-05-03T13:54:32.564Z</time></trkpt><trkpt lat="41.053195" lon="16.0610783"><ele>322.0</ele><time>2026-05-03T13:54:33.564Z</time></trkpt><trkpt lat="41.053355" lon="16.0609383"><ele>322.0</ele><time>2026-05-03T13:54:34.564Z</time></trkpt><trkpt lat="41.0534983" lon="16.06081"><ele>322.0</ele><time>2026-05-03T13:54:35.564Z</time></trkpt><trkpt lat="41.05362" lon="16.0607067"><ele>322.0</ele><time>2026-05-03T13:54:36.564Z</time></trkpt><trkpt lat="41.053715" lon="16.0606317"><ele>322.0</ele><time>2026-05-03T13:54:37.564Z</time></trkpt><trkpt lat="41.053785" lon="16.0605933"><ele>322.0</ele><time>2026-05-03T13:54:38.565Z</time></trkpt><trkpt lat="41.0538583" lon="16.0605517"><ele>322.0</ele><time>2026-05-03T13:54:40.564Z</time></trkpt><trkpt lat="41.0539433" lon="16.0604633"><ele>322.0</ele><time>2026-05-03T13:54:42.564Z</time></trkpt><trkpt lat="41.054005" lon="16.0604183"><ele>322.0</ele><time>2026-05-03T13:54:43.564Z</time></trkpt><trkpt lat="41.0540933" lon="16.0603733"><ele>322.0</ele><time>2026-05-03T13:54:44.564Z</time></trkpt><trkpt lat="41.0541867" lon="16.0603367"><ele>322.0</ele><time>2026-05-03T13:54:45.564Z</time></trkpt><trkpt lat="41.0542867" lon="16.0603"><ele>322.0</ele><time>2026-05-03T13:54:46.565Z</time></trkpt><trkpt lat="41.0544017" lon="16.0602533"><ele>322.0</ele><time>2026-05-03T13:54:47.565Z</time></trkpt><trkpt lat="41.05452" lon="16.0602067"><ele>322.0</ele><time>2026-05-03T13:54:48.564Z</time></trkpt><trkpt lat="41.0546483" lon="16.0601217"><ele>322.0</ele><time>2026-05-03T13:54:49.565Z</time></trkpt><trkpt lat="41.0547783" lon="16.06003"><ele>322.0</ele><time>2026-05-03T13:54:50.564Z</time></trkpt><trkpt lat="41.0549017" lon="16.0599267"><ele>323.0</ele><time>2026-05-03T13:54:51.564Z</time></trkpt><trkpt lat="41.0550267" lon="16.0598167"><ele>324.0</ele><time>2026-05-03T13:54:52.564Z</time></trkpt><trkpt lat="41.0551567" lon="16.0597"><ele>325.0</ele><time>2026-05-03T13:54:53.565Z</time></trkpt><trkpt lat="41.05529" lon="16.05959"><ele>325.0</ele><time>2026-05-03T13:54:54.564Z</time></trkpt><trkpt lat="41.0554283" lon="16.0594733"><ele>325.0</ele><time>2026-05-03T13:54:55.564Z</time></trkpt><trkpt lat="41.0555733" lon="16.059355"><ele>325.0</ele><time>2026-05-03T13:54:56.564Z</time></trkpt><trkpt lat="41.055715" lon="16.0592367"><ele>325.0</ele><time>2026-05-03T13:54:57.564Z</time></trkpt><trkpt lat="41.0558633" lon="16.05912"><ele>325.0</ele><time>2026-05-03T13:54:58.564Z</time></trkpt><trkpt lat="41.0560217" lon="16.05901"><ele>325.0</ele><time>2026-05-03T13:54:59.564Z</time></trkpt><trkpt lat="41.05618" lon="16.0588967"><ele>325.0</ele><time>2026-05-03T13:55:00.564Z</time></trkpt><trkpt lat="41.0563433" lon="16.05877"><ele>325.0</ele><time>2026-05-03T13:55:01.564Z</time></trkpt><trkpt lat="41.0565083" lon="16.0586483"><ele>325.0</ele><time>2026-05-03T13:55:02.564Z</time></trkpt><trkpt lat="41.0566683" lon="16.05852"><ele>324.3333333333333</ele><time>2026-05-03T13:55:03.564Z</time></trkpt><trkpt lat="41.0568367" lon="16.0583967"><ele>323.6666666666667</ele><time>2026-05-03T13:55:04.564Z</time></trkpt><trkpt lat="41.0570033" lon="16.058275"><ele>323.0</ele><time>2026-05-03T13:55:05.564Z</time></trkpt><trkpt lat="41.0571733" lon="16.0581417"><ele>323.33333333333337</ele><time>2026-05-03T13:55:06.564Z</time></trkpt><trkpt lat="41.05734" lon="16.0580183"><ele>323.6666666666667</ele><time>2026-05-03T13:55:07.564Z</time></trkpt><trkpt lat="41.0575" lon="16.0578817"><ele>324.0</ele><time>2026-05-03T13:55:08.564Z</time></trkpt><trkpt lat="41.0576683" lon="16.057745"><ele>324.0</ele><time>2026-05-03T13:55:09.564Z</time></trkpt><trkpt lat="41.0578283" lon="16.0576"><ele>324.0</ele><time>2026-05-03T13:55:10.564Z</time></trkpt><trkpt lat="41.0579917" lon="16.0574533"><ele>324.0</ele><time>2026-05-03T13:55:11.564Z</time></trkpt><trkpt lat="41.0581517" lon="16.0573183"><ele>323.3333333333333</ele><time>2026-05-03T13:55:12.564Z</time></trkpt><trkpt lat="41.0583117" lon="16.0571783"><ele>322.66666666666663</ele><time>2026-05-03T13:55:13.565Z</time></trkpt><trkpt lat="41.058475" lon="16.057035"><ele>322.0</ele><time>2026-05-03T13:55:14.565Z</time></trkpt><trkpt lat="41.0586333" lon="16.0568917"><ele>322.0</ele><time>2026-05-03T13:55:15.564Z</time></trkpt><trkpt lat="41.058795" lon="16.056745"><ele>322.0</ele><time>2026-05-03T13:55:16.564Z</time></trkpt><trkpt lat="41.05896" lon="16.0566"><ele>322.0</ele><time>2026-05-03T13:55:17.564Z</time></trkpt><trkpt lat="41.0591217" lon="16.0564683"><ele>322.0</ele><time>2026-05-03T13:55:18.565Z</time></trkpt><trkpt lat="41.0592867" lon="16.0563417"><ele>322.0</ele><time>2026-05-03T13:55:19.564Z</time></trkpt><trkpt lat="41.0594467" lon="16.0562333"><ele>322.0</ele><time>2026-05-03T13:55:20.564Z</time></trkpt><trkpt lat="41.059585" lon="16.0561433"><ele>322.0</ele><time>2026-05-03T13:55:21.564Z</time></trkpt><trkpt lat="41.05971" lon="16.0560667"><ele>322.0</ele><time>2026-05-03T13:55:22.564Z</time></trkpt><trkpt lat="41.05983" lon="16.055995"><ele>322.0</ele><time>2026-05-03T13:55:23.565Z</time></trkpt><trkpt lat="41.0599633" lon="16.055915"><ele>322.0</ele><time>2026-05-03T13:55:24.564Z</time></trkpt><trkpt lat="41.060105" lon="16.0558133"><ele>322.3333333333333</ele><time>2026-05-03T13:55:25.564Z</time></trkpt><trkpt lat="41.06025" lon="16.055735"><ele>322.6666666666667</ele><time>2026-05-03T13:55:26.564Z</time></trkpt><trkpt lat="41.060405" lon="16.05566"><ele>323.0</ele><time>2026-05-03T13:55:27.564Z</time></trkpt><trkpt lat="41.060555" lon="16.0555667"><ele>323.0</ele><time>2026-05-03T13:55:28.565Z</time></trkpt><trkpt lat="41.060705" lon="16.0554483"><ele>323.0</ele><time>2026-05-03T13:55:29.564Z</time></trkpt><trkpt lat="41.0608567" lon="16.0553167"><ele>323.0</ele><time>2026-05-03T13:55:30.564Z</time></trkpt><trkpt lat="41.0609983" lon="16.05516"><ele>322.6666666666667</ele><time>2026-05-03T13:55:31.564Z</time></trkpt><trkpt lat="41.061135" lon="16.0549967"><ele>322.3333333333333</ele><time>2026-05-03T13:55:32.565Z</time></trkpt><trkpt lat="41.0612667" lon="16.054825"><ele>322.0</ele><time>2026-05-03T13:55:33.564Z</time></trkpt><trkpt lat="41.0614067" lon="16.0546533"><ele>321.66666666666663</ele><time>2026-05-03T13:55:34.564Z</time></trkpt><trkpt lat="41.06155" lon="16.0545017"><ele>321.3333333333333</ele><time>2026-05-03T13:55:35.564Z</time></trkpt><trkpt lat="41.061695" lon="16.0543783"><ele>321.0</ele><time>2026-05-03T13:55:36.564Z</time></trkpt><trkpt lat="41.061855" lon="16.054275"><ele>321.0</ele><time>2026-05-03T13:55:37.564Z</time></trkpt><trkpt lat="41.0620133" lon="16.0541783"><ele>321.0</ele><time>2026-05-03T13:55:38.565Z</time></trkpt><trkpt lat="41.0621833" lon="16.0541"><ele>321.0</ele><time>2026-05-03T13:55:39.564Z</time></trkpt><trkpt lat="41.0623517" lon="16.054035"><ele>321.6666666666667</ele><time>2026-05-03T13:55:40.565Z</time></trkpt><trkpt lat="41.0625067" lon="16.053975"><ele>322.33333333333337</ele><time>2026-05-03T13:55:41.564Z</time></trkpt><trkpt lat="41.0626617" lon="16.0539"><ele>323.0</ele><time>2026-05-03T13:55:42.564Z</time></trkpt><trkpt lat="41.0628083" lon="16.053825"><ele>323.0</ele><time>2026-05-03T13:55:43.564Z</time></trkpt><trkpt lat="41.0629633" lon="16.0537533"><ele>323.0</ele><time>2026-05-03T13:55:44.564Z</time></trkpt><trkpt lat="41.0631083" lon="16.0536567"><ele>323.0</ele><time>2026-05-03T13:55:45.564Z</time></trkpt><trkpt lat="41.0632667" lon="16.053545"><ele>323.0</ele><time>2026-05-03T13:55:46.564Z</time></trkpt><trkpt lat="41.0634267" lon="16.0534283"><ele>323.0</ele><time>2026-05-03T13:55:47.564Z</time></trkpt><trkpt lat="41.063585" lon="16.0533"><ele>323.0</ele><time>2026-05-03T13:55:48.565Z</time></trkpt><trkpt lat="41.063745" lon="16.05317"><ele>323.0</ele><time>2026-05-03T13:55:49.565Z</time></trkpt><trkpt lat="41.063895" lon="16.05304"><ele>323.0</ele><time>2026-05-03T13:55:50.565Z</time></trkpt><trkpt lat="41.0640583" lon="16.052915"><ele>323.0</ele><time>2026-05-03T13:55:51.564Z</time></trkpt><trkpt lat="41.0642217" lon="16.0527833"><ele>322.0</ele><time>2026-05-03T13:55:52.564Z</time></trkpt><trkpt lat="41.0643717" lon="16.0526533"><ele>321.0</ele><time>2026-05-03T13:55:53.564Z</time></trkpt><trkpt lat="41.0645133" lon="16.0525433"><ele>320.0</ele><time>2026-05-03T13:55:54.565Z</time></trkpt><trkpt lat="41.0646217" lon="16.0524567"><ele>320.33333333333337</ele><time>2026-05-03T13:55:55.564Z</time></trkpt><trkpt lat="41.0646983" lon="16.0523983"><ele>320.6666666666667</ele><time>2026-05-03T13:55:56.564Z</time></trkpt><trkpt lat="41.0647817" lon="16.052315"><ele>321.0</ele><time>2026-05-03T13:55:58.565Z</time></trkpt><trkpt lat="41.0647267" lon="16.0522667"><ele>321.3333333333333</ele><time>2026-05-03T13:56:02.564Z</time></trkpt><trkpt lat="41.064615" lon="16.052235"><ele>321.66666666666663</ele><time>2026-05-03T13:56:04.564Z</time></trkpt><trkpt lat="41.0645517" lon="16.0522017"><ele>322.0</ele><time>2026-05-03T13:56:05.565Z</time></trkpt><trkpt lat="41.0644767" lon="16.052145"><ele>322.0</ele><time>2026-05-03T13:56:06.565Z</time></trkpt><trkpt lat="41.0644" lon="16.052055"><ele>322.0</ele><time>2026-05-03T13:56:07.564Z</time></trkpt><trkpt lat="41.0643217" lon="16.0519583"><ele>322.0</ele><time>2026-05-03T13:56:08.564Z</time></trkpt><trkpt lat="41.064235" lon="16.0518533"><ele>322.0</ele><time>2026-05-03T13:56:09.564Z</time></trkpt><trkpt lat="41.0641417" lon="16.05176"><ele>322.0</ele><time>2026-05-03T13:56:10.564Z</time></trkpt><trkpt lat="41.0640433" lon="16.051655"><ele>323.25</ele><time>2026-05-03T13:56:11.564Z</time></trkpt><trkpt lat="41.0639317" lon="16.0515367"><ele>324.5</ele><time>2026-05-03T13:56:12.565Z</time></trkpt><trkpt lat="41.06382" lon="16.0514117"><ele>325.75</ele><time>2026-05-03T13:56:13.564Z</time></trkpt><trkpt lat="41.0637083" lon="16.0512867"><ele>327.0</ele><time>2026-05-03T13:56:14.564Z</time></trkpt><trkpt lat="41.0635967" lon="16.05116"><ele>327.0</ele><time>2026-05-03T13:56:15.565Z</time></trkpt><trkpt lat="41.06348" lon="16.0510283"><ele>327.0</ele><time>2026-05-03T13:56:16.564Z</time></trkpt><trkpt lat="41.06336" lon="16.0508867"><ele>327.0</ele><time>2026-05-03T13:56:17.564Z</time></trkpt><trkpt lat="41.0632367" lon="16.0507433"><ele>328.3333333333333</ele><time>2026-05-03T13:56:18.564Z</time></trkpt><trkpt lat="41.0631133" lon="16.0506017"><ele>329.66666666666663</ele><time>2026-05-03T13:56:19.564Z</time></trkpt><trkpt lat="41.062995" lon="16.050465"><ele>331.0</ele><time>2026-05-03T13:56:20.564Z</time></trkpt><trkpt lat="41.062885" lon="16.0503233"><ele>331.0</ele><time>2026-05-03T13:56:21.564Z</time></trkpt><trkpt lat="41.06278" lon="16.0501833"><ele>331.0</ele><time>2026-05-03T13:56:22.564Z</time></trkpt><trkpt lat="41.0626717" lon="16.050035"><ele>331.0</ele><time>2026-05-03T13:56:23.564Z</time></trkpt><trkpt lat="41.062565" lon="16.049875"><ele>331.3333333333333</ele><time>2026-05-03T13:56:24.565Z</time></trkpt><trkpt lat="41.0624683" lon="16.049705"><ele>331.6666666666667</ele><time>2026-05-03T13:56:25.565Z</time></trkpt><trkpt lat="41.0623717" lon="16.0495283"><ele>332.0</ele><time>2026-05-03T13:56:26.564Z</time></trkpt><trkpt lat="41.0622717" lon="16.04935"><ele>332.6666666666667</ele><time>2026-05-03T13:56:27.565Z</time></trkpt><trkpt lat="41.0621717" lon="16.0491667"><ele>333.3333333333333</ele><time>2026-05-03T13:56:28.564Z</time></trkpt><trkpt lat="41.062065" lon="16.0489817"><ele>334.0</ele><time>2026-05-03T13:56:29.564Z</time></trkpt><trkpt lat="41.0619617" lon="16.0488017"><ele>334.0</ele><time>2026-05-03T13:56:30.564Z</time></trkpt><trkpt lat="41.0618567" lon="16.0486283"><ele>334.0</ele><time>2026-05-03T13:56:31.565Z</time></trkpt><trkpt lat="41.0617517" lon="16.0484567"><ele>334.0</ele><time>2026-05-03T13:56:32.565Z</time></trkpt><trkpt lat="41.061645" lon="16.0483"><ele>334.3333333333333</ele><time>2026-05-03T13:56:33.564Z</time></trkpt><trkpt lat="41.0615417" lon="16.0481433"><ele>334.6666666666667</ele><time>2026-05-03T13:56:34.564Z</time></trkpt><trkpt lat="41.0614333" lon="16.04798"><ele>335.0</ele><time>2026-05-03T13:56:35.564Z</time></trkpt><trkpt lat="41.0613233" lon="16.0478183"><ele>335.0</ele><time>2026-05-03T13:56:36.564Z</time></trkpt><trkpt lat="41.061205" lon="16.04767"><ele>335.0</ele><time>2026-05-03T13:56:37.565Z</time></trkpt><trkpt lat="41.0610933" lon="16.04752"><ele>335.0</ele><time>2026-05-03T13:56:38.565Z</time></trkpt><trkpt lat="41.060975" lon="16.0473817"><ele>335.33333333333337</ele><time>2026-05-03T13:56:39.565Z</time></trkpt><trkpt lat="41.06087" lon="16.0472317"><ele>335.6666666666667</ele><time>2026-05-03T13:56:40.565Z</time></trkpt><trkpt lat="41.0607667" lon="16.04708"><ele>336.0</ele><time>2026-05-03T13:56:41.564Z</time></trkpt><trkpt lat="41.06067" lon="16.046915"><ele>336.0</ele><time>2026-05-03T13:56:42.565Z</time></trkpt><trkpt lat="41.0605617" lon="16.046745"><ele>336.0</ele><time>2026-05-03T13:56:43.565Z</time></trkpt><trkpt lat="41.060445" lon="16.0465817"><ele>336.0</ele><time>2026-05-03T13:56:44.564Z</time></trkpt><trkpt lat="41.0603167" lon="16.04642"><ele>335.0</ele><time>2026-05-03T13:56:45.564Z</time></trkpt><trkpt lat="41.0601967" lon="16.0462583"><ele>334.0</ele><time>2026-05-03T13:56:46.565Z</time></trkpt><trkpt lat="41.06008" lon="16.0461067"><ele>333.0</ele><time>2026-05-03T13:56:47.564Z</time></trkpt><trkpt lat="41.05995" lon="16.04596"><ele>332.6666666666667</ele><time>2026-05-03T13:56:48.564Z</time></trkpt><trkpt lat="41.0598233" lon="16.0458167"><ele>332.33333333333337</ele><time>2026-05-03T13:56:49.564Z</time></trkpt><trkpt lat="41.059705" lon="16.0456867"><ele>332.0</ele><time>2026-05-03T13:56:50.565Z</time></trkpt><trkpt lat="41.059605" lon="16.04557"><ele>331.25</ele><time>2026-05-03T13:56:51.564Z</time></trkpt><trkpt lat="41.0594983" lon="16.04546"><ele>330.5</ele><time>2026-05-03T13:56:52.565Z</time></trkpt><trkpt lat="41.0593817" lon="16.0453467"><ele>329.75</ele><time>2026-05-03T13:56:53.564Z</time></trkpt><trkpt lat="41.0592667" lon="16.045225"><ele>329.0</ele><time>2026-05-03T13:56:54.564Z</time></trkpt><trkpt lat="41.0591483" lon="16.0451"><ele>328.0</ele><time>2026-05-03T13:56:55.565Z</time></trkpt><trkpt lat="41.05904" lon="16.044985"><ele>327.0</ele><time>2026-05-03T13:56:56.565Z</time></trkpt><trkpt lat="41.0589317" lon="16.04487"><ele>326.0</ele><time>2026-05-03T13:56:57.564Z</time></trkpt><trkpt lat="41.0588283" lon="16.0447617"><ele>325.0</ele><time>2026-05-03T13:56:58.564Z</time></trkpt><trkpt lat="41.0587083" lon="16.044665"><ele>324.0</ele><time>2026-05-03T13:56:59.564Z</time></trkpt><trkpt lat="41.0585783" lon="16.0445783"><ele>323.0</ele><time>2026-05-03T13:57:00.564Z</time></trkpt><trkpt lat="41.0584483" lon="16.044495"><ele>322.0</ele><time>2026-05-03T13:57:01.564Z</time></trkpt><trkpt lat="41.05832" lon="16.0444117"><ele>321.0</ele><time>2026-05-03T13:57:02.565Z</time></trkpt><trkpt lat="41.0581967" lon="16.0443233"><ele>321.0</ele><time>2026-05-03T13:57:03.564Z</time></trkpt><trkpt lat="41.0580833" lon="16.04423"><ele>321.0</ele><time>2026-05-03T13:57:04.564Z</time></trkpt><trkpt lat="41.0579717" lon="16.0441133"><ele>321.0</ele><time>2026-05-03T13:57:05.564Z</time></trkpt><trkpt lat="41.0578767" lon="16.043985"><ele>321.0</ele><time>2026-05-03T13:57:06.564Z</time></trkpt><trkpt lat="41.0577833" lon="16.04385"><ele>322.3333333333333</ele><time>2026-05-03T13:57:07.565Z</time></trkpt><trkpt lat="41.0576767" lon="16.0437067"><ele>323.66666666666663</ele><time>2026-05-03T13:57:08.565Z</time></trkpt><trkpt lat="41.0575633" lon="16.04356"><ele>325.0</ele><time>2026-05-03T13:57:09.565Z</time></trkpt><trkpt lat="41.0574583" lon="16.0434117"><ele>325.5</ele><time>2026-05-03T13:57:10.565Z</time></trkpt><trkpt lat="41.0573667" lon="16.04326"><ele>326.0</ele><time>2026-05-03T13:57:11.565Z</time></trkpt><trkpt lat="41.0572783" lon="16.0430967"><ele>326.5</ele><time>2026-05-03T13:57:12.564Z</time></trkpt><trkpt lat="41.057205" lon="16.04294"><ele>327.0</ele><time>2026-05-03T13:57:13.564Z</time></trkpt><trkpt lat="41.057155" lon="16.0427883"><ele>327.0</ele><time>2026-05-03T13:57:14.565Z</time></trkpt><trkpt lat="41.0571217" lon="16.0426483"><ele>327.0</ele><time>2026-05-03T13:57:15.564Z</time></trkpt><trkpt lat="41.0570733" lon="16.04253"><ele>327.0</ele><time>2026-05-03T13:57:16.565Z</time></trkpt><trkpt lat="41.0570117" lon="16.0424133"><ele>327.0</ele><time>2026-05-03T13:57:17.565Z</time></trkpt><trkpt lat="41.0569483" lon="16.0422917"><ele>327.0</ele><time>2026-05-03T13:57:18.564Z</time></trkpt><trkpt lat="41.056885" lon="16.0421683"><ele>324.75</ele><time>2026-05-03T13:57:19.565Z</time></trkpt><trkpt lat="41.056815" lon="16.042045"><ele>322.5</ele><time>2026-05-03T13:57:20.564Z</time></trkpt><trkpt lat="41.0567383" lon="16.0419183"><ele>320.25</ele><time>2026-05-03T13:57:21.564Z</time></trkpt><trkpt lat="41.056655" lon="16.04179"><ele>318.0</ele><time>2026-05-03T13:57:22.564Z</time></trkpt><trkpt lat="41.0565667" lon="16.0416633"><ele>312.75</ele><time>2026-05-03T13:57:23.564Z</time></trkpt><trkpt lat="41.0564733" lon="16.0415333"><ele>307.5</ele><time>2026-05-03T13:57:24.564Z</time></trkpt><trkpt lat="41.0563717" lon="16.0414117"><ele>302.25</ele><time>2026-05-03T13:57:25.565Z</time></trkpt><trkpt lat="41.0562733" lon="16.0412833"><ele>297.0</ele><time>2026-05-03T13:57:26.564Z</time></trkpt><trkpt lat="41.0561683" lon="16.04115"><ele>297.0</ele><time>2026-05-03T13:57:27.564Z</time></trkpt><trkpt lat="41.0560633" lon="16.0410133"><ele>297.0</ele><time>2026-05-03T13:57:28.564Z</time></trkpt><trkpt lat="41.05596" lon="16.0408767"><ele>297.0</ele><time>2026-05-03T13:57:29.564Z</time></trkpt><trkpt lat="41.0558633" lon="16.04074"><ele>297.0</ele><time>2026-05-03T13:57:30.564Z</time></trkpt><trkpt lat="41.0557567" lon="16.0406"><ele>294.0</ele><time>2026-05-03T13:57:31.565Z</time></trkpt><trkpt lat="41.0556617" lon="16.0404517"><ele>291.0</ele><time>2026-05-03T13:57:32.565Z</time></trkpt><trkpt lat="41.0555667" lon="16.0403067"><ele>288.0</ele><time>2026-05-03T13:57:33.564Z</time></trkpt><trkpt lat="41.0554617" lon="16.04017"><ele>285.0</ele><time>2026-05-03T13:57:34.564Z</time></trkpt><trkpt lat="41.055375" lon="16.04004"><ele>282.5</ele><time>2026-05-03T13:57:35.565Z</time></trkpt><trkpt lat="41.0553033" lon="16.0399333"><ele>280.0</ele><time>2026-05-03T13:57:36.565Z</time></trkpt><trkpt lat="41.055245" lon="16.0398467"><ele>277.5</ele><time>2026-05-03T13:57:37.565Z</time></trkpt><trkpt lat="41.0552017" lon="16.0397717"><ele>275.0</ele><time>2026-05-03T13:57:38.565Z</time></trkpt><trkpt lat="41.0551567" lon="16.0397017"><ele>272.5</ele><time>2026-05-03T13:57:39.564Z</time></trkpt><trkpt lat="41.0551133" lon="16.03963"><ele>270.0</ele><time>2026-05-03T13:57:40.564Z</time></trkpt><trkpt lat="41.055035" lon="16.0395133"><ele>270.0</ele><time>2026-05-03T13:57:42.564Z</time></trkpt><trkpt lat="41.0549717" lon="16.0393983"><ele>270.0</ele><time>2026-05-03T13:57:44.564Z</time></trkpt><trkpt lat="41.0549333" lon="16.039325"><ele>270.0</ele><time>2026-05-03T13:57:46.565Z</time></trkpt><trkpt lat="41.0548767" lon="16.0392717"><ele>270.0</ele><time>2026-05-03T13:57:48.565Z</time></trkpt><trkpt lat="41.0547783" lon="16.0391867"><ele>270.0</ele><time>2026-05-03T13:57:50.565Z</time></trkpt><trkpt lat="41.0547183" lon="16.0391283"><ele>270.0</ele><time>2026-05-03T13:57:51.564Z</time></trkpt><trkpt lat="41.0546433" lon="16.0390567"><ele>266.2</ele><time>2026-05-03T13:57:52.565Z</time></trkpt><trkpt lat="41.0545617" lon="16.0389983"><ele>262.4</ele><time>2026-05-03T13:57:53.564Z</time></trkpt><trkpt lat="41.05448" lon="16.0389417"><ele>258.6</ele><time>2026-05-03T13:57:54.564Z</time></trkpt><trkpt lat="41.0543933" lon="16.03889"><ele>254.8</ele><time>2026-05-03T13:57:55.565Z</time></trkpt><trkpt lat="41.0543133" lon="16.0388367"><ele>251.0</ele><time>2026-05-03T13:57:56.565Z</time></trkpt><trkpt lat="41.05423" lon="16.038775"><ele>251.0</ele><time>2026-05-03T13:57:57.565Z</time></trkpt><trkpt lat="41.0541483" lon="16.0387017"><ele>251.00000000000003</ele><time>2026-05-03T13:57:58.564Z</time></trkpt><trkpt lat="41.0540717" lon="16.038615"><ele>251.00000000000003</ele><time>2026-05-03T13:57:59.564Z</time></trkpt><trkpt lat="41.0539867" lon="16.03853"><ele>251.0</ele><time>2026-05-03T13:58:00.564Z</time></trkpt><trkpt lat="41.0539117" lon="16.0384533"><ele>251.0</ele><time>2026-05-03T13:58:01.564Z</time></trkpt><trkpt lat="41.0538417" lon="16.0383767"><ele>250.16666666666669</ele><time>2026-05-03T13:58:02.564Z</time></trkpt><trkpt lat="41.053775" lon="16.0383033"><ele>249.33333333333334</ele><time>2026-05-03T13:58:03.564Z</time></trkpt><trkpt lat="41.053715" lon="16.03822"><ele>248.5</ele><time>2026-05-03T13:58:04.564Z</time></trkpt><trkpt lat="41.0536583" lon="16.03814"><ele>247.66666666666669</ele><time>2026-05-03T13:58:05.564Z</time></trkpt><trkpt lat="41.0535983" lon="16.03806"><ele>246.83333333333334</ele><time>2026-05-03T13:58:06.565Z</time></trkpt><trkpt lat="41.0535383" lon="16.0379733"><ele>246.0</ele><time>2026-05-03T13:58:07.564Z</time></trkpt><trkpt lat="41.0534733" lon="16.037885"><ele>244.20000000000002</ele><time>2026-05-03T13:58:08.564Z</time></trkpt><trkpt lat="41.05341" lon="16.037795"><ele>242.40000000000003</ele><time>2026-05-03T13:58:09.564Z</time></trkpt><trkpt lat="41.05334" lon="16.0377033"><ele>240.6</ele><time>2026-05-03T13:58:10.565Z</time></trkpt><trkpt lat="41.053275" lon="16.0376083"><ele>238.8</ele><time>2026-05-03T13:58:11.564Z</time></trkpt><trkpt lat="41.0532067" lon="16.0375033"><ele>237.0</ele><time>2026-05-03T13:58:12.565Z</time></trkpt><trkpt lat="41.0531333" lon="16.0374133"><ele>234.0</ele><time>2026-05-03T13:58:13.564Z</time></trkpt><trkpt lat="41.05306" lon="16.0373133"><ele>231.0</ele><time>2026-05-03T13:58:14.564Z</time></trkpt><trkpt lat="41.0529917" lon="16.0372083"><ele>228.0</ele><time>2026-05-03T13:58:15.564Z</time></trkpt><trkpt lat="41.0529183" lon="16.0371033"><ele>225.0</ele><time>2026-05-03T13:58:16.564Z</time></trkpt><trkpt lat="41.05285" lon="16.0369967"><ele>222.0</ele><time>2026-05-03T13:58:17.565Z</time></trkpt><trkpt lat="41.0527767" lon="16.0368933"><ele>222.0</ele><time>2026-05-03T13:58:18.564Z</time></trkpt><trkpt lat="41.05271" lon="16.0367883"><ele>222.0</ele><time>2026-05-03T13:58:19.565Z</time></trkpt><trkpt lat="41.0526433" lon="16.0366783"><ele>222.0</ele><time>2026-05-03T13:58:20.565Z</time></trkpt><trkpt lat="41.0525767" lon="16.0365717"><ele>222.0</ele><time>2026-05-03T13:58:21.565Z</time></trkpt><trkpt lat="41.052515" lon="16.0364683"><ele>222.0</ele><time>2026-05-03T13:58:22.565Z</time></trkpt><trkpt lat="41.0524617" lon="16.036385"><ele>221.2</ele><time>2026-05-03T13:58:23.564Z</time></trkpt><trkpt lat="41.0524283" lon="16.0363083"><ele>220.39999999999998</ele><time>2026-05-03T13:58:24.564Z</time></trkpt><trkpt lat="41.0524433" lon="16.03615"><ele>219.60000000000002</ele><time>2026-05-03T13:58:26.564Z</time></trkpt><trkpt lat="41.0524783" lon="16.03605"><ele>218.8</ele><time>2026-05-03T13:58:27.564Z</time></trkpt><trkpt lat="41.0525383" lon="16.0359433"><ele>218.0</ele><time>2026-05-03T13:58:28.564Z</time></trkpt><trkpt lat="41.0526083" lon="16.03584"><ele>217.25</ele><time>2026-05-03T13:58:29.565Z</time></trkpt><trkpt lat="41.05268" lon="16.0357183"><ele>216.5</ele><time>2026-05-03T13:58:30.564Z</time></trkpt><trkpt lat="41.052745" lon="16.0356"><ele>215.75</ele><time>2026-05-03T13:58:31.565Z</time></trkpt><trkpt lat="41.0528183" lon="16.035475"><ele>215.0</ele><time>2026-05-03T13:58:32.564Z</time></trkpt><trkpt lat="41.0528917" lon="16.035355"><ele>215.0</ele><time>2026-05-03T13:58:33.564Z</time></trkpt><trkpt lat="41.0529683" lon="16.03524"><ele>215.0</ele><time>2026-05-03T13:58:34.564Z</time></trkpt><trkpt lat="41.0530483" lon="16.035125"><ele>215.0</ele><time>2026-05-03T13:58:35.564Z</time></trkpt><trkpt lat="41.0531283" lon="16.0350033"><ele>215.0</ele><time>2026-05-03T13:58:36.564Z</time></trkpt><trkpt lat="41.0532083" lon="16.0348833"><ele>214.0</ele><time>2026-05-03T13:58:37.565Z</time></trkpt><trkpt lat="41.053285" lon="16.03477"><ele>213.0</ele><time>2026-05-03T13:58:38.564Z</time></trkpt><trkpt lat="41.0533517" lon="16.034665"><ele>212.0</ele><time>2026-05-03T13:58:39.564Z</time></trkpt><trkpt lat="41.0534267" lon="16.0345533"><ele>211.0</ele><time>2026-05-03T13:58:40.564Z</time></trkpt><trkpt lat="41.05349" lon="16.034445"><ele>210.0</ele><time>2026-05-03T13:58:41.565Z</time></trkpt><trkpt lat="41.0535467" lon="16.0343467"><ele>211.0</ele><time>2026-05-03T13:58:42.565Z</time></trkpt><trkpt lat="41.0535883" lon="16.034225"><ele>212.0</ele><time>2026-05-03T13:58:43.565Z</time></trkpt><trkpt lat="41.0536233" lon="16.0340967"><ele>213.0</ele><time>2026-05-03T13:58:44.564Z</time></trkpt><trkpt lat="41.0536483" lon="16.0339833"><ele>214.0</ele><time>2026-05-03T13:58:45.564Z</time></trkpt><trkpt lat="41.05366" lon="16.03386"><ele>215.0</ele><time>2026-05-03T13:58:46.564Z</time></trkpt><trkpt lat="41.0536667" lon="16.0337383"><ele>215.00000000000003</ele><time>2026-05-03T13:58:47.564Z</time></trkpt><trkpt lat="41.0536767" lon="16.0336167"><ele>215.0</ele><time>2026-05-03T13:58:48.564Z</time></trkpt><trkpt lat="41.0536817" lon="16.0335133"><ele>215.0</ele><time>2026-05-03T13:58:49.564Z</time></trkpt><trkpt lat="41.05369" lon="16.0334267"><ele>215.0</ele><time>2026-05-03T13:58:50.565Z</time></trkpt><trkpt lat="41.0537017" lon="16.0332917"><ele>215.00000000000003</ele><time>2026-05-03T13:58:52.564Z</time></trkpt><trkpt lat="41.053705" lon="16.0331617"><ele>215.0</ele><time>2026-05-03T13:58:54.564Z</time></trkpt><trkpt lat="41.0537133" lon="16.0329917"><ele>213.0</ele><time>2026-05-03T13:58:56.564Z</time></trkpt><trkpt lat="41.05372" lon="16.032905"><ele>213.0</ele><time>2026-05-03T13:58:57.565Z</time></trkpt><trkpt lat="41.05374" lon="16.0327633"><ele>213.0</ele><time>2026-05-03T13:58:59.564Z</time></trkpt><trkpt lat="41.0537483" lon="16.032665"><ele>213.0</ele><time>2026-05-03T13:59:09.564Z</time></trkpt><trkpt lat="41.05376" lon="16.0325033"><ele>213.0</ele><time>2026-05-03T13:59:19.564Z</time></trkpt><trkpt lat="41.0537617" lon="16.0324"><ele>219.0</ele><time>2026-05-03T13:59:23.564Z</time></trkpt></trkseg></trk></gpx>